<?xml version="1.0" encoding="UTF-8"?>
<gpx version="1.1" creator="https://www.youtrack.es" xsi:schemaLocation="http://www.topografix.com/GPX/1/1 http://www.topografix.com/GPX/1/1/gpx.xsd http://www.garmin.com/xmlschemas/GpxExtensions/v3 http://www.garmin.com/xmlschemas/GpxExtensionsv3.xsd http://www.garmin.com/xmlschemas/TrackPointExtension/v1 http://www.garmin.com/xmlschemas/TrackPointExtensionv1.xsd" xmlns:gpxtpx="http://www.garmin.com/xmlschemas/TrackPointExtension/v1" xmlns:gpxx="http://www.garmin.com/xmlschemas/GpxExtensions/v3" xmlns:xsi="http://www.w3.org/2001/XMLSchema-instance">
  <metadata>
    <link href="https://www.youtrack.es">
      <text>YouTrack.es</text>
    </link>
    <time>2026-05-10T13:33:18Z</time>
  </metadata>
  <trk>
    <src>https://www.youtrack.es</src>
    <link href="https://www.youtrack.es/ruta/9740-nha-chica">
      <text>YouTrack.es</text>
    </link>
    <trkseg>
      <trkpt lat="-22.223938" lon="-46.085264">
        <ele>1076.3</ele>
        <time>2019-10-14T14:49:55Z</time>
      </trkpt>
      <trkpt lat="-22.129728" lon="-46.040145">
        <ele>1077.9</ele>
        <time>2019-10-14T16:50:36Z</time>
      </trkpt>
      <trkpt lat="-22.316304" lon="-46.330034">
        <ele>852.142</ele>
        <time>2019-10-14T11:27:43Z</time>
      </trkpt>
      <trkpt lat="-22.316340" lon="-46.330071">
        <ele>852.122</ele>
        <time>2019-10-14T11:35:56Z</time>
      </trkpt>
      <trkpt lat="-22.316374" lon="-46.330032">
        <ele>852.114</ele>
        <time>2019-10-14T11:41:06Z</time>
      </trkpt>
      <trkpt lat="-22.316384" lon="-46.329959">
        <ele>852.108</ele>
        <time>2019-10-14T11:41:11Z</time>
      </trkpt>
      <trkpt lat="-22.316411" lon="-46.329903">
        <ele>852.178</ele>
        <time>2019-10-14T11:41:14Z</time>
      </trkpt>
      <trkpt lat="-22.316430" lon="-46.329833">
        <ele>852.126</ele>
        <time>2019-10-14T11:41:18Z</time>
      </trkpt>
      <trkpt lat="-22.316440" lon="-46.329783">
        <ele>852.198</ele>
        <time>2019-10-14T11:41:21Z</time>
      </trkpt>
      <trkpt lat="-22.316453" lon="-46.329719">
        <ele>852.140</ele>
        <time>2019-10-14T11:41:24Z</time>
      </trkpt>
      <trkpt lat="-22.316470" lon="-46.329673">
        <ele>852.162</ele>
        <time>2019-10-14T11:41:27Z</time>
      </trkpt>
      <trkpt lat="-22.316487" lon="-46.329609">
        <ele>852.175</ele>
        <time>2019-10-14T11:41:31Z</time>
      </trkpt>
      <trkpt lat="-22.316506" lon="-46.329555">
        <ele>852.130</ele>
        <time>2019-10-14T11:41:33Z</time>
      </trkpt>
      <trkpt lat="-22.316524" lon="-46.329507">
        <ele>852.196</ele>
        <time>2019-10-14T11:41:35Z</time>
      </trkpt>
      <trkpt lat="-22.316544" lon="-46.329456">
        <ele>852.129</ele>
        <time>2019-10-14T11:41:38Z</time>
      </trkpt>
      <trkpt lat="-22.316558" lon="-46.329407">
        <ele>852.100</ele>
        <time>2019-10-14T11:41:39Z</time>
      </trkpt>
      <trkpt lat="-22.316583" lon="-46.329348">
        <ele>852.120</ele>
        <time>2019-10-14T11:41:42Z</time>
      </trkpt>
      <trkpt lat="-22.316612" lon="-46.329303">
        <ele>852.108</ele>
        <time>2019-10-14T11:41:44Z</time>
      </trkpt>
      <trkpt lat="-22.316638" lon="-46.329259">
        <ele>852.086</ele>
        <time>2019-10-14T11:41:46Z</time>
      </trkpt>
      <trkpt lat="-22.316664" lon="-46.329186">
        <ele>852.264</ele>
        <time>2019-10-14T11:41:50Z</time>
      </trkpt>
      <trkpt lat="-22.316676" lon="-46.329124">
        <ele>852.586</ele>
        <time>2019-10-14T11:41:51Z</time>
      </trkpt>
      <trkpt lat="-22.316689" lon="-46.329075">
        <ele>852.658</ele>
        <time>2019-10-14T11:41:53Z</time>
      </trkpt>
      <trkpt lat="-22.316701" lon="-46.329016">
        <ele>852.770</ele>
        <time>2019-10-14T11:41:56Z</time>
      </trkpt>
      <trkpt lat="-22.316715" lon="-46.328941">
        <ele>852.853</ele>
        <time>2019-10-14T11:41:57Z</time>
      </trkpt>
      <trkpt lat="-22.316727" lon="-46.328867">
        <ele>853.168</ele>
        <time>2019-10-14T11:41:59Z</time>
      </trkpt>
      <trkpt lat="-22.316738" lon="-46.328813">
        <ele>853.394</ele>
        <time>2019-10-14T11:42:01Z</time>
      </trkpt>
      <trkpt lat="-22.316754" lon="-46.328740">
        <ele>853.528</ele>
        <time>2019-10-14T11:42:04Z</time>
      </trkpt>
      <trkpt lat="-22.316762" lon="-46.328680">
        <ele>853.989</ele>
        <time>2019-10-14T11:42:06Z</time>
      </trkpt>
      <trkpt lat="-22.316772" lon="-46.328632">
        <ele>853.917</ele>
        <time>2019-10-14T11:42:07Z</time>
      </trkpt>
      <trkpt lat="-22.316786" lon="-46.328548">
        <ele>854.008</ele>
        <time>2019-10-14T11:42:10Z</time>
      </trkpt>
      <trkpt lat="-22.316800" lon="-46.328494">
        <ele>854.536</ele>
        <time>2019-10-14T11:42:13Z</time>
      </trkpt>
      <trkpt lat="-22.316796" lon="-46.328426">
        <ele>855.074</ele>
        <time>2019-10-14T11:42:16Z</time>
      </trkpt>
      <trkpt lat="-22.316781" lon="-46.328356">
        <ele>854.736</ele>
        <time>2019-10-14T11:42:19Z</time>
      </trkpt>
      <trkpt lat="-22.316802" lon="-46.328295">
        <ele>854.858</ele>
        <time>2019-10-14T11:42:22Z</time>
      </trkpt>
      <trkpt lat="-22.316857" lon="-46.328256">
        <ele>854.340</ele>
        <time>2019-10-14T11:42:24Z</time>
      </trkpt>
      <trkpt lat="-22.316872" lon="-46.328203">
        <ele>854.463</ele>
        <time>2019-10-14T11:42:26Z</time>
      </trkpt>
      <trkpt lat="-22.316881" lon="-46.328143">
        <ele>854.418</ele>
        <time>2019-10-14T11:42:29Z</time>
      </trkpt>
      <trkpt lat="-22.316895" lon="-46.328090">
        <ele>854.754</ele>
        <time>2019-10-14T11:42:30Z</time>
      </trkpt>
      <trkpt lat="-22.316910" lon="-46.328042">
        <ele>855.238</ele>
        <time>2019-10-14T11:42:32Z</time>
      </trkpt>
      <trkpt lat="-22.316927" lon="-46.327995">
        <ele>855.370</ele>
        <time>2019-10-14T11:42:35Z</time>
      </trkpt>
      <trkpt lat="-22.316942" lon="-46.327913">
        <ele>855.417</ele>
        <time>2019-10-14T11:42:38Z</time>
      </trkpt>
      <trkpt lat="-22.316950" lon="-46.327855">
        <ele>855.908</ele>
        <time>2019-10-14T11:42:39Z</time>
      </trkpt>
      <trkpt lat="-22.316959" lon="-46.327780">
        <ele>856.137</ele>
        <time>2019-10-14T11:42:43Z</time>
      </trkpt>
      <trkpt lat="-22.316966" lon="-46.327712">
        <ele>856.435</ele>
        <time>2019-10-14T11:42:45Z</time>
      </trkpt>
      <trkpt lat="-22.316985" lon="-46.327658">
        <ele>856.347</ele>
        <time>2019-10-14T11:42:47Z</time>
      </trkpt>
      <trkpt lat="-22.317012" lon="-46.327583">
        <ele>856.679</ele>
        <time>2019-10-14T11:42:51Z</time>
      </trkpt>
      <trkpt lat="-22.317037" lon="-46.327530">
        <ele>856.671</ele>
        <time>2019-10-14T11:42:54Z</time>
      </trkpt>
      <trkpt lat="-22.317045" lon="-46.327448">
        <ele>856.684</ele>
        <time>2019-10-14T11:42:57Z</time>
      </trkpt>
      <trkpt lat="-22.317039" lon="-46.327388">
        <ele>856.429</ele>
        <time>2019-10-14T11:42:59Z</time>
      </trkpt>
      <trkpt lat="-22.317048" lon="-46.327325">
        <ele>856.875</ele>
        <time>2019-10-14T11:43:01Z</time>
      </trkpt>
      <trkpt lat="-22.317057" lon="-46.327271">
        <ele>856.798</ele>
        <time>2019-10-14T11:43:03Z</time>
      </trkpt>
      <trkpt lat="-22.317068" lon="-46.327223">
        <ele>857.015</ele>
        <time>2019-10-14T11:43:04Z</time>
      </trkpt>
      <trkpt lat="-22.317074" lon="-46.327151">
        <ele>857.326</ele>
        <time>2019-10-14T11:43:06Z</time>
      </trkpt>
      <trkpt lat="-22.317083" lon="-46.327075">
        <ele>857.108</ele>
        <time>2019-10-14T11:43:09Z</time>
      </trkpt>
      <trkpt lat="-22.317095" lon="-46.327016">
        <ele>857.283</ele>
        <time>2019-10-14T11:43:11Z</time>
      </trkpt>
      <trkpt lat="-22.317110" lon="-46.326937">
        <ele>857.591</ele>
        <time>2019-10-14T11:43:12Z</time>
      </trkpt>
      <trkpt lat="-22.317121" lon="-46.326881">
        <ele>857.593</ele>
        <time>2019-10-14T11:43:14Z</time>
      </trkpt>
      <trkpt lat="-22.317138" lon="-46.326830">
        <ele>857.695</ele>
        <time>2019-10-14T11:43:16Z</time>
      </trkpt>
      <trkpt lat="-22.317150" lon="-46.326777">
        <ele>857.597</ele>
        <time>2019-10-14T11:43:18Z</time>
      </trkpt>
      <trkpt lat="-22.317172" lon="-46.326699">
        <ele>857.510</ele>
        <time>2019-10-14T11:43:20Z</time>
      </trkpt>
      <trkpt lat="-22.317188" lon="-46.326641">
        <ele>858.085</ele>
        <time>2019-10-14T11:43:22Z</time>
      </trkpt>
      <trkpt lat="-22.317210" lon="-46.326555">
        <ele>857.821</ele>
        <time>2019-10-14T11:43:25Z</time>
      </trkpt>
      <trkpt lat="-22.317221" lon="-46.326501">
        <ele>858.171</ele>
        <time>2019-10-14T11:43:27Z</time>
      </trkpt>
      <trkpt lat="-22.317230" lon="-46.326434">
        <ele>858.241</ele>
        <time>2019-10-14T11:43:29Z</time>
      </trkpt>
      <trkpt lat="-22.317248" lon="-46.326346">
        <ele>858.715</ele>
        <time>2019-10-14T11:43:32Z</time>
      </trkpt>
      <trkpt lat="-22.317263" lon="-46.326285">
        <ele>858.608</ele>
        <time>2019-10-14T11:43:34Z</time>
      </trkpt>
      <trkpt lat="-22.317276" lon="-46.326210">
        <ele>858.871</ele>
        <time>2019-10-14T11:43:36Z</time>
      </trkpt>
      <trkpt lat="-22.317291" lon="-46.326158">
        <ele>858.959</ele>
        <time>2019-10-14T11:43:37Z</time>
      </trkpt>
      <trkpt lat="-22.317310" lon="-46.326113">
        <ele>858.821</ele>
        <time>2019-10-14T11:43:44Z</time>
      </trkpt>
      <trkpt lat="-22.317297" lon="-46.326026">
        <ele>858.443</ele>
        <time>2019-10-14T11:43:49Z</time>
      </trkpt>
      <trkpt lat="-22.317310" lon="-46.325955">
        <ele>858.445</ele>
        <time>2019-10-14T11:43:51Z</time>
      </trkpt>
      <trkpt lat="-22.317332" lon="-46.325898">
        <ele>858.218</ele>
        <time>2019-10-14T11:43:53Z</time>
      </trkpt>
      <trkpt lat="-22.317343" lon="-46.325838">
        <ele>858.383</ele>
        <time>2019-10-14T11:43:56Z</time>
      </trkpt>
      <trkpt lat="-22.317330" lon="-46.325771">
        <ele>858.399</ele>
        <time>2019-10-14T11:43:59Z</time>
      </trkpt>
      <trkpt lat="-22.317344" lon="-46.325717">
        <ele>857.976</ele>
        <time>2019-10-14T11:44:01Z</time>
      </trkpt>
      <trkpt lat="-22.317361" lon="-46.325663">
        <ele>857.590</ele>
        <time>2019-10-14T11:44:03Z</time>
      </trkpt>
      <trkpt lat="-22.317374" lon="-46.325612">
        <ele>856.919</ele>
        <time>2019-10-14T11:44:05Z</time>
      </trkpt>
      <trkpt lat="-22.317384" lon="-46.325557">
        <ele>857.008</ele>
        <time>2019-10-14T11:44:07Z</time>
      </trkpt>
      <trkpt lat="-22.317399" lon="-46.325484">
        <ele>856.461</ele>
        <time>2019-10-14T11:44:09Z</time>
      </trkpt>
      <trkpt lat="-22.317409" lon="-46.325421">
        <ele>855.979</ele>
        <time>2019-10-14T11:44:11Z</time>
      </trkpt>
      <trkpt lat="-22.310564" lon="-46.313095">
        <ele>849.261</ele>
        <time>2019-10-14T11:48:58Z</time>
      </trkpt>
      <trkpt lat="-22.310340" lon="-46.310734">
        <ele>849.383</ele>
        <time>2019-10-14T11:49:44Z</time>
      </trkpt>
      <trkpt lat="-22.309994" lon="-46.308120">
        <ele>849.685</ele>
        <time>2019-10-14T11:50:40Z</time>
      </trkpt>
      <trkpt lat="-22.309976" lon="-46.308069">
        <ele>848.688</ele>
        <time>2019-10-14T11:50:42Z</time>
      </trkpt>
      <trkpt lat="-22.309070" lon="-46.305976">
        <ele>850.883</ele>
        <time>2019-10-14T11:51:31Z</time>
      </trkpt>
      <trkpt lat="-22.309049" lon="-46.305922">
        <ele>850.719</ele>
        <time>2019-10-14T11:51:33Z</time>
      </trkpt>
      <trkpt lat="-22.309018" lon="-46.305877">
        <ele>850.874</ele>
        <time>2019-10-14T11:51:36Z</time>
      </trkpt>
      <trkpt lat="-22.308996" lon="-46.305821">
        <ele>850.956</ele>
        <time>2019-10-14T11:51:39Z</time>
      </trkpt>
      <trkpt lat="-22.308983" lon="-46.305767">
        <ele>851.221</ele>
        <time>2019-10-14T11:51:42Z</time>
      </trkpt>
      <trkpt lat="-22.308922" lon="-46.305803">
        <ele>851.108</ele>
        <time>2019-10-14T11:51:58Z</time>
      </trkpt>
      <trkpt lat="-22.308841" lon="-46.305848">
        <ele>850.421</ele>
        <time>2019-10-14T11:52:01Z</time>
      </trkpt>
      <trkpt lat="-22.308767" lon="-46.305884">
        <ele>850.049</ele>
        <time>2019-10-14T11:52:03Z</time>
      </trkpt>
      <trkpt lat="-22.308725" lon="-46.305912">
        <ele>850.221</ele>
        <time>2019-10-14T11:52:04Z</time>
      </trkpt>
      <trkpt lat="-22.308668" lon="-46.305948">
        <ele>850.213</ele>
        <time>2019-10-14T11:52:07Z</time>
      </trkpt>
      <trkpt lat="-22.308622" lon="-46.306004">
        <ele>850.225</ele>
        <time>2019-10-14T11:52:08Z</time>
      </trkpt>
      <trkpt lat="-22.308588" lon="-46.306045">
        <ele>850.288</ele>
        <time>2019-10-14T11:52:10Z</time>
      </trkpt>
      <trkpt lat="-22.308548" lon="-46.306085">
        <ele>850.443</ele>
        <time>2019-10-14T11:52:13Z</time>
      </trkpt>
      <trkpt lat="-22.308508" lon="-46.306124">
        <ele>850.539</ele>
        <time>2019-10-14T11:52:15Z</time>
      </trkpt>
      <trkpt lat="-22.308475" lon="-46.306159">
        <ele>850.638</ele>
        <time>2019-10-14T11:52:16Z</time>
      </trkpt>
      <trkpt lat="-22.308431" lon="-46.306205">
        <ele>850.270</ele>
        <time>2019-10-14T11:52:29Z</time>
      </trkpt>
      <trkpt lat="-22.305063" lon="-46.307490">
        <ele>851.417</ele>
        <time>2019-10-14T11:53:44Z</time>
      </trkpt>
      <trkpt lat="-22.304996" lon="-46.307484">
        <ele>851.708</ele>
        <time>2019-10-14T11:53:47Z</time>
      </trkpt>
      <trkpt lat="-22.304933" lon="-46.307501">
        <ele>852.787</ele>
        <time>2019-10-14T11:53:49Z</time>
      </trkpt>
      <trkpt lat="-22.304867" lon="-46.307509">
        <ele>852.655</ele>
        <time>2019-10-14T11:53:50Z</time>
      </trkpt>
      <trkpt lat="-22.304789" lon="-46.307515">
        <ele>852.777</ele>
        <time>2019-10-14T11:53:52Z</time>
      </trkpt>
      <trkpt lat="-22.304679" lon="-46.307519">
        <ele>853.349</ele>
        <time>2019-10-14T11:53:56Z</time>
      </trkpt>
      <trkpt lat="-22.304626" lon="-46.307520">
        <ele>853.471</ele>
        <time>2019-10-14T11:53:57Z</time>
      </trkpt>
      <trkpt lat="-22.304575" lon="-46.307523">
        <ele>853.334</ele>
        <time>2019-10-14T11:53:59Z</time>
      </trkpt>
      <trkpt lat="-22.304523" lon="-46.307525">
        <ele>853.769</ele>
        <time>2019-10-14T11:54:00Z</time>
      </trkpt>
      <trkpt lat="-22.304444" lon="-46.307523">
        <ele>853.985</ele>
        <time>2019-10-14T11:54:03Z</time>
      </trkpt>
      <trkpt lat="-22.304383" lon="-46.307517">
        <ele>853.733</ele>
        <time>2019-10-14T11:54:05Z</time>
      </trkpt>
      <trkpt lat="-22.304313" lon="-46.307513">
        <ele>854.123</ele>
        <time>2019-10-14T11:54:06Z</time>
      </trkpt>
      <trkpt lat="-22.304248" lon="-46.307515">
        <ele>854.015</ele>
        <time>2019-10-14T11:54:08Z</time>
      </trkpt>
      <trkpt lat="-22.304192" lon="-46.307518">
        <ele>854.308</ele>
        <time>2019-10-14T11:54:10Z</time>
      </trkpt>
      <trkpt lat="-22.304136" lon="-46.307519">
        <ele>854.047</ele>
        <time>2019-10-14T11:54:11Z</time>
      </trkpt>
      <trkpt lat="-22.304022" lon="-46.307511">
        <ele>854.065</ele>
        <time>2019-10-14T11:54:14Z</time>
      </trkpt>
      <trkpt lat="-22.303966" lon="-46.307512">
        <ele>854.257</ele>
        <time>2019-10-14T11:54:16Z</time>
      </trkpt>
      <trkpt lat="-22.303893" lon="-46.307511">
        <ele>854.119</ele>
        <time>2019-10-14T11:54:18Z</time>
      </trkpt>
      <trkpt lat="-22.303830" lon="-46.307507">
        <ele>854.111</ele>
        <time>2019-10-14T11:54:20Z</time>
      </trkpt>
      <trkpt lat="-22.303782" lon="-46.307509">
        <ele>854.794</ele>
        <time>2019-10-14T11:54:21Z</time>
      </trkpt>
      <trkpt lat="-22.303718" lon="-46.307509">
        <ele>854.939</ele>
        <time>2019-10-14T11:54:22Z</time>
      </trkpt>
      <trkpt lat="-22.303638" lon="-46.307511">
        <ele>855.015</ele>
        <time>2019-10-14T11:54:25Z</time>
      </trkpt>
      <trkpt lat="-22.303570" lon="-46.307513">
        <ele>854.872</ele>
        <time>2019-10-14T11:54:26Z</time>
      </trkpt>
      <trkpt lat="-22.303497" lon="-46.307522">
        <ele>855.013</ele>
        <time>2019-10-14T11:54:28Z</time>
      </trkpt>
      <trkpt lat="-22.303400" lon="-46.307525">
        <ele>855.414</ele>
        <time>2019-10-14T11:54:31Z</time>
      </trkpt>
      <trkpt lat="-22.303353" lon="-46.307525">
        <ele>855.408</ele>
        <time>2019-10-14T11:54:33Z</time>
      </trkpt>
      <trkpt lat="-22.303303" lon="-46.307532">
        <ele>855.331</ele>
        <time>2019-10-14T11:54:34Z</time>
      </trkpt>
      <trkpt lat="-22.303224" lon="-46.307532">
        <ele>855.879</ele>
        <time>2019-10-14T11:54:37Z</time>
      </trkpt>
      <trkpt lat="-22.303170" lon="-46.307532">
        <ele>856.251</ele>
        <time>2019-10-14T11:54:39Z</time>
      </trkpt>
      <trkpt lat="-22.303123" lon="-46.307533">
        <ele>856.123</ele>
        <time>2019-10-14T11:54:41Z</time>
      </trkpt>
      <trkpt lat="-22.302965" lon="-46.307530">
        <ele>856.975</ele>
        <time>2019-10-14T11:54:46Z</time>
      </trkpt>
      <trkpt lat="-22.302902" lon="-46.307533">
        <ele>857.358</ele>
        <time>2019-10-14T11:54:47Z</time>
      </trkpt>
      <trkpt lat="-22.302844" lon="-46.307534">
        <ele>857.433</ele>
        <time>2019-10-14T11:54:50Z</time>
      </trkpt>
      <trkpt lat="-22.302796" lon="-46.307533">
        <ele>857.769</ele>
        <time>2019-10-14T11:54:51Z</time>
      </trkpt>
      <trkpt lat="-22.302736" lon="-46.307533">
        <ele>857.713</ele>
        <time>2019-10-14T11:54:53Z</time>
      </trkpt>
      <trkpt lat="-22.302665" lon="-46.307529">
        <ele>858.243</ele>
        <time>2019-10-14T11:54:55Z</time>
      </trkpt>
      <trkpt lat="-22.302597" lon="-46.307527">
        <ele>858.107</ele>
        <time>2019-10-14T11:54:58Z</time>
      </trkpt>
      <trkpt lat="-22.302545" lon="-46.307522">
        <ele>858.408</ele>
        <time>2019-10-14T11:54:59Z</time>
      </trkpt>
      <trkpt lat="-22.302478" lon="-46.307518">
        <ele>858.595</ele>
        <time>2019-10-14T11:55:01Z</time>
      </trkpt>
      <trkpt lat="-22.302429" lon="-46.307513">
        <ele>858.613</ele>
        <time>2019-10-14T11:55:02Z</time>
      </trkpt>
      <trkpt lat="-22.302369" lon="-46.307508">
        <ele>858.885</ele>
        <time>2019-10-14T11:55:05Z</time>
      </trkpt>
      <trkpt lat="-22.302310" lon="-46.307500">
        <ele>858.927</ele>
        <time>2019-10-14T11:55:06Z</time>
      </trkpt>
      <trkpt lat="-22.302197" lon="-46.307497">
        <ele>859.059</ele>
        <time>2019-10-14T11:55:10Z</time>
      </trkpt>
      <trkpt lat="-22.302130" lon="-46.307492">
        <ele>859.112</ele>
        <time>2019-10-14T11:55:11Z</time>
      </trkpt>
      <trkpt lat="-22.302085" lon="-46.307492">
        <ele>859.067</ele>
        <time>2019-10-14T11:55:12Z</time>
      </trkpt>
      <trkpt lat="-22.302007" lon="-46.307492">
        <ele>858.863</ele>
        <time>2019-10-14T11:55:14Z</time>
      </trkpt>
      <trkpt lat="-22.299114" lon="-46.305398">
        <ele>851.149</ele>
        <time>2019-10-14T11:56:31Z</time>
      </trkpt>
      <trkpt lat="-22.299063" lon="-46.305325">
        <ele>850.702</ele>
        <time>2019-10-14T11:56:34Z</time>
      </trkpt>
      <trkpt lat="-22.298991" lon="-46.305243">
        <ele>850.722</ele>
        <time>2019-10-14T11:56:35Z</time>
      </trkpt>
      <trkpt lat="-22.298954" lon="-46.305194">
        <ele>851.108</ele>
        <time>2019-10-14T11:56:37Z</time>
      </trkpt>
      <trkpt lat="-22.298598" lon="-46.304813">
        <ele>850.928</ele>
        <time>2019-10-14T11:56:49Z</time>
      </trkpt>
      <trkpt lat="-22.298481" lon="-46.304677">
        <ele>851.136</ele>
        <time>2019-10-14T11:56:54Z</time>
      </trkpt>
      <trkpt lat="-22.298442" lon="-46.304646">
        <ele>851.248</ele>
        <time>2019-10-14T11:56:55Z</time>
      </trkpt>
      <trkpt lat="-22.298373" lon="-46.304589">
        <ele>851.540</ele>
        <time>2019-10-14T11:56:57Z</time>
      </trkpt>
      <trkpt lat="-22.298327" lon="-46.304546">
        <ele>851.352</ele>
        <time>2019-10-14T11:56:59Z</time>
      </trkpt>
      <trkpt lat="-22.298294" lon="-46.304509">
        <ele>851.575</ele>
        <time>2019-10-14T11:57:00Z</time>
      </trkpt>
      <trkpt lat="-22.298222" lon="-46.304435">
        <ele>851.960</ele>
        <time>2019-10-14T11:57:03Z</time>
      </trkpt>
      <trkpt lat="-22.298144" lon="-46.304361">
        <ele>851.826</ele>
        <time>2019-10-14T11:57:06Z</time>
      </trkpt>
      <trkpt lat="-22.298094" lon="-46.304321">
        <ele>851.771</ele>
        <time>2019-10-14T11:57:07Z</time>
      </trkpt>
      <trkpt lat="-22.298029" lon="-46.304278">
        <ele>851.741</ele>
        <time>2019-10-14T11:57:10Z</time>
      </trkpt>
      <trkpt lat="-22.297959" lon="-46.304235">
        <ele>852.115</ele>
        <time>2019-10-14T11:57:11Z</time>
      </trkpt>
      <trkpt lat="-22.297911" lon="-46.304201">
        <ele>852.208</ele>
        <time>2019-10-14T11:57:13Z</time>
      </trkpt>
      <trkpt lat="-22.297868" lon="-46.304171">
        <ele>852.441</ele>
        <time>2019-10-14T11:57:15Z</time>
      </trkpt>
      <trkpt lat="-22.297823" lon="-46.304141">
        <ele>853.089</ele>
        <time>2019-10-14T11:57:17Z</time>
      </trkpt>
      <trkpt lat="-22.297782" lon="-46.304112">
        <ele>853.511</ele>
        <time>2019-10-14T11:57:18Z</time>
      </trkpt>
      <trkpt lat="-22.297735" lon="-46.304072">
        <ele>854.273</ele>
        <time>2019-10-14T11:57:20Z</time>
      </trkpt>
      <trkpt lat="-22.297688" lon="-46.304041">
        <ele>854.465</ele>
        <time>2019-10-14T11:57:22Z</time>
      </trkpt>
      <trkpt lat="-22.297647" lon="-46.303999">
        <ele>854.798</ele>
        <time>2019-10-14T11:57:24Z</time>
      </trkpt>
      <trkpt lat="-22.297597" lon="-46.303957">
        <ele>855.473</ele>
        <time>2019-10-14T11:57:27Z</time>
      </trkpt>
      <trkpt lat="-22.297563" lon="-46.303920">
        <ele>856.219</ele>
        <time>2019-10-14T11:57:30Z</time>
      </trkpt>
      <trkpt lat="-22.297520" lon="-46.303868">
        <ele>856.941</ele>
        <time>2019-10-14T11:57:32Z</time>
      </trkpt>
      <trkpt lat="-22.297485" lon="-46.303808">
        <ele>857.381</ele>
        <time>2019-10-14T11:57:35Z</time>
      </trkpt>
      <trkpt lat="-22.297465" lon="-46.303760">
        <ele>857.609</ele>
        <time>2019-10-14T11:57:37Z</time>
      </trkpt>
      <trkpt lat="-22.297435" lon="-46.303691">
        <ele>857.608</ele>
        <time>2019-10-14T11:57:40Z</time>
      </trkpt>
      <trkpt lat="-22.297411" lon="-46.303646">
        <ele>857.578</ele>
        <time>2019-10-14T11:57:41Z</time>
      </trkpt>
      <trkpt lat="-22.297385" lon="-46.303588">
        <ele>858.176</ele>
        <time>2019-10-14T11:57:44Z</time>
      </trkpt>
      <trkpt lat="-22.297364" lon="-46.303542">
        <ele>858.188</ele>
        <time>2019-10-14T11:57:45Z</time>
      </trkpt>
      <trkpt lat="-22.297342" lon="-46.303482">
        <ele>858.160</ele>
        <time>2019-10-14T11:57:47Z</time>
      </trkpt>
      <trkpt lat="-22.297317" lon="-46.303420">
        <ele>858.432</ele>
        <time>2019-10-14T11:57:50Z</time>
      </trkpt>
      <trkpt lat="-22.297292" lon="-46.303373">
        <ele>858.585</ele>
        <time>2019-10-14T11:57:51Z</time>
      </trkpt>
      <trkpt lat="-22.297237" lon="-46.303246">
        <ele>858.870</ele>
        <time>2019-10-14T11:57:55Z</time>
      </trkpt>
      <trkpt lat="-22.297209" lon="-46.303185">
        <ele>859.146</ele>
        <time>2019-10-14T11:57:57Z</time>
      </trkpt>
      <trkpt lat="-22.297178" lon="-46.303127">
        <ele>858.874</ele>
        <time>2019-10-14T11:58:00Z</time>
      </trkpt>
      <trkpt lat="-22.297140" lon="-46.303067">
        <ele>858.856</ele>
        <time>2019-10-14T11:58:02Z</time>
      </trkpt>
      <trkpt lat="-22.297097" lon="-46.303007">
        <ele>858.521</ele>
        <time>2019-10-14T11:58:04Z</time>
      </trkpt>
      <trkpt lat="-22.297069" lon="-46.302966">
        <ele>858.608</ele>
        <time>2019-10-14T11:58:05Z</time>
      </trkpt>
      <trkpt lat="-22.297020" lon="-46.302908">
        <ele>858.731</ele>
        <time>2019-10-14T11:58:08Z</time>
      </trkpt>
      <trkpt lat="-22.296984" lon="-46.302852">
        <ele>858.899</ele>
        <time>2019-10-14T11:58:09Z</time>
      </trkpt>
      <trkpt lat="-22.296954" lon="-46.302803">
        <ele>858.991</ele>
        <time>2019-10-14T11:58:11Z</time>
      </trkpt>
      <trkpt lat="-22.296924" lon="-46.302753">
        <ele>858.823</ele>
        <time>2019-10-14T11:58:13Z</time>
      </trkpt>
      <trkpt lat="-22.296883" lon="-46.302699">
        <ele>859.125</ele>
        <time>2019-10-14T11:58:14Z</time>
      </trkpt>
      <trkpt lat="-22.296849" lon="-46.302653">
        <ele>859.218</ele>
        <time>2019-10-14T11:58:16Z</time>
      </trkpt>
      <trkpt lat="-22.296803" lon="-46.302604">
        <ele>859.183</ele>
        <time>2019-10-14T11:58:17Z</time>
      </trkpt>
      <trkpt lat="-22.296771" lon="-46.302567">
        <ele>858.939</ele>
        <time>2019-10-14T11:58:18Z</time>
      </trkpt>
      <trkpt lat="-22.296733" lon="-46.302515">
        <ele>858.922</ele>
        <time>2019-10-14T11:58:21Z</time>
      </trkpt>
      <trkpt lat="-22.296698" lon="-46.302468">
        <ele>859.162</ele>
        <time>2019-10-14T11:58:22Z</time>
      </trkpt>
      <trkpt lat="-22.296655" lon="-46.302418">
        <ele>859.408</ele>
        <time>2019-10-14T11:58:24Z</time>
      </trkpt>
      <trkpt lat="-22.296602" lon="-46.302361">
        <ele>859.608</ele>
        <time>2019-10-14T11:58:26Z</time>
      </trkpt>
      <trkpt lat="-22.296567" lon="-46.302324">
        <ele>859.946</ele>
        <time>2019-10-14T11:58:28Z</time>
      </trkpt>
      <trkpt lat="-22.296507" lon="-46.302257">
        <ele>860.284</ele>
        <time>2019-10-14T11:58:30Z</time>
      </trkpt>
      <trkpt lat="-22.296468" lon="-46.302209">
        <ele>860.836</ele>
        <time>2019-10-14T11:58:32Z</time>
      </trkpt>
      <trkpt lat="-22.296435" lon="-46.302161">
        <ele>861.268</ele>
        <time>2019-10-14T11:58:35Z</time>
      </trkpt>
      <trkpt lat="-22.296395" lon="-46.302091">
        <ele>861.530</ele>
        <time>2019-10-14T11:58:37Z</time>
      </trkpt>
      <trkpt lat="-22.296364" lon="-46.302046">
        <ele>862.023</ele>
        <time>2019-10-14T11:58:39Z</time>
      </trkpt>
      <trkpt lat="-22.296319" lon="-46.301974">
        <ele>862.448</ele>
        <time>2019-10-14T11:58:41Z</time>
      </trkpt>
      <trkpt lat="-22.296268" lon="-46.301863">
        <ele>862.794</ele>
        <time>2019-10-14T11:58:45Z</time>
      </trkpt>
      <trkpt lat="-22.296212" lon="-46.301770">
        <ele>862.758</ele>
        <time>2019-10-14T11:58:48Z</time>
      </trkpt>
      <trkpt lat="-22.296175" lon="-46.301708">
        <ele>862.852</ele>
        <time>2019-10-14T11:58:49Z</time>
      </trkpt>
      <trkpt lat="-22.296138" lon="-46.301645">
        <ele>862.917</ele>
        <time>2019-10-14T11:58:51Z</time>
      </trkpt>
      <trkpt lat="-22.296101" lon="-46.301593">
        <ele>862.908</ele>
        <time>2019-10-14T11:58:53Z</time>
      </trkpt>
      <trkpt lat="-22.296066" lon="-46.301539">
        <ele>863.159</ele>
        <time>2019-10-14T11:58:54Z</time>
      </trkpt>
      <trkpt lat="-22.296032" lon="-46.301482">
        <ele>863.557</ele>
        <time>2019-10-14T11:58:56Z</time>
      </trkpt>
      <trkpt lat="-22.295995" lon="-46.301430">
        <ele>863.779</ele>
        <time>2019-10-14T11:58:58Z</time>
      </trkpt>
      <trkpt lat="-22.295963" lon="-46.301384">
        <ele>864.311</ele>
        <time>2019-10-14T11:58:59Z</time>
      </trkpt>
      <trkpt lat="-22.295930" lon="-46.301324">
        <ele>864.573</ele>
        <time>2019-10-14T11:59:01Z</time>
      </trkpt>
      <trkpt lat="-22.295881" lon="-46.301249">
        <ele>865.126</ele>
        <time>2019-10-14T11:59:04Z</time>
      </trkpt>
      <trkpt lat="-22.295856" lon="-46.301188">
        <ele>865.311</ele>
        <time>2019-10-14T11:59:06Z</time>
      </trkpt>
      <trkpt lat="-22.295828" lon="-46.301126">
        <ele>865.717</ele>
        <time>2019-10-14T11:59:09Z</time>
      </trkpt>
      <trkpt lat="-22.295797" lon="-46.301070">
        <ele>866.355</ele>
        <time>2019-10-14T11:59:10Z</time>
      </trkpt>
      <trkpt lat="-22.295775" lon="-46.301014">
        <ele>866.807</ele>
        <time>2019-10-14T11:59:12Z</time>
      </trkpt>
      <trkpt lat="-22.295745" lon="-46.300943">
        <ele>867.517</ele>
        <time>2019-10-14T11:59:15Z</time>
      </trkpt>
      <trkpt lat="-22.295719" lon="-46.300854">
        <ele>867.408</ele>
        <time>2019-10-14T11:59:18Z</time>
      </trkpt>
      <trkpt lat="-22.295700" lon="-46.300805">
        <ele>867.629</ele>
        <time>2019-10-14T11:59:20Z</time>
      </trkpt>
      <trkpt lat="-22.295671" lon="-46.300737">
        <ele>867.487</ele>
        <time>2019-10-14T11:59:22Z</time>
      </trkpt>
      <trkpt lat="-22.295645" lon="-46.300678">
        <ele>867.579</ele>
        <time>2019-10-14T11:59:24Z</time>
      </trkpt>
      <trkpt lat="-22.295617" lon="-46.300623">
        <ele>867.671</ele>
        <time>2019-10-14T11:59:25Z</time>
      </trkpt>
      <trkpt lat="-22.295582" lon="-46.300558">
        <ele>867.643</ele>
        <time>2019-10-14T11:59:27Z</time>
      </trkpt>
      <trkpt lat="-22.295545" lon="-46.300488">
        <ele>868.096</ele>
        <time>2019-10-14T11:59:29Z</time>
      </trkpt>
      <trkpt lat="-22.295519" lon="-46.300441">
        <ele>868.241</ele>
        <time>2019-10-14T11:59:31Z</time>
      </trkpt>
      <trkpt lat="-22.295490" lon="-46.300377">
        <ele>868.897</ele>
        <time>2019-10-14T11:59:33Z</time>
      </trkpt>
      <trkpt lat="-22.295470" lon="-46.300306">
        <ele>868.891</ele>
        <time>2019-10-14T11:59:35Z</time>
      </trkpt>
      <trkpt lat="-22.295451" lon="-46.300242">
        <ele>868.981</ele>
        <time>2019-10-14T11:59:38Z</time>
      </trkpt>
      <trkpt lat="-22.295436" lon="-46.300189">
        <ele>869.119</ele>
        <time>2019-10-14T11:59:40Z</time>
      </trkpt>
      <trkpt lat="-22.295418" lon="-46.300124">
        <ele>869.408</ele>
        <time>2019-10-14T11:59:42Z</time>
      </trkpt>
      <trkpt lat="-22.295403" lon="-46.300069">
        <ele>869.823</ele>
        <time>2019-10-14T11:59:43Z</time>
      </trkpt>
      <trkpt lat="-22.295385" lon="-46.300021">
        <ele>869.981</ele>
        <time>2019-10-14T11:59:45Z</time>
      </trkpt>
      <trkpt lat="-22.295364" lon="-46.299970">
        <ele>870.023</ele>
        <time>2019-10-14T11:59:46Z</time>
      </trkpt>
      <trkpt lat="-22.295340" lon="-46.299924">
        <ele>870.145</ele>
        <time>2019-10-14T11:59:48Z</time>
      </trkpt>
      <trkpt lat="-22.295318" lon="-46.299879">
        <ele>870.287</ele>
        <time>2019-10-14T11:59:49Z</time>
      </trkpt>
      <trkpt lat="-22.295280" lon="-46.299812">
        <ele>869.930</ele>
        <time>2019-10-14T11:59:51Z</time>
      </trkpt>
      <trkpt lat="-22.295240" lon="-46.299756">
        <ele>870.865</ele>
        <time>2019-10-14T11:59:53Z</time>
      </trkpt>
      <trkpt lat="-22.295199" lon="-46.299710">
        <ele>870.751</ele>
        <time>2019-10-14T11:59:55Z</time>
      </trkpt>
      <trkpt lat="-22.295166" lon="-46.299670">
        <ele>871.423</ele>
        <time>2019-10-14T11:59:57Z</time>
      </trkpt>
      <trkpt lat="-22.295124" lon="-46.299632">
        <ele>871.683</ele>
        <time>2019-10-14T11:59:58Z</time>
      </trkpt>
      <trkpt lat="-22.295077" lon="-46.299595">
        <ele>871.911</ele>
        <time>2019-10-14T12:00:00Z</time>
      </trkpt>
      <trkpt lat="-22.295011" lon="-46.299512">
        <ele>872.008</ele>
        <time>2019-10-14T12:00:04Z</time>
      </trkpt>
      <trkpt lat="-22.294957" lon="-46.299428">
        <ele>871.696</ele>
        <time>2019-10-14T12:00:06Z</time>
      </trkpt>
      <trkpt lat="-22.294927" lon="-46.299372">
        <ele>871.294</ele>
        <time>2019-10-14T12:00:08Z</time>
      </trkpt>
      <trkpt lat="-22.294903" lon="-46.299328">
        <ele>871.236</ele>
        <time>2019-10-14T12:00:09Z</time>
      </trkpt>
      <trkpt lat="-22.294869" lon="-46.299264">
        <ele>871.098</ele>
        <time>2019-10-14T12:00:10Z</time>
      </trkpt>
      <trkpt lat="-22.294832" lon="-46.299172">
        <ele>870.760</ele>
        <time>2019-10-14T12:00:13Z</time>
      </trkpt>
      <trkpt lat="-22.294793" lon="-46.299045">
        <ele>870.453</ele>
        <time>2019-10-14T12:00:16Z</time>
      </trkpt>
      <trkpt lat="-22.294781" lon="-46.298985">
        <ele>869.988</ele>
        <time>2019-10-14T12:00:18Z</time>
      </trkpt>
      <trkpt lat="-22.294743" lon="-46.298933">
        <ele>868.844</ele>
        <time>2019-10-14T12:00:20Z</time>
      </trkpt>
      <trkpt lat="-22.294669" lon="-46.298721">
        <ele>866.446</ele>
        <time>2019-10-14T12:00:24Z</time>
      </trkpt>
      <trkpt lat="-22.294094" lon="-46.297053">
        <ele>868.388</ele>
        <time>2019-10-14T12:00:55Z</time>
      </trkpt>
      <trkpt lat="-22.294083" lon="-46.296996">
        <ele>868.416</ele>
        <time>2019-10-14T12:00:57Z</time>
      </trkpt>
      <trkpt lat="-22.294077" lon="-46.296932">
        <ele>868.808</ele>
        <time>2019-10-14T12:00:59Z</time>
      </trkpt>
      <trkpt lat="-22.294058" lon="-46.296855">
        <ele>868.798</ele>
        <time>2019-10-14T12:01:01Z</time>
      </trkpt>
      <trkpt lat="-22.294043" lon="-46.296792">
        <ele>868.736</ele>
        <time>2019-10-14T12:01:03Z</time>
      </trkpt>
      <trkpt lat="-22.294033" lon="-46.296728">
        <ele>868.948</ele>
        <time>2019-10-14T12:01:04Z</time>
      </trkpt>
      <trkpt lat="-22.294010" lon="-46.296615">
        <ele>869.230</ele>
        <time>2019-10-14T12:01:07Z</time>
      </trkpt>
      <trkpt lat="-22.293992" lon="-46.296548">
        <ele>869.572</ele>
        <time>2019-10-14T12:01:08Z</time>
      </trkpt>
      <trkpt lat="-22.293979" lon="-46.296494">
        <ele>869.885</ele>
        <time>2019-10-14T12:01:10Z</time>
      </trkpt>
      <trkpt lat="-22.293966" lon="-46.296430">
        <ele>869.660</ele>
        <time>2019-10-14T12:01:11Z</time>
      </trkpt>
      <trkpt lat="-22.293947" lon="-46.296359">
        <ele>869.756</ele>
        <time>2019-10-14T12:01:13Z</time>
      </trkpt>
      <trkpt lat="-22.293934" lon="-46.296291">
        <ele>869.677</ele>
        <time>2019-10-14T12:01:15Z</time>
      </trkpt>
      <trkpt lat="-22.293920" lon="-46.296226">
        <ele>869.961</ele>
        <time>2019-10-14T12:01:16Z</time>
      </trkpt>
      <trkpt lat="-22.293905" lon="-46.296118">
        <ele>869.927</ele>
        <time>2019-10-14T12:01:19Z</time>
      </trkpt>
      <trkpt lat="-22.293892" lon="-46.296052">
        <ele>870.108</ele>
        <time>2019-10-14T12:01:21Z</time>
      </trkpt>
      <trkpt lat="-22.293847" lon="-46.295906">
        <ele>870.561</ele>
        <time>2019-10-14T12:01:25Z</time>
      </trkpt>
      <trkpt lat="-22.293827" lon="-46.295856">
        <ele>870.469</ele>
        <time>2019-10-14T12:01:26Z</time>
      </trkpt>
      <trkpt lat="-22.293800" lon="-46.295798">
        <ele>870.911</ele>
        <time>2019-10-14T12:01:27Z</time>
      </trkpt>
      <trkpt lat="-22.293764" lon="-46.295719">
        <ele>871.353</ele>
        <time>2019-10-14T12:01:30Z</time>
      </trkpt>
      <trkpt lat="-22.293733" lon="-46.295647">
        <ele>872.155</ele>
        <time>2019-10-14T12:01:32Z</time>
      </trkpt>
      <trkpt lat="-22.293697" lon="-46.295578">
        <ele>872.378</ele>
        <time>2019-10-14T12:01:34Z</time>
      </trkpt>
      <trkpt lat="-22.293673" lon="-46.295516">
        <ele>872.323</ele>
        <time>2019-10-14T12:01:36Z</time>
      </trkpt>
      <trkpt lat="-22.293639" lon="-46.295441">
        <ele>872.319</ele>
        <time>2019-10-14T12:01:39Z</time>
      </trkpt>
      <trkpt lat="-22.293606" lon="-46.295387">
        <ele>872.597</ele>
        <time>2019-10-14T12:01:40Z</time>
      </trkpt>
      <trkpt lat="-22.293551" lon="-46.295320">
        <ele>872.423</ele>
        <time>2019-10-14T12:01:43Z</time>
      </trkpt>
      <trkpt lat="-22.293517" lon="-46.295269">
        <ele>872.425</ele>
        <time>2019-10-14T12:01:44Z</time>
      </trkpt>
      <trkpt lat="-22.293485" lon="-46.295213">
        <ele>872.708</ele>
        <time>2019-10-14T12:01:46Z</time>
      </trkpt>
      <trkpt lat="-22.293447" lon="-46.295160">
        <ele>872.783</ele>
        <time>2019-10-14T12:01:48Z</time>
      </trkpt>
      <trkpt lat="-22.292224" lon="-46.293471">
        <ele>872.221</ele>
        <time>2019-10-14T12:02:31Z</time>
      </trkpt>
      <trkpt lat="-22.292169" lon="-46.293430">
        <ele>872.793</ele>
        <time>2019-10-14T12:02:34Z</time>
      </trkpt>
      <trkpt lat="-22.292136" lon="-46.293393">
        <ele>873.295</ele>
        <time>2019-10-14T12:02:35Z</time>
      </trkpt>
      <trkpt lat="-22.292090" lon="-46.293333">
        <ele>873.497</ele>
        <time>2019-10-14T12:02:37Z</time>
      </trkpt>
      <trkpt lat="-22.292052" lon="-46.293284">
        <ele>873.470</ele>
        <time>2019-10-14T12:02:38Z</time>
      </trkpt>
      <trkpt lat="-22.292001" lon="-46.293204">
        <ele>873.845</ele>
        <time>2019-10-14T12:02:41Z</time>
      </trkpt>
      <trkpt lat="-22.291972" lon="-46.293166">
        <ele>874.021</ele>
        <time>2019-10-14T12:02:42Z</time>
      </trkpt>
      <trkpt lat="-22.291942" lon="-46.293116">
        <ele>874.574</ele>
        <time>2019-10-14T12:02:44Z</time>
      </trkpt>
      <trkpt lat="-22.291912" lon="-46.293066">
        <ele>874.456</ele>
        <time>2019-10-14T12:02:46Z</time>
      </trkpt>
      <trkpt lat="-22.291872" lon="-46.292990">
        <ele>875.021</ele>
        <time>2019-10-14T12:02:48Z</time>
      </trkpt>
      <trkpt lat="-22.291851" lon="-46.292929">
        <ele>875.608</ele>
        <time>2019-10-14T12:02:50Z</time>
      </trkpt>
      <trkpt lat="-22.291831" lon="-46.292872">
        <ele>875.441</ele>
        <time>2019-10-14T12:02:52Z</time>
      </trkpt>
      <trkpt lat="-22.291816" lon="-46.292820">
        <ele>876.089</ele>
        <time>2019-10-14T12:02:54Z</time>
      </trkpt>
      <trkpt lat="-22.291798" lon="-46.292766">
        <ele>876.161</ele>
        <time>2019-10-14T12:02:55Z</time>
      </trkpt>
      <trkpt lat="-22.291769" lon="-46.292695">
        <ele>876.233</ele>
        <time>2019-10-14T12:02:57Z</time>
      </trkpt>
      <trkpt lat="-22.291752" lon="-46.292639">
        <ele>876.655</ele>
        <time>2019-10-14T12:02:59Z</time>
      </trkpt>
      <trkpt lat="-22.291734" lon="-46.292585">
        <ele>876.798</ele>
        <time>2019-10-14T12:03:01Z</time>
      </trkpt>
      <trkpt lat="-22.291698" lon="-46.292480">
        <ele>877.043</ele>
        <time>2019-10-14T12:03:03Z</time>
      </trkpt>
      <trkpt lat="-22.291683" lon="-46.292412">
        <ele>877.469</ele>
        <time>2019-10-14T12:03:05Z</time>
      </trkpt>
      <trkpt lat="-22.291662" lon="-46.292342">
        <ele>877.982</ele>
        <time>2019-10-14T12:03:08Z</time>
      </trkpt>
      <trkpt lat="-22.291644" lon="-46.292294">
        <ele>878.943</ele>
        <time>2019-10-14T12:03:09Z</time>
      </trkpt>
      <trkpt lat="-22.291632" lon="-46.292246">
        <ele>879.417</ele>
        <time>2019-10-14T12:03:11Z</time>
      </trkpt>
      <trkpt lat="-22.291615" lon="-46.292191">
        <ele>879.908</ele>
        <time>2019-10-14T12:03:13Z</time>
      </trkpt>
      <trkpt lat="-22.291585" lon="-46.292127">
        <ele>880.492</ele>
        <time>2019-10-14T12:03:16Z</time>
      </trkpt>
      <trkpt lat="-22.291562" lon="-46.292085">
        <ele>880.980</ele>
        <time>2019-10-14T12:03:18Z</time>
      </trkpt>
      <trkpt lat="-22.291530" lon="-46.292037">
        <ele>880.942</ele>
        <time>2019-10-14T12:03:20Z</time>
      </trkpt>
      <trkpt lat="-22.291499" lon="-46.291986">
        <ele>881.384</ele>
        <time>2019-10-14T12:03:21Z</time>
      </trkpt>
      <trkpt lat="-22.291473" lon="-46.291933">
        <ele>881.366</ele>
        <time>2019-10-14T12:03:23Z</time>
      </trkpt>
      <trkpt lat="-22.291452" lon="-46.291885">
        <ele>881.479</ele>
        <time>2019-10-14T12:03:24Z</time>
      </trkpt>
      <trkpt lat="-22.291428" lon="-46.291837">
        <ele>881.914</ele>
        <time>2019-10-14T12:03:26Z</time>
      </trkpt>
      <trkpt lat="-22.291400" lon="-46.291793">
        <ele>882.220</ele>
        <time>2019-10-14T12:03:27Z</time>
      </trkpt>
      <trkpt lat="-22.291361" lon="-46.291727">
        <ele>882.341</ele>
        <time>2019-10-14T12:03:30Z</time>
      </trkpt>
      <trkpt lat="-22.291334" lon="-46.291665">
        <ele>882.381</ele>
        <time>2019-10-14T12:03:32Z</time>
      </trkpt>
      <trkpt lat="-22.291306" lon="-46.291594">
        <ele>882.209</ele>
        <time>2019-10-14T12:03:34Z</time>
      </trkpt>
      <trkpt lat="-22.291270" lon="-46.291519">
        <ele>882.708</ele>
        <time>2019-10-14T12:03:37Z</time>
      </trkpt>
      <trkpt lat="-22.291241" lon="-46.291470">
        <ele>882.968</ele>
        <time>2019-10-14T12:03:38Z</time>
      </trkpt>
      <trkpt lat="-22.291205" lon="-46.291395">
        <ele>882.986</ele>
        <time>2019-10-14T12:03:41Z</time>
      </trkpt>
      <trkpt lat="-22.291177" lon="-46.291326">
        <ele>883.348</ele>
        <time>2019-10-14T12:03:43Z</time>
      </trkpt>
      <trkpt lat="-22.291154" lon="-46.291281">
        <ele>883.420</ele>
        <time>2019-10-14T12:03:44Z</time>
      </trkpt>
      <trkpt lat="-22.291135" lon="-46.291213">
        <ele>883.982</ele>
        <time>2019-10-14T12:03:47Z</time>
      </trkpt>
      <trkpt lat="-22.291119" lon="-46.291163">
        <ele>883.975</ele>
        <time>2019-10-14T12:03:48Z</time>
      </trkpt>
      <trkpt lat="-22.291097" lon="-46.291114">
        <ele>884.180</ele>
        <time>2019-10-14T12:03:50Z</time>
      </trkpt>
      <trkpt lat="-22.291072" lon="-46.291058">
        <ele>884.396</ele>
        <time>2019-10-14T12:03:51Z</time>
      </trkpt>
      <trkpt lat="-22.291045" lon="-46.290987">
        <ele>884.457</ele>
        <time>2019-10-14T12:03:54Z</time>
      </trkpt>
      <trkpt lat="-22.291026" lon="-46.290939">
        <ele>884.600</ele>
        <time>2019-10-14T12:03:55Z</time>
      </trkpt>
      <trkpt lat="-22.290987" lon="-46.290857">
        <ele>885.420</ele>
        <time>2019-10-14T12:03:58Z</time>
      </trkpt>
      <trkpt lat="-22.290964" lon="-46.290811">
        <ele>885.208</ele>
        <time>2019-10-14T12:03:59Z</time>
      </trkpt>
      <trkpt lat="-22.290920" lon="-46.290755">
        <ele>885.619</ele>
        <time>2019-10-14T12:04:02Z</time>
      </trkpt>
      <trkpt lat="-22.290878" lon="-46.290730">
        <ele>885.687</ele>
        <time>2019-10-14T12:04:03Z</time>
      </trkpt>
      <trkpt lat="-22.290831" lon="-46.290715">
        <ele>885.819</ele>
        <time>2019-10-14T12:04:08Z</time>
      </trkpt>
      <trkpt lat="-22.290787" lon="-46.290682">
        <ele>885.261</ele>
        <time>2019-10-14T12:04:10Z</time>
      </trkpt>
      <trkpt lat="-22.290750" lon="-46.290653">
        <ele>885.043</ele>
        <time>2019-10-14T12:04:11Z</time>
      </trkpt>
      <trkpt lat="-22.290707" lon="-46.290616">
        <ele>884.496</ele>
        <time>2019-10-14T12:04:14Z</time>
      </trkpt>
      <trkpt lat="-22.290665" lon="-46.290587">
        <ele>884.131</ele>
        <time>2019-10-14T12:04:15Z</time>
      </trkpt>
      <trkpt lat="-22.290625" lon="-46.290558">
        <ele>883.227</ele>
        <time>2019-10-14T12:04:17Z</time>
      </trkpt>
      <trkpt lat="-22.290574" lon="-46.290517">
        <ele>882.238</ele>
        <time>2019-10-14T12:04:20Z</time>
      </trkpt>
      <trkpt lat="-22.290534" lon="-46.290482">
        <ele>881.670</ele>
        <time>2019-10-14T12:04:21Z</time>
      </trkpt>
      <trkpt lat="-22.290493" lon="-46.290447">
        <ele>881.217</ele>
        <time>2019-10-14T12:04:23Z</time>
      </trkpt>
      <trkpt lat="-22.290447" lon="-46.290417">
        <ele>880.208</ele>
        <time>2019-10-14T12:04:25Z</time>
      </trkpt>
      <trkpt lat="-22.290405" lon="-46.290391">
        <ele>879.817</ele>
        <time>2019-10-14T12:04:27Z</time>
      </trkpt>
      <trkpt lat="-22.290350" lon="-46.290358">
        <ele>879.275</ele>
        <time>2019-10-14T12:04:28Z</time>
      </trkpt>
      <trkpt lat="-22.290309" lon="-46.290329">
        <ele>879.027</ele>
        <time>2019-10-14T12:04:30Z</time>
      </trkpt>
      <trkpt lat="-22.290265" lon="-46.290298">
        <ele>878.999</ele>
        <time>2019-10-14T12:04:38Z</time>
      </trkpt>
      <trkpt lat="-22.290223" lon="-46.290271">
        <ele>878.681</ele>
        <time>2019-10-14T12:04:42Z</time>
      </trkpt>
      <trkpt lat="-22.290172" lon="-46.290269">
        <ele>877.654</ele>
        <time>2019-10-14T12:04:47Z</time>
      </trkpt>
      <trkpt lat="-22.290168" lon="-46.290357">
        <ele>876.979</ele>
        <time>2019-10-14T12:04:50Z</time>
      </trkpt>
      <trkpt lat="-22.290177" lon="-46.290420">
        <ele>876.545</ele>
        <time>2019-10-14T12:04:51Z</time>
      </trkpt>
      <trkpt lat="-22.290177" lon="-46.290469">
        <ele>876.422</ele>
        <time>2019-10-14T12:04:53Z</time>
      </trkpt>
      <trkpt lat="-22.290175" lon="-46.290412">
        <ele>877.162</ele>
        <time>2019-10-14T12:08:33Z</time>
      </trkpt>
      <trkpt lat="-22.290145" lon="-46.290465">
        <ele>876.308</ele>
        <time>2019-10-14T12:09:43Z</time>
      </trkpt>
      <trkpt lat="-22.290179" lon="-46.290430">
        <ele>876.808</ele>
        <time>2019-10-14T12:09:56Z</time>
      </trkpt>
      <trkpt lat="-22.290202" lon="-46.290387">
        <ele>877.426</ele>
        <time>2019-10-14T12:10:01Z</time>
      </trkpt>
      <trkpt lat="-22.290240" lon="-46.290359">
        <ele>878.184</ele>
        <time>2019-10-14T12:10:07Z</time>
      </trkpt>
      <trkpt lat="-22.290285" lon="-46.290351">
        <ele>879.316</ele>
        <time>2019-10-14T12:10:23Z</time>
      </trkpt>
      <trkpt lat="-22.290320" lon="-46.290307">
        <ele>878.328</ele>
        <time>2019-10-14T12:11:15Z</time>
      </trkpt>
      <trkpt lat="-22.290269" lon="-46.290299">
        <ele>877.720</ele>
        <time>2019-10-14T12:11:35Z</time>
      </trkpt>
      <trkpt lat="-22.290221" lon="-46.290287">
        <ele>876.873</ele>
        <time>2019-10-14T12:11:41Z</time>
      </trkpt>
      <trkpt lat="-22.290290" lon="-46.290292">
        <ele>878.218</ele>
        <time>2019-10-14T12:13:27Z</time>
      </trkpt>
      <trkpt lat="-22.290348" lon="-46.290319">
        <ele>878.424</ele>
        <time>2019-10-14T12:13:31Z</time>
      </trkpt>
      <trkpt lat="-22.290422" lon="-46.290358">
        <ele>879.184</ele>
        <time>2019-10-14T12:13:34Z</time>
      </trkpt>
      <trkpt lat="-22.290468" lon="-46.290398">
        <ele>879.307</ele>
        <time>2019-10-14T12:13:36Z</time>
      </trkpt>
      <trkpt lat="-22.290508" lon="-46.290432">
        <ele>879.517</ele>
        <time>2019-10-14T12:13:40Z</time>
      </trkpt>
      <trkpt lat="-22.290563" lon="-46.290485">
        <ele>880.108</ele>
        <time>2019-10-14T12:13:44Z</time>
      </trkpt>
      <trkpt lat="-22.290605" lon="-46.290510">
        <ele>880.892</ele>
        <time>2019-10-14T12:13:48Z</time>
      </trkpt>
      <trkpt lat="-22.290678" lon="-46.290574">
        <ele>882.130</ele>
        <time>2019-10-14T12:13:54Z</time>
      </trkpt>
      <trkpt lat="-22.290724" lon="-46.290610">
        <ele>882.532</ele>
        <time>2019-10-14T12:13:58Z</time>
      </trkpt>
      <trkpt lat="-22.290760" lon="-46.290640">
        <ele>883.074</ele>
        <time>2019-10-14T12:14:00Z</time>
      </trkpt>
      <trkpt lat="-22.290806" lon="-46.290684">
        <ele>883.576</ele>
        <time>2019-10-14T12:14:04Z</time>
      </trkpt>
      <trkpt lat="-22.290852" lon="-46.290710">
        <ele>883.859</ele>
        <time>2019-10-14T12:14:06Z</time>
      </trkpt>
      <trkpt lat="-22.290908" lon="-46.290697">
        <ele>884.324</ele>
        <time>2019-10-14T12:14:10Z</time>
      </trkpt>
      <trkpt lat="-22.290925" lon="-46.290643">
        <ele>884.560</ele>
        <time>2019-10-14T12:14:12Z</time>
      </trkpt>
      <trkpt lat="-22.290904" lon="-46.290593">
        <ele>884.882</ele>
        <time>2019-10-14T12:14:15Z</time>
      </trkpt>
      <trkpt lat="-22.290884" lon="-46.290548">
        <ele>885.343</ele>
        <time>2019-10-14T12:14:18Z</time>
      </trkpt>
      <trkpt lat="-22.290868" lon="-46.290503">
        <ele>885.817</ele>
        <time>2019-10-14T12:14:23Z</time>
      </trkpt>
      <trkpt lat="-22.290856" lon="-46.290439">
        <ele>886.408</ele>
        <time>2019-10-14T12:14:27Z</time>
      </trkpt>
      <trkpt lat="-22.290843" lon="-46.290385">
        <ele>886.552</ele>
        <time>2019-10-14T12:14:29Z</time>
      </trkpt>
      <trkpt lat="-22.290834" lon="-46.290331">
        <ele>887.110</ele>
        <time>2019-10-14T12:14:32Z</time>
      </trkpt>
      <trkpt lat="-22.290824" lon="-46.290265">
        <ele>887.222</ele>
        <time>2019-10-14T12:14:35Z</time>
      </trkpt>
      <trkpt lat="-22.290813" lon="-46.290193">
        <ele>887.564</ele>
        <time>2019-10-14T12:14:39Z</time>
      </trkpt>
      <trkpt lat="-22.290805" lon="-46.290122">
        <ele>887.636</ele>
        <time>2019-10-14T12:14:42Z</time>
      </trkpt>
      <trkpt lat="-22.290794" lon="-46.290065">
        <ele>887.579</ele>
        <time>2019-10-14T12:14:45Z</time>
      </trkpt>
      <trkpt lat="-22.290789" lon="-46.289992">
        <ele>887.814</ele>
        <time>2019-10-14T12:14:47Z</time>
      </trkpt>
      <trkpt lat="-22.290780" lon="-46.289930">
        <ele>887.710</ele>
        <time>2019-10-14T12:14:50Z</time>
      </trkpt>
      <trkpt lat="-22.290773" lon="-46.289862">
        <ele>887.939</ele>
        <time>2019-10-14T12:14:52Z</time>
      </trkpt>
      <trkpt lat="-22.290758" lon="-46.289790">
        <ele>888.501</ele>
        <time>2019-10-14T12:14:55Z</time>
      </trkpt>
      <trkpt lat="-22.290755" lon="-46.289716">
        <ele>888.621</ele>
        <time>2019-10-14T12:14:57Z</time>
      </trkpt>
      <trkpt lat="-22.290749" lon="-46.289657">
        <ele>888.708</ele>
        <time>2019-10-14T12:15:00Z</time>
      </trkpt>
      <trkpt lat="-22.290743" lon="-46.289584">
        <ele>888.797</ele>
        <time>2019-10-14T12:15:02Z</time>
      </trkpt>
      <trkpt lat="-22.290743" lon="-46.289529">
        <ele>889.055</ele>
        <time>2019-10-14T12:15:04Z</time>
      </trkpt>
      <trkpt lat="-22.290739" lon="-46.289465">
        <ele>889.327</ele>
        <time>2019-10-14T12:15:07Z</time>
      </trkpt>
      <trkpt lat="-22.290740" lon="-46.289390">
        <ele>889.579</ele>
        <time>2019-10-14T12:15:10Z</time>
      </trkpt>
      <trkpt lat="-22.290745" lon="-46.289334">
        <ele>889.861</ele>
        <time>2019-10-14T12:15:12Z</time>
      </trkpt>
      <trkpt lat="-22.290746" lon="-46.289284">
        <ele>889.754</ele>
        <time>2019-10-14T12:15:13Z</time>
      </trkpt>
      <trkpt lat="-22.290749" lon="-46.289224">
        <ele>889.989</ele>
        <time>2019-10-14T12:15:16Z</time>
      </trkpt>
      <trkpt lat="-22.290750" lon="-46.289161">
        <ele>890.245</ele>
        <time>2019-10-14T12:15:18Z</time>
      </trkpt>
      <trkpt lat="-22.290751" lon="-46.289089">
        <ele>890.386</ele>
        <time>2019-10-14T12:15:19Z</time>
      </trkpt>
      <trkpt lat="-22.290752" lon="-46.289031">
        <ele>890.360</ele>
        <time>2019-10-14T12:15:22Z</time>
      </trkpt>
      <trkpt lat="-22.290768" lon="-46.288958">
        <ele>890.326</ele>
        <time>2019-10-14T12:15:24Z</time>
      </trkpt>
      <trkpt lat="-22.290770" lon="-46.288900">
        <ele>890.408</ele>
        <time>2019-10-14T12:15:25Z</time>
      </trkpt>
      <trkpt lat="-22.290759" lon="-46.288819">
        <ele>890.382</ele>
        <time>2019-10-14T12:15:27Z</time>
      </trkpt>
      <trkpt lat="-22.290730" lon="-46.288726">
        <ele>890.240</ele>
        <time>2019-10-14T12:15:30Z</time>
      </trkpt>
      <trkpt lat="-22.290705" lon="-46.288666">
        <ele>889.942</ele>
        <time>2019-10-14T12:15:31Z</time>
      </trkpt>
      <trkpt lat="-22.290652" lon="-46.288595">
        <ele>889.984</ele>
        <time>2019-10-14T12:15:34Z</time>
      </trkpt>
      <trkpt lat="-22.290611" lon="-46.288551">
        <ele>890.266</ele>
        <time>2019-10-14T12:15:35Z</time>
      </trkpt>
      <trkpt lat="-22.290566" lon="-46.288508">
        <ele>890.529</ele>
        <time>2019-10-14T12:15:37Z</time>
      </trkpt>
      <trkpt lat="-22.290520" lon="-46.288465">
        <ele>890.814</ele>
        <time>2019-10-14T12:15:38Z</time>
      </trkpt>
      <trkpt lat="-22.290474" lon="-46.288417">
        <ele>891.360</ele>
        <time>2019-10-14T12:15:41Z</time>
      </trkpt>
      <trkpt lat="-22.290440" lon="-46.288377">
        <ele>891.254</ele>
        <time>2019-10-14T12:15:42Z</time>
      </trkpt>
      <trkpt lat="-22.290398" lon="-46.288332">
        <ele>891.556</ele>
        <time>2019-10-14T12:15:44Z</time>
      </trkpt>
      <trkpt lat="-22.290365" lon="-46.288295">
        <ele>892.011</ele>
        <time>2019-10-14T12:15:45Z</time>
      </trkpt>
      <trkpt lat="-22.290342" lon="-46.288252">
        <ele>892.108</ele>
        <time>2019-10-14T12:15:47Z</time>
      </trkpt>
      <trkpt lat="-22.290321" lon="-46.288193">
        <ele>892.519</ele>
        <time>2019-10-14T12:15:49Z</time>
      </trkpt>
      <trkpt lat="-22.290299" lon="-46.288134">
        <ele>892.797</ele>
        <time>2019-10-14T12:15:52Z</time>
      </trkpt>
      <trkpt lat="-22.290280" lon="-46.288071">
        <ele>892.939</ele>
        <time>2019-10-14T12:15:53Z</time>
      </trkpt>
      <trkpt lat="-22.290274" lon="-46.287989">
        <ele>893.461</ele>
        <time>2019-10-14T12:15:57Z</time>
      </trkpt>
      <trkpt lat="-22.290272" lon="-46.287921">
        <ele>893.973</ele>
        <time>2019-10-14T12:15:59Z</time>
      </trkpt>
      <trkpt lat="-22.290270" lon="-46.287863">
        <ele>894.386</ele>
        <time>2019-10-14T12:16:01Z</time>
      </trkpt>
      <trkpt lat="-22.290263" lon="-46.287813">
        <ele>894.541</ele>
        <time>2019-10-14T12:16:04Z</time>
      </trkpt>
      <trkpt lat="-22.290262" lon="-46.287749">
        <ele>894.687</ele>
        <time>2019-10-14T12:16:06Z</time>
      </trkpt>
      <trkpt lat="-22.290261" lon="-46.287698">
        <ele>894.935</ele>
        <time>2019-10-14T12:16:07Z</time>
      </trkpt>
      <trkpt lat="-22.290267" lon="-46.287635">
        <ele>895.286</ele>
        <time>2019-10-14T12:16:09Z</time>
      </trkpt>
      <trkpt lat="-22.290274" lon="-46.287583">
        <ele>895.314</ele>
        <time>2019-10-14T12:16:11Z</time>
      </trkpt>
      <trkpt lat="-22.290285" lon="-46.287509">
        <ele>895.108</ele>
        <time>2019-10-14T12:16:13Z</time>
      </trkpt>
      <trkpt lat="-22.290289" lon="-46.287451">
        <ele>895.137</ele>
        <time>2019-10-14T12:16:16Z</time>
      </trkpt>
      <trkpt lat="-22.290296" lon="-46.287343">
        <ele>895.325</ele>
        <time>2019-10-14T12:16:18Z</time>
      </trkpt>
      <trkpt lat="-22.290294" lon="-46.287272">
        <ele>895.067</ele>
        <time>2019-10-14T12:16:20Z</time>
      </trkpt>
      <trkpt lat="-22.290293" lon="-46.285837">
        <ele>892.329</ele>
        <time>2019-10-14T12:16:46Z</time>
      </trkpt>
      <trkpt lat="-22.290283" lon="-46.285780">
        <ele>892.981</ele>
        <time>2019-10-14T12:16:47Z</time>
      </trkpt>
      <trkpt lat="-22.290280" lon="-46.285712">
        <ele>893.184</ele>
        <time>2019-10-14T12:16:49Z</time>
      </trkpt>
      <trkpt lat="-22.290265" lon="-46.285652">
        <ele>893.659</ele>
        <time>2019-10-14T12:16:50Z</time>
      </trkpt>
      <trkpt lat="-22.290250" lon="-46.285595">
        <ele>894.035</ele>
        <time>2019-10-14T12:16:52Z</time>
      </trkpt>
      <trkpt lat="-22.290228" lon="-46.285511">
        <ele>894.449</ele>
        <time>2019-10-14T12:16:55Z</time>
      </trkpt>
      <trkpt lat="-22.290201" lon="-46.285435">
        <ele>894.802</ele>
        <time>2019-10-14T12:16:58Z</time>
      </trkpt>
      <trkpt lat="-22.290174" lon="-46.285364">
        <ele>894.922</ele>
        <time>2019-10-14T12:17:00Z</time>
      </trkpt>
      <trkpt lat="-22.290149" lon="-46.285300">
        <ele>894.708</ele>
        <time>2019-10-14T12:17:02Z</time>
      </trkpt>
      <trkpt lat="-22.290127" lon="-46.285235">
        <ele>894.928</ele>
        <time>2019-10-14T12:17:04Z</time>
      </trkpt>
      <trkpt lat="-22.290110" lon="-46.285183">
        <ele>894.716</ele>
        <time>2019-10-14T12:17:05Z</time>
      </trkpt>
      <trkpt lat="-22.290095" lon="-46.285133">
        <ele>894.428</ele>
        <time>2019-10-14T12:17:07Z</time>
      </trkpt>
      <trkpt lat="-22.290073" lon="-46.285058">
        <ele>894.830</ele>
        <time>2019-10-14T12:17:09Z</time>
      </trkpt>
      <trkpt lat="-22.290056" lon="-46.284988">
        <ele>894.612</ele>
        <time>2019-10-14T12:17:10Z</time>
      </trkpt>
      <trkpt lat="-22.290035" lon="-46.284914">
        <ele>894.125</ele>
        <time>2019-10-14T12:17:12Z</time>
      </trkpt>
      <trkpt lat="-22.290022" lon="-46.284845">
        <ele>894.110</ele>
        <time>2019-10-14T12:17:14Z</time>
      </trkpt>
      <trkpt lat="-22.289692" lon="-46.283826">
        <ele>892.916</ele>
        <time>2019-10-14T12:17:36Z</time>
      </trkpt>
      <trkpt lat="-22.289631" lon="-46.283782">
        <ele>893.356</ele>
        <time>2019-10-14T12:17:39Z</time>
      </trkpt>
      <trkpt lat="-22.289585" lon="-46.283749">
        <ele>893.659</ele>
        <time>2019-10-14T12:17:40Z</time>
      </trkpt>
      <trkpt lat="-22.289542" lon="-46.283711">
        <ele>894.214</ele>
        <time>2019-10-14T12:17:42Z</time>
      </trkpt>
      <trkpt lat="-22.289511" lon="-46.283650">
        <ele>894.408</ele>
        <time>2019-10-14T12:17:44Z</time>
      </trkpt>
      <trkpt lat="-22.289486" lon="-46.283592">
        <ele>895.289</ele>
        <time>2019-10-14T12:17:46Z</time>
      </trkpt>
      <trkpt lat="-22.289466" lon="-46.283531">
        <ele>896.087</ele>
        <time>2019-10-14T12:17:49Z</time>
      </trkpt>
      <trkpt lat="-22.289453" lon="-46.283484">
        <ele>896.579</ele>
        <time>2019-10-14T12:17:52Z</time>
      </trkpt>
      <trkpt lat="-22.289441" lon="-46.283433">
        <ele>897.541</ele>
        <time>2019-10-14T12:17:55Z</time>
      </trkpt>
      <trkpt lat="-22.289426" lon="-46.283379">
        <ele>898.353</ele>
        <time>2019-10-14T12:17:57Z</time>
      </trkpt>
      <trkpt lat="-22.289412" lon="-46.283332">
        <ele>898.726</ele>
        <time>2019-10-14T12:18:00Z</time>
      </trkpt>
      <trkpt lat="-22.289392" lon="-46.283249">
        <ele>899.781</ele>
        <time>2019-10-14T12:18:04Z</time>
      </trkpt>
      <trkpt lat="-22.289377" lon="-46.283175">
        <ele>900.047</ele>
        <time>2019-10-14T12:18:06Z</time>
      </trkpt>
      <trkpt lat="-22.289360" lon="-46.283101">
        <ele>900.176</ele>
        <time>2019-10-14T12:18:09Z</time>
      </trkpt>
      <trkpt lat="-22.289339" lon="-46.283050">
        <ele>900.590</ele>
        <time>2019-10-14T12:18:12Z</time>
      </trkpt>
      <trkpt lat="-22.289298" lon="-46.282924">
        <ele>901.819</ele>
        <time>2019-10-14T12:18:17Z</time>
      </trkpt>
      <trkpt lat="-22.289287" lon="-46.282856">
        <ele>902.108</ele>
        <time>2019-10-14T12:18:21Z</time>
      </trkpt>
      <trkpt lat="-22.289275" lon="-46.282802">
        <ele>902.531</ele>
        <time>2019-10-14T12:18:22Z</time>
      </trkpt>
      <trkpt lat="-22.289262" lon="-46.282708">
        <ele>903.379</ele>
        <time>2019-10-14T12:18:26Z</time>
      </trkpt>
      <trkpt lat="-22.289248" lon="-46.282660">
        <ele>903.251</ele>
        <time>2019-10-14T12:18:29Z</time>
      </trkpt>
      <trkpt lat="-22.289237" lon="-46.282613">
        <ele>903.413</ele>
        <time>2019-10-14T12:18:31Z</time>
      </trkpt>
      <trkpt lat="-22.289225" lon="-46.282554">
        <ele>903.855</ele>
        <time>2019-10-14T12:18:33Z</time>
      </trkpt>
      <trkpt lat="-22.289214" lon="-46.282480">
        <ele>903.698</ele>
        <time>2019-10-14T12:18:35Z</time>
      </trkpt>
      <trkpt lat="-22.289203" lon="-46.282425">
        <ele>903.763</ele>
        <time>2019-10-14T12:18:37Z</time>
      </trkpt>
      <trkpt lat="-22.289187" lon="-46.282372">
        <ele>904.249</ele>
        <time>2019-10-14T12:18:40Z</time>
      </trkpt>
      <trkpt lat="-22.289176" lon="-46.282301">
        <ele>904.214</ele>
        <time>2019-10-14T12:18:43Z</time>
      </trkpt>
      <trkpt lat="-22.289169" lon="-46.282222">
        <ele>904.554</ele>
        <time>2019-10-14T12:18:45Z</time>
      </trkpt>
      <trkpt lat="-22.289157" lon="-46.282160">
        <ele>904.809</ele>
        <time>2019-10-14T12:18:47Z</time>
      </trkpt>
      <trkpt lat="-22.289152" lon="-46.282096">
        <ele>904.908</ele>
        <time>2019-10-14T12:18:50Z</time>
      </trkpt>
      <trkpt lat="-22.289146" lon="-46.282015">
        <ele>904.845</ele>
        <time>2019-10-14T12:18:52Z</time>
      </trkpt>
      <trkpt lat="-22.289135" lon="-46.281894">
        <ele>904.743</ele>
        <time>2019-10-14T12:18:56Z</time>
      </trkpt>
      <trkpt lat="-22.289126" lon="-46.281820">
        <ele>904.495</ele>
        <time>2019-10-14T12:18:58Z</time>
      </trkpt>
      <trkpt lat="-22.289123" lon="-46.281766">
        <ele>904.657</ele>
        <time>2019-10-14T12:18:59Z</time>
      </trkpt>
      <trkpt lat="-22.289117" lon="-46.281706">
        <ele>905.029</ele>
        <time>2019-10-14T12:19:01Z</time>
      </trkpt>
      <trkpt lat="-22.289108" lon="-46.281658">
        <ele>905.112</ele>
        <time>2019-10-14T12:19:03Z</time>
      </trkpt>
      <trkpt lat="-22.289102" lon="-46.281606">
        <ele>905.197</ele>
        <time>2019-10-14T12:19:04Z</time>
      </trkpt>
      <trkpt lat="-22.289082" lon="-46.281495">
        <ele>904.883</ele>
        <time>2019-10-14T12:19:07Z</time>
      </trkpt>
      <trkpt lat="-22.289074" lon="-46.281404">
        <ele>904.171</ele>
        <time>2019-10-14T12:19:09Z</time>
      </trkpt>
      <trkpt lat="-22.289064" lon="-46.281332">
        <ele>904.341</ele>
        <time>2019-10-14T12:19:12Z</time>
      </trkpt>
      <trkpt lat="-22.289049" lon="-46.281265">
        <ele>904.715</ele>
        <time>2019-10-14T12:19:13Z</time>
      </trkpt>
      <trkpt lat="-22.289029" lon="-46.281169">
        <ele>904.008</ele>
        <time>2019-10-14T12:19:16Z</time>
      </trkpt>
      <trkpt lat="-22.289013" lon="-46.281100">
        <ele>903.541</ele>
        <time>2019-10-14T12:19:18Z</time>
      </trkpt>
      <trkpt lat="-22.289005" lon="-46.280992">
        <ele>903.779</ele>
        <time>2019-10-14T12:19:20Z</time>
      </trkpt>
      <trkpt lat="-22.289009" lon="-46.280923">
        <ele>903.761</ele>
        <time>2019-10-14T12:19:22Z</time>
      </trkpt>
      <trkpt lat="-22.288947" lon="-46.279651">
        <ele>903.163</ele>
        <time>2019-10-14T12:19:46Z</time>
      </trkpt>
      <trkpt lat="-22.288933" lon="-46.279594">
        <ele>903.325</ele>
        <time>2019-10-14T12:19:47Z</time>
      </trkpt>
      <trkpt lat="-22.288909" lon="-46.279541">
        <ele>903.488</ele>
        <time>2019-10-14T12:19:50Z</time>
      </trkpt>
      <trkpt lat="-22.288890" lon="-46.279494">
        <ele>903.723</ele>
        <time>2019-10-14T12:19:51Z</time>
      </trkpt>
      <trkpt lat="-22.288862" lon="-46.279434">
        <ele>904.129</ele>
        <time>2019-10-14T12:19:53Z</time>
      </trkpt>
      <trkpt lat="-22.288835" lon="-46.279379">
        <ele>904.352</ele>
        <time>2019-10-14T12:19:55Z</time>
      </trkpt>
      <trkpt lat="-22.288805" lon="-46.279318">
        <ele>904.453</ele>
        <time>2019-10-14T12:19:57Z</time>
      </trkpt>
      <trkpt lat="-22.288778" lon="-46.279260">
        <ele>904.108</ele>
        <time>2019-10-14T12:19:59Z</time>
      </trkpt>
      <trkpt lat="-22.288757" lon="-46.279202">
        <ele>903.708</ele>
        <time>2019-10-14T12:20:01Z</time>
      </trkpt>
      <trkpt lat="-22.288736" lon="-46.279116">
        <ele>903.569</ele>
        <time>2019-10-14T12:20:03Z</time>
      </trkpt>
      <trkpt lat="-22.288711" lon="-46.279028">
        <ele>903.617</ele>
        <time>2019-10-14T12:20:06Z</time>
      </trkpt>
      <trkpt lat="-22.288729" lon="-46.277625">
        <ele>902.269</ele>
        <time>2019-10-14T12:20:33Z</time>
      </trkpt>
      <trkpt lat="-22.288673" lon="-46.277580">
        <ele>902.361</ele>
        <time>2019-10-14T12:20:36Z</time>
      </trkpt>
      <trkpt lat="-22.288620" lon="-46.277542">
        <ele>902.483</ele>
        <time>2019-10-14T12:20:38Z</time>
      </trkpt>
      <trkpt lat="-22.288565" lon="-46.277513">
        <ele>902.866</ele>
        <time>2019-10-14T12:20:39Z</time>
      </trkpt>
      <trkpt lat="-22.288512" lon="-46.277479">
        <ele>903.271</ele>
        <time>2019-10-14T12:20:41Z</time>
      </trkpt>
      <trkpt lat="-22.288464" lon="-46.277444">
        <ele>904.117</ele>
        <time>2019-10-14T12:20:43Z</time>
      </trkpt>
      <trkpt lat="-22.288427" lon="-46.277410">
        <ele>904.375</ele>
        <time>2019-10-14T12:20:45Z</time>
      </trkpt>
      <trkpt lat="-22.288379" lon="-46.277361">
        <ele>904.928</ele>
        <time>2019-10-14T12:20:48Z</time>
      </trkpt>
      <trkpt lat="-22.288338" lon="-46.277302">
        <ele>905.820</ele>
        <time>2019-10-14T12:20:51Z</time>
      </trkpt>
      <trkpt lat="-22.288303" lon="-46.277262">
        <ele>906.408</ele>
        <time>2019-10-14T12:20:54Z</time>
      </trkpt>
      <trkpt lat="-22.288272" lon="-46.277219">
        <ele>907.111</ele>
        <time>2019-10-14T12:20:56Z</time>
      </trkpt>
      <trkpt lat="-22.288233" lon="-46.277163">
        <ele>908.139</ele>
        <time>2019-10-14T12:20:59Z</time>
      </trkpt>
      <trkpt lat="-22.288210" lon="-46.277108">
        <ele>908.671</ele>
        <time>2019-10-14T12:21:02Z</time>
      </trkpt>
      <trkpt lat="-22.288194" lon="-46.277055">
        <ele>909.113</ele>
        <time>2019-10-14T12:21:06Z</time>
      </trkpt>
      <trkpt lat="-22.288199" lon="-46.276987">
        <ele>910.235</ele>
        <time>2019-10-14T12:21:10Z</time>
      </trkpt>
      <trkpt lat="-22.288197" lon="-46.276916">
        <ele>912.488</ele>
        <time>2019-10-14T12:21:20Z</time>
      </trkpt>
      <trkpt lat="-22.288175" lon="-46.276817">
        <ele>912.653</ele>
        <time>2019-10-14T12:21:23Z</time>
      </trkpt>
      <trkpt lat="-22.288164" lon="-46.276759">
        <ele>912.859</ele>
        <time>2019-10-14T12:21:25Z</time>
      </trkpt>
      <trkpt lat="-22.288151" lon="-46.276703">
        <ele>913.525</ele>
        <time>2019-10-14T12:21:28Z</time>
      </trkpt>
      <trkpt lat="-22.288137" lon="-46.276655">
        <ele>914.026</ele>
        <time>2019-10-14T12:21:31Z</time>
      </trkpt>
      <trkpt lat="-22.288134" lon="-46.276598">
        <ele>914.708</ele>
        <time>2019-10-14T12:21:35Z</time>
      </trkpt>
      <trkpt lat="-22.288136" lon="-46.276538">
        <ele>915.108</ele>
        <time>2019-10-14T12:21:37Z</time>
      </trkpt>
      <trkpt lat="-22.288139" lon="-46.276471">
        <ele>915.526</ele>
        <time>2019-10-14T12:21:40Z</time>
      </trkpt>
      <trkpt lat="-22.288139" lon="-46.276407">
        <ele>915.824</ele>
        <time>2019-10-14T12:21:44Z</time>
      </trkpt>
      <trkpt lat="-22.288141" lon="-46.276353">
        <ele>916.926</ele>
        <time>2019-10-14T12:21:47Z</time>
      </trkpt>
      <trkpt lat="-22.288144" lon="-46.276303">
        <ele>917.578</ele>
        <time>2019-10-14T12:21:49Z</time>
      </trkpt>
      <trkpt lat="-22.288144" lon="-46.276246">
        <ele>918.760</ele>
        <time>2019-10-14T12:21:53Z</time>
      </trkpt>
      <trkpt lat="-22.288154" lon="-46.276195">
        <ele>919.533</ele>
        <time>2019-10-14T12:21:56Z</time>
      </trkpt>
      <trkpt lat="-22.288154" lon="-46.276102">
        <ele>920.558</ele>
        <time>2019-10-14T12:22:02Z</time>
      </trkpt>
      <trkpt lat="-22.288153" lon="-46.276040">
        <ele>920.684</ele>
        <time>2019-10-14T12:22:06Z</time>
      </trkpt>
      <trkpt lat="-22.288147" lon="-46.275958">
        <ele>920.796</ele>
        <time>2019-10-14T12:22:11Z</time>
      </trkpt>
      <trkpt lat="-22.288141" lon="-46.275896">
        <ele>920.831</ele>
        <time>2019-10-14T12:22:14Z</time>
      </trkpt>
      <trkpt lat="-22.288139" lon="-46.275837">
        <ele>921.524</ele>
        <time>2019-10-14T12:22:17Z</time>
      </trkpt>
      <trkpt lat="-22.288136" lon="-46.275770">
        <ele>922.208</ele>
        <time>2019-10-14T12:22:22Z</time>
      </trkpt>
      <trkpt lat="-22.288139" lon="-46.275698">
        <ele>923.043</ele>
        <time>2019-10-14T12:22:26Z</time>
      </trkpt>
      <trkpt lat="-22.288138" lon="-46.275638">
        <ele>923.791</ele>
        <time>2019-10-14T12:22:31Z</time>
      </trkpt>
      <trkpt lat="-22.288130" lon="-46.275588">
        <ele>924.183</ele>
        <time>2019-10-14T12:22:34Z</time>
      </trkpt>
      <trkpt lat="-22.288127" lon="-46.275521">
        <ele>924.065</ele>
        <time>2019-10-14T12:22:38Z</time>
      </trkpt>
      <trkpt lat="-22.288124" lon="-46.275464">
        <ele>924.297</ele>
        <time>2019-10-14T12:22:43Z</time>
      </trkpt>
      <trkpt lat="-22.288125" lon="-46.275413">
        <ele>926.210</ele>
        <time>2019-10-14T12:22:50Z</time>
      </trkpt>
      <trkpt lat="-22.288122" lon="-46.275330">
        <ele>926.945</ele>
        <time>2019-10-14T12:22:54Z</time>
      </trkpt>
      <trkpt lat="-22.288128" lon="-46.275240">
        <ele>927.431</ele>
        <time>2019-10-14T12:23:00Z</time>
      </trkpt>
      <trkpt lat="-22.288134" lon="-46.275180">
        <ele>928.072</ele>
        <time>2019-10-14T12:23:04Z</time>
      </trkpt>
      <trkpt lat="-22.288141" lon="-46.275109">
        <ele>928.513</ele>
        <time>2019-10-14T12:23:08Z</time>
      </trkpt>
      <trkpt lat="-22.288162" lon="-46.275057">
        <ele>928.714</ele>
        <time>2019-10-14T12:23:12Z</time>
      </trkpt>
      <trkpt lat="-22.288187" lon="-46.275010">
        <ele>928.808</ele>
        <time>2019-10-14T12:23:14Z</time>
      </trkpt>
      <trkpt lat="-22.288213" lon="-46.274969">
        <ele>929.611</ele>
        <time>2019-10-14T12:23:17Z</time>
      </trkpt>
      <trkpt lat="-22.288248" lon="-46.274938">
        <ele>930.189</ele>
        <time>2019-10-14T12:23:20Z</time>
      </trkpt>
      <trkpt lat="-22.288289" lon="-46.274912">
        <ele>930.461</ele>
        <time>2019-10-14T12:23:23Z</time>
      </trkpt>
      <trkpt lat="-22.288338" lon="-46.274888">
        <ele>930.853</ele>
        <time>2019-10-14T12:23:27Z</time>
      </trkpt>
      <trkpt lat="-22.288387" lon="-46.274858">
        <ele>931.335</ele>
        <time>2019-10-14T12:23:30Z</time>
      </trkpt>
      <trkpt lat="-22.288428" lon="-46.274830">
        <ele>931.728</ele>
        <time>2019-10-14T12:23:34Z</time>
      </trkpt>
      <trkpt lat="-22.288505" lon="-46.274783">
        <ele>932.913</ele>
        <time>2019-10-14T12:23:40Z</time>
      </trkpt>
      <trkpt lat="-22.288549" lon="-46.274768">
        <ele>933.179</ele>
        <time>2019-10-14T12:23:42Z</time>
      </trkpt>
      <trkpt lat="-22.288595" lon="-46.274741">
        <ele>933.267</ele>
        <time>2019-10-14T12:23:46Z</time>
      </trkpt>
      <trkpt lat="-22.288658" lon="-46.274713">
        <ele>933.881</ele>
        <time>2019-10-14T12:23:50Z</time>
      </trkpt>
      <trkpt lat="-22.288704" lon="-46.274687">
        <ele>933.819</ele>
        <time>2019-10-14T12:23:54Z</time>
      </trkpt>
      <trkpt lat="-22.288743" lon="-46.274662">
        <ele>934.308</ele>
        <time>2019-10-14T12:23:56Z</time>
      </trkpt>
      <trkpt lat="-22.288800" lon="-46.274636">
        <ele>934.790</ele>
        <time>2019-10-14T12:24:00Z</time>
      </trkpt>
      <trkpt lat="-22.288852" lon="-46.274605">
        <ele>934.738</ele>
        <time>2019-10-14T12:24:03Z</time>
      </trkpt>
      <trkpt lat="-22.288919" lon="-46.274568">
        <ele>935.350</ele>
        <time>2019-10-14T12:24:08Z</time>
      </trkpt>
      <trkpt lat="-22.288995" lon="-46.274528">
        <ele>936.132</ele>
        <time>2019-10-14T12:24:13Z</time>
      </trkpt>
      <trkpt lat="-22.289051" lon="-46.274500">
        <ele>936.514</ele>
        <time>2019-10-14T12:24:16Z</time>
      </trkpt>
      <trkpt lat="-22.289092" lon="-46.274479">
        <ele>936.767</ele>
        <time>2019-10-14T12:24:19Z</time>
      </trkpt>
      <trkpt lat="-22.289137" lon="-46.274459">
        <ele>937.112</ele>
        <time>2019-10-14T12:24:21Z</time>
      </trkpt>
      <trkpt lat="-22.289212" lon="-46.274420">
        <ele>937.698</ele>
        <time>2019-10-14T12:24:27Z</time>
      </trkpt>
      <trkpt lat="-22.289257" lon="-46.274400">
        <ele>937.986</ele>
        <time>2019-10-14T12:24:29Z</time>
      </trkpt>
      <trkpt lat="-22.289306" lon="-46.274375">
        <ele>938.360</ele>
        <time>2019-10-14T12:24:32Z</time>
      </trkpt>
      <trkpt lat="-22.289362" lon="-46.274345">
        <ele>938.026</ele>
        <time>2019-10-14T12:24:35Z</time>
      </trkpt>
      <trkpt lat="-22.289418" lon="-46.274312">
        <ele>939.508</ele>
        <time>2019-10-14T12:24:40Z</time>
      </trkpt>
      <trkpt lat="-22.289461" lon="-46.274286">
        <ele>940.732</ele>
        <time>2019-10-14T12:24:43Z</time>
      </trkpt>
      <trkpt lat="-22.289544" lon="-46.274242">
        <ele>941.080</ele>
        <time>2019-10-14T12:24:49Z</time>
      </trkpt>
      <trkpt lat="-22.289622" lon="-46.274192">
        <ele>942.082</ele>
        <time>2019-10-14T12:24:55Z</time>
      </trkpt>
      <trkpt lat="-22.289659" lon="-46.274162">
        <ele>942.924</ele>
        <time>2019-10-14T12:25:00Z</time>
      </trkpt>
      <trkpt lat="-22.289698" lon="-46.274128">
        <ele>943.426</ele>
        <time>2019-10-14T12:25:06Z</time>
      </trkpt>
      <trkpt lat="-22.289743" lon="-46.274089">
        <ele>944.049</ele>
        <time>2019-10-14T12:25:08Z</time>
      </trkpt>
      <trkpt lat="-22.289793" lon="-46.274052">
        <ele>945.114</ele>
        <time>2019-10-14T12:25:11Z</time>
      </trkpt>
      <trkpt lat="-22.289872" lon="-46.273996">
        <ele>946.580</ele>
        <time>2019-10-14T12:25:18Z</time>
      </trkpt>
      <trkpt lat="-22.289909" lon="-46.273936">
        <ele>947.556</ele>
        <time>2019-10-14T12:25:23Z</time>
      </trkpt>
      <trkpt lat="-22.289938" lon="-46.273886">
        <ele>948.659</ele>
        <time>2019-10-14T12:25:29Z</time>
      </trkpt>
      <trkpt lat="-22.289981" lon="-46.273825">
        <ele>950.314</ele>
        <time>2019-10-14T12:25:39Z</time>
      </trkpt>
      <trkpt lat="-22.290049" lon="-46.273723">
        <ele>950.508</ele>
        <time>2019-10-14T12:25:44Z</time>
      </trkpt>
      <trkpt lat="-22.290068" lon="-46.273662">
        <ele>951.449</ele>
        <time>2019-10-14T12:25:52Z</time>
      </trkpt>
      <trkpt lat="-22.290082" lon="-46.273597">
        <ele>952.027</ele>
        <time>2019-10-14T12:25:55Z</time>
      </trkpt>
      <trkpt lat="-22.290087" lon="-46.273545">
        <ele>952.339</ele>
        <time>2019-10-14T12:25:57Z</time>
      </trkpt>
      <trkpt lat="-22.290084" lon="-46.273468">
        <ele>953.271</ele>
        <time>2019-10-14T12:26:02Z</time>
      </trkpt>
      <trkpt lat="-22.290095" lon="-46.273392">
        <ele>953.953</ele>
        <time>2019-10-14T12:26:06Z</time>
      </trkpt>
      <trkpt lat="-22.290092" lon="-46.273336">
        <ele>954.426</ele>
        <time>2019-10-14T12:26:09Z</time>
      </trkpt>
      <trkpt lat="-22.290095" lon="-46.273276">
        <ele>954.891</ele>
        <time>2019-10-14T12:26:12Z</time>
      </trkpt>
      <trkpt lat="-22.290094" lon="-46.273217">
        <ele>955.287</ele>
        <time>2019-10-14T12:26:16Z</time>
      </trkpt>
      <trkpt lat="-22.290093" lon="-46.273160">
        <ele>956.027</ele>
        <time>2019-10-14T12:26:19Z</time>
      </trkpt>
      <trkpt lat="-22.290092" lon="-46.273097">
        <ele>955.968</ele>
        <time>2019-10-14T12:26:21Z</time>
      </trkpt>
      <trkpt lat="-22.290088" lon="-46.273048">
        <ele>956.014</ele>
        <time>2019-10-14T12:26:24Z</time>
      </trkpt>
      <trkpt lat="-22.290082" lon="-46.272989">
        <ele>956.008</ele>
        <time>2019-10-14T12:26:26Z</time>
      </trkpt>
      <trkpt lat="-22.290076" lon="-46.272920">
        <ele>956.576</ele>
        <time>2019-10-14T12:26:29Z</time>
      </trkpt>
      <trkpt lat="-22.290070" lon="-46.272867">
        <ele>956.554</ele>
        <time>2019-10-14T12:26:30Z</time>
      </trkpt>
      <trkpt lat="-22.290062" lon="-46.272805">
        <ele>956.686</ele>
        <time>2019-10-14T12:26:33Z</time>
      </trkpt>
      <trkpt lat="-22.290050" lon="-46.272739">
        <ele>957.148</ele>
        <time>2019-10-14T12:26:36Z</time>
      </trkpt>
      <trkpt lat="-22.290039" lon="-46.272682">
        <ele>957.660</ele>
        <time>2019-10-14T12:26:38Z</time>
      </trkpt>
      <trkpt lat="-22.290034" lon="-46.272620">
        <ele>957.993</ele>
        <time>2019-10-14T12:26:42Z</time>
      </trkpt>
      <trkpt lat="-22.290018" lon="-46.272529">
        <ele>958.758</ele>
        <time>2019-10-14T12:26:45Z</time>
      </trkpt>
      <trkpt lat="-22.290016" lon="-46.272479">
        <ele>958.644</ele>
        <time>2019-10-14T12:26:47Z</time>
      </trkpt>
      <trkpt lat="-22.290008" lon="-46.272430">
        <ele>958.975</ele>
        <time>2019-10-14T12:26:49Z</time>
      </trkpt>
      <trkpt lat="-22.289995" lon="-46.272362">
        <ele>959.328</ele>
        <time>2019-10-14T12:26:53Z</time>
      </trkpt>
      <trkpt lat="-22.289981" lon="-46.272298">
        <ele>959.420</ele>
        <time>2019-10-14T12:26:56Z</time>
      </trkpt>
      <trkpt lat="-22.289970" lon="-46.272245">
        <ele>960.008</ele>
        <time>2019-10-14T12:26:57Z</time>
      </trkpt>
      <trkpt lat="-22.289955" lon="-46.272192">
        <ele>960.011</ele>
        <time>2019-10-14T12:27:00Z</time>
      </trkpt>
      <trkpt lat="-22.289928" lon="-46.272139">
        <ele>960.179</ele>
        <time>2019-10-14T12:27:02Z</time>
      </trkpt>
      <trkpt lat="-22.289906" lon="-46.272091">
        <ele>960.431</ele>
        <time>2019-10-14T12:27:04Z</time>
      </trkpt>
      <trkpt lat="-22.289879" lon="-46.272043">
        <ele>960.653</ele>
        <time>2019-10-14T12:27:06Z</time>
      </trkpt>
      <trkpt lat="-22.289859" lon="-46.271976">
        <ele>960.635</ele>
        <time>2019-10-14T12:27:09Z</time>
      </trkpt>
      <trkpt lat="-22.289836" lon="-46.271929">
        <ele>960.668</ele>
        <time>2019-10-14T12:27:12Z</time>
      </trkpt>
      <trkpt lat="-22.289831" lon="-46.271867">
        <ele>960.713</ele>
        <time>2019-10-14T12:27:14Z</time>
      </trkpt>
      <trkpt lat="-22.289827" lon="-46.271810">
        <ele>960.879</ele>
        <time>2019-10-14T12:27:17Z</time>
      </trkpt>
      <trkpt lat="-22.289826" lon="-46.271755">
        <ele>961.181</ele>
        <time>2019-10-14T12:27:19Z</time>
      </trkpt>
      <trkpt lat="-22.289829" lon="-46.271690">
        <ele>960.761</ele>
        <time>2019-10-14T12:27:22Z</time>
      </trkpt>
      <trkpt lat="-22.289843" lon="-46.271644">
        <ele>960.417</ele>
        <time>2019-10-14T12:27:25Z</time>
      </trkpt>
      <trkpt lat="-22.289863" lon="-46.271555">
        <ele>959.708</ele>
        <time>2019-10-14T12:27:29Z</time>
      </trkpt>
      <trkpt lat="-22.289869" lon="-46.271478">
        <ele>958.782</ele>
        <time>2019-10-14T12:27:31Z</time>
      </trkpt>
      <trkpt lat="-22.289867" lon="-46.271427">
        <ele>959.220</ele>
        <time>2019-10-14T12:27:33Z</time>
      </trkpt>
      <trkpt lat="-22.289856" lon="-46.271345">
        <ele>958.592</ele>
        <time>2019-10-14T12:27:36Z</time>
      </trkpt>
      <trkpt lat="-22.289824" lon="-46.271258">
        <ele>957.744</ele>
        <time>2019-10-14T12:27:38Z</time>
      </trkpt>
      <trkpt lat="-22.289804" lon="-46.271209">
        <ele>957.326</ele>
        <time>2019-10-14T12:27:40Z</time>
      </trkpt>
      <trkpt lat="-22.289782" lon="-46.271148">
        <ele>956.519</ele>
        <time>2019-10-14T12:27:42Z</time>
      </trkpt>
      <trkpt lat="-22.290785" lon="-46.265323">
        <ele>902.334</ele>
        <time>2019-10-14T12:29:20Z</time>
      </trkpt>
      <trkpt lat="-22.290749" lon="-46.265278">
        <ele>902.620</ele>
        <time>2019-10-14T12:29:22Z</time>
      </trkpt>
      <trkpt lat="-22.290695" lon="-46.265249">
        <ele>902.963</ele>
        <time>2019-10-14T12:29:24Z</time>
      </trkpt>
      <trkpt lat="-22.290662" lon="-46.265213">
        <ele>903.744</ele>
        <time>2019-10-14T12:29:26Z</time>
      </trkpt>
      <trkpt lat="-22.290640" lon="-46.265168">
        <ele>903.918</ele>
        <time>2019-10-14T12:29:28Z</time>
      </trkpt>
      <trkpt lat="-22.290623" lon="-46.265116">
        <ele>904.608</ele>
        <time>2019-10-14T12:29:32Z</time>
      </trkpt>
      <trkpt lat="-22.290613" lon="-46.265023">
        <ele>904.970</ele>
        <time>2019-10-14T12:29:35Z</time>
      </trkpt>
      <trkpt lat="-22.290608" lon="-46.264969">
        <ele>905.228</ele>
        <time>2019-10-14T12:29:37Z</time>
      </trkpt>
      <trkpt lat="-22.290593" lon="-46.264906">
        <ele>905.660</ele>
        <time>2019-10-14T12:29:39Z</time>
      </trkpt>
      <trkpt lat="-22.290578" lon="-46.264848">
        <ele>906.152</ele>
        <time>2019-10-14T12:29:41Z</time>
      </trkpt>
      <trkpt lat="-22.290551" lon="-46.264784">
        <ele>906.794</ele>
        <time>2019-10-14T12:29:44Z</time>
      </trkpt>
      <trkpt lat="-22.290524" lon="-46.264744">
        <ele>907.297</ele>
        <time>2019-10-14T12:29:46Z</time>
      </trkpt>
      <trkpt lat="-22.290490" lon="-46.264700">
        <ele>907.852</ele>
        <time>2019-10-14T12:29:49Z</time>
      </trkpt>
      <trkpt lat="-22.290444" lon="-46.264646">
        <ele>909.078</ele>
        <time>2019-10-14T12:29:55Z</time>
      </trkpt>
      <trkpt lat="-22.290406" lon="-46.264616">
        <ele>909.441</ele>
        <time>2019-10-14T12:29:59Z</time>
      </trkpt>
      <trkpt lat="-22.290372" lon="-46.264571">
        <ele>910.081</ele>
        <time>2019-10-14T12:30:01Z</time>
      </trkpt>
      <trkpt lat="-22.290335" lon="-46.264506">
        <ele>910.309</ele>
        <time>2019-10-14T12:30:04Z</time>
      </trkpt>
      <trkpt lat="-22.290311" lon="-46.264464">
        <ele>910.408</ele>
        <time>2019-10-14T12:30:07Z</time>
      </trkpt>
      <trkpt lat="-22.290283" lon="-46.264421">
        <ele>910.778</ele>
        <time>2019-10-14T12:30:10Z</time>
      </trkpt>
      <trkpt lat="-22.290262" lon="-46.264376">
        <ele>910.746</ele>
        <time>2019-10-14T12:30:12Z</time>
      </trkpt>
      <trkpt lat="-22.290202" lon="-46.264302">
        <ele>910.948</ele>
        <time>2019-10-14T12:30:16Z</time>
      </trkpt>
      <trkpt lat="-22.290168" lon="-46.264263">
        <ele>911.270</ele>
        <time>2019-10-14T12:30:18Z</time>
      </trkpt>
      <trkpt lat="-22.290140" lon="-46.264224">
        <ele>911.712</ele>
        <time>2019-10-14T12:30:19Z</time>
      </trkpt>
      <trkpt lat="-22.290105" lon="-46.264187">
        <ele>911.585</ele>
        <time>2019-10-14T12:30:22Z</time>
      </trkpt>
      <trkpt lat="-22.290060" lon="-46.264151">
        <ele>911.840</ele>
        <time>2019-10-14T12:30:24Z</time>
      </trkpt>
      <trkpt lat="-22.290025" lon="-46.264119">
        <ele>912.146</ele>
        <time>2019-10-14T12:30:26Z</time>
      </trkpt>
      <trkpt lat="-22.289990" lon="-46.264083">
        <ele>912.345</ele>
        <time>2019-10-14T12:30:29Z</time>
      </trkpt>
      <trkpt lat="-22.289935" lon="-46.264038">
        <ele>912.247</ele>
        <time>2019-10-14T12:30:31Z</time>
      </trkpt>
      <trkpt lat="-22.289875" lon="-46.264001">
        <ele>912.111</ele>
        <time>2019-10-14T12:30:34Z</time>
      </trkpt>
      <trkpt lat="-22.289828" lon="-46.263980">
        <ele>911.808</ele>
        <time>2019-10-14T12:30:36Z</time>
      </trkpt>
      <trkpt lat="-22.289768" lon="-46.263955">
        <ele>911.478</ele>
        <time>2019-10-14T12:30:38Z</time>
      </trkpt>
      <trkpt lat="-22.289721" lon="-46.263939">
        <ele>911.366</ele>
        <time>2019-10-14T12:30:42Z</time>
      </trkpt>
      <trkpt lat="-22.289678" lon="-46.263920">
        <ele>911.188</ele>
        <time>2019-10-14T12:30:45Z</time>
      </trkpt>
      <trkpt lat="-22.289630" lon="-46.263895">
        <ele>910.320</ele>
        <time>2019-10-14T12:30:49Z</time>
      </trkpt>
      <trkpt lat="-22.289588" lon="-46.263863">
        <ele>908.732</ele>
        <time>2019-10-14T12:30:51Z</time>
      </trkpt>
      <trkpt lat="-22.289388" lon="-46.262118">
        <ele>905.485</ele>
        <time>2019-10-14T12:31:18Z</time>
      </trkpt>
      <trkpt lat="-22.289361" lon="-46.262060">
        <ele>904.810</ele>
        <time>2019-10-14T12:31:19Z</time>
      </trkpt>
      <trkpt lat="-22.289349" lon="-46.261999">
        <ele>904.876</ele>
        <time>2019-10-14T12:31:21Z</time>
      </trkpt>
      <trkpt lat="-22.289335" lon="-46.261911">
        <ele>905.268</ele>
        <time>2019-10-14T12:31:23Z</time>
      </trkpt>
      <trkpt lat="-22.289325" lon="-46.261848">
        <ele>905.842</ele>
        <time>2019-10-14T12:31:25Z</time>
      </trkpt>
      <trkpt lat="-22.289319" lon="-46.261770">
        <ele>905.826</ele>
        <time>2019-10-14T12:31:28Z</time>
      </trkpt>
      <trkpt lat="-22.289310" lon="-46.261678">
        <ele>906.008</ele>
        <time>2019-10-14T12:31:31Z</time>
      </trkpt>
      <trkpt lat="-22.289291" lon="-46.261601">
        <ele>906.480</ele>
        <time>2019-10-14T12:31:32Z</time>
      </trkpt>
      <trkpt lat="-22.289275" lon="-46.261538">
        <ele>906.638</ele>
        <time>2019-10-14T12:31:33Z</time>
      </trkpt>
      <trkpt lat="-22.289262" lon="-46.261480">
        <ele>907.410</ele>
        <time>2019-10-14T12:31:34Z</time>
      </trkpt>
      <trkpt lat="-22.289253" lon="-46.261424">
        <ele>907.442</ele>
        <time>2019-10-14T12:31:37Z</time>
      </trkpt>
      <trkpt lat="-22.289239" lon="-46.261375">
        <ele>907.664</ele>
        <time>2019-10-14T12:31:39Z</time>
      </trkpt>
      <trkpt lat="-22.289227" lon="-46.261318">
        <ele>907.257</ele>
        <time>2019-10-14T12:31:42Z</time>
      </trkpt>
      <trkpt lat="-22.289222" lon="-46.261267">
        <ele>907.282</ele>
        <time>2019-10-14T12:31:44Z</time>
      </trkpt>
      <trkpt lat="-22.289216" lon="-46.261204">
        <ele>907.078</ele>
        <time>2019-10-14T12:31:46Z</time>
      </trkpt>
      <trkpt lat="-22.289217" lon="-46.261070">
        <ele>907.277</ele>
        <time>2019-10-14T12:31:48Z</time>
      </trkpt>
      <trkpt lat="-22.289220" lon="-46.260988">
        <ele>906.761</ele>
        <time>2019-10-14T12:31:49Z</time>
      </trkpt>
      <trkpt lat="-22.289225" lon="-46.260933">
        <ele>906.527</ele>
        <time>2019-10-14T12:31:50Z</time>
      </trkpt>
      <trkpt lat="-22.289240" lon="-46.260824">
        <ele>906.708</ele>
        <time>2019-10-14T12:31:53Z</time>
      </trkpt>
      <trkpt lat="-22.289249" lon="-46.260773">
        <ele>906.871</ele>
        <time>2019-10-14T12:31:54Z</time>
      </trkpt>
      <trkpt lat="-22.289270" lon="-46.260689">
        <ele>906.839</ele>
        <time>2019-10-14T12:31:56Z</time>
      </trkpt>
      <trkpt lat="-22.289286" lon="-46.260630">
        <ele>907.291</ele>
        <time>2019-10-14T12:31:57Z</time>
      </trkpt>
      <trkpt lat="-22.289301" lon="-46.260572">
        <ele>907.083</ele>
        <time>2019-10-14T12:31:59Z</time>
      </trkpt>
      <trkpt lat="-22.289314" lon="-46.260521">
        <ele>907.195</ele>
        <time>2019-10-14T12:32:01Z</time>
      </trkpt>
      <trkpt lat="-22.289334" lon="-46.260422">
        <ele>907.788</ele>
        <time>2019-10-14T12:32:03Z</time>
      </trkpt>
      <trkpt lat="-22.289342" lon="-46.260319">
        <ele>908.073</ele>
        <time>2019-10-14T12:32:05Z</time>
      </trkpt>
      <trkpt lat="-22.289345" lon="-46.260251">
        <ele>908.079</ele>
        <time>2019-10-14T12:32:06Z</time>
      </trkpt>
      <trkpt lat="-22.289343" lon="-46.260178">
        <ele>908.255</ele>
        <time>2019-10-14T12:32:09Z</time>
      </trkpt>
      <trkpt lat="-22.289347" lon="-46.260127">
        <ele>908.607</ele>
        <time>2019-10-14T12:32:10Z</time>
      </trkpt>
      <trkpt lat="-22.289345" lon="-46.260041">
        <ele>909.517</ele>
        <time>2019-10-14T12:32:13Z</time>
      </trkpt>
      <trkpt lat="-22.289326" lon="-46.259983">
        <ele>909.908</ele>
        <time>2019-10-14T12:32:16Z</time>
      </trkpt>
      <trkpt lat="-22.289317" lon="-46.259922">
        <ele>909.919</ele>
        <time>2019-10-14T12:32:18Z</time>
      </trkpt>
      <trkpt lat="-22.289299" lon="-46.259875">
        <ele>910.187</ele>
        <time>2019-10-14T12:32:21Z</time>
      </trkpt>
      <trkpt lat="-22.289267" lon="-46.259832">
        <ele>910.349</ele>
        <time>2019-10-14T12:32:22Z</time>
      </trkpt>
      <trkpt lat="-22.289214" lon="-46.259794">
        <ele>910.741</ele>
        <time>2019-10-14T12:32:24Z</time>
      </trkpt>
      <trkpt lat="-22.289157" lon="-46.259751">
        <ele>911.413</ele>
        <time>2019-10-14T12:32:27Z</time>
      </trkpt>
      <trkpt lat="-22.289113" lon="-46.259721">
        <ele>911.496</ele>
        <time>2019-10-14T12:32:29Z</time>
      </trkpt>
      <trkpt lat="-22.289077" lon="-46.259690">
        <ele>911.361</ele>
        <time>2019-10-14T12:32:31Z</time>
      </trkpt>
      <trkpt lat="-22.289033" lon="-46.259649">
        <ele>911.077</ele>
        <time>2019-10-14T12:32:33Z</time>
      </trkpt>
      <trkpt lat="-22.288974" lon="-46.259611">
        <ele>911.449</ele>
        <time>2019-10-14T12:32:34Z</time>
      </trkpt>
      <trkpt lat="-22.288912" lon="-46.259584">
        <ele>910.902</ele>
        <time>2019-10-14T12:32:36Z</time>
      </trkpt>
      <trkpt lat="-22.288871" lon="-46.259559">
        <ele>910.922</ele>
        <time>2019-10-14T12:32:37Z</time>
      </trkpt>
      <trkpt lat="-22.288831" lon="-46.259535">
        <ele>911.008</ele>
        <time>2019-10-14T12:32:39Z</time>
      </trkpt>
      <trkpt lat="-22.288768" lon="-46.259492">
        <ele>910.768</ele>
        <time>2019-10-14T12:32:40Z</time>
      </trkpt>
      <trkpt lat="-22.288707" lon="-46.259436">
        <ele>910.596</ele>
        <time>2019-10-14T12:32:42Z</time>
      </trkpt>
      <trkpt lat="-22.288661" lon="-46.259391">
        <ele>910.918</ele>
        <time>2019-10-14T12:32:44Z</time>
      </trkpt>
      <trkpt lat="-22.288625" lon="-46.259358">
        <ele>911.090</ele>
        <time>2019-10-14T12:32:46Z</time>
      </trkpt>
      <trkpt lat="-22.288583" lon="-46.259283">
        <ele>911.492</ele>
        <time>2019-10-14T12:32:49Z</time>
      </trkpt>
      <trkpt lat="-22.288564" lon="-46.259234">
        <ele>911.615</ele>
        <time>2019-10-14T12:32:50Z</time>
      </trkpt>
      <trkpt lat="-22.288531" lon="-46.259159">
        <ele>911.960</ele>
        <time>2019-10-14T12:32:52Z</time>
      </trkpt>
      <trkpt lat="-22.288510" lon="-46.259113">
        <ele>911.956</ele>
        <time>2019-10-14T12:32:54Z</time>
      </trkpt>
      <trkpt lat="-22.288486" lon="-46.259057">
        <ele>912.386</ele>
        <time>2019-10-14T12:32:56Z</time>
      </trkpt>
      <trkpt lat="-22.288477" lon="-46.259006">
        <ele>913.660</ele>
        <time>2019-10-14T12:33:00Z</time>
      </trkpt>
      <trkpt lat="-22.288462" lon="-46.258956">
        <ele>914.226</ele>
        <time>2019-10-14T12:33:05Z</time>
      </trkpt>
      <trkpt lat="-22.288446" lon="-46.258909">
        <ele>914.908</ele>
        <time>2019-10-14T12:33:08Z</time>
      </trkpt>
      <trkpt lat="-22.288414" lon="-46.258848">
        <ele>915.622</ele>
        <time>2019-10-14T12:33:13Z</time>
      </trkpt>
      <trkpt lat="-22.288379" lon="-46.258753">
        <ele>915.610</ele>
        <time>2019-10-14T12:33:14Z</time>
      </trkpt>
      <trkpt lat="-22.288363" lon="-46.258693">
        <ele>915.462</ele>
        <time>2019-10-14T12:33:16Z</time>
      </trkpt>
      <trkpt lat="-22.288332" lon="-46.258593">
        <ele>915.744</ele>
        <time>2019-10-14T12:33:18Z</time>
      </trkpt>
      <trkpt lat="-22.288313" lon="-46.258531">
        <ele>915.556</ele>
        <time>2019-10-14T12:33:20Z</time>
      </trkpt>
      <trkpt lat="-22.288299" lon="-46.258481">
        <ele>915.919</ele>
        <time>2019-10-14T12:33:21Z</time>
      </trkpt>
      <trkpt lat="-22.288281" lon="-46.258396">
        <ele>916.254</ele>
        <time>2019-10-14T12:33:25Z</time>
      </trkpt>
      <trkpt lat="-22.288275" lon="-46.258341">
        <ele>916.690</ele>
        <time>2019-10-14T12:33:27Z</time>
      </trkpt>
      <trkpt lat="-22.288263" lon="-46.258294">
        <ele>917.336</ele>
        <time>2019-10-14T12:33:29Z</time>
      </trkpt>
      <trkpt lat="-22.288268" lon="-46.258242">
        <ele>917.917</ele>
        <time>2019-10-14T12:33:31Z</time>
      </trkpt>
      <trkpt lat="-22.288269" lon="-46.258193">
        <ele>918.118</ele>
        <time>2019-10-14T12:33:33Z</time>
      </trkpt>
      <trkpt lat="-22.288265" lon="-46.258116">
        <ele>918.608</ele>
        <time>2019-10-14T12:33:36Z</time>
      </trkpt>
      <trkpt lat="-22.288239" lon="-46.258019">
        <ele>919.757</ele>
        <time>2019-10-14T12:33:39Z</time>
      </trkpt>
      <trkpt lat="-22.288205" lon="-46.257939">
        <ele>919.365</ele>
        <time>2019-10-14T12:33:43Z</time>
      </trkpt>
      <trkpt lat="-22.288185" lon="-46.257893">
        <ele>919.517</ele>
        <time>2019-10-14T12:33:44Z</time>
      </trkpt>
      <trkpt lat="-22.288170" lon="-46.257838">
        <ele>918.649</ele>
        <time>2019-10-14T12:33:46Z</time>
      </trkpt>
      <trkpt lat="-22.288150" lon="-46.257788">
        <ele>918.511</ele>
        <time>2019-10-14T12:33:48Z</time>
      </trkpt>
      <trkpt lat="-22.288121" lon="-46.257735">
        <ele>917.854</ele>
        <time>2019-10-14T12:33:49Z</time>
      </trkpt>
      <trkpt lat="-22.287700" lon="-46.256762">
        <ele>915.149</ele>
        <time>2019-10-14T12:34:10Z</time>
      </trkpt>
      <trkpt lat="-22.287657" lon="-46.256664">
        <ele>916.095</ele>
        <time>2019-10-14T12:34:14Z</time>
      </trkpt>
      <trkpt lat="-22.287638" lon="-46.256586">
        <ele>916.296</ele>
        <time>2019-10-14T12:34:15Z</time>
      </trkpt>
      <trkpt lat="-22.287625" lon="-46.256507">
        <ele>916.031</ele>
        <time>2019-10-14T12:34:17Z</time>
      </trkpt>
      <trkpt lat="-22.287556" lon="-46.256131">
        <ele>915.224</ele>
        <time>2019-10-14T12:34:26Z</time>
      </trkpt>
      <trkpt lat="-22.287558" lon="-46.256077">
        <ele>915.408</ele>
        <time>2019-10-14T12:34:27Z</time>
      </trkpt>
      <trkpt lat="-22.287539" lon="-46.255975">
        <ele>915.553</ele>
        <time>2019-10-14T12:34:30Z</time>
      </trkpt>
      <trkpt lat="-22.287549" lon="-46.255884">
        <ele>915.791</ele>
        <time>2019-10-14T12:34:33Z</time>
      </trkpt>
      <trkpt lat="-22.287555" lon="-46.255823">
        <ele>916.043</ele>
        <time>2019-10-14T12:34:34Z</time>
      </trkpt>
      <trkpt lat="-22.287565" lon="-46.255771">
        <ele>916.565</ele>
        <time>2019-10-14T12:34:36Z</time>
      </trkpt>
      <trkpt lat="-22.287576" lon="-46.255692">
        <ele>916.787</ele>
        <time>2019-10-14T12:34:39Z</time>
      </trkpt>
      <trkpt lat="-22.287580" lon="-46.255608">
        <ele>916.590</ele>
        <time>2019-10-14T12:34:41Z</time>
      </trkpt>
      <trkpt lat="-22.287587" lon="-46.255533">
        <ele>916.315</ele>
        <time>2019-10-14T12:34:43Z</time>
      </trkpt>
      <trkpt lat="-22.287590" lon="-46.255477">
        <ele>916.771</ele>
        <time>2019-10-14T12:34:45Z</time>
      </trkpt>
      <trkpt lat="-22.287593" lon="-46.255409">
        <ele>917.348</ele>
        <time>2019-10-14T12:34:47Z</time>
      </trkpt>
      <trkpt lat="-22.287597" lon="-46.255359">
        <ele>917.561</ele>
        <time>2019-10-14T12:34:48Z</time>
      </trkpt>
      <trkpt lat="-22.287612" lon="-46.255288">
        <ele>917.917</ele>
        <time>2019-10-14T12:34:51Z</time>
      </trkpt>
      <trkpt lat="-22.287619" lon="-46.255234">
        <ele>918.208</ele>
        <time>2019-10-14T12:34:54Z</time>
      </trkpt>
      <trkpt lat="-22.287620" lon="-46.255182">
        <ele>918.268</ele>
        <time>2019-10-14T12:34:55Z</time>
      </trkpt>
      <trkpt lat="-22.287626" lon="-46.255121">
        <ele>918.446</ele>
        <time>2019-10-14T12:34:57Z</time>
      </trkpt>
      <trkpt lat="-22.287629" lon="-46.255071">
        <ele>919.268</ele>
        <time>2019-10-14T12:34:59Z</time>
      </trkpt>
      <trkpt lat="-22.287642" lon="-46.255003">
        <ele>919.940</ele>
        <time>2019-10-14T12:35:01Z</time>
      </trkpt>
      <trkpt lat="-22.287651" lon="-46.254944">
        <ele>920.592</ele>
        <time>2019-10-14T12:35:04Z</time>
      </trkpt>
      <trkpt lat="-22.287653" lon="-46.254887">
        <ele>921.755</ele>
        <time>2019-10-14T12:35:06Z</time>
      </trkpt>
      <trkpt lat="-22.287660" lon="-46.254838">
        <ele>922.120</ele>
        <time>2019-10-14T12:35:08Z</time>
      </trkpt>
      <trkpt lat="-22.287676" lon="-46.254763">
        <ele>923.066</ele>
        <time>2019-10-14T12:35:12Z</time>
      </trkpt>
      <trkpt lat="-22.287680" lon="-46.254714">
        <ele>923.493</ele>
        <time>2019-10-14T12:35:13Z</time>
      </trkpt>
      <trkpt lat="-22.287695" lon="-46.254658">
        <ele>923.665</ele>
        <time>2019-10-14T12:35:15Z</time>
      </trkpt>
      <trkpt lat="-22.287697" lon="-46.254596">
        <ele>923.621</ele>
        <time>2019-10-14T12:35:17Z</time>
      </trkpt>
      <trkpt lat="-22.287697" lon="-46.254546">
        <ele>923.608</ele>
        <time>2019-10-14T12:35:19Z</time>
      </trkpt>
      <trkpt lat="-22.287705" lon="-46.254485">
        <ele>923.623</ele>
        <time>2019-10-14T12:35:21Z</time>
      </trkpt>
      <trkpt lat="-22.287711" lon="-46.254432">
        <ele>923.661</ele>
        <time>2019-10-14T12:35:23Z</time>
      </trkpt>
      <trkpt lat="-22.287724" lon="-46.254363">
        <ele>923.643</ele>
        <time>2019-10-14T12:35:25Z</time>
      </trkpt>
      <trkpt lat="-22.287735" lon="-46.254294">
        <ele>923.745</ele>
        <time>2019-10-14T12:35:28Z</time>
      </trkpt>
      <trkpt lat="-22.287751" lon="-46.254232">
        <ele>923.647</ele>
        <time>2019-10-14T12:35:29Z</time>
      </trkpt>
      <trkpt lat="-22.287775" lon="-46.254155">
        <ele>923.710</ele>
        <time>2019-10-14T12:35:32Z</time>
      </trkpt>
      <trkpt lat="-22.287800" lon="-46.254073">
        <ele>923.795</ele>
        <time>2019-10-14T12:35:34Z</time>
      </trkpt>
      <trkpt lat="-22.287823" lon="-46.254006">
        <ele>923.351</ele>
        <time>2019-10-14T12:35:37Z</time>
      </trkpt>
      <trkpt lat="-22.287836" lon="-46.253954">
        <ele>923.753</ele>
        <time>2019-10-14T12:35:38Z</time>
      </trkpt>
      <trkpt lat="-22.287858" lon="-46.253882">
        <ele>924.104</ele>
        <time>2019-10-14T12:35:40Z</time>
      </trkpt>
      <trkpt lat="-22.287877" lon="-46.253826">
        <ele>924.314</ele>
        <time>2019-10-14T12:35:42Z</time>
      </trkpt>
      <trkpt lat="-22.287893" lon="-46.253775">
        <ele>924.608</ele>
        <time>2019-10-14T12:35:44Z</time>
      </trkpt>
      <trkpt lat="-22.287901" lon="-46.253725">
        <ele>925.019</ele>
        <time>2019-10-14T12:35:45Z</time>
      </trkpt>
      <trkpt lat="-22.287919" lon="-46.253661">
        <ele>925.547</ele>
        <time>2019-10-14T12:35:48Z</time>
      </trkpt>
      <trkpt lat="-22.287929" lon="-46.253612">
        <ele>925.579</ele>
        <time>2019-10-14T12:35:49Z</time>
      </trkpt>
      <trkpt lat="-22.287941" lon="-46.253548">
        <ele>925.361</ele>
        <time>2019-10-14T12:35:51Z</time>
      </trkpt>
      <trkpt lat="-22.287951" lon="-46.253469">
        <ele>925.833</ele>
        <time>2019-10-14T12:35:54Z</time>
      </trkpt>
      <trkpt lat="-22.287963" lon="-46.253408">
        <ele>926.396</ele>
        <time>2019-10-14T12:35:56Z</time>
      </trkpt>
      <trkpt lat="-22.287970" lon="-46.253353">
        <ele>926.631</ele>
        <time>2019-10-14T12:35:58Z</time>
      </trkpt>
      <trkpt lat="-22.287975" lon="-46.253304">
        <ele>927.077</ele>
        <time>2019-10-14T12:35:59Z</time>
      </trkpt>
      <trkpt lat="-22.287992" lon="-46.253247">
        <ele>927.431</ele>
        <time>2019-10-14T12:36:01Z</time>
      </trkpt>
      <trkpt lat="-22.288003" lon="-46.253196">
        <ele>927.861</ele>
        <time>2019-10-14T12:36:03Z</time>
      </trkpt>
      <trkpt lat="-22.288012" lon="-46.253123">
        <ele>928.207</ele>
        <time>2019-10-14T12:36:06Z</time>
      </trkpt>
      <trkpt lat="-22.288016" lon="-46.253047">
        <ele>928.208</ele>
        <time>2019-10-14T12:36:08Z</time>
      </trkpt>
      <trkpt lat="-22.288019" lon="-46.252947">
        <ele>928.677</ele>
        <time>2019-10-14T12:36:11Z</time>
      </trkpt>
      <trkpt lat="-22.288013" lon="-46.252897">
        <ele>928.335</ele>
        <time>2019-10-14T12:36:13Z</time>
      </trkpt>
      <trkpt lat="-22.288010" lon="-46.252831">
        <ele>928.597</ele>
        <time>2019-10-14T12:36:16Z</time>
      </trkpt>
      <trkpt lat="-22.288006" lon="-46.252775">
        <ele>928.499</ele>
        <time>2019-10-14T12:36:17Z</time>
      </trkpt>
      <trkpt lat="-22.288001" lon="-46.252723">
        <ele>928.341</ele>
        <time>2019-10-14T12:36:19Z</time>
      </trkpt>
      <trkpt lat="-22.287997" lon="-46.252674">
        <ele>928.544</ele>
        <time>2019-10-14T12:36:20Z</time>
      </trkpt>
      <trkpt lat="-22.287994" lon="-46.252601">
        <ele>928.999</ele>
        <time>2019-10-14T12:36:23Z</time>
      </trkpt>
      <trkpt lat="-22.287989" lon="-46.252523">
        <ele>929.155</ele>
        <time>2019-10-14T12:36:25Z</time>
      </trkpt>
      <trkpt lat="-22.287983" lon="-46.252455">
        <ele>929.476</ele>
        <time>2019-10-14T12:36:27Z</time>
      </trkpt>
      <trkpt lat="-22.287973" lon="-46.252384">
        <ele>929.590</ele>
        <time>2019-10-14T12:36:30Z</time>
      </trkpt>
      <trkpt lat="-22.287972" lon="-46.252335">
        <ele>929.619</ele>
        <time>2019-10-14T12:36:31Z</time>
      </trkpt>
      <trkpt lat="-22.287964" lon="-46.252273">
        <ele>929.508</ele>
        <time>2019-10-14T12:36:34Z</time>
      </trkpt>
      <trkpt lat="-22.287946" lon="-46.252207">
        <ele>929.751</ele>
        <time>2019-10-14T12:36:35Z</time>
      </trkpt>
      <trkpt lat="-22.287931" lon="-46.252153">
        <ele>930.229</ele>
        <time>2019-10-14T12:36:37Z</time>
      </trkpt>
      <trkpt lat="-22.287925" lon="-46.252102">
        <ele>930.861</ele>
        <time>2019-10-14T12:36:39Z</time>
      </trkpt>
      <trkpt lat="-22.287918" lon="-46.252053">
        <ele>931.463</ele>
        <time>2019-10-14T12:36:42Z</time>
      </trkpt>
      <trkpt lat="-22.287907" lon="-46.252003">
        <ele>932.065</ele>
        <time>2019-10-14T12:36:43Z</time>
      </trkpt>
      <trkpt lat="-22.287886" lon="-46.251948">
        <ele>932.168</ele>
        <time>2019-10-14T12:36:46Z</time>
      </trkpt>
      <trkpt lat="-22.287875" lon="-46.251896">
        <ele>932.853</ele>
        <time>2019-10-14T12:36:48Z</time>
      </trkpt>
      <trkpt lat="-22.287862" lon="-46.251833">
        <ele>933.859</ele>
        <time>2019-10-14T12:36:50Z</time>
      </trkpt>
      <trkpt lat="-22.287866" lon="-46.251777">
        <ele>935.042</ele>
        <time>2019-10-14T12:36:53Z</time>
      </trkpt>
      <trkpt lat="-22.287858" lon="-46.251714">
        <ele>936.322</ele>
        <time>2019-10-14T12:36:59Z</time>
      </trkpt>
      <trkpt lat="-22.287859" lon="-46.251647">
        <ele>936.914</ele>
        <time>2019-10-14T12:37:03Z</time>
      </trkpt>
      <trkpt lat="-22.287865" lon="-46.251585">
        <ele>937.508</ele>
        <time>2019-10-14T12:37:05Z</time>
      </trkpt>
      <trkpt lat="-22.287867" lon="-46.251534">
        <ele>937.578</ele>
        <time>2019-10-14T12:37:07Z</time>
      </trkpt>
      <trkpt lat="-22.287884" lon="-46.251476">
        <ele>938.046</ele>
        <time>2019-10-14T12:37:09Z</time>
      </trkpt>
      <trkpt lat="-22.287899" lon="-46.251427">
        <ele>938.538</ele>
        <time>2019-10-14T12:37:12Z</time>
      </trkpt>
      <trkpt lat="-22.287922" lon="-46.251354">
        <ele>939.820</ele>
        <time>2019-10-14T12:37:17Z</time>
      </trkpt>
      <trkpt lat="-22.287948" lon="-46.251295">
        <ele>940.182</ele>
        <time>2019-10-14T12:37:19Z</time>
      </trkpt>
      <trkpt lat="-22.287980" lon="-46.251255">
        <ele>940.585</ele>
        <time>2019-10-14T12:37:22Z</time>
      </trkpt>
      <trkpt lat="-22.288021" lon="-46.251199">
        <ele>941.170</ele>
        <time>2019-10-14T12:37:25Z</time>
      </trkpt>
      <trkpt lat="-22.288053" lon="-46.251137">
        <ele>941.816</ele>
        <time>2019-10-14T12:37:28Z</time>
      </trkpt>
      <trkpt lat="-22.288096" lon="-46.251095">
        <ele>942.183</ele>
        <time>2019-10-14T12:37:31Z</time>
      </trkpt>
      <trkpt lat="-22.288123" lon="-46.251054">
        <ele>941.925</ele>
        <time>2019-10-14T12:37:32Z</time>
      </trkpt>
      <trkpt lat="-22.288150" lon="-46.251008">
        <ele>941.917</ele>
        <time>2019-10-14T12:37:34Z</time>
      </trkpt>
      <trkpt lat="-22.288156" lon="-46.250959">
        <ele>942.408</ele>
        <time>2019-10-14T12:37:36Z</time>
      </trkpt>
      <trkpt lat="-22.288161" lon="-46.250897">
        <ele>942.332</ele>
        <time>2019-10-14T12:37:39Z</time>
      </trkpt>
      <trkpt lat="-22.288179" lon="-46.250813">
        <ele>942.460</ele>
        <time>2019-10-14T12:37:43Z</time>
      </trkpt>
      <trkpt lat="-22.288184" lon="-46.250758">
        <ele>942.382</ele>
        <time>2019-10-14T12:37:45Z</time>
      </trkpt>
      <trkpt lat="-22.288206" lon="-46.250681">
        <ele>942.094</ele>
        <time>2019-10-14T12:37:48Z</time>
      </trkpt>
      <trkpt lat="-22.288220" lon="-46.250635">
        <ele>942.226</ele>
        <time>2019-10-14T12:37:50Z</time>
      </trkpt>
      <trkpt lat="-22.288239" lon="-46.250560">
        <ele>941.949</ele>
        <time>2019-10-14T12:37:53Z</time>
      </trkpt>
      <trkpt lat="-22.288249" lon="-46.250506">
        <ele>941.994</ele>
        <time>2019-10-14T12:37:54Z</time>
      </trkpt>
      <trkpt lat="-22.288252" lon="-46.250453">
        <ele>941.840</ele>
        <time>2019-10-14T12:37:57Z</time>
      </trkpt>
      <trkpt lat="-22.288257" lon="-46.250388">
        <ele>941.493</ele>
        <time>2019-10-14T12:37:59Z</time>
      </trkpt>
      <trkpt lat="-22.288264" lon="-46.250329">
        <ele>940.665</ele>
        <time>2019-10-14T12:38:00Z</time>
      </trkpt>
      <trkpt lat="-22.288336" lon="-46.250054">
        <ele>939.821</ele>
        <time>2019-10-14T12:38:06Z</time>
      </trkpt>
      <trkpt lat="-22.288359" lon="-46.249702">
        <ele>939.408</ele>
        <time>2019-10-14T12:38:12Z</time>
      </trkpt>
      <trkpt lat="-22.288357" lon="-46.249626">
        <ele>939.983</ele>
        <time>2019-10-14T12:38:15Z</time>
      </trkpt>
      <trkpt lat="-22.288352" lon="-46.249560">
        <ele>940.281</ele>
        <time>2019-10-14T12:38:17Z</time>
      </trkpt>
      <trkpt lat="-22.288347" lon="-46.249498">
        <ele>940.683</ele>
        <time>2019-10-14T12:38:18Z</time>
      </trkpt>
      <trkpt lat="-22.288348" lon="-46.249428">
        <ele>940.695</ele>
        <time>2019-10-14T12:38:20Z</time>
      </trkpt>
      <trkpt lat="-22.288350" lon="-46.249371">
        <ele>940.897</ele>
        <time>2019-10-14T12:38:22Z</time>
      </trkpt>
      <trkpt lat="-22.288348" lon="-46.249313">
        <ele>940.780</ele>
        <time>2019-10-14T12:38:23Z</time>
      </trkpt>
      <trkpt lat="-22.288346" lon="-46.249263">
        <ele>940.825</ele>
        <time>2019-10-14T12:38:25Z</time>
      </trkpt>
      <trkpt lat="-22.288343" lon="-46.249205">
        <ele>940.921</ele>
        <time>2019-10-14T12:38:26Z</time>
      </trkpt>
      <trkpt lat="-22.288342" lon="-46.249132">
        <ele>941.586</ele>
        <time>2019-10-14T12:38:28Z</time>
      </trkpt>
      <trkpt lat="-22.288336" lon="-46.249064">
        <ele>942.260</ele>
        <time>2019-10-14T12:38:31Z</time>
      </trkpt>
      <trkpt lat="-22.288332" lon="-46.248970">
        <ele>943.126</ele>
        <time>2019-10-14T12:38:34Z</time>
      </trkpt>
      <trkpt lat="-22.288333" lon="-46.248920">
        <ele>942.808</ele>
        <time>2019-10-14T12:38:36Z</time>
      </trkpt>
      <trkpt lat="-22.288332" lon="-46.248858">
        <ele>943.462</ele>
        <time>2019-10-14T12:38:38Z</time>
      </trkpt>
      <trkpt lat="-22.288328" lon="-46.248781">
        <ele>943.440</ele>
        <time>2019-10-14T12:38:41Z</time>
      </trkpt>
      <trkpt lat="-22.288330" lon="-46.248728">
        <ele>943.852</ele>
        <time>2019-10-14T12:38:43Z</time>
      </trkpt>
      <trkpt lat="-22.288327" lon="-46.248670">
        <ele>943.714</ele>
        <time>2019-10-14T12:38:44Z</time>
      </trkpt>
      <trkpt lat="-22.288322" lon="-46.248619">
        <ele>943.956</ele>
        <time>2019-10-14T12:38:46Z</time>
      </trkpt>
      <trkpt lat="-22.288320" lon="-46.248554">
        <ele>944.149</ele>
        <time>2019-10-14T12:38:48Z</time>
      </trkpt>
      <trkpt lat="-22.288312" lon="-46.248494">
        <ele>944.014</ele>
        <time>2019-10-14T12:38:50Z</time>
      </trkpt>
      <trkpt lat="-22.288296" lon="-46.248433">
        <ele>943.640</ele>
        <time>2019-10-14T12:38:51Z</time>
      </trkpt>
      <trkpt lat="-22.288279" lon="-46.248361">
        <ele>943.691</ele>
        <time>2019-10-14T12:38:54Z</time>
      </trkpt>
      <trkpt lat="-22.288261" lon="-46.248284">
        <ele>943.881</ele>
        <time>2019-10-14T12:38:55Z</time>
      </trkpt>
      <trkpt lat="-22.288248" lon="-46.248236">
        <ele>944.119</ele>
        <time>2019-10-14T12:38:57Z</time>
      </trkpt>
      <trkpt lat="-22.288238" lon="-46.248143">
        <ele>943.808</ele>
        <time>2019-10-14T12:39:00Z</time>
      </trkpt>
      <trkpt lat="-22.288247" lon="-46.248077">
        <ele>943.163</ele>
        <time>2019-10-14T12:39:02Z</time>
      </trkpt>
      <trkpt lat="-22.288392" lon="-46.247463">
        <ele>941.571</ele>
        <time>2019-10-14T12:39:14Z</time>
      </trkpt>
      <trkpt lat="-22.288397" lon="-46.247399">
        <ele>941.773</ele>
        <time>2019-10-14T12:39:16Z</time>
      </trkpt>
      <trkpt lat="-22.288375" lon="-46.247303">
        <ele>941.995</ele>
        <time>2019-10-14T12:39:18Z</time>
      </trkpt>
      <trkpt lat="-22.288350" lon="-46.247226">
        <ele>942.527</ele>
        <time>2019-10-14T12:39:21Z</time>
      </trkpt>
      <trkpt lat="-22.288331" lon="-46.247153">
        <ele>943.960</ele>
        <time>2019-10-14T12:39:23Z</time>
      </trkpt>
      <trkpt lat="-22.288310" lon="-46.247069">
        <ele>944.475</ele>
        <time>2019-10-14T12:39:27Z</time>
      </trkpt>
      <trkpt lat="-22.288302" lon="-46.247016">
        <ele>945.761</ele>
        <time>2019-10-14T12:39:31Z</time>
      </trkpt>
      <trkpt lat="-22.288298" lon="-46.246956">
        <ele>946.588</ele>
        <time>2019-10-14T12:39:34Z</time>
      </trkpt>
      <trkpt lat="-22.288290" lon="-46.246902">
        <ele>947.424</ele>
        <time>2019-10-14T12:39:37Z</time>
      </trkpt>
      <trkpt lat="-22.288283" lon="-46.246834">
        <ele>948.626</ele>
        <time>2019-10-14T12:39:44Z</time>
      </trkpt>
      <trkpt lat="-22.288279" lon="-46.246748">
        <ele>950.308</ele>
        <time>2019-10-14T12:39:51Z</time>
      </trkpt>
      <trkpt lat="-22.288270" lon="-46.246669">
        <ele>950.992</ele>
        <time>2019-10-14T12:39:55Z</time>
      </trkpt>
      <trkpt lat="-22.288266" lon="-46.246600">
        <ele>951.310</ele>
        <time>2019-10-14T12:39:59Z</time>
      </trkpt>
      <trkpt lat="-22.288265" lon="-46.246546">
        <ele>951.312</ele>
        <time>2019-10-14T12:40:01Z</time>
      </trkpt>
      <trkpt lat="-22.288263" lon="-46.246479">
        <ele>952.384</ele>
        <time>2019-10-14T12:40:07Z</time>
      </trkpt>
      <trkpt lat="-22.288257" lon="-46.246413">
        <ele>953.536</ele>
        <time>2019-10-14T12:40:13Z</time>
      </trkpt>
      <trkpt lat="-22.288249" lon="-46.246360">
        <ele>953.949</ele>
        <time>2019-10-14T12:40:16Z</time>
      </trkpt>
      <trkpt lat="-22.288244" lon="-46.246268">
        <ele>954.294</ele>
        <time>2019-10-14T12:40:21Z</time>
      </trkpt>
      <trkpt lat="-22.288234" lon="-46.246217">
        <ele>954.710</ele>
        <time>2019-10-14T12:40:24Z</time>
      </trkpt>
      <trkpt lat="-22.288219" lon="-46.246143">
        <ele>955.274</ele>
        <time>2019-10-14T12:40:29Z</time>
      </trkpt>
      <trkpt lat="-22.288212" lon="-46.246072">
        <ele>955.656</ele>
        <time>2019-10-14T12:40:32Z</time>
      </trkpt>
      <trkpt lat="-22.288196" lon="-46.246015">
        <ele>956.021</ele>
        <time>2019-10-14T12:40:35Z</time>
      </trkpt>
      <trkpt lat="-22.288177" lon="-46.245966">
        <ele>956.008</ele>
        <time>2019-10-14T12:40:38Z</time>
      </trkpt>
      <trkpt lat="-22.288158" lon="-46.245898">
        <ele>956.641</ele>
        <time>2019-10-14T12:40:41Z</time>
      </trkpt>
      <trkpt lat="-22.288139" lon="-46.245844">
        <ele>957.029</ele>
        <time>2019-10-14T12:40:44Z</time>
      </trkpt>
      <trkpt lat="-22.288115" lon="-46.245785">
        <ele>957.871</ele>
        <time>2019-10-14T12:40:48Z</time>
      </trkpt>
      <trkpt lat="-22.288101" lon="-46.245721">
        <ele>958.123</ele>
        <time>2019-10-14T12:40:51Z</time>
      </trkpt>
      <trkpt lat="-22.288092" lon="-46.245660">
        <ele>959.025</ele>
        <time>2019-10-14T12:40:54Z</time>
      </trkpt>
      <trkpt lat="-22.288093" lon="-46.245609">
        <ele>958.898</ele>
        <time>2019-10-14T12:40:57Z</time>
      </trkpt>
      <trkpt lat="-22.288092" lon="-46.245534">
        <ele>958.913</ele>
        <time>2019-10-14T12:41:01Z</time>
      </trkpt>
      <trkpt lat="-22.288081" lon="-46.245465">
        <ele>959.169</ele>
        <time>2019-10-14T12:41:04Z</time>
      </trkpt>
      <trkpt lat="-22.288068" lon="-46.245399">
        <ele>959.156</ele>
        <time>2019-10-14T12:41:07Z</time>
      </trkpt>
      <trkpt lat="-22.288056" lon="-46.245320">
        <ele>959.559</ele>
        <time>2019-10-14T12:41:09Z</time>
      </trkpt>
      <trkpt lat="-22.288033" lon="-46.245227">
        <ele>959.414</ele>
        <time>2019-10-14T12:41:13Z</time>
      </trkpt>
      <trkpt lat="-22.288011" lon="-46.245171">
        <ele>959.208</ele>
        <time>2019-10-14T12:41:15Z</time>
      </trkpt>
      <trkpt lat="-22.287993" lon="-46.245123">
        <ele>959.149</ele>
        <time>2019-10-14T12:41:17Z</time>
      </trkpt>
      <trkpt lat="-22.287967" lon="-46.245053">
        <ele>959.897</ele>
        <time>2019-10-14T12:41:19Z</time>
      </trkpt>
      <trkpt lat="-22.287951" lon="-46.245007">
        <ele>959.929</ele>
        <time>2019-10-14T12:41:20Z</time>
      </trkpt>
      <trkpt lat="-22.287929" lon="-46.244951">
        <ele>959.881</ele>
        <time>2019-10-14T12:41:23Z</time>
      </trkpt>
      <trkpt lat="-22.287906" lon="-46.244899">
        <ele>960.193</ele>
        <time>2019-10-14T12:41:25Z</time>
      </trkpt>
      <trkpt lat="-22.287885" lon="-46.244834">
        <ele>960.146</ele>
        <time>2019-10-14T12:41:28Z</time>
      </trkpt>
      <trkpt lat="-22.287874" lon="-46.244783">
        <ele>960.341</ele>
        <time>2019-10-14T12:41:30Z</time>
      </trkpt>
      <trkpt lat="-22.287863" lon="-46.244720">
        <ele>960.497</ele>
        <time>2019-10-14T12:41:32Z</time>
      </trkpt>
      <trkpt lat="-22.287857" lon="-46.244670">
        <ele>960.211</ele>
        <time>2019-10-14T12:41:33Z</time>
      </trkpt>
      <trkpt lat="-22.287857" lon="-46.244591">
        <ele>959.621</ele>
        <time>2019-10-14T12:41:36Z</time>
      </trkpt>
      <trkpt lat="-22.287865" lon="-46.244541">
        <ele>959.103</ele>
        <time>2019-10-14T12:41:37Z</time>
      </trkpt>
      <trkpt lat="-22.287871" lon="-46.244476">
        <ele>958.708</ele>
        <time>2019-10-14T12:41:39Z</time>
      </trkpt>
      <trkpt lat="-22.287869" lon="-46.244383">
        <ele>958.145</ele>
        <time>2019-10-14T12:41:42Z</time>
      </trkpt>
      <trkpt lat="-22.287869" lon="-46.244283">
        <ele>957.433</ele>
        <time>2019-10-14T12:41:44Z</time>
      </trkpt>
      <trkpt lat="-22.287821" lon="-46.241957">
        <ele>952.845</ele>
        <time>2019-10-14T12:42:22Z</time>
      </trkpt>
      <trkpt lat="-22.287776" lon="-46.241926">
        <ele>953.427</ele>
        <time>2019-10-14T12:42:23Z</time>
      </trkpt>
      <trkpt lat="-22.287734" lon="-46.241893">
        <ele>953.999</ele>
        <time>2019-10-14T12:42:25Z</time>
      </trkpt>
      <trkpt lat="-22.287683" lon="-46.241860">
        <ele>954.982</ele>
        <time>2019-10-14T12:42:28Z</time>
      </trkpt>
      <trkpt lat="-22.287607" lon="-46.241810">
        <ele>956.177</ele>
        <time>2019-10-14T12:42:31Z</time>
      </trkpt>
      <trkpt lat="-22.287569" lon="-46.241781">
        <ele>956.783</ele>
        <time>2019-10-14T12:42:34Z</time>
      </trkpt>
      <trkpt lat="-22.287515" lon="-46.241749">
        <ele>957.244</ele>
        <time>2019-10-14T12:42:36Z</time>
      </trkpt>
      <trkpt lat="-22.287476" lon="-46.241722">
        <ele>957.805</ele>
        <time>2019-10-14T12:42:39Z</time>
      </trkpt>
      <trkpt lat="-22.287424" lon="-46.241694">
        <ele>959.015</ele>
        <time>2019-10-14T12:42:43Z</time>
      </trkpt>
      <trkpt lat="-22.287370" lon="-46.241670">
        <ele>959.308</ele>
        <time>2019-10-14T12:42:46Z</time>
      </trkpt>
      <trkpt lat="-22.287330" lon="-46.241645">
        <ele>959.938</ele>
        <time>2019-10-14T12:42:49Z</time>
      </trkpt>
      <trkpt lat="-22.287284" lon="-46.241621">
        <ele>960.346</ele>
        <time>2019-10-14T12:42:53Z</time>
      </trkpt>
      <trkpt lat="-22.287238" lon="-46.241605">
        <ele>960.998</ele>
        <time>2019-10-14T12:42:56Z</time>
      </trkpt>
      <trkpt lat="-22.287197" lon="-46.241581">
        <ele>961.620</ele>
        <time>2019-10-14T12:42:59Z</time>
      </trkpt>
      <trkpt lat="-22.287153" lon="-46.241555">
        <ele>962.062</ele>
        <time>2019-10-14T12:43:03Z</time>
      </trkpt>
      <trkpt lat="-22.287099" lon="-46.241526">
        <ele>962.715</ele>
        <time>2019-10-14T12:43:06Z</time>
      </trkpt>
      <trkpt lat="-22.287057" lon="-46.241503">
        <ele>963.430</ele>
        <time>2019-10-14T12:43:09Z</time>
      </trkpt>
      <trkpt lat="-22.287008" lon="-46.241472">
        <ele>964.446</ele>
        <time>2019-10-14T12:43:13Z</time>
      </trkpt>
      <trkpt lat="-22.286945" lon="-46.241432">
        <ele>965.172</ele>
        <time>2019-10-14T12:43:17Z</time>
      </trkpt>
      <trkpt lat="-22.286901" lon="-46.241391">
        <ele>965.813</ele>
        <time>2019-10-14T12:43:21Z</time>
      </trkpt>
      <trkpt lat="-22.286859" lon="-46.241369">
        <ele>965.914</ele>
        <time>2019-10-14T12:43:23Z</time>
      </trkpt>
      <trkpt lat="-22.286817" lon="-46.241333">
        <ele>966.708</ele>
        <time>2019-10-14T12:43:27Z</time>
      </trkpt>
      <trkpt lat="-22.286762" lon="-46.241280">
        <ele>966.951</ele>
        <time>2019-10-14T12:43:30Z</time>
      </trkpt>
      <trkpt lat="-22.286716" lon="-46.241248">
        <ele>967.579</ele>
        <time>2019-10-14T12:43:33Z</time>
      </trkpt>
      <trkpt lat="-22.286651" lon="-46.241213">
        <ele>967.861</ele>
        <time>2019-10-14T12:43:37Z</time>
      </trkpt>
      <trkpt lat="-22.286611" lon="-46.241180">
        <ele>968.483</ele>
        <time>2019-10-14T12:43:40Z</time>
      </trkpt>
      <trkpt lat="-22.286573" lon="-46.241145">
        <ele>968.885</ele>
        <time>2019-10-14T12:43:44Z</time>
      </trkpt>
      <trkpt lat="-22.286532" lon="-46.241103">
        <ele>969.148</ele>
        <time>2019-10-14T12:43:46Z</time>
      </trkpt>
      <trkpt lat="-22.286494" lon="-46.241070">
        <ele>969.463</ele>
        <time>2019-10-14T12:43:49Z</time>
      </trkpt>
      <trkpt lat="-22.286456" lon="-46.241027">
        <ele>969.649</ele>
        <time>2019-10-14T12:43:51Z</time>
      </trkpt>
      <trkpt lat="-22.286419" lon="-46.240987">
        <ele>970.364</ele>
        <time>2019-10-14T12:43:54Z</time>
      </trkpt>
      <trkpt lat="-22.286378" lon="-46.240917">
        <ele>970.706</ele>
        <time>2019-10-14T12:43:59Z</time>
      </trkpt>
      <trkpt lat="-22.286344" lon="-46.240872">
        <ele>970.616</ele>
        <time>2019-10-14T12:44:01Z</time>
      </trkpt>
      <trkpt lat="-22.286298" lon="-46.240828">
        <ele>971.108</ele>
        <time>2019-10-14T12:44:04Z</time>
      </trkpt>
      <trkpt lat="-22.286271" lon="-46.240789">
        <ele>971.370</ele>
        <time>2019-10-14T12:44:06Z</time>
      </trkpt>
      <trkpt lat="-22.286242" lon="-46.240743">
        <ele>971.888</ele>
        <time>2019-10-14T12:44:09Z</time>
      </trkpt>
      <trkpt lat="-22.286189" lon="-46.240676">
        <ele>972.590</ele>
        <time>2019-10-14T12:44:14Z</time>
      </trkpt>
      <trkpt lat="-22.286151" lon="-46.240619">
        <ele>972.852</ele>
        <time>2019-10-14T12:44:17Z</time>
      </trkpt>
      <trkpt lat="-22.286116" lon="-46.240581">
        <ele>973.314</ele>
        <time>2019-10-14T12:44:20Z</time>
      </trkpt>
      <trkpt lat="-22.286073" lon="-46.240536">
        <ele>974.377</ele>
        <time>2019-10-14T12:44:23Z</time>
      </trkpt>
      <trkpt lat="-22.286030" lon="-46.240510">
        <ele>974.632</ele>
        <time>2019-10-14T12:44:26Z</time>
      </trkpt>
      <trkpt lat="-22.285994" lon="-46.240476">
        <ele>975.318</ele>
        <time>2019-10-14T12:44:30Z</time>
      </trkpt>
      <trkpt lat="-22.285959" lon="-46.240441">
        <ele>976.536</ele>
        <time>2019-10-14T12:44:33Z</time>
      </trkpt>
      <trkpt lat="-22.285919" lon="-46.240409">
        <ele>977.417</ele>
        <time>2019-10-14T12:44:37Z</time>
      </trkpt>
      <trkpt lat="-22.285881" lon="-46.240375">
        <ele>977.718</ele>
        <time>2019-10-14T12:44:41Z</time>
      </trkpt>
      <trkpt lat="-22.285842" lon="-46.240330">
        <ele>978.608</ele>
        <time>2019-10-14T12:44:46Z</time>
      </trkpt>
      <trkpt lat="-22.285812" lon="-46.240288">
        <ele>978.937</ele>
        <time>2019-10-14T12:44:48Z</time>
      </trkpt>
      <trkpt lat="-22.285785" lon="-46.240241">
        <ele>979.255</ele>
        <time>2019-10-14T12:44:52Z</time>
      </trkpt>
      <trkpt lat="-22.285733" lon="-46.240178">
        <ele>980.157</ele>
        <time>2019-10-14T12:44:56Z</time>
      </trkpt>
      <trkpt lat="-22.285686" lon="-46.240138">
        <ele>980.969</ele>
        <time>2019-10-14T12:45:00Z</time>
      </trkpt>
      <trkpt lat="-22.285653" lon="-46.240100">
        <ele>980.841</ele>
        <time>2019-10-14T12:45:03Z</time>
      </trkpt>
      <trkpt lat="-22.285613" lon="-46.240064">
        <ele>981.524</ele>
        <time>2019-10-14T12:45:06Z</time>
      </trkpt>
      <trkpt lat="-22.285577" lon="-46.240029">
        <ele>981.499</ele>
        <time>2019-10-14T12:45:08Z</time>
      </trkpt>
      <trkpt lat="-22.285552" lon="-46.239981">
        <ele>981.735</ele>
        <time>2019-10-14T12:45:11Z</time>
      </trkpt>
      <trkpt lat="-22.285519" lon="-46.239940">
        <ele>981.836</ele>
        <time>2019-10-14T12:45:13Z</time>
      </trkpt>
      <trkpt lat="-22.285475" lon="-46.239902">
        <ele>982.217</ele>
        <time>2019-10-14T12:45:15Z</time>
      </trkpt>
      <trkpt lat="-22.285408" lon="-46.239844">
        <ele>982.718</ele>
        <time>2019-10-14T12:45:19Z</time>
      </trkpt>
      <trkpt lat="-22.285374" lon="-46.239807">
        <ele>983.008</ele>
        <time>2019-10-14T12:45:22Z</time>
      </trkpt>
      <trkpt lat="-22.285325" lon="-46.239765">
        <ele>983.427</ele>
        <time>2019-10-14T12:45:24Z</time>
      </trkpt>
      <trkpt lat="-22.285284" lon="-46.239742">
        <ele>983.555</ele>
        <time>2019-10-14T12:45:27Z</time>
      </trkpt>
      <trkpt lat="-22.285225" lon="-46.239709">
        <ele>984.077</ele>
        <time>2019-10-14T12:45:29Z</time>
      </trkpt>
      <trkpt lat="-22.285185" lon="-46.239680">
        <ele>984.319</ele>
        <time>2019-10-14T12:45:32Z</time>
      </trkpt>
      <trkpt lat="-22.285139" lon="-46.239645">
        <ele>984.431</ele>
        <time>2019-10-14T12:45:35Z</time>
      </trkpt>
      <trkpt lat="-22.285101" lon="-46.239615">
        <ele>984.174</ele>
        <time>2019-10-14T12:45:37Z</time>
      </trkpt>
      <trkpt lat="-22.285051" lon="-46.239577">
        <ele>984.189</ele>
        <time>2019-10-14T12:45:40Z</time>
      </trkpt>
      <trkpt lat="-22.285010" lon="-46.239551">
        <ele>984.115</ele>
        <time>2019-10-14T12:45:41Z</time>
      </trkpt>
      <trkpt lat="-22.284969" lon="-46.239521">
        <ele>984.125</ele>
        <time>2019-10-14T12:45:43Z</time>
      </trkpt>
      <trkpt lat="-22.284923" lon="-46.239485">
        <ele>983.926</ele>
        <time>2019-10-14T12:45:45Z</time>
      </trkpt>
      <trkpt lat="-22.284869" lon="-46.239447">
        <ele>983.608</ele>
        <time>2019-10-14T12:45:47Z</time>
      </trkpt>
      <trkpt lat="-22.284799" lon="-46.239397">
        <ele>983.708</ele>
        <time>2019-10-14T12:45:51Z</time>
      </trkpt>
      <trkpt lat="-22.284755" lon="-46.239364">
        <ele>983.246</ele>
        <time>2019-10-14T12:45:52Z</time>
      </trkpt>
      <trkpt lat="-22.284694" lon="-46.239332">
        <ele>983.464</ele>
        <time>2019-10-14T12:45:54Z</time>
      </trkpt>
      <trkpt lat="-22.284629" lon="-46.239303">
        <ele>983.096</ele>
        <time>2019-10-14T12:45:57Z</time>
      </trkpt>
      <trkpt lat="-22.284574" lon="-46.239275">
        <ele>983.138</ele>
        <time>2019-10-14T12:45:59Z</time>
      </trkpt>
      <trkpt lat="-22.284529" lon="-46.239253">
        <ele>983.080</ele>
        <time>2019-10-14T12:46:00Z</time>
      </trkpt>
      <trkpt lat="-22.284464" lon="-46.239225">
        <ele>982.823</ele>
        <time>2019-10-14T12:46:02Z</time>
      </trkpt>
      <trkpt lat="-22.284414" lon="-46.239208">
        <ele>982.898</ele>
        <time>2019-10-14T12:46:04Z</time>
      </trkpt>
      <trkpt lat="-22.284367" lon="-46.239188">
        <ele>982.484</ele>
        <time>2019-10-14T12:46:06Z</time>
      </trkpt>
      <trkpt lat="-22.284323" lon="-46.239162">
        <ele>982.443</ele>
        <time>2019-10-14T12:46:07Z</time>
      </trkpt>
      <trkpt lat="-22.284263" lon="-46.239136">
        <ele>982.564</ele>
        <time>2019-10-14T12:46:09Z</time>
      </trkpt>
      <trkpt lat="-22.284208" lon="-46.239107">
        <ele>982.410</ele>
        <time>2019-10-14T12:46:11Z</time>
      </trkpt>
      <trkpt lat="-22.284151" lon="-46.239081">
        <ele>982.008</ele>
        <time>2019-10-14T12:46:13Z</time>
      </trkpt>
      <trkpt lat="-22.284093" lon="-46.239054">
        <ele>982.028</ele>
        <time>2019-10-14T12:46:16Z</time>
      </trkpt>
      <trkpt lat="-22.284040" lon="-46.239029">
        <ele>982.296</ele>
        <time>2019-10-14T12:46:17Z</time>
      </trkpt>
      <trkpt lat="-22.283981" lon="-46.239002">
        <ele>982.088</ele>
        <time>2019-10-14T12:46:19Z</time>
      </trkpt>
      <trkpt lat="-22.283926" lon="-46.238975">
        <ele>981.760</ele>
        <time>2019-10-14T12:46:22Z</time>
      </trkpt>
      <trkpt lat="-22.283879" lon="-46.238949">
        <ele>981.682</ele>
        <time>2019-10-14T12:46:23Z</time>
      </trkpt>
      <trkpt lat="-22.283816" lon="-46.238916">
        <ele>981.625</ele>
        <time>2019-10-14T12:46:25Z</time>
      </trkpt>
      <trkpt lat="-22.283757" lon="-46.238889">
        <ele>981.630</ele>
        <time>2019-10-14T12:46:27Z</time>
      </trkpt>
      <trkpt lat="-22.283634" lon="-46.238808">
        <ele>981.576</ele>
        <time>2019-10-14T12:46:32Z</time>
      </trkpt>
      <trkpt lat="-22.283578" lon="-46.238770">
        <ele>981.576</ele>
        <time>2019-10-14T12:46:35Z</time>
      </trkpt>
      <trkpt lat="-22.283535" lon="-46.238731">
        <ele>981.490</ele>
        <time>2019-10-14T12:46:38Z</time>
      </trkpt>
      <trkpt lat="-22.283464" lon="-46.238667">
        <ele>982.219</ele>
        <time>2019-10-14T12:46:41Z</time>
      </trkpt>
      <trkpt lat="-22.283411" lon="-46.238626">
        <ele>981.808</ele>
        <time>2019-10-14T12:46:43Z</time>
      </trkpt>
      <trkpt lat="-22.283367" lon="-46.238583">
        <ele>981.681</ele>
        <time>2019-10-14T12:46:46Z</time>
      </trkpt>
      <trkpt lat="-22.283330" lon="-46.238536">
        <ele>981.539</ele>
        <time>2019-10-14T12:46:47Z</time>
      </trkpt>
      <trkpt lat="-22.283289" lon="-46.238483">
        <ele>981.191</ele>
        <time>2019-10-14T12:46:49Z</time>
      </trkpt>
      <trkpt lat="-22.283236" lon="-46.238400">
        <ele>980.223</ele>
        <time>2019-10-14T12:46:52Z</time>
      </trkpt>
      <trkpt lat="-22.283210" lon="-46.238350">
        <ele>980.145</ele>
        <time>2019-10-14T12:46:54Z</time>
      </trkpt>
      <trkpt lat="-22.283187" lon="-46.238298">
        <ele>979.738</ele>
        <time>2019-10-14T12:46:56Z</time>
      </trkpt>
      <trkpt lat="-22.283168" lon="-46.238235">
        <ele>979.013</ele>
        <time>2019-10-14T12:46:57Z</time>
      </trkpt>
      <trkpt lat="-22.283158" lon="-46.238173">
        <ele>978.879</ele>
        <time>2019-10-14T12:46:59Z</time>
      </trkpt>
      <trkpt lat="-22.282097" lon="-46.235954">
        <ele>965.129</ele>
        <time>2019-10-14T12:47:45Z</time>
      </trkpt>
      <trkpt lat="-22.282041" lon="-46.235945">
        <ele>966.900</ele>
        <time>2019-10-14T12:47:55Z</time>
      </trkpt>
      <trkpt lat="-22.281985" lon="-46.235937">
        <ele>968.420</ele>
        <time>2019-10-14T12:47:59Z</time>
      </trkpt>
      <trkpt lat="-22.281930" lon="-46.235932">
        <ele>969.308</ele>
        <time>2019-10-14T12:48:04Z</time>
      </trkpt>
      <trkpt lat="-22.281882" lon="-46.235919">
        <ele>971.276</ele>
        <time>2019-10-14T12:48:13Z</time>
      </trkpt>
      <trkpt lat="-22.281835" lon="-46.235921">
        <ele>973.414</ele>
        <time>2019-10-14T12:48:22Z</time>
      </trkpt>
      <trkpt lat="-22.281767" lon="-46.235891">
        <ele>974.656</ele>
        <time>2019-10-14T12:48:25Z</time>
      </trkpt>
      <trkpt lat="-22.281717" lon="-46.235902">
        <ele>975.748</ele>
        <time>2019-10-14T12:48:30Z</time>
      </trkpt>
      <trkpt lat="-22.281654" lon="-46.235930">
        <ele>977.390</ele>
        <time>2019-10-14T12:48:37Z</time>
      </trkpt>
      <trkpt lat="-22.281617" lon="-46.235960">
        <ele>980.393</ele>
        <time>2019-10-14T12:48:53Z</time>
      </trkpt>
      <trkpt lat="-22.281585" lon="-46.236000">
        <ele>981.868</ele>
        <time>2019-10-14T12:49:01Z</time>
      </trkpt>
      <trkpt lat="-22.281541" lon="-46.236036">
        <ele>982.994</ele>
        <time>2019-10-14T12:49:08Z</time>
      </trkpt>
      <trkpt lat="-22.281453" lon="-46.236125">
        <ele>984.363</ele>
        <time>2019-10-14T12:49:21Z</time>
      </trkpt>
      <trkpt lat="-22.281345" lon="-46.236202">
        <ele>984.844</ele>
        <time>2019-10-14T12:49:25Z</time>
      </trkpt>
      <trkpt lat="-22.281271" lon="-46.236223">
        <ele>985.718</ele>
        <time>2019-10-14T12:49:34Z</time>
      </trkpt>
      <trkpt lat="-22.281221" lon="-46.236207">
        <ele>987.508</ele>
        <time>2019-10-14T12:49:46Z</time>
      </trkpt>
      <trkpt lat="-22.281172" lon="-46.236206">
        <ele>988.850</ele>
        <time>2019-10-14T12:49:53Z</time>
      </trkpt>
      <trkpt lat="-22.281123" lon="-46.236200">
        <ele>989.238</ele>
        <time>2019-10-14T12:49:58Z</time>
      </trkpt>
      <trkpt lat="-22.281073" lon="-46.236180">
        <ele>989.740</ele>
        <time>2019-10-14T12:50:01Z</time>
      </trkpt>
      <trkpt lat="-22.281032" lon="-46.236158">
        <ele>990.462</ele>
        <time>2019-10-14T12:50:04Z</time>
      </trkpt>
      <trkpt lat="-22.280989" lon="-46.236131">
        <ele>991.664</ele>
        <time>2019-10-14T12:50:10Z</time>
      </trkpt>
      <trkpt lat="-22.280904" lon="-46.236039">
        <ele>993.297</ele>
        <time>2019-10-14T12:50:23Z</time>
      </trkpt>
      <trkpt lat="-22.280878" lon="-46.235992">
        <ele>993.622</ele>
        <time>2019-10-14T12:50:26Z</time>
      </trkpt>
      <trkpt lat="-22.280827" lon="-46.235910">
        <ele>995.048</ele>
        <time>2019-10-14T12:50:35Z</time>
      </trkpt>
      <trkpt lat="-22.280784" lon="-46.235839">
        <ele>996.237</ele>
        <time>2019-10-14T12:50:42Z</time>
      </trkpt>
      <trkpt lat="-22.280751" lon="-46.235784">
        <ele>996.849</ele>
        <time>2019-10-14T12:50:46Z</time>
      </trkpt>
      <trkpt lat="-22.280732" lon="-46.235737">
        <ele>997.213</ele>
        <time>2019-10-14T12:50:49Z</time>
      </trkpt>
      <trkpt lat="-22.280709" lon="-46.235662">
        <ele>998.408</ele>
        <time>2019-10-14T12:50:57Z</time>
      </trkpt>
      <trkpt lat="-22.280693" lon="-46.235609">
        <ele>999.617</ele>
        <time>2019-10-14T12:51:04Z</time>
      </trkpt>
      <trkpt lat="-22.280658" lon="-46.235482">
        <ele>1001.625</ele>
        <time>2019-10-14T12:51:16Z</time>
      </trkpt>
      <trkpt lat="-22.280632" lon="-46.235420">
        <ele>1002.727</ele>
        <time>2019-10-14T12:51:21Z</time>
      </trkpt>
      <trkpt lat="-22.280606" lon="-46.235371">
        <ele>1003.699</ele>
        <time>2019-10-14T12:51:26Z</time>
      </trkpt>
      <trkpt lat="-22.280585" lon="-46.235318">
        <ele>1004.071</ele>
        <time>2019-10-14T12:51:30Z</time>
      </trkpt>
      <trkpt lat="-22.280567" lon="-46.235270">
        <ele>1005.114</ele>
        <time>2019-10-14T12:51:35Z</time>
      </trkpt>
      <trkpt lat="-22.280552" lon="-46.235223">
        <ele>1005.949</ele>
        <time>2019-10-14T12:51:38Z</time>
      </trkpt>
      <trkpt lat="-22.280542" lon="-46.235168">
        <ele>1006.635</ele>
        <time>2019-10-14T12:51:44Z</time>
      </trkpt>
      <trkpt lat="-22.280534" lon="-46.235117">
        <ele>1007.632</ele>
        <time>2019-10-14T12:51:48Z</time>
      </trkpt>
      <trkpt lat="-22.280523" lon="-46.235069">
        <ele>1008.192</ele>
        <time>2019-10-14T12:51:51Z</time>
      </trkpt>
      <trkpt lat="-22.280514" lon="-46.235019">
        <ele>1008.711</ele>
        <time>2019-10-14T12:51:56Z</time>
      </trkpt>
      <trkpt lat="-22.280506" lon="-46.234947">
        <ele>1009.208</ele>
        <time>2019-10-14T12:52:02Z</time>
      </trkpt>
      <trkpt lat="-22.280508" lon="-46.234877">
        <ele>1009.617</ele>
        <time>2019-10-14T12:52:08Z</time>
      </trkpt>
      <trkpt lat="-22.280514" lon="-46.234824">
        <ele>1010.475</ele>
        <time>2019-10-14T12:52:12Z</time>
      </trkpt>
      <trkpt lat="-22.280517" lon="-46.234761">
        <ele>1010.877</ele>
        <time>2019-10-14T12:52:16Z</time>
      </trkpt>
      <trkpt lat="-22.280511" lon="-46.234708">
        <ele>1011.349</ele>
        <time>2019-10-14T12:52:22Z</time>
      </trkpt>
      <trkpt lat="-22.280511" lon="-46.234651">
        <ele>1012.011</ele>
        <time>2019-10-14T12:52:26Z</time>
      </trkpt>
      <trkpt lat="-22.280513" lon="-46.234586">
        <ele>1012.634</ele>
        <time>2019-10-14T12:52:31Z</time>
      </trkpt>
      <trkpt lat="-22.280520" lon="-46.234533">
        <ele>1013.799</ele>
        <time>2019-10-14T12:52:36Z</time>
      </trkpt>
      <trkpt lat="-22.280521" lon="-46.234457">
        <ele>1014.845</ele>
        <time>2019-10-14T12:52:42Z</time>
      </trkpt>
      <trkpt lat="-22.280516" lon="-46.234400">
        <ele>1015.578</ele>
        <time>2019-10-14T12:52:46Z</time>
      </trkpt>
      <trkpt lat="-22.280509" lon="-46.234343">
        <ele>1016.133</ele>
        <time>2019-10-14T12:52:53Z</time>
      </trkpt>
      <trkpt lat="-22.280506" lon="-46.234293">
        <ele>1016.726</ele>
        <time>2019-10-14T12:52:56Z</time>
      </trkpt>
      <trkpt lat="-22.280500" lon="-46.234227">
        <ele>1017.508</ele>
        <time>2019-10-14T12:53:01Z</time>
      </trkpt>
      <trkpt lat="-22.280494" lon="-46.234145">
        <ele>1018.011</ele>
        <time>2019-10-14T12:53:07Z</time>
      </trkpt>
      <trkpt lat="-22.280488" lon="-46.234089">
        <ele>1018.899</ele>
        <time>2019-10-14T12:53:12Z</time>
      </trkpt>
      <trkpt lat="-22.280481" lon="-46.234039">
        <ele>1019.811</ele>
        <time>2019-10-14T12:53:16Z</time>
      </trkpt>
      <trkpt lat="-22.280475" lon="-46.233991">
        <ele>1020.333</ele>
        <time>2019-10-14T12:53:19Z</time>
      </trkpt>
      <trkpt lat="-22.280468" lon="-46.233926">
        <ele>1021.055</ele>
        <time>2019-10-14T12:53:25Z</time>
      </trkpt>
      <trkpt lat="-22.280457" lon="-46.233869">
        <ele>1021.888</ele>
        <time>2019-10-14T12:53:29Z</time>
      </trkpt>
      <trkpt lat="-22.280450" lon="-46.233792">
        <ele>1022.973</ele>
        <time>2019-10-14T12:53:35Z</time>
      </trkpt>
      <trkpt lat="-22.280447" lon="-46.233696">
        <ele>1025.069</ele>
        <time>2019-10-14T12:53:44Z</time>
      </trkpt>
      <trkpt lat="-22.280443" lon="-46.233634">
        <ele>1026.033</ele>
        <time>2019-10-14T12:53:50Z</time>
      </trkpt>
      <trkpt lat="-22.280436" lon="-46.233577">
        <ele>1026.823</ele>
        <time>2019-10-14T12:53:56Z</time>
      </trkpt>
      <trkpt lat="-22.280428" lon="-46.233519">
        <ele>1027.615</ele>
        <time>2019-10-14T12:54:01Z</time>
      </trkpt>
      <trkpt lat="-22.280425" lon="-46.233432">
        <ele>1028.608</ele>
        <time>2019-10-14T12:54:09Z</time>
      </trkpt>
      <trkpt lat="-22.280421" lon="-46.233333">
        <ele>1029.747</ele>
        <time>2019-10-14T12:54:17Z</time>
      </trkpt>
      <trkpt lat="-22.280420" lon="-46.233273">
        <ele>1030.495</ele>
        <time>2019-10-14T12:54:22Z</time>
      </trkpt>
      <trkpt lat="-22.280420" lon="-46.233179">
        <ele>1031.377</ele>
        <time>2019-10-14T12:54:28Z</time>
      </trkpt>
      <trkpt lat="-22.280429" lon="-46.233116">
        <ele>1032.059</ele>
        <time>2019-10-14T12:54:34Z</time>
      </trkpt>
      <trkpt lat="-22.280431" lon="-46.233066">
        <ele>1032.431</ele>
        <time>2019-10-14T12:54:37Z</time>
      </trkpt>
      <trkpt lat="-22.280434" lon="-46.233011">
        <ele>1033.694</ele>
        <time>2019-10-14T12:54:43Z</time>
      </trkpt>
      <trkpt lat="-22.280436" lon="-46.232962">
        <ele>1034.429</ele>
        <time>2019-10-14T12:54:47Z</time>
      </trkpt>
      <trkpt lat="-22.280448" lon="-46.232861">
        <ele>1035.225</ele>
        <time>2019-10-14T12:54:55Z</time>
      </trkpt>
      <trkpt lat="-22.280453" lon="-46.232796">
        <ele>1035.977</ele>
        <time>2019-10-14T12:54:59Z</time>
      </trkpt>
      <trkpt lat="-22.280449" lon="-46.232717">
        <ele>1036.461</ele>
        <time>2019-10-14T12:55:00Z</time>
      </trkpt>
      <trkpt lat="-22.280451" lon="-46.232662">
        <ele>1036.527</ele>
        <time>2019-10-14T12:55:03Z</time>
      </trkpt>
      <trkpt lat="-22.280456" lon="-46.232602">
        <ele>1037.208</ele>
        <time>2019-10-14T12:55:05Z</time>
      </trkpt>
      <trkpt lat="-22.280453" lon="-46.232553">
        <ele>1038.551</ele>
        <time>2019-10-14T12:55:08Z</time>
      </trkpt>
      <trkpt lat="-22.280453" lon="-46.232490">
        <ele>1038.769</ele>
        <time>2019-10-14T12:55:11Z</time>
      </trkpt>
      <trkpt lat="-22.280459" lon="-46.232427">
        <ele>1039.551</ele>
        <time>2019-10-14T12:55:14Z</time>
      </trkpt>
      <trkpt lat="-22.280454" lon="-46.232371">
        <ele>1040.253</ele>
        <time>2019-10-14T12:55:17Z</time>
      </trkpt>
      <trkpt lat="-22.280456" lon="-46.232317">
        <ele>1040.945</ele>
        <time>2019-10-14T12:55:21Z</time>
      </trkpt>
      <trkpt lat="-22.280456" lon="-46.232262">
        <ele>1041.448</ele>
        <time>2019-10-14T12:55:24Z</time>
      </trkpt>
      <trkpt lat="-22.280456" lon="-46.232211">
        <ele>1042.263</ele>
        <time>2019-10-14T12:55:26Z</time>
      </trkpt>
      <trkpt lat="-22.280460" lon="-46.232140">
        <ele>1042.729</ele>
        <time>2019-10-14T12:55:30Z</time>
      </trkpt>
      <trkpt lat="-22.280478" lon="-46.232075">
        <ele>1043.226</ele>
        <time>2019-10-14T12:55:34Z</time>
      </trkpt>
      <trkpt lat="-22.280487" lon="-46.232026">
        <ele>1043.947</ele>
        <time>2019-10-14T12:55:36Z</time>
      </trkpt>
      <trkpt lat="-22.280513" lon="-46.231966">
        <ele>1044.411</ele>
        <time>2019-10-14T12:55:40Z</time>
      </trkpt>
      <trkpt lat="-22.280531" lon="-46.231913">
        <ele>1044.508</ele>
        <time>2019-10-14T12:55:42Z</time>
      </trkpt>
      <trkpt lat="-22.280546" lon="-46.231864">
        <ele>1045.336</ele>
        <time>2019-10-14T12:55:45Z</time>
      </trkpt>
      <trkpt lat="-22.280562" lon="-46.231818">
        <ele>1045.614</ele>
        <time>2019-10-14T12:55:48Z</time>
      </trkpt>
      <trkpt lat="-22.280571" lon="-46.231751">
        <ele>1046.436</ele>
        <time>2019-10-14T12:55:52Z</time>
      </trkpt>
      <trkpt lat="-22.280591" lon="-46.231706">
        <ele>1046.828</ele>
        <time>2019-10-14T12:55:55Z</time>
      </trkpt>
      <trkpt lat="-22.280607" lon="-46.231653">
        <ele>1047.050</ele>
        <time>2019-10-14T12:55:57Z</time>
      </trkpt>
      <trkpt lat="-22.280633" lon="-46.231590">
        <ele>1047.173</ele>
        <time>2019-10-14T12:56:01Z</time>
      </trkpt>
      <trkpt lat="-22.280655" lon="-46.231541">
        <ele>1047.768</ele>
        <time>2019-10-14T12:56:04Z</time>
      </trkpt>
      <trkpt lat="-22.280678" lon="-46.231453">
        <ele>1048.174</ele>
        <time>2019-10-14T12:56:09Z</time>
      </trkpt>
      <trkpt lat="-22.280701" lon="-46.231399">
        <ele>1047.628</ele>
        <time>2019-10-14T12:56:12Z</time>
      </trkpt>
      <trkpt lat="-22.280716" lon="-46.231344">
        <ele>1047.189</ele>
        <time>2019-10-14T12:56:15Z</time>
      </trkpt>
      <trkpt lat="-22.280738" lon="-46.231280">
        <ele>1047.317</ele>
        <time>2019-10-14T12:56:18Z</time>
      </trkpt>
      <trkpt lat="-22.280739" lon="-46.231224">
        <ele>1047.308</ele>
        <time>2019-10-14T12:56:20Z</time>
      </trkpt>
      <trkpt lat="-22.280780" lon="-46.231158">
        <ele>1047.286</ele>
        <time>2019-10-14T12:56:23Z</time>
      </trkpt>
      <trkpt lat="-22.280805" lon="-46.231103">
        <ele>1046.824</ele>
        <time>2019-10-14T12:56:26Z</time>
      </trkpt>
      <trkpt lat="-22.280827" lon="-46.231046">
        <ele>1046.816</ele>
        <time>2019-10-14T12:56:27Z</time>
      </trkpt>
      <trkpt lat="-22.280853" lon="-46.230965">
        <ele>1046.718</ele>
        <time>2019-10-14T12:56:30Z</time>
      </trkpt>
      <trkpt lat="-22.280883" lon="-46.230864">
        <ele>1046.380</ele>
        <time>2019-10-14T12:56:33Z</time>
      </trkpt>
      <trkpt lat="-22.280884" lon="-46.230814">
        <ele>1046.723</ele>
        <time>2019-10-14T12:56:35Z</time>
      </trkpt>
      <trkpt lat="-22.280886" lon="-46.230745">
        <ele>1046.328</ele>
        <time>2019-10-14T12:56:38Z</time>
      </trkpt>
      <trkpt lat="-22.280884" lon="-46.230676">
        <ele>1046.014</ele>
        <time>2019-10-14T12:56:40Z</time>
      </trkpt>
      <trkpt lat="-22.280871" lon="-46.230621">
        <ele>1045.981</ele>
        <time>2019-10-14T12:56:41Z</time>
      </trkpt>
      <trkpt lat="-22.280859" lon="-46.230551">
        <ele>1045.461</ele>
        <time>2019-10-14T12:56:43Z</time>
      </trkpt>
      <trkpt lat="-22.280850" lon="-46.230500">
        <ele>1045.017</ele>
        <time>2019-10-14T12:56:45Z</time>
      </trkpt>
      <trkpt lat="-22.280838" lon="-46.230445">
        <ele>1045.108</ele>
        <time>2019-10-14T12:56:46Z</time>
      </trkpt>
      <trkpt lat="-22.280825" lon="-46.230398">
        <ele>1045.292</ele>
        <time>2019-10-14T12:56:48Z</time>
      </trkpt>
      <trkpt lat="-22.280795" lon="-46.230301">
        <ele>1044.990</ele>
        <time>2019-10-14T12:56:51Z</time>
      </trkpt>
      <trkpt lat="-22.280777" lon="-46.230233">
        <ele>1045.142</ele>
        <time>2019-10-14T12:56:54Z</time>
      </trkpt>
      <trkpt lat="-22.280759" lon="-46.230189">
        <ele>1045.444</ele>
        <time>2019-10-14T12:56:56Z</time>
      </trkpt>
      <trkpt lat="-22.280736" lon="-46.230125">
        <ele>1045.346</ele>
        <time>2019-10-14T12:56:58Z</time>
      </trkpt>
      <trkpt lat="-22.280716" lon="-46.230068">
        <ele>1044.959</ele>
        <time>2019-10-14T12:56:59Z</time>
      </trkpt>
      <trkpt lat="-22.280698" lon="-46.229977">
        <ele>1044.454</ele>
        <time>2019-10-14T12:57:02Z</time>
      </trkpt>
      <trkpt lat="-22.280683" lon="-46.229918">
        <ele>1044.680</ele>
        <time>2019-10-14T12:57:04Z</time>
      </trkpt>
      <trkpt lat="-22.280657" lon="-46.229849">
        <ele>1044.526</ele>
        <time>2019-10-14T12:57:05Z</time>
      </trkpt>
      <trkpt lat="-22.280626" lon="-46.229764">
        <ele>1044.947</ele>
        <time>2019-10-14T12:57:08Z</time>
      </trkpt>
      <trkpt lat="-22.280606" lon="-46.229684">
        <ele>1045.011</ele>
        <time>2019-10-14T12:57:09Z</time>
      </trkpt>
      <trkpt lat="-22.280590" lon="-46.229634">
        <ele>1045.008</ele>
        <time>2019-10-14T12:57:11Z</time>
      </trkpt>
      <trkpt lat="-22.280568" lon="-46.229573">
        <ele>1045.576</ele>
        <time>2019-10-14T12:57:13Z</time>
      </trkpt>
      <trkpt lat="-22.280548" lon="-46.229506">
        <ele>1045.584</ele>
        <time>2019-10-14T12:57:15Z</time>
      </trkpt>
      <trkpt lat="-22.280527" lon="-46.229450">
        <ele>1045.726</ele>
        <time>2019-10-14T12:57:17Z</time>
      </trkpt>
      <trkpt lat="-22.280496" lon="-46.229379">
        <ele>1045.858</ele>
        <time>2019-10-14T12:57:20Z</time>
      </trkpt>
      <trkpt lat="-22.280476" lon="-46.229331">
        <ele>1045.930</ele>
        <time>2019-10-14T12:57:21Z</time>
      </trkpt>
      <trkpt lat="-22.280454" lon="-46.229284">
        <ele>1045.533</ele>
        <time>2019-10-14T12:57:23Z</time>
      </trkpt>
      <trkpt lat="-22.280428" lon="-46.229236">
        <ele>1046.048</ele>
        <time>2019-10-14T12:57:25Z</time>
      </trkpt>
      <trkpt lat="-22.280393" lon="-46.229166">
        <ele>1046.074</ele>
        <time>2019-10-14T12:57:26Z</time>
      </trkpt>
      <trkpt lat="-22.280373" lon="-46.229122">
        <ele>1046.464</ele>
        <time>2019-10-14T12:57:28Z</time>
      </trkpt>
      <trkpt lat="-22.280320" lon="-46.229024">
        <ele>1046.506</ele>
        <time>2019-10-14T12:57:32Z</time>
      </trkpt>
      <trkpt lat="-22.280287" lon="-46.228984">
        <ele>1046.316</ele>
        <time>2019-10-14T12:57:34Z</time>
      </trkpt>
      <trkpt lat="-22.280256" lon="-46.228937">
        <ele>1046.108</ele>
        <time>2019-10-14T12:57:37Z</time>
      </trkpt>
      <trkpt lat="-22.280218" lon="-46.228882">
        <ele>1045.810</ele>
        <time>2019-10-14T12:57:39Z</time>
      </trkpt>
      <trkpt lat="-22.280179" lon="-46.228838">
        <ele>1045.888</ele>
        <time>2019-10-14T12:57:40Z</time>
      </trkpt>
      <trkpt lat="-22.280121" lon="-46.228775">
        <ele>1045.010</ele>
        <time>2019-10-14T12:57:43Z</time>
      </trkpt>
      <trkpt lat="-22.280078" lon="-46.228729">
        <ele>1044.772</ele>
        <time>2019-10-14T12:57:44Z</time>
      </trkpt>
      <trkpt lat="-22.280031" lon="-46.228683">
        <ele>1044.244</ele>
        <time>2019-10-14T12:57:46Z</time>
      </trkpt>
      <trkpt lat="-22.278816" lon="-46.225744">
        <ele>1027.767</ele>
        <time>2019-10-14T12:58:38Z</time>
      </trkpt>
      <trkpt lat="-22.278776" lon="-46.225554">
        <ele>1027.352</ele>
        <time>2019-10-14T13:01:04Z</time>
      </trkpt>
      <trkpt lat="-22.278768" lon="-46.225503">
        <ele>1026.768</ele>
        <time>2019-10-14T13:01:06Z</time>
      </trkpt>
      <trkpt lat="-22.278739" lon="-46.225408">
        <ele>1025.425</ele>
        <time>2019-10-14T13:01:09Z</time>
      </trkpt>
      <trkpt lat="-22.278722" lon="-46.225319">
        <ele>1024.526</ele>
        <time>2019-10-14T13:01:11Z</time>
      </trkpt>
      <trkpt lat="-22.277292" lon="-46.222414">
        <ele>1009.608</ele>
        <time>2019-10-14T13:02:04Z</time>
      </trkpt>
      <trkpt lat="-22.277261" lon="-46.222358">
        <ele>1010.008</ele>
        <time>2019-10-14T13:02:06Z</time>
      </trkpt>
      <trkpt lat="-22.277219" lon="-46.222295">
        <ele>1010.336</ele>
        <time>2019-10-14T13:02:08Z</time>
      </trkpt>
      <trkpt lat="-22.277183" lon="-46.222246">
        <ele>1010.614</ele>
        <time>2019-10-14T13:02:11Z</time>
      </trkpt>
      <trkpt lat="-22.277148" lon="-46.222194">
        <ele>1011.266</ele>
        <time>2019-10-14T13:02:12Z</time>
      </trkpt>
      <trkpt lat="-22.277093" lon="-46.222108">
        <ele>1012.528</ele>
        <time>2019-10-14T13:02:15Z</time>
      </trkpt>
      <trkpt lat="-22.277063" lon="-46.222054">
        <ele>1013.110</ele>
        <time>2019-10-14T13:02:17Z</time>
      </trkpt>
      <trkpt lat="-22.277051" lon="-46.221995">
        <ele>1014.063</ele>
        <time>2019-10-14T13:02:20Z</time>
      </trkpt>
      <trkpt lat="-22.277038" lon="-46.221933">
        <ele>1014.258</ele>
        <time>2019-10-14T13:02:22Z</time>
      </trkpt>
      <trkpt lat="-22.277031" lon="-46.221884">
        <ele>1014.864</ele>
        <time>2019-10-14T13:02:25Z</time>
      </trkpt>
      <trkpt lat="-22.277007" lon="-46.221789">
        <ele>1015.329</ele>
        <time>2019-10-14T13:02:29Z</time>
      </trkpt>
      <trkpt lat="-22.276989" lon="-46.221744">
        <ele>1015.300</ele>
        <time>2019-10-14T13:02:30Z</time>
      </trkpt>
      <trkpt lat="-22.276959" lon="-46.221680">
        <ele>1015.620</ele>
        <time>2019-10-14T13:02:33Z</time>
      </trkpt>
      <trkpt lat="-22.276934" lon="-46.221607">
        <ele>1016.208</ele>
        <time>2019-10-14T13:02:36Z</time>
      </trkpt>
      <trkpt lat="-22.276912" lon="-46.221540">
        <ele>1016.466</ele>
        <time>2019-10-14T13:02:39Z</time>
      </trkpt>
      <trkpt lat="-22.276890" lon="-46.221489">
        <ele>1016.884</ele>
        <time>2019-10-14T13:02:41Z</time>
      </trkpt>
      <trkpt lat="-22.276875" lon="-46.221422">
        <ele>1017.366</ele>
        <time>2019-10-14T13:02:44Z</time>
      </trkpt>
      <trkpt lat="-22.276859" lon="-46.221353">
        <ele>1017.548</ele>
        <time>2019-10-14T13:02:47Z</time>
      </trkpt>
      <trkpt lat="-22.276847" lon="-46.221297">
        <ele>1018.010</ele>
        <time>2019-10-14T13:02:50Z</time>
      </trkpt>
      <trkpt lat="-22.276821" lon="-46.221224">
        <ele>1018.533</ele>
        <time>2019-10-14T13:02:53Z</time>
      </trkpt>
      <trkpt lat="-22.276804" lon="-46.221166">
        <ele>1018.768</ele>
        <time>2019-10-14T13:02:56Z</time>
      </trkpt>
      <trkpt lat="-22.276784" lon="-46.221104">
        <ele>1019.324</ele>
        <time>2019-10-14T13:02:59Z</time>
      </trkpt>
      <trkpt lat="-22.276772" lon="-46.221053">
        <ele>1019.462</ele>
        <time>2019-10-14T13:03:02Z</time>
      </trkpt>
      <trkpt lat="-22.276756" lon="-46.220996">
        <ele>1020.383</ele>
        <time>2019-10-14T13:03:04Z</time>
      </trkpt>
      <trkpt lat="-22.276744" lon="-46.220944">
        <ele>1020.611</ele>
        <time>2019-10-14T13:03:07Z</time>
      </trkpt>
      <trkpt lat="-22.276734" lon="-46.220876">
        <ele>1021.308</ele>
        <time>2019-10-14T13:03:11Z</time>
      </trkpt>
      <trkpt lat="-22.276723" lon="-46.220828">
        <ele>1021.990</ele>
        <time>2019-10-14T13:03:13Z</time>
      </trkpt>
      <trkpt lat="-22.276715" lon="-46.220762">
        <ele>1022.358</ele>
        <time>2019-10-14T13:03:16Z</time>
      </trkpt>
      <trkpt lat="-22.276708" lon="-46.220703">
        <ele>1022.760</ele>
        <time>2019-10-14T13:03:20Z</time>
      </trkpt>
      <trkpt lat="-22.276693" lon="-46.220651">
        <ele>1023.372</ele>
        <time>2019-10-14T13:03:23Z</time>
      </trkpt>
      <trkpt lat="-22.276694" lon="-46.220601">
        <ele>1023.624</ele>
        <time>2019-10-14T13:03:25Z</time>
      </trkpt>
      <trkpt lat="-22.276685" lon="-46.220509">
        <ele>1024.597</ele>
        <time>2019-10-14T13:03:30Z</time>
      </trkpt>
      <trkpt lat="-22.276711" lon="-46.220406">
        <ele>1025.752</ele>
        <time>2019-10-14T13:03:36Z</time>
      </trkpt>
      <trkpt lat="-22.276727" lon="-46.220310">
        <ele>1026.438</ele>
        <time>2019-10-14T13:03:42Z</time>
      </trkpt>
      <trkpt lat="-22.276740" lon="-46.220220">
        <ele>1026.676</ele>
        <time>2019-10-14T13:03:47Z</time>
      </trkpt>
      <trkpt lat="-22.276748" lon="-46.220154">
        <ele>1027.190</ele>
        <time>2019-10-14T13:03:50Z</time>
      </trkpt>
      <trkpt lat="-22.276759" lon="-46.220100">
        <ele>1027.719</ele>
        <time>2019-10-14T13:03:52Z</time>
      </trkpt>
      <trkpt lat="-22.276764" lon="-46.220039">
        <ele>1027.508</ele>
        <time>2019-10-14T13:03:55Z</time>
      </trkpt>
      <trkpt lat="-22.276769" lon="-46.219987">
        <ele>1027.761</ele>
        <time>2019-10-14T13:03:58Z</time>
      </trkpt>
      <trkpt lat="-22.276789" lon="-46.219936">
        <ele>1028.129</ele>
        <time>2019-10-14T13:04:00Z</time>
      </trkpt>
      <trkpt lat="-22.276810" lon="-46.219889">
        <ele>1028.711</ele>
        <time>2019-10-14T13:04:03Z</time>
      </trkpt>
      <trkpt lat="-22.276831" lon="-46.219836">
        <ele>1029.173</ele>
        <time>2019-10-14T13:04:06Z</time>
      </trkpt>
      <trkpt lat="-22.276855" lon="-46.219785">
        <ele>1029.495</ele>
        <time>2019-10-14T13:04:08Z</time>
      </trkpt>
      <trkpt lat="-22.276883" lon="-46.219723">
        <ele>1029.848</ele>
        <time>2019-10-14T13:04:11Z</time>
      </trkpt>
      <trkpt lat="-22.276917" lon="-46.219669">
        <ele>1030.343</ele>
        <time>2019-10-14T13:04:14Z</time>
      </trkpt>
      <trkpt lat="-22.276936" lon="-46.219624">
        <ele>1030.919</ele>
        <time>2019-10-14T13:04:17Z</time>
      </trkpt>
      <trkpt lat="-22.276989" lon="-46.219539">
        <ele>1031.366</ele>
        <time>2019-10-14T13:04:22Z</time>
      </trkpt>
      <trkpt lat="-22.277019" lon="-46.219471">
        <ele>1031.529</ele>
        <time>2019-10-14T13:04:26Z</time>
      </trkpt>
      <trkpt lat="-22.277037" lon="-46.219424">
        <ele>1031.721</ele>
        <time>2019-10-14T13:04:28Z</time>
      </trkpt>
      <trkpt lat="-22.277061" lon="-46.219373">
        <ele>1032.008</ele>
        <time>2019-10-14T13:04:31Z</time>
      </trkpt>
      <trkpt lat="-22.277091" lon="-46.219317">
        <ele>1032.380</ele>
        <time>2019-10-14T13:04:34Z</time>
      </trkpt>
      <trkpt lat="-22.277116" lon="-46.219265">
        <ele>1032.468</ele>
        <time>2019-10-14T13:04:36Z</time>
      </trkpt>
      <trkpt lat="-22.277137" lon="-46.219217">
        <ele>1032.560</ele>
        <time>2019-10-14T13:04:39Z</time>
      </trkpt>
      <trkpt lat="-22.277162" lon="-46.219159">
        <ele>1033.092</ele>
        <time>2019-10-14T13:04:41Z</time>
      </trkpt>
      <trkpt lat="-22.277184" lon="-46.219115">
        <ele>1033.434</ele>
        <time>2019-10-14T13:04:44Z</time>
      </trkpt>
      <trkpt lat="-22.277213" lon="-46.219064">
        <ele>1033.197</ele>
        <time>2019-10-14T13:04:46Z</time>
      </trkpt>
      <trkpt lat="-22.277254" lon="-46.219015">
        <ele>1033.012</ele>
        <time>2019-10-14T13:04:49Z</time>
      </trkpt>
      <trkpt lat="-22.277286" lon="-46.218954">
        <ele>1032.538</ele>
        <time>2019-10-14T13:04:51Z</time>
      </trkpt>
      <trkpt lat="-22.277993" lon="-46.216895">
        <ele>1024.452</ele>
        <time>2019-10-14T13:05:27Z</time>
      </trkpt>
      <trkpt lat="-22.278042" lon="-46.216820">
        <ele>1025.853</ele>
        <time>2019-10-14T13:05:31Z</time>
      </trkpt>
      <trkpt lat="-22.278073" lon="-46.216779">
        <ele>1026.508</ele>
        <time>2019-10-14T13:05:33Z</time>
      </trkpt>
      <trkpt lat="-22.278118" lon="-46.216706">
        <ele>1026.908</ele>
        <time>2019-10-14T13:05:37Z</time>
      </trkpt>
      <trkpt lat="-22.278148" lon="-46.216658">
        <ele>1027.799</ele>
        <time>2019-10-14T13:05:40Z</time>
      </trkpt>
      <trkpt lat="-22.278179" lon="-46.216616">
        <ele>1028.127</ele>
        <time>2019-10-14T13:05:44Z</time>
      </trkpt>
      <trkpt lat="-22.278202" lon="-46.216569">
        <ele>1029.219</ele>
        <time>2019-10-14T13:05:48Z</time>
      </trkpt>
      <trkpt lat="-22.278237" lon="-46.216515">
        <ele>1030.041</ele>
        <time>2019-10-14T13:05:53Z</time>
      </trkpt>
      <trkpt lat="-22.278267" lon="-46.216469">
        <ele>1030.723</ele>
        <time>2019-10-14T13:05:56Z</time>
      </trkpt>
      <trkpt lat="-22.278287" lon="-46.216423">
        <ele>1032.836</ele>
        <time>2019-10-14T13:06:05Z</time>
      </trkpt>
      <trkpt lat="-22.278307" lon="-46.216371">
        <ele>1034.121</ele>
        <time>2019-10-14T13:06:12Z</time>
      </trkpt>
      <trkpt lat="-22.278325" lon="-46.216312">
        <ele>1034.957</ele>
        <time>2019-10-14T13:06:19Z</time>
      </trkpt>
      <trkpt lat="-22.278345" lon="-46.216243">
        <ele>1036.075</ele>
        <time>2019-10-14T13:06:25Z</time>
      </trkpt>
      <trkpt lat="-22.278372" lon="-46.216130">
        <ele>1038.428</ele>
        <time>2019-10-14T13:06:38Z</time>
      </trkpt>
      <trkpt lat="-22.278389" lon="-46.216034">
        <ele>1039.220</ele>
        <time>2019-10-14T13:06:43Z</time>
      </trkpt>
      <trkpt lat="-22.278419" lon="-46.215920">
        <ele>1040.408</ele>
        <time>2019-10-14T13:06:50Z</time>
      </trkpt>
      <trkpt lat="-22.278423" lon="-46.215862">
        <ele>1040.681</ele>
        <time>2019-10-14T13:06:52Z</time>
      </trkpt>
      <trkpt lat="-22.278429" lon="-46.215811">
        <ele>1040.569</ele>
        <time>2019-10-14T13:06:53Z</time>
      </trkpt>
      <trkpt lat="-22.278435" lon="-46.215762">
        <ele>1041.131</ele>
        <time>2019-10-14T13:06:56Z</time>
      </trkpt>
      <trkpt lat="-22.278449" lon="-46.215675">
        <ele>1041.413</ele>
        <time>2019-10-14T13:07:02Z</time>
      </trkpt>
      <trkpt lat="-22.278464" lon="-46.215614">
        <ele>1041.185</ele>
        <time>2019-10-14T13:07:04Z</time>
      </trkpt>
      <trkpt lat="-22.278468" lon="-46.215557">
        <ele>1040.948</ele>
        <time>2019-10-14T13:07:07Z</time>
      </trkpt>
      <trkpt lat="-22.278479" lon="-46.215484">
        <ele>1040.273</ele>
        <time>2019-10-14T13:07:09Z</time>
      </trkpt>
      <trkpt lat="-22.278491" lon="-46.215428">
        <ele>1039.759</ele>
        <time>2019-10-14T13:07:11Z</time>
      </trkpt>
      <trkpt lat="-22.278510" lon="-46.215372">
        <ele>1039.678</ele>
        <time>2019-10-14T13:07:12Z</time>
      </trkpt>
      <trkpt lat="-22.278530" lon="-46.215305">
        <ele>1039.233</ele>
        <time>2019-10-14T13:07:14Z</time>
      </trkpt>
      <trkpt lat="-22.278544" lon="-46.215244">
        <ele>1038.626</ele>
        <time>2019-10-14T13:07:16Z</time>
      </trkpt>
      <trkpt lat="-22.278558" lon="-46.215183">
        <ele>1037.708</ele>
        <time>2019-10-14T13:07:18Z</time>
      </trkpt>
      <trkpt lat="-22.278209" lon="-46.203845">
        <ele>917.651</ele>
        <time>2019-10-14T13:09:26Z</time>
      </trkpt>
      <trkpt lat="-22.278167" lon="-46.203732">
        <ele>918.359</ele>
        <time>2019-10-14T13:09:31Z</time>
      </trkpt>
      <trkpt lat="-22.278145" lon="-46.203668">
        <ele>918.251</ele>
        <time>2019-10-14T13:09:32Z</time>
      </trkpt>
      <trkpt lat="-22.278137" lon="-46.203610">
        <ele>918.333</ele>
        <time>2019-10-14T13:09:34Z</time>
      </trkpt>
      <trkpt lat="-22.278137" lon="-46.203610">
        <ele>918.385</ele>
        <time>2019-10-14T13:09:34Z</time>
      </trkpt>
      <trkpt lat="-22.278121" lon="-46.203538">
        <ele>918.068</ele>
        <time>2019-10-14T13:09:36Z</time>
      </trkpt>
      <trkpt lat="-22.278109" lon="-46.203444">
        <ele>918.173</ele>
        <time>2019-10-14T13:09:39Z</time>
      </trkpt>
      <trkpt lat="-22.278107" lon="-46.203383">
        <ele>918.199</ele>
        <time>2019-10-14T13:09:40Z</time>
      </trkpt>
      <trkpt lat="-22.278113" lon="-46.203326">
        <ele>918.031</ele>
        <time>2019-10-14T13:09:42Z</time>
      </trkpt>
      <trkpt lat="-22.278117" lon="-46.203257">
        <ele>918.261</ele>
        <time>2019-10-14T13:09:44Z</time>
      </trkpt>
      <trkpt lat="-22.278126" lon="-46.203194">
        <ele>918.607</ele>
        <time>2019-10-14T13:09:46Z</time>
      </trkpt>
      <trkpt lat="-22.278130" lon="-46.203133">
        <ele>918.908</ele>
        <time>2019-10-14T13:09:49Z</time>
      </trkpt>
      <trkpt lat="-22.278135" lon="-46.203077">
        <ele>918.857</ele>
        <time>2019-10-14T13:09:50Z</time>
      </trkpt>
      <trkpt lat="-22.278137" lon="-46.203002">
        <ele>918.185</ele>
        <time>2019-10-14T13:09:53Z</time>
      </trkpt>
      <trkpt lat="-22.278139" lon="-46.202949">
        <ele>917.777</ele>
        <time>2019-10-14T13:09:54Z</time>
      </trkpt>
      <trkpt lat="-22.278147" lon="-46.202873">
        <ele>916.829</ele>
        <time>2019-10-14T13:09:56Z</time>
      </trkpt>
      <trkpt lat="-22.278145" lon="-46.202758">
        <ele>916.331</ele>
        <time>2019-10-14T13:09:58Z</time>
      </trkpt>
      <trkpt lat="-22.277066" lon="-46.195823">
        <ele>896.794</ele>
        <time>2019-10-14T13:12:03Z</time>
      </trkpt>
      <trkpt lat="-22.277075" lon="-46.195760">
        <ele>897.869</ele>
        <time>2019-10-14T13:12:08Z</time>
      </trkpt>
      <trkpt lat="-22.277063" lon="-46.195708">
        <ele>898.695</ele>
        <time>2019-10-14T13:12:13Z</time>
      </trkpt>
      <trkpt lat="-22.277034" lon="-46.195654">
        <ele>899.955</ele>
        <time>2019-10-14T13:12:19Z</time>
      </trkpt>
      <trkpt lat="-22.276981" lon="-46.195603">
        <ele>900.807</ele>
        <time>2019-10-14T13:12:25Z</time>
      </trkpt>
      <trkpt lat="-22.276949" lon="-46.195564">
        <ele>901.317</ele>
        <time>2019-10-14T13:12:29Z</time>
      </trkpt>
      <trkpt lat="-22.276905" lon="-46.195516">
        <ele>901.808</ele>
        <time>2019-10-14T13:12:34Z</time>
      </trkpt>
      <trkpt lat="-22.276869" lon="-46.195480">
        <ele>902.389</ele>
        <time>2019-10-14T13:12:38Z</time>
      </trkpt>
      <trkpt lat="-22.276830" lon="-46.195445">
        <ele>902.687</ele>
        <time>2019-10-14T13:12:42Z</time>
      </trkpt>
      <trkpt lat="-22.276788" lon="-46.195393">
        <ele>902.919</ele>
        <time>2019-10-14T13:12:43Z</time>
      </trkpt>
      <trkpt lat="-22.276744" lon="-46.195334">
        <ele>902.851</ele>
        <time>2019-10-14T13:12:45Z</time>
      </trkpt>
      <trkpt lat="-22.276712" lon="-46.195289">
        <ele>903.343</ele>
        <time>2019-10-14T13:12:49Z</time>
      </trkpt>
      <trkpt lat="-22.276677" lon="-46.195227">
        <ele>903.966</ele>
        <time>2019-10-14T13:12:53Z</time>
      </trkpt>
      <trkpt lat="-22.276636" lon="-46.195172">
        <ele>903.871</ele>
        <time>2019-10-14T13:12:56Z</time>
      </trkpt>
      <trkpt lat="-22.276590" lon="-46.195121">
        <ele>904.147</ele>
        <time>2019-10-14T13:12:59Z</time>
      </trkpt>
      <trkpt lat="-22.276558" lon="-46.195081">
        <ele>904.356</ele>
        <time>2019-10-14T13:13:02Z</time>
      </trkpt>
      <trkpt lat="-22.276521" lon="-46.195042">
        <ele>905.159</ele>
        <time>2019-10-14T13:13:06Z</time>
      </trkpt>
      <trkpt lat="-22.276489" lon="-46.194998">
        <ele>905.414</ele>
        <time>2019-10-14T13:13:09Z</time>
      </trkpt>
      <trkpt lat="-22.276458" lon="-46.194954">
        <ele>906.208</ele>
        <time>2019-10-14T13:13:16Z</time>
      </trkpt>
      <trkpt lat="-22.276426" lon="-46.194906">
        <ele>906.929</ele>
        <time>2019-10-14T13:13:21Z</time>
      </trkpt>
      <trkpt lat="-22.276390" lon="-46.194869">
        <ele>907.587</ele>
        <time>2019-10-14T13:13:27Z</time>
      </trkpt>
      <trkpt lat="-22.276352" lon="-46.194832">
        <ele>908.139</ele>
        <time>2019-10-14T13:13:31Z</time>
      </trkpt>
      <trkpt lat="-22.276319" lon="-46.194797">
        <ele>909.151</ele>
        <time>2019-10-14T13:13:36Z</time>
      </trkpt>
      <trkpt lat="-22.276285" lon="-46.194764">
        <ele>909.563</ele>
        <time>2019-10-14T13:13:39Z</time>
      </trkpt>
      <trkpt lat="-22.276211" lon="-46.194688">
        <ele>911.346</ele>
        <time>2019-10-14T13:13:51Z</time>
      </trkpt>
      <trkpt lat="-22.276167" lon="-46.194639">
        <ele>912.071</ele>
        <time>2019-10-14T13:13:55Z</time>
      </trkpt>
      <trkpt lat="-22.276122" lon="-46.194581">
        <ele>913.357</ele>
        <time>2019-10-14T13:14:02Z</time>
      </trkpt>
      <trkpt lat="-22.276090" lon="-46.194536">
        <ele>914.215</ele>
        <time>2019-10-14T13:14:06Z</time>
      </trkpt>
      <trkpt lat="-22.276051" lon="-46.194485">
        <ele>914.565</ele>
        <time>2019-10-14T13:14:07Z</time>
      </trkpt>
      <trkpt lat="-22.276010" lon="-46.194432">
        <ele>915.011</ele>
        <time>2019-10-14T13:14:09Z</time>
      </trkpt>
      <trkpt lat="-22.275971" lon="-46.194381">
        <ele>917.108</ele>
        <time>2019-10-14T13:14:18Z</time>
      </trkpt>
      <trkpt lat="-22.275896" lon="-46.194275">
        <ele>920.255</ele>
        <time>2019-10-14T13:14:35Z</time>
      </trkpt>
      <trkpt lat="-22.275863" lon="-46.194226">
        <ele>921.643</ele>
        <time>2019-10-14T13:14:44Z</time>
      </trkpt>
      <trkpt lat="-22.275827" lon="-46.194177">
        <ele>922.585</ele>
        <time>2019-10-14T13:14:50Z</time>
      </trkpt>
      <trkpt lat="-22.275796" lon="-46.194137">
        <ele>923.667</ele>
        <time>2019-10-14T13:14:57Z</time>
      </trkpt>
      <trkpt lat="-22.275754" lon="-46.194085">
        <ele>924.239</ele>
        <time>2019-10-14T13:15:01Z</time>
      </trkpt>
      <trkpt lat="-22.275721" lon="-46.194041">
        <ele>924.512</ele>
        <time>2019-10-14T13:15:02Z</time>
      </trkpt>
      <trkpt lat="-22.275689" lon="-46.194000">
        <ele>924.727</ele>
        <time>2019-10-14T13:15:03Z</time>
      </trkpt>
      <trkpt lat="-22.275651" lon="-46.193958">
        <ele>925.463</ele>
        <time>2019-10-14T13:15:08Z</time>
      </trkpt>
      <trkpt lat="-22.275613" lon="-46.193899">
        <ele>926.753</ele>
        <time>2019-10-14T13:15:18Z</time>
      </trkpt>
      <trkpt lat="-22.275580" lon="-46.193853">
        <ele>927.304</ele>
        <time>2019-10-14T13:15:24Z</time>
      </trkpt>
      <trkpt lat="-22.275536" lon="-46.193803">
        <ele>927.414</ele>
        <time>2019-10-14T13:15:29Z</time>
      </trkpt>
      <trkpt lat="-22.275487" lon="-46.193753">
        <ele>927.408</ele>
        <time>2019-10-14T13:15:31Z</time>
      </trkpt>
      <trkpt lat="-22.275433" lon="-46.193694">
        <ele>927.659</ele>
        <time>2019-10-14T13:15:32Z</time>
      </trkpt>
      <trkpt lat="-22.275387" lon="-46.193652">
        <ele>927.727</ele>
        <time>2019-10-14T13:15:34Z</time>
      </trkpt>
      <trkpt lat="-22.275355" lon="-46.193605">
        <ele>928.159</ele>
        <time>2019-10-14T13:15:37Z</time>
      </trkpt>
      <trkpt lat="-22.275323" lon="-46.193565">
        <ele>928.291</ele>
        <time>2019-10-14T13:15:40Z</time>
      </trkpt>
      <trkpt lat="-22.275287" lon="-46.193528">
        <ele>928.333</ele>
        <time>2019-10-14T13:15:41Z</time>
      </trkpt>
      <trkpt lat="-22.275242" lon="-46.193482">
        <ele>928.786</ele>
        <time>2019-10-14T13:15:44Z</time>
      </trkpt>
      <trkpt lat="-22.275209" lon="-46.193443">
        <ele>929.311</ele>
        <time>2019-10-14T13:15:48Z</time>
      </trkpt>
      <trkpt lat="-22.275171" lon="-46.193412">
        <ele>929.487</ele>
        <time>2019-10-14T13:15:49Z</time>
      </trkpt>
      <trkpt lat="-22.275134" lon="-46.193377">
        <ele>929.998</ele>
        <time>2019-10-14T13:15:52Z</time>
      </trkpt>
      <trkpt lat="-22.275095" lon="-46.193331">
        <ele>930.015</ele>
        <time>2019-10-14T13:15:55Z</time>
      </trkpt>
      <trkpt lat="-22.275052" lon="-46.193286">
        <ele>929.926</ele>
        <time>2019-10-14T13:15:57Z</time>
      </trkpt>
      <trkpt lat="-22.274992" lon="-46.193214">
        <ele>929.508</ele>
        <time>2019-10-14T13:16:02Z</time>
      </trkpt>
      <trkpt lat="-22.274963" lon="-46.193144">
        <ele>928.323</ele>
        <time>2019-10-14T13:16:04Z</time>
      </trkpt>
      <trkpt lat="-22.275046" lon="-46.191688">
        <ele>925.881</ele>
        <time>2019-10-14T13:16:33Z</time>
      </trkpt>
      <trkpt lat="-22.275068" lon="-46.191598">
        <ele>925.583</ele>
        <time>2019-10-14T13:16:35Z</time>
      </trkpt>
      <trkpt lat="-22.275071" lon="-46.191545">
        <ele>925.225</ele>
        <time>2019-10-14T13:16:37Z</time>
      </trkpt>
      <trkpt lat="-22.275065" lon="-46.191474">
        <ele>925.067</ele>
        <time>2019-10-14T13:16:39Z</time>
      </trkpt>
      <trkpt lat="-22.275066" lon="-46.191405">
        <ele>925.450</ele>
        <time>2019-10-14T13:16:40Z</time>
      </trkpt>
      <trkpt lat="-22.275073" lon="-46.191253">
        <ele>924.775</ele>
        <time>2019-10-14T13:16:44Z</time>
      </trkpt>
      <trkpt lat="-22.274926" lon="-46.189708">
        <ele>925.591</ele>
        <time>2019-10-14T13:17:19Z</time>
      </trkpt>
      <trkpt lat="-22.274895" lon="-46.189664">
        <ele>926.043</ele>
        <time>2019-10-14T13:17:20Z</time>
      </trkpt>
      <trkpt lat="-22.274853" lon="-46.189621">
        <ele>926.364</ele>
        <time>2019-10-14T13:17:23Z</time>
      </trkpt>
      <trkpt lat="-22.274750" lon="-46.189547">
        <ele>926.710</ele>
        <time>2019-10-14T13:17:26Z</time>
      </trkpt>
      <trkpt lat="-22.274705" lon="-46.189514">
        <ele>926.608</ele>
        <time>2019-10-14T13:17:28Z</time>
      </trkpt>
      <trkpt lat="-22.274658" lon="-46.189489">
        <ele>926.668</ele>
        <time>2019-10-14T13:17:29Z</time>
      </trkpt>
      <trkpt lat="-22.274589" lon="-46.189448">
        <ele>926.416</ele>
        <time>2019-10-14T13:17:31Z</time>
      </trkpt>
      <trkpt lat="-22.274473" lon="-46.189378">
        <ele>926.658</ele>
        <time>2019-10-14T13:17:35Z</time>
      </trkpt>
      <trkpt lat="-22.274415" lon="-46.189334">
        <ele>926.950</ele>
        <time>2019-10-14T13:17:37Z</time>
      </trkpt>
      <trkpt lat="-22.274344" lon="-46.189282">
        <ele>927.042</ele>
        <time>2019-10-14T13:17:40Z</time>
      </trkpt>
      <trkpt lat="-22.274285" lon="-46.189229">
        <ele>926.775</ele>
        <time>2019-10-14T13:17:41Z</time>
      </trkpt>
      <trkpt lat="-22.274242" lon="-46.189187">
        <ele>926.820</ele>
        <time>2019-10-14T13:17:43Z</time>
      </trkpt>
      <trkpt lat="-22.274184" lon="-46.189140">
        <ele>927.186</ele>
        <time>2019-10-14T13:17:46Z</time>
      </trkpt>
      <trkpt lat="-22.274128" lon="-46.189091">
        <ele>927.423</ele>
        <time>2019-10-14T13:17:48Z</time>
      </trkpt>
      <trkpt lat="-22.274082" lon="-46.189046">
        <ele>927.783</ele>
        <time>2019-10-14T13:17:49Z</time>
      </trkpt>
      <trkpt lat="-22.274032" lon="-46.188997">
        <ele>927.911</ele>
        <time>2019-10-14T13:17:51Z</time>
      </trkpt>
      <trkpt lat="-22.273988" lon="-46.188957">
        <ele>927.308</ele>
        <time>2019-10-14T13:17:54Z</time>
      </trkpt>
      <trkpt lat="-22.273947" lon="-46.188928">
        <ele>927.156</ele>
        <time>2019-10-14T13:17:55Z</time>
      </trkpt>
      <trkpt lat="-22.273904" lon="-46.188895">
        <ele>926.384</ele>
        <time>2019-10-14T13:17:57Z</time>
      </trkpt>
      <trkpt lat="-22.273831" lon="-46.188817">
        <ele>925.026</ele>
        <time>2019-10-14T13:18:00Z</time>
      </trkpt>
      <trkpt lat="-22.272649" lon="-46.186460">
        <ele>916.088</ele>
        <time>2019-10-14T13:18:39Z</time>
      </trkpt>
      <trkpt lat="-22.272617" lon="-46.186418">
        <ele>915.630</ele>
        <time>2019-10-14T13:18:40Z</time>
      </trkpt>
      <trkpt lat="-22.272528" lon="-46.186337">
        <ele>914.493</ele>
        <time>2019-10-14T13:18:44Z</time>
      </trkpt>
      <trkpt lat="-22.273357" lon="-46.183333">
        <ele>888.238</ele>
        <time>2019-10-14T13:19:37Z</time>
      </trkpt>
      <trkpt lat="-22.273371" lon="-46.183251">
        <ele>889.834</ele>
        <time>2019-10-14T13:19:42Z</time>
      </trkpt>
      <trkpt lat="-22.273385" lon="-46.183204">
        <ele>890.511</ele>
        <time>2019-10-14T13:19:45Z</time>
      </trkpt>
      <trkpt lat="-22.273399" lon="-46.183145">
        <ele>891.621</ele>
        <time>2019-10-14T13:19:48Z</time>
      </trkpt>
      <trkpt lat="-22.273420" lon="-46.183100">
        <ele>892.303</ele>
        <time>2019-10-14T13:19:53Z</time>
      </trkpt>
      <trkpt lat="-22.273439" lon="-46.183052">
        <ele>893.008</ele>
        <time>2019-10-14T13:19:58Z</time>
      </trkpt>
      <trkpt lat="-22.273452" lon="-46.182999">
        <ele>895.395</ele>
        <time>2019-10-14T13:20:08Z</time>
      </trkpt>
      <trkpt lat="-22.273469" lon="-46.182925">
        <ele>897.893</ele>
        <time>2019-10-14T13:20:25Z</time>
      </trkpt>
      <trkpt lat="-22.273488" lon="-46.182863">
        <ele>899.135</ele>
        <time>2019-10-14T13:20:31Z</time>
      </trkpt>
      <trkpt lat="-22.273533" lon="-46.182666">
        <ele>902.787</ele>
        <time>2019-10-14T13:20:55Z</time>
      </trkpt>
      <trkpt lat="-22.273561" lon="-46.182600">
        <ele>905.469</ele>
        <time>2019-10-14T13:21:06Z</time>
      </trkpt>
      <trkpt lat="-22.273577" lon="-46.182538">
        <ele>905.752</ele>
        <time>2019-10-14T13:21:09Z</time>
      </trkpt>
      <trkpt lat="-22.273606" lon="-46.182456">
        <ele>905.957</ele>
        <time>2019-10-14T13:21:12Z</time>
      </trkpt>
      <trkpt lat="-22.273622" lon="-46.182398">
        <ele>906.163</ele>
        <time>2019-10-14T13:21:14Z</time>
      </trkpt>
      <trkpt lat="-22.273661" lon="-46.182268">
        <ele>906.161</ele>
        <time>2019-10-14T13:21:17Z</time>
      </trkpt>
      <trkpt lat="-22.273676" lon="-46.182220">
        <ele>906.021</ele>
        <time>2019-10-14T13:21:18Z</time>
      </trkpt>
      <trkpt lat="-22.273696" lon="-46.182165">
        <ele>905.713</ele>
        <time>2019-10-14T13:21:20Z</time>
      </trkpt>
      <trkpt lat="-22.273718" lon="-46.182117">
        <ele>905.508</ele>
        <time>2019-10-14T13:21:21Z</time>
      </trkpt>
      <trkpt lat="-22.273750" lon="-46.182061">
        <ele>905.110</ele>
        <time>2019-10-14T13:21:23Z</time>
      </trkpt>
      <trkpt lat="-22.273790" lon="-46.181993">
        <ele>904.548</ele>
        <time>2019-10-14T13:21:26Z</time>
      </trkpt>
      <trkpt lat="-22.273842" lon="-46.181934">
        <ele>904.540</ele>
        <time>2019-10-14T13:21:28Z</time>
      </trkpt>
      <trkpt lat="-22.273878" lon="-46.181891">
        <ele>904.282</ele>
        <time>2019-10-14T13:21:29Z</time>
      </trkpt>
      <trkpt lat="-22.273914" lon="-46.181826">
        <ele>904.174</ele>
        <time>2019-10-14T13:21:31Z</time>
      </trkpt>
      <trkpt lat="-22.273942" lon="-46.181781">
        <ele>903.887</ele>
        <time>2019-10-14T13:21:33Z</time>
      </trkpt>
      <trkpt lat="-22.273981" lon="-46.181726">
        <ele>903.632</ele>
        <time>2019-10-14T13:21:34Z</time>
      </trkpt>
      <trkpt lat="-22.277537" lon="-46.174814">
        <ele>849.668</ele>
        <time>2019-10-14T13:24:01Z</time>
      </trkpt>
      <trkpt lat="-22.277600" lon="-46.174795">
        <ele>850.261</ele>
        <time>2019-10-14T13:24:04Z</time>
      </trkpt>
      <trkpt lat="-22.277654" lon="-46.174782">
        <ele>850.721</ele>
        <time>2019-10-14T13:24:05Z</time>
      </trkpt>
      <trkpt lat="-22.277737" lon="-46.174755">
        <ele>851.813</ele>
        <time>2019-10-14T13:24:10Z</time>
      </trkpt>
      <trkpt lat="-22.277819" lon="-46.174719">
        <ele>852.908</ele>
        <time>2019-10-14T13:24:14Z</time>
      </trkpt>
      <trkpt lat="-22.277866" lon="-46.174707">
        <ele>854.520</ele>
        <time>2019-10-14T13:24:18Z</time>
      </trkpt>
      <trkpt lat="-22.277940" lon="-46.174695">
        <ele>854.638</ele>
        <time>2019-10-14T13:24:21Z</time>
      </trkpt>
      <trkpt lat="-22.278014" lon="-46.174676">
        <ele>854.420</ele>
        <time>2019-10-14T13:24:24Z</time>
      </trkpt>
      <trkpt lat="-22.278068" lon="-46.174649">
        <ele>854.482</ele>
        <time>2019-10-14T13:24:26Z</time>
      </trkpt>
      <trkpt lat="-22.278109" lon="-46.174625">
        <ele>854.224</ele>
        <time>2019-10-14T13:24:28Z</time>
      </trkpt>
      <trkpt lat="-22.278159" lon="-46.174599">
        <ele>854.237</ele>
        <time>2019-10-14T13:24:31Z</time>
      </trkpt>
      <trkpt lat="-22.278211" lon="-46.174572">
        <ele>854.462</ele>
        <time>2019-10-14T13:24:33Z</time>
      </trkpt>
      <trkpt lat="-22.278254" lon="-46.174549">
        <ele>854.668</ele>
        <time>2019-10-14T13:24:34Z</time>
      </trkpt>
      <trkpt lat="-22.278301" lon="-46.174516">
        <ele>854.526</ele>
        <time>2019-10-14T13:24:37Z</time>
      </trkpt>
      <trkpt lat="-22.278342" lon="-46.174480">
        <ele>854.347</ele>
        <time>2019-10-14T13:24:39Z</time>
      </trkpt>
      <trkpt lat="-22.278363" lon="-46.174428">
        <ele>854.111</ele>
        <time>2019-10-14T13:24:43Z</time>
      </trkpt>
      <trkpt lat="-22.278326" lon="-46.174357">
        <ele>854.108</ele>
        <time>2019-10-14T13:24:46Z</time>
      </trkpt>
      <trkpt lat="-22.278295" lon="-46.174322">
        <ele>854.126</ele>
        <time>2019-10-14T13:24:48Z</time>
      </trkpt>
      <trkpt lat="-22.278263" lon="-46.174280">
        <ele>854.264</ele>
        <time>2019-10-14T13:24:49Z</time>
      </trkpt>
      <trkpt lat="-22.278228" lon="-46.174229">
        <ele>854.196</ele>
        <time>2019-10-14T13:24:51Z</time>
      </trkpt>
      <trkpt lat="-22.278182" lon="-46.174168">
        <ele>853.888</ele>
        <time>2019-10-14T13:24:54Z</time>
      </trkpt>
      <trkpt lat="-22.278148" lon="-46.174119">
        <ele>853.450</ele>
        <time>2019-10-14T13:24:56Z</time>
      </trkpt>
      <trkpt lat="-22.278118" lon="-46.174076">
        <ele>854.083</ele>
        <time>2019-10-14T13:24:58Z</time>
      </trkpt>
      <trkpt lat="-22.278072" lon="-46.173997">
        <ele>853.718</ele>
        <time>2019-10-14T13:25:00Z</time>
      </trkpt>
      <trkpt lat="-22.278047" lon="-46.173954">
        <ele>854.224</ele>
        <time>2019-10-14T13:25:02Z</time>
      </trkpt>
      <trkpt lat="-22.278015" lon="-46.173902">
        <ele>854.272</ele>
        <time>2019-10-14T13:25:04Z</time>
      </trkpt>
      <trkpt lat="-22.277990" lon="-46.173860">
        <ele>854.013</ele>
        <time>2019-10-14T13:25:06Z</time>
      </trkpt>
      <trkpt lat="-22.277952" lon="-46.173814">
        <ele>854.714</ele>
        <time>2019-10-14T13:25:08Z</time>
      </trkpt>
      <trkpt lat="-22.277921" lon="-46.173778">
        <ele>854.508</ele>
        <time>2019-10-14T13:25:09Z</time>
      </trkpt>
      <trkpt lat="-22.277892" lon="-46.173740">
        <ele>854.621</ele>
        <time>2019-10-14T13:25:11Z</time>
      </trkpt>
      <trkpt lat="-22.277866" lon="-46.173699">
        <ele>854.649</ele>
        <time>2019-10-14T13:25:13Z</time>
      </trkpt>
      <trkpt lat="-22.277822" lon="-46.173640">
        <ele>854.921</ele>
        <time>2019-10-14T13:25:16Z</time>
      </trkpt>
      <trkpt lat="-22.277783" lon="-46.173585">
        <ele>855.433</ele>
        <time>2019-10-14T13:25:18Z</time>
      </trkpt>
      <trkpt lat="-22.277751" lon="-46.173533">
        <ele>855.555</ele>
        <time>2019-10-14T13:25:21Z</time>
      </trkpt>
      <trkpt lat="-22.277731" lon="-46.173477">
        <ele>855.328</ele>
        <time>2019-10-14T13:25:23Z</time>
      </trkpt>
      <trkpt lat="-22.277704" lon="-46.173429">
        <ele>855.563</ele>
        <time>2019-10-14T13:25:24Z</time>
      </trkpt>
      <trkpt lat="-22.277663" lon="-46.173379">
        <ele>855.499</ele>
        <time>2019-10-14T13:25:27Z</time>
      </trkpt>
      <trkpt lat="-22.277620" lon="-46.173306">
        <ele>855.682</ele>
        <time>2019-10-14T13:25:29Z</time>
      </trkpt>
      <trkpt lat="-22.277587" lon="-46.173253">
        <ele>856.043</ele>
        <time>2019-10-14T13:25:31Z</time>
      </trkpt>
      <trkpt lat="-22.277553" lon="-46.173197">
        <ele>855.917</ele>
        <time>2019-10-14T13:25:34Z</time>
      </trkpt>
      <trkpt lat="-22.277528" lon="-46.173150">
        <ele>856.008</ele>
        <time>2019-10-14T13:25:35Z</time>
      </trkpt>
      <trkpt lat="-22.277491" lon="-46.173096">
        <ele>855.912</ele>
        <time>2019-10-14T13:25:37Z</time>
      </trkpt>
      <trkpt lat="-22.277458" lon="-46.173046">
        <ele>856.440</ele>
        <time>2019-10-14T13:25:40Z</time>
      </trkpt>
      <trkpt lat="-22.277424" lon="-46.172998">
        <ele>856.412</ele>
        <time>2019-10-14T13:25:42Z</time>
      </trkpt>
      <trkpt lat="-22.277395" lon="-46.172951">
        <ele>856.314</ele>
        <time>2019-10-14T13:25:44Z</time>
      </trkpt>
      <trkpt lat="-22.277356" lon="-46.172889">
        <ele>856.856</ele>
        <time>2019-10-14T13:25:46Z</time>
      </trkpt>
      <trkpt lat="-22.277323" lon="-46.172849">
        <ele>857.099</ele>
        <time>2019-10-14T13:25:49Z</time>
      </trkpt>
      <trkpt lat="-22.277285" lon="-46.172789">
        <ele>857.624</ele>
        <time>2019-10-14T13:25:52Z</time>
      </trkpt>
      <trkpt lat="-22.277252" lon="-46.172747">
        <ele>858.440</ele>
        <time>2019-10-14T13:25:53Z</time>
      </trkpt>
      <trkpt lat="-22.277215" lon="-46.172699">
        <ele>858.818</ele>
        <time>2019-10-14T13:25:56Z</time>
      </trkpt>
      <trkpt lat="-22.277185" lon="-46.172653">
        <ele>859.598</ele>
        <time>2019-10-14T13:25:58Z</time>
      </trkpt>
      <trkpt lat="-22.277164" lon="-46.172604">
        <ele>859.217</ele>
        <time>2019-10-14T13:26:00Z</time>
      </trkpt>
      <trkpt lat="-22.277135" lon="-46.172543">
        <ele>858.408</ele>
        <time>2019-10-14T13:26:03Z</time>
      </trkpt>
      <trkpt lat="-22.277109" lon="-46.172496">
        <ele>858.475</ele>
        <time>2019-10-14T13:26:05Z</time>
      </trkpt>
      <trkpt lat="-22.277079" lon="-46.172444">
        <ele>858.153</ele>
        <time>2019-10-14T13:26:07Z</time>
      </trkpt>
      <trkpt lat="-22.277042" lon="-46.172377">
        <ele>858.175</ele>
        <time>2019-10-14T13:26:09Z</time>
      </trkpt>
      <trkpt lat="-22.277012" lon="-46.172323">
        <ele>857.957</ele>
        <time>2019-10-14T13:26:10Z</time>
      </trkpt>
      <trkpt lat="-22.276992" lon="-46.172277">
        <ele>857.859</ele>
        <time>2019-10-14T13:26:12Z</time>
      </trkpt>
      <trkpt lat="-22.276963" lon="-46.172217">
        <ele>857.882</ele>
        <time>2019-10-14T13:26:14Z</time>
      </trkpt>
      <trkpt lat="-22.276933" lon="-46.172164">
        <ele>858.087</ele>
        <time>2019-10-14T13:26:16Z</time>
      </trkpt>
      <trkpt lat="-22.276904" lon="-46.172118">
        <ele>857.643</ele>
        <time>2019-10-14T13:26:18Z</time>
      </trkpt>
      <trkpt lat="-22.276870" lon="-46.172057">
        <ele>857.669</ele>
        <time>2019-10-14T13:26:20Z</time>
      </trkpt>
      <trkpt lat="-22.276835" lon="-46.171996">
        <ele>857.804</ele>
        <time>2019-10-14T13:26:21Z</time>
      </trkpt>
      <trkpt lat="-22.276800" lon="-46.171922">
        <ele>857.324</ele>
        <time>2019-10-14T13:26:23Z</time>
      </trkpt>
      <trkpt lat="-22.276775" lon="-46.171872">
        <ele>856.908</ele>
        <time>2019-10-14T13:26:25Z</time>
      </trkpt>
      <trkpt lat="-22.276746" lon="-46.171828">
        <ele>857.170</ele>
        <time>2019-10-14T13:26:26Z</time>
      </trkpt>
      <trkpt lat="-22.276715" lon="-46.171781">
        <ele>857.198</ele>
        <time>2019-10-14T13:26:28Z</time>
      </trkpt>
      <trkpt lat="-22.276662" lon="-46.171701">
        <ele>857.150</ele>
        <time>2019-10-14T13:26:30Z</time>
      </trkpt>
      <trkpt lat="-22.276639" lon="-46.171658">
        <ele>857.132</ele>
        <time>2019-10-14T13:26:32Z</time>
      </trkpt>
      <trkpt lat="-22.276616" lon="-46.171614">
        <ele>857.334</ele>
        <time>2019-10-14T13:26:34Z</time>
      </trkpt>
      <trkpt lat="-22.276558" lon="-46.171525">
        <ele>856.737</ele>
        <time>2019-10-14T13:26:37Z</time>
      </trkpt>
      <trkpt lat="-22.276532" lon="-46.171482">
        <ele>856.882</ele>
        <time>2019-10-14T13:26:38Z</time>
      </trkpt>
      <trkpt lat="-22.276492" lon="-46.171397">
        <ele>857.098</ele>
        <time>2019-10-14T13:26:40Z</time>
      </trkpt>
      <trkpt lat="-22.276467" lon="-46.171344">
        <ele>857.249</ele>
        <time>2019-10-14T13:26:42Z</time>
      </trkpt>
      <trkpt lat="-22.276443" lon="-46.171302">
        <ele>857.502</ele>
        <time>2019-10-14T13:26:43Z</time>
      </trkpt>
      <trkpt lat="-22.276417" lon="-46.171259">
        <ele>857.422</ele>
        <time>2019-10-14T13:26:45Z</time>
      </trkpt>
      <trkpt lat="-22.276385" lon="-46.171222">
        <ele>857.608</ele>
        <time>2019-10-14T13:26:47Z</time>
      </trkpt>
      <trkpt lat="-22.276351" lon="-46.171183">
        <ele>857.838</ele>
        <time>2019-10-14T13:26:48Z</time>
      </trkpt>
      <trkpt lat="-22.276319" lon="-46.171129">
        <ele>858.136</ele>
        <time>2019-10-14T13:26:50Z</time>
      </trkpt>
      <trkpt lat="-22.276291" lon="-46.171077">
        <ele>858.058</ele>
        <time>2019-10-14T13:26:52Z</time>
      </trkpt>
      <trkpt lat="-22.276263" lon="-46.171026">
        <ele>858.130</ele>
        <time>2019-10-14T13:26:54Z</time>
      </trkpt>
      <trkpt lat="-22.276228" lon="-46.170972">
        <ele>858.072</ele>
        <time>2019-10-14T13:26:57Z</time>
      </trkpt>
      <trkpt lat="-22.276195" lon="-46.170919">
        <ele>858.415</ele>
        <time>2019-10-14T13:26:59Z</time>
      </trkpt>
      <trkpt lat="-22.276165" lon="-46.170866">
        <ele>858.830</ele>
        <time>2019-10-14T13:27:01Z</time>
      </trkpt>
      <trkpt lat="-22.276120" lon="-46.170803">
        <ele>858.476</ele>
        <time>2019-10-14T13:27:03Z</time>
      </trkpt>
      <trkpt lat="-22.276087" lon="-46.170757">
        <ele>858.017</ele>
        <time>2019-10-14T13:27:05Z</time>
      </trkpt>
      <trkpt lat="-22.276057" lon="-46.170713">
        <ele>858.287</ele>
        <time>2019-10-14T13:27:07Z</time>
      </trkpt>
      <trkpt lat="-22.276034" lon="-46.170667">
        <ele>858.215</ele>
        <time>2019-10-14T13:27:09Z</time>
      </trkpt>
      <trkpt lat="-22.276006" lon="-46.170629">
        <ele>858.408</ele>
        <time>2019-10-14T13:27:11Z</time>
      </trkpt>
      <trkpt lat="-22.275974" lon="-46.170586">
        <ele>858.515</ele>
        <time>2019-10-14T13:27:12Z</time>
      </trkpt>
      <trkpt lat="-22.275936" lon="-46.170533">
        <ele>858.033</ele>
        <time>2019-10-14T13:27:14Z</time>
      </trkpt>
      <trkpt lat="-22.275899" lon="-46.170484">
        <ele>857.735</ele>
        <time>2019-10-14T13:27:16Z</time>
      </trkpt>
      <trkpt lat="-22.275866" lon="-46.170439">
        <ele>858.187</ele>
        <time>2019-10-14T13:27:18Z</time>
      </trkpt>
      <trkpt lat="-22.275823" lon="-46.170376">
        <ele>857.759</ele>
        <time>2019-10-14T13:27:21Z</time>
      </trkpt>
      <trkpt lat="-22.275794" lon="-46.170337">
        <ele>857.162</ele>
        <time>2019-10-14T13:27:23Z</time>
      </trkpt>
      <trkpt lat="-22.275760" lon="-46.170296">
        <ele>856.477</ele>
        <time>2019-10-14T13:27:24Z</time>
      </trkpt>
      <trkpt lat="-22.275719" lon="-46.170236">
        <ele>855.713</ele>
        <time>2019-10-14T13:27:27Z</time>
      </trkpt>
      <trkpt lat="-22.274852" lon="-46.168760">
        <ele>850.512</ele>
        <time>2019-10-14T13:27:58Z</time>
      </trkpt>
      <trkpt lat="-22.274828" lon="-46.168685">
        <ele>850.732</ele>
        <time>2019-10-14T13:28:01Z</time>
      </trkpt>
      <trkpt lat="-22.274806" lon="-46.168625">
        <ele>851.405</ele>
        <time>2019-10-14T13:28:04Z</time>
      </trkpt>
      <trkpt lat="-22.274793" lon="-46.168571">
        <ele>852.008</ele>
        <time>2019-10-14T13:28:06Z</time>
      </trkpt>
      <trkpt lat="-22.274778" lon="-46.168503">
        <ele>852.765</ele>
        <time>2019-10-14T13:28:09Z</time>
      </trkpt>
      <trkpt lat="-22.274761" lon="-46.168453">
        <ele>853.753</ele>
        <time>2019-10-14T13:28:12Z</time>
      </trkpt>
      <trkpt lat="-22.274749" lon="-46.168404">
        <ele>854.255</ele>
        <time>2019-10-14T13:28:16Z</time>
      </trkpt>
      <trkpt lat="-22.274739" lon="-46.168348">
        <ele>855.027</ele>
        <time>2019-10-14T13:28:20Z</time>
      </trkpt>
      <trkpt lat="-22.274703" lon="-46.168306">
        <ele>855.449</ele>
        <time>2019-10-14T13:28:25Z</time>
      </trkpt>
      <trkpt lat="-22.274657" lon="-46.168312">
        <ele>855.582</ele>
        <time>2019-10-14T13:28:27Z</time>
      </trkpt>
      <trkpt lat="-22.274601" lon="-46.168307">
        <ele>856.117</ele>
        <time>2019-10-14T13:28:30Z</time>
      </trkpt>
      <trkpt lat="-22.274555" lon="-46.168304">
        <ele>856.243</ele>
        <time>2019-10-14T13:28:32Z</time>
      </trkpt>
      <trkpt lat="-22.274484" lon="-46.168294">
        <ele>856.259</ele>
        <time>2019-10-14T13:28:34Z</time>
      </trkpt>
      <trkpt lat="-22.274427" lon="-46.168285">
        <ele>856.303</ele>
        <time>2019-10-14T13:28:37Z</time>
      </trkpt>
      <trkpt lat="-22.274376" lon="-46.168278">
        <ele>856.623</ele>
        <time>2019-10-14T13:28:39Z</time>
      </trkpt>
      <trkpt lat="-22.274328" lon="-46.168269">
        <ele>857.008</ele>
        <time>2019-10-14T13:28:42Z</time>
      </trkpt>
      <trkpt lat="-22.274282" lon="-46.168262">
        <ele>857.029</ele>
        <time>2019-10-14T13:28:44Z</time>
      </trkpt>
      <trkpt lat="-22.274226" lon="-46.168262">
        <ele>857.187</ele>
        <time>2019-10-14T13:28:46Z</time>
      </trkpt>
      <trkpt lat="-22.274174" lon="-46.168255">
        <ele>857.189</ele>
        <time>2019-10-14T13:28:49Z</time>
      </trkpt>
      <trkpt lat="-22.274124" lon="-46.168244">
        <ele>857.221</ele>
        <time>2019-10-14T13:28:50Z</time>
      </trkpt>
      <trkpt lat="-22.274074" lon="-46.168233">
        <ele>857.633</ele>
        <time>2019-10-14T13:28:53Z</time>
      </trkpt>
      <trkpt lat="-22.274022" lon="-46.168227">
        <ele>857.796</ele>
        <time>2019-10-14T13:28:55Z</time>
      </trkpt>
      <trkpt lat="-22.273970" lon="-46.168218">
        <ele>858.191</ele>
        <time>2019-10-14T13:28:58Z</time>
      </trkpt>
      <trkpt lat="-22.273923" lon="-46.168209">
        <ele>858.397</ele>
        <time>2019-10-14T13:29:00Z</time>
      </trkpt>
      <trkpt lat="-22.273832" lon="-46.168193">
        <ele>858.595</ele>
        <time>2019-10-14T13:29:04Z</time>
      </trkpt>
      <trkpt lat="-22.273773" lon="-46.168180">
        <ele>858.749</ele>
        <time>2019-10-14T13:29:07Z</time>
      </trkpt>
      <trkpt lat="-22.273717" lon="-46.168167">
        <ele>858.823</ele>
        <time>2019-10-14T13:29:09Z</time>
      </trkpt>
      <trkpt lat="-22.273653" lon="-46.168155">
        <ele>858.608</ele>
        <time>2019-10-14T13:29:11Z</time>
      </trkpt>
      <trkpt lat="-22.273611" lon="-46.168137">
        <ele>858.963</ele>
        <time>2019-10-14T13:29:13Z</time>
      </trkpt>
      <trkpt lat="-22.273581" lon="-46.168093">
        <ele>859.151</ele>
        <time>2019-10-14T13:29:16Z</time>
      </trkpt>
      <trkpt lat="-22.273574" lon="-46.168026">
        <ele>859.373</ele>
        <time>2019-10-14T13:29:19Z</time>
      </trkpt>
      <trkpt lat="-22.273556" lon="-46.167967">
        <ele>860.675</ele>
        <time>2019-10-14T13:29:23Z</time>
      </trkpt>
      <trkpt lat="-22.273539" lon="-46.167920">
        <ele>861.297</ele>
        <time>2019-10-14T13:29:26Z</time>
      </trkpt>
      <trkpt lat="-22.273521" lon="-46.167868">
        <ele>861.320</ele>
        <time>2019-10-14T13:29:30Z</time>
      </trkpt>
      <trkpt lat="-22.273508" lon="-46.167819">
        <ele>862.385</ele>
        <time>2019-10-14T13:29:32Z</time>
      </trkpt>
      <trkpt lat="-22.273491" lon="-46.167766">
        <ele>862.781</ele>
        <time>2019-10-14T13:29:36Z</time>
      </trkpt>
      <trkpt lat="-22.273484" lon="-46.167707">
        <ele>863.848</ele>
        <time>2019-10-14T13:29:39Z</time>
      </trkpt>
      <trkpt lat="-22.273480" lon="-46.167652">
        <ele>864.261</ele>
        <time>2019-10-14T13:29:42Z</time>
      </trkpt>
      <trkpt lat="-22.273470" lon="-46.167587">
        <ele>865.317</ele>
        <time>2019-10-14T13:29:49Z</time>
      </trkpt>
      <trkpt lat="-22.273420" lon="-46.167588">
        <ele>864.908</ele>
        <time>2019-10-14T13:32:22Z</time>
      </trkpt>
      <trkpt lat="-22.273409" lon="-46.167535">
        <ele>865.338</ele>
        <time>2019-10-14T13:37:49Z</time>
      </trkpt>
      <trkpt lat="-22.273394" lon="-46.167475">
        <ele>865.946</ele>
        <time>2019-10-14T13:37:52Z</time>
      </trkpt>
      <trkpt lat="-22.273380" lon="-46.167389">
        <ele>867.218</ele>
        <time>2019-10-14T13:37:55Z</time>
      </trkpt>
      <trkpt lat="-22.273373" lon="-46.167336">
        <ele>867.980</ele>
        <time>2019-10-14T13:37:58Z</time>
      </trkpt>
      <trkpt lat="-22.273365" lon="-46.167285">
        <ele>868.142</ele>
        <time>2019-10-14T13:38:01Z</time>
      </trkpt>
      <trkpt lat="-22.273346" lon="-46.167240">
        <ele>868.715</ele>
        <time>2019-10-14T13:38:02Z</time>
      </trkpt>
      <trkpt lat="-22.273318" lon="-46.167172">
        <ele>869.110</ele>
        <time>2019-10-14T13:38:07Z</time>
      </trkpt>
      <trkpt lat="-22.273324" lon="-46.167113">
        <ele>869.696</ele>
        <time>2019-10-14T13:38:14Z</time>
      </trkpt>
      <trkpt lat="-22.273290" lon="-46.167065">
        <ele>869.284</ele>
        <time>2019-10-14T13:38:16Z</time>
      </trkpt>
      <trkpt lat="-22.273241" lon="-46.167085">
        <ele>869.007</ele>
        <time>2019-10-14T13:38:18Z</time>
      </trkpt>
      <trkpt lat="-22.273165" lon="-46.167134">
        <ele>868.217</ele>
        <time>2019-10-14T13:38:21Z</time>
      </trkpt>
      <trkpt lat="-22.273119" lon="-46.167149">
        <ele>867.308</ele>
        <time>2019-10-14T13:38:23Z</time>
      </trkpt>
      <trkpt lat="-22.273049" lon="-46.167172">
        <ele>867.322</ele>
        <time>2019-10-14T13:38:26Z</time>
      </trkpt>
      <trkpt lat="-22.272984" lon="-46.167193">
        <ele>866.810</ele>
        <time>2019-10-14T13:38:27Z</time>
      </trkpt>
      <trkpt lat="-22.272931" lon="-46.167211">
        <ele>866.912</ele>
        <time>2019-10-14T13:38:29Z</time>
      </trkpt>
      <trkpt lat="-22.272882" lon="-46.167227">
        <ele>867.264</ele>
        <time>2019-10-14T13:38:31Z</time>
      </trkpt>
      <trkpt lat="-22.272824" lon="-46.167250">
        <ele>866.796</ele>
        <time>2019-10-14T13:38:32Z</time>
      </trkpt>
      <trkpt lat="-22.272771" lon="-46.167273">
        <ele>866.679</ele>
        <time>2019-10-14T13:38:33Z</time>
      </trkpt>
      <trkpt lat="-22.272706" lon="-46.167295">
        <ele>866.074</ele>
        <time>2019-10-14T13:38:35Z</time>
      </trkpt>
      <trkpt lat="-22.272622" lon="-46.167309">
        <ele>865.830</ele>
        <time>2019-10-14T13:38:37Z</time>
      </trkpt>
      <trkpt lat="-22.272552" lon="-46.167321">
        <ele>866.017</ele>
        <time>2019-10-14T13:38:39Z</time>
      </trkpt>
      <trkpt lat="-22.272495" lon="-46.167334">
        <ele>865.787</ele>
        <time>2019-10-14T13:38:42Z</time>
      </trkpt>
      <trkpt lat="-22.272447" lon="-46.167351">
        <ele>865.015</ele>
        <time>2019-10-14T13:38:44Z</time>
      </trkpt>
      <trkpt lat="-22.272376" lon="-46.167378">
        <ele>864.308</ele>
        <time>2019-10-14T13:38:45Z</time>
      </trkpt>
      <trkpt lat="-22.272317" lon="-46.167398">
        <ele>863.885</ele>
        <time>2019-10-14T13:38:47Z</time>
      </trkpt>
      <trkpt lat="-22.272274" lon="-46.167414">
        <ele>864.143</ele>
        <time>2019-10-14T13:38:48Z</time>
      </trkpt>
      <trkpt lat="-22.272216" lon="-46.167440">
        <ele>863.865</ele>
        <time>2019-10-14T13:38:50Z</time>
      </trkpt>
      <trkpt lat="-22.271120" lon="-46.167719">
        <ele>861.487</ele>
        <time>2019-10-14T13:39:16Z</time>
      </trkpt>
      <trkpt lat="-22.270969" lon="-46.167688">
        <ele>861.529</ele>
        <time>2019-10-14T13:39:22Z</time>
      </trkpt>
      <trkpt lat="-22.270903" lon="-46.167662">
        <ele>861.582</ele>
        <time>2019-10-14T13:39:23Z</time>
      </trkpt>
      <trkpt lat="-22.270852" lon="-46.167644">
        <ele>861.947</ele>
        <time>2019-10-14T13:39:25Z</time>
      </trkpt>
      <trkpt lat="-22.270789" lon="-46.167631">
        <ele>862.053</ele>
        <time>2019-10-14T13:39:27Z</time>
      </trkpt>
      <trkpt lat="-22.270729" lon="-46.167619">
        <ele>862.189</ele>
        <time>2019-10-14T13:39:29Z</time>
      </trkpt>
      <trkpt lat="-22.270677" lon="-46.167602">
        <ele>861.606</ele>
        <time>2019-10-14T13:39:31Z</time>
      </trkpt>
      <trkpt lat="-22.270607" lon="-46.167581">
        <ele>861.726</ele>
        <time>2019-10-14T13:39:33Z</time>
      </trkpt>
      <trkpt lat="-22.270504" lon="-46.167554">
        <ele>862.008</ele>
        <time>2019-10-14T13:39:36Z</time>
      </trkpt>
      <trkpt lat="-22.270436" lon="-46.167537">
        <ele>862.112</ele>
        <time>2019-10-14T13:39:38Z</time>
      </trkpt>
      <trkpt lat="-22.270357" lon="-46.167523">
        <ele>861.950</ele>
        <time>2019-10-14T13:39:41Z</time>
      </trkpt>
      <trkpt lat="-22.270306" lon="-46.167502">
        <ele>861.962</ele>
        <time>2019-10-14T13:39:42Z</time>
      </trkpt>
      <trkpt lat="-22.270244" lon="-46.167490">
        <ele>861.954</ele>
        <time>2019-10-14T13:39:44Z</time>
      </trkpt>
      <trkpt lat="-22.270199" lon="-46.167480">
        <ele>861.976</ele>
        <time>2019-10-14T13:39:46Z</time>
      </trkpt>
      <trkpt lat="-22.270127" lon="-46.167451">
        <ele>862.069</ele>
        <time>2019-10-14T13:39:49Z</time>
      </trkpt>
      <trkpt lat="-22.270069" lon="-46.167423">
        <ele>861.994</ele>
        <time>2019-10-14T13:39:50Z</time>
      </trkpt>
      <trkpt lat="-22.270019" lon="-46.167395">
        <ele>861.930</ele>
        <time>2019-10-14T13:39:52Z</time>
      </trkpt>
      <trkpt lat="-22.269952" lon="-46.167363">
        <ele>861.812</ele>
        <time>2019-10-14T13:39:54Z</time>
      </trkpt>
      <trkpt lat="-22.269903" lon="-46.167335">
        <ele>861.932</ele>
        <time>2019-10-14T13:39:56Z</time>
      </trkpt>
      <trkpt lat="-22.269838" lon="-46.167298">
        <ele>861.805</ele>
        <time>2019-10-14T13:39:57Z</time>
      </trkpt>
      <trkpt lat="-22.269776" lon="-46.167272">
        <ele>861.908</ele>
        <time>2019-10-14T13:39:59Z</time>
      </trkpt>
      <trkpt lat="-22.269704" lon="-46.167239">
        <ele>861.775</ele>
        <time>2019-10-14T13:40:01Z</time>
      </trkpt>
      <trkpt lat="-22.269638" lon="-46.167191">
        <ele>862.123</ele>
        <time>2019-10-14T13:40:03Z</time>
      </trkpt>
      <trkpt lat="-22.269564" lon="-46.167143">
        <ele>861.955</ele>
        <time>2019-10-14T13:40:05Z</time>
      </trkpt>
      <trkpt lat="-22.269460" lon="-46.167067">
        <ele>861.797</ele>
        <time>2019-10-14T13:40:08Z</time>
      </trkpt>
      <trkpt lat="-22.263801" lon="-46.164828">
        <ele>842.649</ele>
        <time>2019-10-14T13:42:11Z</time>
      </trkpt>
      <trkpt lat="-22.263425" lon="-46.164428">
        <ele>841.792</ele>
        <time>2019-10-14T13:42:23Z</time>
      </trkpt>
      <trkpt lat="-22.263366" lon="-46.164354">
        <ele>841.837</ele>
        <time>2019-10-14T13:42:25Z</time>
      </trkpt>
      <trkpt lat="-22.263309" lon="-46.164294">
        <ele>841.653</ele>
        <time>2019-10-14T13:42:27Z</time>
      </trkpt>
      <trkpt lat="-22.263265" lon="-46.164247">
        <ele>841.464</ele>
        <time>2019-10-14T13:42:29Z</time>
      </trkpt>
      <trkpt lat="-22.263230" lon="-46.164209">
        <ele>841.506</ele>
        <time>2019-10-14T13:42:31Z</time>
      </trkpt>
      <trkpt lat="-22.263196" lon="-46.164173">
        <ele>841.816</ele>
        <time>2019-10-14T13:42:32Z</time>
      </trkpt>
      <trkpt lat="-22.263144" lon="-46.164120">
        <ele>841.208</ele>
        <time>2019-10-14T13:42:35Z</time>
      </trkpt>
      <trkpt lat="-22.263094" lon="-46.164067">
        <ele>841.240</ele>
        <time>2019-10-14T13:42:37Z</time>
      </trkpt>
      <trkpt lat="-22.263053" lon="-46.164023">
        <ele>841.298</ele>
        <time>2019-10-14T13:42:38Z</time>
      </trkpt>
      <trkpt lat="-22.263007" lon="-46.163975">
        <ele>841.580</ele>
        <time>2019-10-14T13:42:40Z</time>
      </trkpt>
      <trkpt lat="-22.262926" lon="-46.163872">
        <ele>841.432</ele>
        <time>2019-10-14T13:42:44Z</time>
      </trkpt>
      <trkpt lat="-22.262584" lon="-46.162891">
        <ele>841.774</ele>
        <time>2019-10-14T13:43:07Z</time>
      </trkpt>
      <trkpt lat="-22.262550" lon="-46.162761">
        <ele>841.497</ele>
        <time>2019-10-14T13:43:09Z</time>
      </trkpt>
      <trkpt lat="-22.262537" lon="-46.162714">
        <ele>841.342</ele>
        <time>2019-10-14T13:43:10Z</time>
      </trkpt>
      <trkpt lat="-22.262030" lon="-46.160583">
        <ele>843.098</ele>
        <time>2019-10-14T13:44:00Z</time>
      </trkpt>
      <trkpt lat="-22.261991" lon="-46.160535">
        <ele>843.228</ele>
        <time>2019-10-14T13:44:02Z</time>
      </trkpt>
      <trkpt lat="-22.261946" lon="-46.160461">
        <ele>842.589</ele>
        <time>2019-10-14T13:44:04Z</time>
      </trkpt>
      <trkpt lat="-22.261901" lon="-46.160374">
        <ele>842.917</ele>
        <time>2019-10-14T13:44:07Z</time>
      </trkpt>
      <trkpt lat="-22.261867" lon="-46.160316">
        <ele>842.908</ele>
        <time>2019-10-14T13:44:08Z</time>
      </trkpt>
      <trkpt lat="-22.261816" lon="-46.160251">
        <ele>843.186</ele>
        <time>2019-10-14T13:44:10Z</time>
      </trkpt>
      <trkpt lat="-22.261758" lon="-46.160165">
        <ele>842.314</ele>
        <time>2019-10-14T13:44:13Z</time>
      </trkpt>
      <trkpt lat="-22.261724" lon="-46.160116">
        <ele>842.466</ele>
        <time>2019-10-14T13:44:15Z</time>
      </trkpt>
      <trkpt lat="-22.261689" lon="-46.160060">
        <ele>842.698</ele>
        <time>2019-10-14T13:44:16Z</time>
      </trkpt>
      <trkpt lat="-22.261657" lon="-46.160007">
        <ele>842.580</ele>
        <time>2019-10-14T13:44:18Z</time>
      </trkpt>
      <trkpt lat="-22.261626" lon="-46.159961">
        <ele>842.873</ele>
        <time>2019-10-14T13:44:19Z</time>
      </trkpt>
      <trkpt lat="-22.261583" lon="-46.159903">
        <ele>843.078</ele>
        <time>2019-10-14T13:44:21Z</time>
      </trkpt>
      <trkpt lat="-22.261507" lon="-46.159801">
        <ele>842.894</ele>
        <time>2019-10-14T13:44:24Z</time>
      </trkpt>
      <trkpt lat="-22.261457" lon="-46.159725">
        <ele>842.899</ele>
        <time>2019-10-14T13:44:27Z</time>
      </trkpt>
      <trkpt lat="-22.261415" lon="-46.159664">
        <ele>842.807</ele>
        <time>2019-10-14T13:44:28Z</time>
      </trkpt>
      <trkpt lat="-22.261380" lon="-46.159612">
        <ele>842.527</ele>
        <time>2019-10-14T13:44:30Z</time>
      </trkpt>
      <trkpt lat="-22.261337" lon="-46.159568">
        <ele>842.308</ele>
        <time>2019-10-14T13:44:31Z</time>
      </trkpt>
      <trkpt lat="-22.261303" lon="-46.159533">
        <ele>842.323</ele>
        <time>2019-10-14T13:44:33Z</time>
      </trkpt>
      <trkpt lat="-22.261261" lon="-46.159477">
        <ele>842.991</ele>
        <time>2019-10-14T13:44:34Z</time>
      </trkpt>
      <trkpt lat="-22.261044" lon="-46.159174">
        <ele>843.443</ele>
        <time>2019-10-14T13:44:43Z</time>
      </trkpt>
      <trkpt lat="-22.260989" lon="-46.159055">
        <ele>843.665</ele>
        <time>2019-10-14T13:44:46Z</time>
      </trkpt>
      <trkpt lat="-22.260951" lon="-46.159020">
        <ele>843.867</ele>
        <time>2019-10-14T13:44:47Z</time>
      </trkpt>
      <trkpt lat="-22.260900" lon="-46.158978">
        <ele>843.410</ele>
        <time>2019-10-14T13:44:49Z</time>
      </trkpt>
      <trkpt lat="-22.260858" lon="-46.158916">
        <ele>843.975</ele>
        <time>2019-10-14T13:44:51Z</time>
      </trkpt>
      <trkpt lat="-22.260826" lon="-46.158869">
        <ele>843.881</ele>
        <time>2019-10-14T13:44:53Z</time>
      </trkpt>
      <trkpt lat="-22.260797" lon="-46.158827">
        <ele>843.976</ele>
        <time>2019-10-14T13:44:54Z</time>
      </trkpt>
      <trkpt lat="-22.260745" lon="-46.158754">
        <ele>843.490</ele>
        <time>2019-10-14T13:44:57Z</time>
      </trkpt>
      <trkpt lat="-22.259088" lon="-46.152929">
        <ele>841.619</ele>
        <time>2019-10-14T13:46:51Z</time>
      </trkpt>
      <trkpt lat="-22.259089" lon="-46.152862">
        <ele>841.908</ele>
        <time>2019-10-14T13:46:53Z</time>
      </trkpt>
      <trkpt lat="-22.259102" lon="-46.152776">
        <ele>842.591</ele>
        <time>2019-10-14T13:46:54Z</time>
      </trkpt>
      <trkpt lat="-22.259109" lon="-46.152708">
        <ele>842.779</ele>
        <time>2019-10-14T13:46:56Z</time>
      </trkpt>
      <trkpt lat="-22.259065" lon="-46.152691">
        <ele>843.191</ele>
        <time>2019-10-14T13:47:24Z</time>
      </trkpt>
      <trkpt lat="-22.259040" lon="-46.152837">
        <ele>842.763</ele>
        <time>2019-10-14T13:47:30Z</time>
      </trkpt>
      <trkpt lat="-22.259038" lon="-46.152929">
        <ele>842.715</ele>
        <time>2019-10-14T13:47:32Z</time>
      </trkpt>
      <trkpt lat="-22.259032" lon="-46.153014">
        <ele>842.418</ele>
        <time>2019-10-14T13:47:34Z</time>
      </trkpt>
      <trkpt lat="-22.258909" lon="-46.154418">
        <ele>839.573</ele>
        <time>2019-10-14T13:50:48Z</time>
      </trkpt>
      <trkpt lat="-22.258927" lon="-46.154467">
        <ele>839.229</ele>
        <time>2019-10-14T13:50:50Z</time>
      </trkpt>
      <trkpt lat="-22.258921" lon="-46.154551">
        <ele>838.819</ele>
        <time>2019-10-14T13:50:52Z</time>
      </trkpt>
      <trkpt lat="-22.258907" lon="-46.154706">
        <ele>838.409</ele>
        <time>2019-10-14T13:50:56Z</time>
      </trkpt>
      <trkpt lat="-22.258894" lon="-46.154788">
        <ele>838.419</ele>
        <time>2019-10-14T13:50:58Z</time>
      </trkpt>
      <trkpt lat="-22.258881" lon="-46.154870">
        <ele>838.108</ele>
        <time>2019-10-14T13:51:00Z</time>
      </trkpt>
      <trkpt lat="-22.258864" lon="-46.154950">
        <ele>838.025</ele>
        <time>2019-10-14T13:51:03Z</time>
      </trkpt>
      <trkpt lat="-22.258858" lon="-46.155011">
        <ele>838.173</ele>
        <time>2019-10-14T13:51:04Z</time>
      </trkpt>
      <trkpt lat="-22.258857" lon="-46.155065">
        <ele>838.335</ele>
        <time>2019-10-14T13:51:05Z</time>
      </trkpt>
      <trkpt lat="-22.258851" lon="-46.155126">
        <ele>838.367</ele>
        <time>2019-10-14T13:51:07Z</time>
      </trkpt>
      <trkpt lat="-22.258848" lon="-46.155199">
        <ele>838.399</ele>
        <time>2019-10-14T13:51:10Z</time>
      </trkpt>
      <trkpt lat="-22.258842" lon="-46.155250">
        <ele>837.922</ele>
        <time>2019-10-14T13:51:11Z</time>
      </trkpt>
      <trkpt lat="-22.258823" lon="-46.155308">
        <ele>837.617</ele>
        <time>2019-10-14T13:51:13Z</time>
      </trkpt>
      <trkpt lat="-22.258775" lon="-46.155341">
        <ele>837.273</ele>
        <time>2019-10-14T13:51:15Z</time>
      </trkpt>
      <trkpt lat="-22.258725" lon="-46.155322">
        <ele>836.977</ele>
        <time>2019-10-14T13:51:17Z</time>
      </trkpt>
      <trkpt lat="-22.258717" lon="-46.155241">
        <ele>836.661</ele>
        <time>2019-10-14T13:51:20Z</time>
      </trkpt>
      <trkpt lat="-22.258709" lon="-46.155171">
        <ele>836.727</ele>
        <time>2019-10-14T13:51:22Z</time>
      </trkpt>
      <trkpt lat="-22.258687" lon="-46.155094">
        <ele>836.008</ele>
        <time>2019-10-14T13:51:25Z</time>
      </trkpt>
      <trkpt lat="-22.258672" lon="-46.155039">
        <ele>835.421</ele>
        <time>2019-10-14T13:51:26Z</time>
      </trkpt>
      <trkpt lat="-22.258642" lon="-46.154971">
        <ele>835.949</ele>
        <time>2019-10-14T13:51:28Z</time>
      </trkpt>
      <trkpt lat="-22.258618" lon="-46.154908">
        <ele>836.061</ele>
        <time>2019-10-14T13:51:30Z</time>
      </trkpt>
      <trkpt lat="-22.258594" lon="-46.154851">
        <ele>835.523</ele>
        <time>2019-10-14T13:51:31Z</time>
      </trkpt>
      <trkpt lat="-22.258560" lon="-46.154783">
        <ele>835.925</ele>
        <time>2019-10-14T13:51:34Z</time>
      </trkpt>
      <trkpt lat="-22.258519" lon="-46.154714">
        <ele>836.478</ele>
        <time>2019-10-14T13:51:36Z</time>
      </trkpt>
      <trkpt lat="-22.258461" lon="-46.154629">
        <ele>835.523</ele>
        <time>2019-10-14T13:51:39Z</time>
      </trkpt>
      <trkpt lat="-22.258414" lon="-46.154565">
        <ele>835.739</ele>
        <time>2019-10-14T13:51:41Z</time>
      </trkpt>
      <trkpt lat="-22.258380" lon="-46.154519">
        <ele>836.067</ele>
        <time>2019-10-14T13:51:42Z</time>
      </trkpt>
      <trkpt lat="-22.258351" lon="-46.154481">
        <ele>836.081</ele>
        <time>2019-10-14T13:51:44Z</time>
      </trkpt>
      <trkpt lat="-22.258313" lon="-46.154435">
        <ele>835.919</ele>
        <time>2019-10-14T13:51:45Z</time>
      </trkpt>
      <trkpt lat="-22.258266" lon="-46.154375">
        <ele>836.208</ele>
        <time>2019-10-14T13:51:48Z</time>
      </trkpt>
      <trkpt lat="-22.258227" lon="-46.154320">
        <ele>836.520</ele>
        <time>2019-10-14T13:51:50Z</time>
      </trkpt>
      <trkpt lat="-22.258184" lon="-46.154263">
        <ele>836.378</ele>
        <time>2019-10-14T13:51:51Z</time>
      </trkpt>
      <trkpt lat="-22.258148" lon="-46.154220">
        <ele>836.470</ele>
        <time>2019-10-14T13:51:53Z</time>
      </trkpt>
      <trkpt lat="-22.258107" lon="-46.154168">
        <ele>837.012</ele>
        <time>2019-10-14T13:51:55Z</time>
      </trkpt>
      <trkpt lat="-22.258074" lon="-46.154131">
        <ele>836.984</ele>
        <time>2019-10-14T13:51:57Z</time>
      </trkpt>
      <trkpt lat="-22.258037" lon="-46.154089">
        <ele>837.017</ele>
        <time>2019-10-14T13:51:58Z</time>
      </trkpt>
      <trkpt lat="-22.257998" lon="-46.154049">
        <ele>837.072</ele>
        <time>2019-10-14T13:52:00Z</time>
      </trkpt>
      <trkpt lat="-22.257949" lon="-46.154001">
        <ele>836.988</ele>
        <time>2019-10-14T13:52:02Z</time>
      </trkpt>
      <trkpt lat="-22.257902" lon="-46.153954">
        <ele>837.341</ele>
        <time>2019-10-14T13:52:04Z</time>
      </trkpt>
      <trkpt lat="-22.257859" lon="-46.153918">
        <ele>837.581</ele>
        <time>2019-10-14T13:52:06Z</time>
      </trkpt>
      <trkpt lat="-22.257820" lon="-46.153880">
        <ele>837.409</ele>
        <time>2019-10-14T13:52:08Z</time>
      </trkpt>
      <trkpt lat="-22.257769" lon="-46.153837">
        <ele>837.008</ele>
        <time>2019-10-14T13:52:10Z</time>
      </trkpt>
      <trkpt lat="-22.257725" lon="-46.153797">
        <ele>837.058</ele>
        <time>2019-10-14T13:52:11Z</time>
      </trkpt>
      <trkpt lat="-22.257652" lon="-46.153735">
        <ele>837.436</ele>
        <time>2019-10-14T13:52:14Z</time>
      </trkpt>
      <trkpt lat="-22.257598" lon="-46.153686">
        <ele>837.228</ele>
        <time>2019-10-14T13:52:16Z</time>
      </trkpt>
      <trkpt lat="-22.257559" lon="-46.153651">
        <ele>837.230</ele>
        <time>2019-10-14T13:52:18Z</time>
      </trkpt>
      <trkpt lat="-22.257516" lon="-46.153614">
        <ele>837.542</ele>
        <time>2019-10-14T13:52:19Z</time>
      </trkpt>
      <trkpt lat="-22.257471" lon="-46.153575">
        <ele>838.045</ele>
        <time>2019-10-14T13:52:21Z</time>
      </trkpt>
      <trkpt lat="-22.257437" lon="-46.153540">
        <ele>838.020</ele>
        <time>2019-10-14T13:52:23Z</time>
      </trkpt>
      <trkpt lat="-22.257393" lon="-46.153500">
        <ele>837.866</ele>
        <time>2019-10-14T13:52:25Z</time>
      </trkpt>
      <trkpt lat="-22.257359" lon="-46.153467">
        <ele>838.083</ele>
        <time>2019-10-14T13:52:27Z</time>
      </trkpt>
      <trkpt lat="-22.257324" lon="-46.153430">
        <ele>838.525</ele>
        <time>2019-10-14T13:52:28Z</time>
      </trkpt>
      <trkpt lat="-22.257259" lon="-46.153364">
        <ele>838.217</ele>
        <time>2019-10-14T13:52:31Z</time>
      </trkpt>
      <trkpt lat="-22.257223" lon="-46.153323">
        <ele>837.808</ele>
        <time>2019-10-14T13:52:33Z</time>
      </trkpt>
      <trkpt lat="-22.257181" lon="-46.153276">
        <ele>838.082</ele>
        <time>2019-10-14T13:52:35Z</time>
      </trkpt>
      <trkpt lat="-22.257143" lon="-46.153231">
        <ele>838.180</ele>
        <time>2019-10-14T13:52:37Z</time>
      </trkpt>
      <trkpt lat="-22.257102" lon="-46.153191">
        <ele>838.242</ele>
        <time>2019-10-14T13:52:39Z</time>
      </trkpt>
      <trkpt lat="-22.257063" lon="-46.153148">
        <ele>838.294</ele>
        <time>2019-10-14T13:52:41Z</time>
      </trkpt>
      <trkpt lat="-22.257033" lon="-46.153108">
        <ele>838.316</ele>
        <time>2019-10-14T13:52:43Z</time>
      </trkpt>
      <trkpt lat="-22.256984" lon="-46.153035">
        <ele>838.569</ele>
        <time>2019-10-14T13:52:46Z</time>
      </trkpt>
      <trkpt lat="-22.256953" lon="-46.152970">
        <ele>838.424</ele>
        <time>2019-10-14T13:52:47Z</time>
      </trkpt>
      <trkpt lat="-22.256930" lon="-46.152911">
        <ele>838.710</ele>
        <time>2019-10-14T13:52:49Z</time>
      </trkpt>
      <trkpt lat="-22.256901" lon="-46.152842">
        <ele>838.459</ele>
        <time>2019-10-14T13:52:52Z</time>
      </trkpt>
      <trkpt lat="-22.256887" lon="-46.152765">
        <ele>838.803</ele>
        <time>2019-10-14T13:52:53Z</time>
      </trkpt>
      <trkpt lat="-22.256875" lon="-46.152684">
        <ele>838.523</ele>
        <time>2019-10-14T13:52:55Z</time>
      </trkpt>
      <trkpt lat="-22.256867" lon="-46.152636">
        <ele>838.008</ele>
        <time>2019-10-14T13:52:56Z</time>
      </trkpt>
      <trkpt lat="-22.256860" lon="-46.152568">
        <ele>838.169</ele>
        <time>2019-10-14T13:52:58Z</time>
      </trkpt>
      <trkpt lat="-22.256857" lon="-46.152496">
        <ele>838.117</ele>
        <time>2019-10-14T13:53:00Z</time>
      </trkpt>
      <trkpt lat="-22.256845" lon="-46.152369">
        <ele>837.679</ele>
        <time>2019-10-14T13:53:03Z</time>
      </trkpt>
      <trkpt lat="-22.256840" lon="-46.152298">
        <ele>837.831</ele>
        <time>2019-10-14T13:53:04Z</time>
      </trkpt>
      <trkpt lat="-22.256837" lon="-46.152233">
        <ele>838.143</ele>
        <time>2019-10-14T13:53:06Z</time>
      </trkpt>
      <trkpt lat="-22.257195" lon="-46.151150">
        <ele>839.566</ele>
        <time>2019-10-14T13:53:32Z</time>
      </trkpt>
      <trkpt lat="-22.257225" lon="-46.151054">
        <ele>839.691</ele>
        <time>2019-10-14T13:53:34Z</time>
      </trkpt>
      <trkpt lat="-22.257235" lon="-46.150991">
        <ele>840.027</ele>
        <time>2019-10-14T13:53:35Z</time>
      </trkpt>
      <trkpt lat="-22.257301" lon="-46.150559">
        <ele>839.557</ele>
        <time>2019-10-14T13:53:45Z</time>
      </trkpt>
      <trkpt lat="-22.257307" lon="-46.150477">
        <ele>839.500</ele>
        <time>2019-10-14T13:53:47Z</time>
      </trkpt>
      <trkpt lat="-22.257314" lon="-46.150406">
        <ele>839.520</ele>
        <time>2019-10-14T13:53:48Z</time>
      </trkpt>
      <trkpt lat="-22.257312" lon="-46.150328">
        <ele>839.508</ele>
        <time>2019-10-14T13:53:50Z</time>
      </trkpt>
      <trkpt lat="-22.257308" lon="-46.150224">
        <ele>840.369</ele>
        <time>2019-10-14T13:53:52Z</time>
      </trkpt>
      <trkpt lat="-22.257306" lon="-46.150158">
        <ele>839.817</ele>
        <time>2019-10-14T13:53:54Z</time>
      </trkpt>
      <trkpt lat="-22.257304" lon="-46.150073">
        <ele>840.069</ele>
        <time>2019-10-14T13:53:56Z</time>
      </trkpt>
      <trkpt lat="-22.257314" lon="-46.149927">
        <ele>840.641</ele>
        <time>2019-10-14T13:53:59Z</time>
      </trkpt>
      <trkpt lat="-22.257293" lon="-46.149754">
        <ele>840.413</ele>
        <time>2019-10-14T13:54:03Z</time>
      </trkpt>
      <trkpt lat="-22.257295" lon="-46.149691">
        <ele>840.596</ele>
        <time>2019-10-14T13:54:04Z</time>
      </trkpt>
      <trkpt lat="-22.257282" lon="-46.149605">
        <ele>840.541</ele>
        <time>2019-10-14T13:54:06Z</time>
      </trkpt>
      <trkpt lat="-22.257274" lon="-46.149524">
        <ele>840.547</ele>
        <time>2019-10-14T13:54:09Z</time>
      </trkpt>
      <trkpt lat="-22.257271" lon="-46.149426">
        <ele>840.923</ele>
        <time>2019-10-14T13:54:11Z</time>
      </trkpt>
      <trkpt lat="-22.257270" lon="-46.149361">
        <ele>841.383</ele>
        <time>2019-10-14T13:54:12Z</time>
      </trkpt>
      <trkpt lat="-22.257261" lon="-46.149233">
        <ele>841.411</ele>
        <time>2019-10-14T13:54:15Z</time>
      </trkpt>
      <trkpt lat="-22.257263" lon="-46.149184">
        <ele>841.108</ele>
        <time>2019-10-14T13:54:16Z</time>
      </trkpt>
      <trkpt lat="-22.257175" lon="-46.148353">
        <ele>841.336</ele>
        <time>2019-10-14T13:54:35Z</time>
      </trkpt>
      <trkpt lat="-22.257175" lon="-46.148289">
        <ele>841.364</ele>
        <time>2019-10-14T13:54:37Z</time>
      </trkpt>
      <trkpt lat="-22.257157" lon="-46.148241">
        <ele>840.836</ele>
        <time>2019-10-14T13:54:38Z</time>
      </trkpt>
      <trkpt lat="-22.257144" lon="-46.148189">
        <ele>840.578</ele>
        <time>2019-10-14T13:54:40Z</time>
      </trkpt>
      <trkpt lat="-22.257128" lon="-46.148122">
        <ele>841.320</ele>
        <time>2019-10-14T13:54:41Z</time>
      </trkpt>
      <trkpt lat="-22.257076" lon="-46.147930">
        <ele>841.483</ele>
        <time>2019-10-14T13:54:46Z</time>
      </trkpt>
      <trkpt lat="-22.257055" lon="-46.147853">
        <ele>841.668</ele>
        <time>2019-10-14T13:54:48Z</time>
      </trkpt>
      <trkpt lat="-22.257039" lon="-46.147789">
        <ele>841.534</ele>
        <time>2019-10-14T13:54:49Z</time>
      </trkpt>
      <trkpt lat="-22.257023" lon="-46.147731">
        <ele>841.796</ele>
        <time>2019-10-14T13:54:51Z</time>
      </trkpt>
      <trkpt lat="-22.256979" lon="-46.147558">
        <ele>841.931</ele>
        <time>2019-10-14T13:54:55Z</time>
      </trkpt>
      <trkpt lat="-22.256966" lon="-46.147504">
        <ele>841.924</ele>
        <time>2019-10-14T13:54:57Z</time>
      </trkpt>
      <trkpt lat="-22.256943" lon="-46.147426">
        <ele>842.408</ele>
        <time>2019-10-14T13:54:59Z</time>
      </trkpt>
      <trkpt lat="-22.256915" lon="-46.147353">
        <ele>842.993</ele>
        <time>2019-10-14T13:55:00Z</time>
      </trkpt>
      <trkpt lat="-22.256881" lon="-46.147298">
        <ele>842.481</ele>
        <time>2019-10-14T13:55:02Z</time>
      </trkpt>
      <trkpt lat="-22.256840" lon="-46.147259">
        <ele>842.383</ele>
        <time>2019-10-14T13:55:04Z</time>
      </trkpt>
      <trkpt lat="-22.256789" lon="-46.147224">
        <ele>842.675</ele>
        <time>2019-10-14T13:55:05Z</time>
      </trkpt>
      <trkpt lat="-22.256727" lon="-46.147191">
        <ele>842.987</ele>
        <time>2019-10-14T13:55:07Z</time>
      </trkpt>
      <trkpt lat="-22.256675" lon="-46.147169">
        <ele>842.670</ele>
        <time>2019-10-14T13:55:09Z</time>
      </trkpt>
      <trkpt lat="-22.256611" lon="-46.147139">
        <ele>842.425</ele>
        <time>2019-10-14T13:55:10Z</time>
      </trkpt>
      <trkpt lat="-22.256568" lon="-46.147124">
        <ele>842.211</ele>
        <time>2019-10-14T13:55:11Z</time>
      </trkpt>
      <trkpt lat="-22.256490" lon="-46.147096">
        <ele>842.066</ele>
        <time>2019-10-14T13:55:13Z</time>
      </trkpt>
      <trkpt lat="-22.256417" lon="-46.147067">
        <ele>841.729</ele>
        <time>2019-10-14T13:55:15Z</time>
      </trkpt>
      <trkpt lat="-22.256371" lon="-46.147048">
        <ele>841.821</ele>
        <time>2019-10-14T13:55:17Z</time>
      </trkpt>
      <trkpt lat="-22.256210" lon="-46.146970">
        <ele>841.708</ele>
        <time>2019-10-14T13:55:20Z</time>
      </trkpt>
      <trkpt lat="-22.253484" lon="-46.146212">
        <ele>838.650</ele>
        <time>2019-10-14T13:56:23Z</time>
      </trkpt>
      <trkpt lat="-22.253425" lon="-46.146183">
        <ele>838.228</ele>
        <time>2019-10-14T13:56:25Z</time>
      </trkpt>
      <trkpt lat="-22.253362" lon="-46.146128">
        <ele>838.460</ele>
        <time>2019-10-14T13:56:27Z</time>
      </trkpt>
      <trkpt lat="-22.253324" lon="-46.146077">
        <ele>838.672</ele>
        <time>2019-10-14T13:56:29Z</time>
      </trkpt>
      <trkpt lat="-22.253290" lon="-46.146022">
        <ele>838.124</ele>
        <time>2019-10-14T13:56:30Z</time>
      </trkpt>
      <trkpt lat="-22.253261" lon="-46.145967">
        <ele>838.347</ele>
        <time>2019-10-14T13:56:32Z</time>
      </trkpt>
      <trkpt lat="-22.253231" lon="-46.145909">
        <ele>838.032</ele>
        <time>2019-10-14T13:56:34Z</time>
      </trkpt>
      <trkpt lat="-22.253192" lon="-46.145824">
        <ele>838.098</ele>
        <time>2019-10-14T13:56:35Z</time>
      </trkpt>
      <trkpt lat="-22.253155" lon="-46.145770">
        <ele>837.812</ele>
        <time>2019-10-14T13:56:37Z</time>
      </trkpt>
      <trkpt lat="-22.253117" lon="-46.145717">
        <ele>837.932</ele>
        <time>2019-10-14T13:56:39Z</time>
      </trkpt>
      <trkpt lat="-22.253086" lon="-46.145655">
        <ele>838.005</ele>
        <time>2019-10-14T13:56:40Z</time>
      </trkpt>
      <trkpt lat="-22.253045" lon="-46.145562">
        <ele>838.108</ele>
        <time>2019-10-14T13:56:42Z</time>
      </trkpt>
      <trkpt lat="-22.248455" lon="-46.135221">
        <ele>830.655</ele>
        <time>2019-10-14T14:00:29Z</time>
      </trkpt>
      <trkpt lat="-22.248447" lon="-46.135114">
        <ele>830.083</ele>
        <time>2019-10-14T14:00:31Z</time>
      </trkpt>
      <trkpt lat="-22.248429" lon="-46.135064">
        <ele>830.225</ele>
        <time>2019-10-14T14:00:32Z</time>
      </trkpt>
      <trkpt lat="-22.248401" lon="-46.134996">
        <ele>830.677</ele>
        <time>2019-10-14T14:00:34Z</time>
      </trkpt>
      <trkpt lat="-22.248374" lon="-46.134933">
        <ele>830.959</ele>
        <time>2019-10-14T14:00:35Z</time>
      </trkpt>
      <trkpt lat="-22.248348" lon="-46.134874">
        <ele>830.952</ele>
        <time>2019-10-14T14:00:37Z</time>
      </trkpt>
      <trkpt lat="-22.248327" lon="-46.134823">
        <ele>830.887</ele>
        <time>2019-10-14T14:00:38Z</time>
      </trkpt>
      <trkpt lat="-22.248299" lon="-46.134754">
        <ele>830.633</ele>
        <time>2019-10-14T14:00:41Z</time>
      </trkpt>
      <trkpt lat="-22.248277" lon="-46.134692">
        <ele>830.867</ele>
        <time>2019-10-14T14:00:42Z</time>
      </trkpt>
      <trkpt lat="-22.248255" lon="-46.134608">
        <ele>830.981</ele>
        <time>2019-10-14T14:00:44Z</time>
      </trkpt>
      <trkpt lat="-22.248240" lon="-46.134532">
        <ele>831.319</ele>
        <time>2019-10-14T14:00:47Z</time>
      </trkpt>
      <trkpt lat="-22.248233" lon="-46.134473">
        <ele>831.608</ele>
        <time>2019-10-14T14:00:48Z</time>
      </trkpt>
      <trkpt lat="-22.248212" lon="-46.134409">
        <ele>831.520</ele>
        <time>2019-10-14T14:00:50Z</time>
      </trkpt>
      <trkpt lat="-22.248188" lon="-46.134354">
        <ele>831.878</ele>
        <time>2019-10-14T14:00:51Z</time>
      </trkpt>
      <trkpt lat="-22.248160" lon="-46.134282">
        <ele>831.860</ele>
        <time>2019-10-14T14:00:53Z</time>
      </trkpt>
      <trkpt lat="-22.248138" lon="-46.134212">
        <ele>832.472</ele>
        <time>2019-10-14T14:00:55Z</time>
      </trkpt>
      <trkpt lat="-22.248122" lon="-46.134142">
        <ele>832.544</ele>
        <time>2019-10-14T14:00:57Z</time>
      </trkpt>
      <trkpt lat="-22.248116" lon="-46.134078">
        <ele>832.637</ele>
        <time>2019-10-14T14:01:00Z</time>
      </trkpt>
      <trkpt lat="-22.248118" lon="-46.134016">
        <ele>833.352</ele>
        <time>2019-10-14T14:01:02Z</time>
      </trkpt>
      <trkpt lat="-22.248124" lon="-46.133960">
        <ele>833.948</ele>
        <time>2019-10-14T14:01:03Z</time>
      </trkpt>
      <trkpt lat="-22.248138" lon="-46.133900">
        <ele>833.637</ele>
        <time>2019-10-14T14:01:05Z</time>
      </trkpt>
      <trkpt lat="-22.248155" lon="-46.133839">
        <ele>833.949</ele>
        <time>2019-10-14T14:01:07Z</time>
      </trkpt>
      <trkpt lat="-22.248165" lon="-46.133786">
        <ele>834.713</ele>
        <time>2019-10-14T14:01:09Z</time>
      </trkpt>
      <trkpt lat="-22.248172" lon="-46.133726">
        <ele>835.208</ele>
        <time>2019-10-14T14:01:11Z</time>
      </trkpt>
      <trkpt lat="-22.248166" lon="-46.133629">
        <ele>834.877</ele>
        <time>2019-10-14T14:01:15Z</time>
      </trkpt>
      <trkpt lat="-22.248165" lon="-46.133573">
        <ele>834.275</ele>
        <time>2019-10-14T14:01:16Z</time>
      </trkpt>
      <trkpt lat="-22.248157" lon="-46.133507">
        <ele>834.427</ele>
        <time>2019-10-14T14:01:18Z</time>
      </trkpt>
      <trkpt lat="-22.248153" lon="-46.133456">
        <ele>834.229</ele>
        <time>2019-10-14T14:01:20Z</time>
      </trkpt>
      <trkpt lat="-22.248149" lon="-46.133367">
        <ele>834.131</ele>
        <time>2019-10-14T14:01:22Z</time>
      </trkpt>
      <trkpt lat="-22.248142" lon="-46.133318">
        <ele>833.814</ele>
        <time>2019-10-14T14:01:23Z</time>
      </trkpt>
      <trkpt lat="-22.248045" lon="-46.132864">
        <ele>831.399</ele>
        <time>2019-10-14T14:01:31Z</time>
      </trkpt>
      <trkpt lat="-22.247942" lon="-46.132319">
        <ele>831.435</ele>
        <time>2019-10-14T14:01:41Z</time>
      </trkpt>
      <trkpt lat="-22.247932" lon="-46.132207">
        <ele>832.093</ele>
        <time>2019-10-14T14:01:45Z</time>
      </trkpt>
      <trkpt lat="-22.247934" lon="-46.132126">
        <ele>831.965</ele>
        <time>2019-10-14T14:01:46Z</time>
      </trkpt>
      <trkpt lat="-22.247936" lon="-46.132067">
        <ele>831.321</ele>
        <time>2019-10-14T14:01:48Z</time>
      </trkpt>
      <trkpt lat="-22.247939" lon="-46.132014">
        <ele>831.208</ele>
        <time>2019-10-14T14:01:50Z</time>
      </trkpt>
      <trkpt lat="-22.247939" lon="-46.131938">
        <ele>831.493</ele>
        <time>2019-10-14T14:01:52Z</time>
      </trkpt>
      <trkpt lat="-22.247943" lon="-46.131874">
        <ele>831.731</ele>
        <time>2019-10-14T14:01:54Z</time>
      </trkpt>
      <trkpt lat="-22.247945" lon="-46.131817">
        <ele>831.943</ele>
        <time>2019-10-14T14:01:55Z</time>
      </trkpt>
      <trkpt lat="-22.247945" lon="-46.131741">
        <ele>832.685</ele>
        <time>2019-10-14T14:01:57Z</time>
      </trkpt>
      <trkpt lat="-22.247943" lon="-46.131667">
        <ele>833.027</ele>
        <time>2019-10-14T14:02:00Z</time>
      </trkpt>
      <trkpt lat="-22.247928" lon="-46.131567">
        <ele>833.510</ele>
        <time>2019-10-14T14:02:03Z</time>
      </trkpt>
      <trkpt lat="-22.247912" lon="-46.131484">
        <ele>834.025</ele>
        <time>2019-10-14T14:02:05Z</time>
      </trkpt>
      <trkpt lat="-22.247885" lon="-46.131403">
        <ele>833.571</ele>
        <time>2019-10-14T14:02:08Z</time>
      </trkpt>
      <trkpt lat="-22.247860" lon="-46.131321">
        <ele>833.655</ele>
        <time>2019-10-14T14:02:10Z</time>
      </trkpt>
      <trkpt lat="-22.247827" lon="-46.131248">
        <ele>833.607</ele>
        <time>2019-10-14T14:02:13Z</time>
      </trkpt>
      <trkpt lat="-22.247772" lon="-46.131136">
        <ele>833.217</ele>
        <time>2019-10-14T14:02:16Z</time>
      </trkpt>
      <trkpt lat="-22.247723" lon="-46.131086">
        <ele>833.108</ele>
        <time>2019-10-14T14:02:18Z</time>
      </trkpt>
      <trkpt lat="-22.247558" lon="-46.131002">
        <ele>833.359</ele>
        <time>2019-10-14T14:02:22Z</time>
      </trkpt>
      <trkpt lat="-22.247508" lon="-46.130983">
        <ele>833.097</ele>
        <time>2019-10-14T14:02:23Z</time>
      </trkpt>
      <trkpt lat="-22.247430" lon="-46.130945">
        <ele>832.819</ele>
        <time>2019-10-14T14:02:25Z</time>
      </trkpt>
      <trkpt lat="-22.247362" lon="-46.130906">
        <ele>832.521</ele>
        <time>2019-10-14T14:02:28Z</time>
      </trkpt>
      <trkpt lat="-22.247291" lon="-46.130861">
        <ele>832.343</ele>
        <time>2019-10-14T14:02:29Z</time>
      </trkpt>
      <trkpt lat="-22.247248" lon="-46.130838">
        <ele>832.526</ele>
        <time>2019-10-14T14:02:31Z</time>
      </trkpt>
      <trkpt lat="-22.247193" lon="-46.130801">
        <ele>832.291</ele>
        <time>2019-10-14T14:02:32Z</time>
      </trkpt>
      <trkpt lat="-22.247136" lon="-46.129907">
        <ele>831.097</ele>
        <time>2019-10-14T14:02:53Z</time>
      </trkpt>
      <trkpt lat="-22.247150" lon="-46.129845">
        <ele>831.591</ele>
        <time>2019-10-14T14:02:55Z</time>
      </trkpt>
      <trkpt lat="-22.247167" lon="-46.129758">
        <ele>831.881</ele>
        <time>2019-10-14T14:02:57Z</time>
      </trkpt>
      <trkpt lat="-22.247601" lon="-46.127436">
        <ele>829.319</ele>
        <time>2019-10-14T14:03:47Z</time>
      </trkpt>
      <trkpt lat="-22.247616" lon="-46.127373">
        <ele>829.608</ele>
        <time>2019-10-14T14:03:49Z</time>
      </trkpt>
      <trkpt lat="-22.247621" lon="-46.127304">
        <ele>830.073</ele>
        <time>2019-10-14T14:03:51Z</time>
      </trkpt>
      <trkpt lat="-22.247635" lon="-46.127199">
        <ele>830.741</ele>
        <time>2019-10-14T14:03:53Z</time>
      </trkpt>
      <trkpt lat="-22.247648" lon="-46.127111">
        <ele>831.963</ele>
        <time>2019-10-14T14:03:55Z</time>
      </trkpt>
      <trkpt lat="-22.247660" lon="-46.127047">
        <ele>832.325</ele>
        <time>2019-10-14T14:03:57Z</time>
      </trkpt>
      <trkpt lat="-22.247676" lon="-46.126955">
        <ele>832.187</ele>
        <time>2019-10-14T14:03:59Z</time>
      </trkpt>
      <trkpt lat="-22.247683" lon="-46.126901">
        <ele>832.290</ele>
        <time>2019-10-14T14:04:00Z</time>
      </trkpt>
      <trkpt lat="-22.247691" lon="-46.126841">
        <ele>832.255</ele>
        <time>2019-10-14T14:04:02Z</time>
      </trkpt>
      <trkpt lat="-22.247709" lon="-46.126742">
        <ele>832.141</ele>
        <time>2019-10-14T14:04:04Z</time>
      </trkpt>
      <trkpt lat="-22.247718" lon="-46.126665">
        <ele>832.375</ele>
        <time>2019-10-14T14:04:06Z</time>
      </trkpt>
      <trkpt lat="-22.247722" lon="-46.126602">
        <ele>832.528</ele>
        <time>2019-10-14T14:04:08Z</time>
      </trkpt>
      <trkpt lat="-22.247724" lon="-46.126500">
        <ele>832.520</ele>
        <time>2019-10-14T14:04:11Z</time>
      </trkpt>
      <trkpt lat="-22.247722" lon="-46.126431">
        <ele>832.708</ele>
        <time>2019-10-14T14:04:13Z</time>
      </trkpt>
      <trkpt lat="-22.247715" lon="-46.126377">
        <ele>833.141</ele>
        <time>2019-10-14T14:04:14Z</time>
      </trkpt>
      <trkpt lat="-22.247709" lon="-46.126318">
        <ele>832.899</ele>
        <time>2019-10-14T14:04:16Z</time>
      </trkpt>
      <trkpt lat="-22.247699" lon="-46.126241">
        <ele>832.691</ele>
        <time>2019-10-14T14:04:19Z</time>
      </trkpt>
      <trkpt lat="-22.247692" lon="-46.126186">
        <ele>832.873</ele>
        <time>2019-10-14T14:04:20Z</time>
      </trkpt>
      <trkpt lat="-22.247686" lon="-46.126125">
        <ele>833.595</ele>
        <time>2019-10-14T14:04:22Z</time>
      </trkpt>
      <trkpt lat="-22.247678" lon="-46.126053">
        <ele>834.068</ele>
        <time>2019-10-14T14:04:24Z</time>
      </trkpt>
      <trkpt lat="-22.247673" lon="-46.125980">
        <ele>834.473</ele>
        <time>2019-10-14T14:04:26Z</time>
      </trkpt>
      <trkpt lat="-22.247664" lon="-46.125902">
        <ele>834.919</ele>
        <time>2019-10-14T14:04:29Z</time>
      </trkpt>
      <trkpt lat="-22.247661" lon="-46.125828">
        <ele>835.124</ele>
        <time>2019-10-14T14:04:31Z</time>
      </trkpt>
      <trkpt lat="-22.247659" lon="-46.125770">
        <ele>835.604</ele>
        <time>2019-10-14T14:04:34Z</time>
      </trkpt>
      <trkpt lat="-22.247655" lon="-46.125713">
        <ele>835.814</ele>
        <time>2019-10-14T14:04:36Z</time>
      </trkpt>
      <trkpt lat="-22.247646" lon="-46.125644">
        <ele>836.308</ele>
        <time>2019-10-14T14:04:39Z</time>
      </trkpt>
      <trkpt lat="-22.247641" lon="-46.125595">
        <ele>836.626</ele>
        <time>2019-10-14T14:04:41Z</time>
      </trkpt>
      <trkpt lat="-22.247632" lon="-46.125540">
        <ele>836.944</ele>
        <time>2019-10-14T14:04:43Z</time>
      </trkpt>
      <trkpt lat="-22.247633" lon="-46.125470">
        <ele>837.466</ele>
        <time>2019-10-14T14:04:47Z</time>
      </trkpt>
      <trkpt lat="-22.247628" lon="-46.125405">
        <ele>838.148</ele>
        <time>2019-10-14T14:04:49Z</time>
      </trkpt>
      <trkpt lat="-22.247622" lon="-46.125334">
        <ele>838.250</ele>
        <time>2019-10-14T14:04:52Z</time>
      </trkpt>
      <trkpt lat="-22.247620" lon="-46.125268">
        <ele>838.533</ele>
        <time>2019-10-14T14:04:54Z</time>
      </trkpt>
      <trkpt lat="-22.247615" lon="-46.125211">
        <ele>839.148</ele>
        <time>2019-10-14T14:04:57Z</time>
      </trkpt>
      <trkpt lat="-22.247606" lon="-46.125145">
        <ele>839.144</ele>
        <time>2019-10-14T14:05:00Z</time>
      </trkpt>
      <trkpt lat="-22.247599" lon="-46.125084">
        <ele>839.388</ele>
        <time>2019-10-14T14:05:02Z</time>
      </trkpt>
      <trkpt lat="-22.247594" lon="-46.125033">
        <ele>839.524</ele>
        <time>2019-10-14T14:05:04Z</time>
      </trkpt>
      <trkpt lat="-22.247586" lon="-46.124957">
        <ele>839.626</ele>
        <time>2019-10-14T14:05:06Z</time>
      </trkpt>
      <trkpt lat="-22.247579" lon="-46.124897">
        <ele>839.908</ele>
        <time>2019-10-14T14:05:08Z</time>
      </trkpt>
      <trkpt lat="-22.247576" lon="-46.124836">
        <ele>840.272</ele>
        <time>2019-10-14T14:05:11Z</time>
      </trkpt>
      <trkpt lat="-22.247572" lon="-46.124785">
        <ele>840.250</ele>
        <time>2019-10-14T14:05:12Z</time>
      </trkpt>
      <trkpt lat="-22.247566" lon="-46.124726">
        <ele>840.462</ele>
        <time>2019-10-14T14:05:15Z</time>
      </trkpt>
      <trkpt lat="-22.247565" lon="-46.124664">
        <ele>840.584</ele>
        <time>2019-10-14T14:05:17Z</time>
      </trkpt>
      <trkpt lat="-22.247560" lon="-46.124607">
        <ele>840.186</ele>
        <time>2019-10-14T14:05:18Z</time>
      </trkpt>
      <trkpt lat="-22.247554" lon="-46.124542">
        <ele>840.419</ele>
        <time>2019-10-14T14:05:20Z</time>
      </trkpt>
      <trkpt lat="-22.247544" lon="-46.124482">
        <ele>840.684</ele>
        <time>2019-10-14T14:05:22Z</time>
      </trkpt>
      <trkpt lat="-22.247531" lon="-46.124421">
        <ele>840.860</ele>
        <time>2019-10-14T14:05:24Z</time>
      </trkpt>
      <trkpt lat="-22.247519" lon="-46.124349">
        <ele>840.871</ele>
        <time>2019-10-14T14:05:26Z</time>
      </trkpt>
      <trkpt lat="-22.247509" lon="-46.124282">
        <ele>840.741</ele>
        <time>2019-10-14T14:05:29Z</time>
      </trkpt>
      <trkpt lat="-22.247492" lon="-46.124190">
        <ele>840.915</ele>
        <time>2019-10-14T14:05:31Z</time>
      </trkpt>
      <trkpt lat="-22.247478" lon="-46.124127">
        <ele>840.908</ele>
        <time>2019-10-14T14:05:33Z</time>
      </trkpt>
      <trkpt lat="-22.247465" lon="-46.124045">
        <ele>841.231</ele>
        <time>2019-10-14T14:05:36Z</time>
      </trkpt>
      <trkpt lat="-22.247457" lon="-46.123987">
        <ele>841.059</ele>
        <time>2019-10-14T14:05:38Z</time>
      </trkpt>
      <trkpt lat="-22.247440" lon="-46.123912">
        <ele>841.491</ele>
        <time>2019-10-14T14:05:40Z</time>
      </trkpt>
      <trkpt lat="-22.247409" lon="-46.123816">
        <ele>841.543</ele>
        <time>2019-10-14T14:05:43Z</time>
      </trkpt>
      <trkpt lat="-22.247390" lon="-46.123754">
        <ele>841.615</ele>
        <time>2019-10-14T14:05:45Z</time>
      </trkpt>
      <trkpt lat="-22.247371" lon="-46.123690">
        <ele>841.648</ele>
        <time>2019-10-14T14:05:47Z</time>
      </trkpt>
      <trkpt lat="-22.247346" lon="-46.123630">
        <ele>842.363</ele>
        <time>2019-10-14T14:05:50Z</time>
      </trkpt>
      <trkpt lat="-22.247327" lon="-46.123579">
        <ele>842.659</ele>
        <time>2019-10-14T14:05:52Z</time>
      </trkpt>
      <trkpt lat="-22.247309" lon="-46.123514">
        <ele>843.286</ele>
        <time>2019-10-14T14:05:54Z</time>
      </trkpt>
      <trkpt lat="-22.247288" lon="-46.123459">
        <ele>843.060</ele>
        <time>2019-10-14T14:05:57Z</time>
      </trkpt>
      <trkpt lat="-22.247274" lon="-46.123405">
        <ele>843.126</ele>
        <time>2019-10-14T14:05:59Z</time>
      </trkpt>
      <trkpt lat="-22.247250" lon="-46.123331">
        <ele>843.708</ele>
        <time>2019-10-14T14:06:01Z</time>
      </trkpt>
      <trkpt lat="-22.247235" lon="-46.123278">
        <ele>843.932</ele>
        <time>2019-10-14T14:06:03Z</time>
      </trkpt>
      <trkpt lat="-22.247214" lon="-46.123207">
        <ele>844.140</ele>
        <time>2019-10-14T14:06:06Z</time>
      </trkpt>
      <trkpt lat="-22.247200" lon="-46.123155">
        <ele>843.992</ele>
        <time>2019-10-14T14:06:08Z</time>
      </trkpt>
      <trkpt lat="-22.247184" lon="-46.123108">
        <ele>844.344</ele>
        <time>2019-10-14T14:06:11Z</time>
      </trkpt>
      <trkpt lat="-22.247171" lon="-46.123047">
        <ele>844.876</ele>
        <time>2019-10-14T14:06:13Z</time>
      </trkpt>
      <trkpt lat="-22.247153" lon="-46.122999">
        <ele>845.039</ele>
        <time>2019-10-14T14:06:15Z</time>
      </trkpt>
      <trkpt lat="-22.247137" lon="-46.122948">
        <ele>845.474</ele>
        <time>2019-10-14T14:06:17Z</time>
      </trkpt>
      <trkpt lat="-22.247137" lon="-46.122948">
        <ele>845.450</ele>
        <time>2019-10-14T14:06:17Z</time>
      </trkpt>
      <trkpt lat="-22.247117" lon="-46.122899">
        <ele>845.679</ele>
        <time>2019-10-14T14:06:19Z</time>
      </trkpt>
      <trkpt lat="-22.247099" lon="-46.122846">
        <ele>845.805</ele>
        <time>2019-10-14T14:06:21Z</time>
      </trkpt>
      <trkpt lat="-22.247091" lon="-46.122791">
        <ele>846.125</ele>
        <time>2019-10-14T14:06:24Z</time>
      </trkpt>
      <trkpt lat="-22.247078" lon="-46.122728">
        <ele>846.508</ele>
        <time>2019-10-14T14:06:26Z</time>
      </trkpt>
      <trkpt lat="-22.247066" lon="-46.122680">
        <ele>847.181</ele>
        <time>2019-10-14T14:06:28Z</time>
      </trkpt>
      <trkpt lat="-22.247055" lon="-46.122631">
        <ele>847.519</ele>
        <time>2019-10-14T14:06:31Z</time>
      </trkpt>
      <trkpt lat="-22.247040" lon="-46.122560">
        <ele>847.711</ele>
        <time>2019-10-14T14:06:34Z</time>
      </trkpt>
      <trkpt lat="-22.247033" lon="-46.122500">
        <ele>847.923</ele>
        <time>2019-10-14T14:06:36Z</time>
      </trkpt>
      <trkpt lat="-22.247016" lon="-46.122446">
        <ele>848.125</ele>
        <time>2019-10-14T14:06:38Z</time>
      </trkpt>
      <trkpt lat="-22.247002" lon="-46.122392">
        <ele>848.678</ele>
        <time>2019-10-14T14:06:41Z</time>
      </trkpt>
      <trkpt lat="-22.246988" lon="-46.122334">
        <ele>849.173</ele>
        <time>2019-10-14T14:06:43Z</time>
      </trkpt>
      <trkpt lat="-22.246973" lon="-46.122271">
        <ele>849.689</ele>
        <time>2019-10-14T14:06:47Z</time>
      </trkpt>
      <trkpt lat="-22.246952" lon="-46.122215">
        <ele>850.296</ele>
        <time>2019-10-14T14:06:49Z</time>
      </trkpt>
      <trkpt lat="-22.246930" lon="-46.122164">
        <ele>850.731</ele>
        <time>2019-10-14T14:06:52Z</time>
      </trkpt>
      <trkpt lat="-22.246903" lon="-46.122109">
        <ele>851.324</ele>
        <time>2019-10-14T14:06:56Z</time>
      </trkpt>
      <trkpt lat="-22.246863" lon="-46.122048">
        <ele>851.608</ele>
        <time>2019-10-14T14:06:59Z</time>
      </trkpt>
      <trkpt lat="-22.246817" lon="-46.121988">
        <ele>851.593</ele>
        <time>2019-10-14T14:07:02Z</time>
      </trkpt>
      <trkpt lat="-22.246779" lon="-46.121948">
        <ele>852.031</ele>
        <time>2019-10-14T14:07:04Z</time>
      </trkpt>
      <trkpt lat="-22.246747" lon="-46.121912">
        <ele>852.483</ele>
        <time>2019-10-14T14:07:07Z</time>
      </trkpt>
      <trkpt lat="-22.246712" lon="-46.121875">
        <ele>852.715</ele>
        <time>2019-10-14T14:07:09Z</time>
      </trkpt>
      <trkpt lat="-22.246670" lon="-46.121838">
        <ele>853.157</ele>
        <time>2019-10-14T14:07:12Z</time>
      </trkpt>
      <trkpt lat="-22.246630" lon="-46.121807">
        <ele>854.030</ele>
        <time>2019-10-14T14:07:15Z</time>
      </trkpt>
      <trkpt lat="-22.246593" lon="-46.121776">
        <ele>854.795</ele>
        <time>2019-10-14T14:07:19Z</time>
      </trkpt>
      <trkpt lat="-22.246529" lon="-46.121741">
        <ele>855.591</ele>
        <time>2019-10-14T14:07:23Z</time>
      </trkpt>
      <trkpt lat="-22.246488" lon="-46.121719">
        <ele>855.944</ele>
        <time>2019-10-14T14:07:25Z</time>
      </trkpt>
      <trkpt lat="-22.246440" lon="-46.121697">
        <ele>856.405</ele>
        <time>2019-10-14T14:07:28Z</time>
      </trkpt>
      <trkpt lat="-22.246395" lon="-46.121677">
        <ele>857.115</ele>
        <time>2019-10-14T14:07:32Z</time>
      </trkpt>
      <trkpt lat="-22.246348" lon="-46.121658">
        <ele>857.408</ele>
        <time>2019-10-14T14:07:34Z</time>
      </trkpt>
      <trkpt lat="-22.246292" lon="-46.121651">
        <ele>857.728</ele>
        <time>2019-10-14T14:07:38Z</time>
      </trkpt>
      <trkpt lat="-22.246215" lon="-46.121629">
        <ele>858.436</ele>
        <time>2019-10-14T14:07:42Z</time>
      </trkpt>
      <trkpt lat="-22.246169" lon="-46.121608">
        <ele>858.928</ele>
        <time>2019-10-14T14:07:45Z</time>
      </trkpt>
      <trkpt lat="-22.246117" lon="-46.121578">
        <ele>859.130</ele>
        <time>2019-10-14T14:07:48Z</time>
      </trkpt>
      <trkpt lat="-22.246073" lon="-46.121536">
        <ele>859.312</ele>
        <time>2019-10-14T14:07:53Z</time>
      </trkpt>
      <trkpt lat="-22.246033" lon="-46.121498">
        <ele>859.425</ele>
        <time>2019-10-14T14:07:55Z</time>
      </trkpt>
      <trkpt lat="-22.245998" lon="-46.121459">
        <ele>859.450</ele>
        <time>2019-10-14T14:07:58Z</time>
      </trkpt>
      <trkpt lat="-22.245974" lon="-46.121407">
        <ele>858.996</ele>
        <time>2019-10-14T14:07:59Z</time>
      </trkpt>
      <trkpt lat="-22.245956" lon="-46.121349">
        <ele>858.697</ele>
        <time>2019-10-14T14:08:02Z</time>
      </trkpt>
      <trkpt lat="-22.245944" lon="-46.121290">
        <ele>857.623</ele>
        <time>2019-10-14T14:08:03Z</time>
      </trkpt>
      <trkpt lat="-22.242895" lon="-46.116184">
        <ele>832.425</ele>
        <time>2019-10-14T14:09:24Z</time>
      </trkpt>
      <trkpt lat="-22.242871" lon="-46.116134">
        <ele>833.108</ele>
        <time>2019-10-14T14:09:25Z</time>
      </trkpt>
      <trkpt lat="-22.242830" lon="-46.116037">
        <ele>833.063</ele>
        <time>2019-10-14T14:09:28Z</time>
      </trkpt>
      <trkpt lat="-22.242811" lon="-46.115969">
        <ele>832.931</ele>
        <time>2019-10-14T14:09:30Z</time>
      </trkpt>
      <trkpt lat="-22.242788" lon="-46.115916">
        <ele>833.093</ele>
        <time>2019-10-14T14:09:32Z</time>
      </trkpt>
      <trkpt lat="-22.242763" lon="-46.115857">
        <ele>833.375</ele>
        <time>2019-10-14T14:09:35Z</time>
      </trkpt>
      <trkpt lat="-22.242740" lon="-46.115803">
        <ele>833.577</ele>
        <time>2019-10-14T14:09:36Z</time>
      </trkpt>
      <trkpt lat="-22.242713" lon="-46.115746">
        <ele>833.360</ele>
        <time>2019-10-14T14:09:38Z</time>
      </trkpt>
      <trkpt lat="-22.242688" lon="-46.115695">
        <ele>833.715</ele>
        <time>2019-10-14T14:09:41Z</time>
      </trkpt>
      <trkpt lat="-22.242655" lon="-46.115637">
        <ele>833.721</ele>
        <time>2019-10-14T14:09:43Z</time>
      </trkpt>
      <trkpt lat="-22.242627" lon="-46.115587">
        <ele>834.195</ele>
        <time>2019-10-14T14:09:44Z</time>
      </trkpt>
      <trkpt lat="-22.242602" lon="-46.115545">
        <ele>834.249</ele>
        <time>2019-10-14T14:09:46Z</time>
      </trkpt>
      <trkpt lat="-22.242569" lon="-46.115489">
        <ele>834.623</ele>
        <time>2019-10-14T14:09:48Z</time>
      </trkpt>
      <trkpt lat="-22.242525" lon="-46.115414">
        <ele>834.808</ele>
        <time>2019-10-14T14:09:50Z</time>
      </trkpt>
      <trkpt lat="-22.242477" lon="-46.115369">
        <ele>835.133</ele>
        <time>2019-10-14T14:09:52Z</time>
      </trkpt>
      <trkpt lat="-22.242398" lon="-46.115321">
        <ele>835.811</ele>
        <time>2019-10-14T14:09:55Z</time>
      </trkpt>
      <trkpt lat="-22.242353" lon="-46.115297">
        <ele>835.683</ele>
        <time>2019-10-14T14:09:57Z</time>
      </trkpt>
      <trkpt lat="-22.242301" lon="-46.115286">
        <ele>835.625</ele>
        <time>2019-10-14T14:09:59Z</time>
      </trkpt>
      <trkpt lat="-22.242255" lon="-46.115276">
        <ele>835.377</ele>
        <time>2019-10-14T14:10:00Z</time>
      </trkpt>
      <trkpt lat="-22.242199" lon="-46.115252">
        <ele>835.680</ele>
        <time>2019-10-14T14:10:02Z</time>
      </trkpt>
      <trkpt lat="-22.242138" lon="-46.115230">
        <ele>835.775</ele>
        <time>2019-10-14T14:10:04Z</time>
      </trkpt>
      <trkpt lat="-22.242054" lon="-46.115194">
        <ele>835.831</ele>
        <time>2019-10-14T14:10:07Z</time>
      </trkpt>
      <trkpt lat="-22.241984" lon="-46.115159">
        <ele>835.795</ele>
        <time>2019-10-14T14:10:09Z</time>
      </trkpt>
      <trkpt lat="-22.241933" lon="-46.115133">
        <ele>835.949</ele>
        <time>2019-10-14T14:10:11Z</time>
      </trkpt>
      <trkpt lat="-22.241886" lon="-46.115105">
        <ele>835.923</ele>
        <time>2019-10-14T14:10:13Z</time>
      </trkpt>
      <trkpt lat="-22.241829" lon="-46.115061">
        <ele>836.008</ele>
        <time>2019-10-14T14:10:15Z</time>
      </trkpt>
      <trkpt lat="-22.241782" lon="-46.115027">
        <ele>836.593</ele>
        <time>2019-10-14T14:10:17Z</time>
      </trkpt>
      <trkpt lat="-22.241738" lon="-46.115009">
        <ele>836.121</ele>
        <time>2019-10-14T14:12:55Z</time>
      </trkpt>
      <trkpt lat="-22.241683" lon="-46.114991">
        <ele>836.173</ele>
        <time>2019-10-14T14:12:59Z</time>
      </trkpt>
      <trkpt lat="-22.241632" lon="-46.114977">
        <ele>836.015</ele>
        <time>2019-10-14T14:13:02Z</time>
      </trkpt>
      <trkpt lat="-22.241569" lon="-46.114951">
        <ele>836.527</ele>
        <time>2019-10-14T14:13:06Z</time>
      </trkpt>
      <trkpt lat="-22.241513" lon="-46.114923">
        <ele>836.830</ele>
        <time>2019-10-14T14:13:09Z</time>
      </trkpt>
      <trkpt lat="-22.241445" lon="-46.114891">
        <ele>837.015</ele>
        <time>2019-10-14T14:13:12Z</time>
      </trkpt>
      <trkpt lat="-22.241382" lon="-46.114859">
        <ele>837.381</ele>
        <time>2019-10-14T14:13:16Z</time>
      </trkpt>
      <trkpt lat="-22.241334" lon="-46.114831">
        <ele>837.874</ele>
        <time>2019-10-14T14:13:19Z</time>
      </trkpt>
      <trkpt lat="-22.241291" lon="-46.114801">
        <ele>838.156</ele>
        <time>2019-10-14T14:13:21Z</time>
      </trkpt>
      <trkpt lat="-22.241246" lon="-46.114767">
        <ele>838.621</ele>
        <time>2019-10-14T14:13:24Z</time>
      </trkpt>
      <trkpt lat="-22.241205" lon="-46.114726">
        <ele>838.908</ele>
        <time>2019-10-14T14:13:27Z</time>
      </trkpt>
      <trkpt lat="-22.241170" lon="-46.114695">
        <ele>839.691</ele>
        <time>2019-10-14T14:13:31Z</time>
      </trkpt>
      <trkpt lat="-22.241130" lon="-46.114668">
        <ele>840.379</ele>
        <time>2019-10-14T14:13:33Z</time>
      </trkpt>
      <trkpt lat="-22.241094" lon="-46.114632">
        <ele>840.781</ele>
        <time>2019-10-14T14:13:36Z</time>
      </trkpt>
      <trkpt lat="-22.241056" lon="-46.114593">
        <ele>840.983</ele>
        <time>2019-10-14T14:13:39Z</time>
      </trkpt>
      <trkpt lat="-22.241012" lon="-46.114554">
        <ele>841.885</ele>
        <time>2019-10-14T14:13:43Z</time>
      </trkpt>
      <trkpt lat="-22.240983" lon="-46.114515">
        <ele>842.238</ele>
        <time>2019-10-14T14:13:44Z</time>
      </trkpt>
      <trkpt lat="-22.240950" lon="-46.114479">
        <ele>842.813</ele>
        <time>2019-10-14T14:13:48Z</time>
      </trkpt>
      <trkpt lat="-22.240914" lon="-46.114441">
        <ele>842.849</ele>
        <time>2019-10-14T14:13:50Z</time>
      </trkpt>
      <trkpt lat="-22.240878" lon="-46.114409">
        <ele>843.485</ele>
        <time>2019-10-14T14:13:52Z</time>
      </trkpt>
      <trkpt lat="-22.240836" lon="-46.114364">
        <ele>843.789</ele>
        <time>2019-10-14T14:13:56Z</time>
      </trkpt>
      <trkpt lat="-22.240797" lon="-46.114325">
        <ele>844.017</ele>
        <time>2019-10-14T14:13:58Z</time>
      </trkpt>
      <trkpt lat="-22.240752" lon="-46.114283">
        <ele>844.408</ele>
        <time>2019-10-14T14:14:01Z</time>
      </trkpt>
      <trkpt lat="-22.240708" lon="-46.114231">
        <ele>844.842</ele>
        <time>2019-10-14T14:14:05Z</time>
      </trkpt>
      <trkpt lat="-22.240665" lon="-46.114185">
        <ele>845.040</ele>
        <time>2019-10-14T14:14:08Z</time>
      </trkpt>
      <trkpt lat="-22.240599" lon="-46.114121">
        <ele>845.362</ele>
        <time>2019-10-14T14:14:11Z</time>
      </trkpt>
      <trkpt lat="-22.240568" lon="-46.114085">
        <ele>845.164</ele>
        <time>2019-10-14T14:14:13Z</time>
      </trkpt>
      <trkpt lat="-22.240532" lon="-46.114049">
        <ele>844.836</ele>
        <time>2019-10-14T14:14:16Z</time>
      </trkpt>
      <trkpt lat="-22.240484" lon="-46.113996">
        <ele>845.189</ele>
        <time>2019-10-14T14:14:18Z</time>
      </trkpt>
      <trkpt lat="-22.240450" lon="-46.113961">
        <ele>845.374</ele>
        <time>2019-10-14T14:14:20Z</time>
      </trkpt>
      <trkpt lat="-22.240391" lon="-46.113891">
        <ele>845.380</ele>
        <time>2019-10-14T14:14:23Z</time>
      </trkpt>
      <trkpt lat="-22.240360" lon="-46.113845">
        <ele>845.293</ele>
        <time>2019-10-14T14:14:26Z</time>
      </trkpt>
      <trkpt lat="-22.240330" lon="-46.113797">
        <ele>845.265</ele>
        <time>2019-10-14T14:14:28Z</time>
      </trkpt>
      <trkpt lat="-22.240281" lon="-46.113722">
        <ele>845.421</ele>
        <time>2019-10-14T14:14:30Z</time>
      </trkpt>
      <trkpt lat="-22.240250" lon="-46.113675">
        <ele>845.408</ele>
        <time>2019-10-14T14:14:32Z</time>
      </trkpt>
      <trkpt lat="-22.240215" lon="-46.113624">
        <ele>845.453</ele>
        <time>2019-10-14T14:14:34Z</time>
      </trkpt>
      <trkpt lat="-22.240179" lon="-46.113573">
        <ele>845.681</ele>
        <time>2019-10-14T14:14:36Z</time>
      </trkpt>
      <trkpt lat="-22.240147" lon="-46.113525">
        <ele>845.573</ele>
        <time>2019-10-14T14:14:38Z</time>
      </trkpt>
      <trkpt lat="-22.240099" lon="-46.113458">
        <ele>845.415</ele>
        <time>2019-10-14T14:14:40Z</time>
      </trkpt>
      <trkpt lat="-22.240055" lon="-46.113404">
        <ele>845.537</ele>
        <time>2019-10-14T14:14:42Z</time>
      </trkpt>
      <trkpt lat="-22.240019" lon="-46.113354">
        <ele>845.830</ele>
        <time>2019-10-14T14:14:44Z</time>
      </trkpt>
      <trkpt lat="-22.239984" lon="-46.113311">
        <ele>845.995</ele>
        <time>2019-10-14T14:14:46Z</time>
      </trkpt>
      <trkpt lat="-22.239947" lon="-46.113264">
        <ele>845.961</ele>
        <time>2019-10-14T14:14:48Z</time>
      </trkpt>
      <trkpt lat="-22.239883" lon="-46.113168">
        <ele>845.793</ele>
        <time>2019-10-14T14:14:51Z</time>
      </trkpt>
      <trkpt lat="-22.239849" lon="-46.113115">
        <ele>845.665</ele>
        <time>2019-10-14T14:14:52Z</time>
      </trkpt>
      <trkpt lat="-22.239792" lon="-46.113024">
        <ele>845.921</ele>
        <time>2019-10-14T14:14:55Z</time>
      </trkpt>
      <trkpt lat="-22.239757" lon="-46.112959">
        <ele>846.108</ele>
        <time>2019-10-14T14:14:57Z</time>
      </trkpt>
      <trkpt lat="-22.239726" lon="-46.112909">
        <ele>846.243</ele>
        <time>2019-10-14T14:14:59Z</time>
      </trkpt>
      <trkpt lat="-22.239696" lon="-46.112861">
        <ele>846.371</ele>
        <time>2019-10-14T14:15:00Z</time>
      </trkpt>
      <trkpt lat="-22.239672" lon="-46.112808">
        <ele>846.693</ele>
        <time>2019-10-14T14:15:02Z</time>
      </trkpt>
      <trkpt lat="-22.239625" lon="-46.112722">
        <ele>846.495</ele>
        <time>2019-10-14T14:15:06Z</time>
      </trkpt>
      <trkpt lat="-22.239596" lon="-46.112665">
        <ele>846.367</ele>
        <time>2019-10-14T14:15:07Z</time>
      </trkpt>
      <trkpt lat="-22.239554" lon="-46.112593">
        <ele>846.520</ele>
        <time>2019-10-14T14:15:09Z</time>
      </trkpt>
      <trkpt lat="-22.239493" lon="-46.112485">
        <ele>846.745</ele>
        <time>2019-10-14T14:15:13Z</time>
      </trkpt>
      <trkpt lat="-22.239450" lon="-46.112422">
        <ele>846.851</ele>
        <time>2019-10-14T14:15:15Z</time>
      </trkpt>
      <trkpt lat="-22.239416" lon="-46.112367">
        <ele>846.946</ele>
        <time>2019-10-14T14:15:17Z</time>
      </trkpt>
      <trkpt lat="-22.239381" lon="-46.112322">
        <ele>847.188</ele>
        <time>2019-10-14T14:15:18Z</time>
      </trkpt>
      <trkpt lat="-22.239347" lon="-46.112269">
        <ele>847.416</ele>
        <time>2019-10-14T14:15:20Z</time>
      </trkpt>
      <trkpt lat="-22.239323" lon="-46.112223">
        <ele>847.408</ele>
        <time>2019-10-14T14:15:22Z</time>
      </trkpt>
      <trkpt lat="-22.239257" lon="-46.112124">
        <ele>847.818</ele>
        <time>2019-10-14T14:15:24Z</time>
      </trkpt>
      <trkpt lat="-22.239221" lon="-46.112077">
        <ele>848.026</ele>
        <time>2019-10-14T14:15:26Z</time>
      </trkpt>
      <trkpt lat="-22.239197" lon="-46.112028">
        <ele>847.798</ele>
        <time>2019-10-14T14:15:28Z</time>
      </trkpt>
      <trkpt lat="-22.239141" lon="-46.111952">
        <ele>848.130</ele>
        <time>2019-10-14T14:15:31Z</time>
      </trkpt>
      <trkpt lat="-22.239086" lon="-46.111884">
        <ele>848.432</ele>
        <time>2019-10-14T14:15:33Z</time>
      </trkpt>
      <trkpt lat="-22.239045" lon="-46.111827">
        <ele>848.915</ele>
        <time>2019-10-14T14:15:36Z</time>
      </trkpt>
      <trkpt lat="-22.239023" lon="-46.111784">
        <ele>848.280</ele>
        <time>2019-10-14T14:15:37Z</time>
      </trkpt>
      <trkpt lat="-22.238998" lon="-46.111736">
        <ele>848.056</ele>
        <time>2019-10-14T14:15:39Z</time>
      </trkpt>
      <trkpt lat="-22.238974" lon="-46.111685">
        <ele>847.829</ele>
        <time>2019-10-14T14:15:40Z</time>
      </trkpt>
      <trkpt lat="-22.238955" lon="-46.111606">
        <ele>847.800</ele>
        <time>2019-10-14T14:15:43Z</time>
      </trkpt>
      <trkpt lat="-22.238940" lon="-46.111545">
        <ele>847.820</ele>
        <time>2019-10-14T14:15:44Z</time>
      </trkpt>
      <trkpt lat="-22.238928" lon="-46.111490">
        <ele>848.008</ele>
        <time>2019-10-14T14:15:46Z</time>
      </trkpt>
      <trkpt lat="-22.238914" lon="-46.111426">
        <ele>848.036</ele>
        <time>2019-10-14T14:15:47Z</time>
      </trkpt>
      <trkpt lat="-22.238904" lon="-46.111365">
        <ele>847.944</ele>
        <time>2019-10-14T14:15:49Z</time>
      </trkpt>
      <trkpt lat="-22.238893" lon="-46.111311">
        <ele>847.956</ele>
        <time>2019-10-14T14:15:51Z</time>
      </trkpt>
      <trkpt lat="-22.238888" lon="-46.111256">
        <ele>848.188</ele>
        <time>2019-10-14T14:15:53Z</time>
      </trkpt>
      <trkpt lat="-22.238881" lon="-46.111206">
        <ele>848.030</ele>
        <time>2019-10-14T14:15:54Z</time>
      </trkpt>
      <trkpt lat="-22.238859" lon="-46.111117">
        <ele>848.023</ele>
        <time>2019-10-14T14:15:56Z</time>
      </trkpt>
      <trkpt lat="-22.238839" lon="-46.111059">
        <ele>847.958</ele>
        <time>2019-10-14T14:15:58Z</time>
      </trkpt>
      <trkpt lat="-22.238821" lon="-46.111013">
        <ele>848.214</ele>
        <time>2019-10-14T14:15:59Z</time>
      </trkpt>
      <trkpt lat="-22.238789" lon="-46.110957">
        <ele>848.419</ele>
        <time>2019-10-14T14:16:01Z</time>
      </trkpt>
      <trkpt lat="-22.238738" lon="-46.110870">
        <ele>848.009</ele>
        <time>2019-10-14T14:16:03Z</time>
      </trkpt>
      <trkpt lat="-22.238690" lon="-46.110788">
        <ele>847.919</ele>
        <time>2019-10-14T14:16:06Z</time>
      </trkpt>
      <trkpt lat="-22.238619" lon="-46.110680">
        <ele>847.308</ele>
        <time>2019-10-14T14:16:09Z</time>
      </trkpt>
      <trkpt lat="-22.238590" lon="-46.110629">
        <ele>847.455</ele>
        <time>2019-10-14T14:16:10Z</time>
      </trkpt>
      <trkpt lat="-22.238550" lon="-46.110562">
        <ele>846.933</ele>
        <time>2019-10-14T14:16:12Z</time>
      </trkpt>
      <trkpt lat="-22.238523" lon="-46.110515">
        <ele>847.115</ele>
        <time>2019-10-14T14:16:14Z</time>
      </trkpt>
      <trkpt lat="-22.238493" lon="-46.110442">
        <ele>847.067</ele>
        <time>2019-10-14T14:16:16Z</time>
      </trkpt>
      <trkpt lat="-22.238470" lon="-46.110387">
        <ele>847.079</ele>
        <time>2019-10-14T14:16:17Z</time>
      </trkpt>
      <trkpt lat="-22.238438" lon="-46.110319">
        <ele>846.712</ele>
        <time>2019-10-14T14:16:20Z</time>
      </trkpt>
      <trkpt lat="-22.238405" lon="-46.110268">
        <ele>846.777</ele>
        <time>2019-10-14T14:16:21Z</time>
      </trkpt>
      <trkpt lat="-22.238373" lon="-46.110216">
        <ele>846.733</ele>
        <time>2019-10-14T14:16:23Z</time>
      </trkpt>
      <trkpt lat="-22.238341" lon="-46.110163">
        <ele>846.694</ele>
        <time>2019-10-14T14:16:25Z</time>
      </trkpt>
      <trkpt lat="-22.238305" lon="-46.110101">
        <ele>846.657</ele>
        <time>2019-10-14T14:16:26Z</time>
      </trkpt>
      <trkpt lat="-22.238275" lon="-46.110051">
        <ele>846.722</ele>
        <time>2019-10-14T14:16:28Z</time>
      </trkpt>
      <trkpt lat="-22.238247" lon="-46.109999">
        <ele>846.408</ele>
        <time>2019-10-14T14:16:29Z</time>
      </trkpt>
      <trkpt lat="-22.235521" lon="-46.108487">
        <ele>843.943</ele>
        <time>2019-10-14T14:17:35Z</time>
      </trkpt>
      <trkpt lat="-22.235477" lon="-46.108473">
        <ele>844.161</ele>
        <time>2019-10-14T14:17:37Z</time>
      </trkpt>
      <trkpt lat="-22.235429" lon="-46.108443">
        <ele>844.663</ele>
        <time>2019-10-14T14:17:39Z</time>
      </trkpt>
      <trkpt lat="-22.235331" lon="-46.108397">
        <ele>844.865</ele>
        <time>2019-10-14T14:17:42Z</time>
      </trkpt>
      <trkpt lat="-22.235278" lon="-46.108366">
        <ele>844.747</ele>
        <time>2019-10-14T14:17:45Z</time>
      </trkpt>
      <trkpt lat="-22.235245" lon="-46.108329">
        <ele>844.220</ele>
        <time>2019-10-14T14:17:46Z</time>
      </trkpt>
      <trkpt lat="-22.235206" lon="-46.108278">
        <ele>843.795</ele>
        <time>2019-10-14T14:17:49Z</time>
      </trkpt>
      <trkpt lat="-22.235153" lon="-46.108212">
        <ele>844.161</ele>
        <time>2019-10-14T14:17:51Z</time>
      </trkpt>
      <trkpt lat="-22.235100" lon="-46.108135">
        <ele>844.036</ele>
        <time>2019-10-14T14:17:54Z</time>
      </trkpt>
      <trkpt lat="-22.235062" lon="-46.108049">
        <ele>844.517</ele>
        <time>2019-10-14T14:17:56Z</time>
      </trkpt>
      <trkpt lat="-22.235049" lon="-46.107999">
        <ele>844.718</ele>
        <time>2019-10-14T14:17:58Z</time>
      </trkpt>
      <trkpt lat="-22.235030" lon="-46.107913">
        <ele>844.808</ele>
        <time>2019-10-14T14:18:01Z</time>
      </trkpt>
      <trkpt lat="-22.235029" lon="-46.107841">
        <ele>844.877</ele>
        <time>2019-10-14T14:18:04Z</time>
      </trkpt>
      <trkpt lat="-22.235034" lon="-46.107776">
        <ele>845.385</ele>
        <time>2019-10-14T14:18:06Z</time>
      </trkpt>
      <trkpt lat="-22.235047" lon="-46.107720">
        <ele>845.347</ele>
        <time>2019-10-14T14:18:08Z</time>
      </trkpt>
      <trkpt lat="-22.235079" lon="-46.107594">
        <ele>845.749</ele>
        <time>2019-10-14T14:18:11Z</time>
      </trkpt>
      <trkpt lat="-22.235101" lon="-46.107536">
        <ele>845.891</ele>
        <time>2019-10-14T14:18:13Z</time>
      </trkpt>
      <trkpt lat="-22.235128" lon="-46.107479">
        <ele>846.084</ele>
        <time>2019-10-14T14:18:16Z</time>
      </trkpt>
      <trkpt lat="-22.235155" lon="-46.107418">
        <ele>846.269</ele>
        <time>2019-10-14T14:18:17Z</time>
      </trkpt>
      <trkpt lat="-22.235174" lon="-46.107333">
        <ele>846.145</ele>
        <time>2019-10-14T14:18:20Z</time>
      </trkpt>
      <trkpt lat="-22.235173" lon="-46.107280">
        <ele>845.568</ele>
        <time>2019-10-14T14:18:22Z</time>
      </trkpt>
      <trkpt lat="-22.235147" lon="-46.106995">
        <ele>844.742</ele>
        <time>2019-10-14T14:18:28Z</time>
      </trkpt>
      <trkpt lat="-22.235126" lon="-46.106902">
        <ele>845.426</ele>
        <time>2019-10-14T14:18:30Z</time>
      </trkpt>
      <trkpt lat="-22.235107" lon="-46.106848">
        <ele>845.508</ele>
        <time>2019-10-14T14:18:32Z</time>
      </trkpt>
      <trkpt lat="-22.235081" lon="-46.106782">
        <ele>845.540</ele>
        <time>2019-10-14T14:18:35Z</time>
      </trkpt>
      <trkpt lat="-22.235065" lon="-46.106735">
        <ele>845.328</ele>
        <time>2019-10-14T14:18:36Z</time>
      </trkpt>
      <trkpt lat="-22.235041" lon="-46.106671">
        <ele>845.580</ele>
        <time>2019-10-14T14:18:38Z</time>
      </trkpt>
      <trkpt lat="-22.235026" lon="-46.106613">
        <ele>845.332</ele>
        <time>2019-10-14T14:18:40Z</time>
      </trkpt>
      <trkpt lat="-22.234989" lon="-46.106564">
        <ele>845.544</ele>
        <time>2019-10-14T14:18:43Z</time>
      </trkpt>
      <trkpt lat="-22.234959" lon="-46.106509">
        <ele>845.417</ele>
        <time>2019-10-14T14:18:45Z</time>
      </trkpt>
      <trkpt lat="-22.234928" lon="-46.106444">
        <ele>846.082</ele>
        <time>2019-10-14T14:18:48Z</time>
      </trkpt>
      <trkpt lat="-22.234900" lon="-46.106394">
        <ele>846.798</ele>
        <time>2019-10-14T14:18:50Z</time>
      </trkpt>
      <trkpt lat="-22.234873" lon="-46.106352">
        <ele>846.834</ele>
        <time>2019-10-14T14:18:52Z</time>
      </trkpt>
      <trkpt lat="-22.234820" lon="-46.106306">
        <ele>847.355</ele>
        <time>2019-10-14T14:18:55Z</time>
      </trkpt>
      <trkpt lat="-22.234778" lon="-46.106272">
        <ele>848.010</ele>
        <time>2019-10-14T14:18:58Z</time>
      </trkpt>
      <trkpt lat="-22.234743" lon="-46.106233">
        <ele>848.708</ele>
        <time>2019-10-14T14:19:01Z</time>
      </trkpt>
      <trkpt lat="-22.234704" lon="-46.106201">
        <ele>849.037</ele>
        <time>2019-10-14T14:19:03Z</time>
      </trkpt>
      <trkpt lat="-22.234644" lon="-46.106157">
        <ele>850.025</ele>
        <time>2019-10-14T14:19:07Z</time>
      </trkpt>
      <trkpt lat="-22.234589" lon="-46.106113">
        <ele>851.297</ele>
        <time>2019-10-14T14:19:12Z</time>
      </trkpt>
      <trkpt lat="-22.234534" lon="-46.106074">
        <ele>851.979</ele>
        <time>2019-10-14T14:19:16Z</time>
      </trkpt>
      <trkpt lat="-22.234500" lon="-46.106035">
        <ele>852.561</ele>
        <time>2019-10-14T14:19:20Z</time>
      </trkpt>
      <trkpt lat="-22.234460" lon="-46.105999">
        <ele>853.074</ele>
        <time>2019-10-14T14:19:23Z</time>
      </trkpt>
      <trkpt lat="-22.234417" lon="-46.105968">
        <ele>853.489</ele>
        <time>2019-10-14T14:19:25Z</time>
      </trkpt>
      <trkpt lat="-22.234374" lon="-46.105945">
        <ele>853.975</ele>
        <time>2019-10-14T14:19:28Z</time>
      </trkpt>
      <trkpt lat="-22.234319" lon="-46.105904">
        <ele>854.044</ele>
        <time>2019-10-14T14:19:32Z</time>
      </trkpt>
      <trkpt lat="-22.234263" lon="-46.105864">
        <ele>854.605</ele>
        <time>2019-10-14T14:19:36Z</time>
      </trkpt>
      <trkpt lat="-22.234208" lon="-46.105822">
        <ele>855.315</ele>
        <time>2019-10-14T14:19:41Z</time>
      </trkpt>
      <trkpt lat="-22.234158" lon="-46.105784">
        <ele>855.508</ele>
        <time>2019-10-14T14:19:44Z</time>
      </trkpt>
      <trkpt lat="-22.234117" lon="-46.105758">
        <ele>856.258</ele>
        <time>2019-10-14T14:19:48Z</time>
      </trkpt>
      <trkpt lat="-22.234071" lon="-46.105720">
        <ele>857.346</ele>
        <time>2019-10-14T14:19:52Z</time>
      </trkpt>
      <trkpt lat="-22.234035" lon="-46.105689">
        <ele>857.638</ele>
        <time>2019-10-14T14:19:55Z</time>
      </trkpt>
      <trkpt lat="-22.233991" lon="-46.105653">
        <ele>858.230</ele>
        <time>2019-10-14T14:19:59Z</time>
      </trkpt>
      <trkpt lat="-22.233954" lon="-46.105611">
        <ele>858.522</ele>
        <time>2019-10-14T14:20:01Z</time>
      </trkpt>
      <trkpt lat="-22.233915" lon="-46.105567">
        <ele>859.155</ele>
        <time>2019-10-14T14:20:05Z</time>
      </trkpt>
      <trkpt lat="-22.233875" lon="-46.105534">
        <ele>859.340</ele>
        <time>2019-10-14T14:20:07Z</time>
      </trkpt>
      <trkpt lat="-22.233831" lon="-46.105503">
        <ele>859.716</ele>
        <time>2019-10-14T14:20:10Z</time>
      </trkpt>
      <trkpt lat="-22.233795" lon="-46.105467">
        <ele>860.191</ele>
        <time>2019-10-14T14:20:13Z</time>
      </trkpt>
      <trkpt lat="-22.233751" lon="-46.105428">
        <ele>860.281</ele>
        <time>2019-10-14T14:20:15Z</time>
      </trkpt>
      <trkpt lat="-22.233706" lon="-46.105386">
        <ele>860.619</ele>
        <time>2019-10-14T14:20:18Z</time>
      </trkpt>
      <trkpt lat="-22.233671" lon="-46.105348">
        <ele>861.008</ele>
        <time>2019-10-14T14:20:22Z</time>
      </trkpt>
      <trkpt lat="-22.233634" lon="-46.105311">
        <ele>861.413</ele>
        <time>2019-10-14T14:20:24Z</time>
      </trkpt>
      <trkpt lat="-22.233591" lon="-46.105273">
        <ele>861.741</ele>
        <time>2019-10-14T14:20:28Z</time>
      </trkpt>
      <trkpt lat="-22.233543" lon="-46.105218">
        <ele>862.493</ele>
        <time>2019-10-14T14:20:31Z</time>
      </trkpt>
      <trkpt lat="-22.233505" lon="-46.105187">
        <ele>862.885</ele>
        <time>2019-10-14T14:20:35Z</time>
      </trkpt>
      <trkpt lat="-22.233466" lon="-46.105152">
        <ele>863.357</ele>
        <time>2019-10-14T14:20:37Z</time>
      </trkpt>
      <trkpt lat="-22.233419" lon="-46.105120">
        <ele>864.350</ele>
        <time>2019-10-14T14:20:41Z</time>
      </trkpt>
      <trkpt lat="-22.233372" lon="-46.105090">
        <ele>864.425</ele>
        <time>2019-10-14T14:20:43Z</time>
      </trkpt>
      <trkpt lat="-22.233325" lon="-46.105049">
        <ele>865.011</ele>
        <time>2019-10-14T14:20:46Z</time>
      </trkpt>
      <trkpt lat="-22.233280" lon="-46.105017">
        <ele>865.459</ele>
        <time>2019-10-14T14:20:49Z</time>
      </trkpt>
      <trkpt lat="-22.233237" lon="-46.104984">
        <ele>865.503</ele>
        <time>2019-10-14T14:20:52Z</time>
      </trkpt>
      <trkpt lat="-22.233181" lon="-46.104956">
        <ele>866.623</ele>
        <time>2019-10-14T14:20:56Z</time>
      </trkpt>
      <trkpt lat="-22.233131" lon="-46.104918">
        <ele>866.808</ele>
        <time>2019-10-14T14:20:59Z</time>
      </trkpt>
      <trkpt lat="-22.233083" lon="-46.104888">
        <ele>867.569</ele>
        <time>2019-10-14T14:21:02Z</time>
      </trkpt>
      <trkpt lat="-22.233040" lon="-46.104872">
        <ele>867.647</ele>
        <time>2019-10-14T14:21:04Z</time>
      </trkpt>
      <trkpt lat="-22.232990" lon="-46.104841">
        <ele>868.019</ele>
        <time>2019-10-14T14:21:06Z</time>
      </trkpt>
      <trkpt lat="-22.232948" lon="-46.104809">
        <ele>868.011</ele>
        <time>2019-10-14T14:21:09Z</time>
      </trkpt>
      <trkpt lat="-22.232907" lon="-46.104779">
        <ele>868.573</ele>
        <time>2019-10-14T14:21:12Z</time>
      </trkpt>
      <trkpt lat="-22.232854" lon="-46.104744">
        <ele>868.116</ele>
        <time>2019-10-14T14:21:16Z</time>
      </trkpt>
      <trkpt lat="-22.232814" lon="-46.104707">
        <ele>868.051</ele>
        <time>2019-10-14T14:21:18Z</time>
      </trkpt>
      <trkpt lat="-22.232775" lon="-46.104666">
        <ele>867.977</ele>
        <time>2019-10-14T14:21:20Z</time>
      </trkpt>
      <trkpt lat="-22.232736" lon="-46.104621">
        <ele>867.576</ele>
        <time>2019-10-14T14:21:22Z</time>
      </trkpt>
      <trkpt lat="-22.232675" lon="-46.104553">
        <ele>867.290</ele>
        <time>2019-10-14T14:21:24Z</time>
      </trkpt>
      <trkpt lat="-22.232630" lon="-46.104495">
        <ele>867.319</ele>
        <time>2019-10-14T14:21:26Z</time>
      </trkpt>
      <trkpt lat="-22.232593" lon="-46.104451">
        <ele>867.208</ele>
        <time>2019-10-14T14:21:28Z</time>
      </trkpt>
      <trkpt lat="-22.232548" lon="-46.104400">
        <ele>866.891</ele>
        <time>2019-10-14T14:21:30Z</time>
      </trkpt>
      <trkpt lat="-22.232508" lon="-46.104360">
        <ele>867.149</ele>
        <time>2019-10-14T14:21:31Z</time>
      </trkpt>
      <trkpt lat="-22.232469" lon="-46.104316">
        <ele>867.061</ele>
        <time>2019-10-14T14:21:33Z</time>
      </trkpt>
      <trkpt lat="-22.232414" lon="-46.104257">
        <ele>866.923</ele>
        <time>2019-10-14T14:21:35Z</time>
      </trkpt>
      <trkpt lat="-22.232370" lon="-46.104216">
        <ele>867.215</ele>
        <time>2019-10-14T14:21:37Z</time>
      </trkpt>
      <trkpt lat="-22.232334" lon="-46.104183">
        <ele>867.428</ele>
        <time>2019-10-14T14:21:38Z</time>
      </trkpt>
      <trkpt lat="-22.232278" lon="-46.104131">
        <ele>867.123</ele>
        <time>2019-10-14T14:21:40Z</time>
      </trkpt>
      <trkpt lat="-22.232229" lon="-46.104091">
        <ele>867.339</ele>
        <time>2019-10-14T14:21:42Z</time>
      </trkpt>
      <trkpt lat="-22.232184" lon="-46.104052">
        <ele>867.263</ele>
        <time>2019-10-14T14:21:43Z</time>
      </trkpt>
      <trkpt lat="-22.232134" lon="-46.104013">
        <ele>867.244</ele>
        <time>2019-10-14T14:21:45Z</time>
      </trkpt>
      <trkpt lat="-22.232049" lon="-46.103946">
        <ele>867.618</ele>
        <time>2019-10-14T14:21:48Z</time>
      </trkpt>
      <trkpt lat="-22.232005" lon="-46.103908">
        <ele>867.708</ele>
        <time>2019-10-14T14:21:49Z</time>
      </trkpt>
      <trkpt lat="-22.231964" lon="-46.103874">
        <ele>867.910</ele>
        <time>2019-10-14T14:21:51Z</time>
      </trkpt>
      <trkpt lat="-22.231899" lon="-46.103836">
        <ele>868.378</ele>
        <time>2019-10-14T14:21:53Z</time>
      </trkpt>
      <trkpt lat="-22.231851" lon="-46.103815">
        <ele>868.260</ele>
        <time>2019-10-14T14:21:55Z</time>
      </trkpt>
      <trkpt lat="-22.231785" lon="-46.103780">
        <ele>868.312</ele>
        <time>2019-10-14T14:21:58Z</time>
      </trkpt>
      <trkpt lat="-22.231686" lon="-46.103731">
        <ele>868.594</ele>
        <time>2019-10-14T14:22:00Z</time>
      </trkpt>
      <trkpt lat="-22.231625" lon="-46.103693">
        <ele>868.667</ele>
        <time>2019-10-14T14:22:03Z</time>
      </trkpt>
      <trkpt lat="-22.231580" lon="-46.103657">
        <ele>868.282</ele>
        <time>2019-10-14T14:22:05Z</time>
      </trkpt>
      <trkpt lat="-22.231523" lon="-46.103600">
        <ele>868.048</ele>
        <time>2019-10-14T14:22:06Z</time>
      </trkpt>
      <trkpt lat="-22.231465" lon="-46.103537">
        <ele>868.047</ele>
        <time>2019-10-14T14:22:08Z</time>
      </trkpt>
      <trkpt lat="-22.231431" lon="-46.103482">
        <ele>868.329</ele>
        <time>2019-10-14T14:22:10Z</time>
      </trkpt>
      <trkpt lat="-22.230269" lon="-46.101163">
        <ele>863.221</ele>
        <time>2019-10-14T14:23:00Z</time>
      </trkpt>
      <trkpt lat="-22.230254" lon="-46.101099">
        <ele>863.608</ele>
        <time>2019-10-14T14:23:03Z</time>
      </trkpt>
      <trkpt lat="-22.230207" lon="-46.101025">
        <ele>864.218</ele>
        <time>2019-10-14T14:23:05Z</time>
      </trkpt>
      <trkpt lat="-22.230179" lon="-46.100976">
        <ele>864.216</ele>
        <time>2019-10-14T14:23:06Z</time>
      </trkpt>
      <trkpt lat="-22.230155" lon="-46.100911">
        <ele>864.088</ele>
        <time>2019-10-14T14:23:07Z</time>
      </trkpt>
      <trkpt lat="-22.230139" lon="-46.100831">
        <ele>863.890</ele>
        <time>2019-10-14T14:23:09Z</time>
      </trkpt>
      <trkpt lat="-22.230141" lon="-46.100779">
        <ele>864.252</ele>
        <time>2019-10-14T14:23:11Z</time>
      </trkpt>
      <trkpt lat="-22.230142" lon="-46.100717">
        <ele>864.775</ele>
        <time>2019-10-14T14:23:12Z</time>
      </trkpt>
      <trkpt lat="-22.230140" lon="-46.100628">
        <ele>865.080</ele>
        <time>2019-10-14T14:23:15Z</time>
      </trkpt>
      <trkpt lat="-22.230135" lon="-46.100564">
        <ele>865.836</ele>
        <time>2019-10-14T14:23:17Z</time>
      </trkpt>
      <trkpt lat="-22.230135" lon="-46.100492">
        <ele>866.342</ele>
        <time>2019-10-14T14:23:20Z</time>
      </trkpt>
      <trkpt lat="-22.230144" lon="-46.100439">
        <ele>866.922</ele>
        <time>2019-10-14T14:23:22Z</time>
      </trkpt>
      <trkpt lat="-22.230165" lon="-46.100389">
        <ele>867.214</ele>
        <time>2019-10-14T14:23:24Z</time>
      </trkpt>
      <trkpt lat="-22.230184" lon="-46.100338">
        <ele>867.808</ele>
        <time>2019-10-14T14:23:27Z</time>
      </trkpt>
      <trkpt lat="-22.230208" lon="-46.100268">
        <ele>868.678</ele>
        <time>2019-10-14T14:23:31Z</time>
      </trkpt>
      <trkpt lat="-22.230224" lon="-46.100218">
        <ele>868.746</ele>
        <time>2019-10-14T14:23:33Z</time>
      </trkpt>
      <trkpt lat="-22.230229" lon="-46.100158">
        <ele>869.398</ele>
        <time>2019-10-14T14:23:37Z</time>
      </trkpt>
      <trkpt lat="-22.230227" lon="-46.100099">
        <ele>870.430</ele>
        <time>2019-10-14T14:23:40Z</time>
      </trkpt>
      <trkpt lat="-22.230220" lon="-46.100032">
        <ele>870.712</ele>
        <time>2019-10-14T14:23:44Z</time>
      </trkpt>
      <trkpt lat="-22.230220" lon="-46.099982">
        <ele>871.645</ele>
        <time>2019-10-14T14:23:47Z</time>
      </trkpt>
      <trkpt lat="-22.230209" lon="-46.099927">
        <ele>872.250</ele>
        <time>2019-10-14T14:23:51Z</time>
      </trkpt>
      <trkpt lat="-22.230196" lon="-46.099855">
        <ele>872.876</ele>
        <time>2019-10-14T14:23:55Z</time>
      </trkpt>
      <trkpt lat="-22.230194" lon="-46.099806">
        <ele>873.273</ele>
        <time>2019-10-14T14:23:58Z</time>
      </trkpt>
      <trkpt lat="-22.230185" lon="-46.099738">
        <ele>874.185</ele>
        <time>2019-10-14T14:24:03Z</time>
      </trkpt>
      <trkpt lat="-22.230178" lon="-46.099687">
        <ele>874.513</ele>
        <time>2019-10-14T14:24:07Z</time>
      </trkpt>
      <trkpt lat="-22.230164" lon="-46.099627">
        <ele>875.108</ele>
        <time>2019-10-14T14:24:11Z</time>
      </trkpt>
      <trkpt lat="-22.230156" lon="-46.099576">
        <ele>875.581</ele>
        <time>2019-10-14T14:24:13Z</time>
      </trkpt>
      <trkpt lat="-22.230148" lon="-46.099519">
        <ele>876.199</ele>
        <time>2019-10-14T14:24:16Z</time>
      </trkpt>
      <trkpt lat="-22.230133" lon="-46.099441">
        <ele>876.721</ele>
        <time>2019-10-14T14:24:21Z</time>
      </trkpt>
      <trkpt lat="-22.230125" lon="-46.099393">
        <ele>876.923</ele>
        <time>2019-10-14T14:24:24Z</time>
      </trkpt>
      <trkpt lat="-22.230120" lon="-46.099341">
        <ele>877.655</ele>
        <time>2019-10-14T14:24:27Z</time>
      </trkpt>
      <trkpt lat="-22.230105" lon="-46.099285">
        <ele>877.668</ele>
        <time>2019-10-14T14:24:31Z</time>
      </trkpt>
      <trkpt lat="-22.230093" lon="-46.099233">
        <ele>877.853</ele>
        <time>2019-10-14T14:24:33Z</time>
      </trkpt>
      <trkpt lat="-22.230088" lon="-46.099171">
        <ele>878.249</ele>
        <time>2019-10-14T14:24:36Z</time>
      </trkpt>
      <trkpt lat="-22.230080" lon="-46.099114">
        <ele>878.678</ele>
        <time>2019-10-14T14:24:40Z</time>
      </trkpt>
      <trkpt lat="-22.230061" lon="-46.099043">
        <ele>879.133</ele>
        <time>2019-10-14T14:24:43Z</time>
      </trkpt>
      <trkpt lat="-22.230059" lon="-46.098991">
        <ele>879.426</ele>
        <time>2019-10-14T14:24:46Z</time>
      </trkpt>
      <trkpt lat="-22.230056" lon="-46.098928">
        <ele>879.808</ele>
        <time>2019-10-14T14:24:49Z</time>
      </trkpt>
      <trkpt lat="-22.230052" lon="-46.098866">
        <ele>880.661</ele>
        <time>2019-10-14T14:24:53Z</time>
      </trkpt>
      <trkpt lat="-22.230046" lon="-46.098813">
        <ele>880.919</ele>
        <time>2019-10-14T14:24:56Z</time>
      </trkpt>
      <trkpt lat="-22.230039" lon="-46.098760">
        <ele>880.911</ele>
        <time>2019-10-14T14:24:58Z</time>
      </trkpt>
      <trkpt lat="-22.230033" lon="-46.098705">
        <ele>881.063</ele>
        <time>2019-10-14T14:25:01Z</time>
      </trkpt>
      <trkpt lat="-22.230026" lon="-46.098647">
        <ele>881.885</ele>
        <time>2019-10-14T14:25:05Z</time>
      </trkpt>
      <trkpt lat="-22.230027" lon="-46.098595">
        <ele>882.058</ele>
        <time>2019-10-14T14:25:07Z</time>
      </trkpt>
      <trkpt lat="-22.230032" lon="-46.098543">
        <ele>882.413</ele>
        <time>2019-10-14T14:25:11Z</time>
      </trkpt>
      <trkpt lat="-22.230039" lon="-46.098489">
        <ele>883.039</ele>
        <time>2019-10-14T14:25:14Z</time>
      </trkpt>
      <trkpt lat="-22.230047" lon="-46.098427">
        <ele>883.651</ele>
        <time>2019-10-14T14:25:17Z</time>
      </trkpt>
      <trkpt lat="-22.230055" lon="-46.098365">
        <ele>884.301</ele>
        <time>2019-10-14T14:25:22Z</time>
      </trkpt>
      <trkpt lat="-22.230065" lon="-46.098311">
        <ele>884.711</ele>
        <time>2019-10-14T14:25:24Z</time>
      </trkpt>
      <trkpt lat="-22.230086" lon="-46.098263">
        <ele>885.608</ele>
        <time>2019-10-14T14:25:28Z</time>
      </trkpt>
      <trkpt lat="-22.230109" lon="-46.098204">
        <ele>886.619</ele>
        <time>2019-10-14T14:25:33Z</time>
      </trkpt>
      <trkpt lat="-22.230121" lon="-46.098156">
        <ele>887.137</ele>
        <time>2019-10-14T14:25:36Z</time>
      </trkpt>
      <trkpt lat="-22.230134" lon="-46.098100">
        <ele>887.689</ele>
        <time>2019-10-14T14:25:38Z</time>
      </trkpt>
      <trkpt lat="-22.230149" lon="-46.098051">
        <ele>888.081</ele>
        <time>2019-10-14T14:25:42Z</time>
      </trkpt>
      <trkpt lat="-22.230171" lon="-46.098001">
        <ele>888.123</ele>
        <time>2019-10-14T14:25:45Z</time>
      </trkpt>
      <trkpt lat="-22.230191" lon="-46.097947">
        <ele>889.236</ele>
        <time>2019-10-14T14:25:49Z</time>
      </trkpt>
      <trkpt lat="-22.230228" lon="-46.097902">
        <ele>890.291</ele>
        <time>2019-10-14T14:25:53Z</time>
      </trkpt>
      <trkpt lat="-22.230255" lon="-46.097855">
        <ele>891.447</ele>
        <time>2019-10-14T14:25:58Z</time>
      </trkpt>
      <trkpt lat="-22.230276" lon="-46.097801">
        <ele>892.977</ele>
        <time>2019-10-14T14:26:06Z</time>
      </trkpt>
      <trkpt lat="-22.230298" lon="-46.097747">
        <ele>893.461</ele>
        <time>2019-10-14T14:26:11Z</time>
      </trkpt>
      <trkpt lat="-22.230319" lon="-46.097691">
        <ele>894.527</ele>
        <time>2019-10-14T14:26:16Z</time>
      </trkpt>
      <trkpt lat="-22.230343" lon="-46.097633">
        <ele>895.108</ele>
        <time>2019-10-14T14:26:20Z</time>
      </trkpt>
      <trkpt lat="-22.230389" lon="-46.097535">
        <ele>896.151</ele>
        <time>2019-10-14T14:26:25Z</time>
      </trkpt>
      <trkpt lat="-22.230418" lon="-46.097474">
        <ele>897.639</ele>
        <time>2019-10-14T14:26:32Z</time>
      </trkpt>
      <trkpt lat="-22.230442" lon="-46.097432">
        <ele>898.011</ele>
        <time>2019-10-14T14:26:36Z</time>
      </trkpt>
      <trkpt lat="-22.230480" lon="-46.097373">
        <ele>899.013</ele>
        <time>2019-10-14T14:26:43Z</time>
      </trkpt>
      <trkpt lat="-22.230509" lon="-46.097318">
        <ele>900.225</ele>
        <time>2019-10-14T14:26:50Z</time>
      </trkpt>
      <trkpt lat="-22.230538" lon="-46.097269">
        <ele>900.878</ele>
        <time>2019-10-14T14:26:55Z</time>
      </trkpt>
      <trkpt lat="-22.230556" lon="-46.097223">
        <ele>901.333</ele>
        <time>2019-10-14T14:26:59Z</time>
      </trkpt>
      <trkpt lat="-22.230579" lon="-46.097165">
        <ele>902.229</ele>
        <time>2019-10-14T14:27:04Z</time>
      </trkpt>
      <trkpt lat="-22.230598" lon="-46.097103">
        <ele>902.477</ele>
        <time>2019-10-14T14:27:06Z</time>
      </trkpt>
      <trkpt lat="-22.230623" lon="-46.097040">
        <ele>903.261</ele>
        <time>2019-10-14T14:27:11Z</time>
      </trkpt>
      <trkpt lat="-22.230647" lon="-46.096986">
        <ele>904.427</ele>
        <time>2019-10-14T14:27:18Z</time>
      </trkpt>
      <trkpt lat="-22.230673" lon="-46.096923">
        <ele>905.608</ele>
        <time>2019-10-14T14:27:24Z</time>
      </trkpt>
      <trkpt lat="-22.230687" lon="-46.096874">
        <ele>906.961</ele>
        <time>2019-10-14T14:27:33Z</time>
      </trkpt>
      <trkpt lat="-22.230704" lon="-46.096824">
        <ele>907.849</ele>
        <time>2019-10-14T14:27:40Z</time>
      </trkpt>
      <trkpt lat="-22.230720" lon="-46.096774">
        <ele>908.281</ele>
        <time>2019-10-14T14:27:42Z</time>
      </trkpt>
      <trkpt lat="-22.230732" lon="-46.096716">
        <ele>909.493</ele>
        <time>2019-10-14T14:27:48Z</time>
      </trkpt>
      <trkpt lat="-22.230741" lon="-46.096657">
        <ele>910.265</ele>
        <time>2019-10-14T14:27:53Z</time>
      </trkpt>
      <trkpt lat="-22.230744" lon="-46.096599">
        <ele>910.778</ele>
        <time>2019-10-14T14:27:56Z</time>
      </trkpt>
      <trkpt lat="-22.230745" lon="-46.096525">
        <ele>911.733</ele>
        <time>2019-10-14T14:28:02Z</time>
      </trkpt>
      <trkpt lat="-22.230738" lon="-46.096470">
        <ele>912.479</ele>
        <time>2019-10-14T14:28:05Z</time>
      </trkpt>
      <trkpt lat="-22.230747" lon="-46.096365">
        <ele>914.022</ele>
        <time>2019-10-14T14:28:17Z</time>
      </trkpt>
      <trkpt lat="-22.230750" lon="-46.096306">
        <ele>914.762</ele>
        <time>2019-10-14T14:28:23Z</time>
      </trkpt>
      <trkpt lat="-22.230750" lon="-46.096243">
        <ele>915.308</ele>
        <time>2019-10-14T14:28:27Z</time>
      </trkpt>
      <trkpt lat="-22.230752" lon="-46.096188">
        <ele>916.108</ele>
        <time>2019-10-14T14:28:31Z</time>
      </trkpt>
      <trkpt lat="-22.230753" lon="-46.096134">
        <ele>916.586</ele>
        <time>2019-10-14T14:28:36Z</time>
      </trkpt>
      <trkpt lat="-22.230754" lon="-46.096062">
        <ele>917.094</ele>
        <time>2019-10-14T14:28:41Z</time>
      </trkpt>
      <trkpt lat="-22.230747" lon="-46.095992">
        <ele>917.666</ele>
        <time>2019-10-14T14:28:45Z</time>
      </trkpt>
      <trkpt lat="-22.230744" lon="-46.095942">
        <ele>918.048</ele>
        <time>2019-10-14T14:28:49Z</time>
      </trkpt>
      <trkpt lat="-22.230737" lon="-46.095894">
        <ele>918.550</ele>
        <time>2019-10-14T14:28:53Z</time>
      </trkpt>
      <trkpt lat="-22.230733" lon="-46.095845">
        <ele>919.363</ele>
        <time>2019-10-14T14:28:57Z</time>
      </trkpt>
      <trkpt lat="-22.230721" lon="-46.095796">
        <ele>919.818</ele>
        <time>2019-10-14T14:29:00Z</time>
      </trkpt>
      <trkpt lat="-22.230715" lon="-46.095745">
        <ele>920.554</ele>
        <time>2019-10-14T14:29:04Z</time>
      </trkpt>
      <trkpt lat="-22.230705" lon="-46.095670">
        <ele>921.534</ele>
        <time>2019-10-14T14:29:11Z</time>
      </trkpt>
      <trkpt lat="-22.230689" lon="-46.095578">
        <ele>923.455</ele>
        <time>2019-10-14T14:29:20Z</time>
      </trkpt>
      <trkpt lat="-22.230673" lon="-46.095484">
        <ele>925.110</ele>
        <time>2019-10-14T14:29:28Z</time>
      </trkpt>
      <trkpt lat="-22.230659" lon="-46.095405">
        <ele>926.608</ele>
        <time>2019-10-14T14:29:34Z</time>
      </trkpt>
      <trkpt lat="-22.230646" lon="-46.095337">
        <ele>927.497</ele>
        <time>2019-10-14T14:29:40Z</time>
      </trkpt>
      <trkpt lat="-22.230623" lon="-46.095251">
        <ele>929.295</ele>
        <time>2019-10-14T14:29:48Z</time>
      </trkpt>
      <trkpt lat="-22.230610" lon="-46.095195">
        <ele>930.057</ele>
        <time>2019-10-14T14:29:53Z</time>
      </trkpt>
      <trkpt lat="-22.230597" lon="-46.095145">
        <ele>930.859</ele>
        <time>2019-10-14T14:29:57Z</time>
      </trkpt>
      <trkpt lat="-22.230579" lon="-46.095095">
        <ele>931.991</ele>
        <time>2019-10-14T14:30:02Z</time>
      </trkpt>
      <trkpt lat="-22.230554" lon="-46.095030">
        <ele>932.944</ele>
        <time>2019-10-14T14:30:06Z</time>
      </trkpt>
      <trkpt lat="-22.230541" lon="-46.094977">
        <ele>934.119</ele>
        <time>2019-10-14T14:30:10Z</time>
      </trkpt>
      <trkpt lat="-22.230525" lon="-46.094930">
        <ele>934.925</ele>
        <time>2019-10-14T14:30:14Z</time>
      </trkpt>
      <trkpt lat="-22.230511" lon="-46.094849">
        <ele>936.536</ele>
        <time>2019-10-14T14:30:22Z</time>
      </trkpt>
      <trkpt lat="-22.230490" lon="-46.094770">
        <ele>938.217</ele>
        <time>2019-10-14T14:30:30Z</time>
      </trkpt>
      <trkpt lat="-22.230447" lon="-46.094696">
        <ele>940.118</ele>
        <time>2019-10-14T14:30:38Z</time>
      </trkpt>
      <trkpt lat="-22.230414" lon="-46.094635">
        <ele>940.708</ele>
        <time>2019-10-14T14:30:45Z</time>
      </trkpt>
      <trkpt lat="-22.230392" lon="-46.094588">
        <ele>941.617</ele>
        <time>2019-10-14T14:30:49Z</time>
      </trkpt>
      <trkpt lat="-22.230360" lon="-46.094535">
        <ele>942.585</ele>
        <time>2019-10-14T14:30:55Z</time>
      </trkpt>
      <trkpt lat="-22.230323" lon="-46.094471">
        <ele>943.917</ele>
        <time>2019-10-14T14:31:03Z</time>
      </trkpt>
      <trkpt lat="-22.230284" lon="-46.094388">
        <ele>945.189</ele>
        <time>2019-10-14T14:31:12Z</time>
      </trkpt>
      <trkpt lat="-22.230252" lon="-46.094332">
        <ele>945.581</ele>
        <time>2019-10-14T14:31:17Z</time>
      </trkpt>
      <trkpt lat="-22.230219" lon="-46.094270">
        <ele>946.274</ele>
        <time>2019-10-14T14:31:19Z</time>
      </trkpt>
      <trkpt lat="-22.230200" lon="-46.094224">
        <ele>946.679</ele>
        <time>2019-10-14T14:31:21Z</time>
      </trkpt>
      <trkpt lat="-22.230182" lon="-46.094175">
        <ele>946.835</ele>
        <time>2019-10-14T14:31:22Z</time>
      </trkpt>
      <trkpt lat="-22.230167" lon="-46.094123">
        <ele>947.665</ele>
        <time>2019-10-14T14:31:28Z</time>
      </trkpt>
      <trkpt lat="-22.230131" lon="-46.094047">
        <ele>948.068</ele>
        <time>2019-10-14T14:31:33Z</time>
      </trkpt>
      <trkpt lat="-22.230106" lon="-46.094000">
        <ele>948.314</ele>
        <time>2019-10-14T14:31:35Z</time>
      </trkpt>
      <trkpt lat="-22.230092" lon="-46.093946">
        <ele>948.908</ele>
        <time>2019-10-14T14:31:38Z</time>
      </trkpt>
      <trkpt lat="-22.230085" lon="-46.093894">
        <ele>948.810</ele>
        <time>2019-10-14T14:31:40Z</time>
      </trkpt>
      <trkpt lat="-22.230069" lon="-46.093834">
        <ele>949.088</ele>
        <time>2019-10-14T14:31:43Z</time>
      </trkpt>
      <trkpt lat="-22.230052" lon="-46.093773">
        <ele>949.230</ele>
        <time>2019-10-14T14:31:46Z</time>
      </trkpt>
      <trkpt lat="-22.230044" lon="-46.093712">
        <ele>949.752</ele>
        <time>2019-10-14T14:31:49Z</time>
      </trkpt>
      <trkpt lat="-22.230032" lon="-46.093632">
        <ele>949.854</ele>
        <time>2019-10-14T14:31:54Z</time>
      </trkpt>
      <trkpt lat="-22.230023" lon="-46.093584">
        <ele>949.927</ele>
        <time>2019-10-14T14:31:58Z</time>
      </trkpt>
      <trkpt lat="-22.230014" lon="-46.093530">
        <ele>950.112</ele>
        <time>2019-10-14T14:32:00Z</time>
      </trkpt>
      <trkpt lat="-22.230006" lon="-46.093480">
        <ele>950.258</ele>
        <time>2019-10-14T14:32:02Z</time>
      </trkpt>
      <trkpt lat="-22.229985" lon="-46.093408">
        <ele>950.696</ele>
        <time>2019-10-14T14:32:05Z</time>
      </trkpt>
      <trkpt lat="-22.229966" lon="-46.093350">
        <ele>950.631</ele>
        <time>2019-10-14T14:32:08Z</time>
      </trkpt>
      <trkpt lat="-22.229951" lon="-46.093299">
        <ele>950.824</ele>
        <time>2019-10-14T14:32:10Z</time>
      </trkpt>
      <trkpt lat="-22.229925" lon="-46.093217">
        <ele>951.208</ele>
        <time>2019-10-14T14:32:14Z</time>
      </trkpt>
      <trkpt lat="-22.229898" lon="-46.093171">
        <ele>951.413</ele>
        <time>2019-10-14T14:32:17Z</time>
      </trkpt>
      <trkpt lat="-22.229846" lon="-46.093119">
        <ele>951.881</ele>
        <time>2019-10-14T14:32:20Z</time>
      </trkpt>
      <trkpt lat="-22.229807" lon="-46.093063">
        <ele>951.513</ele>
        <time>2019-10-14T14:32:23Z</time>
      </trkpt>
      <trkpt lat="-22.229778" lon="-46.093008">
        <ele>951.565</ele>
        <time>2019-10-14T14:32:26Z</time>
      </trkpt>
      <trkpt lat="-22.229742" lon="-46.092954">
        <ele>951.317</ele>
        <time>2019-10-14T14:32:28Z</time>
      </trkpt>
      <trkpt lat="-22.229695" lon="-46.092909">
        <ele>951.370</ele>
        <time>2019-10-14T14:32:30Z</time>
      </trkpt>
      <trkpt lat="-22.229650" lon="-46.092866">
        <ele>951.325</ele>
        <time>2019-10-14T14:32:32Z</time>
      </trkpt>
      <trkpt lat="-22.229611" lon="-46.092822">
        <ele>951.511</ele>
        <time>2019-10-14T14:32:34Z</time>
      </trkpt>
      <trkpt lat="-22.229576" lon="-46.092789">
        <ele>951.322</ele>
        <time>2019-10-14T14:32:35Z</time>
      </trkpt>
      <trkpt lat="-22.229537" lon="-46.092758">
        <ele>951.862</ele>
        <time>2019-10-14T14:32:37Z</time>
      </trkpt>
      <trkpt lat="-22.229499" lon="-46.092727">
        <ele>951.808</ele>
        <time>2019-10-14T14:32:38Z</time>
      </trkpt>
      <trkpt lat="-22.229439" lon="-46.092675">
        <ele>951.708</ele>
        <time>2019-10-14T14:32:41Z</time>
      </trkpt>
      <trkpt lat="-22.229382" lon="-46.092631">
        <ele>951.966</ele>
        <time>2019-10-14T14:32:43Z</time>
      </trkpt>
      <trkpt lat="-22.229340" lon="-46.092601">
        <ele>951.874</ele>
        <time>2019-10-14T14:32:45Z</time>
      </trkpt>
      <trkpt lat="-22.229279" lon="-46.092568">
        <ele>952.236</ele>
        <time>2019-10-14T14:32:48Z</time>
      </trkpt>
      <trkpt lat="-22.229229" lon="-46.092543">
        <ele>952.628</ele>
        <time>2019-10-14T14:32:57Z</time>
      </trkpt>
      <trkpt lat="-22.229169" lon="-46.092527">
        <ele>953.380</ele>
        <time>2019-10-14T14:33:27Z</time>
      </trkpt>
      <trkpt lat="-22.229129" lon="-46.092504">
        <ele>953.943</ele>
        <time>2019-10-14T14:33:31Z</time>
      </trkpt>
      <trkpt lat="-22.229092" lon="-46.092473">
        <ele>953.938</ele>
        <time>2019-10-14T14:33:34Z</time>
      </trkpt>
      <trkpt lat="-22.229038" lon="-46.092444">
        <ele>954.284</ele>
        <time>2019-10-14T14:38:29Z</time>
      </trkpt>
      <trkpt lat="-22.228991" lon="-46.092423">
        <ele>954.637</ele>
        <time>2019-10-14T14:38:31Z</time>
      </trkpt>
      <trkpt lat="-22.228949" lon="-46.092402">
        <ele>955.149</ele>
        <time>2019-10-14T14:38:34Z</time>
      </trkpt>
      <trkpt lat="-22.228898" lon="-46.092379">
        <ele>955.413</ele>
        <time>2019-10-14T14:38:37Z</time>
      </trkpt>
      <trkpt lat="-22.228826" lon="-46.092347">
        <ele>956.508</ele>
        <time>2019-10-14T14:38:44Z</time>
      </trkpt>
      <trkpt lat="-22.228774" lon="-46.092332">
        <ele>956.637</ele>
        <time>2019-10-14T14:38:47Z</time>
      </trkpt>
      <trkpt lat="-22.228711" lon="-46.092306">
        <ele>957.745</ele>
        <time>2019-10-14T14:38:52Z</time>
      </trkpt>
      <trkpt lat="-22.228665" lon="-46.092279">
        <ele>958.377</ele>
        <time>2019-10-14T14:38:56Z</time>
      </trkpt>
      <trkpt lat="-22.228617" lon="-46.092258">
        <ele>959.369</ele>
        <time>2019-10-14T14:39:00Z</time>
      </trkpt>
      <trkpt lat="-22.228565" lon="-46.092236">
        <ele>960.361</ele>
        <time>2019-10-14T14:39:06Z</time>
      </trkpt>
      <trkpt lat="-22.228508" lon="-46.092203">
        <ele>961.914</ele>
        <time>2019-10-14T14:39:18Z</time>
      </trkpt>
      <trkpt lat="-22.228465" lon="-46.092184">
        <ele>963.239</ele>
        <time>2019-10-14T14:39:24Z</time>
      </trkpt>
      <trkpt lat="-22.228409" lon="-46.092163">
        <ele>964.225</ele>
        <time>2019-10-14T14:39:32Z</time>
      </trkpt>
      <trkpt lat="-22.228260" lon="-46.092098">
        <ele>966.627</ele>
        <time>2019-10-14T14:39:52Z</time>
      </trkpt>
      <trkpt lat="-22.228215" lon="-46.092066">
        <ele>967.868</ele>
        <time>2019-10-14T14:39:59Z</time>
      </trkpt>
      <trkpt lat="-22.228176" lon="-46.092041">
        <ele>968.614</ele>
        <time>2019-10-14T14:40:03Z</time>
      </trkpt>
      <trkpt lat="-22.228090" lon="-46.092006">
        <ele>969.008</ele>
        <time>2019-10-14T14:40:12Z</time>
      </trkpt>
      <trkpt lat="-22.228021" lon="-46.091981">
        <ele>969.256</ele>
        <time>2019-10-14T14:40:19Z</time>
      </trkpt>
      <trkpt lat="-22.227946" lon="-46.091973">
        <ele>969.034</ele>
        <time>2019-10-14T14:40:21Z</time>
      </trkpt>
      <trkpt lat="-22.227900" lon="-46.091970">
        <ele>969.036</ele>
        <time>2019-10-14T14:40:22Z</time>
      </trkpt>
      <trkpt lat="-22.227852" lon="-46.091967">
        <ele>968.948</ele>
        <time>2019-10-14T14:40:24Z</time>
      </trkpt>
      <trkpt lat="-22.227806" lon="-46.091957">
        <ele>968.790</ele>
        <time>2019-10-14T14:40:26Z</time>
      </trkpt>
      <trkpt lat="-22.227746" lon="-46.091944">
        <ele>968.393</ele>
        <time>2019-10-14T14:40:27Z</time>
      </trkpt>
      <trkpt lat="-22.227702" lon="-46.091932">
        <ele>968.448</ele>
        <time>2019-10-14T14:40:29Z</time>
      </trkpt>
      <trkpt lat="-22.227654" lon="-46.091919">
        <ele>968.394</ele>
        <time>2019-10-14T14:40:31Z</time>
      </trkpt>
      <trkpt lat="-22.227601" lon="-46.091903">
        <ele>968.587</ele>
        <time>2019-10-14T14:40:33Z</time>
      </trkpt>
      <trkpt lat="-22.227555" lon="-46.091890">
        <ele>968.542</ele>
        <time>2019-10-14T14:40:35Z</time>
      </trkpt>
      <trkpt lat="-22.227508" lon="-46.091882">
        <ele>968.426</ele>
        <time>2019-10-14T14:40:37Z</time>
      </trkpt>
      <trkpt lat="-22.227434" lon="-46.091891">
        <ele>968.008</ele>
        <time>2019-10-14T14:40:40Z</time>
      </trkpt>
      <trkpt lat="-22.227381" lon="-46.091908">
        <ele>968.522</ele>
        <time>2019-10-14T14:40:42Z</time>
      </trkpt>
      <trkpt lat="-22.227319" lon="-46.091956">
        <ele>968.680</ele>
        <time>2019-10-14T14:40:46Z</time>
      </trkpt>
      <trkpt lat="-22.227273" lon="-46.091996">
        <ele>969.492</ele>
        <time>2019-10-14T14:40:48Z</time>
      </trkpt>
      <trkpt lat="-22.227231" lon="-46.092023">
        <ele>969.474</ele>
        <time>2019-10-14T14:40:51Z</time>
      </trkpt>
      <trkpt lat="-22.227168" lon="-46.092070">
        <ele>969.516</ele>
        <time>2019-10-14T14:40:55Z</time>
      </trkpt>
      <trkpt lat="-22.227119" lon="-46.092098">
        <ele>969.789</ele>
        <time>2019-10-14T14:40:57Z</time>
      </trkpt>
      <trkpt lat="-22.227076" lon="-46.092118">
        <ele>970.054</ele>
        <time>2019-10-14T14:40:59Z</time>
      </trkpt>
      <trkpt lat="-22.227030" lon="-46.092126">
        <ele>970.680</ele>
        <time>2019-10-14T14:41:02Z</time>
      </trkpt>
      <trkpt lat="-22.226972" lon="-46.092126">
        <ele>971.392</ele>
        <time>2019-10-14T14:41:05Z</time>
      </trkpt>
      <trkpt lat="-22.226926" lon="-46.092123">
        <ele>972.173</ele>
        <time>2019-10-14T14:41:09Z</time>
      </trkpt>
      <trkpt lat="-22.226874" lon="-46.092104">
        <ele>972.720</ele>
        <time>2019-10-14T14:41:12Z</time>
      </trkpt>
      <trkpt lat="-22.226837" lon="-46.092071">
        <ele>973.708</ele>
        <time>2019-10-14T14:41:19Z</time>
      </trkpt>
      <trkpt lat="-22.226776" lon="-46.091995">
        <ele>975.693</ele>
        <time>2019-10-14T14:41:31Z</time>
      </trkpt>
      <trkpt lat="-22.226748" lon="-46.091947">
        <ele>976.741</ele>
        <time>2019-10-14T14:41:35Z</time>
      </trkpt>
      <trkpt lat="-22.226726" lon="-46.091889">
        <ele>977.883</ele>
        <time>2019-10-14T14:41:39Z</time>
      </trkpt>
      <trkpt lat="-22.226710" lon="-46.091830">
        <ele>978.265</ele>
        <time>2019-10-14T14:41:41Z</time>
      </trkpt>
      <trkpt lat="-22.226690" lon="-46.091759">
        <ele>979.967</ele>
        <time>2019-10-14T14:41:46Z</time>
      </trkpt>
      <trkpt lat="-22.226688" lon="-46.091706">
        <ele>980.640</ele>
        <time>2019-10-14T14:41:52Z</time>
      </trkpt>
      <trkpt lat="-22.226686" lon="-46.091650">
        <ele>981.825</ele>
        <time>2019-10-14T14:42:00Z</time>
      </trkpt>
      <trkpt lat="-22.226678" lon="-46.091601">
        <ele>982.911</ele>
        <time>2019-10-14T14:42:07Z</time>
      </trkpt>
      <trkpt lat="-22.226672" lon="-46.091547">
        <ele>983.652</ele>
        <time>2019-10-14T14:42:14Z</time>
      </trkpt>
      <trkpt lat="-22.226667" lon="-46.091485">
        <ele>984.753</ele>
        <time>2019-10-14T14:42:23Z</time>
      </trkpt>
      <trkpt lat="-22.226663" lon="-46.091386">
        <ele>986.108</ele>
        <time>2019-10-14T14:42:37Z</time>
      </trkpt>
      <trkpt lat="-22.226660" lon="-46.091336">
        <ele>986.908</ele>
        <time>2019-10-14T14:42:42Z</time>
      </trkpt>
      <trkpt lat="-22.226642" lon="-46.091260">
        <ele>988.159</ele>
        <time>2019-10-14T14:42:51Z</time>
      </trkpt>
      <trkpt lat="-22.226628" lon="-46.091202">
        <ele>988.567</ele>
        <time>2019-10-14T14:42:56Z</time>
      </trkpt>
      <trkpt lat="-22.226614" lon="-46.091151">
        <ele>989.329</ele>
        <time>2019-10-14T14:43:01Z</time>
      </trkpt>
      <trkpt lat="-22.226600" lon="-46.091085">
        <ele>990.221</ele>
        <time>2019-10-14T14:43:06Z</time>
      </trkpt>
      <trkpt lat="-22.226567" lon="-46.091024">
        <ele>990.663</ele>
        <time>2019-10-14T14:43:13Z</time>
      </trkpt>
      <trkpt lat="-22.226531" lon="-46.090945">
        <ele>991.776</ele>
        <time>2019-10-14T14:43:20Z</time>
      </trkpt>
      <trkpt lat="-22.226497" lon="-46.090865">
        <ele>993.231</ele>
        <time>2019-10-14T14:43:26Z</time>
      </trkpt>
      <trkpt lat="-22.226462" lon="-46.090814">
        <ele>993.987</ele>
        <time>2019-10-14T14:43:33Z</time>
      </trkpt>
      <trkpt lat="-22.226425" lon="-46.090760">
        <ele>994.821</ele>
        <time>2019-10-14T14:43:38Z</time>
      </trkpt>
      <trkpt lat="-22.226397" lon="-46.090703">
        <ele>996.241</ele>
        <time>2019-10-14T14:43:44Z</time>
      </trkpt>
      <trkpt lat="-22.226359" lon="-46.090637">
        <ele>997.605</ele>
        <time>2019-10-14T14:43:52Z</time>
      </trkpt>
      <trkpt lat="-22.226333" lon="-46.090595">
        <ele>998.108</ele>
        <time>2019-10-14T14:43:56Z</time>
      </trkpt>
      <trkpt lat="-22.226294" lon="-46.090527">
        <ele>998.786</ele>
        <time>2019-10-14T14:44:02Z</time>
      </trkpt>
      <trkpt lat="-22.226262" lon="-46.090456">
        <ele>999.014</ele>
        <time>2019-10-14T14:44:07Z</time>
      </trkpt>
      <trkpt lat="-22.226235" lon="-46.090400">
        <ele>999.276</ele>
        <time>2019-10-14T14:44:09Z</time>
      </trkpt>
      <trkpt lat="-22.226214" lon="-46.090354">
        <ele>999.298</ele>
        <time>2019-10-14T14:44:11Z</time>
      </trkpt>
      <trkpt lat="-22.226199" lon="-46.090305">
        <ele>998.990</ele>
        <time>2019-10-14T14:44:13Z</time>
      </trkpt>
      <trkpt lat="-22.226186" lon="-46.090241">
        <ele>998.233</ele>
        <time>2019-10-14T14:44:15Z</time>
      </trkpt>
      <trkpt lat="-22.226170" lon="-46.090184">
        <ele>997.518</ele>
        <time>2019-10-14T14:44:17Z</time>
      </trkpt>
      <trkpt lat="-22.226150" lon="-46.090132">
        <ele>997.464</ele>
        <time>2019-10-14T14:44:19Z</time>
      </trkpt>
      <trkpt lat="-22.225581" lon="-46.089307">
        <ele>997.365</ele>
        <time>2019-10-14T14:44:42Z</time>
      </trkpt>
      <trkpt lat="-22.225535" lon="-46.089298">
        <ele>998.068</ele>
        <time>2019-10-14T14:44:46Z</time>
      </trkpt>
      <trkpt lat="-22.225475" lon="-46.089273">
        <ele>998.914</ele>
        <time>2019-10-14T14:44:52Z</time>
      </trkpt>
      <trkpt lat="-22.225426" lon="-46.089242">
        <ele>999.908</ele>
        <time>2019-10-14T14:44:57Z</time>
      </trkpt>
      <trkpt lat="-22.225383" lon="-46.089209">
        <ele>1000.980</ele>
        <time>2019-10-14T14:45:02Z</time>
      </trkpt>
      <trkpt lat="-22.225348" lon="-46.089175">
        <ele>1001.518</ele>
        <time>2019-10-14T14:45:07Z</time>
      </trkpt>
      <trkpt lat="-22.225313" lon="-46.089140">
        <ele>1003.280</ele>
        <time>2019-10-14T14:45:16Z</time>
      </trkpt>
      <trkpt lat="-22.225265" lon="-46.089083">
        <ele>1004.262</ele>
        <time>2019-10-14T14:45:20Z</time>
      </trkpt>
      <trkpt lat="-22.225230" lon="-46.089030">
        <ele>1004.994</ele>
        <time>2019-10-14T14:45:23Z</time>
      </trkpt>
      <trkpt lat="-22.225195" lon="-46.088988">
        <ele>1005.447</ele>
        <time>2019-10-14T14:45:25Z</time>
      </trkpt>
      <trkpt lat="-22.225178" lon="-46.088937">
        <ele>1005.742</ele>
        <time>2019-10-14T14:45:31Z</time>
      </trkpt>
      <trkpt lat="-22.225154" lon="-46.088896">
        <ele>1006.728</ele>
        <time>2019-10-14T14:45:35Z</time>
      </trkpt>
      <trkpt lat="-22.225115" lon="-46.088866">
        <ele>1007.645</ele>
        <time>2019-10-14T14:45:41Z</time>
      </trkpt>
      <trkpt lat="-22.225065" lon="-46.088847">
        <ele>1008.347</ele>
        <time>2019-10-14T14:45:47Z</time>
      </trkpt>
      <trkpt lat="-22.225004" lon="-46.088827">
        <ele>1009.511</ele>
        <time>2019-10-14T14:45:55Z</time>
      </trkpt>
      <trkpt lat="-22.224946" lon="-46.088805">
        <ele>1010.608</ele>
        <time>2019-10-14T14:46:00Z</time>
      </trkpt>
      <trkpt lat="-22.224896" lon="-46.088790">
        <ele>1011.088</ele>
        <time>2019-10-14T14:46:04Z</time>
      </trkpt>
      <trkpt lat="-22.224838" lon="-46.088768">
        <ele>1011.986</ele>
        <time>2019-10-14T14:46:10Z</time>
      </trkpt>
      <trkpt lat="-22.224785" lon="-46.088748">
        <ele>1013.398</ele>
        <time>2019-10-14T14:46:15Z</time>
      </trkpt>
      <trkpt lat="-22.224742" lon="-46.088723">
        <ele>1013.510</ele>
        <time>2019-10-14T14:46:21Z</time>
      </trkpt>
      <trkpt lat="-22.224697" lon="-46.088686">
        <ele>1014.242</ele>
        <time>2019-10-14T14:46:26Z</time>
      </trkpt>
      <trkpt lat="-22.224651" lon="-46.088652">
        <ele>1015.375</ele>
        <time>2019-10-14T14:46:31Z</time>
      </trkpt>
      <trkpt lat="-22.224613" lon="-46.088626">
        <ele>1016.150</ele>
        <time>2019-10-14T14:46:36Z</time>
      </trkpt>
      <trkpt lat="-22.224578" lon="-46.088590">
        <ele>1016.786</ele>
        <time>2019-10-14T14:46:39Z</time>
      </trkpt>
      <trkpt lat="-22.224545" lon="-46.088554">
        <ele>1017.764</ele>
        <time>2019-10-14T14:46:43Z</time>
      </trkpt>
      <trkpt lat="-22.224513" lon="-46.088518">
        <ele>1019.006</ele>
        <time>2019-10-14T14:46:48Z</time>
      </trkpt>
      <trkpt lat="-22.224480" lon="-46.088481">
        <ele>1019.716</ele>
        <time>2019-10-14T14:46:53Z</time>
      </trkpt>
      <trkpt lat="-22.224451" lon="-46.088440">
        <ele>1020.608</ele>
        <time>2019-10-14T14:46:56Z</time>
      </trkpt>
      <trkpt lat="-22.224414" lon="-46.088392">
        <ele>1021.310</ele>
        <time>2019-10-14T14:46:59Z</time>
      </trkpt>
      <trkpt lat="-22.224381" lon="-46.088345">
        <ele>1021.768</ele>
        <time>2019-10-14T14:47:01Z</time>
      </trkpt>
      <trkpt lat="-22.224358" lon="-46.088297">
        <ele>1023.390</ele>
        <time>2019-10-14T14:47:07Z</time>
      </trkpt>
      <trkpt lat="-22.224341" lon="-46.088249">
        <ele>1024.522</ele>
        <time>2019-10-14T14:47:14Z</time>
      </trkpt>
      <trkpt lat="-22.224323" lon="-46.088201">
        <ele>1025.224</ele>
        <time>2019-10-14T14:47:19Z</time>
      </trkpt>
      <trkpt lat="-22.224297" lon="-46.088150">
        <ele>1026.057</ele>
        <time>2019-10-14T14:47:26Z</time>
      </trkpt>
      <trkpt lat="-22.224278" lon="-46.088105">
        <ele>1027.312</ele>
        <time>2019-10-14T14:47:31Z</time>
      </trkpt>
      <trkpt lat="-22.224256" lon="-46.088049">
        <ele>1028.988</ele>
        <time>2019-10-14T14:47:39Z</time>
      </trkpt>
      <trkpt lat="-22.224239" lon="-46.087997">
        <ele>1030.016</ele>
        <time>2019-10-14T14:47:49Z</time>
      </trkpt>
      <trkpt lat="-22.224231" lon="-46.087931">
        <ele>1031.276</ele>
        <time>2019-10-14T14:47:55Z</time>
      </trkpt>
      <trkpt lat="-22.224227" lon="-46.087869">
        <ele>1032.013</ele>
        <time>2019-10-14T14:48:00Z</time>
      </trkpt>
      <trkpt lat="-22.224225" lon="-46.087813">
        <ele>1032.608</ele>
        <time>2019-10-14T14:48:04Z</time>
      </trkpt>
      <trkpt lat="-22.224225" lon="-46.087759">
        <ele>1033.745</ele>
        <time>2019-10-14T14:48:11Z</time>
      </trkpt>
      <trkpt lat="-22.224228" lon="-46.087709">
        <ele>1034.873</ele>
        <time>2019-10-14T14:48:15Z</time>
      </trkpt>
      <trkpt lat="-22.224239" lon="-46.087644">
        <ele>1036.475</ele>
        <time>2019-10-14T14:48:23Z</time>
      </trkpt>
      <trkpt lat="-22.224257" lon="-46.087589">
        <ele>1037.567</ele>
        <time>2019-10-14T14:48:31Z</time>
      </trkpt>
      <trkpt lat="-22.224278" lon="-46.087522">
        <ele>1039.089</ele>
        <time>2019-10-14T14:48:38Z</time>
      </trkpt>
      <trkpt lat="-22.224301" lon="-46.087480">
        <ele>1040.062</ele>
        <time>2019-10-14T14:48:43Z</time>
      </trkpt>
      <trkpt lat="-22.224328" lon="-46.087424">
        <ele>1040.657</ele>
        <time>2019-10-14T14:48:49Z</time>
      </trkpt>
      <trkpt lat="-22.224354" lon="-46.087364">
        <ele>1041.923</ele>
        <time>2019-10-14T14:48:55Z</time>
      </trkpt>
      <trkpt lat="-22.224379" lon="-46.087317">
        <ele>1042.749</ele>
        <time>2019-10-14T14:49:01Z</time>
      </trkpt>
      <trkpt lat="-22.224410" lon="-46.087266">
        <ele>1043.802</ele>
        <time>2019-10-14T14:49:07Z</time>
      </trkpt>
      <trkpt lat="-22.224440" lon="-46.087229">
        <ele>1044.822</ele>
        <time>2019-10-14T14:49:12Z</time>
      </trkpt>
      <trkpt lat="-22.224482" lon="-46.087190">
        <ele>1046.008</ele>
        <time>2019-10-14T14:49:17Z</time>
      </trkpt>
      <trkpt lat="-22.224545" lon="-46.087104">
        <ele>1047.088</ele>
        <time>2019-10-14T14:49:22Z</time>
      </trkpt>
      <trkpt lat="-22.224590" lon="-46.087079">
        <ele>1047.886</ele>
        <time>2019-10-14T14:49:26Z</time>
      </trkpt>
      <trkpt lat="-22.224643" lon="-46.087041">
        <ele>1048.878</ele>
        <time>2019-10-14T14:49:32Z</time>
      </trkpt>
      <trkpt lat="-22.224676" lon="-46.086997">
        <ele>1050.560</ele>
        <time>2019-10-14T14:49:40Z</time>
      </trkpt>
      <trkpt lat="-22.224715" lon="-46.086939">
        <ele>1051.732</ele>
        <time>2019-10-14T14:49:49Z</time>
      </trkpt>
      <trkpt lat="-22.224738" lon="-46.086890">
        <ele>1052.085</ele>
        <time>2019-10-14T14:49:54Z</time>
      </trkpt>
      <trkpt lat="-22.224755" lon="-46.086833">
        <ele>1052.420</ele>
        <time>2019-10-14T14:50:00Z</time>
      </trkpt>
      <trkpt lat="-22.224763" lon="-46.086780">
        <ele>1053.376</ele>
        <time>2019-10-14T14:50:06Z</time>
      </trkpt>
      <trkpt lat="-22.224764" lon="-46.086725">
        <ele>1053.827</ele>
        <time>2019-10-14T14:50:10Z</time>
      </trkpt>
      <trkpt lat="-22.224762" lon="-46.086671">
        <ele>1054.768</ele>
        <time>2019-10-14T14:50:15Z</time>
      </trkpt>
      <trkpt lat="-22.224755" lon="-46.086623">
        <ele>1055.014</ele>
        <time>2019-10-14T14:50:19Z</time>
      </trkpt>
      <trkpt lat="-22.224750" lon="-46.086556">
        <ele>1056.208</ele>
        <time>2019-10-14T14:50:24Z</time>
      </trkpt>
      <trkpt lat="-22.224737" lon="-46.086497">
        <ele>1057.256</ele>
        <time>2019-10-14T14:50:28Z</time>
      </trkpt>
      <trkpt lat="-22.224726" lon="-46.086448">
        <ele>1058.054</ele>
        <time>2019-10-14T14:50:32Z</time>
      </trkpt>
      <trkpt lat="-22.224713" lon="-46.086381">
        <ele>1058.256</ele>
        <time>2019-10-14T14:50:35Z</time>
      </trkpt>
      <trkpt lat="-22.224699" lon="-46.086332">
        <ele>1058.858</ele>
        <time>2019-10-14T14:50:36Z</time>
      </trkpt>
      <trkpt lat="-22.224675" lon="-46.086261">
        <ele>1060.160</ele>
        <time>2019-10-14T14:50:40Z</time>
      </trkpt>
      <trkpt lat="-22.224656" lon="-46.086208">
        <ele>1061.493</ele>
        <time>2019-10-14T14:50:46Z</time>
      </trkpt>
      <trkpt lat="-22.224640" lon="-46.086156">
        <ele>1062.248</ele>
        <time>2019-10-14T14:50:55Z</time>
      </trkpt>
      <trkpt lat="-22.224631" lon="-46.086106">
        <ele>1063.354</ele>
        <time>2019-10-14T14:51:00Z</time>
      </trkpt>
      <trkpt lat="-22.224600" lon="-46.086028">
        <ele>1065.085</ele>
        <time>2019-10-14T14:51:11Z</time>
      </trkpt>
      <trkpt lat="-22.224565" lon="-46.085971">
        <ele>1066.389</ele>
        <time>2019-10-14T14:51:19Z</time>
      </trkpt>
      <trkpt lat="-22.224539" lon="-46.085930">
        <ele>1066.817</ele>
        <time>2019-10-14T14:51:23Z</time>
      </trkpt>
      <trkpt lat="-22.224516" lon="-46.085885">
        <ele>1067.308</ele>
        <time>2019-10-14T14:51:27Z</time>
      </trkpt>
      <trkpt lat="-22.224489" lon="-46.085836">
        <ele>1068.222</ele>
        <time>2019-10-14T14:51:33Z</time>
      </trkpt>
      <trkpt lat="-22.224452" lon="-46.085778">
        <ele>1069.220</ele>
        <time>2019-10-14T14:51:39Z</time>
      </trkpt>
      <trkpt lat="-22.224418" lon="-46.085734">
        <ele>1069.952</ele>
        <time>2019-10-14T14:51:45Z</time>
      </trkpt>
      <trkpt lat="-22.224345" lon="-46.085664">
        <ele>1070.654</ele>
        <time>2019-10-14T14:51:49Z</time>
      </trkpt>
      <trkpt lat="-22.224295" lon="-46.085619">
        <ele>1071.336</ele>
        <time>2019-10-14T14:51:53Z</time>
      </trkpt>
      <trkpt lat="-22.224258" lon="-46.085584">
        <ele>1072.479</ele>
        <time>2019-10-14T14:51:59Z</time>
      </trkpt>
      <trkpt lat="-22.224202" lon="-46.085527">
        <ele>1073.984</ele>
        <time>2019-10-14T14:52:06Z</time>
      </trkpt>
      <trkpt lat="-22.224153" lon="-46.085474">
        <ele>1074.860</ele>
        <time>2019-10-14T14:52:10Z</time>
      </trkpt>
      <trkpt lat="-22.224119" lon="-46.085437">
        <ele>1075.456</ele>
        <time>2019-10-14T14:52:11Z</time>
      </trkpt>
      <trkpt lat="-22.224086" lon="-46.085399">
        <ele>1075.759</ele>
        <time>2019-10-14T14:52:13Z</time>
      </trkpt>
      <trkpt lat="-22.224046" lon="-46.085367">
        <ele>1076.314</ele>
        <time>2019-10-14T14:52:16Z</time>
      </trkpt>
      <trkpt lat="-22.224006" lon="-46.085335">
        <ele>1076.908</ele>
        <time>2019-10-14T14:52:20Z</time>
      </trkpt>
      <trkpt lat="-22.223967" lon="-46.085309">
        <ele>1077.169</ele>
        <time>2019-10-14T14:52:23Z</time>
      </trkpt>
      <trkpt lat="-22.223935" lon="-46.085273">
        <ele>1077.447</ele>
        <time>2019-10-14T14:52:26Z</time>
      </trkpt>
      <trkpt lat="-22.223902" lon="-46.085223">
        <ele>1078.669</ele>
        <time>2019-10-14T14:52:39Z</time>
      </trkpt>
      <trkpt lat="-22.223885" lon="-46.085173">
        <ele>1078.391</ele>
        <time>2019-10-14T14:52:43Z</time>
      </trkpt>
      <trkpt lat="-22.223860" lon="-46.085109">
        <ele>1077.663</ele>
        <time>2019-10-14T14:57:39Z</time>
      </trkpt>
      <trkpt lat="-22.223815" lon="-46.085057">
        <ele>1076.446</ele>
        <time>2019-10-14T14:57:41Z</time>
      </trkpt>
      <trkpt lat="-22.223780" lon="-46.085000">
        <ele>1075.981</ele>
        <time>2019-10-14T14:57:43Z</time>
      </trkpt>
      <trkpt lat="-22.223980" lon="-46.082636">
        <ele>1073.027</ele>
        <time>2019-10-14T14:58:23Z</time>
      </trkpt>
      <trkpt lat="-22.223998" lon="-46.082582">
        <ele>1073.342</ele>
        <time>2019-10-14T14:58:24Z</time>
      </trkpt>
      <trkpt lat="-22.224011" lon="-46.082520">
        <ele>1073.222</ele>
        <time>2019-10-14T14:58:26Z</time>
      </trkpt>
      <trkpt lat="-22.224025" lon="-46.082466">
        <ele>1073.114</ele>
        <time>2019-10-14T14:58:27Z</time>
      </trkpt>
      <trkpt lat="-22.224037" lon="-46.082394">
        <ele>1073.208</ele>
        <time>2019-10-14T14:58:29Z</time>
      </trkpt>
      <trkpt lat="-22.224043" lon="-46.082301">
        <ele>1072.868</ele>
        <time>2019-10-14T14:58:33Z</time>
      </trkpt>
      <trkpt lat="-22.224040" lon="-46.082250">
        <ele>1072.526</ele>
        <time>2019-10-14T14:58:34Z</time>
      </trkpt>
      <trkpt lat="-22.224033" lon="-46.082189">
        <ele>1072.288</ele>
        <time>2019-10-14T14:58:36Z</time>
      </trkpt>
      <trkpt lat="-22.224028" lon="-46.082120">
        <ele>1072.190</ele>
        <time>2019-10-14T14:58:38Z</time>
      </trkpt>
      <trkpt lat="-22.224018" lon="-46.082050">
        <ele>1071.622</ele>
        <time>2019-10-14T14:58:40Z</time>
      </trkpt>
      <trkpt lat="-22.224002" lon="-46.081974">
        <ele>1070.995</ele>
        <time>2019-10-14T14:58:42Z</time>
      </trkpt>
      <trkpt lat="-22.223987" lon="-46.081909">
        <ele>1070.310</ele>
        <time>2019-10-14T14:58:44Z</time>
      </trkpt>
      <trkpt lat="-22.223973" lon="-46.081861">
        <ele>1069.896</ele>
        <time>2019-10-14T14:58:45Z</time>
      </trkpt>
      <trkpt lat="-22.223948" lon="-46.081771">
        <ele>1069.456</ele>
        <time>2019-10-14T14:58:47Z</time>
      </trkpt>
      <trkpt lat="-22.223934" lon="-46.081721">
        <ele>1068.959</ele>
        <time>2019-10-14T14:58:49Z</time>
      </trkpt>
      <trkpt lat="-22.222574" lon="-46.079345">
        <ele>1037.514</ele>
        <time>2019-10-14T14:59:55Z</time>
      </trkpt>
      <trkpt lat="-22.222276" lon="-46.079022">
        <ele>1029.508</ele>
        <time>2019-10-14T15:00:02Z</time>
      </trkpt>
      <trkpt lat="-22.222190" lon="-46.078990">
        <ele>1028.559</ele>
        <time>2019-10-14T15:00:05Z</time>
      </trkpt>
      <trkpt lat="-22.222120" lon="-46.078972">
        <ele>1027.917</ele>
        <time>2019-10-14T15:00:07Z</time>
      </trkpt>
      <trkpt lat="-22.219067" lon="-46.079611">
        <ele>984.979</ele>
        <time>2019-10-14T15:02:07Z</time>
      </trkpt>
      <trkpt lat="-22.216414" lon="-46.078125">
        <ele>972.931</ele>
        <time>2019-10-14T15:02:54Z</time>
      </trkpt>
      <trkpt lat="-22.216403" lon="-46.078074">
        <ele>971.363</ele>
        <time>2019-10-14T15:02:56Z</time>
      </trkpt>
      <trkpt lat="-22.212523" lon="-46.071345">
        <ele>922.386</ele>
        <time>2019-10-14T15:05:06Z</time>
      </trkpt>
      <trkpt lat="-22.212363" lon="-46.071205">
        <ele>922.261</ele>
        <time>2019-10-14T15:05:11Z</time>
      </trkpt>
      <trkpt lat="-22.212333" lon="-46.071155">
        <ele>921.967</ele>
        <time>2019-10-14T15:05:13Z</time>
      </trkpt>
      <trkpt lat="-22.212305" lon="-46.071107">
        <ele>922.117</ele>
        <time>2019-10-14T15:05:14Z</time>
      </trkpt>
      <trkpt lat="-22.212276" lon="-46.071063">
        <ele>921.987</ele>
        <time>2019-10-14T15:05:16Z</time>
      </trkpt>
      <trkpt lat="-22.212237" lon="-46.070985">
        <ele>921.415</ele>
        <time>2019-10-14T15:05:18Z</time>
      </trkpt>
      <trkpt lat="-22.212214" lon="-46.070936">
        <ele>921.508</ele>
        <time>2019-10-14T15:05:20Z</time>
      </trkpt>
      <trkpt lat="-22.212179" lon="-46.070885">
        <ele>921.685</ele>
        <time>2019-10-14T15:05:22Z</time>
      </trkpt>
      <trkpt lat="-22.212136" lon="-46.070817">
        <ele>921.313</ele>
        <time>2019-10-14T15:05:23Z</time>
      </trkpt>
      <trkpt lat="-22.212105" lon="-46.070780">
        <ele>921.015</ele>
        <time>2019-10-14T15:05:25Z</time>
      </trkpt>
      <trkpt lat="-22.212048" lon="-46.070714">
        <ele>920.617</ele>
        <time>2019-10-14T15:05:27Z</time>
      </trkpt>
      <trkpt lat="-22.212012" lon="-46.070664">
        <ele>921.019</ele>
        <time>2019-10-14T15:05:28Z</time>
      </trkpt>
      <trkpt lat="-22.211905" lon="-46.070547">
        <ele>921.462</ele>
        <time>2019-10-14T15:05:32Z</time>
      </trkpt>
      <trkpt lat="-22.211868" lon="-46.070502">
        <ele>921.747</ele>
        <time>2019-10-14T15:05:34Z</time>
      </trkpt>
      <trkpt lat="-22.211780" lon="-46.070402">
        <ele>921.783</ele>
        <time>2019-10-14T15:05:37Z</time>
      </trkpt>
      <trkpt lat="-22.211716" lon="-46.070313">
        <ele>921.535</ele>
        <time>2019-10-14T15:05:39Z</time>
      </trkpt>
      <trkpt lat="-22.211676" lon="-46.070265">
        <ele>921.586</ele>
        <time>2019-10-14T15:05:41Z</time>
      </trkpt>
      <trkpt lat="-22.211643" lon="-46.070223">
        <ele>921.614</ele>
        <time>2019-10-14T15:05:42Z</time>
      </trkpt>
      <trkpt lat="-22.211601" lon="-46.070161">
        <ele>922.108</ele>
        <time>2019-10-14T15:05:45Z</time>
      </trkpt>
      <trkpt lat="-22.211561" lon="-46.070106">
        <ele>921.967</ele>
        <time>2019-10-14T15:05:46Z</time>
      </trkpt>
      <trkpt lat="-22.211504" lon="-46.070050">
        <ele>921.765</ele>
        <time>2019-10-14T15:05:49Z</time>
      </trkpt>
      <trkpt lat="-22.211449" lon="-46.070005">
        <ele>922.027</ele>
        <time>2019-10-14T15:05:51Z</time>
      </trkpt>
      <trkpt lat="-22.211394" lon="-46.069971">
        <ele>922.189</ele>
        <time>2019-10-14T15:05:53Z</time>
      </trkpt>
      <trkpt lat="-22.211341" lon="-46.069938">
        <ele>922.071</ele>
        <time>2019-10-14T15:05:55Z</time>
      </trkpt>
      <trkpt lat="-22.211293" lon="-46.069906">
        <ele>921.824</ele>
        <time>2019-10-14T15:05:56Z</time>
      </trkpt>
      <trkpt lat="-22.211230" lon="-46.069852">
        <ele>921.979</ele>
        <time>2019-10-14T15:05:59Z</time>
      </trkpt>
      <trkpt lat="-22.211177" lon="-46.069788">
        <ele>922.065</ele>
        <time>2019-10-14T15:06:01Z</time>
      </trkpt>
      <trkpt lat="-22.211145" lon="-46.069749">
        <ele>921.952</ele>
        <time>2019-10-14T15:06:03Z</time>
      </trkpt>
      <trkpt lat="-22.211078" lon="-46.069667">
        <ele>920.753</ele>
        <time>2019-10-14T15:06:06Z</time>
      </trkpt>
      <trkpt lat="-22.211015" lon="-46.069565">
        <ele>918.308</ele>
        <time>2019-10-14T15:06:09Z</time>
      </trkpt>
      <trkpt lat="-22.210999" lon="-46.069517">
        <ele>917.208</ele>
        <time>2019-10-14T15:06:11Z</time>
      </trkpt>
      <trkpt lat="-22.210762" lon="-46.067768">
        <ele>915.679</ele>
        <time>2019-10-14T15:06:44Z</time>
      </trkpt>
      <trkpt lat="-22.210763" lon="-46.067714">
        <ele>915.987</ele>
        <time>2019-10-14T15:06:46Z</time>
      </trkpt>
      <trkpt lat="-22.210778" lon="-46.067661">
        <ele>916.139</ele>
        <time>2019-10-14T15:06:47Z</time>
      </trkpt>
      <trkpt lat="-22.210805" lon="-46.067574">
        <ele>916.421</ele>
        <time>2019-10-14T15:06:49Z</time>
      </trkpt>
      <trkpt lat="-22.210823" lon="-46.067495">
        <ele>916.543</ele>
        <time>2019-10-14T15:06:52Z</time>
      </trkpt>
      <trkpt lat="-22.210840" lon="-46.067442">
        <ele>916.636</ele>
        <time>2019-10-14T15:06:53Z</time>
      </trkpt>
      <trkpt lat="-22.210857" lon="-46.067391">
        <ele>916.651</ele>
        <time>2019-10-14T15:06:55Z</time>
      </trkpt>
      <trkpt lat="-22.210880" lon="-46.067314">
        <ele>917.127</ele>
        <time>2019-10-14T15:06:57Z</time>
      </trkpt>
      <trkpt lat="-22.210903" lon="-46.067250">
        <ele>917.345</ele>
        <time>2019-10-14T15:06:59Z</time>
      </trkpt>
      <trkpt lat="-22.210930" lon="-46.067195">
        <ele>917.447</ele>
        <time>2019-10-14T15:07:01Z</time>
      </trkpt>
      <trkpt lat="-22.210960" lon="-46.067144">
        <ele>918.011</ele>
        <time>2019-10-14T15:07:04Z</time>
      </trkpt>
      <trkpt lat="-22.210988" lon="-46.067101">
        <ele>918.008</ele>
        <time>2019-10-14T15:07:05Z</time>
      </trkpt>
      <trkpt lat="-22.211021" lon="-46.067054">
        <ele>918.268</ele>
        <time>2019-10-14T15:07:07Z</time>
      </trkpt>
      <trkpt lat="-22.211055" lon="-46.067007">
        <ele>918.796</ele>
        <time>2019-10-14T15:07:09Z</time>
      </trkpt>
      <trkpt lat="-22.211092" lon="-46.066963">
        <ele>919.428</ele>
        <time>2019-10-14T15:07:12Z</time>
      </trkpt>
      <trkpt lat="-22.211150" lon="-46.066912">
        <ele>920.280</ele>
        <time>2019-10-14T15:07:17Z</time>
      </trkpt>
      <trkpt lat="-22.211198" lon="-46.066870">
        <ele>920.522</ele>
        <time>2019-10-14T15:07:21Z</time>
      </trkpt>
      <trkpt lat="-22.211229" lon="-46.066819">
        <ele>920.825</ele>
        <time>2019-10-14T15:07:24Z</time>
      </trkpt>
      <trkpt lat="-22.211265" lon="-46.066779">
        <ele>921.020</ele>
        <time>2019-10-14T15:07:26Z</time>
      </trkpt>
      <trkpt lat="-22.211304" lon="-46.066730">
        <ele>921.546</ele>
        <time>2019-10-14T15:07:30Z</time>
      </trkpt>
      <trkpt lat="-22.211342" lon="-46.066693">
        <ele>921.698</ele>
        <time>2019-10-14T15:07:32Z</time>
      </trkpt>
      <trkpt lat="-22.211381" lon="-46.066652">
        <ele>921.815</ele>
        <time>2019-10-14T15:07:35Z</time>
      </trkpt>
      <trkpt lat="-22.211425" lon="-46.066597">
        <ele>921.826</ele>
        <time>2019-10-14T15:07:38Z</time>
      </trkpt>
      <trkpt lat="-22.211461" lon="-46.066553">
        <ele>922.608</ele>
        <time>2019-10-14T15:07:41Z</time>
      </trkpt>
      <trkpt lat="-22.211502" lon="-46.066501">
        <ele>922.283</ele>
        <time>2019-10-14T15:07:44Z</time>
      </trkpt>
      <trkpt lat="-22.211534" lon="-46.066457">
        <ele>922.261</ele>
        <time>2019-10-14T15:07:46Z</time>
      </trkpt>
      <trkpt lat="-22.211566" lon="-46.066418">
        <ele>922.493</ele>
        <time>2019-10-14T15:07:49Z</time>
      </trkpt>
      <trkpt lat="-22.211598" lon="-46.066355">
        <ele>922.545</ele>
        <time>2019-10-14T15:07:51Z</time>
      </trkpt>
      <trkpt lat="-22.211624" lon="-46.066308">
        <ele>922.967</ele>
        <time>2019-10-14T15:07:53Z</time>
      </trkpt>
      <trkpt lat="-22.211646" lon="-46.066259">
        <ele>923.020</ele>
        <time>2019-10-14T15:07:55Z</time>
      </trkpt>
      <trkpt lat="-22.211684" lon="-46.066186">
        <ele>922.655</ele>
        <time>2019-10-14T15:07:58Z</time>
      </trkpt>
      <trkpt lat="-22.211707" lon="-46.066141">
        <ele>922.921</ele>
        <time>2019-10-14T15:08:00Z</time>
      </trkpt>
      <trkpt lat="-22.211728" lon="-46.066096">
        <ele>922.737</ele>
        <time>2019-10-14T15:08:01Z</time>
      </trkpt>
      <trkpt lat="-22.211757" lon="-46.066040">
        <ele>922.849</ele>
        <time>2019-10-14T15:08:04Z</time>
      </trkpt>
      <trkpt lat="-22.211787" lon="-46.065978">
        <ele>922.713</ele>
        <time>2019-10-14T15:08:05Z</time>
      </trkpt>
      <trkpt lat="-22.211811" lon="-46.065933">
        <ele>922.508</ele>
        <time>2019-10-14T15:08:07Z</time>
      </trkpt>
      <trkpt lat="-22.211842" lon="-46.065884">
        <ele>923.047</ele>
        <time>2019-10-14T15:08:10Z</time>
      </trkpt>
      <trkpt lat="-22.211866" lon="-46.065827">
        <ele>923.175</ele>
        <time>2019-10-14T15:08:11Z</time>
      </trkpt>
      <trkpt lat="-22.211895" lon="-46.065754">
        <ele>923.517</ele>
        <time>2019-10-14T15:08:15Z</time>
      </trkpt>
      <trkpt lat="-22.211917" lon="-46.065705">
        <ele>923.689</ele>
        <time>2019-10-14T15:08:17Z</time>
      </trkpt>
      <trkpt lat="-22.211937" lon="-46.065653">
        <ele>924.011</ele>
        <time>2019-10-14T15:08:19Z</time>
      </trkpt>
      <trkpt lat="-22.211957" lon="-46.065600">
        <ele>924.384</ele>
        <time>2019-10-14T15:08:21Z</time>
      </trkpt>
      <trkpt lat="-22.211983" lon="-46.065536">
        <ele>924.849</ele>
        <time>2019-10-14T15:08:24Z</time>
      </trkpt>
      <trkpt lat="-22.212012" lon="-46.065473">
        <ele>925.165</ele>
        <time>2019-10-14T15:08:26Z</time>
      </trkpt>
      <trkpt lat="-22.212041" lon="-46.065408">
        <ele>925.349</ele>
        <time>2019-10-14T15:08:29Z</time>
      </trkpt>
      <trkpt lat="-22.212067" lon="-46.065348">
        <ele>925.802</ele>
        <time>2019-10-14T15:08:33Z</time>
      </trkpt>
      <trkpt lat="-22.212081" lon="-46.065298">
        <ele>925.922</ele>
        <time>2019-10-14T15:08:34Z</time>
      </trkpt>
      <trkpt lat="-22.212094" lon="-46.065244">
        <ele>926.208</ele>
        <time>2019-10-14T15:08:37Z</time>
      </trkpt>
      <trkpt lat="-22.212120" lon="-46.065150">
        <ele>926.228</ele>
        <time>2019-10-14T15:08:41Z</time>
      </trkpt>
      <trkpt lat="-22.212139" lon="-46.065076">
        <ele>926.426</ele>
        <time>2019-10-14T15:08:43Z</time>
      </trkpt>
      <trkpt lat="-22.212152" lon="-46.065009">
        <ele>926.448</ele>
        <time>2019-10-14T15:08:45Z</time>
      </trkpt>
      <trkpt lat="-22.212165" lon="-46.064952">
        <ele>926.670</ele>
        <time>2019-10-14T15:08:47Z</time>
      </trkpt>
      <trkpt lat="-22.212169" lon="-46.064902">
        <ele>926.712</ele>
        <time>2019-10-14T15:08:49Z</time>
      </trkpt>
      <trkpt lat="-22.212176" lon="-46.064852">
        <ele>926.595</ele>
        <time>2019-10-14T15:08:50Z</time>
      </trkpt>
      <trkpt lat="-22.212184" lon="-46.064800">
        <ele>926.680</ele>
        <time>2019-10-14T15:08:52Z</time>
      </trkpt>
      <trkpt lat="-22.212192" lon="-46.064751">
        <ele>926.836</ele>
        <time>2019-10-14T15:08:54Z</time>
      </trkpt>
      <trkpt lat="-22.212202" lon="-46.064679">
        <ele>926.866</ele>
        <time>2019-10-14T15:08:56Z</time>
      </trkpt>
      <trkpt lat="-22.212208" lon="-46.064630">
        <ele>927.029</ele>
        <time>2019-10-14T15:08:58Z</time>
      </trkpt>
      <trkpt lat="-22.212213" lon="-46.064573">
        <ele>927.221</ele>
        <time>2019-10-14T15:08:59Z</time>
      </trkpt>
      <trkpt lat="-22.212221" lon="-46.064506">
        <ele>927.508</ele>
        <time>2019-10-14T15:09:02Z</time>
      </trkpt>
      <trkpt lat="-22.212229" lon="-46.064431">
        <ele>927.180</ele>
        <time>2019-10-14T15:09:04Z</time>
      </trkpt>
      <trkpt lat="-22.212232" lon="-46.064382">
        <ele>926.748</ele>
        <time>2019-10-14T15:09:05Z</time>
      </trkpt>
      <trkpt lat="-22.212236" lon="-46.064267">
        <ele>926.330</ele>
        <time>2019-10-14T15:09:09Z</time>
      </trkpt>
      <trkpt lat="-22.212244" lon="-46.064198">
        <ele>926.472</ele>
        <time>2019-10-14T15:09:10Z</time>
      </trkpt>
      <trkpt lat="-22.212250" lon="-46.064137">
        <ele>926.314</ele>
        <time>2019-10-14T15:09:12Z</time>
      </trkpt>
      <trkpt lat="-22.212253" lon="-46.064064">
        <ele>926.187</ele>
        <time>2019-10-14T15:09:14Z</time>
      </trkpt>
      <trkpt lat="-22.212253" lon="-46.063983">
        <ele>926.292</ele>
        <time>2019-10-14T15:09:16Z</time>
      </trkpt>
      <trkpt lat="-22.210262" lon="-46.056394">
        <ele>892.178</ele>
        <time>2019-10-14T15:11:18Z</time>
      </trkpt>
      <trkpt lat="-22.210238" lon="-46.056348">
        <ele>892.147</ele>
        <time>2019-10-14T15:11:20Z</time>
      </trkpt>
      <trkpt lat="-22.210207" lon="-46.056283">
        <ele>892.029</ele>
        <time>2019-10-14T15:11:22Z</time>
      </trkpt>
      <trkpt lat="-22.210146" lon="-46.056191">
        <ele>892.321</ele>
        <time>2019-10-14T15:11:25Z</time>
      </trkpt>
      <trkpt lat="-22.210120" lon="-46.056149">
        <ele>892.208</ele>
        <time>2019-10-14T15:11:26Z</time>
      </trkpt>
      <trkpt lat="-22.210088" lon="-46.056104">
        <ele>892.078</ele>
        <time>2019-10-14T15:11:28Z</time>
      </trkpt>
      <trkpt lat="-22.210053" lon="-46.056058">
        <ele>891.736</ele>
        <time>2019-10-14T15:11:29Z</time>
      </trkpt>
      <trkpt lat="-22.210010" lon="-46.056005">
        <ele>891.568</ele>
        <time>2019-10-14T15:11:31Z</time>
      </trkpt>
      <trkpt lat="-22.209965" lon="-46.055961">
        <ele>891.220</ele>
        <time>2019-10-14T15:11:32Z</time>
      </trkpt>
      <trkpt lat="-22.209924" lon="-46.055923">
        <ele>891.212</ele>
        <time>2019-10-14T15:11:34Z</time>
      </trkpt>
      <trkpt lat="-22.209863" lon="-46.055867">
        <ele>891.195</ele>
        <time>2019-10-14T15:11:37Z</time>
      </trkpt>
      <trkpt lat="-22.209813" lon="-46.055820">
        <ele>890.850</ele>
        <time>2019-10-14T15:11:38Z</time>
      </trkpt>
      <trkpt lat="-22.208007" lon="-46.054982">
        <ele>887.776</ele>
        <time>2019-10-14T15:12:22Z</time>
      </trkpt>
      <trkpt lat="-22.207915" lon="-46.054983">
        <ele>887.412</ele>
        <time>2019-10-14T15:12:24Z</time>
      </trkpt>
      <trkpt lat="-22.207828" lon="-46.055007">
        <ele>887.632</ele>
        <time>2019-10-14T15:12:26Z</time>
      </trkpt>
      <trkpt lat="-22.207777" lon="-46.055025">
        <ele>887.805</ele>
        <time>2019-10-14T15:12:28Z</time>
      </trkpt>
      <trkpt lat="-22.207729" lon="-46.055049">
        <ele>888.108</ele>
        <time>2019-10-14T15:12:30Z</time>
      </trkpt>
      <trkpt lat="-22.207671" lon="-46.055076">
        <ele>888.355</ele>
        <time>2019-10-14T15:12:31Z</time>
      </trkpt>
      <trkpt lat="-22.207584" lon="-46.055119">
        <ele>887.893</ele>
        <time>2019-10-14T15:12:34Z</time>
      </trkpt>
      <trkpt lat="-22.207281" lon="-46.055269">
        <ele>888.485</ele>
        <time>2019-10-14T15:12:41Z</time>
      </trkpt>
      <trkpt lat="-22.207212" lon="-46.055283">
        <ele>889.247</ele>
        <time>2019-10-14T15:12:44Z</time>
      </trkpt>
      <trkpt lat="-22.207101" lon="-46.055342">
        <ele>889.989</ele>
        <time>2019-10-14T15:12:47Z</time>
      </trkpt>
      <trkpt lat="-22.207037" lon="-46.055348">
        <ele>890.272</ele>
        <time>2019-10-14T15:12:49Z</time>
      </trkpt>
      <trkpt lat="-22.206976" lon="-46.055348">
        <ele>890.447</ele>
        <time>2019-10-14T15:12:50Z</time>
      </trkpt>
      <trkpt lat="-22.206921" lon="-46.055340">
        <ele>890.793</ele>
        <time>2019-10-14T15:12:52Z</time>
      </trkpt>
      <trkpt lat="-22.206875" lon="-46.055321">
        <ele>890.752</ele>
        <time>2019-10-14T15:12:53Z</time>
      </trkpt>
      <trkpt lat="-22.206816" lon="-46.055297">
        <ele>891.253</ele>
        <time>2019-10-14T15:12:55Z</time>
      </trkpt>
      <trkpt lat="-22.206758" lon="-46.055287">
        <ele>891.108</ele>
        <time>2019-10-14T15:12:58Z</time>
      </trkpt>
      <trkpt lat="-22.206709" lon="-46.055275">
        <ele>891.308</ele>
        <time>2019-10-14T15:12:59Z</time>
      </trkpt>
      <trkpt lat="-22.206656" lon="-46.055259">
        <ele>891.229</ele>
        <time>2019-10-14T15:13:01Z</time>
      </trkpt>
      <trkpt lat="-22.206565" lon="-46.055226">
        <ele>891.337</ele>
        <time>2019-10-14T15:13:05Z</time>
      </trkpt>
      <trkpt lat="-22.206519" lon="-46.055205">
        <ele>891.759</ele>
        <time>2019-10-14T15:13:08Z</time>
      </trkpt>
      <trkpt lat="-22.206477" lon="-46.055182">
        <ele>891.871</ele>
        <time>2019-10-14T15:13:11Z</time>
      </trkpt>
      <trkpt lat="-22.206420" lon="-46.055177">
        <ele>892.253</ele>
        <time>2019-10-14T15:13:14Z</time>
      </trkpt>
      <trkpt lat="-22.206355" lon="-46.055183">
        <ele>892.636</ele>
        <time>2019-10-14T15:13:18Z</time>
      </trkpt>
      <trkpt lat="-22.206306" lon="-46.055179">
        <ele>892.651</ele>
        <time>2019-10-14T15:13:20Z</time>
      </trkpt>
      <trkpt lat="-22.206237" lon="-46.055150">
        <ele>892.917</ele>
        <time>2019-10-14T15:13:22Z</time>
      </trkpt>
      <trkpt lat="-22.206181" lon="-46.055123">
        <ele>893.133</ele>
        <time>2019-10-14T15:13:24Z</time>
      </trkpt>
      <trkpt lat="-22.206122" lon="-46.055098">
        <ele>893.023</ele>
        <time>2019-10-14T15:13:26Z</time>
      </trkpt>
      <trkpt lat="-22.206070" lon="-46.055072">
        <ele>892.915</ele>
        <time>2019-10-14T15:13:27Z</time>
      </trkpt>
      <trkpt lat="-22.206012" lon="-46.055039">
        <ele>892.508</ele>
        <time>2019-10-14T15:13:29Z</time>
      </trkpt>
      <trkpt lat="-22.205951" lon="-46.054995">
        <ele>892.837</ele>
        <time>2019-10-14T15:13:32Z</time>
      </trkpt>
      <trkpt lat="-22.205884" lon="-46.054947">
        <ele>892.535</ele>
        <time>2019-10-14T15:13:34Z</time>
      </trkpt>
      <trkpt lat="-22.205826" lon="-46.054917">
        <ele>892.667</ele>
        <time>2019-10-14T15:13:35Z</time>
      </trkpt>
      <trkpt lat="-22.205755" lon="-46.054864">
        <ele>892.289</ele>
        <time>2019-10-14T15:13:38Z</time>
      </trkpt>
      <trkpt lat="-22.205681" lon="-46.054814">
        <ele>892.211</ele>
        <time>2019-10-14T15:13:39Z</time>
      </trkpt>
      <trkpt lat="-22.205618" lon="-46.054773">
        <ele>892.214</ele>
        <time>2019-10-14T15:13:41Z</time>
      </trkpt>
      <trkpt lat="-22.205549" lon="-46.054721">
        <ele>892.059</ele>
        <time>2019-10-14T15:13:43Z</time>
      </trkpt>
      <trkpt lat="-22.205484" lon="-46.054663">
        <ele>892.185</ele>
        <time>2019-10-14T15:13:45Z</time>
      </trkpt>
      <trkpt lat="-22.205413" lon="-46.054613">
        <ele>892.274</ele>
        <time>2019-10-14T15:13:47Z</time>
      </trkpt>
      <trkpt lat="-22.205358" lon="-46.054577">
        <ele>892.756</ele>
        <time>2019-10-14T15:13:49Z</time>
      </trkpt>
      <trkpt lat="-22.205299" lon="-46.054540">
        <ele>893.021</ele>
        <time>2019-10-14T15:13:51Z</time>
      </trkpt>
      <trkpt lat="-22.205243" lon="-46.054494">
        <ele>892.808</ele>
        <time>2019-10-14T15:13:53Z</time>
      </trkpt>
      <trkpt lat="-22.205182" lon="-46.054446">
        <ele>893.011</ele>
        <time>2019-10-14T15:13:56Z</time>
      </trkpt>
      <trkpt lat="-22.205128" lon="-46.054418">
        <ele>893.429</ele>
        <time>2019-10-14T15:13:57Z</time>
      </trkpt>
      <trkpt lat="-22.205060" lon="-46.054385">
        <ele>893.961</ele>
        <time>2019-10-14T15:13:59Z</time>
      </trkpt>
      <trkpt lat="-22.205002" lon="-46.054361">
        <ele>893.853</ele>
        <time>2019-10-14T15:14:01Z</time>
      </trkpt>
      <trkpt lat="-22.202043" lon="-46.052910">
        <ele>891.315</ele>
        <time>2019-10-14T15:15:13Z</time>
      </trkpt>
      <trkpt lat="-22.201982" lon="-46.052901">
        <ele>891.968</ele>
        <time>2019-10-14T15:15:16Z</time>
      </trkpt>
      <trkpt lat="-22.201932" lon="-46.052899">
        <ele>892.423</ele>
        <time>2019-10-14T15:15:18Z</time>
      </trkpt>
      <trkpt lat="-22.201885" lon="-46.052891">
        <ele>892.779</ele>
        <time>2019-10-14T15:15:20Z</time>
      </trkpt>
      <trkpt lat="-22.201835" lon="-46.052886">
        <ele>893.418</ele>
        <time>2019-10-14T15:15:23Z</time>
      </trkpt>
      <trkpt lat="-22.201751" lon="-46.052888">
        <ele>894.098</ele>
        <time>2019-10-14T15:15:27Z</time>
      </trkpt>
      <trkpt lat="-22.201690" lon="-46.052877">
        <ele>894.517</ele>
        <time>2019-10-14T15:15:31Z</time>
      </trkpt>
      <trkpt lat="-22.201637" lon="-46.052865">
        <ele>895.108</ele>
        <time>2019-10-14T15:15:34Z</time>
      </trkpt>
      <trkpt lat="-22.201566" lon="-46.052850">
        <ele>895.625</ele>
        <time>2019-10-14T15:15:37Z</time>
      </trkpt>
      <trkpt lat="-22.201512" lon="-46.052846">
        <ele>896.523</ele>
        <time>2019-10-14T15:15:39Z</time>
      </trkpt>
      <trkpt lat="-22.201462" lon="-46.052835">
        <ele>896.865</ele>
        <time>2019-10-14T15:15:42Z</time>
      </trkpt>
      <trkpt lat="-22.201366" lon="-46.052814">
        <ele>897.917</ele>
        <time>2019-10-14T15:15:47Z</time>
      </trkpt>
      <trkpt lat="-22.201296" lon="-46.052802">
        <ele>898.859</ele>
        <time>2019-10-14T15:15:53Z</time>
      </trkpt>
      <trkpt lat="-22.201243" lon="-46.052794">
        <ele>899.272</ele>
        <time>2019-10-14T15:15:56Z</time>
      </trkpt>
      <trkpt lat="-22.201186" lon="-46.052780">
        <ele>899.887</ele>
        <time>2019-10-14T15:16:00Z</time>
      </trkpt>
      <trkpt lat="-22.201134" lon="-46.052766">
        <ele>900.873</ele>
        <time>2019-10-14T15:16:05Z</time>
      </trkpt>
      <trkpt lat="-22.201078" lon="-46.052745">
        <ele>901.852</ele>
        <time>2019-10-14T15:16:11Z</time>
      </trkpt>
      <trkpt lat="-22.201019" lon="-46.052733">
        <ele>902.553</ele>
        <time>2019-10-14T15:16:16Z</time>
      </trkpt>
      <trkpt lat="-22.200967" lon="-46.052721">
        <ele>902.808</ele>
        <time>2019-10-14T15:16:18Z</time>
      </trkpt>
      <trkpt lat="-22.200903" lon="-46.052709">
        <ele>902.808</ele>
        <time>2019-10-14T15:16:20Z</time>
      </trkpt>
      <trkpt lat="-22.200851" lon="-46.052697">
        <ele>902.949</ele>
        <time>2019-10-14T15:16:23Z</time>
      </trkpt>
      <trkpt lat="-22.200789" lon="-46.052691">
        <ele>903.137</ele>
        <time>2019-10-14T15:16:27Z</time>
      </trkpt>
      <trkpt lat="-22.200733" lon="-46.052677">
        <ele>903.299</ele>
        <time>2019-10-14T15:16:29Z</time>
      </trkpt>
      <trkpt lat="-22.200688" lon="-46.052668">
        <ele>903.361</ele>
        <time>2019-10-14T15:16:31Z</time>
      </trkpt>
      <trkpt lat="-22.200626" lon="-46.052656">
        <ele>903.243</ele>
        <time>2019-10-14T15:16:34Z</time>
      </trkpt>
      <trkpt lat="-22.200575" lon="-46.052645">
        <ele>903.276</ele>
        <time>2019-10-14T15:16:36Z</time>
      </trkpt>
      <trkpt lat="-22.200528" lon="-46.052636">
        <ele>903.231</ele>
        <time>2019-10-14T15:16:38Z</time>
      </trkpt>
      <trkpt lat="-22.200473" lon="-46.052622">
        <ele>903.447</ele>
        <time>2019-10-14T15:16:41Z</time>
      </trkpt>
      <trkpt lat="-22.200407" lon="-46.052615">
        <ele>903.145</ele>
        <time>2019-10-14T15:16:43Z</time>
      </trkpt>
      <trkpt lat="-22.200356" lon="-46.052600">
        <ele>903.647</ele>
        <time>2019-10-14T15:16:46Z</time>
      </trkpt>
      <trkpt lat="-22.200289" lon="-46.052581">
        <ele>903.411</ele>
        <time>2019-10-14T15:16:49Z</time>
      </trkpt>
      <trkpt lat="-22.200214" lon="-46.052531">
        <ele>903.608</ele>
        <time>2019-10-14T15:16:52Z</time>
      </trkpt>
      <trkpt lat="-22.200175" lon="-46.052505">
        <ele>903.338</ele>
        <time>2019-10-14T15:16:54Z</time>
      </trkpt>
      <trkpt lat="-22.200108" lon="-46.052474">
        <ele>902.986</ele>
        <time>2019-10-14T15:16:57Z</time>
      </trkpt>
      <trkpt lat="-22.200052" lon="-46.052465">
        <ele>902.938</ele>
        <time>2019-10-14T15:16:59Z</time>
      </trkpt>
      <trkpt lat="-22.200007" lon="-46.052455">
        <ele>902.970</ele>
        <time>2019-10-14T15:17:01Z</time>
      </trkpt>
      <trkpt lat="-22.199953" lon="-46.052439">
        <ele>902.582</ele>
        <time>2019-10-14T15:17:03Z</time>
      </trkpt>
      <trkpt lat="-22.199903" lon="-46.052417">
        <ele>902.715</ele>
        <time>2019-10-14T15:17:05Z</time>
      </trkpt>
      <trkpt lat="-22.199854" lon="-46.052399">
        <ele>902.520</ele>
        <time>2019-10-14T15:17:06Z</time>
      </trkpt>
      <trkpt lat="-22.199791" lon="-46.052383">
        <ele>901.996</ele>
        <time>2019-10-14T15:17:08Z</time>
      </trkpt>
      <trkpt lat="-22.199708" lon="-46.052371">
        <ele>901.256</ele>
        <time>2019-10-14T15:17:11Z</time>
      </trkpt>
      <trkpt lat="-22.199638" lon="-46.052368">
        <ele>900.159</ele>
        <time>2019-10-14T15:17:13Z</time>
      </trkpt>
      <trkpt lat="-22.194494" lon="-46.051351">
        <ele>874.214</ele>
        <time>2019-10-14T15:18:39Z</time>
      </trkpt>
      <trkpt lat="-22.194418" lon="-46.051352">
        <ele>874.308</ele>
        <time>2019-10-14T15:18:42Z</time>
      </trkpt>
      <trkpt lat="-22.194357" lon="-46.051345">
        <ele>874.429</ele>
        <time>2019-10-14T15:18:43Z</time>
      </trkpt>
      <trkpt lat="-22.194302" lon="-46.051342">
        <ele>874.777</ele>
        <time>2019-10-14T15:18:45Z</time>
      </trkpt>
      <trkpt lat="-22.194253" lon="-46.051338">
        <ele>875.149</ele>
        <time>2019-10-14T15:18:47Z</time>
      </trkpt>
      <trkpt lat="-22.194194" lon="-46.051333">
        <ele>875.061</ele>
        <time>2019-10-14T15:18:49Z</time>
      </trkpt>
      <trkpt lat="-22.194115" lon="-46.051313">
        <ele>874.343</ele>
        <time>2019-10-14T15:18:51Z</time>
      </trkpt>
      <trkpt lat="-22.194060" lon="-46.051304">
        <ele>875.326</ele>
        <time>2019-10-14T15:18:53Z</time>
      </trkpt>
      <trkpt lat="-22.194001" lon="-46.051304">
        <ele>875.351</ele>
        <time>2019-10-14T15:18:54Z</time>
      </trkpt>
      <trkpt lat="-22.193930" lon="-46.051298">
        <ele>875.327</ele>
        <time>2019-10-14T15:18:56Z</time>
      </trkpt>
      <trkpt lat="-22.193867" lon="-46.051289">
        <ele>875.259</ele>
        <time>2019-10-14T15:18:58Z</time>
      </trkpt>
      <trkpt lat="-22.193785" lon="-46.051270">
        <ele>875.003</ele>
        <time>2019-10-14T15:19:00Z</time>
      </trkpt>
      <trkpt lat="-22.193689" lon="-46.051246">
        <ele>875.023</ele>
        <time>2019-10-14T15:19:03Z</time>
      </trkpt>
      <trkpt lat="-22.193613" lon="-46.051221">
        <ele>875.408</ele>
        <time>2019-10-14T15:19:06Z</time>
      </trkpt>
      <trkpt lat="-22.193560" lon="-46.051204">
        <ele>875.819</ele>
        <time>2019-10-14T15:19:08Z</time>
      </trkpt>
      <trkpt lat="-22.193498" lon="-46.051180">
        <ele>875.997</ele>
        <time>2019-10-14T15:19:09Z</time>
      </trkpt>
      <trkpt lat="-22.193435" lon="-46.051150">
        <ele>876.469</ele>
        <time>2019-10-14T15:19:11Z</time>
      </trkpt>
      <trkpt lat="-22.193394" lon="-46.051127">
        <ele>876.781</ele>
        <time>2019-10-14T15:19:13Z</time>
      </trkpt>
      <trkpt lat="-22.193340" lon="-46.051105">
        <ele>876.533</ele>
        <time>2019-10-14T15:19:16Z</time>
      </trkpt>
      <trkpt lat="-22.193278" lon="-46.051088">
        <ele>876.856</ele>
        <time>2019-10-14T15:19:18Z</time>
      </trkpt>
      <trkpt lat="-22.193221" lon="-46.051065">
        <ele>877.071</ele>
        <time>2019-10-14T15:19:19Z</time>
      </trkpt>
      <trkpt lat="-22.193176" lon="-46.051052">
        <ele>877.367</ele>
        <time>2019-10-14T15:19:21Z</time>
      </trkpt>
      <trkpt lat="-22.193129" lon="-46.051039">
        <ele>877.654</ele>
        <time>2019-10-14T15:19:23Z</time>
      </trkpt>
      <trkpt lat="-22.193073" lon="-46.051034">
        <ele>878.156</ele>
        <time>2019-10-14T15:19:24Z</time>
      </trkpt>
      <trkpt lat="-22.193016" lon="-46.051029">
        <ele>878.211</ele>
        <time>2019-10-14T15:19:25Z</time>
      </trkpt>
      <trkpt lat="-22.192945" lon="-46.051021">
        <ele>878.608</ele>
        <time>2019-10-14T15:19:28Z</time>
      </trkpt>
      <trkpt lat="-22.192896" lon="-46.051020">
        <ele>878.579</ele>
        <time>2019-10-14T15:19:30Z</time>
      </trkpt>
      <trkpt lat="-22.192829" lon="-46.051032">
        <ele>878.897</ele>
        <time>2019-10-14T15:19:32Z</time>
      </trkpt>
      <trkpt lat="-22.192752" lon="-46.051048">
        <ele>878.999</ele>
        <time>2019-10-14T15:19:34Z</time>
      </trkpt>
      <trkpt lat="-22.192701" lon="-46.051061">
        <ele>879.451</ele>
        <time>2019-10-14T15:19:36Z</time>
      </trkpt>
      <trkpt lat="-22.192628" lon="-46.051072">
        <ele>880.193</ele>
        <time>2019-10-14T15:19:38Z</time>
      </trkpt>
      <trkpt lat="-22.192580" lon="-46.051084">
        <ele>880.226</ele>
        <time>2019-10-14T15:19:41Z</time>
      </trkpt>
      <trkpt lat="-22.192526" lon="-46.051098">
        <ele>880.881</ele>
        <time>2019-10-14T15:19:42Z</time>
      </trkpt>
      <trkpt lat="-22.192474" lon="-46.051117">
        <ele>881.677</ele>
        <time>2019-10-14T15:19:45Z</time>
      </trkpt>
      <trkpt lat="-22.192432" lon="-46.051136">
        <ele>881.854</ele>
        <time>2019-10-14T15:19:47Z</time>
      </trkpt>
      <trkpt lat="-22.192371" lon="-46.051153">
        <ele>882.656</ele>
        <time>2019-10-14T15:19:49Z</time>
      </trkpt>
      <trkpt lat="-22.192322" lon="-46.051174">
        <ele>882.911</ele>
        <time>2019-10-14T15:19:52Z</time>
      </trkpt>
      <trkpt lat="-22.192277" lon="-46.051195">
        <ele>883.308</ele>
        <time>2019-10-14T15:19:56Z</time>
      </trkpt>
      <trkpt lat="-22.192234" lon="-46.051216">
        <ele>883.419</ele>
        <time>2019-10-14T15:19:58Z</time>
      </trkpt>
      <trkpt lat="-22.192177" lon="-46.051234">
        <ele>884.687</ele>
        <time>2019-10-14T15:20:02Z</time>
      </trkpt>
      <trkpt lat="-22.192134" lon="-46.051255">
        <ele>884.779</ele>
        <time>2019-10-14T15:20:04Z</time>
      </trkpt>
      <trkpt lat="-22.192084" lon="-46.051276">
        <ele>885.061</ele>
        <time>2019-10-14T15:20:08Z</time>
      </trkpt>
      <trkpt lat="-22.192025" lon="-46.051301">
        <ele>885.593</ele>
        <time>2019-10-14T15:20:12Z</time>
      </trkpt>
      <trkpt lat="-22.191977" lon="-46.051323">
        <ele>885.996</ele>
        <time>2019-10-14T15:20:15Z</time>
      </trkpt>
      <trkpt lat="-22.191925" lon="-46.051344">
        <ele>886.391</ele>
        <time>2019-10-14T15:20:18Z</time>
      </trkpt>
      <trkpt lat="-22.191884" lon="-46.051369">
        <ele>886.757</ele>
        <time>2019-10-14T15:20:22Z</time>
      </trkpt>
      <trkpt lat="-22.191842" lon="-46.051389">
        <ele>887.379</ele>
        <time>2019-10-14T15:20:25Z</time>
      </trkpt>
      <trkpt lat="-22.191794" lon="-46.051409">
        <ele>887.805</ele>
        <time>2019-10-14T15:20:29Z</time>
      </trkpt>
      <trkpt lat="-22.191739" lon="-46.051429">
        <ele>888.525</ele>
        <time>2019-10-14T15:20:34Z</time>
      </trkpt>
      <trkpt lat="-22.191695" lon="-46.051444">
        <ele>888.908</ele>
        <time>2019-10-14T15:20:36Z</time>
      </trkpt>
      <trkpt lat="-22.191651" lon="-46.051458">
        <ele>889.611</ele>
        <time>2019-10-14T15:20:39Z</time>
      </trkpt>
      <trkpt lat="-22.191598" lon="-46.051484">
        <ele>889.959</ele>
        <time>2019-10-14T15:20:43Z</time>
      </trkpt>
      <trkpt lat="-22.191535" lon="-46.051510">
        <ele>890.421</ele>
        <time>2019-10-14T15:20:48Z</time>
      </trkpt>
      <trkpt lat="-22.191478" lon="-46.051549">
        <ele>891.273</ele>
        <time>2019-10-14T15:20:52Z</time>
      </trkpt>
      <trkpt lat="-22.191435" lon="-46.051581">
        <ele>891.655</ele>
        <time>2019-10-14T15:20:55Z</time>
      </trkpt>
      <trkpt lat="-22.191363" lon="-46.051611">
        <ele>892.078</ele>
        <time>2019-10-14T15:21:00Z</time>
      </trkpt>
      <trkpt lat="-22.191321" lon="-46.051630">
        <ele>892.233</ele>
        <time>2019-10-14T15:21:02Z</time>
      </trkpt>
      <trkpt lat="-22.191271" lon="-46.051655">
        <ele>892.619</ele>
        <time>2019-10-14T15:21:05Z</time>
      </trkpt>
      <trkpt lat="-22.191212" lon="-46.051675">
        <ele>892.935</ele>
        <time>2019-10-14T15:21:09Z</time>
      </trkpt>
      <trkpt lat="-22.191154" lon="-46.051712">
        <ele>893.286</ele>
        <time>2019-10-14T15:21:12Z</time>
      </trkpt>
      <trkpt lat="-22.191107" lon="-46.051731">
        <ele>893.314</ele>
        <time>2019-10-14T15:21:14Z</time>
      </trkpt>
      <trkpt lat="-22.191065" lon="-46.051750">
        <ele>893.708</ele>
        <time>2019-10-14T15:21:16Z</time>
      </trkpt>
      <trkpt lat="-22.191002" lon="-46.051782">
        <ele>893.967</ele>
        <time>2019-10-14T15:21:20Z</time>
      </trkpt>
      <trkpt lat="-22.190953" lon="-46.051798">
        <ele>894.315</ele>
        <time>2019-10-14T15:21:22Z</time>
      </trkpt>
      <trkpt lat="-22.190896" lon="-46.051812">
        <ele>894.257</ele>
        <time>2019-10-14T15:21:25Z</time>
      </trkpt>
      <trkpt lat="-22.190850" lon="-46.051834">
        <ele>894.649</ele>
        <time>2019-10-14T15:21:27Z</time>
      </trkpt>
      <trkpt lat="-22.190805" lon="-46.051863">
        <ele>895.071</ele>
        <time>2019-10-14T15:21:29Z</time>
      </trkpt>
      <trkpt lat="-22.190747" lon="-46.051891">
        <ele>894.964</ele>
        <time>2019-10-14T15:21:31Z</time>
      </trkpt>
      <trkpt lat="-22.190692" lon="-46.051922">
        <ele>895.379</ele>
        <time>2019-10-14T15:21:34Z</time>
      </trkpt>
      <trkpt lat="-22.190645" lon="-46.051944">
        <ele>895.595</ele>
        <time>2019-10-14T15:21:37Z</time>
      </trkpt>
      <trkpt lat="-22.190587" lon="-46.051974">
        <ele>895.617</ele>
        <time>2019-10-14T15:21:38Z</time>
      </trkpt>
      <trkpt lat="-22.190500" lon="-46.052017">
        <ele>896.187</ele>
        <time>2019-10-14T15:21:42Z</time>
      </trkpt>
      <trkpt lat="-22.190456" lon="-46.052042">
        <ele>896.115</ele>
        <time>2019-10-14T15:21:44Z</time>
      </trkpt>
      <trkpt lat="-22.190412" lon="-46.052076">
        <ele>896.008</ele>
        <time>2019-10-14T15:21:46Z</time>
      </trkpt>
      <trkpt lat="-22.190361" lon="-46.052102">
        <ele>896.385</ele>
        <time>2019-10-14T15:21:48Z</time>
      </trkpt>
      <trkpt lat="-22.190296" lon="-46.052153">
        <ele>896.543</ele>
        <time>2019-10-14T15:21:52Z</time>
      </trkpt>
      <trkpt lat="-22.190219" lon="-46.052218">
        <ele>897.045</ele>
        <time>2019-10-14T15:21:55Z</time>
      </trkpt>
      <trkpt lat="-22.190173" lon="-46.052263">
        <ele>897.157</ele>
        <time>2019-10-14T15:21:57Z</time>
      </trkpt>
      <trkpt lat="-22.190133" lon="-46.052307">
        <ele>897.639</ele>
        <time>2019-10-14T15:22:00Z</time>
      </trkpt>
      <trkpt lat="-22.190086" lon="-46.052340">
        <ele>897.782</ele>
        <time>2019-10-14T15:22:02Z</time>
      </trkpt>
      <trkpt lat="-22.190033" lon="-46.052392">
        <ele>897.547</ele>
        <time>2019-10-14T15:22:04Z</time>
      </trkpt>
      <trkpt lat="-22.189997" lon="-46.052429">
        <ele>897.673</ele>
        <time>2019-10-14T15:22:06Z</time>
      </trkpt>
      <trkpt lat="-22.189955" lon="-46.052472">
        <ele>897.535</ele>
        <time>2019-10-14T15:22:08Z</time>
      </trkpt>
      <trkpt lat="-22.189917" lon="-46.052510">
        <ele>897.286</ele>
        <time>2019-10-14T15:22:10Z</time>
      </trkpt>
      <trkpt lat="-22.189876" lon="-46.052545">
        <ele>896.714</ele>
        <time>2019-10-14T15:22:12Z</time>
      </trkpt>
      <trkpt lat="-22.189830" lon="-46.052590">
        <ele>896.308</ele>
        <time>2019-10-14T15:22:13Z</time>
      </trkpt>
      <trkpt lat="-22.189742" lon="-46.052648">
        <ele>895.697</ele>
        <time>2019-10-14T15:22:16Z</time>
      </trkpt>
      <trkpt lat="-22.189687" lon="-46.052672">
        <ele>895.225</ele>
        <time>2019-10-14T15:22:17Z</time>
      </trkpt>
      <trkpt lat="-22.189633" lon="-46.052700">
        <ele>895.037</ele>
        <time>2019-10-14T15:22:19Z</time>
      </trkpt>
      <trkpt lat="-22.189372" lon="-46.052871">
        <ele>892.539</ele>
        <time>2019-10-14T15:22:26Z</time>
      </trkpt>
      <trkpt lat="-22.189298" lon="-46.052892">
        <ele>891.431</ele>
        <time>2019-10-14T15:22:28Z</time>
      </trkpt>
      <trkpt lat="-22.189160" lon="-46.052933">
        <ele>889.884</ele>
        <time>2019-10-14T15:22:32Z</time>
      </trkpt>
      <trkpt lat="-22.186754" lon="-46.054670">
        <ele>868.219</ele>
        <time>2019-10-14T15:23:24Z</time>
      </trkpt>
      <trkpt lat="-22.186705" lon="-46.054688">
        <ele>868.215</ele>
        <time>2019-10-14T15:23:26Z</time>
      </trkpt>
      <trkpt lat="-22.186644" lon="-46.054711">
        <ele>869.027</ele>
        <time>2019-10-14T15:23:28Z</time>
      </trkpt>
      <trkpt lat="-22.186581" lon="-46.054729">
        <ele>868.568</ele>
        <time>2019-10-14T15:23:30Z</time>
      </trkpt>
      <trkpt lat="-22.186526" lon="-46.054749">
        <ele>868.914</ele>
        <time>2019-10-14T15:23:32Z</time>
      </trkpt>
      <trkpt lat="-22.185604" lon="-46.055213">
        <ele>869.508</ele>
        <time>2019-10-14T15:23:56Z</time>
      </trkpt>
      <trkpt lat="-22.179598" lon="-46.053928">
        <ele>835.716</ele>
        <time>2019-10-14T15:25:38Z</time>
      </trkpt>
      <trkpt lat="-22.179520" lon="-46.053939">
        <ele>835.964</ele>
        <time>2019-10-14T15:25:39Z</time>
      </trkpt>
      <trkpt lat="-22.179464" lon="-46.053948">
        <ele>836.586</ele>
        <time>2019-10-14T15:25:41Z</time>
      </trkpt>
      <trkpt lat="-22.179410" lon="-46.053948">
        <ele>836.528</ele>
        <time>2019-10-14T15:25:42Z</time>
      </trkpt>
      <trkpt lat="-22.179339" lon="-46.053950">
        <ele>837.250</ele>
        <time>2019-10-14T15:25:45Z</time>
      </trkpt>
      <trkpt lat="-22.179276" lon="-46.053958">
        <ele>837.673</ele>
        <time>2019-10-14T15:25:46Z</time>
      </trkpt>
      <trkpt lat="-22.179224" lon="-46.053961">
        <ele>838.138</ele>
        <time>2019-10-14T15:25:48Z</time>
      </trkpt>
      <trkpt lat="-22.179163" lon="-46.053963">
        <ele>838.154</ele>
        <time>2019-10-14T15:25:50Z</time>
      </trkpt>
      <trkpt lat="-22.179110" lon="-46.053970">
        <ele>838.052</ele>
        <time>2019-10-14T15:25:52Z</time>
      </trkpt>
      <trkpt lat="-22.179055" lon="-46.053978">
        <ele>837.853</ele>
        <time>2019-10-14T15:25:55Z</time>
      </trkpt>
      <trkpt lat="-22.178998" lon="-46.053990">
        <ele>837.408</ele>
        <time>2019-10-14T15:25:56Z</time>
      </trkpt>
      <trkpt lat="-22.178941" lon="-46.053995">
        <ele>837.408</ele>
        <time>2019-10-14T15:25:58Z</time>
      </trkpt>
      <trkpt lat="-22.173012" lon="-46.052627">
        <ele>827.589</ele>
        <time>2019-10-14T15:28:11Z</time>
      </trkpt>
      <trkpt lat="-22.172961" lon="-46.052558">
        <ele>827.867</ele>
        <time>2019-10-14T15:28:14Z</time>
      </trkpt>
      <trkpt lat="-22.172907" lon="-46.052525">
        <ele>827.979</ele>
        <time>2019-10-14T15:28:16Z</time>
      </trkpt>
      <trkpt lat="-22.172857" lon="-46.052499">
        <ele>827.991</ele>
        <time>2019-10-14T15:28:18Z</time>
      </trkpt>
      <trkpt lat="-22.172796" lon="-46.052466">
        <ele>827.823</ele>
        <time>2019-10-14T15:28:19Z</time>
      </trkpt>
      <trkpt lat="-22.172718" lon="-46.052427">
        <ele>827.876</ele>
        <time>2019-10-14T15:28:22Z</time>
      </trkpt>
      <trkpt lat="-22.167871" lon="-46.051305">
        <ele>823.461</ele>
        <time>2019-10-14T15:30:06Z</time>
      </trkpt>
      <trkpt lat="-22.167822" lon="-46.051306">
        <ele>823.257</ele>
        <time>2019-10-14T15:30:08Z</time>
      </trkpt>
      <trkpt lat="-22.167769" lon="-46.051298">
        <ele>823.739</ele>
        <time>2019-10-14T15:30:10Z</time>
      </trkpt>
      <trkpt lat="-22.167715" lon="-46.051316">
        <ele>823.501</ele>
        <time>2019-10-14T15:30:12Z</time>
      </trkpt>
      <trkpt lat="-22.167657" lon="-46.051328">
        <ele>823.421</ele>
        <time>2019-10-14T15:30:14Z</time>
      </trkpt>
      <trkpt lat="-22.164524" lon="-46.051041">
        <ele>823.608</ele>
        <time>2019-10-14T15:31:27Z</time>
      </trkpt>
      <trkpt lat="-22.164423" lon="-46.051026">
        <ele>824.367</ele>
        <time>2019-10-14T15:31:30Z</time>
      </trkpt>
      <trkpt lat="-22.164423" lon="-46.051026">
        <ele>824.385</ele>
        <time>2019-10-14T15:31:30Z</time>
      </trkpt>
      <trkpt lat="-22.164364" lon="-46.051029">
        <ele>824.277</ele>
        <time>2019-10-14T15:31:32Z</time>
      </trkpt>
      <trkpt lat="-22.164304" lon="-46.051019">
        <ele>824.019</ele>
        <time>2019-10-14T15:31:35Z</time>
      </trkpt>
      <trkpt lat="-22.164245" lon="-46.051018">
        <ele>823.451</ele>
        <time>2019-10-14T15:31:37Z</time>
      </trkpt>
      <trkpt lat="-22.164168" lon="-46.051022">
        <ele>823.144</ele>
        <time>2019-10-14T15:31:39Z</time>
      </trkpt>
      <trkpt lat="-22.164115" lon="-46.051027">
        <ele>822.719</ele>
        <time>2019-10-14T15:31:41Z</time>
      </trkpt>
      <trkpt lat="-22.164057" lon="-46.051025">
        <ele>822.685</ele>
        <time>2019-10-14T15:31:42Z</time>
      </trkpt>
      <trkpt lat="-22.163990" lon="-46.051024">
        <ele>822.419</ele>
        <time>2019-10-14T15:31:44Z</time>
      </trkpt>
      <trkpt lat="-22.163890" lon="-46.051027">
        <ele>823.109</ele>
        <time>2019-10-14T15:31:47Z</time>
      </trkpt>
      <trkpt lat="-22.163833" lon="-46.051034">
        <ele>823.219</ele>
        <time>2019-10-14T15:31:48Z</time>
      </trkpt>
      <trkpt lat="-22.163759" lon="-46.051037">
        <ele>822.508</ele>
        <time>2019-10-14T15:31:50Z</time>
      </trkpt>
      <trkpt lat="-22.163691" lon="-46.051043">
        <ele>822.015</ele>
        <time>2019-10-14T15:31:52Z</time>
      </trkpt>
      <trkpt lat="-22.163643" lon="-46.051046">
        <ele>822.263</ele>
        <time>2019-10-14T15:31:53Z</time>
      </trkpt>
      <trkpt lat="-22.163561" lon="-46.051052">
        <ele>822.475</ele>
        <time>2019-10-14T15:31:55Z</time>
      </trkpt>
      <trkpt lat="-22.163439" lon="-46.051053">
        <ele>822.587</ele>
        <time>2019-10-14T15:31:59Z</time>
      </trkpt>
      <trkpt lat="-22.163378" lon="-46.051047">
        <ele>821.969</ele>
        <time>2019-10-14T15:32:00Z</time>
      </trkpt>
      <trkpt lat="-22.163318" lon="-46.051037">
        <ele>822.132</ele>
        <time>2019-10-14T15:32:02Z</time>
      </trkpt>
      <trkpt lat="-22.163255" lon="-46.051029">
        <ele>822.517</ele>
        <time>2019-10-14T15:32:03Z</time>
      </trkpt>
      <trkpt lat="-22.163186" lon="-46.051027">
        <ele>822.653</ele>
        <time>2019-10-14T15:32:05Z</time>
      </trkpt>
      <trkpt lat="-22.163124" lon="-46.051029">
        <ele>822.813</ele>
        <time>2019-10-14T15:32:07Z</time>
      </trkpt>
      <trkpt lat="-22.163064" lon="-46.051031">
        <ele>822.543</ele>
        <time>2019-10-14T15:32:08Z</time>
      </trkpt>
      <trkpt lat="-22.163007" lon="-46.051028">
        <ele>821.907</ele>
        <time>2019-10-14T15:32:10Z</time>
      </trkpt>
      <trkpt lat="-22.162907" lon="-46.051051">
        <ele>821.908</ele>
        <time>2019-10-14T15:32:12Z</time>
      </trkpt>
      <trkpt lat="-22.162498" lon="-46.051064">
        <ele>821.555</ele>
        <time>2019-10-14T15:32:22Z</time>
      </trkpt>
      <trkpt lat="-22.162452" lon="-46.051064">
        <ele>821.033</ele>
        <time>2019-10-14T15:32:24Z</time>
      </trkpt>
      <trkpt lat="-22.160139" lon="-46.050868">
        <ele>820.335</ele>
        <time>2019-10-14T15:33:18Z</time>
      </trkpt>
      <trkpt lat="-22.160072" lon="-46.050860">
        <ele>820.687</ele>
        <time>2019-10-14T15:33:20Z</time>
      </trkpt>
      <trkpt lat="-22.160017" lon="-46.050837">
        <ele>820.549</ele>
        <time>2019-10-14T15:33:21Z</time>
      </trkpt>
      <trkpt lat="-22.159953" lon="-46.050813">
        <ele>820.192</ele>
        <time>2019-10-14T15:33:23Z</time>
      </trkpt>
      <trkpt lat="-22.159897" lon="-46.050791">
        <ele>820.497</ele>
        <time>2019-10-14T15:33:24Z</time>
      </trkpt>
      <trkpt lat="-22.159794" lon="-46.050733">
        <ele>820.143</ele>
        <time>2019-10-14T15:33:28Z</time>
      </trkpt>
      <trkpt lat="-22.159737" lon="-46.050680">
        <ele>820.749</ele>
        <time>2019-10-14T15:33:30Z</time>
      </trkpt>
      <trkpt lat="-22.159677" lon="-46.050612">
        <ele>820.702</ele>
        <time>2019-10-14T15:33:33Z</time>
      </trkpt>
      <trkpt lat="-22.159639" lon="-46.050526">
        <ele>820.622</ele>
        <time>2019-10-14T15:33:35Z</time>
      </trkpt>
      <trkpt lat="-22.159624" lon="-46.050445">
        <ele>820.408</ele>
        <time>2019-10-14T15:33:37Z</time>
      </trkpt>
      <trkpt lat="-22.159611" lon="-46.050381">
        <ele>820.678</ele>
        <time>2019-10-14T15:33:39Z</time>
      </trkpt>
      <trkpt lat="-22.159604" lon="-46.050325">
        <ele>820.356</ele>
        <time>2019-10-14T15:33:41Z</time>
      </trkpt>
      <trkpt lat="-22.159592" lon="-46.050269">
        <ele>820.348</ele>
        <time>2019-10-14T15:33:43Z</time>
      </trkpt>
      <trkpt lat="-22.159576" lon="-46.050192">
        <ele>820.690</ele>
        <time>2019-10-14T15:33:44Z</time>
      </trkpt>
      <trkpt lat="-22.159553" lon="-46.050107">
        <ele>820.832</ele>
        <time>2019-10-14T15:33:46Z</time>
      </trkpt>
      <trkpt lat="-22.159524" lon="-46.050043">
        <ele>821.155</ele>
        <time>2019-10-14T15:33:49Z</time>
      </trkpt>
      <trkpt lat="-22.159486" lon="-46.049998">
        <ele>821.590</ele>
        <time>2019-10-14T15:33:51Z</time>
      </trkpt>
      <trkpt lat="-22.159423" lon="-46.049952">
        <ele>822.356</ele>
        <time>2019-10-14T15:33:54Z</time>
      </trkpt>
      <trkpt lat="-22.159377" lon="-46.049923">
        <ele>822.234</ele>
        <time>2019-10-14T15:33:56Z</time>
      </trkpt>
      <trkpt lat="-22.159273" lon="-46.049877">
        <ele>822.955</ele>
        <time>2019-10-14T15:34:00Z</time>
      </trkpt>
      <trkpt lat="-22.159214" lon="-46.049860">
        <ele>822.910</ele>
        <time>2019-10-14T15:34:02Z</time>
      </trkpt>
      <trkpt lat="-22.159165" lon="-46.049842">
        <ele>823.208</ele>
        <time>2019-10-14T15:34:05Z</time>
      </trkpt>
      <trkpt lat="-22.159114" lon="-46.049821">
        <ele>823.317</ele>
        <time>2019-10-14T15:34:07Z</time>
      </trkpt>
      <trkpt lat="-22.159057" lon="-46.049799">
        <ele>823.645</ele>
        <time>2019-10-14T15:34:09Z</time>
      </trkpt>
      <trkpt lat="-22.159014" lon="-46.049785">
        <ele>823.697</ele>
        <time>2019-10-14T15:34:10Z</time>
      </trkpt>
      <trkpt lat="-22.158956" lon="-46.049766">
        <ele>823.639</ele>
        <time>2019-10-14T15:34:13Z</time>
      </trkpt>
      <trkpt lat="-22.158911" lon="-46.049752">
        <ele>823.341</ele>
        <time>2019-10-14T15:34:14Z</time>
      </trkpt>
      <trkpt lat="-22.158867" lon="-46.049739">
        <ele>823.254</ele>
        <time>2019-10-14T15:34:16Z</time>
      </trkpt>
      <trkpt lat="-22.158811" lon="-46.049724">
        <ele>823.469</ele>
        <time>2019-10-14T15:34:18Z</time>
      </trkpt>
      <trkpt lat="-22.158769" lon="-46.049702">
        <ele>822.925</ele>
        <time>2019-10-14T15:34:20Z</time>
      </trkpt>
      <trkpt lat="-22.158712" lon="-46.049675">
        <ele>823.122</ele>
        <time>2019-10-14T15:34:21Z</time>
      </trkpt>
      <trkpt lat="-22.158661" lon="-46.049656">
        <ele>823.962</ele>
        <time>2019-10-14T15:34:23Z</time>
      </trkpt>
      <trkpt lat="-22.158615" lon="-46.049648">
        <ele>823.708</ele>
        <time>2019-10-14T15:34:25Z</time>
      </trkpt>
      <trkpt lat="-22.158568" lon="-46.049649">
        <ele>824.208</ele>
        <time>2019-10-14T15:34:26Z</time>
      </trkpt>
      <trkpt lat="-22.158521" lon="-46.049641">
        <ele>824.626</ele>
        <time>2019-10-14T15:34:28Z</time>
      </trkpt>
      <trkpt lat="-22.158431" lon="-46.049636">
        <ele>824.334</ele>
        <time>2019-10-14T15:34:30Z</time>
      </trkpt>
      <trkpt lat="-22.158368" lon="-46.049643">
        <ele>824.766</ele>
        <time>2019-10-14T15:34:33Z</time>
      </trkpt>
      <trkpt lat="-22.158320" lon="-46.049652">
        <ele>824.638</ele>
        <time>2019-10-14T15:34:34Z</time>
      </trkpt>
      <trkpt lat="-22.158251" lon="-46.049661">
        <ele>824.780</ele>
        <time>2019-10-14T15:34:37Z</time>
      </trkpt>
      <trkpt lat="-22.158198" lon="-46.049671">
        <ele>825.383</ele>
        <time>2019-10-14T15:34:39Z</time>
      </trkpt>
      <trkpt lat="-22.158115" lon="-46.049686">
        <ele>825.118</ele>
        <time>2019-10-14T15:34:41Z</time>
      </trkpt>
      <trkpt lat="-22.158059" lon="-46.049690">
        <ele>825.464</ele>
        <time>2019-10-14T15:34:43Z</time>
      </trkpt>
      <trkpt lat="-22.157995" lon="-46.049695">
        <ele>825.843</ele>
        <time>2019-10-14T15:34:45Z</time>
      </trkpt>
      <trkpt lat="-22.157942" lon="-46.049711">
        <ele>826.064</ele>
        <time>2019-10-14T15:34:47Z</time>
      </trkpt>
      <trkpt lat="-22.157884" lon="-46.049726">
        <ele>825.710</ele>
        <time>2019-10-14T15:34:48Z</time>
      </trkpt>
      <trkpt lat="-22.157826" lon="-46.049734">
        <ele>825.808</ele>
        <time>2019-10-14T15:34:50Z</time>
      </trkpt>
      <trkpt lat="-22.156353" lon="-46.049311">
        <ele>822.668</ele>
        <time>2019-10-14T15:35:22Z</time>
      </trkpt>
      <trkpt lat="-22.156307" lon="-46.049295">
        <ele>822.876</ele>
        <time>2019-10-14T15:35:24Z</time>
      </trkpt>
      <trkpt lat="-22.156260" lon="-46.049285">
        <ele>822.848</ele>
        <time>2019-10-14T15:35:25Z</time>
      </trkpt>
      <trkpt lat="-22.156198" lon="-46.049276">
        <ele>823.090</ele>
        <time>2019-10-14T15:35:27Z</time>
      </trkpt>
      <trkpt lat="-22.155704" lon="-46.049214">
        <ele>823.742</ele>
        <time>2019-10-14T15:35:39Z</time>
      </trkpt>
      <trkpt lat="-22.155645" lon="-46.049214">
        <ele>823.955</ele>
        <time>2019-10-14T15:35:40Z</time>
      </trkpt>
      <trkpt lat="-22.155585" lon="-46.049220">
        <ele>824.160</ele>
        <time>2019-10-14T15:35:42Z</time>
      </trkpt>
      <trkpt lat="-22.155538" lon="-46.049224">
        <ele>824.316</ele>
        <time>2019-10-14T15:35:43Z</time>
      </trkpt>
      <trkpt lat="-22.155476" lon="-46.049227">
        <ele>824.519</ele>
        <time>2019-10-14T15:35:45Z</time>
      </trkpt>
      <trkpt lat="-22.155408" lon="-46.049239">
        <ele>824.809</ele>
        <time>2019-10-14T15:35:48Z</time>
      </trkpt>
      <trkpt lat="-22.155352" lon="-46.049253">
        <ele>824.719</ele>
        <time>2019-10-14T15:35:50Z</time>
      </trkpt>
      <trkpt lat="-22.155284" lon="-46.049273">
        <ele>825.108</ele>
        <time>2019-10-14T15:35:52Z</time>
      </trkpt>
      <trkpt lat="-22.155224" lon="-46.049283">
        <ele>825.475</ele>
        <time>2019-10-14T15:35:54Z</time>
      </trkpt>
      <trkpt lat="-22.155166" lon="-46.049291">
        <ele>825.943</ele>
        <time>2019-10-14T15:35:56Z</time>
      </trkpt>
      <trkpt lat="-22.155097" lon="-46.049291">
        <ele>826.055</ele>
        <time>2019-10-14T15:35:58Z</time>
      </trkpt>
      <trkpt lat="-22.155032" lon="-46.049283">
        <ele>826.657</ele>
        <time>2019-10-14T15:36:00Z</time>
      </trkpt>
      <trkpt lat="-22.154967" lon="-46.049274">
        <ele>827.199</ele>
        <time>2019-10-14T15:36:02Z</time>
      </trkpt>
      <trkpt lat="-22.154914" lon="-46.049275">
        <ele>827.632</ele>
        <time>2019-10-14T15:36:04Z</time>
      </trkpt>
      <trkpt lat="-22.154868" lon="-46.049273">
        <ele>828.127</ele>
        <time>2019-10-14T15:36:06Z</time>
      </trkpt>
      <trkpt lat="-22.154797" lon="-46.049267">
        <ele>828.973</ele>
        <time>2019-10-14T15:36:08Z</time>
      </trkpt>
      <trkpt lat="-22.154736" lon="-46.049247">
        <ele>829.312</ele>
        <time>2019-10-14T15:36:10Z</time>
      </trkpt>
      <trkpt lat="-22.154684" lon="-46.049234">
        <ele>829.832</ele>
        <time>2019-10-14T15:36:12Z</time>
      </trkpt>
      <trkpt lat="-22.154638" lon="-46.049236">
        <ele>830.205</ele>
        <time>2019-10-14T15:36:14Z</time>
      </trkpt>
      <trkpt lat="-22.154592" lon="-46.049240">
        <ele>830.308</ele>
        <time>2019-10-14T15:36:15Z</time>
      </trkpt>
      <trkpt lat="-22.154545" lon="-46.049243">
        <ele>830.425</ele>
        <time>2019-10-14T15:36:17Z</time>
      </trkpt>
      <trkpt lat="-22.154492" lon="-46.049237">
        <ele>830.273</ele>
        <time>2019-10-14T15:36:18Z</time>
      </trkpt>
      <trkpt lat="-22.154413" lon="-46.049221">
        <ele>830.075</ele>
        <time>2019-10-14T15:36:21Z</time>
      </trkpt>
      <trkpt lat="-22.154368" lon="-46.049213">
        <ele>829.987</ele>
        <time>2019-10-14T15:36:23Z</time>
      </trkpt>
      <trkpt lat="-22.154319" lon="-46.049198">
        <ele>830.269</ele>
        <time>2019-10-14T15:36:24Z</time>
      </trkpt>
      <trkpt lat="-22.154224" lon="-46.049143">
        <ele>829.772</ele>
        <time>2019-10-14T15:36:27Z</time>
      </trkpt>
      <trkpt lat="-22.154184" lon="-46.049112">
        <ele>829.927</ele>
        <time>2019-10-14T15:36:29Z</time>
      </trkpt>
      <trkpt lat="-22.154142" lon="-46.049080">
        <ele>829.813</ele>
        <time>2019-10-14T15:36:31Z</time>
      </trkpt>
      <trkpt lat="-22.154083" lon="-46.049038">
        <ele>829.547</ele>
        <time>2019-10-14T15:36:33Z</time>
      </trkpt>
      <trkpt lat="-22.153999" lon="-46.048956">
        <ele>829.529</ele>
        <time>2019-10-14T15:36:37Z</time>
      </trkpt>
      <trkpt lat="-22.153952" lon="-46.048908">
        <ele>829.321</ele>
        <time>2019-10-14T15:36:38Z</time>
      </trkpt>
      <trkpt lat="-22.153817" lon="-46.048765">
        <ele>828.508</ele>
        <time>2019-10-14T15:36:43Z</time>
      </trkpt>
      <trkpt lat="-22.153139" lon="-46.048124">
        <ele>827.958</ele>
        <time>2019-10-14T15:37:03Z</time>
      </trkpt>
      <trkpt lat="-22.153092" lon="-46.048091">
        <ele>827.896</ele>
        <time>2019-10-14T15:37:05Z</time>
      </trkpt>
      <trkpt lat="-22.153059" lon="-46.048035">
        <ele>827.828</ele>
        <time>2019-10-14T15:37:07Z</time>
      </trkpt>
      <trkpt lat="-22.153027" lon="-46.047980">
        <ele>827.730</ele>
        <time>2019-10-14T15:37:08Z</time>
      </trkpt>
      <trkpt lat="-22.152992" lon="-46.047933">
        <ele>827.862</ele>
        <time>2019-10-14T15:37:10Z</time>
      </trkpt>
      <trkpt lat="-22.152957" lon="-46.047880">
        <ele>827.695</ele>
        <time>2019-10-14T15:37:12Z</time>
      </trkpt>
      <trkpt lat="-22.152918" lon="-46.047822">
        <ele>827.720</ele>
        <time>2019-10-14T15:37:13Z</time>
      </trkpt>
      <trkpt lat="-22.152884" lon="-46.047777">
        <ele>828.166</ele>
        <time>2019-10-14T15:37:15Z</time>
      </trkpt>
      <trkpt lat="-22.152821" lon="-46.047696">
        <ele>828.193</ele>
        <time>2019-10-14T15:37:18Z</time>
      </trkpt>
      <trkpt lat="-22.152778" lon="-46.047631">
        <ele>827.965</ele>
        <time>2019-10-14T15:37:19Z</time>
      </trkpt>
      <trkpt lat="-22.152708" lon="-46.047526">
        <ele>828.121</ele>
        <time>2019-10-14T15:37:22Z</time>
      </trkpt>
      <trkpt lat="-22.152643" lon="-46.047430">
        <ele>828.808</ele>
        <time>2019-10-14T15:37:25Z</time>
      </trkpt>
      <trkpt lat="-22.152605" lon="-46.047369">
        <ele>828.213</ele>
        <time>2019-10-14T15:37:27Z</time>
      </trkpt>
      <trkpt lat="-22.152575" lon="-46.047320">
        <ele>827.611</ele>
        <time>2019-10-14T15:37:29Z</time>
      </trkpt>
      <trkpt lat="-22.152250" lon="-46.046790">
        <ele>825.243</ele>
        <time>2019-10-14T15:37:41Z</time>
      </trkpt>
      <trkpt lat="-22.151938" lon="-46.046070">
        <ele>823.695</ele>
        <time>2019-10-14T15:37:58Z</time>
      </trkpt>
      <trkpt lat="-22.151929" lon="-46.045913">
        <ele>822.327</ele>
        <time>2019-10-14T15:38:13Z</time>
      </trkpt>
      <trkpt lat="-22.151927" lon="-46.045862">
        <ele>822.160</ele>
        <time>2019-10-14T15:38:14Z</time>
      </trkpt>
      <trkpt lat="-22.151920" lon="-46.045768">
        <ele>821.455</ele>
        <time>2019-10-14T15:38:17Z</time>
      </trkpt>
      <trkpt lat="-22.151863" lon="-46.045560">
        <ele>820.681</ele>
        <time>2019-10-14T15:38:20Z</time>
      </trkpt>
      <trkpt lat="-22.151780" lon="-46.045385">
        <ele>819.615</ele>
        <time>2019-10-14T15:38:25Z</time>
      </trkpt>
      <trkpt lat="-22.151768" lon="-46.045334">
        <ele>819.865</ele>
        <time>2019-10-14T15:38:27Z</time>
      </trkpt>
      <trkpt lat="-22.151759" lon="-46.045276">
        <ele>819.811</ele>
        <time>2019-10-14T15:38:28Z</time>
      </trkpt>
      <trkpt lat="-22.151757" lon="-46.045217">
        <ele>820.008</ele>
        <time>2019-10-14T15:38:30Z</time>
      </trkpt>
      <trkpt lat="-22.151758" lon="-46.045155">
        <ele>820.355</ele>
        <time>2019-10-14T15:38:31Z</time>
      </trkpt>
      <trkpt lat="-22.151758" lon="-46.045090">
        <ele>820.323</ele>
        <time>2019-10-14T15:38:33Z</time>
      </trkpt>
      <trkpt lat="-22.151756" lon="-46.045011">
        <ele>820.665</ele>
        <time>2019-10-14T15:38:35Z</time>
      </trkpt>
      <trkpt lat="-22.151738" lon="-46.044818">
        <ele>820.067</ele>
        <time>2019-10-14T15:38:41Z</time>
      </trkpt>
      <trkpt lat="-22.151746" lon="-46.044740">
        <ele>820.489</ele>
        <time>2019-10-14T15:38:42Z</time>
      </trkpt>
      <trkpt lat="-22.151754" lon="-46.044691">
        <ele>820.752</ele>
        <time>2019-10-14T15:38:44Z</time>
      </trkpt>
      <trkpt lat="-22.151766" lon="-46.044586">
        <ele>820.977</ele>
        <time>2019-10-14T15:38:46Z</time>
      </trkpt>
      <trkpt lat="-22.151780" lon="-46.044507">
        <ele>820.633</ele>
        <time>2019-10-14T15:38:48Z</time>
      </trkpt>
      <trkpt lat="-22.151791" lon="-46.044432">
        <ele>820.859</ele>
        <time>2019-10-14T15:38:50Z</time>
      </trkpt>
      <trkpt lat="-22.151802" lon="-46.044360">
        <ele>820.703</ele>
        <time>2019-10-14T15:38:51Z</time>
      </trkpt>
      <trkpt lat="-22.151811" lon="-46.044310">
        <ele>820.723</ele>
        <time>2019-10-14T15:38:52Z</time>
      </trkpt>
      <trkpt lat="-22.151816" lon="-46.044258">
        <ele>821.208</ele>
        <time>2019-10-14T15:38:54Z</time>
      </trkpt>
      <trkpt lat="-22.151824" lon="-46.044182">
        <ele>821.779</ele>
        <time>2019-10-14T15:38:57Z</time>
      </trkpt>
      <trkpt lat="-22.151839" lon="-46.044121">
        <ele>821.677</ele>
        <time>2019-10-14T15:38:59Z</time>
      </trkpt>
      <trkpt lat="-22.151849" lon="-46.044060">
        <ele>821.659</ele>
        <time>2019-10-14T15:39:01Z</time>
      </trkpt>
      <trkpt lat="-22.151854" lon="-46.044008">
        <ele>821.781</ele>
        <time>2019-10-14T15:39:02Z</time>
      </trkpt>
      <trkpt lat="-22.151868" lon="-46.043932">
        <ele>822.053</ele>
        <time>2019-10-14T15:39:04Z</time>
      </trkpt>
      <trkpt lat="-22.151885" lon="-46.043869">
        <ele>822.066</ele>
        <time>2019-10-14T15:39:05Z</time>
      </trkpt>
      <trkpt lat="-22.151904" lon="-46.043754">
        <ele>821.931</ele>
        <time>2019-10-14T15:39:08Z</time>
      </trkpt>
      <trkpt lat="-22.151914" lon="-46.043679">
        <ele>821.927</ele>
        <time>2019-10-14T15:39:10Z</time>
      </trkpt>
      <trkpt lat="-22.151921" lon="-46.043614">
        <ele>821.888</ele>
        <time>2019-10-14T15:39:12Z</time>
      </trkpt>
      <trkpt lat="-22.151941" lon="-46.043507">
        <ele>821.824</ele>
        <time>2019-10-14T15:39:15Z</time>
      </trkpt>
      <trkpt lat="-22.151910" lon="-46.043401">
        <ele>822.326</ele>
        <time>2019-10-14T15:39:18Z</time>
      </trkpt>
      <trkpt lat="-22.151912" lon="-46.043350">
        <ele>822.908</ele>
        <time>2019-10-14T15:39:29Z</time>
      </trkpt>
      <trkpt lat="-22.151955" lon="-46.043366">
        <ele>825.262</ele>
        <time>2019-10-14T15:46:05Z</time>
      </trkpt>
      <trkpt lat="-22.151957" lon="-46.043439">
        <ele>827.150</ele>
        <time>2019-10-14T15:56:15Z</time>
      </trkpt>
      <trkpt lat="-22.151948" lon="-46.043507">
        <ele>827.372</ele>
        <time>2019-10-14T15:56:18Z</time>
      </trkpt>
      <trkpt lat="-22.151930" lon="-46.043568">
        <ele>827.284</ele>
        <time>2019-10-14T15:56:21Z</time>
      </trkpt>
      <trkpt lat="-22.151912" lon="-46.043633">
        <ele>826.726</ele>
        <time>2019-10-14T15:56:23Z</time>
      </trkpt>
      <trkpt lat="-22.151899" lon="-46.043703">
        <ele>826.559</ele>
        <time>2019-10-14T16:01:16Z</time>
      </trkpt>
      <trkpt lat="-22.151719" lon="-46.044667">
        <ele>825.754</ele>
        <time>2019-10-14T16:01:38Z</time>
      </trkpt>
      <trkpt lat="-22.151732" lon="-46.044749">
        <ele>825.660</ele>
        <time>2019-10-14T16:01:40Z</time>
      </trkpt>
      <trkpt lat="-22.151740" lon="-46.044867">
        <ele>825.733</ele>
        <time>2019-10-14T16:01:44Z</time>
      </trkpt>
      <trkpt lat="-22.151747" lon="-46.044958">
        <ele>825.523</ele>
        <time>2019-10-14T16:01:48Z</time>
      </trkpt>
      <trkpt lat="-22.151749" lon="-46.045010">
        <ele>825.815</ele>
        <time>2019-10-14T16:01:50Z</time>
      </trkpt>
      <trkpt lat="-22.151756" lon="-46.045133">
        <ele>825.608</ele>
        <time>2019-10-14T16:01:54Z</time>
      </trkpt>
      <trkpt lat="-22.151760" lon="-46.045265">
        <ele>825.617</ele>
        <time>2019-10-14T16:01:59Z</time>
      </trkpt>
      <trkpt lat="-22.151760" lon="-46.045359">
        <ele>825.445</ele>
        <time>2019-10-14T16:02:02Z</time>
      </trkpt>
      <trkpt lat="-22.151774" lon="-46.045457">
        <ele>825.497</ele>
        <time>2019-10-14T16:02:06Z</time>
      </trkpt>
      <trkpt lat="-22.151791" lon="-46.045519">
        <ele>825.349</ele>
        <time>2019-10-14T16:02:09Z</time>
      </trkpt>
      <trkpt lat="-22.151803" lon="-46.045592">
        <ele>824.821</ele>
        <time>2019-10-14T16:02:11Z</time>
      </trkpt>
      <trkpt lat="-22.151790" lon="-46.045649">
        <ele>824.794</ele>
        <time>2019-10-14T16:02:12Z</time>
      </trkpt>
      <trkpt lat="-22.151768" lon="-46.045715">
        <ele>824.429</ele>
        <time>2019-10-14T16:02:14Z</time>
      </trkpt>
      <trkpt lat="-22.151729" lon="-46.045790">
        <ele>824.275</ele>
        <time>2019-10-14T16:02:18Z</time>
      </trkpt>
      <trkpt lat="-22.151696" lon="-46.045838">
        <ele>823.567</ele>
        <time>2019-10-14T16:02:20Z</time>
      </trkpt>
      <trkpt lat="-22.151656" lon="-46.045888">
        <ele>822.781</ele>
        <time>2019-10-14T16:02:21Z</time>
      </trkpt>
      <trkpt lat="-22.151624" lon="-46.045926">
        <ele>823.019</ele>
        <time>2019-10-14T16:02:22Z</time>
      </trkpt>
      <trkpt lat="-22.151566" lon="-46.045993">
        <ele>822.808</ele>
        <time>2019-10-14T16:02:24Z</time>
      </trkpt>
      <trkpt lat="-22.151217" lon="-46.046351">
        <ele>822.860</ele>
        <time>2019-10-14T16:02:35Z</time>
      </trkpt>
      <trkpt lat="-22.151162" lon="-46.046404">
        <ele>822.488</ele>
        <time>2019-10-14T16:02:37Z</time>
      </trkpt>
      <trkpt lat="-22.151069" lon="-46.046441">
        <ele>822.690</ele>
        <time>2019-10-14T16:02:40Z</time>
      </trkpt>
      <trkpt lat="-22.151017" lon="-46.046461">
        <ele>822.442</ele>
        <time>2019-10-14T16:02:43Z</time>
      </trkpt>
      <trkpt lat="-22.150949" lon="-46.046473">
        <ele>822.564</ele>
        <time>2019-10-14T16:02:46Z</time>
      </trkpt>
      <trkpt lat="-22.150882" lon="-46.046495">
        <ele>822.597</ele>
        <time>2019-10-14T16:02:49Z</time>
      </trkpt>
      <trkpt lat="-22.150833" lon="-46.046505">
        <ele>822.272</ele>
        <time>2019-10-14T16:02:50Z</time>
      </trkpt>
      <trkpt lat="-22.150775" lon="-46.046516">
        <ele>822.248</ele>
        <time>2019-10-14T16:02:52Z</time>
      </trkpt>
      <trkpt lat="-22.150722" lon="-46.046527">
        <ele>822.067</ele>
        <time>2019-10-14T16:02:54Z</time>
      </trkpt>
      <trkpt lat="-22.150675" lon="-46.046532">
        <ele>822.181</ele>
        <time>2019-10-14T16:02:56Z</time>
      </trkpt>
      <trkpt lat="-22.150622" lon="-46.046536">
        <ele>822.419</ele>
        <time>2019-10-14T16:02:58Z</time>
      </trkpt>
      <trkpt lat="-22.150566" lon="-46.046551">
        <ele>822.408</ele>
        <time>2019-10-14T16:03:00Z</time>
      </trkpt>
      <trkpt lat="-22.150511" lon="-46.046558">
        <ele>822.630</ele>
        <time>2019-10-14T16:03:02Z</time>
      </trkpt>
      <trkpt lat="-22.150443" lon="-46.046564">
        <ele>822.298</ele>
        <time>2019-10-14T16:03:05Z</time>
      </trkpt>
      <trkpt lat="-22.150386" lon="-46.046573">
        <ele>822.460</ele>
        <time>2019-10-14T16:03:07Z</time>
      </trkpt>
      <trkpt lat="-22.150327" lon="-46.046589">
        <ele>822.412</ele>
        <time>2019-10-14T16:03:10Z</time>
      </trkpt>
      <trkpt lat="-22.150263" lon="-46.046601">
        <ele>822.814</ele>
        <time>2019-10-14T16:03:12Z</time>
      </trkpt>
      <trkpt lat="-22.150193" lon="-46.046631">
        <ele>822.267</ele>
        <time>2019-10-14T16:03:14Z</time>
      </trkpt>
      <trkpt lat="-22.150149" lon="-46.046653">
        <ele>822.512</ele>
        <time>2019-10-14T16:03:16Z</time>
      </trkpt>
      <trkpt lat="-22.150096" lon="-46.046677">
        <ele>823.028</ele>
        <time>2019-10-14T16:03:19Z</time>
      </trkpt>
      <trkpt lat="-22.150043" lon="-46.046702">
        <ele>822.938</ele>
        <time>2019-10-14T16:03:21Z</time>
      </trkpt>
      <trkpt lat="-22.149985" lon="-46.046728">
        <ele>822.770</ele>
        <time>2019-10-14T16:03:23Z</time>
      </trkpt>
      <trkpt lat="-22.149942" lon="-46.046752">
        <ele>822.617</ele>
        <time>2019-10-14T16:03:24Z</time>
      </trkpt>
      <trkpt lat="-22.149888" lon="-46.046776">
        <ele>823.008</ele>
        <time>2019-10-14T16:03:26Z</time>
      </trkpt>
      <trkpt lat="-22.149823" lon="-46.046806">
        <ele>822.887</ele>
        <time>2019-10-14T16:03:28Z</time>
      </trkpt>
      <trkpt lat="-22.149732" lon="-46.046846">
        <ele>822.725</ele>
        <time>2019-10-14T16:03:31Z</time>
      </trkpt>
      <trkpt lat="-22.149680" lon="-46.046867">
        <ele>822.767</ele>
        <time>2019-10-14T16:03:33Z</time>
      </trkpt>
      <trkpt lat="-22.149636" lon="-46.046888">
        <ele>822.879</ele>
        <time>2019-10-14T16:03:35Z</time>
      </trkpt>
      <trkpt lat="-22.149590" lon="-46.046911">
        <ele>822.931</ele>
        <time>2019-10-14T16:03:36Z</time>
      </trkpt>
      <trkpt lat="-22.149521" lon="-46.046931">
        <ele>822.584</ele>
        <time>2019-10-14T16:03:38Z</time>
      </trkpt>
      <trkpt lat="-22.149467" lon="-46.046919">
        <ele>822.399</ele>
        <time>2019-10-14T16:03:40Z</time>
      </trkpt>
      <trkpt lat="-22.149390" lon="-46.046847">
        <ele>821.635</ele>
        <time>2019-10-14T16:03:43Z</time>
      </trkpt>
      <trkpt lat="-22.149354" lon="-46.046801">
        <ele>821.735</ele>
        <time>2019-10-14T16:03:45Z</time>
      </trkpt>
      <trkpt lat="-22.149317" lon="-46.046759">
        <ele>821.386</ele>
        <time>2019-10-14T16:03:46Z</time>
      </trkpt>
      <trkpt lat="-22.149277" lon="-46.046719">
        <ele>821.514</ele>
        <time>2019-10-14T16:03:48Z</time>
      </trkpt>
      <trkpt lat="-22.149228" lon="-46.046672">
        <ele>821.408</ele>
        <time>2019-10-14T16:03:50Z</time>
      </trkpt>
      <trkpt lat="-22.149182" lon="-46.046634">
        <ele>821.897</ele>
        <time>2019-10-14T16:03:52Z</time>
      </trkpt>
      <trkpt lat="-22.149115" lon="-46.046578">
        <ele>821.055</ele>
        <time>2019-10-14T16:03:55Z</time>
      </trkpt>
      <trkpt lat="-22.149067" lon="-46.046541">
        <ele>821.357</ele>
        <time>2019-10-14T16:03:56Z</time>
      </trkpt>
      <trkpt lat="-22.149013" lon="-46.046492">
        <ele>821.029</ele>
        <time>2019-10-14T16:03:58Z</time>
      </trkpt>
      <trkpt lat="-22.148970" lon="-46.046450">
        <ele>821.351</ele>
        <time>2019-10-14T16:04:00Z</time>
      </trkpt>
      <trkpt lat="-22.148913" lon="-46.046398">
        <ele>821.494</ele>
        <time>2019-10-14T16:04:02Z</time>
      </trkpt>
      <trkpt lat="-22.148862" lon="-46.046355">
        <ele>820.979</ele>
        <time>2019-10-14T16:04:04Z</time>
      </trkpt>
      <trkpt lat="-22.148818" lon="-46.046316">
        <ele>820.935</ele>
        <time>2019-10-14T16:04:06Z</time>
      </trkpt>
      <trkpt lat="-22.148765" lon="-46.046274">
        <ele>820.455</ele>
        <time>2019-10-14T16:04:07Z</time>
      </trkpt>
      <trkpt lat="-22.146750" lon="-46.045952">
        <ele>817.207</ele>
        <time>2019-10-14T16:04:48Z</time>
      </trkpt>
      <trkpt lat="-22.146694" lon="-46.045959">
        <ele>817.217</ele>
        <time>2019-10-14T16:04:50Z</time>
      </trkpt>
      <trkpt lat="-22.146613" lon="-46.045956">
        <ele>817.608</ele>
        <time>2019-10-14T16:04:52Z</time>
      </trkpt>
      <trkpt lat="-22.146539" lon="-46.045956">
        <ele>817.479</ele>
        <time>2019-10-14T16:04:54Z</time>
      </trkpt>
      <trkpt lat="-22.146449" lon="-46.045966">
        <ele>817.537</ele>
        <time>2019-10-14T16:04:57Z</time>
      </trkpt>
      <trkpt lat="-22.146380" lon="-46.045967">
        <ele>817.269</ele>
        <time>2019-10-14T16:04:58Z</time>
      </trkpt>
      <trkpt lat="-22.146324" lon="-46.045966">
        <ele>817.281</ele>
        <time>2019-10-14T16:05:00Z</time>
      </trkpt>
      <trkpt lat="-22.146218" lon="-46.045969">
        <ele>816.863</ele>
        <time>2019-10-14T16:05:03Z</time>
      </trkpt>
      <trkpt lat="-22.146149" lon="-46.045978">
        <ele>817.436</ele>
        <time>2019-10-14T16:05:04Z</time>
      </trkpt>
      <trkpt lat="-22.146086" lon="-46.045977">
        <ele>817.681</ele>
        <time>2019-10-14T16:05:06Z</time>
      </trkpt>
      <trkpt lat="-22.146012" lon="-46.045966">
        <ele>817.857</ele>
        <time>2019-10-14T16:05:08Z</time>
      </trkpt>
      <trkpt lat="-22.145937" lon="-46.045954">
        <ele>817.917</ele>
        <time>2019-10-14T16:05:10Z</time>
      </trkpt>
      <trkpt lat="-22.145876" lon="-46.045944">
        <ele>817.987</ele>
        <time>2019-10-14T16:05:12Z</time>
      </trkpt>
      <trkpt lat="-22.145814" lon="-46.045935">
        <ele>818.215</ele>
        <time>2019-10-14T16:05:13Z</time>
      </trkpt>
      <trkpt lat="-22.145737" lon="-46.045929">
        <ele>818.508</ele>
        <time>2019-10-14T16:05:15Z</time>
      </trkpt>
      <trkpt lat="-22.145665" lon="-46.045932">
        <ele>818.565</ele>
        <time>2019-10-14T16:05:18Z</time>
      </trkpt>
      <trkpt lat="-22.145619" lon="-46.045940">
        <ele>818.763</ele>
        <time>2019-10-14T16:05:19Z</time>
      </trkpt>
      <trkpt lat="-22.145564" lon="-46.045946">
        <ele>818.515</ele>
        <time>2019-10-14T16:05:21Z</time>
      </trkpt>
      <trkpt lat="-22.145518" lon="-46.045953">
        <ele>818.847</ele>
        <time>2019-10-14T16:05:23Z</time>
      </trkpt>
      <trkpt lat="-22.145472" lon="-46.045961">
        <ele>818.739</ele>
        <time>2019-10-14T16:05:24Z</time>
      </trkpt>
      <trkpt lat="-22.145406" lon="-46.045970">
        <ele>818.772</ele>
        <time>2019-10-14T16:05:26Z</time>
      </trkpt>
      <trkpt lat="-22.145341" lon="-46.045976">
        <ele>818.727</ele>
        <time>2019-10-14T16:05:28Z</time>
      </trkpt>
      <trkpt lat="-22.145280" lon="-46.045999">
        <ele>818.553</ele>
        <time>2019-10-14T16:05:30Z</time>
      </trkpt>
      <trkpt lat="-22.145217" lon="-46.046014">
        <ele>818.352</ele>
        <time>2019-10-14T16:05:32Z</time>
      </trkpt>
      <trkpt lat="-22.145132" lon="-46.046034">
        <ele>818.453</ele>
        <time>2019-10-14T16:05:34Z</time>
      </trkpt>
      <trkpt lat="-22.145084" lon="-46.046014">
        <ele>818.608</ele>
        <time>2019-10-14T16:05:36Z</time>
      </trkpt>
      <trkpt lat="-22.144977" lon="-46.046040">
        <ele>818.308</ele>
        <time>2019-10-14T16:05:38Z</time>
      </trkpt>
      <trkpt lat="-22.144920" lon="-46.046050">
        <ele>818.569</ele>
        <time>2019-10-14T16:05:40Z</time>
      </trkpt>
      <trkpt lat="-22.144820" lon="-46.046069">
        <ele>818.767</ele>
        <time>2019-10-14T16:05:42Z</time>
      </trkpt>
      <trkpt lat="-22.144728" lon="-46.046090">
        <ele>818.749</ele>
        <time>2019-10-14T16:05:45Z</time>
      </trkpt>
      <trkpt lat="-22.144657" lon="-46.046110">
        <ele>818.931</ele>
        <time>2019-10-14T16:05:47Z</time>
      </trkpt>
      <trkpt lat="-22.144588" lon="-46.046140">
        <ele>819.063</ele>
        <time>2019-10-14T16:05:49Z</time>
      </trkpt>
      <trkpt lat="-22.144533" lon="-46.046171">
        <ele>819.576</ele>
        <time>2019-10-14T16:05:52Z</time>
      </trkpt>
      <trkpt lat="-22.144480" lon="-46.046202">
        <ele>819.721</ele>
        <time>2019-10-14T16:05:54Z</time>
      </trkpt>
      <trkpt lat="-22.144444" lon="-46.046233">
        <ele>819.677</ele>
        <time>2019-10-14T16:05:56Z</time>
      </trkpt>
      <trkpt lat="-22.144406" lon="-46.046271">
        <ele>819.764</ele>
        <time>2019-10-14T16:05:57Z</time>
      </trkpt>
      <trkpt lat="-22.144354" lon="-46.046322">
        <ele>819.406</ele>
        <time>2019-10-14T16:05:59Z</time>
      </trkpt>
      <trkpt lat="-22.144302" lon="-46.046379">
        <ele>819.716</ele>
        <time>2019-10-14T16:06:01Z</time>
      </trkpt>
      <trkpt lat="-22.144262" lon="-46.046428">
        <ele>819.708</ele>
        <time>2019-10-14T16:06:03Z</time>
      </trkpt>
      <trkpt lat="-22.144200" lon="-46.046493">
        <ele>819.490</ele>
        <time>2019-10-14T16:06:06Z</time>
      </trkpt>
      <trkpt lat="-22.144122" lon="-46.046588">
        <ele>819.738</ele>
        <time>2019-10-14T16:06:09Z</time>
      </trkpt>
      <trkpt lat="-22.144076" lon="-46.046646">
        <ele>819.790</ele>
        <time>2019-10-14T16:06:11Z</time>
      </trkpt>
      <trkpt lat="-22.144046" lon="-46.046695">
        <ele>819.612</ele>
        <time>2019-10-14T16:06:13Z</time>
      </trkpt>
      <trkpt lat="-22.144020" lon="-46.046739">
        <ele>819.524</ele>
        <time>2019-10-14T16:06:14Z</time>
      </trkpt>
      <trkpt lat="-22.143990" lon="-46.046800">
        <ele>819.357</ele>
        <time>2019-10-14T16:06:16Z</time>
      </trkpt>
      <trkpt lat="-22.143972" lon="-46.046889">
        <ele>819.372</ele>
        <time>2019-10-14T16:06:18Z</time>
      </trkpt>
      <trkpt lat="-22.143973" lon="-46.046959">
        <ele>818.988</ele>
        <time>2019-10-14T16:06:20Z</time>
      </trkpt>
      <trkpt lat="-22.144005" lon="-46.047102">
        <ele>818.216</ele>
        <time>2019-10-14T16:06:24Z</time>
      </trkpt>
      <trkpt lat="-22.144020" lon="-46.047182">
        <ele>818.176</ele>
        <time>2019-10-14T16:06:25Z</time>
      </trkpt>
      <trkpt lat="-22.144041" lon="-46.047258">
        <ele>818.513</ele>
        <time>2019-10-14T16:06:28Z</time>
      </trkpt>
      <trkpt lat="-22.144058" lon="-46.047373">
        <ele>818.508</ele>
        <time>2019-10-14T16:06:30Z</time>
      </trkpt>
      <trkpt lat="-22.144068" lon="-46.047441">
        <ele>818.525</ele>
        <time>2019-10-14T16:06:32Z</time>
      </trkpt>
      <trkpt lat="-22.144076" lon="-46.047515">
        <ele>818.543</ele>
        <time>2019-10-14T16:06:34Z</time>
      </trkpt>
      <trkpt lat="-22.144082" lon="-46.047571">
        <ele>818.255</ele>
        <time>2019-10-14T16:06:36Z</time>
      </trkpt>
      <trkpt lat="-22.144079" lon="-46.047622">
        <ele>818.637</ele>
        <time>2019-10-14T16:06:37Z</time>
      </trkpt>
      <trkpt lat="-22.144084" lon="-46.047675">
        <ele>818.249</ele>
        <time>2019-10-14T16:06:39Z</time>
      </trkpt>
      <trkpt lat="-22.144087" lon="-46.047724">
        <ele>818.492</ele>
        <time>2019-10-14T16:06:41Z</time>
      </trkpt>
      <trkpt lat="-22.144088" lon="-46.047775">
        <ele>818.227</ele>
        <time>2019-10-14T16:06:42Z</time>
      </trkpt>
      <trkpt lat="-22.144077" lon="-46.047840">
        <ele>818.463</ele>
        <time>2019-10-14T16:06:45Z</time>
      </trkpt>
      <trkpt lat="-22.144053" lon="-46.047911">
        <ele>818.311</ele>
        <time>2019-10-14T16:06:47Z</time>
      </trkpt>
      <trkpt lat="-22.144026" lon="-46.047969">
        <ele>818.521</ele>
        <time>2019-10-14T16:06:48Z</time>
      </trkpt>
      <trkpt lat="-22.144000" lon="-46.048025">
        <ele>818.403</ele>
        <time>2019-10-14T16:06:50Z</time>
      </trkpt>
      <trkpt lat="-22.143975" lon="-46.048081">
        <ele>818.208</ele>
        <time>2019-10-14T16:06:52Z</time>
      </trkpt>
      <trkpt lat="-22.143912" lon="-46.048214">
        <ele>818.295</ele>
        <time>2019-10-14T16:06:55Z</time>
      </trkpt>
      <trkpt lat="-22.143891" lon="-46.048262">
        <ele>818.373</ele>
        <time>2019-10-14T16:06:57Z</time>
      </trkpt>
      <trkpt lat="-22.143873" lon="-46.048313">
        <ele>818.615</ele>
        <time>2019-10-14T16:06:58Z</time>
      </trkpt>
      <trkpt lat="-22.143852" lon="-46.048412">
        <ele>819.367</ele>
        <time>2019-10-14T16:07:02Z</time>
      </trkpt>
      <trkpt lat="-22.143840" lon="-46.048471">
        <ele>819.899</ele>
        <time>2019-10-14T16:07:04Z</time>
      </trkpt>
      <trkpt lat="-22.143829" lon="-46.048531">
        <ele>820.592</ele>
        <time>2019-10-14T16:07:06Z</time>
      </trkpt>
      <trkpt lat="-22.143818" lon="-46.048591">
        <ele>821.227</ele>
        <time>2019-10-14T16:07:09Z</time>
      </trkpt>
      <trkpt lat="-22.143808" lon="-46.048657">
        <ele>822.223</ele>
        <time>2019-10-14T16:07:12Z</time>
      </trkpt>
      <trkpt lat="-22.143805" lon="-46.048713">
        <ele>822.385</ele>
        <time>2019-10-14T16:07:15Z</time>
      </trkpt>
      <trkpt lat="-22.143805" lon="-46.048769">
        <ele>822.789</ele>
        <time>2019-10-14T16:07:18Z</time>
      </trkpt>
      <trkpt lat="-22.143802" lon="-46.048833">
        <ele>822.917</ele>
        <time>2019-10-14T16:07:21Z</time>
      </trkpt>
      <trkpt lat="-22.143804" lon="-46.048888">
        <ele>822.908</ele>
        <time>2019-10-14T16:07:23Z</time>
      </trkpt>
      <trkpt lat="-22.143809" lon="-46.048953">
        <ele>821.742</ele>
        <time>2019-10-14T16:07:25Z</time>
      </trkpt>
      <trkpt lat="-22.144200" lon="-46.049940">
        <ele>821.330</ele>
        <time>2019-10-14T16:07:46Z</time>
      </trkpt>
      <trkpt lat="-22.144218" lon="-46.050015">
        <ele>822.032</ele>
        <time>2019-10-14T16:07:49Z</time>
      </trkpt>
      <trkpt lat="-22.144233" lon="-46.050083">
        <ele>822.464</ele>
        <time>2019-10-14T16:07:52Z</time>
      </trkpt>
      <trkpt lat="-22.144242" lon="-46.050140">
        <ele>822.596</ele>
        <time>2019-10-14T16:07:54Z</time>
      </trkpt>
      <trkpt lat="-22.144256" lon="-46.050235">
        <ele>823.019</ele>
        <time>2019-10-14T16:07:58Z</time>
      </trkpt>
      <trkpt lat="-22.144262" lon="-46.050294">
        <ele>823.454</ele>
        <time>2019-10-14T16:08:00Z</time>
      </trkpt>
      <trkpt lat="-22.144259" lon="-46.050349">
        <ele>823.920</ele>
        <time>2019-10-14T16:08:02Z</time>
      </trkpt>
      <trkpt lat="-22.144254" lon="-46.050409">
        <ele>824.032</ele>
        <time>2019-10-14T16:08:05Z</time>
      </trkpt>
      <trkpt lat="-22.144259" lon="-46.050473">
        <ele>824.692</ele>
        <time>2019-10-14T16:08:08Z</time>
      </trkpt>
      <trkpt lat="-22.144251" lon="-46.050529">
        <ele>824.711</ele>
        <time>2019-10-14T16:08:10Z</time>
      </trkpt>
      <trkpt lat="-22.144243" lon="-46.050585">
        <ele>824.708</ele>
        <time>2019-10-14T16:08:12Z</time>
      </trkpt>
      <trkpt lat="-22.144235" lon="-46.050640">
        <ele>824.247</ele>
        <time>2019-10-14T16:08:14Z</time>
      </trkpt>
      <trkpt lat="-22.144219" lon="-46.050693">
        <ele>823.855</ele>
        <time>2019-10-14T16:08:16Z</time>
      </trkpt>
      <trkpt lat="-22.143648" lon="-46.051570">
        <ele>821.617</ele>
        <time>2019-10-14T16:08:37Z</time>
      </trkpt>
      <trkpt lat="-22.143624" lon="-46.051632">
        <ele>822.599</ele>
        <time>2019-10-14T16:08:40Z</time>
      </trkpt>
      <trkpt lat="-22.143574" lon="-46.051691">
        <ele>823.571</ele>
        <time>2019-10-14T16:08:45Z</time>
      </trkpt>
      <trkpt lat="-22.143545" lon="-46.051730">
        <ele>824.854</ele>
        <time>2019-10-14T16:08:49Z</time>
      </trkpt>
      <trkpt lat="-22.143506" lon="-46.051798">
        <ele>826.589</ele>
        <time>2019-10-14T16:08:56Z</time>
      </trkpt>
      <trkpt lat="-22.143467" lon="-46.051837">
        <ele>828.045</ele>
        <time>2019-10-14T16:09:05Z</time>
      </trkpt>
      <trkpt lat="-22.143427" lon="-46.051869">
        <ele>829.192</ele>
        <time>2019-10-14T16:09:11Z</time>
      </trkpt>
      <trkpt lat="-22.143386" lon="-46.051901">
        <ele>829.573</ele>
        <time>2019-10-14T16:09:13Z</time>
      </trkpt>
      <trkpt lat="-22.143344" lon="-46.051944">
        <ele>830.720</ele>
        <time>2019-10-14T16:09:19Z</time>
      </trkpt>
      <trkpt lat="-22.143265" lon="-46.051994">
        <ele>832.508</ele>
        <time>2019-10-14T16:09:32Z</time>
      </trkpt>
      <trkpt lat="-22.143213" lon="-46.052034">
        <ele>832.833</ele>
        <time>2019-10-14T16:09:34Z</time>
      </trkpt>
      <trkpt lat="-22.143159" lon="-46.052068">
        <ele>834.321</ele>
        <time>2019-10-14T16:09:43Z</time>
      </trkpt>
      <trkpt lat="-22.143114" lon="-46.052106">
        <ele>835.293</ele>
        <time>2019-10-14T16:09:48Z</time>
      </trkpt>
      <trkpt lat="-22.143069" lon="-46.052140">
        <ele>836.595</ele>
        <time>2019-10-14T16:09:56Z</time>
      </trkpt>
      <trkpt lat="-22.143030" lon="-46.052166">
        <ele>837.467</ele>
        <time>2019-10-14T16:10:01Z</time>
      </trkpt>
      <trkpt lat="-22.142985" lon="-46.052190">
        <ele>838.050</ele>
        <time>2019-10-14T16:10:07Z</time>
      </trkpt>
      <trkpt lat="-22.142950" lon="-46.052221">
        <ele>838.785</ele>
        <time>2019-10-14T16:10:13Z</time>
      </trkpt>
      <trkpt lat="-22.142908" lon="-46.052255">
        <ele>839.341</ele>
        <time>2019-10-14T16:10:16Z</time>
      </trkpt>
      <trkpt lat="-22.142861" lon="-46.052289">
        <ele>840.061</ele>
        <time>2019-10-14T16:10:20Z</time>
      </trkpt>
      <trkpt lat="-22.142820" lon="-46.052316">
        <ele>840.321</ele>
        <time>2019-10-14T16:10:24Z</time>
      </trkpt>
      <trkpt lat="-22.142737" lon="-46.052371">
        <ele>841.913</ele>
        <time>2019-10-14T16:10:35Z</time>
      </trkpt>
      <trkpt lat="-22.142685" lon="-46.052415">
        <ele>842.408</ele>
        <time>2019-10-14T16:10:40Z</time>
      </trkpt>
      <trkpt lat="-22.142647" lon="-46.052451">
        <ele>843.030</ele>
        <time>2019-10-14T16:10:44Z</time>
      </trkpt>
      <trkpt lat="-22.142605" lon="-46.052479">
        <ele>843.758</ele>
        <time>2019-10-14T16:10:51Z</time>
      </trkpt>
      <trkpt lat="-22.142542" lon="-46.052520">
        <ele>843.950</ele>
        <time>2019-10-14T16:10:55Z</time>
      </trkpt>
      <trkpt lat="-22.142504" lon="-46.052577">
        <ele>844.352</ele>
        <time>2019-10-14T16:11:00Z</time>
      </trkpt>
      <trkpt lat="-22.142437" lon="-46.052670">
        <ele>844.354</ele>
        <time>2019-10-14T16:11:02Z</time>
      </trkpt>
      <trkpt lat="-22.142393" lon="-46.052734">
        <ele>844.867</ele>
        <time>2019-10-14T16:11:05Z</time>
      </trkpt>
      <trkpt lat="-22.142354" lon="-46.052796">
        <ele>845.072</ele>
        <time>2019-10-14T16:11:09Z</time>
      </trkpt>
      <trkpt lat="-22.142333" lon="-46.052848">
        <ele>845.068</ele>
        <time>2019-10-14T16:11:13Z</time>
      </trkpt>
      <trkpt lat="-22.142316" lon="-46.052907">
        <ele>845.519</ele>
        <time>2019-10-14T16:11:16Z</time>
      </trkpt>
      <trkpt lat="-22.142289" lon="-46.052979">
        <ele>845.509</ele>
        <time>2019-10-14T16:11:22Z</time>
      </trkpt>
      <trkpt lat="-22.142274" lon="-46.053029">
        <ele>845.919</ele>
        <time>2019-10-14T16:11:25Z</time>
      </trkpt>
      <trkpt lat="-22.142256" lon="-46.053076">
        <ele>845.908</ele>
        <time>2019-10-14T16:11:27Z</time>
      </trkpt>
      <trkpt lat="-22.142243" lon="-46.053127">
        <ele>846.445</ele>
        <time>2019-10-14T16:11:31Z</time>
      </trkpt>
      <trkpt lat="-22.142238" lon="-46.053178">
        <ele>846.353</ele>
        <time>2019-10-14T16:11:33Z</time>
      </trkpt>
      <trkpt lat="-22.142229" lon="-46.053236">
        <ele>846.575</ele>
        <time>2019-10-14T16:11:37Z</time>
      </trkpt>
      <trkpt lat="-22.142220" lon="-46.053291">
        <ele>847.257</ele>
        <time>2019-10-14T16:11:39Z</time>
      </trkpt>
      <trkpt lat="-22.142216" lon="-46.053353">
        <ele>847.139</ele>
        <time>2019-10-14T16:11:43Z</time>
      </trkpt>
      <trkpt lat="-22.142217" lon="-46.053410">
        <ele>848.022</ele>
        <time>2019-10-14T16:11:48Z</time>
      </trkpt>
      <trkpt lat="-22.142222" lon="-46.053472">
        <ele>848.557</ele>
        <time>2019-10-14T16:11:53Z</time>
      </trkpt>
      <trkpt lat="-22.142248" lon="-46.053519">
        <ele>849.373</ele>
        <time>2019-10-14T16:11:56Z</time>
      </trkpt>
      <trkpt lat="-22.142265" lon="-46.053573">
        <ele>850.638</ele>
        <time>2019-10-14T16:12:02Z</time>
      </trkpt>
      <trkpt lat="-22.142273" lon="-46.053631">
        <ele>851.770</ele>
        <time>2019-10-14T16:12:07Z</time>
      </trkpt>
      <trkpt lat="-22.142277" lon="-46.053687">
        <ele>853.017</ele>
        <time>2019-10-14T16:12:12Z</time>
      </trkpt>
      <trkpt lat="-22.142285" lon="-46.053752">
        <ele>854.208</ele>
        <time>2019-10-14T16:12:18Z</time>
      </trkpt>
      <trkpt lat="-22.142283" lon="-46.053807">
        <ele>855.437</ele>
        <time>2019-10-14T16:12:25Z</time>
      </trkpt>
      <trkpt lat="-22.142283" lon="-46.053860">
        <ele>856.565</ele>
        <time>2019-10-14T16:12:29Z</time>
      </trkpt>
      <trkpt lat="-22.142283" lon="-46.053943">
        <ele>857.767</ele>
        <time>2019-10-14T16:12:38Z</time>
      </trkpt>
      <trkpt lat="-22.142276" lon="-46.054006">
        <ele>858.789</ele>
        <time>2019-10-14T16:12:44Z</time>
      </trkpt>
      <trkpt lat="-22.142267" lon="-46.054077">
        <ele>860.251</ele>
        <time>2019-10-14T16:12:50Z</time>
      </trkpt>
      <trkpt lat="-22.142252" lon="-46.054139">
        <ele>861.384</ele>
        <time>2019-10-14T16:12:57Z</time>
      </trkpt>
      <trkpt lat="-22.142241" lon="-46.054188">
        <ele>862.359</ele>
        <time>2019-10-14T16:13:03Z</time>
      </trkpt>
      <trkpt lat="-22.142223" lon="-46.054241">
        <ele>863.295</ele>
        <time>2019-10-14T16:13:08Z</time>
      </trkpt>
      <trkpt lat="-22.142204" lon="-46.054287">
        <ele>863.798</ele>
        <time>2019-10-14T16:13:11Z</time>
      </trkpt>
      <trkpt lat="-22.142180" lon="-46.054335">
        <ele>864.615</ele>
        <time>2019-10-14T16:13:17Z</time>
      </trkpt>
      <trkpt lat="-22.142138" lon="-46.054399">
        <ele>865.526</ele>
        <time>2019-10-14T16:13:23Z</time>
      </trkpt>
      <trkpt lat="-22.142107" lon="-46.054446">
        <ele>867.008</ele>
        <time>2019-10-14T16:13:29Z</time>
      </trkpt>
      <trkpt lat="-22.142069" lon="-46.054498">
        <ele>867.843</ele>
        <time>2019-10-14T16:13:34Z</time>
      </trkpt>
      <trkpt lat="-22.142030" lon="-46.054532">
        <ele>868.531</ele>
        <time>2019-10-14T16:13:39Z</time>
      </trkpt>
      <trkpt lat="-22.141986" lon="-46.054558">
        <ele>869.273</ele>
        <time>2019-10-14T16:13:43Z</time>
      </trkpt>
      <trkpt lat="-22.141911" lon="-46.054588">
        <ele>870.645</ele>
        <time>2019-10-14T16:13:52Z</time>
      </trkpt>
      <trkpt lat="-22.141840" lon="-46.054602">
        <ele>871.997</ele>
        <time>2019-10-14T16:13:59Z</time>
      </trkpt>
      <trkpt lat="-22.141791" lon="-46.054605">
        <ele>872.460</ele>
        <time>2019-10-14T16:14:04Z</time>
      </trkpt>
      <trkpt lat="-22.141744" lon="-46.054601">
        <ele>873.165</ele>
        <time>2019-10-14T16:14:10Z</time>
      </trkpt>
      <trkpt lat="-22.141695" lon="-46.054596">
        <ele>874.091</ele>
        <time>2019-10-14T16:14:14Z</time>
      </trkpt>
      <trkpt lat="-22.141650" lon="-46.054587">
        <ele>875.085</ele>
        <time>2019-10-14T16:14:19Z</time>
      </trkpt>
      <trkpt lat="-22.141589" lon="-46.054576">
        <ele>875.889</ele>
        <time>2019-10-14T16:14:25Z</time>
      </trkpt>
      <trkpt lat="-22.141546" lon="-46.054562">
        <ele>876.417</ele>
        <time>2019-10-14T16:14:28Z</time>
      </trkpt>
      <trkpt lat="-22.141489" lon="-46.054545">
        <ele>877.508</ele>
        <time>2019-10-14T16:14:34Z</time>
      </trkpt>
      <trkpt lat="-22.141438" lon="-46.054524">
        <ele>878.322</ele>
        <time>2019-10-14T16:14:39Z</time>
      </trkpt>
      <trkpt lat="-22.141380" lon="-46.054498">
        <ele>879.130</ele>
        <time>2019-10-14T16:14:44Z</time>
      </trkpt>
      <trkpt lat="-22.141340" lon="-46.054472">
        <ele>880.492</ele>
        <time>2019-10-14T16:14:49Z</time>
      </trkpt>
      <trkpt lat="-22.141298" lon="-46.054436">
        <ele>881.174</ele>
        <time>2019-10-14T16:14:55Z</time>
      </trkpt>
      <trkpt lat="-22.141271" lon="-46.054393">
        <ele>881.736</ele>
        <time>2019-10-14T16:15:00Z</time>
      </trkpt>
      <trkpt lat="-22.141240" lon="-46.054313">
        <ele>883.179</ele>
        <time>2019-10-14T16:15:08Z</time>
      </trkpt>
      <trkpt lat="-22.141223" lon="-46.054255">
        <ele>883.714</ele>
        <time>2019-10-14T16:15:09Z</time>
      </trkpt>
      <trkpt lat="-22.141217" lon="-46.054191">
        <ele>884.270</ele>
        <time>2019-10-14T16:15:13Z</time>
      </trkpt>
      <trkpt lat="-22.141231" lon="-46.054135">
        <ele>884.834</ele>
        <time>2019-10-14T16:15:16Z</time>
      </trkpt>
      <trkpt lat="-22.141251" lon="-46.054077">
        <ele>885.455</ele>
        <time>2019-10-14T16:15:21Z</time>
      </trkpt>
      <trkpt lat="-22.141260" lon="-46.054024">
        <ele>885.410</ele>
        <time>2019-10-14T16:15:24Z</time>
      </trkpt>
      <trkpt lat="-22.141274" lon="-46.053971">
        <ele>885.508</ele>
        <time>2019-10-14T16:15:28Z</time>
      </trkpt>
      <trkpt lat="-22.141292" lon="-46.053911">
        <ele>885.967</ele>
        <time>2019-10-14T16:15:32Z</time>
      </trkpt>
      <trkpt lat="-22.141312" lon="-46.053837">
        <ele>885.945</ele>
        <time>2019-10-14T16:15:36Z</time>
      </trkpt>
      <trkpt lat="-22.141334" lon="-46.053776">
        <ele>886.617</ele>
        <time>2019-10-14T16:15:39Z</time>
      </trkpt>
      <trkpt lat="-22.141352" lon="-46.053722">
        <ele>886.629</ele>
        <time>2019-10-14T16:15:42Z</time>
      </trkpt>
      <trkpt lat="-22.141365" lon="-46.053670">
        <ele>886.571</ele>
        <time>2019-10-14T16:15:45Z</time>
      </trkpt>
      <trkpt lat="-22.141378" lon="-46.053621">
        <ele>887.294</ele>
        <time>2019-10-14T16:15:48Z</time>
      </trkpt>
      <trkpt lat="-22.141396" lon="-46.053560">
        <ele>887.579</ele>
        <time>2019-10-14T16:15:51Z</time>
      </trkpt>
      <trkpt lat="-22.141410" lon="-46.053506">
        <ele>887.235</ele>
        <time>2019-10-14T16:15:54Z</time>
      </trkpt>
      <trkpt lat="-22.141434" lon="-46.053446">
        <ele>887.614</ele>
        <time>2019-10-14T16:15:58Z</time>
      </trkpt>
      <trkpt lat="-22.141450" lon="-46.053380">
        <ele>887.854</ele>
        <time>2019-10-14T16:16:01Z</time>
      </trkpt>
      <trkpt lat="-22.141462" lon="-46.053324">
        <ele>888.209</ele>
        <time>2019-10-14T16:16:05Z</time>
      </trkpt>
      <trkpt lat="-22.141472" lon="-46.053276">
        <ele>888.608</ele>
        <time>2019-10-14T16:16:08Z</time>
      </trkpt>
      <trkpt lat="-22.141486" lon="-46.053196">
        <ele>888.955</ele>
        <time>2019-10-14T16:16:13Z</time>
      </trkpt>
      <trkpt lat="-22.141484" lon="-46.053132">
        <ele>889.493</ele>
        <time>2019-10-14T16:16:18Z</time>
      </trkpt>
      <trkpt lat="-22.141488" lon="-46.053075">
        <ele>889.725</ele>
        <time>2019-10-14T16:16:21Z</time>
      </trkpt>
      <trkpt lat="-22.141490" lon="-46.053017">
        <ele>890.287</ele>
        <time>2019-10-14T16:16:24Z</time>
      </trkpt>
      <trkpt lat="-22.141498" lon="-46.052960">
        <ele>890.499</ele>
        <time>2019-10-14T16:16:30Z</time>
      </trkpt>
      <trkpt lat="-22.141503" lon="-46.052903">
        <ele>890.742</ele>
        <time>2019-10-14T16:16:34Z</time>
      </trkpt>
      <trkpt lat="-22.141522" lon="-46.052807">
        <ele>892.167</ele>
        <time>2019-10-14T16:16:40Z</time>
      </trkpt>
      <trkpt lat="-22.141532" lon="-46.052754">
        <ele>893.153</ele>
        <time>2019-10-14T16:16:43Z</time>
      </trkpt>
      <trkpt lat="-22.141532" lon="-46.052701">
        <ele>893.633</ele>
        <time>2019-10-14T16:16:46Z</time>
      </trkpt>
      <trkpt lat="-22.141533" lon="-46.052648">
        <ele>894.723</ele>
        <time>2019-10-14T16:16:50Z</time>
      </trkpt>
      <trkpt lat="-22.141534" lon="-46.052587">
        <ele>896.015</ele>
        <time>2019-10-14T16:16:53Z</time>
      </trkpt>
      <trkpt lat="-22.141533" lon="-46.052538">
        <ele>897.208</ele>
        <time>2019-10-14T16:16:59Z</time>
      </trkpt>
      <trkpt lat="-22.141525" lon="-46.052489">
        <ele>897.817</ele>
        <time>2019-10-14T16:17:04Z</time>
      </trkpt>
      <trkpt lat="-22.141509" lon="-46.052428">
        <ele>899.275</ele>
        <time>2019-10-14T16:17:11Z</time>
      </trkpt>
      <trkpt lat="-22.141494" lon="-46.052381">
        <ele>900.227</ele>
        <time>2019-10-14T16:17:15Z</time>
      </trkpt>
      <trkpt lat="-22.141472" lon="-46.052328">
        <ele>901.489</ele>
        <time>2019-10-14T16:17:21Z</time>
      </trkpt>
      <trkpt lat="-22.141450" lon="-46.052263">
        <ele>902.711</ele>
        <time>2019-10-14T16:17:28Z</time>
      </trkpt>
      <trkpt lat="-22.141434" lon="-46.052210">
        <ele>903.874</ele>
        <time>2019-10-14T16:17:33Z</time>
      </trkpt>
      <trkpt lat="-22.141412" lon="-46.052145">
        <ele>905.379</ele>
        <time>2019-10-14T16:17:42Z</time>
      </trkpt>
      <trkpt lat="-22.141390" lon="-46.052079">
        <ele>907.015</ele>
        <time>2019-10-14T16:17:48Z</time>
      </trkpt>
      <trkpt lat="-22.141358" lon="-46.052036">
        <ele>908.411</ele>
        <time>2019-10-14T16:17:54Z</time>
      </trkpt>
      <trkpt lat="-22.141322" lon="-46.052000">
        <ele>909.521</ele>
        <time>2019-10-14T16:17:59Z</time>
      </trkpt>
      <trkpt lat="-22.141286" lon="-46.051969">
        <ele>910.103</ele>
        <time>2019-10-14T16:18:03Z</time>
      </trkpt>
      <trkpt lat="-22.141238" lon="-46.051906">
        <ele>910.308</ele>
        <time>2019-10-14T16:18:24Z</time>
      </trkpt>
      <trkpt lat="-22.141166" lon="-46.051854">
        <ele>912.245</ele>
        <time>2019-10-14T16:19:44Z</time>
      </trkpt>
      <trkpt lat="-22.141129" lon="-46.051824">
        <ele>914.383</ele>
        <time>2019-10-14T16:19:55Z</time>
      </trkpt>
      <trkpt lat="-22.141091" lon="-46.051790">
        <ele>915.285</ele>
        <time>2019-10-14T16:19:59Z</time>
      </trkpt>
      <trkpt lat="-22.141046" lon="-46.051751">
        <ele>915.787</ele>
        <time>2019-10-14T16:20:04Z</time>
      </trkpt>
      <trkpt lat="-22.141010" lon="-46.051720">
        <ele>916.459</ele>
        <time>2019-10-14T16:20:08Z</time>
      </trkpt>
      <trkpt lat="-22.140973" lon="-46.051687">
        <ele>917.262</ele>
        <time>2019-10-14T16:20:13Z</time>
      </trkpt>
      <trkpt lat="-22.140919" lon="-46.051633">
        <ele>919.087</ele>
        <time>2019-10-14T16:20:23Z</time>
      </trkpt>
      <trkpt lat="-22.140881" lon="-46.051604">
        <ele>919.863</ele>
        <time>2019-10-14T16:20:27Z</time>
      </trkpt>
      <trkpt lat="-22.140844" lon="-46.051569">
        <ele>920.528</ele>
        <time>2019-10-14T16:20:31Z</time>
      </trkpt>
      <trkpt lat="-22.140797" lon="-46.051531">
        <ele>921.689</ele>
        <time>2019-10-14T16:20:36Z</time>
      </trkpt>
      <trkpt lat="-22.140741" lon="-46.051502">
        <ele>922.417</ele>
        <time>2019-10-14T16:20:42Z</time>
      </trkpt>
      <trkpt lat="-22.140695" lon="-46.051480">
        <ele>923.408</ele>
        <time>2019-10-14T16:20:47Z</time>
      </trkpt>
      <trkpt lat="-22.140631" lon="-46.051442">
        <ele>925.046</ele>
        <time>2019-10-14T16:20:56Z</time>
      </trkpt>
      <trkpt lat="-22.140584" lon="-46.051422">
        <ele>926.134</ele>
        <time>2019-10-14T16:21:01Z</time>
      </trkpt>
      <trkpt lat="-22.140538" lon="-46.051405">
        <ele>926.846</ele>
        <time>2019-10-14T16:21:07Z</time>
      </trkpt>
      <trkpt lat="-22.140492" lon="-46.051392">
        <ele>928.128</ele>
        <time>2019-10-14T16:21:14Z</time>
      </trkpt>
      <trkpt lat="-22.140390" lon="-46.051363">
        <ele>930.460</ele>
        <time>2019-10-14T16:21:29Z</time>
      </trkpt>
      <trkpt lat="-22.140330" lon="-46.051340">
        <ele>931.673</ele>
        <time>2019-10-14T16:21:34Z</time>
      </trkpt>
      <trkpt lat="-22.140274" lon="-46.051325">
        <ele>932.428</ele>
        <time>2019-10-14T16:21:39Z</time>
      </trkpt>
      <trkpt lat="-22.140229" lon="-46.051314">
        <ele>932.664</ele>
        <time>2019-10-14T16:21:42Z</time>
      </trkpt>
      <trkpt lat="-22.140185" lon="-46.051298">
        <ele>933.566</ele>
        <time>2019-10-14T16:21:46Z</time>
      </trkpt>
      <trkpt lat="-22.140152" lon="-46.051265">
        <ele>934.629</ele>
        <time>2019-10-14T16:21:52Z</time>
      </trkpt>
      <trkpt lat="-22.140122" lon="-46.051225">
        <ele>935.321</ele>
        <time>2019-10-14T16:21:57Z</time>
      </trkpt>
      <trkpt lat="-22.140095" lon="-46.051179">
        <ele>935.708</ele>
        <time>2019-10-14T16:22:03Z</time>
      </trkpt>
      <trkpt lat="-22.140072" lon="-46.051136">
        <ele>936.810</ele>
        <time>2019-10-14T16:22:06Z</time>
      </trkpt>
      <trkpt lat="-22.140046" lon="-46.051095">
        <ele>937.588</ele>
        <time>2019-10-14T16:22:09Z</time>
      </trkpt>
      <trkpt lat="-22.140020" lon="-46.051046">
        <ele>938.370</ele>
        <time>2019-10-14T16:22:13Z</time>
      </trkpt>
      <trkpt lat="-22.139996" lon="-46.050957">
        <ele>939.772</ele>
        <time>2019-10-14T16:22:20Z</time>
      </trkpt>
      <trkpt lat="-22.139983" lon="-46.050906">
        <ele>940.554</ele>
        <time>2019-10-14T16:22:24Z</time>
      </trkpt>
      <trkpt lat="-22.139976" lon="-46.050856">
        <ele>941.567</ele>
        <time>2019-10-14T16:22:29Z</time>
      </trkpt>
      <trkpt lat="-22.139972" lon="-46.050794">
        <ele>942.062</ele>
        <time>2019-10-14T16:22:34Z</time>
      </trkpt>
      <trkpt lat="-22.139968" lon="-46.050746">
        <ele>942.338</ele>
        <time>2019-10-14T16:22:36Z</time>
      </trkpt>
      <trkpt lat="-22.139962" lon="-46.050683">
        <ele>943.092</ele>
        <time>2019-10-14T16:22:40Z</time>
      </trkpt>
      <trkpt lat="-22.139960" lon="-46.050632">
        <ele>942.973</ele>
        <time>2019-10-14T16:22:44Z</time>
      </trkpt>
      <trkpt lat="-22.139954" lon="-46.050565">
        <ele>943.220</ele>
        <time>2019-10-14T16:22:45Z</time>
      </trkpt>
      <trkpt lat="-22.139956" lon="-46.050515">
        <ele>943.808</ele>
        <time>2019-10-14T16:22:51Z</time>
      </trkpt>
      <trkpt lat="-22.139974" lon="-46.050467">
        <ele>943.523</ele>
        <time>2019-10-14T16:23:34Z</time>
      </trkpt>
      <trkpt lat="-22.139957" lon="-46.050392">
        <ele>944.391</ele>
        <time>2019-10-14T16:24:26Z</time>
      </trkpt>
      <trkpt lat="-22.139940" lon="-46.050332">
        <ele>944.793</ele>
        <time>2019-10-14T16:24:30Z</time>
      </trkpt>
      <trkpt lat="-22.139926" lon="-46.050284">
        <ele>945.245</ele>
        <time>2019-10-14T16:24:35Z</time>
      </trkpt>
      <trkpt lat="-22.139922" lon="-46.050220">
        <ele>945.527</ele>
        <time>2019-10-14T16:24:39Z</time>
      </trkpt>
      <trkpt lat="-22.139936" lon="-46.050166">
        <ele>945.770</ele>
        <time>2019-10-14T16:24:42Z</time>
      </trkpt>
      <trkpt lat="-22.139946" lon="-46.050113">
        <ele>945.955</ele>
        <time>2019-10-14T16:24:45Z</time>
      </trkpt>
      <trkpt lat="-22.139948" lon="-46.050057">
        <ele>945.991</ele>
        <time>2019-10-14T16:24:48Z</time>
      </trkpt>
      <trkpt lat="-22.139957" lon="-46.050003">
        <ele>946.416</ele>
        <time>2019-10-14T16:24:52Z</time>
      </trkpt>
      <trkpt lat="-22.139965" lon="-46.049927">
        <ele>946.676</ele>
        <time>2019-10-14T16:24:55Z</time>
      </trkpt>
      <trkpt lat="-22.139979" lon="-46.049878">
        <ele>947.013</ele>
        <time>2019-10-14T16:24:57Z</time>
      </trkpt>
      <trkpt lat="-22.139992" lon="-46.049812">
        <ele>947.608</ele>
        <time>2019-10-14T16:25:01Z</time>
      </trkpt>
      <trkpt lat="-22.140000" lon="-46.049760">
        <ele>948.155</ele>
        <time>2019-10-14T16:25:04Z</time>
      </trkpt>
      <trkpt lat="-22.140013" lon="-46.049712">
        <ele>948.543</ele>
        <time>2019-10-14T16:25:07Z</time>
      </trkpt>
      <trkpt lat="-22.140023" lon="-46.049657">
        <ele>948.715</ele>
        <time>2019-10-14T16:25:10Z</time>
      </trkpt>
      <trkpt lat="-22.140021" lon="-46.049606">
        <ele>948.957</ele>
        <time>2019-10-14T16:25:12Z</time>
      </trkpt>
      <trkpt lat="-22.140025" lon="-46.049552">
        <ele>948.919</ele>
        <time>2019-10-14T16:25:15Z</time>
      </trkpt>
      <trkpt lat="-22.140037" lon="-46.049490">
        <ele>949.372</ele>
        <time>2019-10-14T16:25:19Z</time>
      </trkpt>
      <trkpt lat="-22.140031" lon="-46.049438">
        <ele>949.597</ele>
        <time>2019-10-14T16:25:21Z</time>
      </trkpt>
      <trkpt lat="-22.140040" lon="-46.049380">
        <ele>949.533</ele>
        <time>2019-10-14T16:25:24Z</time>
      </trkpt>
      <trkpt lat="-22.140052" lon="-46.049322">
        <ele>950.326</ele>
        <time>2019-10-14T16:25:27Z</time>
      </trkpt>
      <trkpt lat="-22.140055" lon="-46.049258">
        <ele>950.647</ele>
        <time>2019-10-14T16:25:30Z</time>
      </trkpt>
      <trkpt lat="-22.140063" lon="-46.049196">
        <ele>951.111</ele>
        <time>2019-10-14T16:25:32Z</time>
      </trkpt>
      <trkpt lat="-22.140063" lon="-46.049145">
        <ele>951.408</ele>
        <time>2019-10-14T16:25:34Z</time>
      </trkpt>
      <trkpt lat="-22.140071" lon="-46.049086">
        <ele>951.516</ele>
        <time>2019-10-14T16:25:37Z</time>
      </trkpt>
      <trkpt lat="-22.140078" lon="-46.049022">
        <ele>952.264</ele>
        <time>2019-10-14T16:25:41Z</time>
      </trkpt>
      <trkpt lat="-22.140079" lon="-46.048948">
        <ele>952.396</ele>
        <time>2019-10-14T16:25:44Z</time>
      </trkpt>
      <trkpt lat="-22.140089" lon="-46.048886">
        <ele>952.318</ele>
        <time>2019-10-14T16:25:47Z</time>
      </trkpt>
      <trkpt lat="-22.140089" lon="-46.048832">
        <ele>952.280</ele>
        <time>2019-10-14T16:25:50Z</time>
      </trkpt>
      <trkpt lat="-22.140081" lon="-46.048759">
        <ele>951.873</ele>
        <time>2019-10-14T16:25:53Z</time>
      </trkpt>
      <trkpt lat="-22.140083" lon="-46.048706">
        <ele>951.438</ele>
        <time>2019-10-14T16:25:55Z</time>
      </trkpt>
      <trkpt lat="-22.140090" lon="-46.048647">
        <ele>951.044</ele>
        <time>2019-10-14T16:25:57Z</time>
      </trkpt>
      <trkpt lat="-22.140107" lon="-46.047409">
        <ele>941.622</ele>
        <time>2019-10-14T16:26:22Z</time>
      </trkpt>
      <trkpt lat="-22.140080" lon="-46.047337">
        <ele>940.562</ele>
        <time>2019-10-14T16:26:44Z</time>
      </trkpt>
      <trkpt lat="-22.140058" lon="-46.047265">
        <ele>940.808</ele>
        <time>2019-10-14T16:26:46Z</time>
      </trkpt>
      <trkpt lat="-22.140048" lon="-46.047209">
        <ele>941.008</ele>
        <time>2019-10-14T16:26:48Z</time>
      </trkpt>
      <trkpt lat="-22.140040" lon="-46.047137">
        <ele>941.796</ele>
        <time>2019-10-14T16:26:50Z</time>
      </trkpt>
      <trkpt lat="-22.140019" lon="-46.047059">
        <ele>943.214</ele>
        <time>2019-10-14T16:26:54Z</time>
      </trkpt>
      <trkpt lat="-22.139998" lon="-46.047005">
        <ele>943.916</ele>
        <time>2019-10-14T16:26:58Z</time>
      </trkpt>
      <trkpt lat="-22.139977" lon="-46.046957">
        <ele>944.738</ele>
        <time>2019-10-14T16:27:01Z</time>
      </trkpt>
      <trkpt lat="-22.139946" lon="-46.046903">
        <ele>945.460</ele>
        <time>2019-10-14T16:27:05Z</time>
      </trkpt>
      <trkpt lat="-22.139924" lon="-46.046858">
        <ele>946.033</ele>
        <time>2019-10-14T16:27:08Z</time>
      </trkpt>
      <trkpt lat="-22.139902" lon="-46.046815">
        <ele>946.578</ele>
        <time>2019-10-14T16:27:11Z</time>
      </trkpt>
      <trkpt lat="-22.139879" lon="-46.046767">
        <ele>947.464</ele>
        <time>2019-10-14T16:27:15Z</time>
      </trkpt>
      <trkpt lat="-22.139856" lon="-46.046723">
        <ele>948.121</ele>
        <time>2019-10-14T16:27:19Z</time>
      </trkpt>
      <trkpt lat="-22.139831" lon="-46.046681">
        <ele>948.641</ele>
        <time>2019-10-14T16:27:22Z</time>
      </trkpt>
      <trkpt lat="-22.139799" lon="-46.046638">
        <ele>949.705</ele>
        <time>2019-10-14T16:27:27Z</time>
      </trkpt>
      <trkpt lat="-22.139772" lon="-46.046592">
        <ele>950.708</ele>
        <time>2019-10-14T16:27:34Z</time>
      </trkpt>
      <trkpt lat="-22.139745" lon="-46.046539">
        <ele>952.416</ele>
        <time>2019-10-14T16:27:42Z</time>
      </trkpt>
      <trkpt lat="-22.139719" lon="-46.046494">
        <ele>953.284</ele>
        <time>2019-10-14T16:27:47Z</time>
      </trkpt>
      <trkpt lat="-22.139687" lon="-46.046444">
        <ele>954.376</ele>
        <time>2019-10-14T16:27:55Z</time>
      </trkpt>
      <trkpt lat="-22.139632" lon="-46.046386">
        <ele>954.888</ele>
        <time>2019-10-14T16:27:57Z</time>
      </trkpt>
      <trkpt lat="-22.139591" lon="-46.046346">
        <ele>955.210</ele>
        <time>2019-10-14T16:27:59Z</time>
      </trkpt>
      <trkpt lat="-22.139563" lon="-46.046300">
        <ele>956.153</ele>
        <time>2019-10-14T16:28:03Z</time>
      </trkpt>
      <trkpt lat="-22.139537" lon="-46.046254">
        <ele>957.128</ele>
        <time>2019-10-14T16:28:09Z</time>
      </trkpt>
      <trkpt lat="-22.139494" lon="-46.046191">
        <ele>957.944</ele>
        <time>2019-10-14T16:28:14Z</time>
      </trkpt>
      <trkpt lat="-22.139463" lon="-46.046140">
        <ele>958.533</ele>
        <time>2019-10-14T16:28:16Z</time>
      </trkpt>
      <trkpt lat="-22.139436" lon="-46.046090">
        <ele>958.823</ele>
        <time>2019-10-14T16:28:20Z</time>
      </trkpt>
      <trkpt lat="-22.139388" lon="-46.046010">
        <ele>960.015</ele>
        <time>2019-10-14T16:28:26Z</time>
      </trkpt>
      <trkpt lat="-22.139359" lon="-46.045964">
        <ele>960.208</ele>
        <time>2019-10-14T16:28:30Z</time>
      </trkpt>
      <trkpt lat="-22.139331" lon="-46.045919">
        <ele>960.717</ele>
        <time>2019-10-14T16:28:33Z</time>
      </trkpt>
      <trkpt lat="-22.139292" lon="-46.045851">
        <ele>961.515</ele>
        <time>2019-10-14T16:28:39Z</time>
      </trkpt>
      <trkpt lat="-22.139269" lon="-46.045805">
        <ele>962.047</ele>
        <time>2019-10-14T16:28:42Z</time>
      </trkpt>
      <trkpt lat="-22.139243" lon="-46.045765">
        <ele>962.059</ele>
        <time>2019-10-14T16:28:46Z</time>
      </trkpt>
      <trkpt lat="-22.139205" lon="-46.045705">
        <ele>963.091</ele>
        <time>2019-10-14T16:28:50Z</time>
      </trkpt>
      <trkpt lat="-22.139172" lon="-46.045656">
        <ele>963.644</ele>
        <time>2019-10-14T16:28:53Z</time>
      </trkpt>
      <trkpt lat="-22.139148" lon="-46.045599">
        <ele>963.689</ele>
        <time>2019-10-14T16:28:56Z</time>
      </trkpt>
      <trkpt lat="-22.139133" lon="-46.045544">
        <ele>964.165</ele>
        <time>2019-10-14T16:28:59Z</time>
      </trkpt>
      <trkpt lat="-22.139108" lon="-46.045490">
        <ele>964.477</ele>
        <time>2019-10-14T16:29:02Z</time>
      </trkpt>
      <trkpt lat="-22.139085" lon="-46.045440">
        <ele>964.561</ele>
        <time>2019-10-14T16:29:05Z</time>
      </trkpt>
      <trkpt lat="-22.139049" lon="-46.045376">
        <ele>964.427</ele>
        <time>2019-10-14T16:29:08Z</time>
      </trkpt>
      <trkpt lat="-22.139018" lon="-46.045320">
        <ele>964.808</ele>
        <time>2019-10-14T16:29:12Z</time>
      </trkpt>
      <trkpt lat="-22.138987" lon="-46.045275">
        <ele>964.371</ele>
        <time>2019-10-14T16:29:14Z</time>
      </trkpt>
      <trkpt lat="-22.138961" lon="-46.045227">
        <ele>964.259</ele>
        <time>2019-10-14T16:29:16Z</time>
      </trkpt>
      <trkpt lat="-22.138931" lon="-46.045159">
        <ele>963.911</ele>
        <time>2019-10-14T16:29:18Z</time>
      </trkpt>
      <trkpt lat="-22.138893" lon="-46.045094">
        <ele>963.763</ele>
        <time>2019-10-14T16:29:21Z</time>
      </trkpt>
      <trkpt lat="-22.138861" lon="-46.045039">
        <ele>963.435</ele>
        <time>2019-10-14T16:29:22Z</time>
      </trkpt>
      <trkpt lat="-22.138831" lon="-46.045002">
        <ele>963.448</ele>
        <time>2019-10-14T16:29:24Z</time>
      </trkpt>
      <trkpt lat="-22.138408" lon="-46.044269">
        <ele>962.623</ele>
        <time>2019-10-14T16:29:43Z</time>
      </trkpt>
      <trkpt lat="-22.138377" lon="-46.044201">
        <ele>963.349</ele>
        <time>2019-10-14T16:29:45Z</time>
      </trkpt>
      <trkpt lat="-22.138308" lon="-46.044091">
        <ele>963.724</ele>
        <time>2019-10-14T16:29:49Z</time>
      </trkpt>
      <trkpt lat="-22.138276" lon="-46.044034">
        <ele>963.804</ele>
        <time>2019-10-14T16:29:50Z</time>
      </trkpt>
      <trkpt lat="-22.138249" lon="-46.043976">
        <ele>964.714</ele>
        <time>2019-10-14T16:29:53Z</time>
      </trkpt>
      <trkpt lat="-22.138226" lon="-46.043932">
        <ele>964.908</ele>
        <time>2019-10-14T16:29:54Z</time>
      </trkpt>
      <trkpt lat="-22.138191" lon="-46.043868">
        <ele>965.316</ele>
        <time>2019-10-14T16:29:56Z</time>
      </trkpt>
      <trkpt lat="-22.138143" lon="-46.043779">
        <ele>966.354</ele>
        <time>2019-10-14T16:30:00Z</time>
      </trkpt>
      <trkpt lat="-22.138104" lon="-46.043710">
        <ele>967.096</ele>
        <time>2019-10-14T16:30:02Z</time>
      </trkpt>
      <trkpt lat="-22.138073" lon="-46.043647">
        <ele>967.458</ele>
        <time>2019-10-14T16:30:04Z</time>
      </trkpt>
      <trkpt lat="-22.138036" lon="-46.043568">
        <ele>968.080</ele>
        <time>2019-10-14T16:30:08Z</time>
      </trkpt>
      <trkpt lat="-22.138017" lon="-46.043520">
        <ele>968.533</ele>
        <time>2019-10-14T16:30:10Z</time>
      </trkpt>
      <trkpt lat="-22.137998" lon="-46.043476">
        <ele>968.928</ele>
        <time>2019-10-14T16:30:11Z</time>
      </trkpt>
      <trkpt lat="-22.137973" lon="-46.043424">
        <ele>969.044</ele>
        <time>2019-10-14T16:30:13Z</time>
      </trkpt>
      <trkpt lat="-22.137906" lon="-46.043323">
        <ele>970.251</ele>
        <time>2019-10-14T16:30:18Z</time>
      </trkpt>
      <trkpt lat="-22.137856" lon="-46.043263">
        <ele>970.401</ele>
        <time>2019-10-14T16:30:21Z</time>
      </trkpt>
      <trkpt lat="-22.137817" lon="-46.043223">
        <ele>971.111</ele>
        <time>2019-10-14T16:30:23Z</time>
      </trkpt>
      <trkpt lat="-22.137782" lon="-46.043192">
        <ele>971.208</ele>
        <time>2019-10-14T16:30:25Z</time>
      </trkpt>
      <trkpt lat="-22.137743" lon="-46.043161">
        <ele>971.489</ele>
        <time>2019-10-14T16:30:28Z</time>
      </trkpt>
      <trkpt lat="-22.137688" lon="-46.043092">
        <ele>971.877</ele>
        <time>2019-10-14T16:30:32Z</time>
      </trkpt>
      <trkpt lat="-22.137641" lon="-46.043052">
        <ele>972.089</ele>
        <time>2019-10-14T16:30:35Z</time>
      </trkpt>
      <trkpt lat="-22.137609" lon="-46.043017">
        <ele>972.231</ele>
        <time>2019-10-14T16:30:36Z</time>
      </trkpt>
      <trkpt lat="-22.137567" lon="-46.042965">
        <ele>972.463</ele>
        <time>2019-10-14T16:30:40Z</time>
      </trkpt>
      <trkpt lat="-22.137526" lon="-46.042918">
        <ele>973.076</ele>
        <time>2019-10-14T16:30:42Z</time>
      </trkpt>
      <trkpt lat="-22.137487" lon="-46.042870">
        <ele>973.581</ele>
        <time>2019-10-14T16:30:45Z</time>
      </trkpt>
      <trkpt lat="-22.137450" lon="-46.042817">
        <ele>974.347</ele>
        <time>2019-10-14T16:30:48Z</time>
      </trkpt>
      <trkpt lat="-22.137415" lon="-46.042771">
        <ele>974.542</ele>
        <time>2019-10-14T16:30:51Z</time>
      </trkpt>
      <trkpt lat="-22.137376" lon="-46.042732">
        <ele>974.522</ele>
        <time>2019-10-14T16:30:53Z</time>
      </trkpt>
      <trkpt lat="-22.137333" lon="-46.042678">
        <ele>974.314</ele>
        <time>2019-10-14T16:30:56Z</time>
      </trkpt>
      <trkpt lat="-22.137295" lon="-46.042635">
        <ele>974.708</ele>
        <time>2019-10-14T16:30:58Z</time>
      </trkpt>
      <trkpt lat="-22.137261" lon="-46.042595">
        <ele>975.188</ele>
        <time>2019-10-14T16:31:00Z</time>
      </trkpt>
      <trkpt lat="-22.137209" lon="-46.042542">
        <ele>975.756</ele>
        <time>2019-10-14T16:31:03Z</time>
      </trkpt>
      <trkpt lat="-22.137144" lon="-46.042479">
        <ele>976.028</ele>
        <time>2019-10-14T16:31:07Z</time>
      </trkpt>
      <trkpt lat="-22.137108" lon="-46.042438">
        <ele>976.580</ele>
        <time>2019-10-14T16:31:08Z</time>
      </trkpt>
      <trkpt lat="-22.137042" lon="-46.042395">
        <ele>977.372</ele>
        <time>2019-10-14T16:31:12Z</time>
      </trkpt>
      <trkpt lat="-22.137007" lon="-46.042356">
        <ele>977.765</ele>
        <time>2019-10-14T16:31:15Z</time>
      </trkpt>
      <trkpt lat="-22.136969" lon="-46.042315">
        <ele>978.150</ele>
        <time>2019-10-14T16:31:18Z</time>
      </trkpt>
      <trkpt lat="-22.136934" lon="-46.042271">
        <ele>978.586</ele>
        <time>2019-10-14T16:31:20Z</time>
      </trkpt>
      <trkpt lat="-22.136866" lon="-46.042175">
        <ele>979.194</ele>
        <time>2019-10-14T16:31:26Z</time>
      </trkpt>
      <trkpt lat="-22.136838" lon="-46.042132">
        <ele>979.357</ele>
        <time>2019-10-14T16:31:28Z</time>
      </trkpt>
      <trkpt lat="-22.136808" lon="-46.042085">
        <ele>979.922</ele>
        <time>2019-10-14T16:31:29Z</time>
      </trkpt>
      <trkpt lat="-22.136774" lon="-46.042028">
        <ele>979.808</ele>
        <time>2019-10-14T16:31:33Z</time>
      </trkpt>
      <trkpt lat="-22.136740" lon="-46.041957">
        <ele>980.723</ele>
        <time>2019-10-14T16:31:36Z</time>
      </trkpt>
      <trkpt lat="-22.136723" lon="-46.041912">
        <ele>980.421</ele>
        <time>2019-10-14T16:31:38Z</time>
      </trkpt>
      <trkpt lat="-22.136699" lon="-46.041859">
        <ele>980.563</ele>
        <time>2019-10-14T16:31:40Z</time>
      </trkpt>
      <trkpt lat="-22.136684" lon="-46.041804">
        <ele>980.745</ele>
        <time>2019-10-14T16:31:42Z</time>
      </trkpt>
      <trkpt lat="-22.136672" lon="-46.041749">
        <ele>981.067</ele>
        <time>2019-10-14T16:31:44Z</time>
      </trkpt>
      <trkpt lat="-22.136662" lon="-46.041683">
        <ele>981.670</ele>
        <time>2019-10-14T16:31:47Z</time>
      </trkpt>
      <trkpt lat="-22.136644" lon="-46.041622">
        <ele>981.725</ele>
        <time>2019-10-14T16:31:51Z</time>
      </trkpt>
      <trkpt lat="-22.136631" lon="-46.041563">
        <ele>982.091</ele>
        <time>2019-10-14T16:31:53Z</time>
      </trkpt>
      <trkpt lat="-22.136619" lon="-46.041492">
        <ele>981.842</ele>
        <time>2019-10-14T16:31:55Z</time>
      </trkpt>
      <trkpt lat="-22.136614" lon="-46.041414">
        <ele>983.222</ele>
        <time>2019-10-14T16:31:57Z</time>
      </trkpt>
      <trkpt lat="-22.136599" lon="-46.041344">
        <ele>983.814</ele>
        <time>2019-10-14T16:32:00Z</time>
      </trkpt>
      <trkpt lat="-22.136597" lon="-46.041286">
        <ele>984.508</ele>
        <time>2019-10-14T16:32:03Z</time>
      </trkpt>
      <trkpt lat="-22.136593" lon="-46.041223">
        <ele>984.778</ele>
        <time>2019-10-14T16:32:05Z</time>
      </trkpt>
      <trkpt lat="-22.136590" lon="-46.041161">
        <ele>984.746</ele>
        <time>2019-10-14T16:32:07Z</time>
      </trkpt>
      <trkpt lat="-22.136587" lon="-46.041098">
        <ele>985.018</ele>
        <time>2019-10-14T16:32:10Z</time>
      </trkpt>
      <trkpt lat="-22.136582" lon="-46.041014">
        <ele>985.470</ele>
        <time>2019-10-14T16:32:14Z</time>
      </trkpt>
      <trkpt lat="-22.136580" lon="-46.040937">
        <ele>985.662</ele>
        <time>2019-10-14T16:32:16Z</time>
      </trkpt>
      <trkpt lat="-22.136571" lon="-46.040879">
        <ele>985.215</ele>
        <time>2019-10-14T16:32:19Z</time>
      </trkpt>
      <trkpt lat="-22.136568" lon="-46.040810">
        <ele>985.610</ele>
        <time>2019-10-14T16:32:22Z</time>
      </trkpt>
      <trkpt lat="-22.136567" lon="-46.040761">
        <ele>985.586</ele>
        <time>2019-10-14T16:32:25Z</time>
      </trkpt>
      <trkpt lat="-22.136550" lon="-46.040679">
        <ele>985.752</ele>
        <time>2019-10-14T16:32:30Z</time>
      </trkpt>
      <trkpt lat="-22.136543" lon="-46.040619">
        <ele>985.753</ele>
        <time>2019-10-14T16:32:32Z</time>
      </trkpt>
      <trkpt lat="-22.136534" lon="-46.040566">
        <ele>986.008</ele>
        <time>2019-10-14T16:32:34Z</time>
      </trkpt>
      <trkpt lat="-22.136517" lon="-46.040510">
        <ele>986.308</ele>
        <time>2019-10-14T16:32:37Z</time>
      </trkpt>
      <trkpt lat="-22.136503" lon="-46.040463">
        <ele>986.359</ele>
        <time>2019-10-14T16:32:39Z</time>
      </trkpt>
      <trkpt lat="-22.136476" lon="-46.040385">
        <ele>986.487</ele>
        <time>2019-10-14T16:32:43Z</time>
      </trkpt>
      <trkpt lat="-22.136445" lon="-46.040318">
        <ele>986.279</ele>
        <time>2019-10-14T16:32:45Z</time>
      </trkpt>
      <trkpt lat="-22.136430" lon="-46.040270">
        <ele>986.541</ele>
        <time>2019-10-14T16:32:47Z</time>
      </trkpt>
      <trkpt lat="-22.136412" lon="-46.040212">
        <ele>986.493</ele>
        <time>2019-10-14T16:32:49Z</time>
      </trkpt>
      <trkpt lat="-22.136390" lon="-46.040164">
        <ele>987.016</ele>
        <time>2019-10-14T16:32:51Z</time>
      </trkpt>
      <trkpt lat="-22.136367" lon="-46.040102">
        <ele>986.851</ele>
        <time>2019-10-14T16:32:54Z</time>
      </trkpt>
      <trkpt lat="-22.136351" lon="-46.040054">
        <ele>987.157</ele>
        <time>2019-10-14T16:32:56Z</time>
      </trkpt>
      <trkpt lat="-22.136350" lon="-46.039993">
        <ele>988.419</ele>
        <time>2019-10-14T16:34:40Z</time>
      </trkpt>
      <trkpt lat="-22.136331" lon="-46.039948">
        <ele>989.109</ele>
        <time>2019-10-14T16:34:44Z</time>
      </trkpt>
      <trkpt lat="-22.136310" lon="-46.039905">
        <ele>989.419</ele>
        <time>2019-10-14T16:39:43Z</time>
      </trkpt>
      <trkpt lat="-22.136289" lon="-46.039856">
        <ele>989.708</ele>
        <time>2019-10-14T16:39:48Z</time>
      </trkpt>
      <trkpt lat="-22.136272" lon="-46.039795">
        <ele>990.315</ele>
        <time>2019-10-14T16:39:52Z</time>
      </trkpt>
      <trkpt lat="-22.136261" lon="-46.039737">
        <ele>990.733</ele>
        <time>2019-10-14T16:39:58Z</time>
      </trkpt>
      <trkpt lat="-22.136245" lon="-46.039685">
        <ele>991.615</ele>
        <time>2019-10-14T16:40:02Z</time>
      </trkpt>
      <trkpt lat="-22.136227" lon="-46.039640">
        <ele>991.497</ele>
        <time>2019-10-14T16:40:06Z</time>
      </trkpt>
      <trkpt lat="-22.136207" lon="-46.039584">
        <ele>992.619</ele>
        <time>2019-10-14T16:40:12Z</time>
      </trkpt>
      <trkpt lat="-22.136179" lon="-46.039542">
        <ele>993.032</ele>
        <time>2019-10-14T16:40:16Z</time>
      </trkpt>
      <trkpt lat="-22.136154" lon="-46.039501">
        <ele>993.587</ele>
        <time>2019-10-14T16:40:19Z</time>
      </trkpt>
      <trkpt lat="-22.136139" lon="-46.039447">
        <ele>994.633</ele>
        <time>2019-10-14T16:40:25Z</time>
      </trkpt>
      <trkpt lat="-22.136136" lon="-46.039397">
        <ele>994.516</ele>
        <time>2019-10-14T16:40:28Z</time>
      </trkpt>
      <trkpt lat="-22.136111" lon="-46.039332">
        <ele>995.276</ele>
        <time>2019-10-14T16:40:35Z</time>
      </trkpt>
      <trkpt lat="-22.136086" lon="-46.039258">
        <ele>996.313</ele>
        <time>2019-10-14T16:40:44Z</time>
      </trkpt>
      <trkpt lat="-22.136071" lon="-46.039200">
        <ele>996.908</ele>
        <time>2019-10-14T16:40:49Z</time>
      </trkpt>
      <trkpt lat="-22.136046" lon="-46.039132">
        <ele>997.765</ele>
        <time>2019-10-14T16:40:55Z</time>
      </trkpt>
      <trkpt lat="-22.136029" lon="-46.039074">
        <ele>998.463</ele>
        <time>2019-10-14T16:41:01Z</time>
      </trkpt>
      <trkpt lat="-22.136014" lon="-46.039025">
        <ele>999.055</ele>
        <time>2019-10-14T16:41:06Z</time>
      </trkpt>
      <trkpt lat="-22.136002" lon="-46.038973">
        <ele>999.897</ele>
        <time>2019-10-14T16:41:11Z</time>
      </trkpt>
      <trkpt lat="-22.135978" lon="-46.038894">
        <ele>1001.329</ele>
        <time>2019-10-14T16:41:22Z</time>
      </trkpt>
      <trkpt lat="-22.135938" lon="-46.038776">
        <ele>1002.922</ele>
        <time>2019-10-14T16:41:38Z</time>
      </trkpt>
      <trkpt lat="-22.135893" lon="-46.038683">
        <ele>1003.797</ele>
        <time>2019-10-14T16:41:46Z</time>
      </trkpt>
      <trkpt lat="-22.135869" lon="-46.038636">
        <ele>1004.813</ele>
        <time>2019-10-14T16:41:55Z</time>
      </trkpt>
      <trkpt lat="-22.135833" lon="-46.038587">
        <ele>1005.696</ele>
        <time>2019-10-14T16:42:01Z</time>
      </trkpt>
      <trkpt lat="-22.135801" lon="-46.038549">
        <ele>1006.331</ele>
        <time>2019-10-14T16:42:06Z</time>
      </trkpt>
      <trkpt lat="-22.135756" lon="-46.038496">
        <ele>1007.324</ele>
        <time>2019-10-14T16:42:12Z</time>
      </trkpt>
      <trkpt lat="-22.135732" lon="-46.038437">
        <ele>1007.808</ele>
        <time>2019-10-14T16:42:16Z</time>
      </trkpt>
      <trkpt lat="-22.135705" lon="-46.038392">
        <ele>1008.423</ele>
        <time>2019-10-14T16:42:22Z</time>
      </trkpt>
      <trkpt lat="-22.135663" lon="-46.038339">
        <ele>1009.451</ele>
        <time>2019-10-14T16:42:30Z</time>
      </trkpt>
      <trkpt lat="-22.135640" lon="-46.038295">
        <ele>1010.723</ele>
        <time>2019-10-14T16:42:37Z</time>
      </trkpt>
      <trkpt lat="-22.135614" lon="-46.038254">
        <ele>1011.025</ele>
        <time>2019-10-14T16:42:41Z</time>
      </trkpt>
      <trkpt lat="-22.135569" lon="-46.038188">
        <ele>1011.657</ele>
        <time>2019-10-14T16:42:49Z</time>
      </trkpt>
      <trkpt lat="-22.135535" lon="-46.038136">
        <ele>1012.340</ele>
        <time>2019-10-14T16:42:56Z</time>
      </trkpt>
      <trkpt lat="-22.135502" lon="-46.038095">
        <ele>1013.075</ele>
        <time>2019-10-14T16:43:02Z</time>
      </trkpt>
      <trkpt lat="-22.135475" lon="-46.038055">
        <ele>1013.871</ele>
        <time>2019-10-14T16:43:07Z</time>
      </trkpt>
      <trkpt lat="-22.135396" lon="-46.037979">
        <ele>1014.911</ele>
        <time>2019-10-14T16:43:20Z</time>
      </trkpt>
      <trkpt lat="-22.135364" lon="-46.037942">
        <ele>1015.621</ele>
        <time>2019-10-14T16:43:24Z</time>
      </trkpt>
      <trkpt lat="-22.135328" lon="-46.037894">
        <ele>1015.503</ele>
        <time>2019-10-14T16:43:29Z</time>
      </trkpt>
      <trkpt lat="-22.135295" lon="-46.037848">
        <ele>1015.908</ele>
        <time>2019-10-14T16:43:34Z</time>
      </trkpt>
      <trkpt lat="-22.135260" lon="-46.037808">
        <ele>1015.875</ele>
        <time>2019-10-14T16:43:36Z</time>
      </trkpt>
      <trkpt lat="-22.135202" lon="-46.037769">
        <ele>1016.073</ele>
        <time>2019-10-14T16:43:38Z</time>
      </trkpt>
      <trkpt lat="-22.135160" lon="-46.037742">
        <ele>1016.115</ele>
        <time>2019-10-14T16:43:40Z</time>
      </trkpt>
      <trkpt lat="-22.135116" lon="-46.037701">
        <ele>1016.547</ele>
        <time>2019-10-14T16:43:45Z</time>
      </trkpt>
      <trkpt lat="-22.135076" lon="-46.037674">
        <ele>1016.689</ele>
        <time>2019-10-14T16:43:48Z</time>
      </trkpt>
      <trkpt lat="-22.135036" lon="-46.037646">
        <ele>1017.122</ele>
        <time>2019-10-14T16:43:52Z</time>
      </trkpt>
      <trkpt lat="-22.135001" lon="-46.037614">
        <ele>1016.957</ele>
        <time>2019-10-14T16:43:54Z</time>
      </trkpt>
      <trkpt lat="-22.134957" lon="-46.037581">
        <ele>1017.073</ele>
        <time>2019-10-14T16:43:57Z</time>
      </trkpt>
      <trkpt lat="-22.134878" lon="-46.037561">
        <ele>1017.142</ele>
        <time>2019-10-14T16:44:02Z</time>
      </trkpt>
      <trkpt lat="-22.134826" lon="-46.037525">
        <ele>1017.222</ele>
        <time>2019-10-14T16:44:06Z</time>
      </trkpt>
      <trkpt lat="-22.134769" lon="-46.037480">
        <ele>1016.814</ele>
        <time>2019-10-14T16:44:09Z</time>
      </trkpt>
      <trkpt lat="-22.134724" lon="-46.037445">
        <ele>1016.708</ele>
        <time>2019-10-14T16:44:11Z</time>
      </trkpt>
      <trkpt lat="-22.134676" lon="-46.037408">
        <ele>1017.088</ele>
        <time>2019-10-14T16:44:14Z</time>
      </trkpt>
      <trkpt lat="-22.134626" lon="-46.037374">
        <ele>1016.996</ele>
        <time>2019-10-14T16:44:17Z</time>
      </trkpt>
      <trkpt lat="-22.134572" lon="-46.037334">
        <ele>1017.178</ele>
        <time>2019-10-14T16:44:20Z</time>
      </trkpt>
      <trkpt lat="-22.134535" lon="-46.037303">
        <ele>1017.340</ele>
        <time>2019-10-14T16:44:23Z</time>
      </trkpt>
      <trkpt lat="-22.134491" lon="-46.037270">
        <ele>1017.322</ele>
        <time>2019-10-14T16:44:25Z</time>
      </trkpt>
      <trkpt lat="-22.134435" lon="-46.037228">
        <ele>1016.935</ele>
        <time>2019-10-14T16:44:28Z</time>
      </trkpt>
      <trkpt lat="-22.134384" lon="-46.037193">
        <ele>1017.150</ele>
        <time>2019-10-14T16:44:30Z</time>
      </trkpt>
      <trkpt lat="-22.134333" lon="-46.037156">
        <ele>1017.096</ele>
        <time>2019-10-14T16:44:33Z</time>
      </trkpt>
      <trkpt lat="-22.134287" lon="-46.037128">
        <ele>1016.958</ele>
        <time>2019-10-14T16:44:34Z</time>
      </trkpt>
      <trkpt lat="-22.134239" lon="-46.037095">
        <ele>1017.352</ele>
        <time>2019-10-14T16:44:37Z</time>
      </trkpt>
      <trkpt lat="-22.134177" lon="-46.037063">
        <ele>1017.817</ele>
        <time>2019-10-14T16:44:40Z</time>
      </trkpt>
      <trkpt lat="-22.134109" lon="-46.037015">
        <ele>1018.008</ele>
        <time>2019-10-14T16:44:42Z</time>
      </trkpt>
      <trkpt lat="-22.134052" lon="-46.036974">
        <ele>1018.319</ele>
        <time>2019-10-14T16:44:44Z</time>
      </trkpt>
      <trkpt lat="-22.134004" lon="-46.036927">
        <ele>1018.777</ele>
        <time>2019-10-14T16:44:48Z</time>
      </trkpt>
      <trkpt lat="-22.133959" lon="-46.036887">
        <ele>1018.899</ele>
        <time>2019-10-14T16:44:49Z</time>
      </trkpt>
      <trkpt lat="-22.133917" lon="-46.036866">
        <ele>1018.861</ele>
        <time>2019-10-14T16:44:51Z</time>
      </trkpt>
      <trkpt lat="-22.133862" lon="-46.036845">
        <ele>1019.093</ele>
        <time>2019-10-14T16:44:54Z</time>
      </trkpt>
      <trkpt lat="-22.133820" lon="-46.036823">
        <ele>1019.476</ele>
        <time>2019-10-14T16:44:56Z</time>
      </trkpt>
      <trkpt lat="-22.133767" lon="-46.036795">
        <ele>1019.641</ele>
        <time>2019-10-14T16:44:59Z</time>
      </trkpt>
      <trkpt lat="-22.133724" lon="-46.036769">
        <ele>1019.587</ele>
        <time>2019-10-14T16:45:01Z</time>
      </trkpt>
      <trkpt lat="-22.133671" lon="-46.036745">
        <ele>1019.817</ele>
        <time>2019-10-14T16:45:04Z</time>
      </trkpt>
      <trkpt lat="-22.133603" lon="-46.036710">
        <ele>1020.087</ele>
        <time>2019-10-14T16:45:07Z</time>
      </trkpt>
      <trkpt lat="-22.133569" lon="-46.036668">
        <ele>1020.115</ele>
        <time>2019-10-14T16:45:10Z</time>
      </trkpt>
      <trkpt lat="-22.133529" lon="-46.036609">
        <ele>1020.108</ele>
        <time>2019-10-14T16:45:13Z</time>
      </trkpt>
      <trkpt lat="-22.133474" lon="-46.036567">
        <ele>1020.355</ele>
        <time>2019-10-14T16:45:16Z</time>
      </trkpt>
      <trkpt lat="-22.133433" lon="-46.036540">
        <ele>1020.473</ele>
        <time>2019-10-14T16:45:18Z</time>
      </trkpt>
      <trkpt lat="-22.133381" lon="-46.036509">
        <ele>1020.715</ele>
        <time>2019-10-14T16:45:22Z</time>
      </trkpt>
      <trkpt lat="-22.133336" lon="-46.036492">
        <ele>1021.147</ele>
        <time>2019-10-14T16:45:24Z</time>
      </trkpt>
      <trkpt lat="-22.133281" lon="-46.036470">
        <ele>1021.139</ele>
        <time>2019-10-14T16:45:27Z</time>
      </trkpt>
      <trkpt lat="-22.133226" lon="-46.036450">
        <ele>1021.572</ele>
        <time>2019-10-14T16:45:30Z</time>
      </trkpt>
      <trkpt lat="-22.133174" lon="-46.036434">
        <ele>1021.837</ele>
        <time>2019-10-14T16:45:33Z</time>
      </trkpt>
      <trkpt lat="-22.133128" lon="-46.036430">
        <ele>1021.743</ele>
        <time>2019-10-14T16:45:35Z</time>
      </trkpt>
      <trkpt lat="-22.133077" lon="-46.036431">
        <ele>1022.325</ele>
        <time>2019-10-14T16:45:38Z</time>
      </trkpt>
      <trkpt lat="-22.133011" lon="-46.036425">
        <ele>1022.926</ele>
        <time>2019-10-14T16:45:44Z</time>
      </trkpt>
      <trkpt lat="-22.132933" lon="-46.036427">
        <ele>1023.508</ele>
        <time>2019-10-14T16:45:51Z</time>
      </trkpt>
      <trkpt lat="-22.132888" lon="-46.036435">
        <ele>1024.108</ele>
        <time>2019-10-14T16:45:54Z</time>
      </trkpt>
      <trkpt lat="-22.132844" lon="-46.036448">
        <ele>1024.236</ele>
        <time>2019-10-14T16:45:57Z</time>
      </trkpt>
      <trkpt lat="-22.132773" lon="-46.036474">
        <ele>1024.444</ele>
        <time>2019-10-14T16:45:59Z</time>
      </trkpt>
      <trkpt lat="-22.132730" lon="-46.036494">
        <ele>1024.596</ele>
        <time>2019-10-14T16:46:01Z</time>
      </trkpt>
      <trkpt lat="-22.132684" lon="-46.036510">
        <ele>1024.918</ele>
        <time>2019-10-14T16:46:02Z</time>
      </trkpt>
      <trkpt lat="-22.132621" lon="-46.036521">
        <ele>1025.070</ele>
        <time>2019-10-14T16:46:05Z</time>
      </trkpt>
      <trkpt lat="-22.132557" lon="-46.036557">
        <ele>1025.673</ele>
        <time>2019-10-14T16:46:09Z</time>
      </trkpt>
      <trkpt lat="-22.132507" lon="-46.036593">
        <ele>1025.848</ele>
        <time>2019-10-14T16:46:12Z</time>
      </trkpt>
      <trkpt lat="-22.132467" lon="-46.036621">
        <ele>1025.924</ele>
        <time>2019-10-14T16:46:15Z</time>
      </trkpt>
      <trkpt lat="-22.132427" lon="-46.036658">
        <ele>1026.583</ele>
        <time>2019-10-14T16:46:19Z</time>
      </trkpt>
      <trkpt lat="-22.132387" lon="-46.036684">
        <ele>1027.425</ele>
        <time>2019-10-14T16:46:24Z</time>
      </trkpt>
      <trkpt lat="-22.132343" lon="-46.036720">
        <ele>1028.217</ele>
        <time>2019-10-14T16:46:31Z</time>
      </trkpt>
      <trkpt lat="-22.132318" lon="-46.036768">
        <ele>1028.708</ele>
        <time>2019-10-14T16:46:37Z</time>
      </trkpt>
      <trkpt lat="-22.132297" lon="-46.036812">
        <ele>1029.242</ele>
        <time>2019-10-14T16:46:40Z</time>
      </trkpt>
      <trkpt lat="-22.132272" lon="-46.036857">
        <ele>1030.210</ele>
        <time>2019-10-14T16:46:44Z</time>
      </trkpt>
      <trkpt lat="-22.132248" lon="-46.036908">
        <ele>1031.052</ele>
        <time>2019-10-14T16:46:50Z</time>
      </trkpt>
      <trkpt lat="-22.132217" lon="-46.036968">
        <ele>1032.264</ele>
        <time>2019-10-14T16:46:57Z</time>
      </trkpt>
      <trkpt lat="-22.132182" lon="-46.037018">
        <ele>1032.526</ele>
        <time>2019-10-14T16:46:59Z</time>
      </trkpt>
      <trkpt lat="-22.132143" lon="-46.037070">
        <ele>1033.169</ele>
        <time>2019-10-14T16:47:05Z</time>
      </trkpt>
      <trkpt lat="-22.132112" lon="-46.037119">
        <ele>1034.454</ele>
        <time>2019-10-14T16:47:14Z</time>
      </trkpt>
      <trkpt lat="-22.132076" lon="-46.037163">
        <ele>1035.190</ele>
        <time>2019-10-14T16:47:20Z</time>
      </trkpt>
      <trkpt lat="-22.132036" lon="-46.037204">
        <ele>1035.651</ele>
        <time>2019-10-14T16:47:26Z</time>
      </trkpt>
      <trkpt lat="-22.132003" lon="-46.037240">
        <ele>1036.101</ele>
        <time>2019-10-14T16:47:30Z</time>
      </trkpt>
      <trkpt lat="-22.131972" lon="-46.037288">
        <ele>1037.011</ele>
        <time>2019-10-14T16:47:37Z</time>
      </trkpt>
      <trkpt lat="-22.131941" lon="-46.037331">
        <ele>1037.308</ele>
        <time>2019-10-14T16:47:42Z</time>
      </trkpt>
      <trkpt lat="-22.131914" lon="-46.037380">
        <ele>1038.099</ele>
        <time>2019-10-14T16:47:48Z</time>
      </trkpt>
      <trkpt lat="-22.131877" lon="-46.037431">
        <ele>1039.537</ele>
        <time>2019-10-14T16:48:00Z</time>
      </trkpt>
      <trkpt lat="-22.131841" lon="-46.037475">
        <ele>1040.829</ele>
        <time>2019-10-14T16:48:12Z</time>
      </trkpt>
      <trkpt lat="-22.131804" lon="-46.037511">
        <ele>1041.851</ele>
        <time>2019-10-14T16:48:16Z</time>
      </trkpt>
      <trkpt lat="-22.131769" lon="-46.037549">
        <ele>1042.693</ele>
        <time>2019-10-14T16:48:21Z</time>
      </trkpt>
      <trkpt lat="-22.131718" lon="-46.037608">
        <ele>1044.086</ele>
        <time>2019-10-14T16:48:33Z</time>
      </trkpt>
      <trkpt lat="-22.131683" lon="-46.037649">
        <ele>1045.461</ele>
        <time>2019-10-14T16:48:39Z</time>
      </trkpt>
      <trkpt lat="-22.131642" lon="-46.037687">
        <ele>1046.137</ele>
        <time>2019-10-14T16:48:45Z</time>
      </trkpt>
      <trkpt lat="-22.131598" lon="-46.037724">
        <ele>1047.222</ele>
        <time>2019-10-14T16:48:51Z</time>
      </trkpt>
      <trkpt lat="-22.131564" lon="-46.037757">
        <ele>1047.762</ele>
        <time>2019-10-14T16:48:55Z</time>
      </trkpt>
      <trkpt lat="-22.131532" lon="-46.037797">
        <ele>1048.608</ele>
        <time>2019-10-14T16:49:00Z</time>
      </trkpt>
      <trkpt lat="-22.131497" lon="-46.037834">
        <ele>1049.208</ele>
        <time>2019-10-14T16:49:04Z</time>
      </trkpt>
      <trkpt lat="-22.131430" lon="-46.037891">
        <ele>1051.166</ele>
        <time>2019-10-14T16:49:11Z</time>
      </trkpt>
      <trkpt lat="-22.131393" lon="-46.037925">
        <ele>1052.134</ele>
        <time>2019-10-14T16:49:20Z</time>
      </trkpt>
      <trkpt lat="-22.131366" lon="-46.037973">
        <ele>1052.946</ele>
        <time>2019-10-14T16:49:33Z</time>
      </trkpt>
      <trkpt lat="-22.131326" lon="-46.038025">
        <ele>1054.858</ele>
        <time>2019-10-14T16:49:41Z</time>
      </trkpt>
      <trkpt lat="-22.131288" lon="-46.038058">
        <ele>1055.820</ele>
        <time>2019-10-14T16:49:47Z</time>
      </trkpt>
      <trkpt lat="-22.131246" lon="-46.038099">
        <ele>1057.063</ele>
        <time>2019-10-14T16:49:56Z</time>
      </trkpt>
      <trkpt lat="-22.131214" lon="-46.038148">
        <ele>1058.578</ele>
        <time>2019-10-14T16:50:02Z</time>
      </trkpt>
      <trkpt lat="-22.131183" lon="-46.038187">
        <ele>1059.794</ele>
        <time>2019-10-14T16:50:06Z</time>
      </trkpt>
      <trkpt lat="-22.131133" lon="-46.038237">
        <ele>1061.253</ele>
        <time>2019-10-14T16:50:13Z</time>
      </trkpt>
      <trkpt lat="-22.131103" lon="-46.038288">
        <ele>1062.404</ele>
        <time>2019-10-14T16:50:19Z</time>
      </trkpt>
      <trkpt lat="-22.131079" lon="-46.038336">
        <ele>1063.314</ele>
        <time>2019-10-14T16:50:26Z</time>
      </trkpt>
      <trkpt lat="-22.131052" lon="-46.038381">
        <ele>1064.508</ele>
        <time>2019-10-14T16:50:31Z</time>
      </trkpt>
      <trkpt lat="-22.131024" lon="-46.038419">
        <ele>1065.689</ele>
        <time>2019-10-14T16:50:36Z</time>
      </trkpt>
      <trkpt lat="-22.130989" lon="-46.038467">
        <ele>1066.897</ele>
        <time>2019-10-14T16:50:40Z</time>
      </trkpt>
      <trkpt lat="-22.130960" lon="-46.038505">
        <ele>1067.749</ele>
        <time>2019-10-14T16:50:44Z</time>
      </trkpt>
      <trkpt lat="-22.130933" lon="-46.038545">
        <ele>1068.141</ele>
        <time>2019-10-14T16:50:49Z</time>
      </trkpt>
      <trkpt lat="-22.130915" lon="-46.038594">
        <ele>1069.613</ele>
        <time>2019-10-14T16:50:56Z</time>
      </trkpt>
      <trkpt lat="-22.130896" lon="-46.038655">
        <ele>1070.986</ele>
        <time>2019-10-14T16:51:03Z</time>
      </trkpt>
      <trkpt lat="-22.130872" lon="-46.038720">
        <ele>1072.151</ele>
        <time>2019-10-14T16:51:11Z</time>
      </trkpt>
      <trkpt lat="-22.130839" lon="-46.038789">
        <ele>1073.517</ele>
        <time>2019-10-14T16:51:21Z</time>
      </trkpt>
      <trkpt lat="-22.130817" lon="-46.038836">
        <ele>1074.496</ele>
        <time>2019-10-14T16:51:28Z</time>
      </trkpt>
      <trkpt lat="-22.130784" lon="-46.038896">
        <ele>1074.931</ele>
        <time>2019-10-14T16:51:34Z</time>
      </trkpt>
      <trkpt lat="-22.130740" lon="-46.038953">
        <ele>1075.524</ele>
        <time>2019-10-14T16:51:36Z</time>
      </trkpt>
      <trkpt lat="-22.130704" lon="-46.038998">
        <ele>1075.908</ele>
        <time>2019-10-14T16:51:39Z</time>
      </trkpt>
      <trkpt lat="-22.130673" lon="-46.039063">
        <ele>1076.313</ele>
        <time>2019-10-14T16:51:42Z</time>
      </trkpt>
      <trkpt lat="-22.130642" lon="-46.039117">
        <ele>1077.291</ele>
        <time>2019-10-14T16:51:45Z</time>
      </trkpt>
      <trkpt lat="-22.130602" lon="-46.039186">
        <ele>1078.213</ele>
        <time>2019-10-14T16:51:51Z</time>
      </trkpt>
      <trkpt lat="-22.130573" lon="-46.039232">
        <ele>1078.595</ele>
        <time>2019-10-14T16:51:55Z</time>
      </trkpt>
      <trkpt lat="-22.130532" lon="-46.039306">
        <ele>1079.547</ele>
        <time>2019-10-14T16:52:00Z</time>
      </trkpt>
      <trkpt lat="-22.130500" lon="-46.039363">
        <ele>1079.990</ele>
        <time>2019-10-14T16:52:03Z</time>
      </trkpt>
      <trkpt lat="-22.130467" lon="-46.039409">
        <ele>1080.015</ele>
        <time>2019-10-14T16:52:07Z</time>
      </trkpt>
      <trkpt lat="-22.130440" lon="-46.039457">
        <ele>1080.331</ele>
        <time>2019-10-14T16:52:09Z</time>
      </trkpt>
      <trkpt lat="-22.130401" lon="-46.039534">
        <ele>1080.872</ele>
        <time>2019-10-14T16:53:49Z</time>
      </trkpt>
      <trkpt lat="-22.130374" lon="-46.039583">
        <ele>1080.913</ele>
        <time>2019-10-14T16:53:53Z</time>
      </trkpt>
      <trkpt lat="-22.130317" lon="-46.039679">
        <ele>1080.914</ele>
        <time>2019-10-14T16:53:59Z</time>
      </trkpt>
      <trkpt lat="-22.130286" lon="-46.039739">
        <ele>1081.108</ele>
        <time>2019-10-14T16:54:03Z</time>
      </trkpt>
      <trkpt lat="-22.130259" lon="-46.039787">
        <ele>1080.721</ele>
        <time>2019-10-14T16:54:06Z</time>
      </trkpt>
      <trkpt lat="-22.130219" lon="-46.039840">
        <ele>1080.329</ele>
        <time>2019-10-14T16:54:09Z</time>
      </trkpt>
      <trkpt lat="-22.130185" lon="-46.039876">
        <ele>1080.241</ele>
        <time>2019-10-14T16:54:11Z</time>
      </trkpt>
      <trkpt lat="-22.130102" lon="-46.039938">
        <ele>1079.843</ele>
        <time>2019-10-14T16:54:14Z</time>
      </trkpt>
      <trkpt lat="-22.130017" lon="-46.039980">
        <ele>1078.885</ele>
        <time>2019-10-14T16:54:17Z</time>
      </trkpt>
      <trkpt lat="-22.129860" lon="-46.040049">
        <ele>1078.838</ele>
        <time>2019-10-14T16:54:21Z</time>
      </trkpt>
      <trkpt lat="-22.129814" lon="-46.040065">
        <ele>1079.023</ele>
        <time>2019-10-14T16:54:22Z</time>
      </trkpt>
      <trkpt lat="-22.129747" lon="-46.040085">
        <ele>1079.029</ele>
        <time>2019-10-14T16:54:25Z</time>
      </trkpt>
      <trkpt lat="-22.129711" lon="-46.040114">
        <ele>1078.826</ele>
        <time>2019-10-14T16:54:36Z</time>
      </trkpt>
      <trkpt lat="-22.129742" lon="-46.040154">
        <ele>1079.147</ele>
        <time>2019-10-14T16:55:06Z</time>
      </trkpt>
      <trkpt lat="-22.129715" lon="-46.040111">
        <ele>1079.411</ele>
        <time>2019-10-14T16:56:07Z</time>
      </trkpt>
      <trkpt lat="-22.129654" lon="-46.040112">
        <ele>1079.008</ele>
        <time>2019-10-14T16:58:01Z</time>
      </trkpt>
      <trkpt lat="-22.129595" lon="-46.040122">
        <ele>1079.086</ele>
        <time>2019-10-14T16:58:04Z</time>
      </trkpt>
      <trkpt lat="-22.129545" lon="-46.040123">
        <ele>1078.764</ele>
        <time>2019-10-14T16:58:05Z</time>
      </trkpt>
      <trkpt lat="-22.129479" lon="-46.040130">
        <ele>1078.146</ele>
        <time>2019-10-14T16:58:07Z</time>
      </trkpt>
      <trkpt lat="-22.128277" lon="-46.042195">
        <ele>1071.288</ele>
        <time>2019-10-14T16:58:58Z</time>
      </trkpt>
      <trkpt lat="-22.128262" lon="-46.042254">
        <ele>1073.110</ele>
        <time>2019-10-14T16:59:09Z</time>
      </trkpt>
      <trkpt lat="-22.128240" lon="-46.042328">
        <ele>1074.493</ele>
        <time>2019-10-14T16:59:15Z</time>
      </trkpt>
      <trkpt lat="-22.128227" lon="-46.042379">
        <ele>1075.498</ele>
        <time>2019-10-14T16:59:20Z</time>
      </trkpt>
      <trkpt lat="-22.128210" lon="-46.042439">
        <ele>1076.784</ele>
        <time>2019-10-14T16:59:27Z</time>
      </trkpt>
      <trkpt lat="-22.128196" lon="-46.042486">
        <ele>1078.431</ele>
        <time>2019-10-14T16:59:34Z</time>
      </trkpt>
      <trkpt lat="-22.128174" lon="-46.042540">
        <ele>1079.461</ele>
        <time>2019-10-14T16:59:41Z</time>
      </trkpt>
      <trkpt lat="-22.128163" lon="-46.042596">
        <ele>1081.207</ele>
        <time>2019-10-14T16:59:49Z</time>
      </trkpt>
      <trkpt lat="-22.128155" lon="-46.042651">
        <ele>1082.508</ele>
        <time>2019-10-14T16:59:55Z</time>
      </trkpt>
      <trkpt lat="-22.128153" lon="-46.042700">
        <ele>1083.247</ele>
        <time>2019-10-14T17:00:00Z</time>
      </trkpt>
      <trkpt lat="-22.128147" lon="-46.042751">
        <ele>1084.315</ele>
        <time>2019-10-14T17:00:06Z</time>
      </trkpt>
      <trkpt lat="-22.128135" lon="-46.042810">
        <ele>1085.247</ele>
        <time>2019-10-14T17:00:12Z</time>
      </trkpt>
      <trkpt lat="-22.128128" lon="-46.042863">
        <ele>1085.869</ele>
        <time>2019-10-14T17:00:16Z</time>
      </trkpt>
      <trkpt lat="-22.128126" lon="-46.042917">
        <ele>1087.161</ele>
        <time>2019-10-14T17:00:23Z</time>
      </trkpt>
      <trkpt lat="-22.128121" lon="-46.042966">
        <ele>1087.994</ele>
        <time>2019-10-14T17:00:26Z</time>
      </trkpt>
      <trkpt lat="-22.128127" lon="-46.043019">
        <ele>1088.629</ele>
        <time>2019-10-14T17:00:31Z</time>
      </trkpt>
      <trkpt lat="-22.128129" lon="-46.043070">
        <ele>1089.595</ele>
        <time>2019-10-14T17:00:36Z</time>
      </trkpt>
      <trkpt lat="-22.128134" lon="-46.043123">
        <ele>1090.319</ele>
        <time>2019-10-14T17:00:40Z</time>
      </trkpt>
      <trkpt lat="-22.128144" lon="-46.043172">
        <ele>1091.309</ele>
        <time>2019-10-14T17:00:45Z</time>
      </trkpt>
      <trkpt lat="-22.128158" lon="-46.043242">
        <ele>1092.519</ele>
        <time>2019-10-14T17:00:50Z</time>
      </trkpt>
      <trkpt lat="-22.128181" lon="-46.043313">
        <ele>1093.808</ele>
        <time>2019-10-14T17:00:59Z</time>
      </trkpt>
      <trkpt lat="-22.128188" lon="-46.043362">
        <ele>1095.365</ele>
        <time>2019-10-14T17:01:05Z</time>
      </trkpt>
      <trkpt lat="-22.128199" lon="-46.043415">
        <ele>1095.783</ele>
        <time>2019-10-14T17:01:11Z</time>
      </trkpt>
      <trkpt lat="-22.128215" lon="-46.043485">
        <ele>1096.455</ele>
        <time>2019-10-14T17:01:17Z</time>
      </trkpt>
      <trkpt lat="-22.128219" lon="-46.043611">
        <ele>1098.837</ele>
        <time>2019-10-14T17:01:31Z</time>
      </trkpt>
      <trkpt lat="-22.128214" lon="-46.043660">
        <ele>1099.469</ele>
        <time>2019-10-14T17:01:37Z</time>
      </trkpt>
      <trkpt lat="-22.128202" lon="-46.043717">
        <ele>1100.322</ele>
        <time>2019-10-14T17:01:44Z</time>
      </trkpt>
      <trkpt lat="-22.128186" lon="-46.043764">
        <ele>1101.417</ele>
        <time>2019-10-14T17:01:52Z</time>
      </trkpt>
      <trkpt lat="-22.128173" lon="-46.043813">
        <ele>1101.553</ele>
        <time>2019-10-14T17:01:55Z</time>
      </trkpt>
      <trkpt lat="-22.128160" lon="-46.043869">
        <ele>1102.945</ele>
        <time>2019-10-14T17:02:00Z</time>
      </trkpt>
      <trkpt lat="-22.128148" lon="-46.043920">
        <ele>1103.447</ele>
        <time>2019-10-14T17:02:03Z</time>
      </trkpt>
      <trkpt lat="-22.128125" lon="-46.043971">
        <ele>1104.111</ele>
        <time>2019-10-14T17:02:07Z</time>
      </trkpt>
      <trkpt lat="-22.128078" lon="-46.044033">
        <ele>1105.408</ele>
        <time>2019-10-14T17:02:13Z</time>
      </trkpt>
      <trkpt lat="-22.128037" lon="-46.044060">
        <ele>1105.938</ele>
        <time>2019-10-14T17:02:18Z</time>
      </trkpt>
      <trkpt lat="-22.127967" lon="-46.044085">
        <ele>1107.066</ele>
        <time>2019-10-14T17:02:25Z</time>
      </trkpt>
      <trkpt lat="-22.127916" lon="-46.044093">
        <ele>1108.078</ele>
        <time>2019-10-14T17:02:31Z</time>
      </trkpt>
      <trkpt lat="-22.127870" lon="-46.044105">
        <ele>1108.790</ele>
        <time>2019-10-14T17:02:35Z</time>
      </trkpt>
      <trkpt lat="-22.127824" lon="-46.044122">
        <ele>1109.272</ele>
        <time>2019-10-14T17:02:39Z</time>
      </trkpt>
      <trkpt lat="-22.127779" lon="-46.044134">
        <ele>1109.745</ele>
        <time>2019-10-14T17:02:42Z</time>
      </trkpt>
      <trkpt lat="-22.127729" lon="-46.044146">
        <ele>1110.580</ele>
        <time>2019-10-14T17:02:49Z</time>
      </trkpt>
      <trkpt lat="-22.127674" lon="-46.044146">
        <ele>1111.476</ele>
        <time>2019-10-14T17:02:55Z</time>
      </trkpt>
      <trkpt lat="-22.127619" lon="-46.044133">
        <ele>1112.355</ele>
        <time>2019-10-14T17:02:59Z</time>
      </trkpt>
      <trkpt lat="-22.127567" lon="-46.044120">
        <ele>1113.407</ele>
        <time>2019-10-14T17:03:06Z</time>
      </trkpt>
      <trkpt lat="-22.127508" lon="-46.044095">
        <ele>1114.017</ele>
        <time>2019-10-14T17:03:12Z</time>
      </trkpt>
      <trkpt lat="-22.127459" lon="-46.044068">
        <ele>1115.408</ele>
        <time>2019-10-14T17:03:19Z</time>
      </trkpt>
      <trkpt lat="-22.127399" lon="-46.044031">
        <ele>1116.819</ele>
        <time>2019-10-14T17:03:27Z</time>
      </trkpt>
      <trkpt lat="-22.127358" lon="-46.044010">
        <ele>1117.857</ele>
        <time>2019-10-14T17:03:31Z</time>
      </trkpt>
      <trkpt lat="-22.127310" lon="-46.043984">
        <ele>1119.219</ele>
        <time>2019-10-14T17:03:37Z</time>
      </trkpt>
      <trkpt lat="-22.127261" lon="-46.043955">
        <ele>1119.711</ele>
        <time>2019-10-14T17:03:43Z</time>
      </trkpt>
      <trkpt lat="-22.127215" lon="-46.043924">
        <ele>1120.923</ele>
        <time>2019-10-14T17:03:49Z</time>
      </trkpt>
      <trkpt lat="-22.127166" lon="-46.043876">
        <ele>1121.626</ele>
        <time>2019-10-14T17:03:55Z</time>
      </trkpt>
      <trkpt lat="-22.127126" lon="-46.043837">
        <ele>1122.241</ele>
        <time>2019-10-14T17:04:01Z</time>
      </trkpt>
      <trkpt lat="-22.127089" lon="-46.043805">
        <ele>1122.747</ele>
        <time>2019-10-14T17:04:05Z</time>
      </trkpt>
      <trkpt lat="-22.127049" lon="-46.043771">
        <ele>1123.572</ele>
        <time>2019-10-14T17:04:10Z</time>
      </trkpt>
      <trkpt lat="-22.127005" lon="-46.043735">
        <ele>1123.713</ele>
        <time>2019-10-14T17:04:13Z</time>
      </trkpt>
      <trkpt lat="-22.126963" lon="-46.043705">
        <ele>1124.414</ele>
        <time>2019-10-14T17:04:17Z</time>
      </trkpt>
      <trkpt lat="-22.126908" lon="-46.043677">
        <ele>1125.608</ele>
        <time>2019-10-14T17:04:22Z</time>
      </trkpt>
      <trkpt lat="-22.126859" lon="-46.043657">
        <ele>1126.171</ele>
        <time>2019-10-14T17:04:27Z</time>
      </trkpt>
      <trkpt lat="-22.126815" lon="-46.043643">
        <ele>1127.089</ele>
        <time>2019-10-14T17:04:32Z</time>
      </trkpt>
      <trkpt lat="-22.126757" lon="-46.043614">
        <ele>1127.691</ele>
        <time>2019-10-14T17:04:38Z</time>
      </trkpt>
      <trkpt lat="-22.126718" lon="-46.043583">
        <ele>1128.163</ele>
        <time>2019-10-14T17:04:43Z</time>
      </trkpt>
      <trkpt lat="-22.126684" lon="-46.043550">
        <ele>1128.695</ele>
        <time>2019-10-14T17:04:47Z</time>
      </trkpt>
      <trkpt lat="-22.126605" lon="-46.043448">
        <ele>1129.668</ele>
        <time>2019-10-14T17:05:13Z</time>
      </trkpt>
      <trkpt lat="-22.126578" lon="-46.043408">
        <ele>1130.363</ele>
        <time>2019-10-14T17:05:17Z</time>
      </trkpt>
      <trkpt lat="-22.126555" lon="-46.043364">
        <ele>1130.969</ele>
        <time>2019-10-14T17:05:20Z</time>
      </trkpt>
      <trkpt lat="-22.126525" lon="-46.043312">
        <ele>1131.236</ele>
        <time>2019-10-14T17:05:24Z</time>
      </trkpt>
      <trkpt lat="-22.126500" lon="-46.043266">
        <ele>1131.917</ele>
        <time>2019-10-14T17:05:29Z</time>
      </trkpt>
      <trkpt lat="-22.126493" lon="-46.043212">
        <ele>1132.418</ele>
        <time>2019-10-14T17:05:32Z</time>
      </trkpt>
      <trkpt lat="-22.126471" lon="-46.043159">
        <ele>1133.208</ele>
        <time>2019-10-14T17:05:37Z</time>
      </trkpt>
      <trkpt lat="-22.126444" lon="-46.043114">
        <ele>1133.867</ele>
        <time>2019-10-14T17:05:40Z</time>
      </trkpt>
      <trkpt lat="-22.126410" lon="-46.043076">
        <ele>1134.515</ele>
        <time>2019-10-14T17:05:43Z</time>
      </trkpt>
      <trkpt lat="-22.126380" lon="-46.043032">
        <ele>1134.947</ele>
        <time>2019-10-14T17:05:48Z</time>
      </trkpt>
      <trkpt lat="-22.126354" lon="-46.042990">
        <ele>1135.679</ele>
        <time>2019-10-14T17:05:53Z</time>
      </trkpt>
      <trkpt lat="-22.126328" lon="-46.042939">
        <ele>1136.491</ele>
        <time>2019-10-14T17:05:59Z</time>
      </trkpt>
      <trkpt lat="-22.126304" lon="-46.042884">
        <ele>1136.914</ele>
        <time>2019-10-14T17:06:04Z</time>
      </trkpt>
      <trkpt lat="-22.126283" lon="-46.042838">
        <ele>1137.379</ele>
        <time>2019-10-14T17:06:07Z</time>
      </trkpt>
      <trkpt lat="-22.126248" lon="-46.042777">
        <ele>1137.935</ele>
        <time>2019-10-14T17:06:12Z</time>
      </trkpt>
      <trkpt lat="-22.126206" lon="-46.042731">
        <ele>1138.995</ele>
        <time>2019-10-14T17:06:17Z</time>
      </trkpt>
      <trkpt lat="-22.126167" lon="-46.042699">
        <ele>1139.149</ele>
        <time>2019-10-14T17:06:21Z</time>
      </trkpt>
      <trkpt lat="-22.126132" lon="-46.042658">
        <ele>1139.823</ele>
        <time>2019-10-14T17:06:25Z</time>
      </trkpt>
      <trkpt lat="-22.126089" lon="-46.042623">
        <ele>1140.108</ele>
        <time>2019-10-14T17:06:28Z</time>
      </trkpt>
      <trkpt lat="-22.126043" lon="-46.042601">
        <ele>1140.393</ele>
        <time>2019-10-14T17:06:31Z</time>
      </trkpt>
      <trkpt lat="-22.126006" lon="-46.042571">
        <ele>1140.961</ele>
        <time>2019-10-14T17:06:36Z</time>
      </trkpt>
      <trkpt lat="-22.125971" lon="-46.042531">
        <ele>1141.443</ele>
        <time>2019-10-14T17:06:40Z</time>
      </trkpt>
      <trkpt lat="-22.125926" lon="-46.042504">
        <ele>1143.025</ele>
        <time>2019-10-14T17:07:03Z</time>
      </trkpt>
      <trkpt lat="-22.125860" lon="-46.042494">
        <ele>1144.077</ele>
        <time>2019-10-14T17:07:39Z</time>
      </trkpt>
      <trkpt lat="-22.125807" lon="-46.042476">
        <ele>1144.960</ele>
        <time>2019-10-14T17:07:44Z</time>
      </trkpt>
      <trkpt lat="-22.125748" lon="-46.042461">
        <ele>1145.715</ele>
        <time>2019-10-14T17:07:49Z</time>
      </trkpt>
      <trkpt lat="-22.125701" lon="-46.042459">
        <ele>1146.641</ele>
        <time>2019-10-14T17:07:55Z</time>
      </trkpt>
      <trkpt lat="-22.125634" lon="-46.042442">
        <ele>1147.293</ele>
        <time>2019-10-14T17:08:24Z</time>
      </trkpt>
      <trkpt lat="-22.125563" lon="-46.042459">
        <ele>1147.865</ele>
        <time>2019-10-14T17:08:38Z</time>
      </trkpt>
      <trkpt lat="-22.125515" lon="-46.042445">
        <ele>1148.221</ele>
        <time>2019-10-14T17:08:42Z</time>
      </trkpt>
      <trkpt lat="-22.125461" lon="-46.042445">
        <ele>1148.608</ele>
        <time>2019-10-14T17:08:46Z</time>
      </trkpt>
      <trkpt lat="-22.125421" lon="-46.042468">
        <ele>1148.783</ele>
        <time>2019-10-14T17:08:49Z</time>
      </trkpt>
      <trkpt lat="-22.125370" lon="-46.042494">
        <ele>1149.281</ele>
        <time>2019-10-14T17:08:55Z</time>
      </trkpt>
      <trkpt lat="-22.125309" lon="-46.042532">
        <ele>1149.593</ele>
        <time>2019-10-14T17:09:00Z</time>
      </trkpt>
      <trkpt lat="-22.125261" lon="-46.042552">
        <ele>1150.065</ele>
        <time>2019-10-14T17:09:04Z</time>
      </trkpt>
      <trkpt lat="-22.125215" lon="-46.042575">
        <ele>1150.757</ele>
        <time>2019-10-14T17:09:11Z</time>
      </trkpt>
      <trkpt lat="-22.125170" lon="-46.042598">
        <ele>1150.650</ele>
        <time>2019-10-14T17:09:13Z</time>
      </trkpt>
      <trkpt lat="-22.125120" lon="-46.042620">
        <ele>1150.935</ele>
        <time>2019-10-14T17:09:15Z</time>
      </trkpt>
      <trkpt lat="-22.125071" lon="-46.042631">
        <ele>1151.321</ele>
        <time>2019-10-14T17:09:19Z</time>
      </trkpt>
      <trkpt lat="-22.125020" lon="-46.042626">
        <ele>1151.827</ele>
        <time>2019-10-14T17:09:22Z</time>
      </trkpt>
      <trkpt lat="-22.124967" lon="-46.042630">
        <ele>1152.168</ele>
        <time>2019-10-14T17:09:27Z</time>
      </trkpt>
      <trkpt lat="-22.124911" lon="-46.042632">
        <ele>1152.714</ele>
        <time>2019-10-14T17:09:31Z</time>
      </trkpt>
      <trkpt lat="-22.124837" lon="-46.042647">
        <ele>1153.008</ele>
        <time>2019-10-14T17:09:36Z</time>
      </trkpt>
      <trkpt lat="-22.124791" lon="-46.042662">
        <ele>1153.616</ele>
        <time>2019-10-14T17:09:39Z</time>
      </trkpt>
      <trkpt lat="-22.124745" lon="-46.042692">
        <ele>1153.794</ele>
        <time>2019-10-14T17:09:42Z</time>
      </trkpt>
      <trkpt lat="-22.124697" lon="-46.042711">
        <ele>1154.086</ele>
        <time>2019-10-14T17:09:45Z</time>
      </trkpt>
      <trkpt lat="-22.124655" lon="-46.042741">
        <ele>1154.478</ele>
        <time>2019-10-14T17:09:51Z</time>
      </trkpt>
      <trkpt lat="-22.124607" lon="-46.042771">
        <ele>1154.920</ele>
        <time>2019-10-14T17:09:54Z</time>
      </trkpt>
      <trkpt lat="-22.124559" lon="-46.042810">
        <ele>1154.863</ele>
        <time>2019-10-14T17:09:57Z</time>
      </trkpt>
      <trkpt lat="-22.124513" lon="-46.042836">
        <ele>1155.538</ele>
        <time>2019-10-14T17:10:01Z</time>
      </trkpt>
      <trkpt lat="-22.124470" lon="-46.042864">
        <ele>1155.244</ele>
        <time>2019-10-14T17:10:03Z</time>
      </trkpt>
      <trkpt lat="-22.124428" lon="-46.042888">
        <ele>1156.156</ele>
        <time>2019-10-14T17:10:06Z</time>
      </trkpt>
      <trkpt lat="-22.124387" lon="-46.042915">
        <ele>1156.259</ele>
        <time>2019-10-14T17:10:09Z</time>
      </trkpt>
      <trkpt lat="-22.124350" lon="-46.042943">
        <ele>1156.614</ele>
        <time>2019-10-14T17:10:12Z</time>
      </trkpt>
      <trkpt lat="-22.124273" lon="-46.042980">
        <ele>1157.008</ele>
        <time>2019-10-14T17:10:18Z</time>
      </trkpt>
      <trkpt lat="-22.124227" lon="-46.043010">
        <ele>1157.589</ele>
        <time>2019-10-14T17:10:21Z</time>
      </trkpt>
      <trkpt lat="-22.124168" lon="-46.043041">
        <ele>1158.147</ele>
        <time>2019-10-14T17:10:25Z</time>
      </trkpt>
      <trkpt lat="-22.124123" lon="-46.043053">
        <ele>1158.749</ele>
        <time>2019-10-14T17:10:28Z</time>
      </trkpt>
      <trkpt lat="-22.124075" lon="-46.043058">
        <ele>1158.831</ele>
        <time>2019-10-14T17:10:32Z</time>
      </trkpt>
      <trkpt lat="-22.124030" lon="-46.043055">
        <ele>1159.193</ele>
        <time>2019-10-14T17:10:35Z</time>
      </trkpt>
      <trkpt lat="-22.123969" lon="-46.043048">
        <ele>1159.636</ele>
        <time>2019-10-14T17:10:38Z</time>
      </trkpt>
      <trkpt lat="-22.123896" lon="-46.043050">
        <ele>1160.221</ele>
        <time>2019-10-14T17:10:44Z</time>
      </trkpt>
      <trkpt lat="-22.123835" lon="-46.043045">
        <ele>1161.047</ele>
        <time>2019-10-14T17:10:49Z</time>
      </trkpt>
      <trkpt lat="-22.123766" lon="-46.043035">
        <ele>1161.812</ele>
        <time>2019-10-14T17:10:54Z</time>
      </trkpt>
      <trkpt lat="-22.123719" lon="-46.043016">
        <ele>1162.132</ele>
        <time>2019-10-14T17:10:57Z</time>
      </trkpt>
      <trkpt lat="-22.123662" lon="-46.042997">
        <ele>1162.205</ele>
        <time>2019-10-14T17:11:01Z</time>
      </trkpt>
      <trkpt lat="-22.123610" lon="-46.042982">
        <ele>1162.408</ele>
        <time>2019-10-14T17:11:05Z</time>
      </trkpt>
      <trkpt lat="-22.123563" lon="-46.042972">
        <ele>1162.915</ele>
        <time>2019-10-14T17:11:08Z</time>
      </trkpt>
      <trkpt lat="-22.123507" lon="-46.042989">
        <ele>1163.533</ele>
        <time>2019-10-14T17:11:12Z</time>
      </trkpt>
      <trkpt lat="-22.123471" lon="-46.042955">
        <ele>1165.395</ele>
        <time>2019-10-14T17:17:17Z</time>
      </trkpt>
      <trkpt lat="-22.123439" lon="-46.042910">
        <ele>1164.957</ele>
        <time>2019-10-14T17:18:22Z</time>
      </trkpt>
      <trkpt lat="-22.123404" lon="-46.042878">
        <ele>1165.049</ele>
        <time>2019-10-14T17:18:26Z</time>
      </trkpt>
      <trkpt lat="-22.123381" lon="-46.042828">
        <ele>1165.482</ele>
        <time>2019-10-14T17:18:31Z</time>
      </trkpt>
      <trkpt lat="-22.123335" lon="-46.042778">
        <ele>1165.487</ele>
        <time>2019-10-14T17:23:25Z</time>
      </trkpt>
      <trkpt lat="-22.123290" lon="-46.042747">
        <ele>1165.733</ele>
        <time>2019-10-14T17:23:28Z</time>
      </trkpt>
      <trkpt lat="-22.123242" lon="-46.042707">
        <ele>1165.745</ele>
        <time>2019-10-14T17:23:31Z</time>
      </trkpt>
      <trkpt lat="-22.123210" lon="-46.042670">
        <ele>1166.447</ele>
        <time>2019-10-14T17:23:35Z</time>
      </trkpt>
      <trkpt lat="-22.123148" lon="-46.042633">
        <ele>1166.611</ele>
        <time>2019-10-14T17:23:40Z</time>
      </trkpt>
      <trkpt lat="-22.123108" lon="-46.042606">
        <ele>1167.808</ele>
        <time>2019-10-14T17:23:45Z</time>
      </trkpt>
      <trkpt lat="-22.123062" lon="-46.042572">
        <ele>1168.648</ele>
        <time>2019-10-14T17:23:51Z</time>
      </trkpt>
      <trkpt lat="-22.123019" lon="-46.042543">
        <ele>1169.186</ele>
        <time>2019-10-14T17:23:55Z</time>
      </trkpt>
      <trkpt lat="-22.122946" lon="-46.042513">
        <ele>1170.948</ele>
        <time>2019-10-14T17:24:03Z</time>
      </trkpt>
      <trkpt lat="-22.122887" lon="-46.042480">
        <ele>1172.070</ele>
        <time>2019-10-14T17:24:10Z</time>
      </trkpt>
      <trkpt lat="-22.122838" lon="-46.042455">
        <ele>1172.812</ele>
        <time>2019-10-14T17:24:16Z</time>
      </trkpt>
      <trkpt lat="-22.122793" lon="-46.042434">
        <ele>1173.395</ele>
        <time>2019-10-14T17:24:23Z</time>
      </trkpt>
      <trkpt lat="-22.122753" lon="-46.042403">
        <ele>1173.970</ele>
        <time>2019-10-14T17:24:28Z</time>
      </trkpt>
      <trkpt lat="-22.122718" lon="-46.042365">
        <ele>1174.946</ele>
        <time>2019-10-14T17:24:33Z</time>
      </trkpt>
      <trkpt lat="-22.122685" lon="-46.042331">
        <ele>1175.423</ele>
        <time>2019-10-14T17:24:38Z</time>
      </trkpt>
      <trkpt lat="-22.122640" lon="-46.042282">
        <ele>1176.183</ele>
        <time>2019-10-14T17:24:44Z</time>
      </trkpt>
      <trkpt lat="-22.122596" lon="-46.042230">
        <ele>1177.411</ele>
        <time>2019-10-14T17:24:51Z</time>
      </trkpt>
      <trkpt lat="-22.122569" lon="-46.042191">
        <ele>1177.908</ele>
        <time>2019-10-14T17:24:55Z</time>
      </trkpt>
      <trkpt lat="-22.122541" lon="-46.042138">
        <ele>1178.996</ele>
        <time>2019-10-14T17:25:01Z</time>
      </trkpt>
      <trkpt lat="-22.122519" lon="-46.042086">
        <ele>1180.054</ele>
        <time>2019-10-14T17:25:07Z</time>
      </trkpt>
      <trkpt lat="-22.122495" lon="-46.042043">
        <ele>1180.616</ele>
        <time>2019-10-14T17:25:12Z</time>
      </trkpt>
      <trkpt lat="-22.122464" lon="-46.042003">
        <ele>1181.458</ele>
        <time>2019-10-14T17:25:18Z</time>
      </trkpt>
      <trkpt lat="-22.122430" lon="-46.041965">
        <ele>1182.590</ele>
        <time>2019-10-14T17:25:24Z</time>
      </trkpt>
      <trkpt lat="-22.122386" lon="-46.041924">
        <ele>1183.533</ele>
        <time>2019-10-14T17:25:31Z</time>
      </trkpt>
      <trkpt lat="-22.122322" lon="-46.041847">
        <ele>1185.058</ele>
        <time>2019-10-14T17:25:44Z</time>
      </trkpt>
      <trkpt lat="-22.122276" lon="-46.041775">
        <ele>1186.224</ele>
        <time>2019-10-14T17:25:52Z</time>
      </trkpt>
      <trkpt lat="-22.122255" lon="-46.041723">
        <ele>1187.664</ele>
        <time>2019-10-14T17:25:59Z</time>
      </trkpt>
      <trkpt lat="-22.122236" lon="-46.041668">
        <ele>1188.306</ele>
        <time>2019-10-14T17:26:05Z</time>
      </trkpt>
      <trkpt lat="-22.122214" lon="-46.041614">
        <ele>1189.716</ele>
        <time>2019-10-14T17:26:11Z</time>
      </trkpt>
      <trkpt lat="-22.122180" lon="-46.041572">
        <ele>1190.408</ele>
        <time>2019-10-14T17:26:17Z</time>
      </trkpt>
      <trkpt lat="-22.122129" lon="-46.041526">
        <ele>1191.770</ele>
        <time>2019-10-14T17:26:22Z</time>
      </trkpt>
      <trkpt lat="-22.122089" lon="-46.041498">
        <ele>1192.658</ele>
        <time>2019-10-14T17:26:27Z</time>
      </trkpt>
      <trkpt lat="-22.122045" lon="-46.041472">
        <ele>1193.320</ele>
        <time>2019-10-14T17:26:33Z</time>
      </trkpt>
      <trkpt lat="-22.122006" lon="-46.041445">
        <ele>1194.142</ele>
        <time>2019-10-14T17:26:37Z</time>
      </trkpt>
      <trkpt lat="-22.121961" lon="-46.041414">
        <ele>1195.054</ele>
        <time>2019-10-14T17:26:41Z</time>
      </trkpt>
      <trkpt lat="-22.121900" lon="-46.041380">
        <ele>1196.427</ele>
        <time>2019-10-14T17:26:49Z</time>
      </trkpt>
      <trkpt lat="-22.121854" lon="-46.041369">
        <ele>1197.672</ele>
        <time>2019-10-14T17:26:57Z</time>
      </trkpt>
      <trkpt lat="-22.121805" lon="-46.041358">
        <ele>1198.768</ele>
        <time>2019-10-14T17:27:03Z</time>
      </trkpt>
      <trkpt lat="-22.121740" lon="-46.041352">
        <ele>1199.865</ele>
        <time>2019-10-14T17:27:10Z</time>
      </trkpt>
      <trkpt lat="-22.121693" lon="-46.041344">
        <ele>1200.668</ele>
        <time>2019-10-14T17:27:15Z</time>
      </trkpt>
      <trkpt lat="-22.121645" lon="-46.041330">
        <ele>1201.014</ele>
        <time>2019-10-14T17:27:19Z</time>
      </trkpt>
      <trkpt lat="-22.121600" lon="-46.041310">
        <ele>1201.808</ele>
        <time>2019-10-14T17:27:25Z</time>
      </trkpt>
      <trkpt lat="-22.121560" lon="-46.041283">
        <ele>1202.680</ele>
        <time>2019-10-14T17:27:32Z</time>
      </trkpt>
      <trkpt lat="-22.121514" lon="-46.041255">
        <ele>1203.958</ele>
        <time>2019-10-14T17:27:37Z</time>
      </trkpt>
      <trkpt lat="-22.121474" lon="-46.041233">
        <ele>1204.630</ele>
        <time>2019-10-14T17:27:42Z</time>
      </trkpt>
      <trkpt lat="-22.121418" lon="-46.041202">
        <ele>1205.942</ele>
        <time>2019-10-14T17:27:51Z</time>
      </trkpt>
      <trkpt lat="-22.121372" lon="-46.041174">
        <ele>1206.424</ele>
        <time>2019-10-14T17:27:56Z</time>
      </trkpt>
      <trkpt lat="-22.121331" lon="-46.041149">
        <ele>1207.057</ele>
        <time>2019-10-14T17:28:02Z</time>
      </trkpt>
      <trkpt lat="-22.121290" lon="-46.041122">
        <ele>1207.822</ele>
        <time>2019-10-14T17:28:08Z</time>
      </trkpt>
      <trkpt lat="-22.121247" lon="-46.041089">
        <ele>1208.898</ele>
        <time>2019-10-14T17:28:11Z</time>
      </trkpt>
      <trkpt lat="-22.121192" lon="-46.041061">
        <ele>1209.259</ele>
        <time>2019-10-14T17:28:16Z</time>
      </trkpt>
      <trkpt lat="-22.121150" lon="-46.041028">
        <ele>1209.703</ele>
        <time>2019-10-14T17:28:31Z</time>
      </trkpt>
      <trkpt lat="-22.121107" lon="-46.040989">
        <ele>1210.323</ele>
        <time>2019-10-14T17:28:40Z</time>
      </trkpt>
      <trkpt lat="-22.121069" lon="-46.040955">
        <ele>1210.908</ele>
        <time>2019-10-14T17:28:45Z</time>
      </trkpt>
      <trkpt lat="-22.121034" lon="-46.040910">
        <ele>1211.319</ele>
        <time>2019-10-14T17:28:50Z</time>
      </trkpt>
      <trkpt lat="-22.121007" lon="-46.040855">
        <ele>1211.947</ele>
        <time>2019-10-14T17:28:54Z</time>
      </trkpt>
      <trkpt lat="-22.120959" lon="-46.040817">
        <ele>1212.269</ele>
        <time>2019-10-14T17:28:57Z</time>
      </trkpt>
      <trkpt lat="-22.120897" lon="-46.040791">
        <ele>1212.761</ele>
        <time>2019-10-14T17:29:00Z</time>
      </trkpt>
      <trkpt lat="-22.120857" lon="-46.040766">
        <ele>1213.293</ele>
        <time>2019-10-14T17:29:03Z</time>
      </trkpt>
      <trkpt lat="-22.120817" lon="-46.040739">
        <ele>1214.156</ele>
        <time>2019-10-14T17:29:07Z</time>
      </trkpt>
      <trkpt lat="-22.120757" lon="-46.040725">
        <ele>1214.561</ele>
        <time>2019-10-14T17:29:11Z</time>
      </trkpt>
      <trkpt lat="-22.120714" lon="-46.040690">
        <ele>1215.037</ele>
        <time>2019-10-14T17:29:14Z</time>
      </trkpt>
      <trkpt lat="-22.120661" lon="-46.040650">
        <ele>1216.088</ele>
        <time>2019-10-14T17:29:18Z</time>
      </trkpt>
      <trkpt lat="-22.120620" lon="-46.040607">
        <ele>1216.524</ele>
        <time>2019-10-14T17:29:22Z</time>
      </trkpt>
      <trkpt lat="-22.120598" lon="-46.040562">
        <ele>1217.426</ele>
        <time>2019-10-14T17:29:25Z</time>
      </trkpt>
      <trkpt lat="-22.120585" lon="-46.040513">
        <ele>1217.508</ele>
        <time>2019-10-14T17:30:00Z</time>
      </trkpt>
      <trkpt lat="-22.120597" lon="-46.040449">
        <ele>1217.632</ele>
        <time>2019-10-14T17:30:04Z</time>
      </trkpt>
      <trkpt lat="-22.120588" lon="-46.040394">
        <ele>1218.510</ele>
        <time>2019-10-14T17:30:07Z</time>
      </trkpt>
      <trkpt lat="-22.120567" lon="-46.040330">
        <ele>1219.082</ele>
        <time>2019-10-14T17:30:12Z</time>
      </trkpt>
      <trkpt lat="-22.120560" lon="-46.040277">
        <ele>1219.684</ele>
        <time>2019-10-14T17:30:15Z</time>
      </trkpt>
      <trkpt lat="-22.120560" lon="-46.040212">
        <ele>1220.686</ele>
        <time>2019-10-14T17:30:19Z</time>
      </trkpt>
      <trkpt lat="-22.120529" lon="-46.040160">
        <ele>1221.099</ele>
        <time>2019-10-14T17:30:21Z</time>
      </trkpt>
      <trkpt lat="-22.120520" lon="-46.040109">
        <ele>1221.764</ele>
        <time>2019-10-14T17:30:26Z</time>
      </trkpt>
      <trkpt lat="-22.120532" lon="-46.040061">
        <ele>1222.140</ele>
        <time>2019-10-14T17:30:29Z</time>
      </trkpt>
      <trkpt lat="-22.120577" lon="-46.040015">
        <ele>1222.481</ele>
        <time>2019-10-14T17:30:32Z</time>
      </trkpt>
      <trkpt lat="-22.120607" lon="-46.039975">
        <ele>1222.461</ele>
        <time>2019-10-14T17:30:35Z</time>
      </trkpt>
      <trkpt lat="-22.120609" lon="-46.039909">
        <ele>1222.717</ele>
        <time>2019-10-14T17:30:38Z</time>
      </trkpt>
      <trkpt lat="-22.120606" lon="-46.039845">
        <ele>1222.608</ele>
        <time>2019-10-14T17:30:42Z</time>
      </trkpt>
      <trkpt lat="-22.120590" lon="-46.039786">
        <ele>1223.192</ele>
        <time>2019-10-14T17:30:45Z</time>
      </trkpt>
      <trkpt lat="-22.120576" lon="-46.039738">
        <ele>1223.810</ele>
        <time>2019-10-14T17:30:49Z</time>
      </trkpt>
      <trkpt lat="-22.120550" lon="-46.039692">
        <ele>1224.072</ele>
        <time>2019-10-14T17:30:55Z</time>
      </trkpt>
      <trkpt lat="-22.120513" lon="-46.039650">
        <ele>1224.874</ele>
        <time>2019-10-14T17:31:00Z</time>
      </trkpt>
      <trkpt lat="-22.120434" lon="-46.039612">
        <ele>1225.956</ele>
        <time>2019-10-14T17:31:09Z</time>
      </trkpt>
      <trkpt lat="-22.120381" lon="-46.039602">
        <ele>1226.799</ele>
        <time>2019-10-14T17:31:12Z</time>
      </trkpt>
      <trkpt lat="-22.120330" lon="-46.039593">
        <ele>1227.144</ele>
        <time>2019-10-14T17:31:15Z</time>
      </trkpt>
      <trkpt lat="-22.120262" lon="-46.039588">
        <ele>1227.770</ele>
        <time>2019-10-14T17:31:17Z</time>
      </trkpt>
      <trkpt lat="-22.120216" lon="-46.039595">
        <ele>1228.285</ele>
        <time>2019-10-14T17:31:20Z</time>
      </trkpt>
      <trkpt lat="-22.120168" lon="-46.039599">
        <ele>1229.489</ele>
        <time>2019-10-14T17:31:25Z</time>
      </trkpt>
      <trkpt lat="-22.120112" lon="-46.039592">
        <ele>1230.617</ele>
        <time>2019-10-14T17:31:29Z</time>
      </trkpt>
      <trkpt lat="-22.120065" lon="-46.039599">
        <ele>1231.708</ele>
        <time>2019-10-14T17:31:35Z</time>
      </trkpt>
      <trkpt lat="-22.120003" lon="-46.039646">
        <ele>1232.522</ele>
        <time>2019-10-14T17:31:57Z</time>
      </trkpt>
      <trkpt lat="-22.119967" lon="-46.039696">
        <ele>1234.250</ele>
        <time>2019-10-14T17:32:33Z</time>
      </trkpt>
      <trkpt lat="-22.119917" lon="-46.039724">
        <ele>1236.182</ele>
        <time>2019-10-14T17:32:43Z</time>
      </trkpt>
      <trkpt lat="-22.119868" lon="-46.039769">
        <ele>1237.894</ele>
        <time>2019-10-14T17:32:49Z</time>
      </trkpt>
      <trkpt lat="-22.119839" lon="-46.039819">
        <ele>1238.376</ele>
        <time>2019-10-14T17:32:52Z</time>
      </trkpt>
      <trkpt lat="-22.119809" lon="-46.039856">
        <ele>1239.459</ele>
        <time>2019-10-14T17:32:56Z</time>
      </trkpt>
      <trkpt lat="-22.119754" lon="-46.039887">
        <ele>1239.814</ele>
        <time>2019-10-14T17:32:59Z</time>
      </trkpt>
      <trkpt lat="-22.119693" lon="-46.039890">
        <ele>1240.630</ele>
        <time>2019-10-14T17:33:01Z</time>
      </trkpt>
      <trkpt lat="-22.119647" lon="-46.039891">
        <ele>1241.269</ele>
        <time>2019-10-14T17:33:03Z</time>
      </trkpt>
      <trkpt lat="-22.119603" lon="-46.039916">
        <ele>1242.104</ele>
        <time>2019-10-14T17:33:10Z</time>
      </trkpt>
      <trkpt lat="-22.119551" lon="-46.039919">
        <ele>1242.924</ele>
        <time>2019-10-14T17:33:15Z</time>
      </trkpt>
      <trkpt lat="-22.119493" lon="-46.039756">
        <ele>1244.108</ele>
        <time>2019-10-14T17:35:51Z</time>
      </trkpt>
      <trkpt lat="-22.119452" lon="-46.039731">
        <ele>1244.410</ele>
        <time>2019-10-14T17:35:53Z</time>
      </trkpt>
      <trkpt lat="-22.119404" lon="-46.039721">
        <ele>1244.858</ele>
        <time>2019-10-14T17:35:57Z</time>
      </trkpt>
      <trkpt lat="-22.119364" lon="-46.039699">
        <ele>1245.780</ele>
        <time>2019-10-14T17:35:59Z</time>
      </trkpt>
      <trkpt lat="-22.119319" lon="-46.039665">
        <ele>1246.182</ele>
        <time>2019-10-14T17:36:04Z</time>
      </trkpt>
      <trkpt lat="-22.119269" lon="-46.039637">
        <ele>1247.254</ele>
        <time>2019-10-14T17:36:09Z</time>
      </trkpt>
      <trkpt lat="-22.119227" lon="-46.039611">
        <ele>1247.927</ele>
        <time>2019-10-14T17:36:14Z</time>
      </trkpt>
      <trkpt lat="-22.119191" lon="-46.039571">
        <ele>1248.382</ele>
        <time>2019-10-14T17:36:19Z</time>
      </trkpt>
      <trkpt lat="-22.119153" lon="-46.039522">
        <ele>1249.288</ele>
        <time>2019-10-14T17:36:25Z</time>
      </trkpt>
      <trkpt lat="-22.119124" lon="-46.039463">
        <ele>1250.014</ele>
        <time>2019-10-14T17:36:31Z</time>
      </trkpt>
      <trkpt lat="-22.119094" lon="-46.039421">
        <ele>1250.554</ele>
        <time>2019-10-14T17:36:35Z</time>
      </trkpt>
      <trkpt lat="-22.119064" lon="-46.039383">
        <ele>1251.009</ele>
        <time>2019-10-14T17:36:39Z</time>
      </trkpt>
      <trkpt lat="-22.119024" lon="-46.039332">
        <ele>1251.608</ele>
        <time>2019-10-14T17:36:45Z</time>
      </trkpt>
      <trkpt lat="-22.118991" lon="-46.039252">
        <ele>1251.885</ele>
        <time>2019-10-14T17:36:51Z</time>
      </trkpt>
      <trkpt lat="-22.118977" lon="-46.039198">
        <ele>1252.733</ele>
        <time>2019-10-14T17:36:55Z</time>
      </trkpt>
      <trkpt lat="-22.118963" lon="-46.039142">
        <ele>1253.345</ele>
        <time>2019-10-14T17:37:01Z</time>
      </trkpt>
      <trkpt lat="-22.118943" lon="-46.039096">
        <ele>1253.587</ele>
        <time>2019-10-14T17:37:05Z</time>
      </trkpt>
      <trkpt lat="-22.118914" lon="-46.039023">
        <ele>1254.689</ele>
        <time>2019-10-14T17:37:13Z</time>
      </trkpt>
      <trkpt lat="-22.118889" lon="-46.038963">
        <ele>1255.372</ele>
        <time>2019-10-14T17:37:20Z</time>
      </trkpt>
      <trkpt lat="-22.118855" lon="-46.038918">
        <ele>1256.387</ele>
        <time>2019-10-14T17:37:25Z</time>
      </trkpt>
      <trkpt lat="-22.118823" lon="-46.038872">
        <ele>1256.673</ele>
        <time>2019-10-14T17:37:30Z</time>
      </trkpt>
      <trkpt lat="-22.118802" lon="-46.038823">
        <ele>1257.363</ele>
        <time>2019-10-14T17:37:34Z</time>
      </trkpt>
      <trkpt lat="-22.118775" lon="-46.038763">
        <ele>1258.244</ele>
        <time>2019-10-14T17:37:40Z</time>
      </trkpt>
      <trkpt lat="-22.118749" lon="-46.038719">
        <ele>1259.418</ele>
        <time>2019-10-14T17:37:46Z</time>
      </trkpt>
      <trkpt lat="-22.118722" lon="-46.038663">
        <ele>1260.308</ele>
        <time>2019-10-14T17:37:51Z</time>
      </trkpt>
      <trkpt lat="-22.118700" lon="-46.038619">
        <ele>1260.860</ele>
        <time>2019-10-14T17:37:55Z</time>
      </trkpt>
      <trkpt lat="-22.118676" lon="-46.038564">
        <ele>1261.858</ele>
        <time>2019-10-14T17:38:00Z</time>
      </trkpt>
      <trkpt lat="-22.118652" lon="-46.038509">
        <ele>1262.840</ele>
        <time>2019-10-14T17:38:04Z</time>
      </trkpt>
      <trkpt lat="-22.118619" lon="-46.038439">
        <ele>1264.072</ele>
        <time>2019-10-14T17:38:12Z</time>
      </trkpt>
      <trkpt lat="-22.118606" lon="-46.038386">
        <ele>1264.924</ele>
        <time>2019-10-14T17:38:17Z</time>
      </trkpt>
      <trkpt lat="-22.118590" lon="-46.038339">
        <ele>1265.787</ele>
        <time>2019-10-14T17:38:22Z</time>
      </trkpt>
      <trkpt lat="-22.118570" lon="-46.038290">
        <ele>1266.372</ele>
        <time>2019-10-14T17:38:27Z</time>
      </trkpt>
      <trkpt lat="-22.118541" lon="-46.038234">
        <ele>1267.178</ele>
        <time>2019-10-14T17:38:33Z</time>
      </trkpt>
      <trkpt lat="-22.118508" lon="-46.038187">
        <ele>1267.919</ele>
        <time>2019-10-14T17:38:37Z</time>
      </trkpt>
      <trkpt lat="-22.118467" lon="-46.038128">
        <ele>1268.509</ele>
        <time>2019-10-14T17:38:42Z</time>
      </trkpt>
      <trkpt lat="-22.118431" lon="-46.038086">
        <ele>1268.619</ele>
        <time>2019-10-14T17:38:43Z</time>
      </trkpt>
      <trkpt lat="-22.118395" lon="-46.038056">
        <ele>1268.908</ele>
        <time>2019-10-14T17:38:46Z</time>
      </trkpt>
      <trkpt lat="-22.118337" lon="-46.038027">
        <ele>1270.175</ele>
        <time>2019-10-14T17:38:52Z</time>
      </trkpt>
      <trkpt lat="-22.118271" lon="-46.038030">
        <ele>1270.853</ele>
        <time>2019-10-14T17:38:55Z</time>
      </trkpt>
      <trkpt lat="-22.118222" lon="-46.038035">
        <ele>1271.615</ele>
        <time>2019-10-14T17:38:59Z</time>
      </trkpt>
      <trkpt lat="-22.118160" lon="-46.038047">
        <ele>1272.627</ele>
        <time>2019-10-14T17:39:08Z</time>
      </trkpt>
      <trkpt lat="-22.118106" lon="-46.038062">
        <ele>1273.369</ele>
        <time>2019-10-14T17:39:14Z</time>
      </trkpt>
      <trkpt lat="-22.118061" lon="-46.038072">
        <ele>1273.662</ele>
        <time>2019-10-14T17:39:18Z</time>
      </trkpt>
      <trkpt lat="-22.118015" lon="-46.038055">
        <ele>1273.617</ele>
        <time>2019-10-14T17:39:22Z</time>
      </trkpt>
      <trkpt lat="-22.117919" lon="-46.038111">
        <ele>1274.153</ele>
        <time>2019-10-14T17:41:57Z</time>
      </trkpt>
      <trkpt lat="-22.117878" lon="-46.038132">
        <ele>1274.061</ele>
        <time>2019-10-14T17:42:01Z</time>
      </trkpt>
      <trkpt lat="-22.117818" lon="-46.038160">
        <ele>1273.721</ele>
        <time>2019-10-14T17:42:04Z</time>
      </trkpt>
      <trkpt lat="-22.117768" lon="-46.038175">
        <ele>1273.213</ele>
        <time>2019-10-14T17:42:05Z</time>
      </trkpt>
      <trkpt lat="-22.117712" lon="-46.038191">
        <ele>1273.408</ele>
        <time>2019-10-14T17:42:08Z</time>
      </trkpt>
      <trkpt lat="-22.117661" lon="-46.038207">
        <ele>1273.590</ele>
        <time>2019-10-14T17:42:09Z</time>
      </trkpt>
      <trkpt lat="-22.117614" lon="-46.038220">
        <ele>1273.478</ele>
        <time>2019-10-14T17:42:12Z</time>
      </trkpt>
      <trkpt lat="-22.117561" lon="-46.038227">
        <ele>1273.770</ele>
        <time>2019-10-14T17:42:39Z</time>
      </trkpt>
      <trkpt lat="-22.117495" lon="-46.038251">
        <ele>1272.862</ele>
        <time>2019-10-14T17:42:44Z</time>
      </trkpt>
      <trkpt lat="-22.117446" lon="-46.038257">
        <ele>1271.734</ele>
        <time>2019-10-14T17:42:47Z</time>
      </trkpt>
      <trkpt lat="-22.117396" lon="-46.038270">
        <ele>1271.367</ele>
        <time>2019-10-14T17:42:48Z</time>
      </trkpt>
      <trkpt lat="-22.117342" lon="-46.038281">
        <ele>1271.222</ele>
        <time>2019-10-14T17:42:50Z</time>
      </trkpt>
      <trkpt lat="-22.117283" lon="-46.038293">
        <ele>1270.498</ele>
        <time>2019-10-14T17:42:52Z</time>
      </trkpt>
      <trkpt lat="-22.115421" lon="-46.038246">
        <ele>1268.424</ele>
        <time>2019-10-14T17:43:23Z</time>
      </trkpt>
      <trkpt lat="-22.115320" lon="-46.038220">
        <ele>1269.004</ele>
        <time>2019-10-14T17:43:26Z</time>
      </trkpt>
      <trkpt lat="-22.115267" lon="-46.038203">
        <ele>1269.114</ele>
        <time>2019-10-14T17:43:27Z</time>
      </trkpt>
      <trkpt lat="-22.115216" lon="-46.038192">
        <ele>1269.508</ele>
        <time>2019-10-14T17:43:29Z</time>
      </trkpt>
      <trkpt lat="-22.115153" lon="-46.038181">
        <ele>1270.056</ele>
        <time>2019-10-14T17:43:31Z</time>
      </trkpt>
      <trkpt lat="-22.115093" lon="-46.038182">
        <ele>1270.234</ele>
        <time>2019-10-14T17:43:34Z</time>
      </trkpt>
      <trkpt lat="-22.115048" lon="-46.038184">
        <ele>1270.316</ele>
        <time>2019-10-14T17:43:35Z</time>
      </trkpt>
      <trkpt lat="-22.114992" lon="-46.038183">
        <ele>1270.438</ele>
        <time>2019-10-14T17:43:37Z</time>
      </trkpt>
      <trkpt lat="-22.114900" lon="-46.038157">
        <ele>1270.420</ele>
        <time>2019-10-14T17:43:41Z</time>
      </trkpt>
      <trkpt lat="-22.114841" lon="-46.038143">
        <ele>1270.273</ele>
        <time>2019-10-14T17:43:42Z</time>
      </trkpt>
      <trkpt lat="-22.114739" lon="-46.038104">
        <ele>1270.098</ele>
        <time>2019-10-14T17:43:45Z</time>
      </trkpt>
      <trkpt lat="-22.114686" lon="-46.038083">
        <ele>1270.054</ele>
        <time>2019-10-14T17:43:47Z</time>
      </trkpt>
      <trkpt lat="-22.114628" lon="-46.038068">
        <ele>1270.041</ele>
        <time>2019-10-14T17:43:49Z</time>
      </trkpt>
      <trkpt lat="-22.112932" lon="-46.038253">
        <ele>1271.081</ele>
        <time>2019-10-14T17:44:25Z</time>
      </trkpt>
      <trkpt lat="-22.112887" lon="-46.038268">
        <ele>1271.909</ele>
        <time>2019-10-14T17:44:27Z</time>
      </trkpt>
      <trkpt lat="-22.112841" lon="-46.038278">
        <ele>1272.208</ele>
        <time>2019-10-14T17:44:29Z</time>
      </trkpt>
      <trkpt lat="-22.112788" lon="-46.038290">
        <ele>1272.948</ele>
        <time>2019-10-14T17:44:30Z</time>
      </trkpt>
      <trkpt lat="-22.112728" lon="-46.038301">
        <ele>1273.026</ele>
        <time>2019-10-14T17:44:32Z</time>
      </trkpt>
      <trkpt lat="-22.112661" lon="-46.038308">
        <ele>1273.728</ele>
        <time>2019-10-14T17:44:34Z</time>
      </trkpt>
      <trkpt lat="-22.112607" lon="-46.038320">
        <ele>1273.760</ele>
        <time>2019-10-14T17:44:36Z</time>
      </trkpt>
      <trkpt lat="-22.112553" lon="-46.038335">
        <ele>1273.892</ele>
        <time>2019-10-14T17:44:38Z</time>
      </trkpt>
      <trkpt lat="-22.112473" lon="-46.038353">
        <ele>1273.235</ele>
        <time>2019-10-14T17:44:42Z</time>
      </trkpt>
      <trkpt lat="-22.112425" lon="-46.038361">
        <ele>1273.180</ele>
        <time>2019-10-14T17:44:44Z</time>
      </trkpt>
      <trkpt lat="-22.107747" lon="-46.038710">
        <ele>1237.336</ele>
        <time>2019-10-14T17:46:11Z</time>
      </trkpt>
      <trkpt lat="-22.107723" lon="-46.038651">
        <ele>1237.114</ele>
        <time>2019-10-14T17:46:14Z</time>
      </trkpt>
      <trkpt lat="-22.107703" lon="-46.038588">
        <ele>1237.954</ele>
        <time>2019-10-14T17:46:15Z</time>
      </trkpt>
      <trkpt lat="-22.107680" lon="-46.038535">
        <ele>1238.209</ele>
        <time>2019-10-14T17:46:18Z</time>
      </trkpt>
      <trkpt lat="-22.107659" lon="-46.038488">
        <ele>1238.608</ele>
        <time>2019-10-14T17:46:20Z</time>
      </trkpt>
      <trkpt lat="-22.107628" lon="-46.038444">
        <ele>1238.765</ele>
        <time>2019-10-14T17:46:22Z</time>
      </trkpt>
      <trkpt lat="-22.107596" lon="-46.038398">
        <ele>1238.773</ele>
        <time>2019-10-14T17:46:25Z</time>
      </trkpt>
      <trkpt lat="-22.107556" lon="-46.038358">
        <ele>1239.575</ele>
        <time>2019-10-14T17:46:26Z</time>
      </trkpt>
      <trkpt lat="-22.107514" lon="-46.038316">
        <ele>1239.437</ele>
        <time>2019-10-14T17:46:29Z</time>
      </trkpt>
      <trkpt lat="-22.107475" lon="-46.038267">
        <ele>1240.149</ele>
        <time>2019-10-14T17:46:32Z</time>
      </trkpt>
      <trkpt lat="-22.107438" lon="-46.038216">
        <ele>1240.532</ele>
        <time>2019-10-14T17:46:35Z</time>
      </trkpt>
      <trkpt lat="-22.107399" lon="-46.038169">
        <ele>1241.237</ele>
        <time>2019-10-14T17:46:38Z</time>
      </trkpt>
      <trkpt lat="-22.107360" lon="-46.038139">
        <ele>1241.533</ele>
        <time>2019-10-14T17:46:40Z</time>
      </trkpt>
      <trkpt lat="-22.107318" lon="-46.038116">
        <ele>1241.878</ele>
        <time>2019-10-14T17:46:42Z</time>
      </trkpt>
      <trkpt lat="-22.107275" lon="-46.038101">
        <ele>1242.433</ele>
        <time>2019-10-14T17:46:46Z</time>
      </trkpt>
      <trkpt lat="-22.107218" lon="-46.038071">
        <ele>1243.426</ele>
        <time>2019-10-14T17:46:52Z</time>
      </trkpt>
      <trkpt lat="-22.107174" lon="-46.038058">
        <ele>1243.708</ele>
        <time>2019-10-14T17:46:56Z</time>
      </trkpt>
      <trkpt lat="-22.107117" lon="-46.038042">
        <ele>1244.321</ele>
        <time>2019-10-14T17:47:00Z</time>
      </trkpt>
      <trkpt lat="-22.107070" lon="-46.038031">
        <ele>1245.219</ele>
        <time>2019-10-14T17:47:05Z</time>
      </trkpt>
      <trkpt lat="-22.107017" lon="-46.038020">
        <ele>1246.361</ele>
        <time>2019-10-14T17:47:09Z</time>
      </trkpt>
      <trkpt lat="-22.106972" lon="-46.038007">
        <ele>1246.563</ele>
        <time>2019-10-14T17:47:12Z</time>
      </trkpt>
      <trkpt lat="-22.106897" lon="-46.038001">
        <ele>1247.715</ele>
        <time>2019-10-14T17:47:18Z</time>
      </trkpt>
      <trkpt lat="-22.106841" lon="-46.038008">
        <ele>1248.748</ele>
        <time>2019-10-14T17:47:24Z</time>
      </trkpt>
      <trkpt lat="-22.106789" lon="-46.038008">
        <ele>1248.973</ele>
        <time>2019-10-14T17:47:26Z</time>
      </trkpt>
      <trkpt lat="-22.106735" lon="-46.038005">
        <ele>1249.519</ele>
        <time>2019-10-14T17:47:31Z</time>
      </trkpt>
      <trkpt lat="-22.106680" lon="-46.038005">
        <ele>1250.445</ele>
        <time>2019-10-14T17:47:35Z</time>
      </trkpt>
      <trkpt lat="-22.106635" lon="-46.038006">
        <ele>1251.247</ele>
        <time>2019-10-14T17:47:37Z</time>
      </trkpt>
      <trkpt lat="-22.106571" lon="-46.038009">
        <ele>1251.511</ele>
        <time>2019-10-14T17:47:39Z</time>
      </trkpt>
      <trkpt lat="-22.106515" lon="-46.038010">
        <ele>1251.808</ele>
        <time>2019-10-14T17:47:42Z</time>
      </trkpt>
      <trkpt lat="-22.106445" lon="-46.038018">
        <ele>1252.628</ele>
        <time>2019-10-14T17:47:48Z</time>
      </trkpt>
      <trkpt lat="-22.106390" lon="-46.038038">
        <ele>1253.386</ele>
        <time>2019-10-14T17:47:54Z</time>
      </trkpt>
      <trkpt lat="-22.106347" lon="-46.038058">
        <ele>1254.338</ele>
        <time>2019-10-14T17:47:59Z</time>
      </trkpt>
      <trkpt lat="-22.106295" lon="-46.038086">
        <ele>1254.960</ele>
        <time>2019-10-14T17:48:03Z</time>
      </trkpt>
      <trkpt lat="-22.106229" lon="-46.038148">
        <ele>1255.472</ele>
        <time>2019-10-14T17:48:07Z</time>
      </trkpt>
      <trkpt lat="-22.106189" lon="-46.038180">
        <ele>1255.785</ele>
        <time>2019-10-14T17:48:10Z</time>
      </trkpt>
      <trkpt lat="-22.106144" lon="-46.038212">
        <ele>1256.360</ele>
        <time>2019-10-14T17:48:12Z</time>
      </trkpt>
      <trkpt lat="-22.106105" lon="-46.038244">
        <ele>1256.546</ele>
        <time>2019-10-14T17:48:15Z</time>
      </trkpt>
      <trkpt lat="-22.106054" lon="-46.038271">
        <ele>1257.427</ele>
        <time>2019-10-14T17:48:19Z</time>
      </trkpt>
      <trkpt lat="-22.106004" lon="-46.038298">
        <ele>1258.468</ele>
        <time>2019-10-14T17:48:24Z</time>
      </trkpt>
      <trkpt lat="-22.105956" lon="-46.038329">
        <ele>1258.714</ele>
        <time>2019-10-14T17:48:28Z</time>
      </trkpt>
      <trkpt lat="-22.105915" lon="-46.038360">
        <ele>1259.808</ele>
        <time>2019-10-14T17:48:31Z</time>
      </trkpt>
      <trkpt lat="-22.105864" lon="-46.038385">
        <ele>1260.526</ele>
        <time>2019-10-14T17:48:35Z</time>
      </trkpt>
      <trkpt lat="-22.105817" lon="-46.038421">
        <ele>1261.054</ele>
        <time>2019-10-14T17:48:40Z</time>
      </trkpt>
      <trkpt lat="-22.105768" lon="-46.038451">
        <ele>1261.996</ele>
        <time>2019-10-14T17:48:44Z</time>
      </trkpt>
      <trkpt lat="-22.105726" lon="-46.038476">
        <ele>1262.188</ele>
        <time>2019-10-14T17:48:46Z</time>
      </trkpt>
      <trkpt lat="-22.105685" lon="-46.038496">
        <ele>1262.890</ele>
        <time>2019-10-14T17:48:49Z</time>
      </trkpt>
      <trkpt lat="-22.105643" lon="-46.038517">
        <ele>1263.133</ele>
        <time>2019-10-14T17:48:52Z</time>
      </trkpt>
      <trkpt lat="-22.105601" lon="-46.038550">
        <ele>1263.818</ele>
        <time>2019-10-14T17:48:57Z</time>
      </trkpt>
      <trkpt lat="-22.105545" lon="-46.038589">
        <ele>1264.474</ele>
        <time>2019-10-14T17:49:01Z</time>
      </trkpt>
      <trkpt lat="-22.105496" lon="-46.038620">
        <ele>1265.044</ele>
        <time>2019-10-14T17:49:05Z</time>
      </trkpt>
      <trkpt lat="-22.105443" lon="-46.038646">
        <ele>1265.505</ele>
        <time>2019-10-14T17:49:09Z</time>
      </trkpt>
      <trkpt lat="-22.105399" lon="-46.038674">
        <ele>1265.915</ele>
        <time>2019-10-14T17:49:12Z</time>
      </trkpt>
      <trkpt lat="-22.105360" lon="-46.038731">
        <ele>1266.208</ele>
        <time>2019-10-14T17:50:29Z</time>
      </trkpt>
      <trkpt lat="-22.105328" lon="-46.038777">
        <ele>1266.588</ele>
        <time>2019-10-14T17:50:33Z</time>
      </trkpt>
      <trkpt lat="-22.105288" lon="-46.038817">
        <ele>1266.596</ele>
        <time>2019-10-14T17:50:36Z</time>
      </trkpt>
      <trkpt lat="-22.105257" lon="-46.038859">
        <ele>1267.318</ele>
        <time>2019-10-14T17:50:52Z</time>
      </trkpt>
      <trkpt lat="-22.105297" lon="-46.038912">
        <ele>1267.950</ele>
        <time>2019-10-14T17:51:01Z</time>
      </trkpt>
      <trkpt lat="-22.105336" lon="-46.038945">
        <ele>1268.792</ele>
        <time>2019-10-14T17:51:04Z</time>
      </trkpt>
      <trkpt lat="-22.105377" lon="-46.038995">
        <ele>1269.425</ele>
        <time>2019-10-14T17:51:08Z</time>
      </trkpt>
      <trkpt lat="-22.105402" lon="-46.039036">
        <ele>1270.080</ele>
        <time>2019-10-14T17:51:12Z</time>
      </trkpt>
      <trkpt lat="-22.105431" lon="-46.039089">
        <ele>1271.056</ele>
        <time>2019-10-14T17:51:16Z</time>
      </trkpt>
      <trkpt lat="-22.105461" lon="-46.039142">
        <ele>1271.656</ele>
        <time>2019-10-14T17:51:20Z</time>
      </trkpt>
      <trkpt lat="-22.105499" lon="-46.039210">
        <ele>1272.659</ele>
        <time>2019-10-14T17:51:25Z</time>
      </trkpt>
      <trkpt lat="-22.105533" lon="-46.039262">
        <ele>1272.914</ele>
        <time>2019-10-14T17:51:29Z</time>
      </trkpt>
      <trkpt lat="-22.105565" lon="-46.039307">
        <ele>1274.108</ele>
        <time>2019-10-14T17:51:33Z</time>
      </trkpt>
      <trkpt lat="-22.105596" lon="-46.039344">
        <ele>1274.149</ele>
        <time>2019-10-14T17:51:37Z</time>
      </trkpt>
      <trkpt lat="-22.105619" lon="-46.039386">
        <ele>1275.377</ele>
        <time>2019-10-14T17:51:41Z</time>
      </trkpt>
      <trkpt lat="-22.105649" lon="-46.039424">
        <ele>1275.259</ele>
        <time>2019-10-14T17:51:44Z</time>
      </trkpt>
      <trkpt lat="-22.105679" lon="-46.039476">
        <ele>1275.961</ele>
        <time>2019-10-14T17:51:48Z</time>
      </trkpt>
      <trkpt lat="-22.105709" lon="-46.039524">
        <ele>1276.413</ele>
        <time>2019-10-14T17:51:51Z</time>
      </trkpt>
      <trkpt lat="-22.105735" lon="-46.039565">
        <ele>1276.726</ele>
        <time>2019-10-14T17:51:54Z</time>
      </trkpt>
      <trkpt lat="-22.105769" lon="-46.039604">
        <ele>1277.421</ele>
        <time>2019-10-14T17:51:57Z</time>
      </trkpt>
      <trkpt lat="-22.105809" lon="-46.039638">
        <ele>1277.777</ele>
        <time>2019-10-14T17:52:02Z</time>
      </trkpt>
      <trkpt lat="-22.105848" lon="-46.039680">
        <ele>1277.881</ele>
        <time>2019-10-14T17:52:07Z</time>
      </trkpt>
      <trkpt lat="-22.105908" lon="-46.039661">
        <ele>1278.061</ele>
        <time>2019-10-14T17:52:11Z</time>
      </trkpt>
      <trkpt lat="-22.105939" lon="-46.039608">
        <ele>1277.617</ele>
        <time>2019-10-14T17:52:14Z</time>
      </trkpt>
      <trkpt lat="-22.105943" lon="-46.039549">
        <ele>1277.208</ele>
        <time>2019-10-14T17:52:17Z</time>
      </trkpt>
      <trkpt lat="-22.105898" lon="-46.039557">
        <ele>1280.912</ele>
        <time>2019-10-14T18:10:54Z</time>
      </trkpt>
      <trkpt lat="-22.105832" lon="-46.039584">
        <ele>1281.010</ele>
        <time>2019-10-14T18:10:59Z</time>
      </trkpt>
      <trkpt lat="-22.105782" lon="-46.039592">
        <ele>1280.442</ele>
        <time>2019-10-14T18:11:01Z</time>
      </trkpt>
      <trkpt lat="-22.105740" lon="-46.039571">
        <ele>1280.214</ele>
        <time>2019-10-14T18:11:03Z</time>
      </trkpt>
      <trkpt lat="-22.105690" lon="-46.039509">
        <ele>1279.456</ele>
        <time>2019-10-14T18:11:06Z</time>
      </trkpt>
      <trkpt lat="-22.105653" lon="-46.039467">
        <ele>1278.669</ele>
        <time>2019-10-14T18:11:07Z</time>
      </trkpt>
      <trkpt lat="-22.105620" lon="-46.039432">
        <ele>1278.414</ele>
        <time>2019-10-14T18:11:09Z</time>
      </trkpt>
      <trkpt lat="-22.105550" lon="-46.039308">
        <ele>1277.550</ele>
        <time>2019-10-14T18:11:11Z</time>
      </trkpt>
      <trkpt lat="-22.105433" lon="-46.039110">
        <ele>1274.722</ele>
        <time>2019-10-14T18:11:17Z</time>
      </trkpt>
      <trkpt lat="-22.105405" lon="-46.039068">
        <ele>1274.662</ele>
        <time>2019-10-14T18:11:18Z</time>
      </trkpt>
      <trkpt lat="-22.105365" lon="-46.038992">
        <ele>1273.608</ele>
        <time>2019-10-14T18:11:20Z</time>
      </trkpt>
      <trkpt lat="-22.105328" lon="-46.038936">
        <ele>1273.008</ele>
        <time>2019-10-14T18:11:23Z</time>
      </trkpt>
      <trkpt lat="-22.104380" lon="-46.039232">
        <ele>1272.126</ele>
        <time>2019-10-14T18:11:46Z</time>
      </trkpt>
      <trkpt lat="-22.104318" lon="-46.039286">
        <ele>1273.414</ele>
        <time>2019-10-14T18:11:49Z</time>
      </trkpt>
      <trkpt lat="-22.104246" lon="-46.039326">
        <ele>1273.716</ele>
        <time>2019-10-14T18:11:52Z</time>
      </trkpt>
      <trkpt lat="-22.104201" lon="-46.039358">
        <ele>1274.278</ele>
        <time>2019-10-14T18:11:54Z</time>
      </trkpt>
      <trkpt lat="-22.104148" lon="-46.039402">
        <ele>1274.330</ele>
        <time>2019-10-14T18:11:57Z</time>
      </trkpt>
      <trkpt lat="-22.104114" lon="-46.039435">
        <ele>1274.493</ele>
        <time>2019-10-14T18:11:59Z</time>
      </trkpt>
      <trkpt lat="-22.104069" lon="-46.039484">
        <ele>1274.648</ele>
        <time>2019-10-14T18:12:01Z</time>
      </trkpt>
      <trkpt lat="-22.104019" lon="-46.039539">
        <ele>1274.634</ele>
        <time>2019-10-14T18:12:03Z</time>
      </trkpt>
      <trkpt lat="-22.103980" lon="-46.039581">
        <ele>1274.591</ele>
        <time>2019-10-14T18:12:05Z</time>
      </trkpt>
      <trkpt lat="-22.103927" lon="-46.039635">
        <ele>1274.981</ele>
        <time>2019-10-14T18:12:08Z</time>
      </trkpt>
      <trkpt lat="-22.103889" lon="-46.039669">
        <ele>1275.619</ele>
        <time>2019-10-14T18:12:10Z</time>
      </trkpt>
      <trkpt lat="-22.103843" lon="-46.039702">
        <ele>1275.808</ele>
        <time>2019-10-14T18:12:12Z</time>
      </trkpt>
      <trkpt lat="-22.103791" lon="-46.039734">
        <ele>1276.313</ele>
        <time>2019-10-14T18:12:14Z</time>
      </trkpt>
      <trkpt lat="-22.103755" lon="-46.039775">
        <ele>1276.871</ele>
        <time>2019-10-14T18:12:17Z</time>
      </trkpt>
      <trkpt lat="-22.103713" lon="-46.039807">
        <ele>1277.223</ele>
        <time>2019-10-14T18:12:21Z</time>
      </trkpt>
      <trkpt lat="-22.103659" lon="-46.039844">
        <ele>1277.595</ele>
        <time>2019-10-14T18:12:24Z</time>
      </trkpt>
      <trkpt lat="-22.103614" lon="-46.039878">
        <ele>1278.237</ele>
        <time>2019-10-14T18:12:27Z</time>
      </trkpt>
      <trkpt lat="-22.103567" lon="-46.039921">
        <ele>1278.610</ele>
        <time>2019-10-14T18:12:30Z</time>
      </trkpt>
      <trkpt lat="-22.103515" lon="-46.039946">
        <ele>1278.615</ele>
        <time>2019-10-14T18:12:32Z</time>
      </trkpt>
      <trkpt lat="-22.103472" lon="-46.039972">
        <ele>1279.151</ele>
        <time>2019-10-14T18:12:35Z</time>
      </trkpt>
      <trkpt lat="-22.103425" lon="-46.039988">
        <ele>1279.743</ele>
        <time>2019-10-14T18:12:38Z</time>
      </trkpt>
      <trkpt lat="-22.103377" lon="-46.040001">
        <ele>1280.064</ele>
        <time>2019-10-14T18:12:42Z</time>
      </trkpt>
      <trkpt lat="-22.103329" lon="-46.040012">
        <ele>1280.110</ele>
        <time>2019-10-14T18:12:45Z</time>
      </trkpt>
      <trkpt lat="-22.103281" lon="-46.040024">
        <ele>1280.608</ele>
        <time>2019-10-14T18:12:47Z</time>
      </trkpt>
      <trkpt lat="-22.103229" lon="-46.040027">
        <ele>1280.988</ele>
        <time>2019-10-14T18:12:50Z</time>
      </trkpt>
      <trkpt lat="-22.103183" lon="-46.040026">
        <ele>1280.636</ele>
        <time>2019-10-14T18:12:51Z</time>
      </trkpt>
      <trkpt lat="-22.103137" lon="-46.040029">
        <ele>1280.688</ele>
        <time>2019-10-14T18:12:54Z</time>
      </trkpt>
      <trkpt lat="-22.103080" lon="-46.040033">
        <ele>1280.890</ele>
        <time>2019-10-14T18:12:56Z</time>
      </trkpt>
      <trkpt lat="-22.103032" lon="-46.040045">
        <ele>1281.122</ele>
        <time>2019-10-14T18:12:59Z</time>
      </trkpt>
      <trkpt lat="-22.102979" lon="-46.040065">
        <ele>1281.575</ele>
        <time>2019-10-14T18:13:02Z</time>
      </trkpt>
      <trkpt lat="-22.102921" lon="-46.040076">
        <ele>1281.940</ele>
        <time>2019-10-14T18:13:04Z</time>
      </trkpt>
      <trkpt lat="-22.102854" lon="-46.040081">
        <ele>1282.216</ele>
        <time>2019-10-14T18:13:06Z</time>
      </trkpt>
      <trkpt lat="-22.102804" lon="-46.040079">
        <ele>1282.456</ele>
        <time>2019-10-14T18:13:09Z</time>
      </trkpt>
      <trkpt lat="-22.102753" lon="-46.040073">
        <ele>1282.859</ele>
        <time>2019-10-14T18:13:12Z</time>
      </trkpt>
      <trkpt lat="-22.102704" lon="-46.040062">
        <ele>1282.914</ele>
        <time>2019-10-14T18:13:14Z</time>
      </trkpt>
      <trkpt lat="-22.102648" lon="-46.040049">
        <ele>1283.008</ele>
        <time>2019-10-14T18:13:17Z</time>
      </trkpt>
      <trkpt lat="-22.102599" lon="-46.040038">
        <ele>1282.929</ele>
        <time>2019-10-14T18:13:20Z</time>
      </trkpt>
      <trkpt lat="-22.102547" lon="-46.040030">
        <ele>1283.017</ele>
        <time>2019-10-14T18:13:23Z</time>
      </trkpt>
      <trkpt lat="-22.102503" lon="-46.040018">
        <ele>1283.169</ele>
        <time>2019-10-14T18:13:25Z</time>
      </trkpt>
      <trkpt lat="-22.102463" lon="-46.039996">
        <ele>1283.571</ele>
        <time>2019-10-14T18:13:27Z</time>
      </trkpt>
      <trkpt lat="-22.102418" lon="-46.039981">
        <ele>1283.523</ele>
        <time>2019-10-14T18:13:30Z</time>
      </trkpt>
      <trkpt lat="-22.102355" lon="-46.039964">
        <ele>1284.166</ele>
        <time>2019-10-14T18:13:34Z</time>
      </trkpt>
      <trkpt lat="-22.102308" lon="-46.039945">
        <ele>1284.071</ele>
        <time>2019-10-14T18:13:36Z</time>
      </trkpt>
      <trkpt lat="-22.102259" lon="-46.039914">
        <ele>1283.967</ele>
        <time>2019-10-14T18:13:39Z</time>
      </trkpt>
      <trkpt lat="-22.102213" lon="-46.039890">
        <ele>1284.078</ele>
        <time>2019-10-14T18:13:41Z</time>
      </trkpt>
      <trkpt lat="-22.102173" lon="-46.039866">
        <ele>1284.333</ele>
        <time>2019-10-14T18:13:44Z</time>
      </trkpt>
      <trkpt lat="-22.102117" lon="-46.039838">
        <ele>1284.526</ele>
        <time>2019-10-14T18:13:46Z</time>
      </trkpt>
      <trkpt lat="-22.102070" lon="-46.039821">
        <ele>1284.608</ele>
        <time>2019-10-14T18:13:48Z</time>
      </trkpt>
      <trkpt lat="-22.102028" lon="-46.039800">
        <ele>1285.141</ele>
        <time>2019-10-14T18:13:51Z</time>
      </trkpt>
      <trkpt lat="-22.101979" lon="-46.039784">
        <ele>1285.759</ele>
        <time>2019-10-14T18:13:54Z</time>
      </trkpt>
      <trkpt lat="-22.101933" lon="-46.039769">
        <ele>1286.751</ele>
        <time>2019-10-14T18:14:00Z</time>
      </trkpt>
      <trkpt lat="-22.101888" lon="-46.039762">
        <ele>1287.253</ele>
        <time>2019-10-14T18:14:04Z</time>
      </trkpt>
      <trkpt lat="-22.101836" lon="-46.039767">
        <ele>1288.145</ele>
        <time>2019-10-14T18:14:08Z</time>
      </trkpt>
      <trkpt lat="-22.101777" lon="-46.039768">
        <ele>1288.658</ele>
        <time>2019-10-14T18:14:14Z</time>
      </trkpt>
      <trkpt lat="-22.101720" lon="-46.039773">
        <ele>1290.223</ele>
        <time>2019-10-14T18:14:24Z</time>
      </trkpt>
      <trkpt lat="-22.101642" lon="-46.039784">
        <ele>1291.479</ele>
        <time>2019-10-14T18:14:33Z</time>
      </trkpt>
      <trkpt lat="-22.101588" lon="-46.039791">
        <ele>1291.787</ele>
        <time>2019-10-14T18:14:38Z</time>
      </trkpt>
      <trkpt lat="-22.101519" lon="-46.039799">
        <ele>1292.442</ele>
        <time>2019-10-14T18:14:45Z</time>
      </trkpt>
      <trkpt lat="-22.101457" lon="-46.039803">
        <ele>1293.026</ele>
        <time>2019-10-14T18:14:52Z</time>
      </trkpt>
      <trkpt lat="-22.101412" lon="-46.039806">
        <ele>1293.908</ele>
        <time>2019-10-14T18:14:56Z</time>
      </trkpt>
      <trkpt lat="-22.101364" lon="-46.039811">
        <ele>1294.572</ele>
        <time>2019-10-14T18:15:00Z</time>
      </trkpt>
      <trkpt lat="-22.101294" lon="-46.039814">
        <ele>1295.360</ele>
        <time>2019-10-14T18:15:06Z</time>
      </trkpt>
      <trkpt lat="-22.101208" lon="-46.039865">
        <ele>1296.722</ele>
        <time>2019-10-14T18:15:13Z</time>
      </trkpt>
      <trkpt lat="-22.101166" lon="-46.039886">
        <ele>1297.594</ele>
        <time>2019-10-14T18:15:18Z</time>
      </trkpt>
      <trkpt lat="-22.101091" lon="-46.039925">
        <ele>1298.016</ele>
        <time>2019-10-14T18:15:24Z</time>
      </trkpt>
      <trkpt lat="-22.101016" lon="-46.039957">
        <ele>1299.289</ele>
        <time>2019-10-14T18:15:30Z</time>
      </trkpt>
      <trkpt lat="-22.100968" lon="-46.039972">
        <ele>1299.744</ele>
        <time>2019-10-14T18:15:37Z</time>
      </trkpt>
      <trkpt lat="-22.100915" lon="-46.039981">
        <ele>1300.680</ele>
        <time>2019-10-14T18:15:43Z</time>
      </trkpt>
      <trkpt lat="-22.100860" lon="-46.039985">
        <ele>1301.445</ele>
        <time>2019-10-14T18:15:48Z</time>
      </trkpt>
      <trkpt lat="-22.100799" lon="-46.039988">
        <ele>1302.247</ele>
        <time>2019-10-14T18:15:53Z</time>
      </trkpt>
      <trkpt lat="-22.100747" lon="-46.039988">
        <ele>1303.111</ele>
        <time>2019-10-14T18:15:59Z</time>
      </trkpt>
      <trkpt lat="-22.100699" lon="-46.039980">
        <ele>1303.608</ele>
        <time>2019-10-14T18:16:04Z</time>
      </trkpt>
      <trkpt lat="-22.100619" lon="-46.039966">
        <ele>1304.598</ele>
        <time>2019-10-14T18:16:10Z</time>
      </trkpt>
      <trkpt lat="-22.100567" lon="-46.039957">
        <ele>1305.386</ele>
        <time>2019-10-14T18:16:17Z</time>
      </trkpt>
      <trkpt lat="-22.100511" lon="-46.039940">
        <ele>1306.188</ele>
        <time>2019-10-14T18:16:23Z</time>
      </trkpt>
      <trkpt lat="-22.100461" lon="-46.039929">
        <ele>1306.830</ele>
        <time>2019-10-14T18:16:28Z</time>
      </trkpt>
      <trkpt lat="-22.100397" lon="-46.039912">
        <ele>1307.972</ele>
        <time>2019-10-14T18:16:33Z</time>
      </trkpt>
      <trkpt lat="-22.100326" lon="-46.039896">
        <ele>1308.235</ele>
        <time>2019-10-14T18:16:35Z</time>
      </trkpt>
      <trkpt lat="-22.100276" lon="-46.039880">
        <ele>1308.740</ele>
        <time>2019-10-14T18:16:38Z</time>
      </trkpt>
      <trkpt lat="-22.100230" lon="-46.039869">
        <ele>1309.026</ele>
        <time>2019-10-14T18:16:40Z</time>
      </trkpt>
      <trkpt lat="-22.100172" lon="-46.039859">
        <ele>1309.827</ele>
        <time>2019-10-14T18:16:45Z</time>
      </trkpt>
      <trkpt lat="-22.100129" lon="-46.039835">
        <ele>1310.568</ele>
        <time>2019-10-14T18:16:50Z</time>
      </trkpt>
      <trkpt lat="-22.100060" lon="-46.039808">
        <ele>1310.814</ele>
        <time>2019-10-14T18:16:53Z</time>
      </trkpt>
      <trkpt lat="-22.099998" lon="-46.039784">
        <ele>1311.008</ele>
        <time>2019-10-14T18:16:56Z</time>
      </trkpt>
      <trkpt lat="-22.099945" lon="-46.039770">
        <ele>1311.156</ele>
        <time>2019-10-14T18:16:59Z</time>
      </trkpt>
      <trkpt lat="-22.099885" lon="-46.039747">
        <ele>1311.394</ele>
        <time>2019-10-14T18:17:02Z</time>
      </trkpt>
      <trkpt lat="-22.099838" lon="-46.039727">
        <ele>1311.766</ele>
        <time>2019-10-14T18:17:04Z</time>
      </trkpt>
      <trkpt lat="-22.099792" lon="-46.039705">
        <ele>1312.038</ele>
        <time>2019-10-14T18:17:07Z</time>
      </trkpt>
      <trkpt lat="-22.099740" lon="-46.039670">
        <ele>1312.520</ele>
        <time>2019-10-14T18:17:10Z</time>
      </trkpt>
      <trkpt lat="-22.099697" lon="-46.039643">
        <ele>1312.753</ele>
        <time>2019-10-14T18:17:12Z</time>
      </trkpt>
      <trkpt lat="-22.099649" lon="-46.039620">
        <ele>1312.878</ele>
        <time>2019-10-14T18:17:14Z</time>
      </trkpt>
      <trkpt lat="-22.099603" lon="-46.039587">
        <ele>1312.964</ele>
        <time>2019-10-14T18:17:17Z</time>
      </trkpt>
      <trkpt lat="-22.099529" lon="-46.039537">
        <ele>1312.998</ele>
        <time>2019-10-14T18:17:20Z</time>
      </trkpt>
      <trkpt lat="-22.099461" lon="-46.039502">
        <ele>1313.215</ele>
        <time>2019-10-14T18:17:23Z</time>
      </trkpt>
      <trkpt lat="-22.099414" lon="-46.039492">
        <ele>1313.326</ele>
        <time>2019-10-14T18:17:25Z</time>
      </trkpt>
      <trkpt lat="-22.099334" lon="-46.039491">
        <ele>1313.608</ele>
        <time>2019-10-14T18:17:29Z</time>
      </trkpt>
      <trkpt lat="-22.099284" lon="-46.039491">
        <ele>1313.883</ele>
        <time>2019-10-14T18:17:31Z</time>
      </trkpt>
      <trkpt lat="-22.099237" lon="-46.039488">
        <ele>1314.761</ele>
        <time>2019-10-14T18:17:33Z</time>
      </trkpt>
      <trkpt lat="-22.099169" lon="-46.039492">
        <ele>1314.943</ele>
        <time>2019-10-14T18:17:37Z</time>
      </trkpt>
      <trkpt lat="-22.099116" lon="-46.039512">
        <ele>1315.335</ele>
        <time>2019-10-14T18:17:40Z</time>
      </trkpt>
      <trkpt lat="-22.099072" lon="-46.039535">
        <ele>1315.977</ele>
        <time>2019-10-14T18:17:44Z</time>
      </trkpt>
      <trkpt lat="-22.099028" lon="-46.039546">
        <ele>1316.780</ele>
        <time>2019-10-14T18:17:47Z</time>
      </trkpt>
      <trkpt lat="-22.098974" lon="-46.039572">
        <ele>1317.585</ele>
        <time>2019-10-14T18:17:50Z</time>
      </trkpt>
      <trkpt lat="-22.098901" lon="-46.039602">
        <ele>1318.581</ele>
        <time>2019-10-14T18:17:56Z</time>
      </trkpt>
      <trkpt lat="-22.098856" lon="-46.039609">
        <ele>1319.232</ele>
        <time>2019-10-14T18:18:00Z</time>
      </trkpt>
      <trkpt lat="-22.098791" lon="-46.039609">
        <ele>1319.492</ele>
        <time>2019-10-14T18:18:02Z</time>
      </trkpt>
      <trkpt lat="-22.098746" lon="-46.039610">
        <ele>1319.511</ele>
        <time>2019-10-14T18:18:03Z</time>
      </trkpt>
      <trkpt lat="-22.098681" lon="-46.039612">
        <ele>1319.608</ele>
        <time>2019-10-14T18:18:07Z</time>
      </trkpt>
      <trkpt lat="-22.098634" lon="-46.039609">
        <ele>1319.657</ele>
        <time>2019-10-14T18:18:08Z</time>
      </trkpt>
      <trkpt lat="-22.098570" lon="-46.039595">
        <ele>1319.415</ele>
        <time>2019-10-14T18:18:11Z</time>
      </trkpt>
      <trkpt lat="-22.098513" lon="-46.039573">
        <ele>1319.267</ele>
        <time>2019-10-14T18:18:15Z</time>
      </trkpt>
      <trkpt lat="-22.098458" lon="-46.039555">
        <ele>1318.769</ele>
        <time>2019-10-14T18:18:17Z</time>
      </trkpt>
      <trkpt lat="-22.098361" lon="-46.039517">
        <ele>1318.261</ele>
        <time>2019-10-14T18:18:21Z</time>
      </trkpt>
      <trkpt lat="-22.098299" lon="-46.039496">
        <ele>1318.134</ele>
        <time>2019-10-14T18:18:22Z</time>
      </trkpt>
      <trkpt lat="-22.097162" lon="-46.038904">
        <ele>1313.619</ele>
        <time>2019-10-14T18:18:49Z</time>
      </trkpt>
      <trkpt lat="-22.097098" lon="-46.038874">
        <ele>1313.565</ele>
        <time>2019-10-14T18:18:51Z</time>
      </trkpt>
      <trkpt lat="-22.097051" lon="-46.038852">
        <ele>1313.175</ele>
        <time>2019-10-14T18:18:52Z</time>
      </trkpt>
      <trkpt lat="-22.096983" lon="-46.038823">
        <ele>1312.428</ele>
        <time>2019-10-14T18:18:54Z</time>
      </trkpt>
      <trkpt lat="-22.096619" lon="-46.038661">
        <ele>1310.220</ele>
        <time>2019-10-14T18:19:01Z</time>
      </trkpt>
      <trkpt lat="-22.093788" lon="-46.037380">
        <ele>1285.408</ele>
        <time>2019-10-14T18:20:54Z</time>
      </trkpt>
      <trkpt lat="-22.093817" lon="-46.037306">
        <ele>1284.971</ele>
        <time>2019-10-14T18:20:57Z</time>
      </trkpt>
      <trkpt lat="-22.093840" lon="-46.037236">
        <ele>1284.519</ele>
        <time>2019-10-14T18:20:59Z</time>
      </trkpt>
      <trkpt lat="-22.093866" lon="-46.037172">
        <ele>1283.781</ele>
        <time>2019-10-14T18:21:01Z</time>
      </trkpt>
      <trkpt lat="-22.094002" lon="-46.036761">
        <ele>1282.353</ele>
        <time>2019-10-14T18:21:10Z</time>
      </trkpt>
      <trkpt lat="-22.094042" lon="-46.036664">
        <ele>1282.455</ele>
        <time>2019-10-14T18:21:12Z</time>
      </trkpt>
      <trkpt lat="-22.094063" lon="-46.036576">
        <ele>1282.388</ele>
        <time>2019-10-14T18:21:15Z</time>
      </trkpt>
      <trkpt lat="-22.094181" lon="-46.034094">
        <ele>1268.813</ele>
        <time>2019-10-14T18:22:24Z</time>
      </trkpt>
      <trkpt lat="-22.094126" lon="-46.034023">
        <ele>1269.519</ele>
        <time>2019-10-14T18:22:27Z</time>
      </trkpt>
      <trkpt lat="-22.094064" lon="-46.033946">
        <ele>1270.172</ele>
        <time>2019-10-14T18:22:32Z</time>
      </trkpt>
      <trkpt lat="-22.094018" lon="-46.033893">
        <ele>1270.413</ele>
        <time>2019-10-14T18:22:36Z</time>
      </trkpt>
      <trkpt lat="-22.093965" lon="-46.033856">
        <ele>1270.614</ele>
        <time>2019-10-14T18:22:39Z</time>
      </trkpt>
      <trkpt lat="-22.093917" lon="-46.033797">
        <ele>1271.308</ele>
        <time>2019-10-14T18:22:43Z</time>
      </trkpt>
      <trkpt lat="-22.093893" lon="-46.033752">
        <ele>1271.441</ele>
        <time>2019-10-14T18:23:41Z</time>
      </trkpt>
      <trkpt lat="-22.093860" lon="-46.033711">
        <ele>1271.479</ele>
        <time>2019-10-14T18:23:43Z</time>
      </trkpt>
      <trkpt lat="-22.093828" lon="-46.033662">
        <ele>1271.371</ele>
        <time>2019-10-14T18:23:46Z</time>
      </trkpt>
      <trkpt lat="-22.093791" lon="-46.033622">
        <ele>1272.243</ele>
        <time>2019-10-14T18:23:49Z</time>
      </trkpt>
      <trkpt lat="-22.093747" lon="-46.033573">
        <ele>1272.945</ele>
        <time>2019-10-14T18:23:52Z</time>
      </trkpt>
      <trkpt lat="-22.093710" lon="-46.033534">
        <ele>1273.218</ele>
        <time>2019-10-14T18:23:55Z</time>
      </trkpt>
      <trkpt lat="-22.093669" lon="-46.033504">
        <ele>1273.213</ele>
        <time>2019-10-14T18:23:58Z</time>
      </trkpt>
      <trkpt lat="-22.093603" lon="-46.033454">
        <ele>1273.649</ele>
        <time>2019-10-14T18:24:02Z</time>
      </trkpt>
      <trkpt lat="-22.093558" lon="-46.033407">
        <ele>1273.542</ele>
        <time>2019-10-14T18:24:04Z</time>
      </trkpt>
      <trkpt lat="-22.093523" lon="-46.033361">
        <ele>1273.822</ele>
        <time>2019-10-14T18:24:07Z</time>
      </trkpt>
      <trkpt lat="-22.093491" lon="-46.033302">
        <ele>1274.214</ele>
        <time>2019-10-14T18:24:10Z</time>
      </trkpt>
      <trkpt lat="-22.093473" lon="-46.033251">
        <ele>1274.608</ele>
        <time>2019-10-14T18:24:12Z</time>
      </trkpt>
      <trkpt lat="-22.093455" lon="-46.033202">
        <ele>1274.918</ele>
        <time>2019-10-14T18:24:14Z</time>
      </trkpt>
      <trkpt lat="-22.093434" lon="-46.033145">
        <ele>1275.066</ele>
        <time>2019-10-14T18:24:17Z</time>
      </trkpt>
      <trkpt lat="-22.093419" lon="-46.033070">
        <ele>1275.668</ele>
        <time>2019-10-14T18:24:19Z</time>
      </trkpt>
      <trkpt lat="-22.093413" lon="-46.033013">
        <ele>1275.860</ele>
        <time>2019-10-14T18:24:22Z</time>
      </trkpt>
      <trkpt lat="-22.093400" lon="-46.032955">
        <ele>1275.872</ele>
        <time>2019-10-14T18:24:24Z</time>
      </trkpt>
      <trkpt lat="-22.093385" lon="-46.032904">
        <ele>1275.925</ele>
        <time>2019-10-14T18:24:26Z</time>
      </trkpt>
      <trkpt lat="-22.093368" lon="-46.032838">
        <ele>1275.360</ele>
        <time>2019-10-14T18:24:29Z</time>
      </trkpt>
      <trkpt lat="-22.093345" lon="-46.032737">
        <ele>1274.796</ele>
        <time>2019-10-14T18:24:32Z</time>
      </trkpt>
      <trkpt lat="-22.092767" lon="-46.030845">
        <ele>1272.839</ele>
        <time>2019-10-14T18:25:13Z</time>
      </trkpt>
      <trkpt lat="-22.092757" lon="-46.030789">
        <ele>1272.901</ele>
        <time>2019-10-14T18:25:14Z</time>
      </trkpt>
      <trkpt lat="-22.092745" lon="-46.030740">
        <ele>1273.321</ele>
        <time>2019-10-14T18:25:15Z</time>
      </trkpt>
      <trkpt lat="-22.092732" lon="-46.030679">
        <ele>1273.208</ele>
        <time>2019-10-14T18:25:17Z</time>
      </trkpt>
      <trkpt lat="-22.092719" lon="-46.030622">
        <ele>1273.647</ele>
        <time>2019-10-14T18:25:18Z</time>
      </trkpt>
      <trkpt lat="-22.092712" lon="-46.030556">
        <ele>1273.175</ele>
        <time>2019-10-14T18:25:20Z</time>
      </trkpt>
      <trkpt lat="-22.092711" lon="-46.030502">
        <ele>1273.997</ele>
        <time>2019-10-14T18:25:22Z</time>
      </trkpt>
      <trkpt lat="-22.092715" lon="-46.030449">
        <ele>1274.919</ele>
        <time>2019-10-14T18:25:23Z</time>
      </trkpt>
      <trkpt lat="-22.092724" lon="-46.030385">
        <ele>1274.551</ele>
        <time>2019-10-14T18:25:25Z</time>
      </trkpt>
      <trkpt lat="-22.092735" lon="-46.030328">
        <ele>1275.274</ele>
        <time>2019-10-14T18:25:27Z</time>
      </trkpt>
      <trkpt lat="-22.092758" lon="-46.030258">
        <ele>1274.949</ele>
        <time>2019-10-14T18:25:29Z</time>
      </trkpt>
      <trkpt lat="-22.092782" lon="-46.030208">
        <ele>1275.055</ele>
        <time>2019-10-14T18:25:30Z</time>
      </trkpt>
      <trkpt lat="-22.092821" lon="-46.030138">
        <ele>1275.266</ele>
        <time>2019-10-14T18:25:33Z</time>
      </trkpt>
      <trkpt lat="-22.092854" lon="-46.030095">
        <ele>1275.429</ele>
        <time>2019-10-14T18:25:34Z</time>
      </trkpt>
      <trkpt lat="-22.092890" lon="-46.030055">
        <ele>1275.621</ele>
        <time>2019-10-14T18:25:36Z</time>
      </trkpt>
      <trkpt lat="-22.092921" lon="-46.030006">
        <ele>1275.408</ele>
        <time>2019-10-14T18:25:37Z</time>
      </trkpt>
      <trkpt lat="-22.092965" lon="-46.029954">
        <ele>1275.220</ele>
        <time>2019-10-14T18:25:40Z</time>
      </trkpt>
      <trkpt lat="-22.092999" lon="-46.029911">
        <ele>1275.728</ele>
        <time>2019-10-14T18:25:41Z</time>
      </trkpt>
      <trkpt lat="-22.093051" lon="-46.029852">
        <ele>1275.520</ele>
        <time>2019-10-14T18:25:43Z</time>
      </trkpt>
      <trkpt lat="-22.093104" lon="-46.029798">
        <ele>1275.392</ele>
        <time>2019-10-14T18:25:45Z</time>
      </trkpt>
      <trkpt lat="-22.093138" lon="-46.029752">
        <ele>1275.284</ele>
        <time>2019-10-14T18:25:47Z</time>
      </trkpt>
      <trkpt lat="-22.093186" lon="-46.029696">
        <ele>1275.697</ele>
        <time>2019-10-14T18:25:49Z</time>
      </trkpt>
      <trkpt lat="-22.093226" lon="-46.029646">
        <ele>1275.742</ele>
        <time>2019-10-14T18:25:51Z</time>
      </trkpt>
      <trkpt lat="-22.093254" lon="-46.029608">
        <ele>1275.188</ele>
        <time>2019-10-14T18:25:52Z</time>
      </trkpt>
      <trkpt lat="-22.093353" lon="-46.029480">
        <ele>1275.144</ele>
        <time>2019-10-14T18:25:55Z</time>
      </trkpt>
      <trkpt lat="-22.093390" lon="-46.029428">
        <ele>1275.305</ele>
        <time>2019-10-14T18:25:57Z</time>
      </trkpt>
      <trkpt lat="-22.093435" lon="-46.029362">
        <ele>1275.715</ele>
        <time>2019-10-14T18:25:59Z</time>
      </trkpt>
      <trkpt lat="-22.093468" lon="-46.029307">
        <ele>1276.008</ele>
        <time>2019-10-14T18:26:01Z</time>
      </trkpt>
      <trkpt lat="-22.093514" lon="-46.029235">
        <ele>1276.148</ele>
        <time>2019-10-14T18:26:03Z</time>
      </trkpt>
      <trkpt lat="-22.093558" lon="-46.029176">
        <ele>1276.136</ele>
        <time>2019-10-14T18:26:05Z</time>
      </trkpt>
      <trkpt lat="-22.093599" lon="-46.029114">
        <ele>1276.388</ele>
        <time>2019-10-14T18:26:07Z</time>
      </trkpt>
      <trkpt lat="-22.093635" lon="-46.029052">
        <ele>1276.580</ele>
        <time>2019-10-14T18:26:10Z</time>
      </trkpt>
      <trkpt lat="-22.093692" lon="-46.028934">
        <ele>1276.652</ele>
        <time>2019-10-14T18:26:13Z</time>
      </trkpt>
      <trkpt lat="-22.093716" lon="-46.028856">
        <ele>1277.215</ele>
        <time>2019-10-14T18:26:15Z</time>
      </trkpt>
      <trkpt lat="-22.093713" lon="-46.028741">
        <ele>1277.750</ele>
        <time>2019-10-14T18:26:18Z</time>
      </trkpt>
      <trkpt lat="-22.093684" lon="-46.028681">
        <ele>1277.046</ele>
        <time>2019-10-14T18:26:20Z</time>
      </trkpt>
      <trkpt lat="-22.093614" lon="-46.028620">
        <ele>1277.066</ele>
        <time>2019-10-14T18:26:22Z</time>
      </trkpt>
      <trkpt lat="-22.093571" lon="-46.028596">
        <ele>1276.929</ele>
        <time>2019-10-14T18:26:23Z</time>
      </trkpt>
      <trkpt lat="-22.093501" lon="-46.028583">
        <ele>1277.021</ele>
        <time>2019-10-14T18:26:25Z</time>
      </trkpt>
      <trkpt lat="-22.093444" lon="-46.028565">
        <ele>1276.908</ele>
        <time>2019-10-14T18:26:27Z</time>
      </trkpt>
      <trkpt lat="-22.093392" lon="-46.028548">
        <ele>1276.610</ele>
        <time>2019-10-14T18:26:28Z</time>
      </trkpt>
      <trkpt lat="-22.093343" lon="-46.028528">
        <ele>1276.658</ele>
        <time>2019-10-14T18:26:30Z</time>
      </trkpt>
      <trkpt lat="-22.093290" lon="-46.028499">
        <ele>1276.960</ele>
        <time>2019-10-14T18:26:32Z</time>
      </trkpt>
      <trkpt lat="-22.093232" lon="-46.028476">
        <ele>1277.022</ele>
        <time>2019-10-14T18:26:33Z</time>
      </trkpt>
      <trkpt lat="-22.093170" lon="-46.028456">
        <ele>1276.944</ele>
        <time>2019-10-14T18:26:36Z</time>
      </trkpt>
      <trkpt lat="-22.093118" lon="-46.028432">
        <ele>1276.927</ele>
        <time>2019-10-14T18:26:37Z</time>
      </trkpt>
      <trkpt lat="-22.093000" lon="-46.028371">
        <ele>1276.852</ele>
        <time>2019-10-14T18:26:40Z</time>
      </trkpt>
      <trkpt lat="-22.092875" lon="-46.028323">
        <ele>1277.178</ele>
        <time>2019-10-14T18:26:43Z</time>
      </trkpt>
      <trkpt lat="-22.092823" lon="-46.028301">
        <ele>1277.329</ele>
        <time>2019-10-14T18:26:44Z</time>
      </trkpt>
      <trkpt lat="-22.092767" lon="-46.028274">
        <ele>1277.500</ele>
        <time>2019-10-14T18:26:46Z</time>
      </trkpt>
      <trkpt lat="-22.092698" lon="-46.028241">
        <ele>1277.920</ele>
        <time>2019-10-14T18:26:48Z</time>
      </trkpt>
      <trkpt lat="-22.092644" lon="-46.028207">
        <ele>1277.808</ele>
        <time>2019-10-14T18:26:50Z</time>
      </trkpt>
      <trkpt lat="-22.092602" lon="-46.028178">
        <ele>1278.376</ele>
        <time>2019-10-14T18:26:51Z</time>
      </trkpt>
      <trkpt lat="-22.092560" lon="-46.028154">
        <ele>1278.714</ele>
        <time>2019-10-14T18:26:53Z</time>
      </trkpt>
      <trkpt lat="-22.092516" lon="-46.028130">
        <ele>1279.466</ele>
        <time>2019-10-14T18:26:55Z</time>
      </trkpt>
      <trkpt lat="-22.092467" lon="-46.028094">
        <ele>1280.458</ele>
        <time>2019-10-14T18:26:58Z</time>
      </trkpt>
      <trkpt lat="-22.092429" lon="-46.028066">
        <ele>1280.980</ele>
        <time>2019-10-14T18:27:00Z</time>
      </trkpt>
      <trkpt lat="-22.092394" lon="-46.028025">
        <ele>1281.673</ele>
        <time>2019-10-14T18:27:02Z</time>
      </trkpt>
      <trkpt lat="-22.092359" lon="-46.027981">
        <ele>1282.668</ele>
        <time>2019-10-14T18:27:05Z</time>
      </trkpt>
      <trkpt lat="-22.092319" lon="-46.027933">
        <ele>1283.374</ele>
        <time>2019-10-14T18:27:08Z</time>
      </trkpt>
      <trkpt lat="-22.092282" lon="-46.027892">
        <ele>1284.042</ele>
        <time>2019-10-14T18:27:11Z</time>
      </trkpt>
      <trkpt lat="-22.092245" lon="-46.027843">
        <ele>1284.922</ele>
        <time>2019-10-14T18:27:14Z</time>
      </trkpt>
      <trkpt lat="-22.092211" lon="-46.027801">
        <ele>1285.414</ele>
        <time>2019-10-14T18:27:17Z</time>
      </trkpt>
      <trkpt lat="-22.092186" lon="-46.027759">
        <ele>1285.808</ele>
        <time>2019-10-14T18:27:20Z</time>
      </trkpt>
      <trkpt lat="-22.092132" lon="-46.027661">
        <ele>1286.828</ele>
        <time>2019-10-14T18:27:25Z</time>
      </trkpt>
      <trkpt lat="-22.092108" lon="-46.027601">
        <ele>1286.666</ele>
        <time>2019-10-14T18:27:28Z</time>
      </trkpt>
      <trkpt lat="-22.092087" lon="-46.027546">
        <ele>1286.958</ele>
        <time>2019-10-14T18:27:31Z</time>
      </trkpt>
      <trkpt lat="-22.092059" lon="-46.027477">
        <ele>1287.010</ele>
        <time>2019-10-14T18:27:34Z</time>
      </trkpt>
      <trkpt lat="-22.092035" lon="-46.027421">
        <ele>1287.422</ele>
        <time>2019-10-14T18:27:37Z</time>
      </trkpt>
      <trkpt lat="-22.092020" lon="-46.027372">
        <ele>1287.785</ele>
        <time>2019-10-14T18:27:39Z</time>
      </trkpt>
      <trkpt lat="-22.092009" lon="-46.027313">
        <ele>1288.030</ele>
        <time>2019-10-14T18:27:42Z</time>
      </trkpt>
      <trkpt lat="-22.092002" lon="-46.027262">
        <ele>1288.516</ele>
        <time>2019-10-14T18:27:44Z</time>
      </trkpt>
      <trkpt lat="-22.091989" lon="-46.027212">
        <ele>1288.831</ele>
        <time>2019-10-14T18:27:46Z</time>
      </trkpt>
      <trkpt lat="-22.091973" lon="-46.027162">
        <ele>1289.561</ele>
        <time>2019-10-14T18:27:49Z</time>
      </trkpt>
      <trkpt lat="-22.091956" lon="-46.027113">
        <ele>1289.807</ele>
        <time>2019-10-14T18:27:51Z</time>
      </trkpt>
      <trkpt lat="-22.091932" lon="-46.027060">
        <ele>1290.208</ele>
        <time>2019-10-14T18:27:54Z</time>
      </trkpt>
      <trkpt lat="-22.091907" lon="-46.027005">
        <ele>1290.577</ele>
        <time>2019-10-14T18:27:56Z</time>
      </trkpt>
      <trkpt lat="-22.091889" lon="-46.026952">
        <ele>1290.265</ele>
        <time>2019-10-14T18:27:59Z</time>
      </trkpt>
      <trkpt lat="-22.091867" lon="-46.026893">
        <ele>1290.067</ele>
        <time>2019-10-14T18:28:01Z</time>
      </trkpt>
      <trkpt lat="-22.091846" lon="-46.026839">
        <ele>1289.789</ele>
        <time>2019-10-14T18:28:02Z</time>
      </trkpt>
      <trkpt lat="-22.091834" lon="-46.026780">
        <ele>1289.831</ele>
        <time>2019-10-14T18:28:04Z</time>
      </trkpt>
      <trkpt lat="-22.091827" lon="-46.026700">
        <ele>1289.794</ele>
        <time>2019-10-14T18:28:06Z</time>
      </trkpt>
      <trkpt lat="-22.091820" lon="-46.026621">
        <ele>1289.639</ele>
        <time>2019-10-14T18:28:08Z</time>
      </trkpt>
      <trkpt lat="-22.091818" lon="-46.026571">
        <ele>1289.515</ele>
        <time>2019-10-14T18:28:10Z</time>
      </trkpt>
      <trkpt lat="-22.091663" lon="-46.024117">
        <ele>1274.268</ele>
        <time>2019-10-14T18:29:11Z</time>
      </trkpt>
      <trkpt lat="-22.091634" lon="-46.024042">
        <ele>1273.742</ele>
        <time>2019-10-14T18:29:14Z</time>
      </trkpt>
      <trkpt lat="-22.091611" lon="-46.023995">
        <ele>1273.726</ele>
        <time>2019-10-14T18:29:15Z</time>
      </trkpt>
      <trkpt lat="-22.091534" lon="-46.023885">
        <ele>1273.508</ele>
        <time>2019-10-14T18:29:18Z</time>
      </trkpt>
      <trkpt lat="-22.091495" lon="-46.023850">
        <ele>1273.850</ele>
        <time>2019-10-14T18:29:20Z</time>
      </trkpt>
      <trkpt lat="-22.091444" lon="-46.023820">
        <ele>1274.118</ele>
        <time>2019-10-14T18:29:22Z</time>
      </trkpt>
      <trkpt lat="-22.091376" lon="-46.023794">
        <ele>1274.360</ele>
        <time>2019-10-14T18:29:25Z</time>
      </trkpt>
      <trkpt lat="-22.091321" lon="-46.023770">
        <ele>1274.032</ele>
        <time>2019-10-14T18:29:27Z</time>
      </trkpt>
      <trkpt lat="-22.091267" lon="-46.023748">
        <ele>1274.384</ele>
        <time>2019-10-14T18:29:29Z</time>
      </trkpt>
      <trkpt lat="-22.091211" lon="-46.023728">
        <ele>1274.597</ele>
        <time>2019-10-14T18:29:31Z</time>
      </trkpt>
      <trkpt lat="-22.091168" lon="-46.023705">
        <ele>1274.462</ele>
        <time>2019-10-14T18:29:33Z</time>
      </trkpt>
      <trkpt lat="-22.091109" lon="-46.023679">
        <ele>1273.988</ele>
        <time>2019-10-14T18:29:35Z</time>
      </trkpt>
      <trkpt lat="-22.091061" lon="-46.023639">
        <ele>1274.179</ele>
        <time>2019-10-14T18:29:37Z</time>
      </trkpt>
      <trkpt lat="-22.091017" lon="-46.023599">
        <ele>1274.505</ele>
        <time>2019-10-14T18:29:39Z</time>
      </trkpt>
      <trkpt lat="-22.090972" lon="-46.023559">
        <ele>1275.025</ele>
        <time>2019-10-14T18:29:41Z</time>
      </trkpt>
      <trkpt lat="-22.090931" lon="-46.023514">
        <ele>1275.408</ele>
        <time>2019-10-14T18:29:43Z</time>
      </trkpt>
      <trkpt lat="-22.090896" lon="-46.023463">
        <ele>1274.831</ele>
        <time>2019-10-14T18:29:45Z</time>
      </trkpt>
      <trkpt lat="-22.090860" lon="-46.023410">
        <ele>1275.389</ele>
        <time>2019-10-14T18:29:47Z</time>
      </trkpt>
      <trkpt lat="-22.090829" lon="-46.023360">
        <ele>1275.891</ele>
        <time>2019-10-14T18:29:49Z</time>
      </trkpt>
      <trkpt lat="-22.090804" lon="-46.023319">
        <ele>1275.933</ele>
        <time>2019-10-14T18:29:51Z</time>
      </trkpt>
      <trkpt lat="-22.090783" lon="-46.023276">
        <ele>1276.275</ele>
        <time>2019-10-14T18:29:53Z</time>
      </trkpt>
      <trkpt lat="-22.090759" lon="-46.023226">
        <ele>1276.588</ele>
        <time>2019-10-14T18:29:56Z</time>
      </trkpt>
      <trkpt lat="-22.090731" lon="-46.023169">
        <ele>1276.423</ele>
        <time>2019-10-14T18:29:58Z</time>
      </trkpt>
      <trkpt lat="-22.090707" lon="-46.023125">
        <ele>1276.989</ele>
        <time>2019-10-14T18:30:00Z</time>
      </trkpt>
      <trkpt lat="-22.090687" lon="-46.023080">
        <ele>1277.293</ele>
        <time>2019-10-14T18:30:02Z</time>
      </trkpt>
      <trkpt lat="-22.090664" lon="-46.023025">
        <ele>1277.565</ele>
        <time>2019-10-14T18:30:05Z</time>
      </trkpt>
      <trkpt lat="-22.090632" lon="-46.022968">
        <ele>1278.421</ele>
        <time>2019-10-14T18:30:07Z</time>
      </trkpt>
      <trkpt lat="-22.090601" lon="-46.022922">
        <ele>1278.608</ele>
        <time>2019-10-14T18:30:09Z</time>
      </trkpt>
      <trkpt lat="-22.090569" lon="-46.022873">
        <ele>1279.413</ele>
        <time>2019-10-14T18:30:12Z</time>
      </trkpt>
      <trkpt lat="-22.090525" lon="-46.022831">
        <ele>1279.741</ele>
        <time>2019-10-14T18:30:15Z</time>
      </trkpt>
      <trkpt lat="-22.090484" lon="-46.022789">
        <ele>1280.243</ele>
        <time>2019-10-14T18:30:17Z</time>
      </trkpt>
      <trkpt lat="-22.090448" lon="-46.022759">
        <ele>1280.415</ele>
        <time>2019-10-14T18:30:19Z</time>
      </trkpt>
      <trkpt lat="-22.090410" lon="-46.022717">
        <ele>1280.827</ele>
        <time>2019-10-14T18:30:22Z</time>
      </trkpt>
      <trkpt lat="-22.090374" lon="-46.022676">
        <ele>1280.980</ele>
        <time>2019-10-14T18:30:24Z</time>
      </trkpt>
      <trkpt lat="-22.090340" lon="-46.022642">
        <ele>1281.135</ele>
        <time>2019-10-14T18:30:27Z</time>
      </trkpt>
      <trkpt lat="-22.090301" lon="-46.022604">
        <ele>1281.131</ele>
        <time>2019-10-14T18:30:29Z</time>
      </trkpt>
      <trkpt lat="-22.090250" lon="-46.022539">
        <ele>1280.444</ele>
        <time>2019-10-14T18:30:33Z</time>
      </trkpt>
      <trkpt lat="-22.090219" lon="-46.022490">
        <ele>1279.805</ele>
        <time>2019-10-14T18:30:35Z</time>
      </trkpt>
      <trkpt lat="-22.087916" lon="-46.017047">
        <ele>1273.715</ele>
        <time>2019-10-14T18:32:20Z</time>
      </trkpt>
      <trkpt lat="-22.087904" lon="-46.016999">
        <ele>1274.008</ele>
        <time>2019-10-14T18:32:22Z</time>
      </trkpt>
      <trkpt lat="-22.087895" lon="-46.016940">
        <ele>1274.318</ele>
        <time>2019-10-14T18:32:24Z</time>
      </trkpt>
      <trkpt lat="-22.087882" lon="-46.016889">
        <ele>1274.756</ele>
        <time>2019-10-14T18:32:27Z</time>
      </trkpt>
      <trkpt lat="-22.087856" lon="-46.016835">
        <ele>1274.598</ele>
        <time>2019-10-14T18:32:29Z</time>
      </trkpt>
      <trkpt lat="-22.087828" lon="-46.016778">
        <ele>1275.010</ele>
        <time>2019-10-14T18:32:32Z</time>
      </trkpt>
      <trkpt lat="-22.087792" lon="-46.016729">
        <ele>1274.962</ele>
        <time>2019-10-14T18:32:34Z</time>
      </trkpt>
      <trkpt lat="-22.087746" lon="-46.016684">
        <ele>1274.355</ele>
        <time>2019-10-14T18:32:37Z</time>
      </trkpt>
      <trkpt lat="-22.087702" lon="-46.016638">
        <ele>1274.170</ele>
        <time>2019-10-14T18:32:38Z</time>
      </trkpt>
      <trkpt lat="-22.087663" lon="-46.016598">
        <ele>1274.326</ele>
        <time>2019-10-14T18:32:39Z</time>
      </trkpt>
      <trkpt lat="-22.087620" lon="-46.016560">
        <ele>1274.555</ele>
        <time>2019-10-14T18:32:41Z</time>
      </trkpt>
      <trkpt lat="-22.087570" lon="-46.016508">
        <ele>1274.407</ele>
        <time>2019-10-14T18:32:43Z</time>
      </trkpt>
      <trkpt lat="-22.087540" lon="-46.016471">
        <ele>1274.217</ele>
        <time>2019-10-14T18:32:45Z</time>
      </trkpt>
      <trkpt lat="-22.087409" lon="-46.016332">
        <ele>1274.208</ele>
        <time>2019-10-14T18:32:49Z</time>
      </trkpt>
      <trkpt lat="-22.087337" lon="-46.016225">
        <ele>1273.939</ele>
        <time>2019-10-14T18:32:52Z</time>
      </trkpt>
      <trkpt lat="-22.087298" lon="-46.016140">
        <ele>1273.517</ele>
        <time>2019-10-14T18:32:54Z</time>
      </trkpt>
      <trkpt lat="-22.087268" lon="-46.016082">
        <ele>1273.599</ele>
        <time>2019-10-14T18:32:56Z</time>
      </trkpt>
      <trkpt lat="-22.087236" lon="-46.016025">
        <ele>1273.691</ele>
        <time>2019-10-14T18:32:57Z</time>
      </trkpt>
      <trkpt lat="-22.087208" lon="-46.015961">
        <ele>1273.863</ele>
        <time>2019-10-14T18:32:59Z</time>
      </trkpt>
      <trkpt lat="-22.087183" lon="-46.015913">
        <ele>1274.086</ele>
        <time>2019-10-14T18:33:00Z</time>
      </trkpt>
      <trkpt lat="-22.087158" lon="-46.015854">
        <ele>1274.131</ele>
        <time>2019-10-14T18:33:02Z</time>
      </trkpt>
      <trkpt lat="-22.087124" lon="-46.015774">
        <ele>1274.477</ele>
        <time>2019-10-14T18:33:04Z</time>
      </trkpt>
      <trkpt lat="-22.087076" lon="-46.015678">
        <ele>1274.875</ele>
        <time>2019-10-14T18:33:07Z</time>
      </trkpt>
      <trkpt lat="-22.087040" lon="-46.015604">
        <ele>1274.628</ele>
        <time>2019-10-14T18:33:09Z</time>
      </trkpt>
      <trkpt lat="-22.087003" lon="-46.015527">
        <ele>1274.920</ele>
        <time>2019-10-14T18:33:12Z</time>
      </trkpt>
      <trkpt lat="-22.086974" lon="-46.015471">
        <ele>1275.008</ele>
        <time>2019-10-14T18:33:13Z</time>
      </trkpt>
      <trkpt lat="-22.086916" lon="-46.015365">
        <ele>1275.241</ele>
        <time>2019-10-14T18:33:16Z</time>
      </trkpt>
      <trkpt lat="-22.086888" lon="-46.015310">
        <ele>1274.999</ele>
        <time>2019-10-14T18:33:18Z</time>
      </trkpt>
      <trkpt lat="-22.086840" lon="-46.015233">
        <ele>1274.521</ele>
        <time>2019-10-14T18:33:20Z</time>
      </trkpt>
      <trkpt lat="-22.086784" lon="-46.015138">
        <ele>1274.743</ele>
        <time>2019-10-14T18:33:23Z</time>
      </trkpt>
      <trkpt lat="-22.086754" lon="-46.015079">
        <ele>1274.925</ele>
        <time>2019-10-14T18:33:25Z</time>
      </trkpt>
      <trkpt lat="-22.086712" lon="-46.014999">
        <ele>1274.988</ele>
        <time>2019-10-14T18:33:26Z</time>
      </trkpt>
      <trkpt lat="-22.086686" lon="-46.014951">
        <ele>1274.893</ele>
        <time>2019-10-14T18:33:28Z</time>
      </trkpt>
      <trkpt lat="-22.086674" lon="-46.014901">
        <ele>1275.169</ele>
        <time>2019-10-14T18:33:29Z</time>
      </trkpt>
      <trkpt lat="-22.086641" lon="-46.014808">
        <ele>1275.285</ele>
        <time>2019-10-14T18:33:31Z</time>
      </trkpt>
      <trkpt lat="-22.086624" lon="-46.014742">
        <ele>1275.489</ele>
        <time>2019-10-14T18:33:33Z</time>
      </trkpt>
      <trkpt lat="-22.086609" lon="-46.014659">
        <ele>1275.417</ele>
        <time>2019-10-14T18:33:36Z</time>
      </trkpt>
      <trkpt lat="-22.086590" lon="-46.014572">
        <ele>1276.108</ele>
        <time>2019-10-14T18:33:37Z</time>
      </trkpt>
      <trkpt lat="-22.086584" lon="-46.014513">
        <ele>1276.712</ele>
        <time>2019-10-14T18:33:39Z</time>
      </trkpt>
      <trkpt lat="-22.086575" lon="-46.014457">
        <ele>1276.810</ele>
        <time>2019-10-14T18:33:40Z</time>
      </trkpt>
      <trkpt lat="-22.086564" lon="-46.014371">
        <ele>1277.362</ele>
        <time>2019-10-14T18:33:43Z</time>
      </trkpt>
      <trkpt lat="-22.086559" lon="-46.014296">
        <ele>1277.154</ele>
        <time>2019-10-14T18:33:45Z</time>
      </trkpt>
      <trkpt lat="-22.086379" lon="-46.013070">
        <ele>1274.816</ele>
        <time>2019-10-14T18:34:09Z</time>
      </trkpt>
      <trkpt lat="-22.086394" lon="-46.013019">
        <ele>1275.889</ele>
        <time>2019-10-14T18:34:11Z</time>
      </trkpt>
      <trkpt lat="-22.086413" lon="-46.012936">
        <ele>1277.134</ele>
        <time>2019-10-14T18:34:15Z</time>
      </trkpt>
      <trkpt lat="-22.086429" lon="-46.012888">
        <ele>1277.370</ele>
        <time>2019-10-14T18:34:18Z</time>
      </trkpt>
      <trkpt lat="-22.086447" lon="-46.012826">
        <ele>1278.176</ele>
        <time>2019-10-14T18:34:22Z</time>
      </trkpt>
      <trkpt lat="-22.086457" lon="-46.012778">
        <ele>1278.990</ele>
        <time>2019-10-14T18:34:25Z</time>
      </trkpt>
      <trkpt lat="-22.086477" lon="-46.012717">
        <ele>1280.019</ele>
        <time>2019-10-14T18:34:30Z</time>
      </trkpt>
      <trkpt lat="-22.086492" lon="-46.012658">
        <ele>1281.208</ele>
        <time>2019-10-14T18:34:36Z</time>
      </trkpt>
      <trkpt lat="-22.086526" lon="-46.012554">
        <ele>1282.521</ele>
        <time>2019-10-14T18:34:42Z</time>
      </trkpt>
      <trkpt lat="-22.086539" lon="-46.012504">
        <ele>1283.169</ele>
        <time>2019-10-14T18:34:46Z</time>
      </trkpt>
      <trkpt lat="-22.086547" lon="-46.012456">
        <ele>1283.611</ele>
        <time>2019-10-14T18:34:52Z</time>
      </trkpt>
      <trkpt lat="-22.086549" lon="-46.012407">
        <ele>1284.463</ele>
        <time>2019-10-14T18:34:56Z</time>
      </trkpt>
      <trkpt lat="-22.086562" lon="-46.012331">
        <ele>1285.835</ele>
        <time>2019-10-14T18:35:04Z</time>
      </trkpt>
      <trkpt lat="-22.086569" lon="-46.012273">
        <ele>1286.438</ele>
        <time>2019-10-14T18:35:09Z</time>
      </trkpt>
      <trkpt lat="-22.086585" lon="-46.012183">
        <ele>1287.223</ele>
        <time>2019-10-14T18:35:13Z</time>
      </trkpt>
      <trkpt lat="-22.086600" lon="-46.012115">
        <ele>1287.599</ele>
        <time>2019-10-14T18:35:15Z</time>
      </trkpt>
      <trkpt lat="-22.086615" lon="-46.012061">
        <ele>1288.755</ele>
        <time>2019-10-14T18:35:20Z</time>
      </trkpt>
      <trkpt lat="-22.086630" lon="-46.012010">
        <ele>1290.507</ele>
        <time>2019-10-14T18:35:30Z</time>
      </trkpt>
      <trkpt lat="-22.086653" lon="-46.011936">
        <ele>1291.817</ele>
        <time>2019-10-14T18:35:38Z</time>
      </trkpt>
      <trkpt lat="-22.086670" lon="-46.011879">
        <ele>1292.508</ele>
        <time>2019-10-14T18:35:45Z</time>
      </trkpt>
      <trkpt lat="-22.086689" lon="-46.011821">
        <ele>1293.279</ele>
        <time>2019-10-14T18:35:51Z</time>
      </trkpt>
      <trkpt lat="-22.086709" lon="-46.011770">
        <ele>1293.737</ele>
        <time>2019-10-14T18:35:55Z</time>
      </trkpt>
      <trkpt lat="-22.086727" lon="-46.011723">
        <ele>1294.099</ele>
        <time>2019-10-14T18:35:57Z</time>
      </trkpt>
      <trkpt lat="-22.086740" lon="-46.011661">
        <ele>1294.251</ele>
        <time>2019-10-14T18:35:59Z</time>
      </trkpt>
      <trkpt lat="-22.086755" lon="-46.011596">
        <ele>1294.823</ele>
        <time>2019-10-14T18:36:02Z</time>
      </trkpt>
      <trkpt lat="-22.086762" lon="-46.011547">
        <ele>1295.446</ele>
        <time>2019-10-14T18:36:05Z</time>
      </trkpt>
      <trkpt lat="-22.086776" lon="-46.011495">
        <ele>1295.561</ele>
        <time>2019-10-14T18:36:09Z</time>
      </trkpt>
      <trkpt lat="-22.086787" lon="-46.011440">
        <ele>1296.197</ele>
        <time>2019-10-14T18:36:12Z</time>
      </trkpt>
      <trkpt lat="-22.086798" lon="-46.011392">
        <ele>1296.546</ele>
        <time>2019-10-14T18:36:15Z</time>
      </trkpt>
      <trkpt lat="-22.086816" lon="-46.011341">
        <ele>1297.188</ele>
        <time>2019-10-14T18:36:19Z</time>
      </trkpt>
      <trkpt lat="-22.086842" lon="-46.011275">
        <ele>1297.116</ele>
        <time>2019-10-14T18:36:21Z</time>
      </trkpt>
      <trkpt lat="-22.086863" lon="-46.011230">
        <ele>1297.208</ele>
        <time>2019-10-14T18:36:23Z</time>
      </trkpt>
      <trkpt lat="-22.086888" lon="-46.011167">
        <ele>1297.978</ele>
        <time>2019-10-14T18:36:25Z</time>
      </trkpt>
      <trkpt lat="-22.086916" lon="-46.011114">
        <ele>1298.016</ele>
        <time>2019-10-14T18:36:27Z</time>
      </trkpt>
      <trkpt lat="-22.086955" lon="-46.011052">
        <ele>1297.958</ele>
        <time>2019-10-14T18:36:29Z</time>
      </trkpt>
      <trkpt lat="-22.086989" lon="-46.010999">
        <ele>1297.910</ele>
        <time>2019-10-14T18:36:31Z</time>
      </trkpt>
      <trkpt lat="-22.087082" lon="-46.009142">
        <ele>1295.492</ele>
        <time>2019-10-14T18:37:09Z</time>
      </trkpt>
      <trkpt lat="-22.087015" lon="-46.009100">
        <ele>1296.185</ele>
        <time>2019-10-14T18:37:13Z</time>
      </trkpt>
      <trkpt lat="-22.086958" lon="-46.009074">
        <ele>1296.740</ele>
        <time>2019-10-14T18:37:16Z</time>
      </trkpt>
      <trkpt lat="-22.086916" lon="-46.009049">
        <ele>1296.966</ele>
        <time>2019-10-14T18:37:18Z</time>
      </trkpt>
      <trkpt lat="-22.086870" lon="-46.009024">
        <ele>1296.932</ele>
        <time>2019-10-14T18:37:20Z</time>
      </trkpt>
      <trkpt lat="-22.086813" lon="-46.008997">
        <ele>1297.192</ele>
        <time>2019-10-14T18:37:23Z</time>
      </trkpt>
      <trkpt lat="-22.086751" lon="-46.008967">
        <ele>1297.311</ele>
        <time>2019-10-14T18:37:26Z</time>
      </trkpt>
      <trkpt lat="-22.086703" lon="-46.008940">
        <ele>1297.408</ele>
        <time>2019-10-14T18:37:29Z</time>
      </trkpt>
      <trkpt lat="-22.086635" lon="-46.008921">
        <ele>1297.327</ele>
        <time>2019-10-14T18:37:32Z</time>
      </trkpt>
      <trkpt lat="-22.086566" lon="-46.008904">
        <ele>1297.085</ele>
        <time>2019-10-14T18:37:35Z</time>
      </trkpt>
      <trkpt lat="-22.086503" lon="-46.008878">
        <ele>1296.347</ele>
        <time>2019-10-14T18:37:37Z</time>
      </trkpt>
      <trkpt lat="-22.086444" lon="-46.008858">
        <ele>1296.299</ele>
        <time>2019-10-14T18:37:39Z</time>
      </trkpt>
      <trkpt lat="-22.086396" lon="-46.008832">
        <ele>1296.421</ele>
        <time>2019-10-14T18:37:41Z</time>
      </trkpt>
      <trkpt lat="-22.086347" lon="-46.008800">
        <ele>1296.624</ele>
        <time>2019-10-14T18:37:44Z</time>
      </trkpt>
      <trkpt lat="-22.086283" lon="-46.008765">
        <ele>1297.059</ele>
        <time>2019-10-14T18:37:47Z</time>
      </trkpt>
      <trkpt lat="-22.086240" lon="-46.008741">
        <ele>1297.765</ele>
        <time>2019-10-14T18:37:48Z</time>
      </trkpt>
      <trkpt lat="-22.086201" lon="-46.008714">
        <ele>1297.928</ele>
        <time>2019-10-14T18:37:50Z</time>
      </trkpt>
      <trkpt lat="-22.086152" lon="-46.008664">
        <ele>1299.189</ele>
        <time>2019-10-14T18:37:53Z</time>
      </trkpt>
      <trkpt lat="-22.086109" lon="-46.008621">
        <ele>1299.517</ele>
        <time>2019-10-14T18:37:56Z</time>
      </trkpt>
      <trkpt lat="-22.086082" lon="-46.008572">
        <ele>1300.308</ele>
        <time>2019-10-14T18:38:00Z</time>
      </trkpt>
      <trkpt lat="-22.086061" lon="-46.008518">
        <ele>1301.036</ele>
        <time>2019-10-14T18:38:02Z</time>
      </trkpt>
      <trkpt lat="-22.086046" lon="-46.008467">
        <ele>1302.194</ele>
        <time>2019-10-14T18:38:06Z</time>
      </trkpt>
      <trkpt lat="-22.086011" lon="-46.008413">
        <ele>1302.556</ele>
        <time>2019-10-14T18:38:08Z</time>
      </trkpt>
      <trkpt lat="-22.085978" lon="-46.008348">
        <ele>1302.898</ele>
        <time>2019-10-14T18:38:12Z</time>
      </trkpt>
      <trkpt lat="-22.085949" lon="-46.008285">
        <ele>1303.140</ele>
        <time>2019-10-14T18:38:15Z</time>
      </trkpt>
      <trkpt lat="-22.085931" lon="-46.008240">
        <ele>1302.953</ele>
        <time>2019-10-14T18:38:16Z</time>
      </trkpt>
      <trkpt lat="-22.085906" lon="-46.008191">
        <ele>1302.918</ele>
        <time>2019-10-14T18:38:19Z</time>
      </trkpt>
      <trkpt lat="-22.085871" lon="-46.008134">
        <ele>1302.514</ele>
        <time>2019-10-14T18:38:21Z</time>
      </trkpt>
      <trkpt lat="-22.085855" lon="-46.008061">
        <ele>1302.092</ele>
        <time>2019-10-14T18:38:23Z</time>
      </trkpt>
      <trkpt lat="-22.085843" lon="-46.007990">
        <ele>1301.773</ele>
        <time>2019-10-14T18:38:25Z</time>
      </trkpt>
      <trkpt lat="-22.085022" lon="-46.006330">
        <ele>1297.620</ele>
        <time>2019-10-14T18:39:01Z</time>
      </trkpt>
      <trkpt lat="-22.084983" lon="-46.006298">
        <ele>1297.708</ele>
        <time>2019-10-14T18:39:03Z</time>
      </trkpt>
      <trkpt lat="-22.084933" lon="-46.006244">
        <ele>1297.933</ele>
        <time>2019-10-14T18:39:05Z</time>
      </trkpt>
      <trkpt lat="-22.084848" lon="-46.006160">
        <ele>1297.891</ele>
        <time>2019-10-14T18:39:08Z</time>
      </trkpt>
      <trkpt lat="-22.084804" lon="-46.006114">
        <ele>1298.383</ele>
        <time>2019-10-14T18:39:10Z</time>
      </trkpt>
      <trkpt lat="-22.084720" lon="-46.006040">
        <ele>1297.915</ele>
        <time>2019-10-14T18:39:13Z</time>
      </trkpt>
      <trkpt lat="-22.084678" lon="-46.006012">
        <ele>1297.717</ele>
        <time>2019-10-14T18:39:15Z</time>
      </trkpt>
      <trkpt lat="-22.084622" lon="-46.005980">
        <ele>1297.410</ele>
        <time>2019-10-14T18:39:17Z</time>
      </trkpt>
      <trkpt lat="-22.084577" lon="-46.005946">
        <ele>1296.835</ele>
        <time>2019-10-14T18:39:19Z</time>
      </trkpt>
      <trkpt lat="-22.081431" lon="-46.000250">
        <ele>1247.621</ele>
        <time>2019-10-14T18:40:56Z</time>
      </trkpt>
      <trkpt lat="-22.081400" lon="-46.000195">
        <ele>1248.793</ele>
        <time>2019-10-14T18:40:58Z</time>
      </trkpt>
      <trkpt lat="-22.081368" lon="-46.000154">
        <ele>1249.865</ele>
        <time>2019-10-14T18:41:01Z</time>
      </trkpt>
      <trkpt lat="-22.081336" lon="-46.000093">
        <ele>1251.621</ele>
        <time>2019-10-14T18:41:08Z</time>
      </trkpt>
      <trkpt lat="-22.081305" lon="-46.000029">
        <ele>1252.608</ele>
        <time>2019-10-14T18:41:12Z</time>
      </trkpt>
      <trkpt lat="-22.081285" lon="-45.999985">
        <ele>1253.113</ele>
        <time>2019-10-14T18:41:15Z</time>
      </trkpt>
      <trkpt lat="-22.081271" lon="-45.999937">
        <ele>1253.871</ele>
        <time>2019-10-14T18:41:21Z</time>
      </trkpt>
      <trkpt lat="-22.081257" lon="-45.999884">
        <ele>1254.753</ele>
        <time>2019-10-14T18:41:25Z</time>
      </trkpt>
      <trkpt lat="-22.081248" lon="-45.999833">
        <ele>1255.175</ele>
        <time>2019-10-14T18:41:30Z</time>
      </trkpt>
      <trkpt lat="-22.081244" lon="-45.999738">
        <ele>1254.927</ele>
        <time>2019-10-14T18:41:34Z</time>
      </trkpt>
      <trkpt lat="-22.081246" lon="-45.999678">
        <ele>1254.670</ele>
        <time>2019-10-14T18:41:37Z</time>
      </trkpt>
      <trkpt lat="-22.081252" lon="-45.999626">
        <ele>1254.835</ele>
        <time>2019-10-14T18:41:52Z</time>
      </trkpt>
      <trkpt lat="-22.081273" lon="-45.999566">
        <ele>1255.831</ele>
        <time>2019-10-14T18:43:54Z</time>
      </trkpt>
      <trkpt lat="-22.081291" lon="-45.999521">
        <ele>1255.626</ele>
        <time>2019-10-14T18:43:56Z</time>
      </trkpt>
      <trkpt lat="-22.081309" lon="-45.999467">
        <ele>1255.747</ele>
        <time>2019-10-14T18:43:58Z</time>
      </trkpt>
      <trkpt lat="-22.081333" lon="-45.999412">
        <ele>1255.011</ele>
        <time>2019-10-14T18:44:01Z</time>
      </trkpt>
      <trkpt lat="-22.081326" lon="-45.999345">
        <ele>1254.508</ele>
        <time>2019-10-14T18:48:54Z</time>
      </trkpt>
      <trkpt lat="-22.081262" lon="-45.996515">
        <ele>1243.936</ele>
        <time>2019-10-14T18:49:32Z</time>
      </trkpt>
      <trkpt lat="-22.081241" lon="-45.996450">
        <ele>1244.794</ele>
        <time>2019-10-14T18:49:35Z</time>
      </trkpt>
      <trkpt lat="-22.081225" lon="-45.996387">
        <ele>1245.376</ele>
        <time>2019-10-14T18:49:37Z</time>
      </trkpt>
      <trkpt lat="-22.081202" lon="-45.996323">
        <ele>1245.488</ele>
        <time>2019-10-14T18:49:40Z</time>
      </trkpt>
      <trkpt lat="-22.081186" lon="-45.996278">
        <ele>1245.710</ele>
        <time>2019-10-14T18:49:42Z</time>
      </trkpt>
      <trkpt lat="-22.081165" lon="-45.996215">
        <ele>1246.023</ele>
        <time>2019-10-14T18:49:44Z</time>
      </trkpt>
      <trkpt lat="-22.081148" lon="-45.996159">
        <ele>1245.928</ele>
        <time>2019-10-14T18:49:47Z</time>
      </trkpt>
      <trkpt lat="-22.081136" lon="-45.996111">
        <ele>1245.944</ele>
        <time>2019-10-14T18:49:48Z</time>
      </trkpt>
      <trkpt lat="-22.081120" lon="-45.996050">
        <ele>1245.814</ele>
        <time>2019-10-14T18:49:50Z</time>
      </trkpt>
      <trkpt lat="-22.081108" lon="-45.995999">
        <ele>1246.154</ele>
        <time>2019-10-14T18:49:52Z</time>
      </trkpt>
      <trkpt lat="-22.081097" lon="-45.995940">
        <ele>1246.209</ele>
        <time>2019-10-14T18:49:54Z</time>
      </trkpt>
      <trkpt lat="-22.081085" lon="-45.995890">
        <ele>1245.808</ele>
        <time>2019-10-14T18:49:57Z</time>
      </trkpt>
      <trkpt lat="-22.081077" lon="-45.995835">
        <ele>1246.185</ele>
        <time>2019-10-14T18:49:59Z</time>
      </trkpt>
      <trkpt lat="-22.081080" lon="-45.995747">
        <ele>1246.223</ele>
        <time>2019-10-14T18:50:02Z</time>
      </trkpt>
      <trkpt lat="-22.081066" lon="-45.995700">
        <ele>1246.385</ele>
        <time>2019-10-14T18:50:04Z</time>
      </trkpt>
      <trkpt lat="-22.081050" lon="-45.995647">
        <ele>1246.637</ele>
        <time>2019-10-14T18:50:06Z</time>
      </trkpt>
      <trkpt lat="-22.081027" lon="-45.995568">
        <ele>1246.769</ele>
        <time>2019-10-14T18:50:10Z</time>
      </trkpt>
      <trkpt lat="-22.081010" lon="-45.995515">
        <ele>1246.692</ele>
        <time>2019-10-14T18:50:12Z</time>
      </trkpt>
      <trkpt lat="-22.080992" lon="-45.995456">
        <ele>1246.987</ele>
        <time>2019-10-14T18:50:14Z</time>
      </trkpt>
      <trkpt lat="-22.080967" lon="-45.995406">
        <ele>1246.843</ele>
        <time>2019-10-14T18:50:17Z</time>
      </trkpt>
      <trkpt lat="-22.080926" lon="-45.995345">
        <ele>1247.458</ele>
        <time>2019-10-14T18:50:19Z</time>
      </trkpt>
      <trkpt lat="-22.080859" lon="-45.995233">
        <ele>1247.352</ele>
        <time>2019-10-14T18:50:24Z</time>
      </trkpt>
      <trkpt lat="-22.080837" lon="-45.995185">
        <ele>1248.317</ele>
        <time>2019-10-14T18:50:26Z</time>
      </trkpt>
      <trkpt lat="-22.080828" lon="-45.995115">
        <ele>1248.908</ele>
        <time>2019-10-14T18:50:28Z</time>
      </trkpt>
      <trkpt lat="-22.080766" lon="-45.994980">
        <ele>1249.679</ele>
        <time>2019-10-14T18:50:30Z</time>
      </trkpt>
      <trkpt lat="-22.080748" lon="-45.994933">
        <ele>1249.947</ele>
        <time>2019-10-14T18:50:31Z</time>
      </trkpt>
      <trkpt lat="-22.080733" lon="-45.994880">
        <ele>1250.659</ele>
        <time>2019-10-14T18:50:33Z</time>
      </trkpt>
      <trkpt lat="-22.080717" lon="-45.994803">
        <ele>1251.351</ele>
        <time>2019-10-14T18:50:35Z</time>
      </trkpt>
      <trkpt lat="-22.080710" lon="-45.994736">
        <ele>1251.553</ele>
        <time>2019-10-14T18:50:37Z</time>
      </trkpt>
      <trkpt lat="-22.080709" lon="-45.994660">
        <ele>1252.056</ele>
        <time>2019-10-14T18:50:40Z</time>
      </trkpt>
      <trkpt lat="-22.080709" lon="-45.994608">
        <ele>1252.321</ele>
        <time>2019-10-14T18:50:42Z</time>
      </trkpt>
      <trkpt lat="-22.080704" lon="-45.994551">
        <ele>1252.517</ele>
        <time>2019-10-14T18:50:44Z</time>
      </trkpt>
      <trkpt lat="-22.080699" lon="-45.994490">
        <ele>1253.073</ele>
        <time>2019-10-14T18:50:46Z</time>
      </trkpt>
      <trkpt lat="-22.080694" lon="-45.994432">
        <ele>1253.485</ele>
        <time>2019-10-14T18:50:48Z</time>
      </trkpt>
      <trkpt lat="-22.080690" lon="-45.994380">
        <ele>1253.713</ele>
        <time>2019-10-14T18:50:50Z</time>
      </trkpt>
      <trkpt lat="-22.080675" lon="-45.994313">
        <ele>1254.108</ele>
        <time>2019-10-14T18:50:54Z</time>
      </trkpt>
      <trkpt lat="-22.080664" lon="-45.994265">
        <ele>1254.061</ele>
        <time>2019-10-14T18:50:56Z</time>
      </trkpt>
      <trkpt lat="-22.080646" lon="-45.994188">
        <ele>1254.259</ele>
        <time>2019-10-14T18:50:58Z</time>
      </trkpt>
      <trkpt lat="-22.080612" lon="-45.994096">
        <ele>1253.991</ele>
        <time>2019-10-14T18:51:02Z</time>
      </trkpt>
      <trkpt lat="-22.080596" lon="-45.994049">
        <ele>1254.163</ele>
        <time>2019-10-14T18:51:03Z</time>
      </trkpt>
      <trkpt lat="-22.080576" lon="-45.993985">
        <ele>1253.975</ele>
        <time>2019-10-14T18:51:05Z</time>
      </trkpt>
      <trkpt lat="-22.080553" lon="-45.993927">
        <ele>1253.798</ele>
        <time>2019-10-14T18:51:07Z</time>
      </trkpt>
      <trkpt lat="-22.080540" lon="-45.993878">
        <ele>1253.623</ele>
        <time>2019-10-14T18:51:09Z</time>
      </trkpt>
      <trkpt lat="-22.080526" lon="-45.993826">
        <ele>1253.599</ele>
        <time>2019-10-14T18:51:10Z</time>
      </trkpt>
      <trkpt lat="-22.080506" lon="-45.993763">
        <ele>1253.283</ele>
        <time>2019-10-14T18:51:12Z</time>
      </trkpt>
      <trkpt lat="-22.080476" lon="-45.993689">
        <ele>1253.325</ele>
        <time>2019-10-14T18:51:14Z</time>
      </trkpt>
      <trkpt lat="-22.080443" lon="-45.993617">
        <ele>1253.017</ele>
        <time>2019-10-14T18:51:16Z</time>
      </trkpt>
      <trkpt lat="-22.080409" lon="-45.993551">
        <ele>1253.608</ele>
        <time>2019-10-14T18:51:19Z</time>
      </trkpt>
      <trkpt lat="-22.080384" lon="-45.993507">
        <ele>1253.722</ele>
        <time>2019-10-14T18:51:20Z</time>
      </trkpt>
      <trkpt lat="-22.080345" lon="-45.993450">
        <ele>1253.680</ele>
        <time>2019-10-14T18:51:22Z</time>
      </trkpt>
      <trkpt lat="-22.080310" lon="-45.993404">
        <ele>1253.792</ele>
        <time>2019-10-14T18:51:24Z</time>
      </trkpt>
      <trkpt lat="-22.080280" lon="-45.993357">
        <ele>1253.414</ele>
        <time>2019-10-14T18:51:26Z</time>
      </trkpt>
      <trkpt lat="-22.080263" lon="-45.993307">
        <ele>1252.676</ele>
        <time>2019-10-14T18:51:28Z</time>
      </trkpt>
      <trkpt lat="-22.077526" lon="-45.989573">
        <ele>1221.549</ele>
        <time>2019-10-14T18:52:46Z</time>
      </trkpt>
      <trkpt lat="-22.077516" lon="-45.989521">
        <ele>1221.864</ele>
        <time>2019-10-14T18:52:50Z</time>
      </trkpt>
      <trkpt lat="-22.077468" lon="-45.989382">
        <ele>1221.340</ele>
        <time>2019-10-14T18:54:23Z</time>
      </trkpt>
      <trkpt lat="-22.077467" lon="-45.989321">
        <ele>1220.694</ele>
        <time>2019-10-14T18:54:26Z</time>
      </trkpt>
      <trkpt lat="-22.077485" lon="-45.989276">
        <ele>1220.457</ele>
        <time>2019-10-14T18:54:27Z</time>
      </trkpt>
      <trkpt lat="-22.077513" lon="-45.989228">
        <ele>1219.022</ele>
        <time>2019-10-14T18:54:29Z</time>
      </trkpt>
      <trkpt lat="-22.077580" lon="-45.989150">
        <ele>1217.708</ele>
        <time>2019-10-14T18:54:32Z</time>
      </trkpt>
      <trkpt lat="-22.077631" lon="-45.989106">
        <ele>1216.783</ele>
        <time>2019-10-14T18:54:33Z</time>
      </trkpt>
      <trkpt lat="-22.077674" lon="-45.989069">
        <ele>1215.961</ele>
        <time>2019-10-14T18:54:34Z</time>
      </trkpt>
      <trkpt lat="-22.077730" lon="-45.989028">
        <ele>1215.433</ele>
        <time>2019-10-14T18:54:36Z</time>
      </trkpt>
      <trkpt lat="-22.077803" lon="-45.988983">
        <ele>1213.655</ele>
        <time>2019-10-14T18:54:38Z</time>
      </trkpt>
      <trkpt lat="-22.077867" lon="-45.988962">
        <ele>1212.457</ele>
        <time>2019-10-14T18:54:40Z</time>
      </trkpt>
      <trkpt lat="-22.077919" lon="-45.988956">
        <ele>1211.760</ele>
        <time>2019-10-14T18:54:41Z</time>
      </trkpt>
      <trkpt lat="-22.077974" lon="-45.988962">
        <ele>1209.275</ele>
        <time>2019-10-14T18:54:43Z</time>
      </trkpt>
      <trkpt lat="-22.083077" lon="-45.988413">
        <ele>1133.481</ele>
        <time>2019-10-14T18:56:19Z</time>
      </trkpt>
      <trkpt lat="-22.083133" lon="-45.988341">
        <ele>1131.587</ele>
        <time>2019-10-14T18:56:22Z</time>
      </trkpt>
      <trkpt lat="-22.083199" lon="-45.988282">
        <ele>1130.142</ele>
        <time>2019-10-14T18:56:24Z</time>
      </trkpt>
      <trkpt lat="-22.083239" lon="-45.988260">
        <ele>1129.726</ele>
        <time>2019-10-14T18:56:25Z</time>
      </trkpt>
      <trkpt lat="-22.083310" lon="-45.988220">
        <ele>1127.108</ele>
        <time>2019-10-14T18:56:27Z</time>
      </trkpt>
      <trkpt lat="-22.083624" lon="-45.985121">
        <ele>1083.882</ele>
        <time>2019-10-14T18:57:47Z</time>
      </trkpt>
      <trkpt lat="-22.083570" lon="-45.985074">
        <ele>1082.760</ele>
        <time>2019-10-14T18:58:07Z</time>
      </trkpt>
      <trkpt lat="-22.078600" lon="-45.972969">
        <ele>928.652</ele>
        <time>2019-10-14T19:00:59Z</time>
      </trkpt>
      <trkpt lat="-22.078627" lon="-45.972926">
        <ele>928.464</ele>
        <time>2019-10-14T19:01:01Z</time>
      </trkpt>
      <trkpt lat="-22.078654" lon="-45.972870">
        <ele>928.526</ele>
        <time>2019-10-14T19:01:03Z</time>
      </trkpt>
      <trkpt lat="-22.078683" lon="-45.972797">
        <ele>929.129</ele>
        <time>2019-10-14T19:01:06Z</time>
      </trkpt>
      <trkpt lat="-22.078706" lon="-45.972739">
        <ele>929.664</ele>
        <time>2019-10-14T19:01:08Z</time>
      </trkpt>
      <trkpt lat="-22.078726" lon="-45.972688">
        <ele>930.140</ele>
        <time>2019-10-14T19:01:10Z</time>
      </trkpt>
      <trkpt lat="-22.078746" lon="-45.972632">
        <ele>929.519</ele>
        <time>2019-10-14T19:01:12Z</time>
      </trkpt>
      <trkpt lat="-22.078777" lon="-45.972557">
        <ele>930.109</ele>
        <time>2019-10-14T19:01:15Z</time>
      </trkpt>
      <trkpt lat="-22.078807" lon="-45.972482">
        <ele>930.019</ele>
        <time>2019-10-14T19:01:17Z</time>
      </trkpt>
      <trkpt lat="-22.078827" lon="-45.972416">
        <ele>930.308</ele>
        <time>2019-10-14T19:01:19Z</time>
      </trkpt>
      <trkpt lat="-22.078843" lon="-45.972369">
        <ele>930.455</ele>
        <time>2019-10-14T19:01:21Z</time>
      </trkpt>
      <trkpt lat="-22.078864" lon="-45.972309">
        <ele>931.013</ele>
        <time>2019-10-14T19:01:24Z</time>
      </trkpt>
      <trkpt lat="-22.078888" lon="-45.972253">
        <ele>931.445</ele>
        <time>2019-10-14T19:01:25Z</time>
      </trkpt>
      <trkpt lat="-22.078922" lon="-45.972186">
        <ele>931.327</ele>
        <time>2019-10-14T19:01:28Z</time>
      </trkpt>
      <trkpt lat="-22.078961" lon="-45.972106">
        <ele>931.979</ele>
        <time>2019-10-14T19:01:31Z</time>
      </trkpt>
      <trkpt lat="-22.078976" lon="-45.972058">
        <ele>932.012</ele>
        <time>2019-10-14T19:01:33Z</time>
      </trkpt>
      <trkpt lat="-22.078996" lon="-45.971985">
        <ele>931.867</ele>
        <time>2019-10-14T19:01:35Z</time>
      </trkpt>
      <trkpt lat="-22.079037" lon="-45.971895">
        <ele>931.663</ele>
        <time>2019-10-14T19:01:38Z</time>
      </trkpt>
      <trkpt lat="-22.079057" lon="-45.971848">
        <ele>931.639</ele>
        <time>2019-10-14T19:01:40Z</time>
      </trkpt>
      <trkpt lat="-22.079085" lon="-45.971785">
        <ele>931.901</ele>
        <time>2019-10-14T19:01:42Z</time>
      </trkpt>
      <trkpt lat="-22.079111" lon="-45.971731">
        <ele>931.721</ele>
        <time>2019-10-14T19:01:44Z</time>
      </trkpt>
      <trkpt lat="-22.079151" lon="-45.971690">
        <ele>932.408</ele>
        <time>2019-10-14T19:01:47Z</time>
      </trkpt>
      <trkpt lat="-22.079184" lon="-45.971650">
        <ele>932.477</ele>
        <time>2019-10-14T19:01:48Z</time>
      </trkpt>
      <trkpt lat="-22.079211" lon="-45.971609">
        <ele>932.415</ele>
        <time>2019-10-14T19:01:49Z</time>
      </trkpt>
      <trkpt lat="-22.079237" lon="-45.971568">
        <ele>932.777</ele>
        <time>2019-10-14T19:01:51Z</time>
      </trkpt>
      <trkpt lat="-22.079272" lon="-45.971505">
        <ele>932.969</ele>
        <time>2019-10-14T19:01:54Z</time>
      </trkpt>
      <trkpt lat="-22.079297" lon="-45.971438">
        <ele>933.731</ele>
        <time>2019-10-14T19:01:56Z</time>
      </trkpt>
      <trkpt lat="-22.079306" lon="-45.971375">
        <ele>933.844</ele>
        <time>2019-10-14T19:01:58Z</time>
      </trkpt>
      <trkpt lat="-22.079309" lon="-45.971312">
        <ele>934.829</ele>
        <time>2019-10-14T19:02:00Z</time>
      </trkpt>
      <trkpt lat="-22.079302" lon="-45.971261">
        <ele>934.915</ele>
        <time>2019-10-14T19:02:02Z</time>
      </trkpt>
      <trkpt lat="-22.079274" lon="-45.971212">
        <ele>935.758</ele>
        <time>2019-10-14T19:02:04Z</time>
      </trkpt>
      <trkpt lat="-22.079212" lon="-45.971160">
        <ele>936.252</ele>
        <time>2019-10-14T19:02:08Z</time>
      </trkpt>
      <trkpt lat="-22.079147" lon="-45.971134">
        <ele>936.517</ele>
        <time>2019-10-14T19:02:10Z</time>
      </trkpt>
      <trkpt lat="-22.079102" lon="-45.971129">
        <ele>937.508</ele>
        <time>2019-10-14T19:02:12Z</time>
      </trkpt>
      <trkpt lat="-22.079054" lon="-45.971126">
        <ele>937.699</ele>
        <time>2019-10-14T19:02:14Z</time>
      </trkpt>
      <trkpt lat="-22.078998" lon="-45.971129">
        <ele>937.597</ele>
        <time>2019-10-14T19:02:16Z</time>
      </trkpt>
      <trkpt lat="-22.078930" lon="-45.971129">
        <ele>938.359</ele>
        <time>2019-10-14T19:02:19Z</time>
      </trkpt>
      <trkpt lat="-22.078869" lon="-45.971130">
        <ele>938.291</ele>
        <time>2019-10-14T19:02:23Z</time>
      </trkpt>
      <trkpt lat="-22.078811" lon="-45.971129">
        <ele>938.233</ele>
        <time>2019-10-14T19:02:25Z</time>
      </trkpt>
      <trkpt lat="-22.078757" lon="-45.971127">
        <ele>938.596</ele>
        <time>2019-10-14T19:02:28Z</time>
      </trkpt>
      <trkpt lat="-22.078705" lon="-45.971141">
        <ele>939.251</ele>
        <time>2019-10-14T19:02:31Z</time>
      </trkpt>
      <trkpt lat="-22.078648" lon="-45.971144">
        <ele>939.827</ele>
        <time>2019-10-14T19:02:34Z</time>
      </trkpt>
      <trkpt lat="-22.078600" lon="-45.971144">
        <ele>940.438</ele>
        <time>2019-10-14T19:02:37Z</time>
      </trkpt>
      <trkpt lat="-22.078551" lon="-45.971140">
        <ele>941.070</ele>
        <time>2019-10-14T19:02:39Z</time>
      </trkpt>
      <trkpt lat="-22.078500" lon="-45.971127">
        <ele>940.917</ele>
        <time>2019-10-14T19:02:42Z</time>
      </trkpt>
      <trkpt lat="-22.078455" lon="-45.971101">
        <ele>941.408</ele>
        <time>2019-10-14T19:02:45Z</time>
      </trkpt>
      <trkpt lat="-22.078401" lon="-45.971057">
        <ele>941.937</ele>
        <time>2019-10-14T19:02:48Z</time>
      </trkpt>
      <trkpt lat="-22.078359" lon="-45.971033">
        <ele>942.415</ele>
        <time>2019-10-14T19:02:51Z</time>
      </trkpt>
      <trkpt lat="-22.078315" lon="-45.971001">
        <ele>943.027</ele>
        <time>2019-10-14T19:02:56Z</time>
      </trkpt>
      <trkpt lat="-22.078272" lon="-45.970980">
        <ele>943.349</ele>
        <time>2019-10-14T19:02:59Z</time>
      </trkpt>
      <trkpt lat="-22.078231" lon="-45.970951">
        <ele>943.661</ele>
        <time>2019-10-14T19:03:02Z</time>
      </trkpt>
      <trkpt lat="-22.078184" lon="-45.970921">
        <ele>944.454</ele>
        <time>2019-10-14T19:03:06Z</time>
      </trkpt>
      <trkpt lat="-22.078145" lon="-45.970893">
        <ele>945.469</ele>
        <time>2019-10-14T19:03:09Z</time>
      </trkpt>
      <trkpt lat="-22.078104" lon="-45.970872">
        <ele>945.825</ele>
        <time>2019-10-14T19:03:13Z</time>
      </trkpt>
      <trkpt lat="-22.078031" lon="-45.970824">
        <ele>946.948</ele>
        <time>2019-10-14T19:03:19Z</time>
      </trkpt>
      <trkpt lat="-22.077991" lon="-45.970800">
        <ele>947.761</ele>
        <time>2019-10-14T19:03:22Z</time>
      </trkpt>
      <trkpt lat="-22.077949" lon="-45.970762">
        <ele>948.117</ele>
        <time>2019-10-14T19:03:27Z</time>
      </trkpt>
      <trkpt lat="-22.077911" lon="-45.970729">
        <ele>948.908</ele>
        <time>2019-10-14T19:03:30Z</time>
      </trkpt>
      <trkpt lat="-22.077870" lon="-45.970705">
        <ele>949.518</ele>
        <time>2019-10-14T19:03:34Z</time>
      </trkpt>
      <trkpt lat="-22.077817" lon="-45.970674">
        <ele>950.656</ele>
        <time>2019-10-14T19:03:40Z</time>
      </trkpt>
      <trkpt lat="-22.077787" lon="-45.970637">
        <ele>951.568</ele>
        <time>2019-10-14T19:03:47Z</time>
      </trkpt>
      <trkpt lat="-22.077736" lon="-45.970588">
        <ele>952.950</ele>
        <time>2019-10-14T19:03:52Z</time>
      </trkpt>
      <trkpt lat="-22.077696" lon="-45.970551">
        <ele>953.492</ele>
        <time>2019-10-14T19:03:56Z</time>
      </trkpt>
      <trkpt lat="-22.077655" lon="-45.970523">
        <ele>953.965</ele>
        <time>2019-10-14T19:03:58Z</time>
      </trkpt>
      <trkpt lat="-22.077615" lon="-45.970491">
        <ele>954.420</ele>
        <time>2019-10-14T19:04:01Z</time>
      </trkpt>
      <trkpt lat="-22.077579" lon="-45.970453">
        <ele>955.076</ele>
        <time>2019-10-14T19:04:05Z</time>
      </trkpt>
      <trkpt lat="-22.077536" lon="-45.970427">
        <ele>955.745</ele>
        <time>2019-10-14T19:04:08Z</time>
      </trkpt>
      <trkpt lat="-22.077494" lon="-45.970402">
        <ele>956.247</ele>
        <time>2019-10-14T19:04:11Z</time>
      </trkpt>
      <trkpt lat="-22.077456" lon="-45.970372">
        <ele>956.811</ele>
        <time>2019-10-14T19:04:14Z</time>
      </trkpt>
      <trkpt lat="-22.077419" lon="-45.970341">
        <ele>957.008</ele>
        <time>2019-10-14T19:04:16Z</time>
      </trkpt>
      <trkpt lat="-22.077376" lon="-45.970308">
        <ele>957.368</ele>
        <time>2019-10-14T19:04:18Z</time>
      </trkpt>
      <trkpt lat="-22.077329" lon="-45.970267">
        <ele>958.066</ele>
        <time>2019-10-14T19:04:21Z</time>
      </trkpt>
      <trkpt lat="-22.077280" lon="-45.970236">
        <ele>958.338</ele>
        <time>2019-10-14T19:04:24Z</time>
      </trkpt>
      <trkpt lat="-22.077216" lon="-45.970202">
        <ele>958.920</ele>
        <time>2019-10-14T19:04:27Z</time>
      </trkpt>
      <trkpt lat="-22.077167" lon="-45.970191">
        <ele>959.242</ele>
        <time>2019-10-14T19:04:29Z</time>
      </trkpt>
      <trkpt lat="-22.077119" lon="-45.970166">
        <ele>959.295</ele>
        <time>2019-10-14T19:04:32Z</time>
      </trkpt>
      <trkpt lat="-22.077079" lon="-45.970127">
        <ele>960.020</ele>
        <time>2019-10-14T19:04:35Z</time>
      </trkpt>
      <trkpt lat="-22.077031" lon="-45.970086">
        <ele>959.486</ele>
        <time>2019-10-14T19:04:37Z</time>
      </trkpt>
      <trkpt lat="-22.076978" lon="-45.970045">
        <ele>959.932</ele>
        <time>2019-10-14T19:04:40Z</time>
      </trkpt>
      <trkpt lat="-22.076929" lon="-45.970016">
        <ele>960.392</ele>
        <time>2019-10-14T19:04:42Z</time>
      </trkpt>
      <trkpt lat="-22.076888" lon="-45.969990">
        <ele>960.211</ele>
        <time>2019-10-14T19:04:44Z</time>
      </trkpt>
      <trkpt lat="-22.076847" lon="-45.969962">
        <ele>960.008</ele>
        <time>2019-10-14T19:04:46Z</time>
      </trkpt>
      <trkpt lat="-22.076745" lon="-45.969895">
        <ele>959.577</ele>
        <time>2019-10-14T19:04:49Z</time>
      </trkpt>
      <trkpt lat="-22.076688" lon="-45.969863">
        <ele>959.145</ele>
        <time>2019-10-14T19:04:51Z</time>
      </trkpt>
      <trkpt lat="-22.071757" lon="-45.966621">
        <ele>936.567</ele>
        <time>2019-10-14T19:06:33Z</time>
      </trkpt>
      <trkpt lat="-22.071708" lon="-45.966608">
        <ele>935.769</ele>
        <time>2019-10-14T19:06:34Z</time>
      </trkpt>
      <trkpt lat="-22.065770" lon="-45.963427">
        <ele>913.071</ele>
        <time>2019-10-14T19:08:25Z</time>
      </trkpt>
      <trkpt lat="-22.065719" lon="-45.963378">
        <ele>912.914</ele>
        <time>2019-10-14T19:08:27Z</time>
      </trkpt>
      <trkpt lat="-22.065673" lon="-45.963306">
        <ele>912.569</ele>
        <time>2019-10-14T19:08:29Z</time>
      </trkpt>
      <trkpt lat="-22.065619" lon="-45.963236">
        <ele>912.585</ele>
        <time>2019-10-14T19:08:31Z</time>
      </trkpt>
      <trkpt lat="-22.065574" lon="-45.963189">
        <ele>913.224</ele>
        <time>2019-10-14T19:08:33Z</time>
      </trkpt>
      <trkpt lat="-22.065539" lon="-45.963144">
        <ele>913.304</ele>
        <time>2019-10-14T19:08:34Z</time>
      </trkpt>
      <trkpt lat="-22.065503" lon="-45.963102">
        <ele>912.414</ele>
        <time>2019-10-14T19:08:36Z</time>
      </trkpt>
      <trkpt lat="-22.065469" lon="-45.963066">
        <ele>912.108</ele>
        <time>2019-10-14T19:08:38Z</time>
      </trkpt>
      <trkpt lat="-22.065426" lon="-45.963027">
        <ele>912.476</ele>
        <time>2019-10-14T19:08:39Z</time>
      </trkpt>
      <trkpt lat="-22.065370" lon="-45.962979">
        <ele>912.644</ele>
        <time>2019-10-14T19:08:41Z</time>
      </trkpt>
      <trkpt lat="-22.065330" lon="-45.962946">
        <ele>912.926</ele>
        <time>2019-10-14T19:08:43Z</time>
      </trkpt>
      <trkpt lat="-22.065255" lon="-45.962876">
        <ele>913.078</ele>
        <time>2019-10-14T19:08:46Z</time>
      </trkpt>
      <trkpt lat="-22.065213" lon="-45.962840">
        <ele>913.190</ele>
        <time>2019-10-14T19:08:47Z</time>
      </trkpt>
      <trkpt lat="-22.065162" lon="-45.962790">
        <ele>913.383</ele>
        <time>2019-10-14T19:08:49Z</time>
      </trkpt>
      <trkpt lat="-22.065110" lon="-45.962745">
        <ele>913.678</ele>
        <time>2019-10-14T19:08:52Z</time>
      </trkpt>
      <trkpt lat="-22.065078" lon="-45.962707">
        <ele>913.514</ele>
        <time>2019-10-14T19:08:53Z</time>
      </trkpt>
      <trkpt lat="-22.065041" lon="-45.962662">
        <ele>914.076</ele>
        <time>2019-10-14T19:08:55Z</time>
      </trkpt>
      <trkpt lat="-22.065003" lon="-45.962623">
        <ele>914.590</ele>
        <time>2019-10-14T19:08:56Z</time>
      </trkpt>
      <trkpt lat="-22.064966" lon="-45.962566">
        <ele>914.719</ele>
        <time>2019-10-14T19:08:58Z</time>
      </trkpt>
      <trkpt lat="-22.064925" lon="-45.962505">
        <ele>915.708</ele>
        <time>2019-10-14T19:09:02Z</time>
      </trkpt>
      <trkpt lat="-22.064901" lon="-45.962462">
        <ele>916.241</ele>
        <time>2019-10-14T19:09:05Z</time>
      </trkpt>
      <trkpt lat="-22.064880" lon="-45.962416">
        <ele>916.629</ele>
        <time>2019-10-14T19:09:09Z</time>
      </trkpt>
      <trkpt lat="-22.064854" lon="-45.962372">
        <ele>917.281</ele>
        <time>2019-10-14T19:09:12Z</time>
      </trkpt>
      <trkpt lat="-22.064829" lon="-45.962330">
        <ele>917.893</ele>
        <time>2019-10-14T19:09:16Z</time>
      </trkpt>
      <trkpt lat="-22.064796" lon="-45.962286">
        <ele>919.245</ele>
        <time>2019-10-14T19:09:21Z</time>
      </trkpt>
      <trkpt lat="-22.064781" lon="-45.962240">
        <ele>920.368</ele>
        <time>2019-10-14T19:09:26Z</time>
      </trkpt>
      <trkpt lat="-22.064767" lon="-45.962190">
        <ele>921.033</ele>
        <time>2019-10-14T19:09:32Z</time>
      </trkpt>
      <trkpt lat="-22.064740" lon="-45.962144">
        <ele>923.039</ele>
        <time>2019-10-14T19:09:43Z</time>
      </trkpt>
      <trkpt lat="-22.064716" lon="-45.962097">
        <ele>923.867</ele>
        <time>2019-10-14T19:09:49Z</time>
      </trkpt>
      <trkpt lat="-22.064692" lon="-45.962050">
        <ele>924.781</ele>
        <time>2019-10-14T19:09:52Z</time>
      </trkpt>
      <trkpt lat="-22.064665" lon="-45.961992">
        <ele>925.219</ele>
        <time>2019-10-14T19:10:01Z</time>
      </trkpt>
      <trkpt lat="-22.064643" lon="-45.961950">
        <ele>925.808</ele>
        <time>2019-10-14T19:10:05Z</time>
      </trkpt>
      <trkpt lat="-22.064614" lon="-45.961901">
        <ele>926.610</ele>
        <time>2019-10-14T19:10:10Z</time>
      </trkpt>
      <trkpt lat="-22.064586" lon="-45.961857">
        <ele>927.368</ele>
        <time>2019-10-14T19:10:15Z</time>
      </trkpt>
      <trkpt lat="-22.064542" lon="-45.961808">
        <ele>927.940</ele>
        <time>2019-10-14T19:10:21Z</time>
      </trkpt>
      <trkpt lat="-22.064508" lon="-45.961768">
        <ele>928.312</ele>
        <time>2019-10-14T19:10:25Z</time>
      </trkpt>
      <trkpt lat="-22.064471" lon="-45.961740">
        <ele>928.984</ele>
        <time>2019-10-14T19:10:31Z</time>
      </trkpt>
      <trkpt lat="-22.064430" lon="-45.961705">
        <ele>929.857</ele>
        <time>2019-10-14T19:10:37Z</time>
      </trkpt>
      <trkpt lat="-22.064392" lon="-45.961669">
        <ele>930.472</ele>
        <time>2019-10-14T19:10:40Z</time>
      </trkpt>
      <trkpt lat="-22.064349" lon="-45.961635">
        <ele>931.178</ele>
        <time>2019-10-14T19:10:45Z</time>
      </trkpt>
      <trkpt lat="-22.064305" lon="-45.961582">
        <ele>932.148</ele>
        <time>2019-10-14T19:10:51Z</time>
      </trkpt>
      <trkpt lat="-22.064260" lon="-45.961540">
        <ele>933.561</ele>
        <time>2019-10-14T19:10:57Z</time>
      </trkpt>
      <trkpt lat="-22.064214" lon="-45.961502">
        <ele>934.517</ele>
        <time>2019-10-14T19:11:04Z</time>
      </trkpt>
      <trkpt lat="-22.064173" lon="-45.961460">
        <ele>936.008</ele>
        <time>2019-10-14T19:11:10Z</time>
      </trkpt>
      <trkpt lat="-22.064133" lon="-45.961396">
        <ele>937.128</ele>
        <time>2019-10-14T19:11:17Z</time>
      </trkpt>
      <trkpt lat="-22.064084" lon="-45.961344">
        <ele>938.496</ele>
        <time>2019-10-14T19:11:24Z</time>
      </trkpt>
      <trkpt lat="-22.064055" lon="-45.961306">
        <ele>939.528</ele>
        <time>2019-10-14T19:11:30Z</time>
      </trkpt>
      <trkpt lat="-22.064039" lon="-45.961247">
        <ele>940.750</ele>
        <time>2019-10-14T19:11:36Z</time>
      </trkpt>
      <trkpt lat="-22.063992" lon="-45.961167">
        <ele>942.912</ele>
        <time>2019-10-14T19:11:51Z</time>
      </trkpt>
      <trkpt lat="-22.063964" lon="-45.961125">
        <ele>943.895</ele>
        <time>2019-10-14T19:11:55Z</time>
      </trkpt>
      <trkpt lat="-22.063927" lon="-45.961074">
        <ele>944.990</ele>
        <time>2019-10-14T19:12:02Z</time>
      </trkpt>
      <trkpt lat="-22.063902" lon="-45.961027">
        <ele>946.286</ele>
        <time>2019-10-14T19:12:11Z</time>
      </trkpt>
      <trkpt lat="-22.063877" lon="-45.960979">
        <ele>947.281</ele>
        <time>2019-10-14T19:12:14Z</time>
      </trkpt>
      <trkpt lat="-22.063825" lon="-45.960937">
        <ele>947.761</ele>
        <time>2019-10-14T19:12:17Z</time>
      </trkpt>
      <trkpt lat="-22.063775" lon="-45.960890">
        <ele>948.917</ele>
        <time>2019-10-14T19:12:22Z</time>
      </trkpt>
      <trkpt lat="-22.063738" lon="-45.960854">
        <ele>950.108</ele>
        <time>2019-10-14T19:12:31Z</time>
      </trkpt>
      <trkpt lat="-22.063707" lon="-45.960819">
        <ele>950.862</ele>
        <time>2019-10-14T19:12:35Z</time>
      </trkpt>
      <trkpt lat="-22.063679" lon="-45.960781">
        <ele>951.750</ele>
        <time>2019-10-14T19:12:42Z</time>
      </trkpt>
      <trkpt lat="-22.063642" lon="-45.960744">
        <ele>952.762</ele>
        <time>2019-10-14T19:12:49Z</time>
      </trkpt>
      <trkpt lat="-22.063604" lon="-45.960702">
        <ele>953.424</ele>
        <time>2019-10-14T19:12:52Z</time>
      </trkpt>
      <trkpt lat="-22.063534" lon="-45.960653">
        <ele>954.016</ele>
        <time>2019-10-14T19:12:55Z</time>
      </trkpt>
      <trkpt lat="-22.063482" lon="-45.960610">
        <ele>954.739</ele>
        <time>2019-10-14T19:12:59Z</time>
      </trkpt>
      <trkpt lat="-22.063439" lon="-45.960584">
        <ele>955.684</ele>
        <time>2019-10-14T19:13:02Z</time>
      </trkpt>
      <trkpt lat="-22.063393" lon="-45.960561">
        <ele>956.580</ele>
        <time>2019-10-14T19:13:05Z</time>
      </trkpt>
      <trkpt lat="-22.063347" lon="-45.960540">
        <ele>957.481</ele>
        <time>2019-10-14T19:13:11Z</time>
      </trkpt>
      <trkpt lat="-22.063278" lon="-45.960519">
        <ele>958.061</ele>
        <time>2019-10-14T19:13:15Z</time>
      </trkpt>
      <trkpt lat="-22.063217" lon="-45.960503">
        <ele>958.517</ele>
        <time>2019-10-14T19:13:20Z</time>
      </trkpt>
      <trkpt lat="-22.063164" lon="-45.960503">
        <ele>958.808</ele>
        <time>2019-10-14T19:13:27Z</time>
      </trkpt>
      <trkpt lat="-22.063099" lon="-45.960483">
        <ele>958.482</ele>
        <time>2019-10-14T19:15:56Z</time>
      </trkpt>
      <trkpt lat="-22.054984" lon="-45.960933">
        <ele>908.410</ele>
        <time>2019-10-14T19:17:37Z</time>
      </trkpt>
      <trkpt lat="-22.054936" lon="-45.960913">
        <ele>908.932</ele>
        <time>2019-10-14T19:17:40Z</time>
      </trkpt>
      <trkpt lat="-22.054891" lon="-45.960886">
        <ele>909.254</ele>
        <time>2019-10-14T19:17:43Z</time>
      </trkpt>
      <trkpt lat="-22.054847" lon="-45.960866">
        <ele>909.756</ele>
        <time>2019-10-14T19:17:46Z</time>
      </trkpt>
      <trkpt lat="-22.054792" lon="-45.960840">
        <ele>910.469</ele>
        <time>2019-10-14T19:17:50Z</time>
      </trkpt>
      <trkpt lat="-22.054742" lon="-45.960827">
        <ele>911.164</ele>
        <time>2019-10-14T19:17:55Z</time>
      </trkpt>
      <trkpt lat="-22.054699" lon="-45.960806">
        <ele>911.760</ele>
        <time>2019-10-14T19:18:01Z</time>
      </trkpt>
      <trkpt lat="-22.054587" lon="-45.960765">
        <ele>912.913</ele>
        <time>2019-10-14T19:18:10Z</time>
      </trkpt>
      <trkpt lat="-22.054525" lon="-45.960746">
        <ele>913.443</ele>
        <time>2019-10-14T19:18:14Z</time>
      </trkpt>
      <trkpt lat="-22.054465" lon="-45.960748">
        <ele>914.107</ele>
        <time>2019-10-14T19:18:19Z</time>
      </trkpt>
      <trkpt lat="-22.054416" lon="-45.960761">
        <ele>914.608</ele>
        <time>2019-10-14T19:18:23Z</time>
      </trkpt>
      <trkpt lat="-22.054373" lon="-45.960786">
        <ele>915.015</ele>
        <time>2019-10-14T19:18:27Z</time>
      </trkpt>
      <trkpt lat="-22.054330" lon="-45.960805">
        <ele>915.273</ele>
        <time>2019-10-14T19:18:29Z</time>
      </trkpt>
      <trkpt lat="-22.054287" lon="-45.960837">
        <ele>915.315</ele>
        <time>2019-10-14T19:18:32Z</time>
      </trkpt>
      <trkpt lat="-22.054242" lon="-45.960875">
        <ele>915.737</ele>
        <time>2019-10-14T19:18:36Z</time>
      </trkpt>
      <trkpt lat="-22.054203" lon="-45.960917">
        <ele>916.269</ele>
        <time>2019-10-14T19:18:40Z</time>
      </trkpt>
      <trkpt lat="-22.054176" lon="-45.960972">
        <ele>916.742</ele>
        <time>2019-10-14T19:18:43Z</time>
      </trkpt>
      <trkpt lat="-22.054146" lon="-45.961019">
        <ele>917.257</ele>
        <time>2019-10-14T19:18:47Z</time>
      </trkpt>
      <trkpt lat="-22.054115" lon="-45.961064">
        <ele>917.893</ele>
        <time>2019-10-14T19:18:52Z</time>
      </trkpt>
      <trkpt lat="-22.054083" lon="-45.961115">
        <ele>918.141</ele>
        <time>2019-10-14T19:18:55Z</time>
      </trkpt>
      <trkpt lat="-22.054054" lon="-45.961160">
        <ele>918.581</ele>
        <time>2019-10-14T19:18:59Z</time>
      </trkpt>
      <trkpt lat="-22.054035" lon="-45.961204">
        <ele>918.909</ele>
        <time>2019-10-14T19:19:02Z</time>
      </trkpt>
      <trkpt lat="-22.054021" lon="-45.961251">
        <ele>919.108</ele>
        <time>2019-10-14T19:19:05Z</time>
      </trkpt>
      <trkpt lat="-22.054007" lon="-45.961304">
        <ele>919.668</ele>
        <time>2019-10-14T19:19:09Z</time>
      </trkpt>
      <trkpt lat="-22.053980" lon="-45.961363">
        <ele>919.486</ele>
        <time>2019-10-14T19:19:11Z</time>
      </trkpt>
      <trkpt lat="-22.053943" lon="-45.961409">
        <ele>918.738</ele>
        <time>2019-10-14T19:19:14Z</time>
      </trkpt>
      <trkpt lat="-22.053899" lon="-45.961441">
        <ele>918.660</ele>
        <time>2019-10-14T19:19:15Z</time>
      </trkpt>
      <trkpt lat="-22.053850" lon="-45.961464">
        <ele>918.462</ele>
        <time>2019-10-14T19:19:16Z</time>
      </trkpt>
      <trkpt lat="-22.053795" lon="-45.961479">
        <ele>918.435</ele>
        <time>2019-10-14T19:19:18Z</time>
      </trkpt>
      <trkpt lat="-22.053722" lon="-45.961484">
        <ele>918.490</ele>
        <time>2019-10-14T19:19:20Z</time>
      </trkpt>
      <trkpt lat="-22.053649" lon="-45.961473">
        <ele>918.486</ele>
        <time>2019-10-14T19:19:22Z</time>
      </trkpt>
      <trkpt lat="-22.053598" lon="-45.961456">
        <ele>917.799</ele>
        <time>2019-10-14T19:19:24Z</time>
      </trkpt>
      <trkpt lat="-22.053537" lon="-45.961425">
        <ele>918.507</ele>
        <time>2019-10-14T19:19:26Z</time>
      </trkpt>
      <trkpt lat="-22.053491" lon="-45.961393">
        <ele>918.927</ele>
        <time>2019-10-14T19:19:28Z</time>
      </trkpt>
      <trkpt lat="-22.053452" lon="-45.961365">
        <ele>919.408</ele>
        <time>2019-10-14T19:19:30Z</time>
      </trkpt>
      <trkpt lat="-22.053400" lon="-45.961319">
        <ele>919.573</ele>
        <time>2019-10-14T19:19:33Z</time>
      </trkpt>
      <trkpt lat="-22.053357" lon="-45.961253">
        <ele>919.961</ele>
        <time>2019-10-14T19:19:36Z</time>
      </trkpt>
      <trkpt lat="-22.053337" lon="-45.961205">
        <ele>920.433</ele>
        <time>2019-10-14T19:19:38Z</time>
      </trkpt>
      <trkpt lat="-22.053308" lon="-45.961145">
        <ele>920.725</ele>
        <time>2019-10-14T19:19:42Z</time>
      </trkpt>
      <trkpt lat="-22.053294" lon="-45.961098">
        <ele>920.997</ele>
        <time>2019-10-14T19:19:45Z</time>
      </trkpt>
      <trkpt lat="-22.053265" lon="-45.961029">
        <ele>920.950</ele>
        <time>2019-10-14T19:19:47Z</time>
      </trkpt>
      <trkpt lat="-22.053231" lon="-45.960977">
        <ele>921.565</ele>
        <time>2019-10-14T19:19:51Z</time>
      </trkpt>
      <trkpt lat="-22.053201" lon="-45.960927">
        <ele>921.721</ele>
        <time>2019-10-14T19:19:53Z</time>
      </trkpt>
      <trkpt lat="-22.053165" lon="-45.960878">
        <ele>922.197</ele>
        <time>2019-10-14T19:19:56Z</time>
      </trkpt>
      <trkpt lat="-22.053109" lon="-45.960840">
        <ele>922.623</ele>
        <time>2019-10-14T19:20:00Z</time>
      </trkpt>
      <trkpt lat="-22.053068" lon="-45.960815">
        <ele>923.025</ele>
        <time>2019-10-14T19:20:03Z</time>
      </trkpt>
      <trkpt lat="-22.053023" lon="-45.960798">
        <ele>923.608</ele>
        <time>2019-10-14T19:20:06Z</time>
      </trkpt>
      <trkpt lat="-22.052973" lon="-45.960779">
        <ele>924.653</ele>
        <time>2019-10-14T19:20:10Z</time>
      </trkpt>
      <trkpt lat="-22.052924" lon="-45.960768">
        <ele>925.271</ele>
        <time>2019-10-14T19:20:12Z</time>
      </trkpt>
      <trkpt lat="-22.052879" lon="-45.960745">
        <ele>925.763</ele>
        <time>2019-10-14T19:20:16Z</time>
      </trkpt>
      <trkpt lat="-22.052830" lon="-45.960726">
        <ele>926.145</ele>
        <time>2019-10-14T19:20:18Z</time>
      </trkpt>
      <trkpt lat="-22.052780" lon="-45.960722">
        <ele>926.727</ele>
        <time>2019-10-14T19:20:21Z</time>
      </trkpt>
      <trkpt lat="-22.052719" lon="-45.960717">
        <ele>927.440</ele>
        <time>2019-10-14T19:20:25Z</time>
      </trkpt>
      <trkpt lat="-22.052668" lon="-45.960713">
        <ele>927.985</ele>
        <time>2019-10-14T19:20:28Z</time>
      </trkpt>
      <trkpt lat="-22.052621" lon="-45.960704">
        <ele>928.571</ele>
        <time>2019-10-14T19:20:32Z</time>
      </trkpt>
      <trkpt lat="-22.052577" lon="-45.960695">
        <ele>928.967</ele>
        <time>2019-10-14T19:20:35Z</time>
      </trkpt>
      <trkpt lat="-22.052521" lon="-45.960685">
        <ele>929.381</ele>
        <time>2019-10-14T19:20:38Z</time>
      </trkpt>
      <trkpt lat="-22.052459" lon="-45.960668">
        <ele>929.619</ele>
        <time>2019-10-14T19:20:42Z</time>
      </trkpt>
      <trkpt lat="-22.052414" lon="-45.960641">
        <ele>930.308</ele>
        <time>2019-10-14T19:20:45Z</time>
      </trkpt>
      <trkpt lat="-22.052348" lon="-45.960637">
        <ele>931.140</ele>
        <time>2019-10-14T19:20:50Z</time>
      </trkpt>
      <trkpt lat="-22.052303" lon="-45.960635">
        <ele>931.398</ele>
        <time>2019-10-14T19:20:52Z</time>
      </trkpt>
      <trkpt lat="-22.052243" lon="-45.960622">
        <ele>931.860</ele>
        <time>2019-10-14T19:20:56Z</time>
      </trkpt>
      <trkpt lat="-22.052191" lon="-45.960612">
        <ele>932.452</ele>
        <time>2019-10-14T19:21:00Z</time>
      </trkpt>
      <trkpt lat="-22.052147" lon="-45.960600">
        <ele>932.534</ele>
        <time>2019-10-14T19:21:01Z</time>
      </trkpt>
      <trkpt lat="-22.052063" lon="-45.960580">
        <ele>933.227</ele>
        <time>2019-10-14T19:21:05Z</time>
      </trkpt>
      <trkpt lat="-22.052018" lon="-45.960565">
        <ele>933.762</ele>
        <time>2019-10-14T19:21:07Z</time>
      </trkpt>
      <trkpt lat="-22.051973" lon="-45.960550">
        <ele>934.168</ele>
        <time>2019-10-14T19:21:08Z</time>
      </trkpt>
      <trkpt lat="-22.051929" lon="-45.960529">
        <ele>934.071</ele>
        <time>2019-10-14T19:21:10Z</time>
      </trkpt>
      <trkpt lat="-22.051869" lon="-45.960504">
        <ele>934.541</ele>
        <time>2019-10-14T19:21:14Z</time>
      </trkpt>
      <trkpt lat="-22.051775" lon="-45.960446">
        <ele>933.915</ele>
        <time>2019-10-14T19:21:19Z</time>
      </trkpt>
      <trkpt lat="-22.051717" lon="-45.960428">
        <ele>932.808</ele>
        <time>2019-10-14T19:21:22Z</time>
      </trkpt>
      <trkpt lat="-22.050830" lon="-45.959030">
        <ele>930.411</ele>
        <time>2019-10-14T19:21:50Z</time>
      </trkpt>
      <trkpt lat="-22.050798" lon="-45.958992">
        <ele>930.219</ele>
        <time>2019-10-14T19:21:53Z</time>
      </trkpt>
      <trkpt lat="-22.050759" lon="-45.958936">
        <ele>930.561</ele>
        <time>2019-10-14T19:21:55Z</time>
      </trkpt>
      <trkpt lat="-22.050726" lon="-45.958897">
        <ele>930.443</ele>
        <time>2019-10-14T19:21:57Z</time>
      </trkpt>
      <trkpt lat="-22.050685" lon="-45.958856">
        <ele>930.765</ele>
        <time>2019-10-14T19:21:58Z</time>
      </trkpt>
      <trkpt lat="-22.050641" lon="-45.958804">
        <ele>930.828</ele>
        <time>2019-10-14T19:22:00Z</time>
      </trkpt>
      <trkpt lat="-22.050581" lon="-45.958726">
        <ele>931.283</ele>
        <time>2019-10-14T19:22:03Z</time>
      </trkpt>
      <trkpt lat="-22.050554" lon="-45.958676">
        <ele>931.369</ele>
        <time>2019-10-14T19:22:05Z</time>
      </trkpt>
      <trkpt lat="-22.050525" lon="-45.958622">
        <ele>932.252</ele>
        <time>2019-10-14T19:22:07Z</time>
      </trkpt>
      <trkpt lat="-22.050499" lon="-45.958574">
        <ele>932.553</ele>
        <time>2019-10-14T19:22:09Z</time>
      </trkpt>
      <trkpt lat="-22.050473" lon="-45.958529">
        <ele>932.908</ele>
        <time>2019-10-14T19:22:11Z</time>
      </trkpt>
      <trkpt lat="-22.050451" lon="-45.958486">
        <ele>933.708</ele>
        <time>2019-10-14T19:22:14Z</time>
      </trkpt>
      <trkpt lat="-22.050423" lon="-45.958436">
        <ele>934.169</ele>
        <time>2019-10-14T19:22:16Z</time>
      </trkpt>
      <trkpt lat="-22.050388" lon="-45.958379">
        <ele>934.417</ele>
        <time>2019-10-14T19:22:19Z</time>
      </trkpt>
      <trkpt lat="-22.050345" lon="-45.958318">
        <ele>934.539</ele>
        <time>2019-10-14T19:22:23Z</time>
      </trkpt>
      <trkpt lat="-22.050317" lon="-45.958274">
        <ele>934.911</ele>
        <time>2019-10-14T19:22:26Z</time>
      </trkpt>
      <trkpt lat="-22.050279" lon="-45.958226">
        <ele>935.143</ele>
        <time>2019-10-14T19:22:28Z</time>
      </trkpt>
      <trkpt lat="-22.050247" lon="-45.958184">
        <ele>935.096</ele>
        <time>2019-10-14T19:22:31Z</time>
      </trkpt>
      <trkpt lat="-22.050211" lon="-45.958139">
        <ele>935.321</ele>
        <time>2019-10-14T19:22:34Z</time>
      </trkpt>
      <trkpt lat="-22.050180" lon="-45.958088">
        <ele>935.327</ele>
        <time>2019-10-14T19:22:37Z</time>
      </trkpt>
      <trkpt lat="-22.050112" lon="-45.958023">
        <ele>935.041</ele>
        <time>2019-10-14T19:22:40Z</time>
      </trkpt>
      <trkpt lat="-22.050077" lon="-45.957980">
        <ele>934.581</ele>
        <time>2019-10-14T19:22:42Z</time>
      </trkpt>
      <trkpt lat="-22.050040" lon="-45.957932">
        <ele>934.009</ele>
        <time>2019-10-14T19:22:45Z</time>
      </trkpt>
      <trkpt lat="-22.049992" lon="-45.957886">
        <ele>933.408</ele>
        <time>2019-10-14T19:22:46Z</time>
      </trkpt>
      <trkpt lat="-22.049927" lon="-45.957835">
        <ele>932.468</ele>
        <time>2019-10-14T19:22:48Z</time>
      </trkpt>
      <trkpt lat="-22.046228" lon="-45.956795">
        <ele>921.696</ele>
        <time>2019-10-14T19:23:46Z</time>
      </trkpt>
      <trkpt lat="-22.046184" lon="-45.956770">
        <ele>922.228</ele>
        <time>2019-10-14T19:23:48Z</time>
      </trkpt>
      <trkpt lat="-22.046118" lon="-45.956711">
        <ele>922.260</ele>
        <time>2019-10-14T19:23:52Z</time>
      </trkpt>
      <trkpt lat="-22.046067" lon="-45.956684">
        <ele>921.942</ele>
        <time>2019-10-14T19:23:54Z</time>
      </trkpt>
      <trkpt lat="-22.046019" lon="-45.956662">
        <ele>921.525</ele>
        <time>2019-10-14T19:23:56Z</time>
      </trkpt>
      <trkpt lat="-22.045938" lon="-45.956635">
        <ele>920.920</ele>
        <time>2019-10-14T19:23:58Z</time>
      </trkpt>
      <trkpt lat="-22.045881" lon="-45.956611">
        <ele>920.396</ele>
        <time>2019-10-14T19:24:00Z</time>
      </trkpt>
      <trkpt lat="-22.042452" lon="-45.954085">
        <ele>898.849</ele>
        <time>2019-10-14T19:25:09Z</time>
      </trkpt>
      <trkpt lat="-22.042498" lon="-45.954042">
        <ele>899.102</ele>
        <time>2019-10-14T19:25:12Z</time>
      </trkpt>
      <trkpt lat="-22.042529" lon="-45.954004">
        <ele>898.822</ele>
        <time>2019-10-14T19:25:13Z</time>
      </trkpt>
      <trkpt lat="-22.042570" lon="-45.953950">
        <ele>898.508</ele>
        <time>2019-10-14T19:25:16Z</time>
      </trkpt>
      <trkpt lat="-22.042590" lon="-45.953880">
        <ele>898.548</ele>
        <time>2019-10-14T19:25:18Z</time>
      </trkpt>
      <trkpt lat="-22.042660" lon="-45.953810">
        <ele>898.646</ele>
        <time>2019-10-14T19:25:21Z</time>
      </trkpt>
      <trkpt lat="-22.042700" lon="-45.953777">
        <ele>898.618</ele>
        <time>2019-10-14T19:25:22Z</time>
      </trkpt>
      <trkpt lat="-22.042732" lon="-45.953739">
        <ele>898.580</ele>
        <time>2019-10-14T19:25:24Z</time>
      </trkpt>
      <trkpt lat="-22.042773" lon="-45.953694">
        <ele>898.832</ele>
        <time>2019-10-14T19:25:26Z</time>
      </trkpt>
      <trkpt lat="-22.042804" lon="-45.953646">
        <ele>898.825</ele>
        <time>2019-10-14T19:25:29Z</time>
      </trkpt>
      <trkpt lat="-22.042831" lon="-45.953605">
        <ele>899.030</ele>
        <time>2019-10-14T19:25:30Z</time>
      </trkpt>
      <trkpt lat="-22.042876" lon="-45.953545">
        <ele>899.046</ele>
        <time>2019-10-14T19:25:33Z</time>
      </trkpt>
      <trkpt lat="-22.042922" lon="-45.953489">
        <ele>898.688</ele>
        <time>2019-10-14T19:25:35Z</time>
      </trkpt>
      <trkpt lat="-22.042959" lon="-45.953449">
        <ele>898.524</ele>
        <time>2019-10-14T19:25:38Z</time>
      </trkpt>
      <trkpt lat="-22.042998" lon="-45.953408">
        <ele>898.826</ele>
        <time>2019-10-14T19:25:40Z</time>
      </trkpt>
      <trkpt lat="-22.043027" lon="-45.953369">
        <ele>898.708</ele>
        <time>2019-10-14T19:25:42Z</time>
      </trkpt>
      <trkpt lat="-22.043060" lon="-45.953328">
        <ele>898.672</ele>
        <time>2019-10-14T19:25:44Z</time>
      </trkpt>
      <trkpt lat="-22.043097" lon="-45.953291">
        <ele>898.840</ele>
        <time>2019-10-14T19:25:47Z</time>
      </trkpt>
      <trkpt lat="-22.043136" lon="-45.953236">
        <ele>898.962</ele>
        <time>2019-10-14T19:25:50Z</time>
      </trkpt>
      <trkpt lat="-22.043168" lon="-45.953188">
        <ele>899.214</ele>
        <time>2019-10-14T19:25:51Z</time>
      </trkpt>
      <trkpt lat="-22.043209" lon="-45.953139">
        <ele>899.196</ele>
        <time>2019-10-14T19:25:53Z</time>
      </trkpt>
      <trkpt lat="-22.043289" lon="-45.953030">
        <ele>899.389</ele>
        <time>2019-10-14T19:25:58Z</time>
      </trkpt>
      <trkpt lat="-22.043320" lon="-45.952990">
        <ele>899.494</ele>
        <time>2019-10-14T19:25:59Z</time>
      </trkpt>
      <trkpt lat="-22.043357" lon="-45.952946">
        <ele>899.510</ele>
        <time>2019-10-14T19:26:02Z</time>
      </trkpt>
      <trkpt lat="-22.043400" lon="-45.952897">
        <ele>899.595</ele>
        <time>2019-10-14T19:26:04Z</time>
      </trkpt>
      <trkpt lat="-22.043434" lon="-45.952850">
        <ele>899.749</ele>
        <time>2019-10-14T19:26:06Z</time>
      </trkpt>
      <trkpt lat="-22.043473" lon="-45.952804">
        <ele>899.623</ele>
        <time>2019-10-14T19:26:08Z</time>
      </trkpt>
      <trkpt lat="-22.043528" lon="-45.952731">
        <ele>899.508</ele>
        <time>2019-10-14T19:26:12Z</time>
      </trkpt>
      <trkpt lat="-22.043568" lon="-45.952680">
        <ele>899.683</ele>
        <time>2019-10-14T19:26:14Z</time>
      </trkpt>
      <trkpt lat="-22.043609" lon="-45.952631">
        <ele>900.031</ele>
        <time>2019-10-14T19:26:17Z</time>
      </trkpt>
      <trkpt lat="-22.043660" lon="-45.952561">
        <ele>900.273</ele>
        <time>2019-10-14T19:26:19Z</time>
      </trkpt>
      <trkpt lat="-22.043703" lon="-45.952499">
        <ele>900.115</ele>
        <time>2019-10-14T19:26:24Z</time>
      </trkpt>
      <trkpt lat="-22.043750" lon="-45.952453">
        <ele>900.467</ele>
        <time>2019-10-14T19:26:26Z</time>
      </trkpt>
      <trkpt lat="-22.043796" lon="-45.952386">
        <ele>900.510</ele>
        <time>2019-10-14T19:26:30Z</time>
      </trkpt>
      <trkpt lat="-22.043826" lon="-45.952334">
        <ele>900.235</ele>
        <time>2019-10-14T19:26:34Z</time>
      </trkpt>
      <trkpt lat="-22.043861" lon="-45.952287">
        <ele>900.291</ele>
        <time>2019-10-14T19:26:35Z</time>
      </trkpt>
      <trkpt lat="-22.043892" lon="-45.952245">
        <ele>900.091</ele>
        <time>2019-10-14T19:26:37Z</time>
      </trkpt>
      <trkpt lat="-22.043933" lon="-45.952199">
        <ele>900.081</ele>
        <time>2019-10-14T19:26:39Z</time>
      </trkpt>
      <trkpt lat="-22.044014" lon="-45.952165">
        <ele>899.919</ele>
        <time>2019-10-14T19:26:42Z</time>
      </trkpt>
      <trkpt lat="-22.044116" lon="-45.952168">
        <ele>899.808</ele>
        <time>2019-10-14T19:26:47Z</time>
      </trkpt>
      <trkpt lat="-22.044172" lon="-45.952165">
        <ele>899.823</ele>
        <time>2019-10-14T19:26:50Z</time>
      </trkpt>
      <trkpt lat="-22.044225" lon="-45.952160">
        <ele>899.931</ele>
        <time>2019-10-14T19:26:51Z</time>
      </trkpt>
      <trkpt lat="-22.044278" lon="-45.952160">
        <ele>900.353</ele>
        <time>2019-10-14T19:26:53Z</time>
      </trkpt>
      <trkpt lat="-22.044365" lon="-45.952165">
        <ele>900.485</ele>
        <time>2019-10-14T19:26:55Z</time>
      </trkpt>
      <trkpt lat="-22.044425" lon="-45.952168">
        <ele>900.527</ele>
        <time>2019-10-14T19:26:58Z</time>
      </trkpt>
      <trkpt lat="-22.044474" lon="-45.952164">
        <ele>900.850</ele>
        <time>2019-10-14T19:27:00Z</time>
      </trkpt>
      <trkpt lat="-22.044525" lon="-45.952144">
        <ele>900.715</ele>
        <time>2019-10-14T19:27:43Z</time>
      </trkpt>
      <trkpt lat="-22.044580" lon="-45.952126">
        <ele>901.031</ele>
        <time>2019-10-14T19:27:46Z</time>
      </trkpt>
      <trkpt lat="-22.044716" lon="-45.952120">
        <ele>900.994</ele>
        <time>2019-10-14T19:28:25Z</time>
      </trkpt>
      <trkpt lat="-22.044770" lon="-45.952118">
        <ele>901.057</ele>
        <time>2019-10-14T19:28:26Z</time>
      </trkpt>
      <trkpt lat="-22.044874" lon="-45.952103">
        <ele>901.122</ele>
        <time>2019-10-14T19:28:31Z</time>
      </trkpt>
      <trkpt lat="-22.044943" lon="-45.952114">
        <ele>900.908</ele>
        <time>2019-10-14T19:28:33Z</time>
      </trkpt>
      <trkpt lat="-22.044992" lon="-45.952120">
        <ele>901.243</ele>
        <time>2019-10-14T19:28:35Z</time>
      </trkpt>
      <trkpt lat="-22.045071" lon="-45.952113">
        <ele>901.521</ele>
        <time>2019-10-14T19:28:38Z</time>
      </trkpt>
      <trkpt lat="-22.045122" lon="-45.952102">
        <ele>901.673</ele>
        <time>2019-10-14T19:28:40Z</time>
      </trkpt>
      <trkpt lat="-22.045172" lon="-45.952093">
        <ele>901.835</ele>
        <time>2019-10-14T19:28:42Z</time>
      </trkpt>
      <trkpt lat="-22.045230" lon="-45.952079">
        <ele>902.727</ele>
        <time>2019-10-14T19:28:45Z</time>
      </trkpt>
      <trkpt lat="-22.045278" lon="-45.952056">
        <ele>903.240</ele>
        <time>2019-10-14T19:28:48Z</time>
      </trkpt>
      <trkpt lat="-22.045358" lon="-45.952032">
        <ele>904.425</ele>
        <time>2019-10-14T19:28:52Z</time>
      </trkpt>
      <trkpt lat="-22.045403" lon="-45.952015">
        <ele>904.711</ele>
        <time>2019-10-14T19:28:55Z</time>
      </trkpt>
      <trkpt lat="-22.045449" lon="-45.952007">
        <ele>904.927</ele>
        <time>2019-10-14T19:28:59Z</time>
      </trkpt>
      <trkpt lat="-22.045560" lon="-45.951953">
        <ele>906.368</ele>
        <time>2019-10-14T19:29:32Z</time>
      </trkpt>
      <trkpt lat="-22.045611" lon="-45.951941">
        <ele>906.714</ele>
        <time>2019-10-14T19:29:34Z</time>
      </trkpt>
      <trkpt lat="-22.045679" lon="-45.951930">
        <ele>907.508</ele>
        <time>2019-10-14T19:29:36Z</time>
      </trkpt>
      <trkpt lat="-22.045744" lon="-45.951908">
        <ele>908.976</ele>
        <time>2019-10-14T19:29:40Z</time>
      </trkpt>
      <trkpt lat="-22.045810" lon="-45.951874">
        <ele>909.884</ele>
        <time>2019-10-14T19:29:45Z</time>
      </trkpt>
      <trkpt lat="-22.045856" lon="-45.951870">
        <ele>911.646</ele>
        <time>2019-10-14T19:29:56Z</time>
      </trkpt>
      <trkpt lat="-22.045952" lon="-45.951848">
        <ele>912.238</ele>
        <time>2019-10-14T19:30:00Z</time>
      </trkpt>
      <trkpt lat="-22.046009" lon="-45.951823">
        <ele>912.870</ele>
        <time>2019-10-14T19:30:02Z</time>
      </trkpt>
      <trkpt lat="-22.046071" lon="-45.951784">
        <ele>913.693</ele>
        <time>2019-10-14T19:30:06Z</time>
      </trkpt>
      <trkpt lat="-22.046129" lon="-45.951763">
        <ele>915.178</ele>
        <time>2019-10-14T19:30:13Z</time>
      </trkpt>
      <trkpt lat="-22.046176" lon="-45.951769">
        <ele>916.054</ele>
        <time>2019-10-14T19:30:19Z</time>
      </trkpt>
      <trkpt lat="-22.046228" lon="-45.951762">
        <ele>916.824</ele>
        <time>2019-10-14T19:30:24Z</time>
      </trkpt>
      <trkpt lat="-22.046328" lon="-45.951739">
        <ele>917.904</ele>
        <time>2019-10-14T19:30:29Z</time>
      </trkpt>
      <trkpt lat="-22.046387" lon="-45.951727">
        <ele>918.214</ele>
        <time>2019-10-14T19:30:33Z</time>
      </trkpt>
      <trkpt lat="-22.046438" lon="-45.951714">
        <ele>919.908</ele>
        <time>2019-10-14T19:30:40Z</time>
      </trkpt>
      <trkpt lat="-22.046479" lon="-45.951692">
        <ele>921.066</ele>
        <time>2019-10-14T19:30:49Z</time>
      </trkpt>
      <trkpt lat="-22.046527" lon="-45.951680">
        <ele>921.794</ele>
        <time>2019-10-14T19:30:55Z</time>
      </trkpt>
      <trkpt lat="-22.046575" lon="-45.951676">
        <ele>922.766</ele>
        <time>2019-10-14T19:31:01Z</time>
      </trkpt>
      <trkpt lat="-22.046648" lon="-45.951656">
        <ele>924.398</ele>
        <time>2019-10-14T19:31:06Z</time>
      </trkpt>
      <trkpt lat="-22.046705" lon="-45.951636">
        <ele>924.960</ele>
        <time>2019-10-14T19:31:09Z</time>
      </trkpt>
      <trkpt lat="-22.046777" lon="-45.951631">
        <ele>925.443</ele>
        <time>2019-10-14T19:31:13Z</time>
      </trkpt>
      <trkpt lat="-22.046829" lon="-45.951658">
        <ele>925.978</ele>
        <time>2019-10-14T19:31:19Z</time>
      </trkpt>
      <trkpt lat="-22.046877" lon="-45.951686">
        <ele>926.554</ele>
        <time>2019-10-14T19:31:23Z</time>
      </trkpt>
      <trkpt lat="-22.046927" lon="-45.951691">
        <ele>927.956</ele>
        <time>2019-10-14T19:31:31Z</time>
      </trkpt>
      <trkpt lat="-22.046974" lon="-45.951685">
        <ele>928.459</ele>
        <time>2019-10-14T19:31:35Z</time>
      </trkpt>
      <trkpt lat="-22.047028" lon="-45.951663">
        <ele>928.514</ele>
        <time>2019-10-14T19:31:36Z</time>
      </trkpt>
      <trkpt lat="-22.047096" lon="-45.951632">
        <ele>928.908</ele>
        <time>2019-10-14T19:31:38Z</time>
      </trkpt>
      <trkpt lat="-22.047157" lon="-45.951613">
        <ele>929.949</ele>
        <time>2019-10-14T19:31:41Z</time>
      </trkpt>
      <trkpt lat="-22.047219" lon="-45.951610">
        <ele>931.717</ele>
        <time>2019-10-14T19:31:50Z</time>
      </trkpt>
      <trkpt lat="-22.047268" lon="-45.951595">
        <ele>932.839</ele>
        <time>2019-10-14T19:31:57Z</time>
      </trkpt>
      <trkpt lat="-22.047322" lon="-45.951574">
        <ele>933.851</ele>
        <time>2019-10-14T19:32:03Z</time>
      </trkpt>
      <trkpt lat="-22.047371" lon="-45.951562">
        <ele>934.463</ele>
        <time>2019-10-14T19:32:10Z</time>
      </trkpt>
      <trkpt lat="-22.047434" lon="-45.951545">
        <ele>935.596</ele>
        <time>2019-10-14T19:32:17Z</time>
      </trkpt>
      <trkpt lat="-22.047483" lon="-45.951526">
        <ele>935.931</ele>
        <time>2019-10-14T19:32:22Z</time>
      </trkpt>
      <trkpt lat="-22.047527" lon="-45.951509">
        <ele>936.647</ele>
        <time>2019-10-14T19:32:25Z</time>
      </trkpt>
      <trkpt lat="-22.047574" lon="-45.951489">
        <ele>936.949</ele>
        <time>2019-10-14T19:32:29Z</time>
      </trkpt>
      <trkpt lat="-22.047637" lon="-45.951467">
        <ele>937.402</ele>
        <time>2019-10-14T19:32:32Z</time>
      </trkpt>
      <trkpt lat="-22.047728" lon="-45.951426">
        <ele>937.922</ele>
        <time>2019-10-14T19:32:35Z</time>
      </trkpt>
      <trkpt lat="-22.047804" lon="-45.951402">
        <ele>938.908</ele>
        <time>2019-10-14T19:32:40Z</time>
      </trkpt>
      <trkpt lat="-22.047948" lon="-45.951355">
        <ele>940.128</ele>
        <time>2019-10-14T19:32:49Z</time>
      </trkpt>
      <trkpt lat="-22.048048" lon="-45.951330">
        <ele>940.696</ele>
        <time>2019-10-14T19:32:56Z</time>
      </trkpt>
      <trkpt lat="-22.048113" lon="-45.951298">
        <ele>940.698</ele>
        <time>2019-10-14T19:33:02Z</time>
      </trkpt>
      <trkpt lat="-22.048171" lon="-45.951276">
        <ele>941.070</ele>
        <time>2019-10-14T19:33:05Z</time>
      </trkpt>
      <trkpt lat="-22.048226" lon="-45.951266">
        <ele>941.382</ele>
        <time>2019-10-14T19:33:09Z</time>
      </trkpt>
      <trkpt lat="-22.048289" lon="-45.951247">
        <ele>941.355</ele>
        <time>2019-10-14T19:33:12Z</time>
      </trkpt>
      <trkpt lat="-22.048335" lon="-45.951220">
        <ele>941.330</ele>
        <time>2019-10-14T19:33:15Z</time>
      </trkpt>
      <trkpt lat="-22.048386" lon="-45.951204">
        <ele>941.866</ele>
        <time>2019-10-14T19:33:18Z</time>
      </trkpt>
      <trkpt lat="-22.048449" lon="-45.951210">
        <ele>941.638</ele>
        <time>2019-10-14T19:33:22Z</time>
      </trkpt>
      <trkpt lat="-22.048495" lon="-45.951197">
        <ele>941.470</ele>
        <time>2019-10-14T19:33:25Z</time>
      </trkpt>
      <trkpt lat="-22.048552" lon="-45.951178">
        <ele>941.817</ele>
        <time>2019-10-14T19:33:29Z</time>
      </trkpt>
      <trkpt lat="-22.048599" lon="-45.951168">
        <ele>942.008</ele>
        <time>2019-10-14T19:33:31Z</time>
      </trkpt>
      <trkpt lat="-22.048650" lon="-45.951152">
        <ele>942.687</ele>
        <time>2019-10-14T19:33:38Z</time>
      </trkpt>
      <trkpt lat="-22.048697" lon="-45.951138">
        <ele>943.315</ele>
        <time>2019-10-14T19:33:41Z</time>
      </trkpt>
      <trkpt lat="-22.048738" lon="-45.951118">
        <ele>944.267</ele>
        <time>2019-10-14T19:33:48Z</time>
      </trkpt>
      <trkpt lat="-22.048783" lon="-45.951104">
        <ele>944.669</ele>
        <time>2019-10-14T19:33:52Z</time>
      </trkpt>
      <trkpt lat="-22.048846" lon="-45.951109">
        <ele>944.871</ele>
        <time>2019-10-14T19:33:57Z</time>
      </trkpt>
      <trkpt lat="-22.048897" lon="-45.951106">
        <ele>945.454</ele>
        <time>2019-10-14T19:34:01Z</time>
      </trkpt>
      <trkpt lat="-22.048940" lon="-45.951084">
        <ele>945.969</ele>
        <time>2019-10-14T19:34:05Z</time>
      </trkpt>
      <trkpt lat="-22.048981" lon="-45.951064">
        <ele>946.365</ele>
        <time>2019-10-14T19:34:09Z</time>
      </trkpt>
      <trkpt lat="-22.049033" lon="-45.951048">
        <ele>946.879</ele>
        <time>2019-10-14T19:34:14Z</time>
      </trkpt>
      <trkpt lat="-22.049075" lon="-45.951025">
        <ele>947.305</ele>
        <time>2019-10-14T19:34:16Z</time>
      </trkpt>
      <trkpt lat="-22.049135" lon="-45.951011">
        <ele>947.225</ele>
        <time>2019-10-14T19:34:19Z</time>
      </trkpt>
      <trkpt lat="-22.049180" lon="-45.951000">
        <ele>948.208</ele>
        <time>2019-10-14T19:34:24Z</time>
      </trkpt>
      <trkpt lat="-22.049230" lon="-45.950990">
        <ele>948.851</ele>
        <time>2019-10-14T19:34:28Z</time>
      </trkpt>
      <trkpt lat="-22.049277" lon="-45.950976">
        <ele>949.239</ele>
        <time>2019-10-14T19:34:33Z</time>
      </trkpt>
      <trkpt lat="-22.049323" lon="-45.950972">
        <ele>949.821</ele>
        <time>2019-10-14T19:34:37Z</time>
      </trkpt>
      <trkpt lat="-22.049370" lon="-45.950962">
        <ele>950.543</ele>
        <time>2019-10-14T19:34:42Z</time>
      </trkpt>
      <trkpt lat="-22.049413" lon="-45.950937">
        <ele>950.915</ele>
        <time>2019-10-14T19:34:43Z</time>
      </trkpt>
      <trkpt lat="-22.049457" lon="-45.950907">
        <ele>950.868</ele>
        <time>2019-10-14T19:34:45Z</time>
      </trkpt>
      <trkpt lat="-22.049501" lon="-45.950895">
        <ele>952.163</ele>
        <time>2019-10-14T19:34:49Z</time>
      </trkpt>
      <trkpt lat="-22.049548" lon="-45.950891">
        <ele>952.819</ele>
        <time>2019-10-14T19:34:53Z</time>
      </trkpt>
      <trkpt lat="-22.049604" lon="-45.950879">
        <ele>953.729</ele>
        <time>2019-10-14T19:34:58Z</time>
      </trkpt>
      <trkpt lat="-22.049652" lon="-45.950869">
        <ele>954.200</ele>
        <time>2019-10-14T19:35:02Z</time>
      </trkpt>
      <trkpt lat="-22.049698" lon="-45.950856">
        <ele>954.820</ele>
        <time>2019-10-14T19:35:06Z</time>
      </trkpt>
      <trkpt lat="-22.049743" lon="-45.950836">
        <ele>955.208</ele>
        <time>2019-10-14T19:35:10Z</time>
      </trkpt>
      <trkpt lat="-22.049791" lon="-45.950791">
        <ele>956.046</ele>
        <time>2019-10-14T19:35:14Z</time>
      </trkpt>
      <trkpt lat="-22.049823" lon="-45.950747">
        <ele>956.114</ele>
        <time>2019-10-14T19:35:16Z</time>
      </trkpt>
      <trkpt lat="-22.049872" lon="-45.950737">
        <ele>956.276</ele>
        <time>2019-10-14T19:35:19Z</time>
      </trkpt>
      <trkpt lat="-22.049924" lon="-45.950740">
        <ele>956.298</ele>
        <time>2019-10-14T19:35:23Z</time>
      </trkpt>
      <trkpt lat="-22.049986" lon="-45.950732">
        <ele>956.330</ele>
        <time>2019-10-14T19:35:26Z</time>
      </trkpt>
      <trkpt lat="-22.050053" lon="-45.950721">
        <ele>956.363</ele>
        <time>2019-10-14T19:35:31Z</time>
      </trkpt>
      <trkpt lat="-22.050099" lon="-45.950714">
        <ele>956.578</ele>
        <time>2019-10-14T19:35:34Z</time>
      </trkpt>
      <trkpt lat="-22.050161" lon="-45.950722">
        <ele>957.314</ele>
        <time>2019-10-14T19:35:37Z</time>
      </trkpt>
      <trkpt lat="-22.050197" lon="-45.950757">
        <ele>958.056</ele>
        <time>2019-10-14T19:35:40Z</time>
      </trkpt>
      <trkpt lat="-22.050225" lon="-45.950808">
        <ele>958.259</ele>
        <time>2019-10-14T19:35:42Z</time>
      </trkpt>
      <trkpt lat="-22.050236" lon="-45.950865">
        <ele>958.814</ele>
        <time>2019-10-14T19:35:45Z</time>
      </trkpt>
      <trkpt lat="-22.050243" lon="-45.950920">
        <ele>959.108</ele>
        <time>2019-10-14T19:35:48Z</time>
      </trkpt>
      <trkpt lat="-22.050251" lon="-45.950986">
        <ele>959.979</ele>
        <time>2019-10-14T19:35:53Z</time>
      </trkpt>
      <trkpt lat="-22.050206" lon="-45.950981">
        <ele>959.967</ele>
        <time>2019-10-14T19:37:48Z</time>
      </trkpt>
      <trkpt lat="-22.050234" lon="-45.951029">
        <ele>960.459</ele>
        <time>2019-10-14T19:37:53Z</time>
      </trkpt>
      <trkpt lat="-22.050261" lon="-45.951085">
        <ele>960.611</ele>
        <time>2019-10-14T19:37:57Z</time>
      </trkpt>
      <trkpt lat="-22.050291" lon="-45.951131">
        <ele>960.923</ele>
        <time>2019-10-14T19:38:06Z</time>
      </trkpt>
      <trkpt lat="-22.050325" lon="-45.951168">
        <ele>960.756</ele>
        <time>2019-10-14T19:38:10Z</time>
      </trkpt>
      <trkpt lat="-22.050352" lon="-45.951219">
        <ele>962.081</ele>
        <time>2019-10-14T19:38:20Z</time>
      </trkpt>
      <trkpt lat="-22.050344" lon="-45.951108">
        <ele>962.547</ele>
        <time>2019-10-14T19:38:51Z</time>
      </trkpt>
      <trkpt lat="-22.059911" lon="-45.908709">
        <ele>1225.1</ele>
        <time>2019-10-15T11:52:27Z</time>
      </trkpt>
      <trkpt lat="-22.066923" lon="-45.541917">
        <ele>1144.6</ele>
        <time>2019-10-15T19:17:31Z</time>
      </trkpt>
      <trkpt lat="-22.050171" lon="-45.951009">
        <ele>954.128</ele>
        <time>2019-10-15T10:33:53Z</time>
      </trkpt>
      <trkpt lat="-22.050150" lon="-45.950965">
        <ele>954.189</ele>
        <time>2019-10-15T10:39:05Z</time>
      </trkpt>
      <trkpt lat="-22.050173" lon="-45.951009">
        <ele>954.117</ele>
        <time>2019-10-15T10:39:42Z</time>
      </trkpt>
      <trkpt lat="-22.050166" lon="-45.950959">
        <ele>954.108</ele>
        <time>2019-10-15T10:43:52Z</time>
      </trkpt>
      <trkpt lat="-22.050183" lon="-45.950911">
        <ele>954.196</ele>
        <time>2019-10-15T10:45:26Z</time>
      </trkpt>
      <trkpt lat="-22.050177" lon="-45.950848">
        <ele>954.134</ele>
        <time>2019-10-15T10:45:29Z</time>
      </trkpt>
      <trkpt lat="-22.050171" lon="-45.950789">
        <ele>954.177</ele>
        <time>2019-10-15T10:50:24Z</time>
      </trkpt>
      <trkpt lat="-22.050149" lon="-45.950734">
        <ele>954.192</ele>
        <time>2019-10-15T10:50:25Z</time>
      </trkpt>
      <trkpt lat="-22.050197" lon="-45.950666">
        <ele>954.122</ele>
        <time>2019-10-15T10:50:29Z</time>
      </trkpt>
      <trkpt lat="-22.051136" lon="-45.949987">
        <ele>954.142</ele>
        <time>2019-10-15T10:50:54Z</time>
      </trkpt>
      <trkpt lat="-22.051170" lon="-45.949919">
        <ele>954.137</ele>
        <time>2019-10-15T10:50:59Z</time>
      </trkpt>
      <trkpt lat="-22.051198" lon="-45.949877">
        <ele>954.196</ele>
        <time>2019-10-15T10:51:01Z</time>
      </trkpt>
      <trkpt lat="-22.051223" lon="-45.949825">
        <ele>954.126</ele>
        <time>2019-10-15T10:51:10Z</time>
      </trkpt>
      <trkpt lat="-22.051251" lon="-45.949777">
        <ele>954.147</ele>
        <time>2019-10-15T10:51:12Z</time>
      </trkpt>
      <trkpt lat="-22.051278" lon="-45.949731">
        <ele>954.111</ele>
        <time>2019-10-15T10:51:14Z</time>
      </trkpt>
      <trkpt lat="-22.051300" lon="-45.949678">
        <ele>954.508</ele>
        <time>2019-10-15T10:51:17Z</time>
      </trkpt>
      <trkpt lat="-22.051331" lon="-45.949625">
        <ele>955.236</ele>
        <time>2019-10-15T10:51:21Z</time>
      </trkpt>
      <trkpt lat="-22.051353" lon="-45.949578">
        <ele>955.544</ele>
        <time>2019-10-15T10:51:24Z</time>
      </trkpt>
      <trkpt lat="-22.051378" lon="-45.949528">
        <ele>955.657</ele>
        <time>2019-10-15T10:51:27Z</time>
      </trkpt>
      <trkpt lat="-22.051412" lon="-45.949470">
        <ele>956.192</ele>
        <time>2019-10-15T10:51:30Z</time>
      </trkpt>
      <trkpt lat="-22.051445" lon="-45.949417">
        <ele>956.832</ele>
        <time>2019-10-15T10:51:35Z</time>
      </trkpt>
      <trkpt lat="-22.051471" lon="-45.949377">
        <ele>957.222</ele>
        <time>2019-10-15T10:51:38Z</time>
      </trkpt>
      <trkpt lat="-22.051497" lon="-45.949333">
        <ele>957.037</ele>
        <time>2019-10-15T10:51:51Z</time>
      </trkpt>
      <trkpt lat="-22.051553" lon="-45.949233">
        <ele>956.056</ele>
        <time>2019-10-15T10:56:39Z</time>
      </trkpt>
      <trkpt lat="-22.051580" lon="-45.949170">
        <ele>955.698</ele>
        <time>2019-10-15T10:56:43Z</time>
      </trkpt>
      <trkpt lat="-22.051615" lon="-45.949102">
        <ele>955.415</ele>
        <time>2019-10-15T10:56:46Z</time>
      </trkpt>
      <trkpt lat="-22.051644" lon="-45.949054">
        <ele>954.526</ele>
        <time>2019-10-15T10:56:48Z</time>
      </trkpt>
      <trkpt lat="-22.051668" lon="-45.949011">
        <ele>954.308</ele>
        <time>2019-10-15T10:56:49Z</time>
      </trkpt>
      <trkpt lat="-22.053928" lon="-45.946804">
        <ele>945.013</ele>
        <time>2019-10-15T10:57:47Z</time>
      </trkpt>
      <trkpt lat="-22.053966" lon="-45.946767">
        <ele>945.411</ele>
        <time>2019-10-15T10:57:48Z</time>
      </trkpt>
      <trkpt lat="-22.054051" lon="-45.946696">
        <ele>946.244</ele>
        <time>2019-10-15T10:57:52Z</time>
      </trkpt>
      <trkpt lat="-22.054077" lon="-45.946654">
        <ele>946.419</ele>
        <time>2019-10-15T10:58:02Z</time>
      </trkpt>
      <trkpt lat="-22.054090" lon="-45.946587">
        <ele>946.289</ele>
        <time>2019-10-15T10:58:05Z</time>
      </trkpt>
      <trkpt lat="-22.054067" lon="-45.946537">
        <ele>946.059</ele>
        <time>2019-10-15T10:58:07Z</time>
      </trkpt>
      <trkpt lat="-22.054001" lon="-45.946502">
        <ele>945.424</ele>
        <time>2019-10-15T10:58:10Z</time>
      </trkpt>
      <trkpt lat="-22.053935" lon="-45.946496">
        <ele>945.273</ele>
        <time>2019-10-15T10:58:12Z</time>
      </trkpt>
      <trkpt lat="-22.053890" lon="-45.946494">
        <ele>944.859</ele>
        <time>2019-10-15T10:58:13Z</time>
      </trkpt>
      <trkpt lat="-22.053821" lon="-45.946496">
        <ele>944.603</ele>
        <time>2019-10-15T10:58:15Z</time>
      </trkpt>
      <trkpt lat="-22.052947" lon="-45.946623">
        <ele>936.623</ele>
        <time>2019-10-15T10:58:35Z</time>
      </trkpt>
      <trkpt lat="-22.052888" lon="-45.946639">
        <ele>936.008</ele>
        <time>2019-10-15T10:58:37Z</time>
      </trkpt>
      <trkpt lat="-22.052835" lon="-45.946655">
        <ele>935.649</ele>
        <time>2019-10-15T10:58:39Z</time>
      </trkpt>
      <trkpt lat="-22.052751" lon="-45.946719">
        <ele>934.417</ele>
        <time>2019-10-15T10:58:43Z</time>
      </trkpt>
      <trkpt lat="-22.052793" lon="-45.946746">
        <ele>933.950</ele>
        <time>2019-10-15T10:58:46Z</time>
      </trkpt>
      <trkpt lat="-22.052847" lon="-45.946712">
        <ele>934.565</ele>
        <time>2019-10-15T10:58:48Z</time>
      </trkpt>
      <trkpt lat="-22.052886" lon="-45.946672">
        <ele>934.925</ele>
        <time>2019-10-15T10:58:50Z</time>
      </trkpt>
      <trkpt lat="-22.052972" lon="-45.946633">
        <ele>936.085</ele>
        <time>2019-10-15T10:58:53Z</time>
      </trkpt>
      <trkpt lat="-22.053037" lon="-45.946628">
        <ele>936.820</ele>
        <time>2019-10-15T10:58:56Z</time>
      </trkpt>
      <trkpt lat="-22.053092" lon="-45.946625">
        <ele>936.969</ele>
        <time>2019-10-15T10:58:58Z</time>
      </trkpt>
      <trkpt lat="-22.053137" lon="-45.946618">
        <ele>937.481</ele>
        <time>2019-10-15T10:58:59Z</time>
      </trkpt>
      <trkpt lat="-22.053184" lon="-45.946591">
        <ele>937.961</ele>
        <time>2019-10-15T10:59:01Z</time>
      </trkpt>
      <trkpt lat="-22.053226" lon="-45.946529">
        <ele>938.817</ele>
        <time>2019-10-15T10:59:04Z</time>
      </trkpt>
      <trkpt lat="-22.053249" lon="-45.946483">
        <ele>939.508</ele>
        <time>2019-10-15T10:59:06Z</time>
      </trkpt>
      <trkpt lat="-22.053276" lon="-45.946439">
        <ele>939.172</ele>
        <time>2019-10-15T10:59:09Z</time>
      </trkpt>
      <trkpt lat="-22.053307" lon="-45.946384">
        <ele>938.360</ele>
        <time>2019-10-15T10:59:11Z</time>
      </trkpt>
      <trkpt lat="-22.053334" lon="-45.946339">
        <ele>938.013</ele>
        <time>2019-10-15T10:59:12Z</time>
      </trkpt>
      <trkpt lat="-22.053690" lon="-45.945766">
        <ele>931.688</ele>
        <time>2019-10-15T10:59:24Z</time>
      </trkpt>
      <trkpt lat="-22.053684" lon="-45.945715">
        <ele>930.218</ele>
        <time>2019-10-15T10:59:27Z</time>
      </trkpt>
      <trkpt lat="-22.053277" lon="-45.945507">
        <ele>920.428</ele>
        <time>2019-10-15T10:59:35Z</time>
      </trkpt>
      <trkpt lat="-22.053217" lon="-45.945476">
        <ele>919.793</ele>
        <time>2019-10-15T10:59:37Z</time>
      </trkpt>
      <trkpt lat="-22.053216" lon="-45.945407">
        <ele>919.452</ele>
        <time>2019-10-15T10:59:40Z</time>
      </trkpt>
      <trkpt lat="-22.053267" lon="-45.945349">
        <ele>919.397</ele>
        <time>2019-10-15T10:59:42Z</time>
      </trkpt>
      <trkpt lat="-22.053300" lon="-45.945315">
        <ele>919.423</ele>
        <time>2019-10-15T10:59:43Z</time>
      </trkpt>
      <trkpt lat="-22.053341" lon="-45.945250">
        <ele>919.825</ele>
        <time>2019-10-15T10:59:47Z</time>
      </trkpt>
      <trkpt lat="-22.053379" lon="-45.945206">
        <ele>920.008</ele>
        <time>2019-10-15T10:59:50Z</time>
      </trkpt>
      <trkpt lat="-22.053414" lon="-45.945166">
        <ele>920.633</ele>
        <time>2019-10-15T10:59:53Z</time>
      </trkpt>
      <trkpt lat="-22.053438" lon="-45.945121">
        <ele>920.961</ele>
        <time>2019-10-15T10:59:55Z</time>
      </trkpt>
      <trkpt lat="-22.053476" lon="-45.945070">
        <ele>921.154</ele>
        <time>2019-10-15T10:59:59Z</time>
      </trkpt>
      <trkpt lat="-22.053503" lon="-45.945024">
        <ele>921.499</ele>
        <time>2019-10-15T11:00:01Z</time>
      </trkpt>
      <trkpt lat="-22.053552" lon="-45.944975">
        <ele>920.949</ele>
        <time>2019-10-15T11:00:05Z</time>
      </trkpt>
      <trkpt lat="-22.053578" lon="-45.944933">
        <ele>921.159</ele>
        <time>2019-10-15T11:00:07Z</time>
      </trkpt>
      <trkpt lat="-22.053612" lon="-45.944893">
        <ele>921.094</ele>
        <time>2019-10-15T11:00:09Z</time>
      </trkpt>
      <trkpt lat="-22.053660" lon="-45.944825">
        <ele>921.543</ele>
        <time>2019-10-15T11:00:13Z</time>
      </trkpt>
      <trkpt lat="-22.053699" lon="-45.944778">
        <ele>921.987</ele>
        <time>2019-10-15T11:00:16Z</time>
      </trkpt>
      <trkpt lat="-22.053732" lon="-45.944743">
        <ele>922.742</ele>
        <time>2019-10-15T11:00:19Z</time>
      </trkpt>
      <trkpt lat="-22.053773" lon="-45.944687">
        <ele>923.426</ele>
        <time>2019-10-15T11:00:22Z</time>
      </trkpt>
      <trkpt lat="-22.053811" lon="-45.944647">
        <ele>923.608</ele>
        <time>2019-10-15T11:00:25Z</time>
      </trkpt>
      <trkpt lat="-22.053847" lon="-45.944594">
        <ele>923.852</ele>
        <time>2019-10-15T11:00:29Z</time>
      </trkpt>
      <trkpt lat="-22.053898" lon="-45.944558">
        <ele>924.670</ele>
        <time>2019-10-15T11:00:33Z</time>
      </trkpt>
      <trkpt lat="-22.053947" lon="-45.944494">
        <ele>925.423</ele>
        <time>2019-10-15T11:00:37Z</time>
      </trkpt>
      <trkpt lat="-22.053992" lon="-45.944441">
        <ele>926.428</ele>
        <time>2019-10-15T11:00:42Z</time>
      </trkpt>
      <trkpt lat="-22.054051" lon="-45.944356">
        <ele>927.218</ele>
        <time>2019-10-15T11:00:48Z</time>
      </trkpt>
      <trkpt lat="-22.054085" lon="-45.944298">
        <ele>927.568</ele>
        <time>2019-10-15T11:00:53Z</time>
      </trkpt>
      <trkpt lat="-22.054123" lon="-45.944237">
        <ele>928.273</ele>
        <time>2019-10-15T11:00:57Z</time>
      </trkpt>
      <trkpt lat="-22.054158" lon="-45.944180">
        <ele>928.852</ele>
        <time>2019-10-15T11:01:01Z</time>
      </trkpt>
      <trkpt lat="-22.054198" lon="-45.944118">
        <ele>929.433</ele>
        <time>2019-10-15T11:01:06Z</time>
      </trkpt>
      <trkpt lat="-22.054235" lon="-45.944047">
        <ele>929.823</ele>
        <time>2019-10-15T11:01:11Z</time>
      </trkpt>
      <trkpt lat="-22.054267" lon="-45.944000">
        <ele>929.715</ele>
        <time>2019-10-15T11:01:14Z</time>
      </trkpt>
      <trkpt lat="-22.054313" lon="-45.943921">
        <ele>930.708</ele>
        <time>2019-10-15T11:01:19Z</time>
      </trkpt>
      <trkpt lat="-22.054342" lon="-45.943872">
        <ele>931.647</ele>
        <time>2019-10-15T11:01:23Z</time>
      </trkpt>
      <trkpt lat="-22.054371" lon="-45.943825">
        <ele>932.495</ele>
        <time>2019-10-15T11:01:26Z</time>
      </trkpt>
      <trkpt lat="-22.054393" lon="-45.943776">
        <ele>932.488</ele>
        <time>2019-10-15T11:01:29Z</time>
      </trkpt>
      <trkpt lat="-22.054416" lon="-45.943724">
        <ele>932.423</ele>
        <time>2019-10-15T11:01:31Z</time>
      </trkpt>
      <trkpt lat="-22.054444" lon="-45.943684">
        <ele>932.323</ele>
        <time>2019-10-15T11:01:34Z</time>
      </trkpt>
      <trkpt lat="-22.054471" lon="-45.943638">
        <ele>932.233</ele>
        <time>2019-10-15T11:01:37Z</time>
      </trkpt>
      <trkpt lat="-22.054497" lon="-45.943591">
        <ele>932.668</ele>
        <time>2019-10-15T11:01:40Z</time>
      </trkpt>
      <trkpt lat="-22.054514" lon="-45.943542">
        <ele>932.617</ele>
        <time>2019-10-15T11:01:42Z</time>
      </trkpt>
      <trkpt lat="-22.054534" lon="-45.943470">
        <ele>931.992</ele>
        <time>2019-10-15T11:01:45Z</time>
      </trkpt>
      <trkpt lat="-22.054549" lon="-45.943424">
        <ele>931.673</ele>
        <time>2019-10-15T11:01:47Z</time>
      </trkpt>
      <trkpt lat="-22.054561" lon="-45.943360">
        <ele>931.220</ele>
        <time>2019-10-15T11:01:49Z</time>
      </trkpt>
      <trkpt lat="-22.054570" lon="-45.943295">
        <ele>930.508</ele>
        <time>2019-10-15T11:01:51Z</time>
      </trkpt>
      <trkpt lat="-22.054591" lon="-45.943234">
        <ele>930.073</ele>
        <time>2019-10-15T11:01:52Z</time>
      </trkpt>
      <trkpt lat="-22.055037" lon="-45.942375">
        <ele>929.011</ele>
        <time>2019-10-15T11:02:12Z</time>
      </trkpt>
      <trkpt lat="-22.055067" lon="-45.942320">
        <ele>929.164</ele>
        <time>2019-10-15T11:02:15Z</time>
      </trkpt>
      <trkpt lat="-22.055119" lon="-45.942272">
        <ele>929.519</ele>
        <time>2019-10-15T11:02:17Z</time>
      </trkpt>
      <trkpt lat="-22.055154" lon="-45.942237">
        <ele>929.649</ele>
        <time>2019-10-15T11:02:19Z</time>
      </trkpt>
      <trkpt lat="-22.055194" lon="-45.942193">
        <ele>929.689</ele>
        <time>2019-10-15T11:02:20Z</time>
      </trkpt>
      <trkpt lat="-22.055237" lon="-45.942142">
        <ele>929.694</ele>
        <time>2019-10-15T11:02:23Z</time>
      </trkpt>
      <trkpt lat="-22.055276" lon="-45.942100">
        <ele>930.073</ele>
        <time>2019-10-15T11:02:25Z</time>
      </trkpt>
      <trkpt lat="-22.055319" lon="-45.942056">
        <ele>930.246</ele>
        <time>2019-10-15T11:02:27Z</time>
      </trkpt>
      <trkpt lat="-22.055369" lon="-45.942002">
        <ele>930.388</ele>
        <time>2019-10-15T11:02:29Z</time>
      </trkpt>
      <trkpt lat="-22.055408" lon="-45.941956">
        <ele>930.616</ele>
        <time>2019-10-15T11:02:32Z</time>
      </trkpt>
      <trkpt lat="-22.055456" lon="-45.941912">
        <ele>931.008</ele>
        <time>2019-10-15T11:02:34Z</time>
      </trkpt>
      <trkpt lat="-22.055493" lon="-45.941877">
        <ele>930.978</ele>
        <time>2019-10-15T11:02:35Z</time>
      </trkpt>
      <trkpt lat="-22.055557" lon="-45.941828">
        <ele>930.386</ele>
        <time>2019-10-15T11:02:39Z</time>
      </trkpt>
      <trkpt lat="-22.055604" lon="-45.941784">
        <ele>929.839</ele>
        <time>2019-10-15T11:02:41Z</time>
      </trkpt>
      <trkpt lat="-22.055657" lon="-45.941742">
        <ele>929.764</ele>
        <time>2019-10-15T11:02:43Z</time>
      </trkpt>
      <trkpt lat="-22.056265" lon="-45.941197">
        <ele>931.144</ele>
        <time>2019-10-15T11:03:02Z</time>
      </trkpt>
      <trkpt lat="-22.056292" lon="-45.941152">
        <ele>931.984</ele>
        <time>2019-10-15T11:03:05Z</time>
      </trkpt>
      <trkpt lat="-22.056322" lon="-45.941100">
        <ele>931.589</ele>
        <time>2019-10-15T11:03:07Z</time>
      </trkpt>
      <trkpt lat="-22.056356" lon="-45.941064">
        <ele>931.888</ele>
        <time>2019-10-15T11:03:09Z</time>
      </trkpt>
      <trkpt lat="-22.056404" lon="-45.941016">
        <ele>931.949</ele>
        <time>2019-10-15T11:03:12Z</time>
      </trkpt>
      <trkpt lat="-22.056445" lon="-45.940975">
        <ele>932.002</ele>
        <time>2019-10-15T11:03:14Z</time>
      </trkpt>
      <trkpt lat="-22.056477" lon="-45.940938">
        <ele>931.822</ele>
        <time>2019-10-15T11:03:16Z</time>
      </trkpt>
      <trkpt lat="-22.056563" lon="-45.940800">
        <ele>930.808</ele>
        <time>2019-10-15T11:03:20Z</time>
      </trkpt>
      <trkpt lat="-22.056596" lon="-45.940726">
        <ele>930.718</ele>
        <time>2019-10-15T11:03:22Z</time>
      </trkpt>
      <trkpt lat="-22.056619" lon="-45.940656">
        <ele>931.396</ele>
        <time>2019-10-15T11:03:25Z</time>
      </trkpt>
      <trkpt lat="-22.056628" lon="-45.940584">
        <ele>931.299</ele>
        <time>2019-10-15T11:03:27Z</time>
      </trkpt>
      <trkpt lat="-22.056639" lon="-45.940518">
        <ele>931.474</ele>
        <time>2019-10-15T11:03:29Z</time>
      </trkpt>
      <trkpt lat="-22.056661" lon="-45.940442">
        <ele>931.654</ele>
        <time>2019-10-15T11:03:32Z</time>
      </trkpt>
      <trkpt lat="-22.056677" lon="-45.940383">
        <ele>931.774</ele>
        <time>2019-10-15T11:03:34Z</time>
      </trkpt>
      <trkpt lat="-22.056697" lon="-45.940337">
        <ele>931.759</ele>
        <time>2019-10-15T11:03:36Z</time>
      </trkpt>
      <trkpt lat="-22.056716" lon="-45.940284">
        <ele>931.748</ele>
        <time>2019-10-15T11:03:37Z</time>
      </trkpt>
      <trkpt lat="-22.056738" lon="-45.940229">
        <ele>931.946</ele>
        <time>2019-10-15T11:03:39Z</time>
      </trkpt>
      <trkpt lat="-22.056769" lon="-45.940179">
        <ele>932.388</ele>
        <time>2019-10-15T11:03:42Z</time>
      </trkpt>
      <trkpt lat="-22.056799" lon="-45.940126">
        <ele>932.616</ele>
        <time>2019-10-15T11:03:44Z</time>
      </trkpt>
      <trkpt lat="-22.056835" lon="-45.940060">
        <ele>932.708</ele>
        <time>2019-10-15T11:03:47Z</time>
      </trkpt>
      <trkpt lat="-22.056865" lon="-45.940010">
        <ele>932.828</ele>
        <time>2019-10-15T11:03:49Z</time>
      </trkpt>
      <trkpt lat="-22.056900" lon="-45.939958">
        <ele>932.966</ele>
        <time>2019-10-15T11:03:51Z</time>
      </trkpt>
      <trkpt lat="-22.056926" lon="-45.939908">
        <ele>932.869</ele>
        <time>2019-10-15T11:03:53Z</time>
      </trkpt>
      <trkpt lat="-22.056965" lon="-45.939864">
        <ele>932.624</ele>
        <time>2019-10-15T11:03:56Z</time>
      </trkpt>
      <trkpt lat="-22.057013" lon="-45.939819">
        <ele>932.364</ele>
        <time>2019-10-15T11:03:58Z</time>
      </trkpt>
      <trkpt lat="-22.057046" lon="-45.939786">
        <ele>932.174</ele>
        <time>2019-10-15T11:03:59Z</time>
      </trkpt>
      <trkpt lat="-22.057131" lon="-45.939709">
        <ele>932.369</ele>
        <time>2019-10-15T11:04:03Z</time>
      </trkpt>
      <trkpt lat="-22.057175" lon="-45.939676">
        <ele>932.798</ele>
        <time>2019-10-15T11:04:05Z</time>
      </trkpt>
      <trkpt lat="-22.057228" lon="-45.939630">
        <ele>932.546</ele>
        <time>2019-10-15T11:04:07Z</time>
      </trkpt>
      <trkpt lat="-22.057266" lon="-45.939599">
        <ele>932.688</ele>
        <time>2019-10-15T11:04:08Z</time>
      </trkpt>
      <trkpt lat="-22.057338" lon="-45.939554">
        <ele>932.716</ele>
        <time>2019-10-15T11:04:11Z</time>
      </trkpt>
      <trkpt lat="-22.057385" lon="-45.939517">
        <ele>932.808</ele>
        <time>2019-10-15T11:04:13Z</time>
      </trkpt>
      <trkpt lat="-22.057466" lon="-45.939473">
        <ele>933.328</ele>
        <time>2019-10-15T11:04:17Z</time>
      </trkpt>
      <trkpt lat="-22.057520" lon="-45.939440">
        <ele>933.496</ele>
        <time>2019-10-15T11:04:18Z</time>
      </trkpt>
      <trkpt lat="-22.057576" lon="-45.939409">
        <ele>933.059</ele>
        <time>2019-10-15T11:04:21Z</time>
      </trkpt>
      <trkpt lat="-22.057621" lon="-45.939388">
        <ele>933.284</ele>
        <time>2019-10-15T11:04:23Z</time>
      </trkpt>
      <trkpt lat="-22.057675" lon="-45.939365">
        <ele>934.054</ele>
        <time>2019-10-15T11:04:25Z</time>
      </trkpt>
      <trkpt lat="-22.057734" lon="-45.939343">
        <ele>934.344</ele>
        <time>2019-10-15T11:04:28Z</time>
      </trkpt>
      <trkpt lat="-22.057775" lon="-45.939322">
        <ele>934.999</ele>
        <time>2019-10-15T11:04:30Z</time>
      </trkpt>
      <trkpt lat="-22.057822" lon="-45.939298">
        <ele>935.228</ele>
        <time>2019-10-15T11:04:32Z</time>
      </trkpt>
      <trkpt lat="-22.057881" lon="-45.939273">
        <ele>936.562</ele>
        <time>2019-10-15T11:04:35Z</time>
      </trkpt>
      <trkpt lat="-22.057926" lon="-45.939248">
        <ele>937.083</ele>
        <time>2019-10-15T11:04:39Z</time>
      </trkpt>
      <trkpt lat="-22.057975" lon="-45.939227">
        <ele>937.711</ele>
        <time>2019-10-15T11:04:41Z</time>
      </trkpt>
      <trkpt lat="-22.058025" lon="-45.939204">
        <ele>937.708</ele>
        <time>2019-10-15T11:04:44Z</time>
      </trkpt>
      <trkpt lat="-22.058071" lon="-45.939179">
        <ele>938.250</ele>
        <time>2019-10-15T11:04:48Z</time>
      </trkpt>
      <trkpt lat="-22.058137" lon="-45.939153">
        <ele>939.048</ele>
        <time>2019-10-15T11:04:52Z</time>
      </trkpt>
      <trkpt lat="-22.058179" lon="-45.939124">
        <ele>939.341</ele>
        <time>2019-10-15T11:04:55Z</time>
      </trkpt>
      <trkpt lat="-22.058219" lon="-45.939084">
        <ele>938.936</ele>
        <time>2019-10-15T11:04:58Z</time>
      </trkpt>
      <trkpt lat="-22.058268" lon="-45.939042">
        <ele>939.556</ele>
        <time>2019-10-15T11:05:01Z</time>
      </trkpt>
      <trkpt lat="-22.058325" lon="-45.938995">
        <ele>940.166</ele>
        <time>2019-10-15T11:05:04Z</time>
      </trkpt>
      <trkpt lat="-22.058371" lon="-45.938954">
        <ele>940.191</ele>
        <time>2019-10-15T11:05:07Z</time>
      </trkpt>
      <trkpt lat="-22.058403" lon="-45.938919">
        <ele>940.750</ele>
        <time>2019-10-15T11:05:10Z</time>
      </trkpt>
      <trkpt lat="-22.058442" lon="-45.938869">
        <ele>941.078</ele>
        <time>2019-10-15T11:05:13Z</time>
      </trkpt>
      <trkpt lat="-22.058466" lon="-45.938819">
        <ele>940.933</ele>
        <time>2019-10-15T11:05:16Z</time>
      </trkpt>
      <trkpt lat="-22.058492" lon="-45.938776">
        <ele>941.726</ele>
        <time>2019-10-15T11:05:18Z</time>
      </trkpt>
      <trkpt lat="-22.058526" lon="-45.938723">
        <ele>941.508</ele>
        <time>2019-10-15T11:05:22Z</time>
      </trkpt>
      <trkpt lat="-22.058560" lon="-45.938667">
        <ele>942.471</ele>
        <time>2019-10-15T11:05:26Z</time>
      </trkpt>
      <trkpt lat="-22.058588" lon="-45.938623">
        <ele>942.569</ele>
        <time>2019-10-15T11:05:28Z</time>
      </trkpt>
      <trkpt lat="-22.058617" lon="-45.938577">
        <ele>942.992</ele>
        <time>2019-10-15T11:05:31Z</time>
      </trkpt>
      <trkpt lat="-22.058649" lon="-45.938538">
        <ele>943.477</ele>
        <time>2019-10-15T11:05:34Z</time>
      </trkpt>
      <trkpt lat="-22.058683" lon="-45.938500">
        <ele>943.887</ele>
        <time>2019-10-15T11:05:37Z</time>
      </trkpt>
      <trkpt lat="-22.058745" lon="-45.938441">
        <ele>944.257</ele>
        <time>2019-10-15T11:05:41Z</time>
      </trkpt>
      <trkpt lat="-22.058785" lon="-45.938404">
        <ele>944.142</ele>
        <time>2019-10-15T11:05:44Z</time>
      </trkpt>
      <trkpt lat="-22.058815" lon="-45.938364">
        <ele>945.071</ele>
        <time>2019-10-15T11:05:46Z</time>
      </trkpt>
      <trkpt lat="-22.058845" lon="-45.938326">
        <ele>945.337</ele>
        <time>2019-10-15T11:05:49Z</time>
      </trkpt>
      <trkpt lat="-22.058874" lon="-45.938286">
        <ele>944.949</ele>
        <time>2019-10-15T11:05:51Z</time>
      </trkpt>
      <trkpt lat="-22.058911" lon="-45.938238">
        <ele>945.413</ele>
        <time>2019-10-15T11:05:54Z</time>
      </trkpt>
      <trkpt lat="-22.058945" lon="-45.938193">
        <ele>945.408</ele>
        <time>2019-10-15T11:05:56Z</time>
      </trkpt>
      <trkpt lat="-22.058983" lon="-45.938142">
        <ele>945.377</ele>
        <time>2019-10-15T11:05:59Z</time>
      </trkpt>
      <trkpt lat="-22.059008" lon="-45.938099">
        <ele>945.085</ele>
        <time>2019-10-15T11:06:02Z</time>
      </trkpt>
      <trkpt lat="-22.059042" lon="-45.938041">
        <ele>945.868</ele>
        <time>2019-10-15T11:06:04Z</time>
      </trkpt>
      <trkpt lat="-22.059066" lon="-45.937998">
        <ele>946.143</ele>
        <time>2019-10-15T11:06:06Z</time>
      </trkpt>
      <trkpt lat="-22.059086" lon="-45.937954">
        <ele>946.093</ele>
        <time>2019-10-15T11:06:09Z</time>
      </trkpt>
      <trkpt lat="-22.059127" lon="-45.937885">
        <ele>946.533</ele>
        <time>2019-10-15T11:06:12Z</time>
      </trkpt>
      <trkpt lat="-22.059155" lon="-45.937822">
        <ele>946.638</ele>
        <time>2019-10-15T11:06:14Z</time>
      </trkpt>
      <trkpt lat="-22.059171" lon="-45.937773">
        <ele>946.327</ele>
        <time>2019-10-15T11:06:16Z</time>
      </trkpt>
      <trkpt lat="-22.059208" lon="-45.937707">
        <ele>946.441</ele>
        <time>2019-10-15T11:06:18Z</time>
      </trkpt>
      <trkpt lat="-22.059224" lon="-45.937658">
        <ele>946.881</ele>
        <time>2019-10-15T11:06:20Z</time>
      </trkpt>
      <trkpt lat="-22.059240" lon="-45.937595">
        <ele>946.609</ele>
        <time>2019-10-15T11:06:22Z</time>
      </trkpt>
      <trkpt lat="-22.059264" lon="-45.937535">
        <ele>946.208</ele>
        <time>2019-10-15T11:06:24Z</time>
      </trkpt>
      <trkpt lat="-22.059291" lon="-45.937455">
        <ele>946.598</ele>
        <time>2019-10-15T11:06:27Z</time>
      </trkpt>
      <trkpt lat="-22.059312" lon="-45.937408">
        <ele>947.076</ele>
        <time>2019-10-15T11:06:28Z</time>
      </trkpt>
      <trkpt lat="-22.059334" lon="-45.937354">
        <ele>947.559</ele>
        <time>2019-10-15T11:06:31Z</time>
      </trkpt>
      <trkpt lat="-22.059354" lon="-45.937295">
        <ele>947.664</ele>
        <time>2019-10-15T11:06:33Z</time>
      </trkpt>
      <trkpt lat="-22.059372" lon="-45.937244">
        <ele>947.384</ele>
        <time>2019-10-15T11:06:34Z</time>
      </trkpt>
      <trkpt lat="-22.059392" lon="-45.937183">
        <ele>947.384</ele>
        <time>2019-10-15T11:06:37Z</time>
      </trkpt>
      <trkpt lat="-22.059408" lon="-45.937118">
        <ele>947.339</ele>
        <time>2019-10-15T11:06:39Z</time>
      </trkpt>
      <trkpt lat="-22.059427" lon="-45.937057">
        <ele>947.418</ele>
        <time>2019-10-15T11:06:41Z</time>
      </trkpt>
      <trkpt lat="-22.059440" lon="-45.936997">
        <ele>947.736</ele>
        <time>2019-10-15T11:06:43Z</time>
      </trkpt>
      <trkpt lat="-22.059453" lon="-45.936917">
        <ele>947.817</ele>
        <time>2019-10-15T11:06:46Z</time>
      </trkpt>
      <trkpt lat="-22.059461" lon="-45.936847">
        <ele>947.718</ele>
        <time>2019-10-15T11:06:48Z</time>
      </trkpt>
      <trkpt lat="-22.059463" lon="-45.936786">
        <ele>947.908</ele>
        <time>2019-10-15T11:06:50Z</time>
      </trkpt>
      <trkpt lat="-22.059458" lon="-45.936726">
        <ele>948.547</ele>
        <time>2019-10-15T11:06:52Z</time>
      </trkpt>
      <trkpt lat="-22.059457" lon="-45.936674">
        <ele>948.795</ele>
        <time>2019-10-15T11:06:55Z</time>
      </trkpt>
      <trkpt lat="-22.059459" lon="-45.936618">
        <ele>949.098</ele>
        <time>2019-10-15T11:06:57Z</time>
      </trkpt>
      <trkpt lat="-22.059454" lon="-45.936558">
        <ele>949.483</ele>
        <time>2019-10-15T11:07:00Z</time>
      </trkpt>
      <trkpt lat="-22.059447" lon="-45.936505">
        <ele>949.413</ele>
        <time>2019-10-15T11:07:02Z</time>
      </trkpt>
      <trkpt lat="-22.059442" lon="-45.936444">
        <ele>949.713</ele>
        <time>2019-10-15T11:07:04Z</time>
      </trkpt>
      <trkpt lat="-22.059440" lon="-45.936385">
        <ele>949.648</ele>
        <time>2019-10-15T11:07:06Z</time>
      </trkpt>
      <trkpt lat="-22.059440" lon="-45.936316">
        <ele>950.287</ele>
        <time>2019-10-15T11:07:09Z</time>
      </trkpt>
      <trkpt lat="-22.059428" lon="-45.936266">
        <ele>950.195</ele>
        <time>2019-10-15T11:07:11Z</time>
      </trkpt>
      <trkpt lat="-22.059418" lon="-45.936203">
        <ele>950.749</ele>
        <time>2019-10-15T11:07:13Z</time>
      </trkpt>
      <trkpt lat="-22.059409" lon="-45.936144">
        <ele>951.023</ele>
        <time>2019-10-15T11:07:16Z</time>
      </trkpt>
      <trkpt lat="-22.059398" lon="-45.936074">
        <ele>950.908</ele>
        <time>2019-10-15T11:07:19Z</time>
      </trkpt>
      <trkpt lat="-22.059385" lon="-45.936020">
        <ele>951.253</ele>
        <time>2019-10-15T11:07:21Z</time>
      </trkpt>
      <trkpt lat="-22.059384" lon="-45.935968">
        <ele>951.621</ele>
        <time>2019-10-15T11:07:23Z</time>
      </trkpt>
      <trkpt lat="-22.059376" lon="-45.935908">
        <ele>951.784</ele>
        <time>2019-10-15T11:07:26Z</time>
      </trkpt>
      <trkpt lat="-22.059373" lon="-45.935859">
        <ele>952.139</ele>
        <time>2019-10-15T11:07:28Z</time>
      </trkpt>
      <trkpt lat="-22.059365" lon="-45.935776">
        <ele>951.489</ele>
        <time>2019-10-15T11:07:31Z</time>
      </trkpt>
      <trkpt lat="-22.059368" lon="-45.935727">
        <ele>951.599</ele>
        <time>2019-10-15T11:07:33Z</time>
      </trkpt>
      <trkpt lat="-22.059358" lon="-45.935653">
        <ele>951.124</ele>
        <time>2019-10-15T11:07:34Z</time>
      </trkpt>
      <trkpt lat="-22.059351" lon="-45.935566">
        <ele>949.233</ele>
        <time>2019-10-15T11:07:37Z</time>
      </trkpt>
      <trkpt lat="-22.059352" lon="-45.935502">
        <ele>948.977</ele>
        <time>2019-10-15T11:07:38Z</time>
      </trkpt>
      <trkpt lat="-22.058772" lon="-45.934646">
        <ele>939.961</ele>
        <time>2019-10-15T11:08:08Z</time>
      </trkpt>
      <trkpt lat="-22.058720" lon="-45.934636">
        <ele>940.527</ele>
        <time>2019-10-15T11:08:11Z</time>
      </trkpt>
      <trkpt lat="-22.058665" lon="-45.934635">
        <ele>940.508</ele>
        <time>2019-10-15T11:08:13Z</time>
      </trkpt>
      <trkpt lat="-22.058607" lon="-45.934625">
        <ele>940.531</ele>
        <time>2019-10-15T11:08:15Z</time>
      </trkpt>
      <trkpt lat="-22.058556" lon="-45.934614">
        <ele>940.239</ele>
        <time>2019-10-15T11:08:16Z</time>
      </trkpt>
      <trkpt lat="-22.058491" lon="-45.934587">
        <ele>939.852</ele>
        <time>2019-10-15T11:08:18Z</time>
      </trkpt>
      <trkpt lat="-22.058429" lon="-45.934557">
        <ele>939.177</ele>
        <time>2019-10-15T11:08:21Z</time>
      </trkpt>
      <trkpt lat="-22.058354" lon="-45.934514">
        <ele>938.867</ele>
        <time>2019-10-15T11:08:23Z</time>
      </trkpt>
      <trkpt lat="-22.058316" lon="-45.934486">
        <ele>937.547</ele>
        <time>2019-10-15T11:08:26Z</time>
      </trkpt>
      <trkpt lat="-22.058270" lon="-45.934456">
        <ele>936.792</ele>
        <time>2019-10-15T11:08:28Z</time>
      </trkpt>
      <trkpt lat="-22.057325" lon="-45.932745">
        <ele>934.371</ele>
        <time>2019-10-15T11:09:00Z</time>
      </trkpt>
      <trkpt lat="-22.057296" lon="-45.932688">
        <ele>935.275</ele>
        <time>2019-10-15T11:09:03Z</time>
      </trkpt>
      <trkpt lat="-22.057253" lon="-45.932610">
        <ele>936.328</ele>
        <time>2019-10-15T11:09:07Z</time>
      </trkpt>
      <trkpt lat="-22.057237" lon="-45.932563">
        <ele>936.920</ele>
        <time>2019-10-15T11:09:10Z</time>
      </trkpt>
      <trkpt lat="-22.057228" lon="-45.932499">
        <ele>937.608</ele>
        <time>2019-10-15T11:09:13Z</time>
      </trkpt>
      <trkpt lat="-22.057224" lon="-45.932433">
        <ele>938.181</ele>
        <time>2019-10-15T11:09:18Z</time>
      </trkpt>
      <trkpt lat="-22.057230" lon="-45.932363">
        <ele>938.469</ele>
        <time>2019-10-15T11:09:22Z</time>
      </trkpt>
      <trkpt lat="-22.057229" lon="-45.932292">
        <ele>939.482</ele>
        <time>2019-10-15T11:09:27Z</time>
      </trkpt>
      <trkpt lat="-22.057232" lon="-45.932238">
        <ele>939.947</ele>
        <time>2019-10-15T11:09:31Z</time>
      </trkpt>
      <trkpt lat="-22.057223" lon="-45.932180">
        <ele>941.087</ele>
        <time>2019-10-15T11:09:34Z</time>
      </trkpt>
      <trkpt lat="-22.057219" lon="-45.932124">
        <ele>941.337</ele>
        <time>2019-10-15T11:09:37Z</time>
      </trkpt>
      <trkpt lat="-22.057214" lon="-45.932073">
        <ele>942.162</ele>
        <time>2019-10-15T11:09:42Z</time>
      </trkpt>
      <trkpt lat="-22.057195" lon="-45.932028">
        <ele>943.171</ele>
        <time>2019-10-15T11:09:46Z</time>
      </trkpt>
      <trkpt lat="-22.057177" lon="-45.931975">
        <ele>943.881</ele>
        <time>2019-10-15T11:09:50Z</time>
      </trkpt>
      <trkpt lat="-22.057161" lon="-45.931899">
        <ele>944.761</ele>
        <time>2019-10-15T11:09:55Z</time>
      </trkpt>
      <trkpt lat="-22.057158" lon="-45.931843">
        <ele>944.817</ele>
        <time>2019-10-15T11:09:58Z</time>
      </trkpt>
      <trkpt lat="-22.057154" lon="-45.931790">
        <ele>944.908</ele>
        <time>2019-10-15T11:10:01Z</time>
      </trkpt>
      <trkpt lat="-22.057144" lon="-45.931739">
        <ele>945.392</ele>
        <time>2019-10-15T11:10:04Z</time>
      </trkpt>
      <trkpt lat="-22.057143" lon="-45.931676">
        <ele>946.020</ele>
        <time>2019-10-15T11:10:07Z</time>
      </trkpt>
      <trkpt lat="-22.057139" lon="-45.931621">
        <ele>946.073</ele>
        <time>2019-10-15T11:10:09Z</time>
      </trkpt>
      <trkpt lat="-22.057132" lon="-45.931563">
        <ele>946.478</ele>
        <time>2019-10-15T11:10:13Z</time>
      </trkpt>
      <trkpt lat="-22.057122" lon="-45.931515">
        <ele>946.748</ele>
        <time>2019-10-15T11:10:15Z</time>
      </trkpt>
      <trkpt lat="-22.057118" lon="-45.931466">
        <ele>947.018</ele>
        <time>2019-10-15T11:10:18Z</time>
      </trkpt>
      <trkpt lat="-22.057115" lon="-45.931399">
        <ele>947.353</ele>
        <time>2019-10-15T11:10:23Z</time>
      </trkpt>
      <trkpt lat="-22.057117" lon="-45.931348">
        <ele>948.422</ele>
        <time>2019-10-15T11:10:26Z</time>
      </trkpt>
      <trkpt lat="-22.057099" lon="-45.931298">
        <ele>948.544</ele>
        <time>2019-10-15T11:10:29Z</time>
      </trkpt>
      <trkpt lat="-22.057084" lon="-45.931252">
        <ele>949.105</ele>
        <time>2019-10-15T11:10:32Z</time>
      </trkpt>
      <trkpt lat="-22.057067" lon="-45.931204">
        <ele>949.615</ele>
        <time>2019-10-15T11:10:35Z</time>
      </trkpt>
      <trkpt lat="-22.057034" lon="-45.931151">
        <ele>950.808</ele>
        <time>2019-10-15T11:10:42Z</time>
      </trkpt>
      <trkpt lat="-22.057007" lon="-45.931109">
        <ele>951.138</ele>
        <time>2019-10-15T11:10:48Z</time>
      </trkpt>
      <trkpt lat="-22.056981" lon="-45.931068">
        <ele>952.076</ele>
        <time>2019-10-15T11:10:51Z</time>
      </trkpt>
      <trkpt lat="-22.056965" lon="-45.931002">
        <ele>952.449</ele>
        <time>2019-10-15T11:10:55Z</time>
      </trkpt>
      <trkpt lat="-22.056975" lon="-45.930946">
        <ele>952.654</ele>
        <time>2019-10-15T11:10:57Z</time>
      </trkpt>
      <trkpt lat="-22.056987" lon="-45.930857">
        <ele>952.694</ele>
        <time>2019-10-15T11:11:00Z</time>
      </trkpt>
      <trkpt lat="-22.056988" lon="-45.930806">
        <ele>952.524</ele>
        <time>2019-10-15T11:11:02Z</time>
      </trkpt>
      <trkpt lat="-22.056995" lon="-45.930756">
        <ele>952.719</ele>
        <time>2019-10-15T11:11:05Z</time>
      </trkpt>
      <trkpt lat="-22.056999" lon="-45.930693">
        <ele>953.028</ele>
        <time>2019-10-15T11:11:07Z</time>
      </trkpt>
      <trkpt lat="-22.057007" lon="-45.930636">
        <ele>953.584</ele>
        <time>2019-10-15T11:11:10Z</time>
      </trkpt>
      <trkpt lat="-22.057011" lon="-45.930554">
        <ele>954.007</ele>
        <time>2019-10-15T11:11:14Z</time>
      </trkpt>
      <trkpt lat="-22.057031" lon="-45.930486">
        <ele>954.217</ele>
        <time>2019-10-15T11:11:17Z</time>
      </trkpt>
      <trkpt lat="-22.057041" lon="-45.930434">
        <ele>954.308</ele>
        <time>2019-10-15T11:11:20Z</time>
      </trkpt>
      <trkpt lat="-22.057066" lon="-45.930366">
        <ele>954.232</ele>
        <time>2019-10-15T11:11:23Z</time>
      </trkpt>
      <trkpt lat="-22.057082" lon="-45.930319">
        <ele>953.850</ele>
        <time>2019-10-15T11:11:25Z</time>
      </trkpt>
      <trkpt lat="-22.057108" lon="-45.930265">
        <ele>953.613</ele>
        <time>2019-10-15T11:11:26Z</time>
      </trkpt>
      <trkpt lat="-22.057153" lon="-45.930179">
        <ele>953.148</ele>
        <time>2019-10-15T11:11:28Z</time>
      </trkpt>
      <trkpt lat="-22.057182" lon="-45.930116">
        <ele>953.748</ele>
        <time>2019-10-15T11:11:31Z</time>
      </trkpt>
      <trkpt lat="-22.057195" lon="-45.930068">
        <ele>953.978</ele>
        <time>2019-10-15T11:11:33Z</time>
      </trkpt>
      <trkpt lat="-22.057203" lon="-45.930002">
        <ele>954.313</ele>
        <time>2019-10-15T11:11:36Z</time>
      </trkpt>
      <trkpt lat="-22.057203" lon="-45.929952">
        <ele>955.392</ele>
        <time>2019-10-15T11:11:39Z</time>
      </trkpt>
      <trkpt lat="-22.057198" lon="-45.929890">
        <ele>955.997</ele>
        <time>2019-10-15T11:11:42Z</time>
      </trkpt>
      <trkpt lat="-22.057185" lon="-45.929840">
        <ele>956.923</ele>
        <time>2019-10-15T11:11:46Z</time>
      </trkpt>
      <trkpt lat="-22.057159" lon="-45.929796">
        <ele>957.425</ele>
        <time>2019-10-15T11:11:49Z</time>
      </trkpt>
      <trkpt lat="-22.057139" lon="-45.929746">
        <ele>957.908</ele>
        <time>2019-10-15T11:11:52Z</time>
      </trkpt>
      <trkpt lat="-22.057115" lon="-45.929696">
        <ele>958.923</ele>
        <time>2019-10-15T11:11:56Z</time>
      </trkpt>
      <trkpt lat="-22.057072" lon="-45.929633">
        <ele>960.121</ele>
        <time>2019-10-15T11:12:04Z</time>
      </trkpt>
      <trkpt lat="-22.057034" lon="-45.929597">
        <ele>961.034</ele>
        <time>2019-10-15T11:12:09Z</time>
      </trkpt>
      <trkpt lat="-22.056984" lon="-45.929557">
        <ele>962.519</ele>
        <time>2019-10-15T11:12:20Z</time>
      </trkpt>
      <trkpt lat="-22.056944" lon="-45.929509">
        <ele>963.319</ele>
        <time>2019-10-15T11:12:27Z</time>
      </trkpt>
      <trkpt lat="-22.056912" lon="-45.929471">
        <ele>964.589</ele>
        <time>2019-10-15T11:12:33Z</time>
      </trkpt>
      <trkpt lat="-22.056874" lon="-45.929421">
        <ele>965.884</ele>
        <time>2019-10-15T11:12:38Z</time>
      </trkpt>
      <trkpt lat="-22.056817" lon="-45.929363">
        <ele>966.453</ele>
        <time>2019-10-15T11:12:47Z</time>
      </trkpt>
      <trkpt lat="-22.056748" lon="-45.929275">
        <ele>968.894</ele>
        <time>2019-10-15T11:12:59Z</time>
      </trkpt>
      <trkpt lat="-22.056710" lon="-45.929235">
        <ele>969.157</ele>
        <time>2019-10-15T11:13:02Z</time>
      </trkpt>
      <trkpt lat="-22.056679" lon="-45.929196">
        <ele>969.922</ele>
        <time>2019-10-15T11:13:07Z</time>
      </trkpt>
      <trkpt lat="-22.056650" lon="-45.929129">
        <ele>970.708</ele>
        <time>2019-10-15T11:13:15Z</time>
      </trkpt>
      <trkpt lat="-22.056628" lon="-45.929084">
        <ele>971.243</ele>
        <time>2019-10-15T11:13:20Z</time>
      </trkpt>
      <trkpt lat="-22.056600" lon="-45.929024">
        <ele>971.721</ele>
        <time>2019-10-15T11:13:26Z</time>
      </trkpt>
      <trkpt lat="-22.056589" lon="-45.928950">
        <ele>971.744</ele>
        <time>2019-10-15T11:13:31Z</time>
      </trkpt>
      <trkpt lat="-22.056578" lon="-45.928894">
        <ele>972.139</ele>
        <time>2019-10-15T11:13:35Z</time>
      </trkpt>
      <trkpt lat="-22.056568" lon="-45.928801">
        <ele>973.679</ele>
        <time>2019-10-15T11:13:42Z</time>
      </trkpt>
      <trkpt lat="-22.056554" lon="-45.928723">
        <ele>974.479</ele>
        <time>2019-10-15T11:13:46Z</time>
      </trkpt>
      <trkpt lat="-22.056530" lon="-45.928644">
        <ele>975.164</ele>
        <time>2019-10-15T11:13:52Z</time>
      </trkpt>
      <trkpt lat="-22.056511" lon="-45.928576">
        <ele>975.753</ele>
        <time>2019-10-15T11:13:57Z</time>
      </trkpt>
      <trkpt lat="-22.056497" lon="-45.928516">
        <ele>976.827</ele>
        <time>2019-10-15T11:14:01Z</time>
      </trkpt>
      <trkpt lat="-22.056480" lon="-45.928465">
        <ele>976.768</ele>
        <time>2019-10-15T11:14:06Z</time>
      </trkpt>
      <trkpt lat="-22.056470" lon="-45.928405">
        <ele>977.314</ele>
        <time>2019-10-15T11:14:10Z</time>
      </trkpt>
      <trkpt lat="-22.056455" lon="-45.928355">
        <ele>978.208</ele>
        <time>2019-10-15T11:14:15Z</time>
      </trkpt>
      <trkpt lat="-22.056432" lon="-45.928309">
        <ele>979.756</ele>
        <time>2019-10-15T11:14:21Z</time>
      </trkpt>
      <trkpt lat="-22.056409" lon="-45.928265">
        <ele>980.224</ele>
        <time>2019-10-15T11:14:26Z</time>
      </trkpt>
      <trkpt lat="-22.056399" lon="-45.928210">
        <ele>980.847</ele>
        <time>2019-10-15T11:14:32Z</time>
      </trkpt>
      <trkpt lat="-22.056379" lon="-45.928154">
        <ele>982.182</ele>
        <time>2019-10-15T11:14:39Z</time>
      </trkpt>
      <trkpt lat="-22.056345" lon="-45.928085">
        <ele>982.512</ele>
        <time>2019-10-15T11:14:44Z</time>
      </trkpt>
      <trkpt lat="-22.056328" lon="-45.928040">
        <ele>983.262</ele>
        <time>2019-10-15T11:14:49Z</time>
      </trkpt>
      <trkpt lat="-22.056300" lon="-45.927972">
        <ele>984.447</ele>
        <time>2019-10-15T11:14:56Z</time>
      </trkpt>
      <trkpt lat="-22.056284" lon="-45.927916">
        <ele>985.556</ele>
        <time>2019-10-15T11:15:02Z</time>
      </trkpt>
      <trkpt lat="-22.056265" lon="-45.927856">
        <ele>985.938</ele>
        <time>2019-10-15T11:15:08Z</time>
      </trkpt>
      <trkpt lat="-22.056241" lon="-45.927799">
        <ele>987.070</ele>
        <time>2019-10-15T11:15:12Z</time>
      </trkpt>
      <trkpt lat="-22.056228" lon="-45.927730">
        <ele>987.917</ele>
        <time>2019-10-15T11:15:16Z</time>
      </trkpt>
      <trkpt lat="-22.056208" lon="-45.927675">
        <ele>988.708</ele>
        <time>2019-10-15T11:15:21Z</time>
      </trkpt>
      <trkpt lat="-22.056189" lon="-45.927628">
        <ele>989.517</ele>
        <time>2019-10-15T11:15:25Z</time>
      </trkpt>
      <trkpt lat="-22.056175" lon="-45.927499">
        <ele>990.085</ele>
        <time>2019-10-15T11:15:34Z</time>
      </trkpt>
      <trkpt lat="-22.056182" lon="-45.927419">
        <ele>990.288</ele>
        <time>2019-10-15T11:15:36Z</time>
      </trkpt>
      <trkpt lat="-22.056173" lon="-45.927347">
        <ele>990.083</ele>
        <time>2019-10-15T11:15:38Z</time>
      </trkpt>
      <trkpt lat="-22.056159" lon="-45.927298">
        <ele>989.813</ele>
        <time>2019-10-15T11:15:40Z</time>
      </trkpt>
      <trkpt lat="-22.056139" lon="-45.927228">
        <ele>990.163</ele>
        <time>2019-10-15T11:15:43Z</time>
      </trkpt>
      <trkpt lat="-22.056118" lon="-45.927169">
        <ele>990.578</ele>
        <time>2019-10-15T11:15:45Z</time>
      </trkpt>
      <trkpt lat="-22.056103" lon="-45.927116">
        <ele>990.767</ele>
        <time>2019-10-15T11:15:47Z</time>
      </trkpt>
      <trkpt lat="-22.056088" lon="-45.927067">
        <ele>991.499</ele>
        <time>2019-10-15T11:15:51Z</time>
      </trkpt>
      <trkpt lat="-22.056069" lon="-45.927022">
        <ele>991.707</ele>
        <time>2019-10-15T11:15:55Z</time>
      </trkpt>
      <trkpt lat="-22.056026" lon="-45.926979">
        <ele>992.427</ele>
        <time>2019-10-15T11:15:59Z</time>
      </trkpt>
      <trkpt lat="-22.055976" lon="-45.926950">
        <ele>994.208</ele>
        <time>2019-10-15T11:16:06Z</time>
      </trkpt>
      <trkpt lat="-22.055907" lon="-45.926897">
        <ele>994.883</ele>
        <time>2019-10-15T11:16:11Z</time>
      </trkpt>
      <trkpt lat="-22.055883" lon="-45.926851">
        <ele>994.721</ele>
        <time>2019-10-15T11:16:13Z</time>
      </trkpt>
      <trkpt lat="-22.055839" lon="-45.926803">
        <ele>995.324</ele>
        <time>2019-10-15T11:16:16Z</time>
      </trkpt>
      <trkpt lat="-22.055810" lon="-45.926765">
        <ele>995.779</ele>
        <time>2019-10-15T11:16:20Z</time>
      </trkpt>
      <trkpt lat="-22.055770" lon="-45.926716">
        <ele>995.989</ele>
        <time>2019-10-15T11:16:24Z</time>
      </trkpt>
      <trkpt lat="-22.055739" lon="-45.926674">
        <ele>995.569</ele>
        <time>2019-10-15T11:16:27Z</time>
      </trkpt>
      <trkpt lat="-22.055686" lon="-45.926620">
        <ele>995.824</ele>
        <time>2019-10-15T11:16:31Z</time>
      </trkpt>
      <trkpt lat="-22.055649" lon="-45.926588">
        <ele>996.883</ele>
        <time>2019-10-15T11:16:35Z</time>
      </trkpt>
      <trkpt lat="-22.055606" lon="-45.926534">
        <ele>997.194</ele>
        <time>2019-10-15T11:16:39Z</time>
      </trkpt>
      <trkpt lat="-22.055566" lon="-45.926507">
        <ele>997.957</ele>
        <time>2019-10-15T11:16:43Z</time>
      </trkpt>
      <trkpt lat="-22.055511" lon="-45.926494">
        <ele>999.222</ele>
        <time>2019-10-15T11:16:50Z</time>
      </trkpt>
      <trkpt lat="-22.055446" lon="-45.926458">
        <ele>999.808</ele>
        <time>2019-10-15T11:16:53Z</time>
      </trkpt>
      <trkpt lat="-22.055410" lon="-45.926428">
        <ele>1000.613</ele>
        <time>2019-10-15T11:16:56Z</time>
      </trkpt>
      <trkpt lat="-22.055352" lon="-45.926423">
        <ele>1001.041</ele>
        <time>2019-10-15T11:17:01Z</time>
      </trkpt>
      <trkpt lat="-22.055302" lon="-45.926413">
        <ele>1001.994</ele>
        <time>2019-10-15T11:17:09Z</time>
      </trkpt>
      <trkpt lat="-22.055246" lon="-45.926362">
        <ele>1002.049</ele>
        <time>2019-10-15T11:17:12Z</time>
      </trkpt>
      <trkpt lat="-22.055191" lon="-45.926314">
        <ele>1002.669</ele>
        <time>2019-10-15T11:17:17Z</time>
      </trkpt>
      <trkpt lat="-22.055143" lon="-45.926303">
        <ele>1003.969</ele>
        <time>2019-10-15T11:17:23Z</time>
      </trkpt>
      <trkpt lat="-22.055080" lon="-45.926270">
        <ele>1005.124</ele>
        <time>2019-10-15T11:17:33Z</time>
      </trkpt>
      <trkpt lat="-22.055036" lon="-45.926241">
        <ele>1006.353</ele>
        <time>2019-10-15T11:17:39Z</time>
      </trkpt>
      <trkpt lat="-22.054991" lon="-45.926210">
        <ele>1007.111</ele>
        <time>2019-10-15T11:17:44Z</time>
      </trkpt>
      <trkpt lat="-22.054946" lon="-45.926155">
        <ele>1007.921</ele>
        <time>2019-10-15T11:17:49Z</time>
      </trkpt>
      <trkpt lat="-22.054892" lon="-45.926104">
        <ele>1009.503</ele>
        <time>2019-10-15T11:17:57Z</time>
      </trkpt>
      <trkpt lat="-22.054844" lon="-45.926075">
        <ele>1010.608</ele>
        <time>2019-10-15T11:18:03Z</time>
      </trkpt>
      <trkpt lat="-22.054799" lon="-45.926044">
        <ele>1011.885</ele>
        <time>2019-10-15T11:18:10Z</time>
      </trkpt>
      <trkpt lat="-22.054760" lon="-45.926013">
        <ele>1012.813</ele>
        <time>2019-10-15T11:18:15Z</time>
      </trkpt>
      <trkpt lat="-22.054710" lon="-45.925996">
        <ele>1013.596</ele>
        <time>2019-10-15T11:18:19Z</time>
      </trkpt>
      <trkpt lat="-22.054655" lon="-45.925980">
        <ele>1015.161</ele>
        <time>2019-10-15T11:18:25Z</time>
      </trkpt>
      <trkpt lat="-22.054578" lon="-45.925990">
        <ele>1017.111</ele>
        <time>2019-10-15T11:18:38Z</time>
      </trkpt>
      <trkpt lat="-22.054499" lon="-45.926047">
        <ele>1018.051</ele>
        <time>2019-10-15T11:18:50Z</time>
      </trkpt>
      <trkpt lat="-22.054472" lon="-45.926087">
        <ele>1019.876</ele>
        <time>2019-10-15T11:18:57Z</time>
      </trkpt>
      <trkpt lat="-22.054446" lon="-45.926134">
        <ele>1020.355</ele>
        <time>2019-10-15T11:19:03Z</time>
      </trkpt>
      <trkpt lat="-22.054409" lon="-45.926189">
        <ele>1021.252</ele>
        <time>2019-10-15T11:19:09Z</time>
      </trkpt>
      <trkpt lat="-22.054384" lon="-45.926248">
        <ele>1022.153</ele>
        <time>2019-10-15T11:19:14Z</time>
      </trkpt>
      <trkpt lat="-22.054362" lon="-45.926294">
        <ele>1022.508</ele>
        <time>2019-10-15T11:19:18Z</time>
      </trkpt>
      <trkpt lat="-22.054332" lon="-45.926340">
        <ele>1023.508</ele>
        <time>2019-10-15T11:19:23Z</time>
      </trkpt>
      <trkpt lat="-22.054296" lon="-45.926397">
        <ele>1024.399</ele>
        <time>2019-10-15T11:19:28Z</time>
      </trkpt>
      <trkpt lat="-22.054270" lon="-45.926438">
        <ele>1025.057</ele>
        <time>2019-10-15T11:19:33Z</time>
      </trkpt>
      <trkpt lat="-22.054237" lon="-45.926487">
        <ele>1026.620</ele>
        <time>2019-10-15T11:19:38Z</time>
      </trkpt>
      <trkpt lat="-22.054196" lon="-45.926526">
        <ele>1027.725</ele>
        <time>2019-10-15T11:19:42Z</time>
      </trkpt>
      <trkpt lat="-22.054143" lon="-45.926567">
        <ele>1029.145</ele>
        <time>2019-10-15T11:19:47Z</time>
      </trkpt>
      <trkpt lat="-22.054091" lon="-45.926595">
        <ele>1029.855</ele>
        <time>2019-10-15T11:19:51Z</time>
      </trkpt>
      <trkpt lat="-22.054045" lon="-45.926617">
        <ele>1031.290</ele>
        <time>2019-10-15T11:19:55Z</time>
      </trkpt>
      <trkpt lat="-22.053999" lon="-45.926627">
        <ele>1032.279</ele>
        <time>2019-10-15T11:19:58Z</time>
      </trkpt>
      <trkpt lat="-22.053953" lon="-45.926632">
        <ele>1033.348</ele>
        <time>2019-10-15T11:20:03Z</time>
      </trkpt>
      <trkpt lat="-22.053909" lon="-45.926617">
        <ele>1033.961</ele>
        <time>2019-10-15T11:20:07Z</time>
      </trkpt>
      <trkpt lat="-22.053863" lon="-45.926597">
        <ele>1035.017</ele>
        <time>2019-10-15T11:20:11Z</time>
      </trkpt>
      <trkpt lat="-22.053812" lon="-45.926566">
        <ele>1035.708</ele>
        <time>2019-10-15T11:20:15Z</time>
      </trkpt>
      <trkpt lat="-22.053772" lon="-45.926532">
        <ele>1036.598</ele>
        <time>2019-10-15T11:20:20Z</time>
      </trkpt>
      <trkpt lat="-22.053723" lon="-45.926482">
        <ele>1038.066</ele>
        <time>2019-10-15T11:20:31Z</time>
      </trkpt>
      <trkpt lat="-22.053661" lon="-45.926424">
        <ele>1039.489</ele>
        <time>2019-10-15T11:20:41Z</time>
      </trkpt>
      <trkpt lat="-22.053629" lon="-45.926389">
        <ele>1040.054</ele>
        <time>2019-10-15T11:20:47Z</time>
      </trkpt>
      <trkpt lat="-22.053601" lon="-45.926344">
        <ele>1041.084</ele>
        <time>2019-10-15T11:20:51Z</time>
      </trkpt>
      <trkpt lat="-22.053572" lon="-45.926305">
        <ele>1042.034</ele>
        <time>2019-10-15T11:20:56Z</time>
      </trkpt>
      <trkpt lat="-22.053553" lon="-45.926244">
        <ele>1042.779</ele>
        <time>2019-10-15T11:21:01Z</time>
      </trkpt>
      <trkpt lat="-22.053538" lon="-45.926197">
        <ele>1043.338</ele>
        <time>2019-10-15T11:21:14Z</time>
      </trkpt>
      <trkpt lat="-22.053536" lon="-45.926140">
        <ele>1044.027</ele>
        <time>2019-10-15T11:21:18Z</time>
      </trkpt>
      <trkpt lat="-22.053545" lon="-45.926087">
        <ele>1045.168</ele>
        <time>2019-10-15T11:21:21Z</time>
      </trkpt>
      <trkpt lat="-22.053553" lon="-45.926038">
        <ele>1045.614</ele>
        <time>2019-10-15T11:21:23Z</time>
      </trkpt>
      <trkpt lat="-22.053565" lon="-45.925973">
        <ele>1047.208</ele>
        <time>2019-10-15T11:21:28Z</time>
      </trkpt>
      <trkpt lat="-22.053582" lon="-45.925924">
        <ele>1047.956</ele>
        <time>2019-10-15T11:21:31Z</time>
      </trkpt>
      <trkpt lat="-22.053614" lon="-45.925875">
        <ele>1049.054</ele>
        <time>2019-10-15T11:21:35Z</time>
      </trkpt>
      <trkpt lat="-22.053650" lon="-45.925834">
        <ele>1050.687</ele>
        <time>2019-10-15T11:21:39Z</time>
      </trkpt>
      <trkpt lat="-22.053676" lon="-45.925791">
        <ele>1051.312</ele>
        <time>2019-10-15T11:21:44Z</time>
      </trkpt>
      <trkpt lat="-22.053710" lon="-45.925749">
        <ele>1052.022</ele>
        <time>2019-10-15T11:21:48Z</time>
      </trkpt>
      <trkpt lat="-22.053797" lon="-45.925700">
        <ele>1052.932</ele>
        <time>2019-10-15T11:22:11Z</time>
      </trkpt>
      <trkpt lat="-22.053815" lon="-45.925655">
        <ele>1055.067</ele>
        <time>2019-10-15T11:22:21Z</time>
      </trkpt>
      <trkpt lat="-22.053850" lon="-45.925609">
        <ele>1055.866</ele>
        <time>2019-10-15T11:22:26Z</time>
      </trkpt>
      <trkpt lat="-22.053882" lon="-45.925545">
        <ele>1056.938</ele>
        <time>2019-10-15T11:22:32Z</time>
      </trkpt>
      <trkpt lat="-22.053905" lon="-45.925480">
        <ele>1058.270</ele>
        <time>2019-10-15T11:22:38Z</time>
      </trkpt>
      <trkpt lat="-22.053918" lon="-45.925429">
        <ele>1059.017</ele>
        <time>2019-10-15T11:22:42Z</time>
      </trkpt>
      <trkpt lat="-22.053939" lon="-45.925375">
        <ele>1060.308</ele>
        <time>2019-10-15T11:22:56Z</time>
      </trkpt>
      <trkpt lat="-22.053932" lon="-45.925321">
        <ele>1061.617</ele>
        <time>2019-10-15T11:23:02Z</time>
      </trkpt>
      <trkpt lat="-22.053937" lon="-45.925266">
        <ele>1063.155</ele>
        <time>2019-10-15T11:23:07Z</time>
      </trkpt>
      <trkpt lat="-22.053948" lon="-45.925206">
        <ele>1064.688</ele>
        <time>2019-10-15T11:23:12Z</time>
      </trkpt>
      <trkpt lat="-22.053969" lon="-45.925162">
        <ele>1065.823</ele>
        <time>2019-10-15T11:23:17Z</time>
      </trkpt>
      <trkpt lat="-22.053977" lon="-45.925114">
        <ele>1066.683</ele>
        <time>2019-10-15T11:23:21Z</time>
      </trkpt>
      <trkpt lat="-22.053996" lon="-45.925066">
        <ele>1068.023</ele>
        <time>2019-10-15T11:23:25Z</time>
      </trkpt>
      <trkpt lat="-22.054071" lon="-45.925030">
        <ele>1068.588</ele>
        <time>2019-10-15T11:23:43Z</time>
      </trkpt>
      <trkpt lat="-22.054102" lon="-45.924987">
        <ele>1070.887</ele>
        <time>2019-10-15T11:24:05Z</time>
      </trkpt>
      <trkpt lat="-22.054108" lon="-45.924935">
        <ele>1072.454</ele>
        <time>2019-10-15T11:24:10Z</time>
      </trkpt>
      <trkpt lat="-22.054124" lon="-45.924874">
        <ele>1073.656</ele>
        <time>2019-10-15T11:24:14Z</time>
      </trkpt>
      <trkpt lat="-22.054160" lon="-45.924824">
        <ele>1074.511</ele>
        <time>2019-10-15T11:24:16Z</time>
      </trkpt>
      <trkpt lat="-22.054170" lon="-45.924774">
        <ele>1075.708</ele>
        <time>2019-10-15T11:24:21Z</time>
      </trkpt>
      <trkpt lat="-22.054174" lon="-45.924723">
        <ele>1076.659</ele>
        <time>2019-10-15T11:24:26Z</time>
      </trkpt>
      <trkpt lat="-22.054192" lon="-45.924661">
        <ele>1078.437</ele>
        <time>2019-10-15T11:24:36Z</time>
      </trkpt>
      <trkpt lat="-22.054215" lon="-45.924618">
        <ele>1079.830</ele>
        <time>2019-10-15T11:24:43Z</time>
      </trkpt>
      <trkpt lat="-22.054222" lon="-45.924563">
        <ele>1081.045</ele>
        <time>2019-10-15T11:24:50Z</time>
      </trkpt>
      <trkpt lat="-22.054230" lon="-45.924509">
        <ele>1082.055</ele>
        <time>2019-10-15T11:24:56Z</time>
      </trkpt>
      <trkpt lat="-22.054240" lon="-45.924450">
        <ele>1082.875</ele>
        <time>2019-10-15T11:25:01Z</time>
      </trkpt>
      <trkpt lat="-22.054252" lon="-45.924393">
        <ele>1083.680</ele>
        <time>2019-10-15T11:25:06Z</time>
      </trkpt>
      <trkpt lat="-22.054270" lon="-45.924330">
        <ele>1084.289</ele>
        <time>2019-10-15T11:25:13Z</time>
      </trkpt>
      <trkpt lat="-22.054282" lon="-45.924271">
        <ele>1084.529</ele>
        <time>2019-10-15T11:25:18Z</time>
      </trkpt>
      <trkpt lat="-22.054300" lon="-45.924222">
        <ele>1085.000</ele>
        <time>2019-10-15T11:25:22Z</time>
      </trkpt>
      <trkpt lat="-22.054312" lon="-45.924163">
        <ele>1085.620</ele>
        <time>2019-10-15T11:25:27Z</time>
      </trkpt>
      <trkpt lat="-22.054385" lon="-45.924101">
        <ele>1085.908</ele>
        <time>2019-10-15T11:25:44Z</time>
      </trkpt>
      <trkpt lat="-22.054427" lon="-45.924011">
        <ele>1086.846</ele>
        <time>2019-10-15T11:28:12Z</time>
      </trkpt>
      <trkpt lat="-22.054461" lon="-45.923960">
        <ele>1087.884</ele>
        <time>2019-10-15T11:28:20Z</time>
      </trkpt>
      <trkpt lat="-22.054491" lon="-45.923910">
        <ele>1088.857</ele>
        <time>2019-10-15T11:28:26Z</time>
      </trkpt>
      <trkpt lat="-22.054519" lon="-45.923866">
        <ele>1089.682</ele>
        <time>2019-10-15T11:28:30Z</time>
      </trkpt>
      <trkpt lat="-22.054549" lon="-45.923827">
        <ele>1090.442</ele>
        <time>2019-10-15T11:28:35Z</time>
      </trkpt>
      <trkpt lat="-22.054587" lon="-45.923799">
        <ele>1091.342</ele>
        <time>2019-10-15T11:28:38Z</time>
      </trkpt>
      <trkpt lat="-22.054646" lon="-45.923773">
        <ele>1091.957</ele>
        <time>2019-10-15T11:28:40Z</time>
      </trkpt>
      <trkpt lat="-22.054655" lon="-45.923715">
        <ele>1093.786</ele>
        <time>2019-10-15T11:28:45Z</time>
      </trkpt>
      <trkpt lat="-22.054600" lon="-45.923691">
        <ele>1095.559</ele>
        <time>2019-10-15T11:28:53Z</time>
      </trkpt>
      <trkpt lat="-22.054557" lon="-45.923707">
        <ele>1096.703</ele>
        <time>2019-10-15T11:28:59Z</time>
      </trkpt>
      <trkpt lat="-22.054495" lon="-45.923716">
        <ele>1097.523</ele>
        <time>2019-10-15T11:29:06Z</time>
      </trkpt>
      <trkpt lat="-22.054446" lon="-45.923733">
        <ele>1098.108</ele>
        <time>2019-10-15T11:29:12Z</time>
      </trkpt>
      <trkpt lat="-22.054405" lon="-45.923762">
        <ele>1098.499</ele>
        <time>2019-10-15T11:29:17Z</time>
      </trkpt>
      <trkpt lat="-22.054369" lon="-45.923792">
        <ele>1098.817</ele>
        <time>2019-10-15T11:29:21Z</time>
      </trkpt>
      <trkpt lat="-22.054324" lon="-45.923827">
        <ele>1099.160</ele>
        <time>2019-10-15T11:29:25Z</time>
      </trkpt>
      <trkpt lat="-22.054264" lon="-45.923848">
        <ele>1099.135</ele>
        <time>2019-10-15T11:29:26Z</time>
      </trkpt>
      <trkpt lat="-22.054217" lon="-45.923903">
        <ele>1100.035</ele>
        <time>2019-10-15T11:29:32Z</time>
      </trkpt>
      <trkpt lat="-22.054202" lon="-45.923953">
        <ele>1101.045</ele>
        <time>2019-10-15T11:29:39Z</time>
      </trkpt>
      <trkpt lat="-22.054185" lon="-45.924007">
        <ele>1101.990</ele>
        <time>2019-10-15T11:29:45Z</time>
      </trkpt>
      <trkpt lat="-22.054145" lon="-45.924040">
        <ele>1102.279</ele>
        <time>2019-10-15T11:29:46Z</time>
      </trkpt>
      <trkpt lat="-22.054089" lon="-45.924080">
        <ele>1102.818</ele>
        <time>2019-10-15T11:29:49Z</time>
      </trkpt>
      <trkpt lat="-22.054034" lon="-45.924125">
        <ele>1103.798</ele>
        <time>2019-10-15T11:29:54Z</time>
      </trkpt>
      <trkpt lat="-22.053996" lon="-45.924164">
        <ele>1104.417</ele>
        <time>2019-10-15T11:30:01Z</time>
      </trkpt>
      <trkpt lat="-22.053952" lon="-45.924190">
        <ele>1104.708</ele>
        <time>2019-10-15T11:30:04Z</time>
      </trkpt>
      <trkpt lat="-22.053890" lon="-45.924210">
        <ele>1104.725</ele>
        <time>2019-10-15T11:30:06Z</time>
      </trkpt>
      <trkpt lat="-22.053837" lon="-45.924233">
        <ele>1105.263</ele>
        <time>2019-10-15T11:30:09Z</time>
      </trkpt>
      <trkpt lat="-22.053788" lon="-45.924254">
        <ele>1105.136</ele>
        <time>2019-10-15T11:30:12Z</time>
      </trkpt>
      <trkpt lat="-22.053744" lon="-45.924282">
        <ele>1105.481</ele>
        <time>2019-10-15T11:30:15Z</time>
      </trkpt>
      <trkpt lat="-22.053700" lon="-45.924306">
        <ele>1105.631</ele>
        <time>2019-10-15T11:30:17Z</time>
      </trkpt>
      <trkpt lat="-22.053650" lon="-45.924338">
        <ele>1105.991</ele>
        <time>2019-10-15T11:30:21Z</time>
      </trkpt>
      <trkpt lat="-22.053604" lon="-45.924372">
        <ele>1106.216</ele>
        <time>2019-10-15T11:30:24Z</time>
      </trkpt>
      <trkpt lat="-22.053559" lon="-45.924392">
        <ele>1106.545</ele>
        <time>2019-10-15T11:30:26Z</time>
      </trkpt>
      <trkpt lat="-22.053520" lon="-45.924422">
        <ele>1106.769</ele>
        <time>2019-10-15T11:30:30Z</time>
      </trkpt>
      <trkpt lat="-22.053469" lon="-45.924443">
        <ele>1107.004</ele>
        <time>2019-10-15T11:30:33Z</time>
      </trkpt>
      <trkpt lat="-22.053398" lon="-45.924483">
        <ele>1107.224</ele>
        <time>2019-10-15T11:30:38Z</time>
      </trkpt>
      <trkpt lat="-22.053328" lon="-45.924497">
        <ele>1107.608</ele>
        <time>2019-10-15T11:30:42Z</time>
      </trkpt>
      <trkpt lat="-22.053281" lon="-45.924506">
        <ele>1108.480</ele>
        <time>2019-10-15T11:30:48Z</time>
      </trkpt>
      <trkpt lat="-22.053236" lon="-45.924523">
        <ele>1109.518</ele>
        <time>2019-10-15T11:30:54Z</time>
      </trkpt>
      <trkpt lat="-22.053192" lon="-45.924535">
        <ele>1110.581</ele>
        <time>2019-10-15T11:30:58Z</time>
      </trkpt>
      <trkpt lat="-22.053132" lon="-45.924520">
        <ele>1111.976</ele>
        <time>2019-10-15T11:31:06Z</time>
      </trkpt>
      <trkpt lat="-22.053083" lon="-45.924510">
        <ele>1113.686</ele>
        <time>2019-10-15T11:31:14Z</time>
      </trkpt>
      <trkpt lat="-22.053032" lon="-45.924511">
        <ele>1115.166</ele>
        <time>2019-10-15T11:31:20Z</time>
      </trkpt>
      <trkpt lat="-22.052971" lon="-45.924508">
        <ele>1116.321</ele>
        <time>2019-10-15T11:31:26Z</time>
      </trkpt>
      <trkpt lat="-22.052921" lon="-45.924507">
        <ele>1117.270</ele>
        <time>2019-10-15T11:31:29Z</time>
      </trkpt>
      <trkpt lat="-22.052870" lon="-45.924509">
        <ele>1117.916</ele>
        <time>2019-10-15T11:31:33Z</time>
      </trkpt>
      <trkpt lat="-22.052818" lon="-45.924505">
        <ele>1119.076</ele>
        <time>2019-10-15T11:31:38Z</time>
      </trkpt>
      <trkpt lat="-22.052762" lon="-45.924490">
        <ele>1119.813</ele>
        <time>2019-10-15T11:31:44Z</time>
      </trkpt>
      <trkpt lat="-22.052707" lon="-45.924490">
        <ele>1120.408</ele>
        <time>2019-10-15T11:31:48Z</time>
      </trkpt>
      <trkpt lat="-22.052635" lon="-45.924495">
        <ele>1121.585</ele>
        <time>2019-10-15T11:31:55Z</time>
      </trkpt>
      <trkpt lat="-22.052589" lon="-45.924509">
        <ele>1121.723</ele>
        <time>2019-10-15T11:32:00Z</time>
      </trkpt>
      <trkpt lat="-22.052511" lon="-45.924528">
        <ele>1123.056</ele>
        <time>2019-10-15T11:32:09Z</time>
      </trkpt>
      <trkpt lat="-22.052466" lon="-45.924548">
        <ele>1123.711</ele>
        <time>2019-10-15T11:32:16Z</time>
      </trkpt>
      <trkpt lat="-22.052422" lon="-45.924580">
        <ele>1124.771</ele>
        <time>2019-10-15T11:32:22Z</time>
      </trkpt>
      <trkpt lat="-22.052379" lon="-45.924595">
        <ele>1125.021</ele>
        <time>2019-10-15T11:32:26Z</time>
      </trkpt>
      <trkpt lat="-22.052298" lon="-45.924611">
        <ele>1125.846</ele>
        <time>2019-10-15T11:32:33Z</time>
      </trkpt>
      <trkpt lat="-22.052250" lon="-45.924637">
        <ele>1125.635</ele>
        <time>2019-10-15T11:32:39Z</time>
      </trkpt>
      <trkpt lat="-22.052201" lon="-45.924663">
        <ele>1126.695</ele>
        <time>2019-10-15T11:32:44Z</time>
      </trkpt>
      <trkpt lat="-22.052158" lon="-45.924690">
        <ele>1127.049</ele>
        <time>2019-10-15T11:32:49Z</time>
      </trkpt>
      <trkpt lat="-22.052105" lon="-45.924710">
        <ele>1127.223</ele>
        <time>2019-10-15T11:32:53Z</time>
      </trkpt>
      <trkpt lat="-22.052041" lon="-45.924721">
        <ele>1127.708</ele>
        <time>2019-10-15T11:32:57Z</time>
      </trkpt>
      <trkpt lat="-22.051989" lon="-45.924712">
        <ele>1127.543</ele>
        <time>2019-10-15T11:32:58Z</time>
      </trkpt>
      <trkpt lat="-22.051935" lon="-45.924712">
        <ele>1127.941</ele>
        <time>2019-10-15T11:33:00Z</time>
      </trkpt>
      <trkpt lat="-22.051890" lon="-45.924734">
        <ele>1128.484</ele>
        <time>2019-10-15T11:33:05Z</time>
      </trkpt>
      <trkpt lat="-22.051842" lon="-45.924754">
        <ele>1128.439</ele>
        <time>2019-10-15T11:33:08Z</time>
      </trkpt>
      <trkpt lat="-22.051801" lon="-45.924776">
        <ele>1129.339</ele>
        <time>2019-10-15T11:33:13Z</time>
      </trkpt>
      <trkpt lat="-22.051744" lon="-45.924770">
        <ele>1129.799</ele>
        <time>2019-10-15T11:33:17Z</time>
      </trkpt>
      <trkpt lat="-22.051695" lon="-45.924794">
        <ele>1130.954</ele>
        <time>2019-10-15T11:33:23Z</time>
      </trkpt>
      <trkpt lat="-22.051652" lon="-45.924821">
        <ele>1131.773</ele>
        <time>2019-10-15T11:33:29Z</time>
      </trkpt>
      <trkpt lat="-22.051608" lon="-45.924838">
        <ele>1132.914</ele>
        <time>2019-10-15T11:33:34Z</time>
      </trkpt>
      <trkpt lat="-22.051546" lon="-45.924856">
        <ele>1134.154</ele>
        <time>2019-10-15T11:33:41Z</time>
      </trkpt>
      <trkpt lat="-22.051503" lon="-45.924879">
        <ele>1134.709</ele>
        <time>2019-10-15T11:33:46Z</time>
      </trkpt>
      <trkpt lat="-22.051456" lon="-45.924886">
        <ele>1135.008</ele>
        <time>2019-10-15T11:33:50Z</time>
      </trkpt>
      <trkpt lat="-22.051402" lon="-45.924891">
        <ele>1136.195</ele>
        <time>2019-10-15T11:33:55Z</time>
      </trkpt>
      <trkpt lat="-22.051337" lon="-45.924886">
        <ele>1136.613</ele>
        <time>2019-10-15T11:34:00Z</time>
      </trkpt>
      <trkpt lat="-22.051288" lon="-45.924879">
        <ele>1137.176</ele>
        <time>2019-10-15T11:34:04Z</time>
      </trkpt>
      <trkpt lat="-22.051228" lon="-45.924877">
        <ele>1137.481</ele>
        <time>2019-10-15T11:34:08Z</time>
      </trkpt>
      <trkpt lat="-22.051167" lon="-45.924826">
        <ele>1137.681</ele>
        <time>2019-10-15T11:34:11Z</time>
      </trkpt>
      <trkpt lat="-22.051112" lon="-45.924793">
        <ele>1137.991</ele>
        <time>2019-10-15T11:34:15Z</time>
      </trkpt>
      <trkpt lat="-22.051065" lon="-45.924785">
        <ele>1138.376</ele>
        <time>2019-10-15T11:34:21Z</time>
      </trkpt>
      <trkpt lat="-22.050992" lon="-45.924766">
        <ele>1138.965</ele>
        <time>2019-10-15T11:34:28Z</time>
      </trkpt>
      <trkpt lat="-22.050959" lon="-45.924717">
        <ele>1139.098</ele>
        <time>2019-10-15T11:34:30Z</time>
      </trkpt>
      <trkpt lat="-22.050932" lon="-45.924672">
        <ele>1139.215</ele>
        <time>2019-10-15T11:34:32Z</time>
      </trkpt>
      <trkpt lat="-22.050895" lon="-45.924640">
        <ele>1139.726</ele>
        <time>2019-10-15T11:34:37Z</time>
      </trkpt>
      <trkpt lat="-22.050850" lon="-45.924597">
        <ele>1140.208</ele>
        <time>2019-10-15T11:34:41Z</time>
      </trkpt>
      <trkpt lat="-22.050819" lon="-45.924540">
        <ele>1140.883</ele>
        <time>2019-10-15T11:34:44Z</time>
      </trkpt>
      <trkpt lat="-22.050779" lon="-45.924508">
        <ele>1141.731</ele>
        <time>2019-10-15T11:34:49Z</time>
      </trkpt>
      <trkpt lat="-22.050732" lon="-45.924484">
        <ele>1142.534</ele>
        <time>2019-10-15T11:34:55Z</time>
      </trkpt>
      <trkpt lat="-22.050687" lon="-45.924460">
        <ele>1143.639</ele>
        <time>2019-10-15T11:35:00Z</time>
      </trkpt>
      <trkpt lat="-22.050646" lon="-45.924434">
        <ele>1144.299</ele>
        <time>2019-10-15T11:35:04Z</time>
      </trkpt>
      <trkpt lat="-22.050605" lon="-45.924402">
        <ele>1144.569</ele>
        <time>2019-10-15T11:35:09Z</time>
      </trkpt>
      <trkpt lat="-22.050557" lon="-45.924322">
        <ele>1144.864</ele>
        <time>2019-10-15T11:36:15Z</time>
      </trkpt>
      <trkpt lat="-22.050501" lon="-45.924305">
        <ele>1143.423</ele>
        <time>2019-10-15T11:36:47Z</time>
      </trkpt>
      <trkpt lat="-22.050458" lon="-45.924289">
        <ele>1142.594</ele>
        <time>2019-10-15T11:36:49Z</time>
      </trkpt>
      <trkpt lat="-22.050370" lon="-45.924261">
        <ele>1141.357</ele>
        <time>2019-10-15T11:36:53Z</time>
      </trkpt>
      <trkpt lat="-22.050321" lon="-45.924229">
        <ele>1140.222</ele>
        <time>2019-10-15T11:36:54Z</time>
      </trkpt>
      <trkpt lat="-22.050282" lon="-45.924197">
        <ele>1139.408</ele>
        <time>2019-10-15T11:36:56Z</time>
      </trkpt>
      <trkpt lat="-22.051752" lon="-45.920721">
        <ele>1105.453</ele>
        <time>2019-10-15T11:38:01Z</time>
      </trkpt>
      <trkpt lat="-22.051826" lon="-45.920701">
        <ele>1105.531</ele>
        <time>2019-10-15T11:38:02Z</time>
      </trkpt>
      <trkpt lat="-22.051874" lon="-45.920693">
        <ele>1106.454</ele>
        <time>2019-10-15T11:38:05Z</time>
      </trkpt>
      <trkpt lat="-22.051930" lon="-45.920692">
        <ele>1106.289</ele>
        <time>2019-10-15T11:38:07Z</time>
      </trkpt>
      <trkpt lat="-22.051995" lon="-45.920699">
        <ele>1107.149</ele>
        <time>2019-10-15T11:38:11Z</time>
      </trkpt>
      <trkpt lat="-22.052042" lon="-45.920702">
        <ele>1107.679</ele>
        <time>2019-10-15T11:38:13Z</time>
      </trkpt>
      <trkpt lat="-22.052100" lon="-45.920706">
        <ele>1107.744</ele>
        <time>2019-10-15T11:38:17Z</time>
      </trkpt>
      <trkpt lat="-22.052155" lon="-45.920702">
        <ele>1107.883</ele>
        <time>2019-10-15T11:38:19Z</time>
      </trkpt>
      <trkpt lat="-22.052204" lon="-45.920703">
        <ele>1108.198</ele>
        <time>2019-10-15T11:38:22Z</time>
      </trkpt>
      <trkpt lat="-22.052264" lon="-45.920699">
        <ele>1108.315</ele>
        <time>2019-10-15T11:38:25Z</time>
      </trkpt>
      <trkpt lat="-22.052312" lon="-45.920690">
        <ele>1108.526</ele>
        <time>2019-10-15T11:38:27Z</time>
      </trkpt>
      <trkpt lat="-22.052362" lon="-45.920675">
        <ele>1109.008</ele>
        <time>2019-10-15T11:38:31Z</time>
      </trkpt>
      <trkpt lat="-22.052408" lon="-45.920662">
        <ele>1109.183</ele>
        <time>2019-10-15T11:38:33Z</time>
      </trkpt>
      <trkpt lat="-22.052456" lon="-45.920646">
        <ele>1109.381</ele>
        <time>2019-10-15T11:38:37Z</time>
      </trkpt>
      <trkpt lat="-22.052506" lon="-45.920630">
        <ele>1109.854</ele>
        <time>2019-10-15T11:38:40Z</time>
      </trkpt>
      <trkpt lat="-22.052555" lon="-45.920616">
        <ele>1109.899</ele>
        <time>2019-10-15T11:38:44Z</time>
      </trkpt>
      <trkpt lat="-22.052618" lon="-45.920605">
        <ele>1110.829</ele>
        <time>2019-10-15T11:38:48Z</time>
      </trkpt>
      <trkpt lat="-22.052664" lon="-45.920604">
        <ele>1111.559</ele>
        <time>2019-10-15T11:38:51Z</time>
      </trkpt>
      <trkpt lat="-22.052720" lon="-45.920583">
        <ele>1111.814</ele>
        <time>2019-10-15T11:38:56Z</time>
      </trkpt>
      <trkpt lat="-22.052768" lon="-45.920564">
        <ele>1112.053</ele>
        <time>2019-10-15T11:38:59Z</time>
      </trkpt>
      <trkpt lat="-22.052813" lon="-45.920552">
        <ele>1112.322</ele>
        <time>2019-10-15T11:39:03Z</time>
      </trkpt>
      <trkpt lat="-22.052859" lon="-45.920535">
        <ele>1112.862</ele>
        <time>2019-10-15T11:39:07Z</time>
      </trkpt>
      <trkpt lat="-22.052912" lon="-45.920520">
        <ele>1112.408</ele>
        <time>2019-10-15T11:39:13Z</time>
      </trkpt>
      <trkpt lat="-22.052971" lon="-45.920506">
        <ele>1111.408</ele>
        <time>2019-10-15T11:39:15Z</time>
      </trkpt>
      <trkpt lat="-22.053039" lon="-45.920494">
        <ele>1110.296</ele>
        <time>2019-10-15T11:39:18Z</time>
      </trkpt>
      <trkpt lat="-22.053091" lon="-45.920475">
        <ele>1109.654</ele>
        <time>2019-10-15T11:39:19Z</time>
      </trkpt>
      <trkpt lat="-22.053165" lon="-45.920432">
        <ele>1108.997</ele>
        <time>2019-10-15T11:39:21Z</time>
      </trkpt>
      <trkpt lat="-22.053233" lon="-45.920393">
        <ele>1108.712</ele>
        <time>2019-10-15T11:39:24Z</time>
      </trkpt>
      <trkpt lat="-22.053277" lon="-45.920365">
        <ele>1108.572</ele>
        <time>2019-10-15T11:39:25Z</time>
      </trkpt>
      <trkpt lat="-22.053323" lon="-45.920326">
        <ele>1108.182</ele>
        <time>2019-10-15T11:39:26Z</time>
      </trkpt>
      <trkpt lat="-22.055121" lon="-45.918215">
        <ele>1096.827</ele>
        <time>2019-10-15T11:40:20Z</time>
      </trkpt>
      <trkpt lat="-22.055104" lon="-45.918163">
        <ele>1097.776</ele>
        <time>2019-10-15T11:40:21Z</time>
      </trkpt>
      <trkpt lat="-22.055056" lon="-45.918109">
        <ele>1098.744</ele>
        <time>2019-10-15T11:40:23Z</time>
      </trkpt>
      <trkpt lat="-22.055012" lon="-45.918081">
        <ele>1099.205</ele>
        <time>2019-10-15T11:40:25Z</time>
      </trkpt>
      <trkpt lat="-22.054963" lon="-45.918047">
        <ele>1100.015</ele>
        <time>2019-10-15T11:40:28Z</time>
      </trkpt>
      <trkpt lat="-22.054914" lon="-45.918024">
        <ele>1100.308</ele>
        <time>2019-10-15T11:40:32Z</time>
      </trkpt>
      <trkpt lat="-22.054866" lon="-45.918011">
        <ele>1100.728</ele>
        <time>2019-10-15T11:40:35Z</time>
      </trkpt>
      <trkpt lat="-22.054820" lon="-45.917988">
        <ele>1100.466</ele>
        <time>2019-10-15T11:40:37Z</time>
      </trkpt>
      <trkpt lat="-22.054770" lon="-45.917968">
        <ele>1100.799</ele>
        <time>2019-10-15T11:40:41Z</time>
      </trkpt>
      <trkpt lat="-22.054718" lon="-45.917950">
        <ele>1101.094</ele>
        <time>2019-10-15T11:40:44Z</time>
      </trkpt>
      <trkpt lat="-22.054670" lon="-45.917929">
        <ele>1101.154</ele>
        <time>2019-10-15T11:40:47Z</time>
      </trkpt>
      <trkpt lat="-22.054624" lon="-45.917909">
        <ele>1102.014</ele>
        <time>2019-10-15T11:40:51Z</time>
      </trkpt>
      <trkpt lat="-22.054583" lon="-45.917882">
        <ele>1102.619</ele>
        <time>2019-10-15T11:40:54Z</time>
      </trkpt>
      <trkpt lat="-22.054528" lon="-45.917849">
        <ele>1102.578</ele>
        <time>2019-10-15T11:40:58Z</time>
      </trkpt>
      <trkpt lat="-22.054492" lon="-45.917813">
        <ele>1102.761</ele>
        <time>2019-10-15T11:41:01Z</time>
      </trkpt>
      <trkpt lat="-22.054452" lon="-45.917785">
        <ele>1103.421</ele>
        <time>2019-10-15T11:41:03Z</time>
      </trkpt>
      <trkpt lat="-22.054416" lon="-45.917756">
        <ele>1103.513</ele>
        <time>2019-10-15T11:41:06Z</time>
      </trkpt>
      <trkpt lat="-22.054379" lon="-45.917714">
        <ele>1103.508</ele>
        <time>2019-10-15T11:41:09Z</time>
      </trkpt>
      <trkpt lat="-22.054338" lon="-45.917663">
        <ele>1103.860</ele>
        <time>2019-10-15T11:41:12Z</time>
      </trkpt>
      <trkpt lat="-22.054312" lon="-45.917611">
        <ele>1104.498</ele>
        <time>2019-10-15T11:41:15Z</time>
      </trkpt>
      <trkpt lat="-22.054285" lon="-45.917548">
        <ele>1104.231</ele>
        <time>2019-10-15T11:41:18Z</time>
      </trkpt>
      <trkpt lat="-22.054265" lon="-45.917503">
        <ele>1104.376</ele>
        <time>2019-10-15T11:41:20Z</time>
      </trkpt>
      <trkpt lat="-22.054247" lon="-45.917445">
        <ele>1104.786</ele>
        <time>2019-10-15T11:41:24Z</time>
      </trkpt>
      <trkpt lat="-22.054221" lon="-45.917390">
        <ele>1104.866</ele>
        <time>2019-10-15T11:41:26Z</time>
      </trkpt>
      <trkpt lat="-22.054202" lon="-45.917343">
        <ele>1104.761</ele>
        <time>2019-10-15T11:41:29Z</time>
      </trkpt>
      <trkpt lat="-22.054185" lon="-45.917294">
        <ele>1104.960</ele>
        <time>2019-10-15T11:41:31Z</time>
      </trkpt>
      <trkpt lat="-22.054167" lon="-45.917248">
        <ele>1105.151</ele>
        <time>2019-10-15T11:41:33Z</time>
      </trkpt>
      <trkpt lat="-22.054151" lon="-45.917156">
        <ele>1105.401</ele>
        <time>2019-10-15T11:41:37Z</time>
      </trkpt>
      <trkpt lat="-22.054149" lon="-45.917099">
        <ele>1105.411</ele>
        <time>2019-10-15T11:41:39Z</time>
      </trkpt>
      <trkpt lat="-22.054147" lon="-45.917047">
        <ele>1105.408</ele>
        <time>2019-10-15T11:41:41Z</time>
      </trkpt>
      <trkpt lat="-22.054153" lon="-45.916997">
        <ele>1105.639</ele>
        <time>2019-10-15T11:41:44Z</time>
      </trkpt>
      <trkpt lat="-22.054154" lon="-45.916940">
        <ele>1105.887</ele>
        <time>2019-10-15T11:41:47Z</time>
      </trkpt>
      <trkpt lat="-22.054152" lon="-45.916881">
        <ele>1106.120</ele>
        <time>2019-10-15T11:41:49Z</time>
      </trkpt>
      <trkpt lat="-22.054160" lon="-45.916802">
        <ele>1106.465</ele>
        <time>2019-10-15T11:41:53Z</time>
      </trkpt>
      <trkpt lat="-22.054174" lon="-45.916733">
        <ele>1107.265</ele>
        <time>2019-10-15T11:41:57Z</time>
      </trkpt>
      <trkpt lat="-22.054194" lon="-45.916674">
        <ele>1107.965</ele>
        <time>2019-10-15T11:42:02Z</time>
      </trkpt>
      <trkpt lat="-22.054221" lon="-45.916624">
        <ele>1108.840</ele>
        <time>2019-10-15T11:42:06Z</time>
      </trkpt>
      <trkpt lat="-22.054245" lon="-45.916581">
        <ele>1109.539</ele>
        <time>2019-10-15T11:42:10Z</time>
      </trkpt>
      <trkpt lat="-22.054252" lon="-45.916533">
        <ele>1110.421</ele>
        <time>2019-10-15T11:42:16Z</time>
      </trkpt>
      <trkpt lat="-22.054267" lon="-45.916482">
        <ele>1111.241</ele>
        <time>2019-10-15T11:42:21Z</time>
      </trkpt>
      <trkpt lat="-22.054299" lon="-45.916442">
        <ele>1112.105</ele>
        <time>2019-10-15T11:42:27Z</time>
      </trkpt>
      <trkpt lat="-22.054336" lon="-45.916403">
        <ele>1112.108</ele>
        <time>2019-10-15T11:42:32Z</time>
      </trkpt>
      <trkpt lat="-22.054367" lon="-45.916365">
        <ele>1112.676</ele>
        <time>2019-10-15T11:42:36Z</time>
      </trkpt>
      <trkpt lat="-22.054392" lon="-45.916322">
        <ele>1113.934</ele>
        <time>2019-10-15T11:42:42Z</time>
      </trkpt>
      <trkpt lat="-22.054405" lon="-45.916272">
        <ele>1115.097</ele>
        <time>2019-10-15T11:42:47Z</time>
      </trkpt>
      <trkpt lat="-22.054433" lon="-45.916231">
        <ele>1115.592</ele>
        <time>2019-10-15T11:42:51Z</time>
      </trkpt>
      <trkpt lat="-22.054446" lon="-45.916183">
        <ele>1116.232</ele>
        <time>2019-10-15T11:42:57Z</time>
      </trkpt>
      <trkpt lat="-22.054452" lon="-45.916124">
        <ele>1116.942</ele>
        <time>2019-10-15T11:43:03Z</time>
      </trkpt>
      <trkpt lat="-22.054475" lon="-45.916072">
        <ele>1117.547</ele>
        <time>2019-10-15T11:43:07Z</time>
      </trkpt>
      <trkpt lat="-22.054486" lon="-45.916017">
        <ele>1118.036</ele>
        <time>2019-10-15T11:43:12Z</time>
      </trkpt>
      <trkpt lat="-22.054496" lon="-45.915959">
        <ele>1118.979</ele>
        <time>2019-10-15T11:43:18Z</time>
      </trkpt>
      <trkpt lat="-22.054505" lon="-45.915908">
        <ele>1119.105</ele>
        <time>2019-10-15T11:43:22Z</time>
      </trkpt>
      <trkpt lat="-22.054515" lon="-45.915855">
        <ele>1119.625</ele>
        <time>2019-10-15T11:43:25Z</time>
      </trkpt>
      <trkpt lat="-22.054515" lon="-45.915790">
        <ele>1120.808</ele>
        <time>2019-10-15T11:43:31Z</time>
      </trkpt>
      <trkpt lat="-22.054540" lon="-45.915748">
        <ele>1121.551</ele>
        <time>2019-10-15T11:43:35Z</time>
      </trkpt>
      <trkpt lat="-22.054547" lon="-45.915690">
        <ele>1122.769</ele>
        <time>2019-10-15T11:43:41Z</time>
      </trkpt>
      <trkpt lat="-22.054557" lon="-45.915642">
        <ele>1123.782</ele>
        <time>2019-10-15T11:43:47Z</time>
      </trkpt>
      <trkpt lat="-22.054573" lon="-45.915594">
        <ele>1125.257</ele>
        <time>2019-10-15T11:43:54Z</time>
      </trkpt>
      <trkpt lat="-22.054585" lon="-45.915535">
        <ele>1125.917</ele>
        <time>2019-10-15T11:43:57Z</time>
      </trkpt>
      <trkpt lat="-22.054590" lon="-45.915476">
        <ele>1127.297</ele>
        <time>2019-10-15T11:44:01Z</time>
      </trkpt>
      <trkpt lat="-22.054592" lon="-45.915414">
        <ele>1128.392</ele>
        <time>2019-10-15T11:44:07Z</time>
      </trkpt>
      <trkpt lat="-22.054591" lon="-45.915365">
        <ele>1129.291</ele>
        <time>2019-10-15T11:44:10Z</time>
      </trkpt>
      <trkpt lat="-22.054607" lon="-45.915315">
        <ele>1130.249</ele>
        <time>2019-10-15T11:44:14Z</time>
      </trkpt>
      <trkpt lat="-22.054649" lon="-45.915270">
        <ele>1131.002</ele>
        <time>2019-10-15T11:44:16Z</time>
      </trkpt>
      <trkpt lat="-22.054705" lon="-45.915226">
        <ele>1131.422</ele>
        <time>2019-10-15T11:44:17Z</time>
      </trkpt>
      <trkpt lat="-22.054736" lon="-45.915179">
        <ele>1132.608</ele>
        <time>2019-10-15T11:44:23Z</time>
      </trkpt>
      <trkpt lat="-22.054793" lon="-45.915168">
        <ele>1133.428</ele>
        <time>2019-10-15T11:44:28Z</time>
      </trkpt>
      <trkpt lat="-22.054839" lon="-45.915177">
        <ele>1134.546</ele>
        <time>2019-10-15T11:44:33Z</time>
      </trkpt>
      <trkpt lat="-22.054871" lon="-45.915142">
        <ele>1135.449</ele>
        <time>2019-10-15T11:44:41Z</time>
      </trkpt>
      <trkpt lat="-22.054892" lon="-45.915093">
        <ele>1136.334</ele>
        <time>2019-10-15T11:44:46Z</time>
      </trkpt>
      <trkpt lat="-22.054919" lon="-45.915047">
        <ele>1137.214</ele>
        <time>2019-10-15T11:44:51Z</time>
      </trkpt>
      <trkpt lat="-22.054960" lon="-45.915010">
        <ele>1138.674</ele>
        <time>2019-10-15T11:44:55Z</time>
      </trkpt>
      <trkpt lat="-22.054997" lon="-45.914979">
        <ele>1139.189</ele>
        <time>2019-10-15T11:45:02Z</time>
      </trkpt>
      <trkpt lat="-22.055046" lon="-45.914950">
        <ele>1139.878</ele>
        <time>2019-10-15T11:45:07Z</time>
      </trkpt>
      <trkpt lat="-22.055092" lon="-45.914924">
        <ele>1140.084</ele>
        <time>2019-10-15T11:45:12Z</time>
      </trkpt>
      <trkpt lat="-22.055177" lon="-45.914905">
        <ele>1140.507</ele>
        <time>2019-10-15T11:45:16Z</time>
      </trkpt>
      <trkpt lat="-22.055230" lon="-45.914891">
        <ele>1140.217</ele>
        <time>2019-10-15T11:45:18Z</time>
      </trkpt>
      <trkpt lat="-22.055271" lon="-45.914858">
        <ele>1140.508</ele>
        <time>2019-10-15T11:45:22Z</time>
      </trkpt>
      <trkpt lat="-22.055305" lon="-45.914815">
        <ele>1140.552</ele>
        <time>2019-10-15T11:45:25Z</time>
      </trkpt>
      <trkpt lat="-22.055329" lon="-45.914768">
        <ele>1140.740</ele>
        <time>2019-10-15T11:45:28Z</time>
      </trkpt>
      <trkpt lat="-22.055350" lon="-45.914715">
        <ele>1140.933</ele>
        <time>2019-10-15T11:45:31Z</time>
      </trkpt>
      <trkpt lat="-22.055386" lon="-45.914649">
        <ele>1140.898</ele>
        <time>2019-10-15T11:45:36Z</time>
      </trkpt>
      <trkpt lat="-22.055406" lon="-45.914589">
        <ele>1140.888</ele>
        <time>2019-10-15T11:45:40Z</time>
      </trkpt>
      <trkpt lat="-22.055433" lon="-45.914528">
        <ele>1140.478</ele>
        <time>2019-10-15T11:45:45Z</time>
      </trkpt>
      <trkpt lat="-22.055456" lon="-45.914481">
        <ele>1140.343</ele>
        <time>2019-10-15T11:45:47Z</time>
      </trkpt>
      <trkpt lat="-22.055490" lon="-45.914446">
        <ele>1140.282</ele>
        <time>2019-10-15T11:45:48Z</time>
      </trkpt>
      <trkpt lat="-22.055530" lon="-45.914422">
        <ele>1140.328</ele>
        <time>2019-10-15T11:45:50Z</time>
      </trkpt>
      <trkpt lat="-22.055587" lon="-45.914384">
        <ele>1139.889</ele>
        <time>2019-10-15T11:45:53Z</time>
      </trkpt>
      <trkpt lat="-22.055636" lon="-45.914352">
        <ele>1139.317</ele>
        <time>2019-10-15T11:45:54Z</time>
      </trkpt>
      <trkpt lat="-22.055681" lon="-45.914308">
        <ele>1138.608</ele>
        <time>2019-10-15T11:45:56Z</time>
      </trkpt>
      <trkpt lat="-22.055782" lon="-45.914195">
        <ele>1138.226</ele>
        <time>2019-10-15T11:45:59Z</time>
      </trkpt>
      <trkpt lat="-22.055805" lon="-45.914151">
        <ele>1139.134</ele>
        <time>2019-10-15T11:46:00Z</time>
      </trkpt>
      <trkpt lat="-22.055846" lon="-45.914116">
        <ele>1139.677</ele>
        <time>2019-10-15T11:46:02Z</time>
      </trkpt>
      <trkpt lat="-22.055908" lon="-45.914116">
        <ele>1140.362</ele>
        <time>2019-10-15T11:46:05Z</time>
      </trkpt>
      <trkpt lat="-22.055973" lon="-45.914118">
        <ele>1140.412</ele>
        <time>2019-10-15T11:46:07Z</time>
      </trkpt>
      <trkpt lat="-22.056071" lon="-45.914131">
        <ele>1141.162</ele>
        <time>2019-10-15T11:46:12Z</time>
      </trkpt>
      <trkpt lat="-22.056136" lon="-45.914131">
        <ele>1142.017</ele>
        <time>2019-10-15T11:46:15Z</time>
      </trkpt>
      <trkpt lat="-22.056198" lon="-45.914114">
        <ele>1142.936</ele>
        <time>2019-10-15T11:46:19Z</time>
      </trkpt>
      <trkpt lat="-22.056249" lon="-45.914093">
        <ele>1144.148</ele>
        <time>2019-10-15T11:46:24Z</time>
      </trkpt>
      <trkpt lat="-22.056292" lon="-45.914069">
        <ele>1144.561</ele>
        <time>2019-10-15T11:46:26Z</time>
      </trkpt>
      <trkpt lat="-22.056340" lon="-45.914044">
        <ele>1145.817</ele>
        <time>2019-10-15T11:46:31Z</time>
      </trkpt>
      <trkpt lat="-22.056391" lon="-45.914017">
        <ele>1146.808</ele>
        <time>2019-10-15T11:46:36Z</time>
      </trkpt>
      <trkpt lat="-22.056432" lon="-45.913994">
        <ele>1147.678</ele>
        <time>2019-10-15T11:46:43Z</time>
      </trkpt>
      <trkpt lat="-22.056459" lon="-45.913946">
        <ele>1149.076</ele>
        <time>2019-10-15T11:46:48Z</time>
      </trkpt>
      <trkpt lat="-22.056484" lon="-45.913897">
        <ele>1150.249</ele>
        <time>2019-10-15T11:46:56Z</time>
      </trkpt>
      <trkpt lat="-22.056499" lon="-45.913849">
        <ele>1152.194</ele>
        <time>2019-10-15T11:47:02Z</time>
      </trkpt>
      <trkpt lat="-22.056527" lon="-45.913803">
        <ele>1152.644</ele>
        <time>2019-10-15T11:47:09Z</time>
      </trkpt>
      <trkpt lat="-22.056547" lon="-45.913737">
        <ele>1154.014</ele>
        <time>2019-10-15T11:47:16Z</time>
      </trkpt>
      <trkpt lat="-22.056559" lon="-45.913676">
        <ele>1154.489</ele>
        <time>2019-10-15T11:47:21Z</time>
      </trkpt>
      <trkpt lat="-22.056601" lon="-45.913623">
        <ele>1155.358</ele>
        <time>2019-10-15T11:47:27Z</time>
      </trkpt>
      <trkpt lat="-22.056648" lon="-45.913567">
        <ele>1156.584</ele>
        <time>2019-10-15T11:47:33Z</time>
      </trkpt>
      <trkpt lat="-22.056677" lon="-45.913527">
        <ele>1157.107</ele>
        <time>2019-10-15T11:47:40Z</time>
      </trkpt>
      <trkpt lat="-22.056687" lon="-45.913478">
        <ele>1158.117</ele>
        <time>2019-10-15T11:47:46Z</time>
      </trkpt>
      <trkpt lat="-22.056709" lon="-45.913433">
        <ele>1158.008</ele>
        <time>2019-10-15T11:47:50Z</time>
      </trkpt>
      <trkpt lat="-22.056731" lon="-45.913381">
        <ele>1158.782</ele>
        <time>2019-10-15T11:47:56Z</time>
      </trkpt>
      <trkpt lat="-22.056759" lon="-45.913325">
        <ele>1159.870</ele>
        <time>2019-10-15T11:48:03Z</time>
      </trkpt>
      <trkpt lat="-22.056773" lon="-45.913269">
        <ele>1160.653</ele>
        <time>2019-10-15T11:48:08Z</time>
      </trkpt>
      <trkpt lat="-22.056794" lon="-45.913222">
        <ele>1160.918</ele>
        <time>2019-10-15T11:48:12Z</time>
      </trkpt>
      <trkpt lat="-22.056824" lon="-45.913152">
        <ele>1161.858</ele>
        <time>2019-10-15T11:48:18Z</time>
      </trkpt>
      <trkpt lat="-22.056852" lon="-45.913106">
        <ele>1162.778</ele>
        <time>2019-10-15T11:48:23Z</time>
      </trkpt>
      <trkpt lat="-22.056914" lon="-45.913050">
        <ele>1164.373</ele>
        <time>2019-10-15T11:48:27Z</time>
      </trkpt>
      <trkpt lat="-22.056967" lon="-45.912981">
        <ele>1165.312</ele>
        <time>2019-10-15T11:48:31Z</time>
      </trkpt>
      <trkpt lat="-22.056998" lon="-45.912918">
        <ele>1167.059</ele>
        <time>2019-10-15T11:48:36Z</time>
      </trkpt>
      <trkpt lat="-22.057016" lon="-45.912864">
        <ele>1168.203</ele>
        <time>2019-10-15T11:48:40Z</time>
      </trkpt>
      <trkpt lat="-22.057028" lon="-45.912807">
        <ele>1169.423</ele>
        <time>2019-10-15T11:48:46Z</time>
      </trkpt>
      <trkpt lat="-22.057021" lon="-45.912756">
        <ele>1169.808</ele>
        <time>2019-10-15T11:48:51Z</time>
      </trkpt>
      <trkpt lat="-22.057017" lon="-45.912707">
        <ele>1169.829</ele>
        <time>2019-10-15T11:48:56Z</time>
      </trkpt>
      <trkpt lat="-22.057002" lon="-45.912654">
        <ele>1170.127</ele>
        <time>2019-10-15T11:49:00Z</time>
      </trkpt>
      <trkpt lat="-22.057002" lon="-45.912597">
        <ele>1170.850</ele>
        <time>2019-10-15T11:49:05Z</time>
      </trkpt>
      <trkpt lat="-22.057006" lon="-45.912535">
        <ele>1171.145</ele>
        <time>2019-10-15T11:49:10Z</time>
      </trkpt>
      <trkpt lat="-22.057027" lon="-45.912480">
        <ele>1171.035</ele>
        <time>2019-10-15T11:49:13Z</time>
      </trkpt>
      <trkpt lat="-22.057019" lon="-45.912429">
        <ele>1171.935</ele>
        <time>2019-10-15T11:49:17Z</time>
      </trkpt>
      <trkpt lat="-22.056991" lon="-45.912383">
        <ele>1172.420</ele>
        <time>2019-10-15T11:49:24Z</time>
      </trkpt>
      <trkpt lat="-22.056966" lon="-45.912342">
        <ele>1173.569</ele>
        <time>2019-10-15T11:49:30Z</time>
      </trkpt>
      <trkpt lat="-22.056941" lon="-45.912260">
        <ele>1174.226</ele>
        <time>2019-10-15T11:49:39Z</time>
      </trkpt>
      <trkpt lat="-22.056932" lon="-45.912202">
        <ele>1175.247</ele>
        <time>2019-10-15T11:49:44Z</time>
      </trkpt>
      <trkpt lat="-22.056930" lon="-45.912132">
        <ele>1175.811</ele>
        <time>2019-10-15T11:49:49Z</time>
      </trkpt>
      <trkpt lat="-22.056932" lon="-45.912073">
        <ele>1176.108</ele>
        <time>2019-10-15T11:49:52Z</time>
      </trkpt>
      <trkpt lat="-22.056933" lon="-45.912024">
        <ele>1177.096</ele>
        <time>2019-10-15T11:49:56Z</time>
      </trkpt>
      <trkpt lat="-22.056936" lon="-45.911968">
        <ele>1177.694</ele>
        <time>2019-10-15T11:50:01Z</time>
      </trkpt>
      <trkpt lat="-22.056938" lon="-45.911917">
        <ele>1178.397</ele>
        <time>2019-10-15T11:50:05Z</time>
      </trkpt>
      <trkpt lat="-22.056935" lon="-45.911864">
        <ele>1178.932</ele>
        <time>2019-10-15T11:50:09Z</time>
      </trkpt>
      <trkpt lat="-22.056939" lon="-45.911815">
        <ele>1179.862</ele>
        <time>2019-10-15T11:50:13Z</time>
      </trkpt>
      <trkpt lat="-22.056955" lon="-45.911756">
        <ele>1180.622</ele>
        <time>2019-10-15T11:50:19Z</time>
      </trkpt>
      <trkpt lat="-22.056964" lon="-45.911699">
        <ele>1181.667</ele>
        <time>2019-10-15T11:50:25Z</time>
      </trkpt>
      <trkpt lat="-22.056963" lon="-45.911642">
        <ele>1182.596</ele>
        <time>2019-10-15T11:50:30Z</time>
      </trkpt>
      <trkpt lat="-22.056960" lon="-45.911590">
        <ele>1183.283</ele>
        <time>2019-10-15T11:50:37Z</time>
      </trkpt>
      <trkpt lat="-22.056959" lon="-45.911533">
        <ele>1183.625</ele>
        <time>2019-10-15T11:50:40Z</time>
      </trkpt>
      <trkpt lat="-22.056975" lon="-45.911477">
        <ele>1184.417</ele>
        <time>2019-10-15T11:50:44Z</time>
      </trkpt>
      <trkpt lat="-22.056990" lon="-45.911429">
        <ele>1185.708</ele>
        <time>2019-10-15T11:50:49Z</time>
      </trkpt>
      <trkpt lat="-22.056970" lon="-45.911376">
        <ele>1186.432</ele>
        <time>2019-10-15T11:50:57Z</time>
      </trkpt>
      <trkpt lat="-22.056984" lon="-45.911314">
        <ele>1186.750</ele>
        <time>2019-10-15T11:51:01Z</time>
      </trkpt>
      <trkpt lat="-22.056985" lon="-45.911249">
        <ele>1187.853</ele>
        <time>2019-10-15T11:51:09Z</time>
      </trkpt>
      <trkpt lat="-22.056976" lon="-45.911194">
        <ele>1188.968</ele>
        <time>2019-10-15T11:51:15Z</time>
      </trkpt>
      <trkpt lat="-22.056973" lon="-45.911141">
        <ele>1189.718</ele>
        <time>2019-10-15T11:51:18Z</time>
      </trkpt>
      <trkpt lat="-22.056968" lon="-45.911086">
        <ele>1190.338</ele>
        <time>2019-10-15T11:51:24Z</time>
      </trkpt>
      <trkpt lat="-22.056972" lon="-45.911025">
        <ele>1191.273</ele>
        <time>2019-10-15T11:51:28Z</time>
      </trkpt>
      <trkpt lat="-22.056975" lon="-45.910967">
        <ele>1192.492</ele>
        <time>2019-10-15T11:51:32Z</time>
      </trkpt>
      <trkpt lat="-22.056979" lon="-45.910915">
        <ele>1192.776</ele>
        <time>2019-10-15T11:51:35Z</time>
      </trkpt>
      <trkpt lat="-22.057022" lon="-45.910866">
        <ele>1192.890</ele>
        <time>2019-10-15T11:51:37Z</time>
      </trkpt>
      <trkpt lat="-22.057076" lon="-45.910818">
        <ele>1193.019</ele>
        <time>2019-10-15T11:51:39Z</time>
      </trkpt>
      <trkpt lat="-22.057100" lon="-45.910775">
        <ele>1192.908</ele>
        <time>2019-10-15T11:51:41Z</time>
      </trkpt>
      <trkpt lat="-22.057114" lon="-45.910726">
        <ele>1193.611</ele>
        <time>2019-10-15T11:51:45Z</time>
      </trkpt>
      <trkpt lat="-22.057148" lon="-45.910677">
        <ele>1193.699</ele>
        <time>2019-10-15T11:51:49Z</time>
      </trkpt>
      <trkpt lat="-22.057172" lon="-45.910625">
        <ele>1193.862</ele>
        <time>2019-10-15T11:51:52Z</time>
      </trkpt>
      <trkpt lat="-22.057204" lon="-45.910566">
        <ele>1193.787</ele>
        <time>2019-10-15T11:51:55Z</time>
      </trkpt>
      <trkpt lat="-22.057228" lon="-45.910517">
        <ele>1193.637</ele>
        <time>2019-10-15T11:51:57Z</time>
      </trkpt>
      <trkpt lat="-22.057251" lon="-45.910459">
        <ele>1194.117</ele>
        <time>2019-10-15T11:52:00Z</time>
      </trkpt>
      <trkpt lat="-22.057297" lon="-45.910401">
        <ele>1194.552</ele>
        <time>2019-10-15T11:52:05Z</time>
      </trkpt>
      <trkpt lat="-22.057329" lon="-45.910359">
        <ele>1194.721</ele>
        <time>2019-10-15T11:52:08Z</time>
      </trkpt>
      <trkpt lat="-22.057358" lon="-45.910308">
        <ele>1195.094</ele>
        <time>2019-10-15T11:52:10Z</time>
      </trkpt>
      <trkpt lat="-22.057387" lon="-45.910269">
        <ele>1195.257</ele>
        <time>2019-10-15T11:52:13Z</time>
      </trkpt>
      <trkpt lat="-22.057421" lon="-45.910212">
        <ele>1195.422</ele>
        <time>2019-10-15T11:52:16Z</time>
      </trkpt>
      <trkpt lat="-22.057452" lon="-45.910172">
        <ele>1195.608</ele>
        <time>2019-10-15T11:52:18Z</time>
      </trkpt>
      <trkpt lat="-22.057511" lon="-45.910095">
        <ele>1195.963</ele>
        <time>2019-10-15T11:52:23Z</time>
      </trkpt>
      <trkpt lat="-22.057547" lon="-45.910058">
        <ele>1196.461</ele>
        <time>2019-10-15T11:52:25Z</time>
      </trkpt>
      <trkpt lat="-22.057586" lon="-45.910012">
        <ele>1196.514</ele>
        <time>2019-10-15T11:52:29Z</time>
      </trkpt>
      <trkpt lat="-22.057621" lon="-45.909975">
        <ele>1196.469</ele>
        <time>2019-10-15T11:52:32Z</time>
      </trkpt>
      <trkpt lat="-22.057657" lon="-45.909933">
        <ele>1196.159</ele>
        <time>2019-10-15T11:52:37Z</time>
      </trkpt>
      <trkpt lat="-22.057710" lon="-45.909891">
        <ele>1196.629</ele>
        <time>2019-10-15T11:52:39Z</time>
      </trkpt>
      <trkpt lat="-22.057751" lon="-45.909856">
        <ele>1196.784</ele>
        <time>2019-10-15T11:52:41Z</time>
      </trkpt>
      <trkpt lat="-22.057802" lon="-45.909814">
        <ele>1196.863</ele>
        <time>2019-10-15T11:52:44Z</time>
      </trkpt>
      <trkpt lat="-22.057846" lon="-45.909787">
        <ele>1197.246</ele>
        <time>2019-10-15T11:52:46Z</time>
      </trkpt>
      <trkpt lat="-22.057915" lon="-45.909753">
        <ele>1197.188</ele>
        <time>2019-10-15T11:52:49Z</time>
      </trkpt>
      <trkpt lat="-22.057960" lon="-45.909730">
        <ele>1197.816</ele>
        <time>2019-10-15T11:52:52Z</time>
      </trkpt>
      <trkpt lat="-22.058010" lon="-45.909704">
        <ele>1198.408</ele>
        <time>2019-10-15T11:52:55Z</time>
      </trkpt>
      <trkpt lat="-22.058052" lon="-45.909678">
        <ele>1198.718</ele>
        <time>2019-10-15T11:52:57Z</time>
      </trkpt>
      <trkpt lat="-22.058096" lon="-45.909649">
        <ele>1199.026</ele>
        <time>2019-10-15T11:53:00Z</time>
      </trkpt>
      <trkpt lat="-22.058139" lon="-45.909619">
        <ele>1199.279</ele>
        <time>2019-10-15T11:53:03Z</time>
      </trkpt>
      <trkpt lat="-22.058183" lon="-45.909592">
        <ele>1199.674</ele>
        <time>2019-10-15T11:53:07Z</time>
      </trkpt>
      <trkpt lat="-22.058222" lon="-45.909563">
        <ele>1199.944</ele>
        <time>2019-10-15T11:53:10Z</time>
      </trkpt>
      <trkpt lat="-22.058261" lon="-45.909535">
        <ele>1200.864</ele>
        <time>2019-10-15T11:53:13Z</time>
      </trkpt>
      <trkpt lat="-22.058287" lon="-45.909494">
        <ele>1201.569</ele>
        <time>2019-10-15T11:53:17Z</time>
      </trkpt>
      <trkpt lat="-22.058336" lon="-45.909457">
        <ele>1202.158</ele>
        <time>2019-10-15T11:53:21Z</time>
      </trkpt>
      <trkpt lat="-22.058390" lon="-45.909435">
        <ele>1203.072</ele>
        <time>2019-10-15T11:53:25Z</time>
      </trkpt>
      <trkpt lat="-22.058442" lon="-45.909404">
        <ele>1203.713</ele>
        <time>2019-10-15T11:53:29Z</time>
      </trkpt>
      <trkpt lat="-22.058484" lon="-45.909377">
        <ele>1204.314</ele>
        <time>2019-10-15T11:53:31Z</time>
      </trkpt>
      <trkpt lat="-22.058524" lon="-45.909349">
        <ele>1204.908</ele>
        <time>2019-10-15T11:53:33Z</time>
      </trkpt>
      <trkpt lat="-22.058570" lon="-45.909328">
        <ele>1205.251</ele>
        <time>2019-10-15T11:53:37Z</time>
      </trkpt>
      <trkpt lat="-22.058618" lon="-45.909298">
        <ele>1206.159</ele>
        <time>2019-10-15T11:53:40Z</time>
      </trkpt>
      <trkpt lat="-22.058661" lon="-45.909271">
        <ele>1207.152</ele>
        <time>2019-10-15T11:53:42Z</time>
      </trkpt>
      <trkpt lat="-22.058720" lon="-45.909241">
        <ele>1208.587</ele>
        <time>2019-10-15T11:53:48Z</time>
      </trkpt>
      <trkpt lat="-22.058762" lon="-45.909222">
        <ele>1208.797</ele>
        <time>2019-10-15T11:53:52Z</time>
      </trkpt>
      <trkpt lat="-22.058799" lon="-45.909193">
        <ele>1209.517</ele>
        <time>2019-10-15T11:53:56Z</time>
      </trkpt>
      <trkpt lat="-22.058833" lon="-45.909158">
        <ele>1210.552</ele>
        <time>2019-10-15T11:54:00Z</time>
      </trkpt>
      <trkpt lat="-22.058883" lon="-45.909116">
        <ele>1211.161</ele>
        <time>2019-10-15T11:54:06Z</time>
      </trkpt>
      <trkpt lat="-22.058927" lon="-45.909098">
        <ele>1211.781</ele>
        <time>2019-10-15T11:54:10Z</time>
      </trkpt>
      <trkpt lat="-22.058972" lon="-45.909079">
        <ele>1212.561</ele>
        <time>2019-10-15T11:54:15Z</time>
      </trkpt>
      <trkpt lat="-22.059020" lon="-45.909059">
        <ele>1213.417</ele>
        <time>2019-10-15T11:54:20Z</time>
      </trkpt>
      <trkpt lat="-22.059064" lon="-45.909027">
        <ele>1214.308</ele>
        <time>2019-10-15T11:54:26Z</time>
      </trkpt>
      <trkpt lat="-22.059108" lon="-45.909009">
        <ele>1215.222</ele>
        <time>2019-10-15T11:54:31Z</time>
      </trkpt>
      <trkpt lat="-22.059158" lon="-45.909009">
        <ele>1215.520</ele>
        <time>2019-10-15T11:54:34Z</time>
      </trkpt>
      <trkpt lat="-22.059201" lon="-45.908995">
        <ele>1216.123</ele>
        <time>2019-10-15T11:54:37Z</time>
      </trkpt>
      <trkpt lat="-22.059240" lon="-45.908962">
        <ele>1216.848</ele>
        <time>2019-10-15T11:54:42Z</time>
      </trkpt>
      <trkpt lat="-22.059279" lon="-45.908930">
        <ele>1217.938</ele>
        <time>2019-10-15T11:54:47Z</time>
      </trkpt>
      <trkpt lat="-22.059349" lon="-45.908943">
        <ele>1218.778</ele>
        <time>2019-10-15T11:54:50Z</time>
      </trkpt>
      <trkpt lat="-22.059393" lon="-45.908927">
        <ele>1219.523</ele>
        <time>2019-10-15T11:54:53Z</time>
      </trkpt>
      <trkpt lat="-22.059438" lon="-45.908903">
        <ele>1220.142</ele>
        <time>2019-10-15T11:54:56Z</time>
      </trkpt>
      <trkpt lat="-22.059482" lon="-45.908874">
        <ele>1220.815</ele>
        <time>2019-10-15T11:55:00Z</time>
      </trkpt>
      <trkpt lat="-22.059528" lon="-45.908868">
        <ele>1221.465</ele>
        <time>2019-10-15T11:55:03Z</time>
      </trkpt>
      <trkpt lat="-22.059576" lon="-45.908853">
        <ele>1221.611</ele>
        <time>2019-10-15T11:55:06Z</time>
      </trkpt>
      <trkpt lat="-22.059621" lon="-45.908830">
        <ele>1222.308</ele>
        <time>2019-10-15T11:55:11Z</time>
      </trkpt>
      <trkpt lat="-22.059666" lon="-45.908822">
        <ele>1222.775</ele>
        <time>2019-10-15T11:55:14Z</time>
      </trkpt>
      <trkpt lat="-22.059719" lon="-45.908806">
        <ele>1223.573</ele>
        <time>2019-10-15T11:55:18Z</time>
      </trkpt>
      <trkpt lat="-22.059767" lon="-45.908782">
        <ele>1224.386</ele>
        <time>2019-10-15T11:55:21Z</time>
      </trkpt>
      <trkpt lat="-22.059820" lon="-45.908767">
        <ele>1224.511</ele>
        <time>2019-10-15T11:55:25Z</time>
      </trkpt>
      <trkpt lat="-22.059868" lon="-45.908743">
        <ele>1224.311</ele>
        <time>2019-10-15T11:55:31Z</time>
      </trkpt>
      <trkpt lat="-22.059908" lon="-45.908711">
        <ele>1224.171</ele>
        <time>2019-10-15T11:55:35Z</time>
      </trkpt>
      <trkpt lat="-22.060035" lon="-45.908788">
        <ele>1217.866</ele>
        <time>2019-10-15T11:59:55Z</time>
      </trkpt>
      <trkpt lat="-22.060074" lon="-45.908827">
        <ele>1216.455</ele>
        <time>2019-10-15T11:59:57Z</time>
      </trkpt>
      <trkpt lat="-22.060538" lon="-45.908969">
        <ele>1211.497</ele>
        <time>2019-10-15T12:00:07Z</time>
      </trkpt>
      <trkpt lat="-22.060587" lon="-45.908972">
        <ele>1210.523</ele>
        <time>2019-10-15T12:00:09Z</time>
      </trkpt>
      <trkpt lat="-22.060660" lon="-45.909027">
        <ele>1209.625</ele>
        <time>2019-10-15T12:00:10Z</time>
      </trkpt>
      <trkpt lat="-22.060807" lon="-45.909158">
        <ele>1206.208</ele>
        <time>2019-10-15T12:00:15Z</time>
      </trkpt>
      <trkpt lat="-22.060853" lon="-45.909164">
        <ele>1203.733</ele>
        <time>2019-10-15T12:00:17Z</time>
      </trkpt>
      <trkpt lat="-22.061022" lon="-45.909382">
        <ele>1197.871</ele>
        <time>2019-10-15T12:00:22Z</time>
      </trkpt>
      <trkpt lat="-22.061065" lon="-45.909415">
        <ele>1195.524</ele>
        <time>2019-10-15T12:00:24Z</time>
      </trkpt>
      <trkpt lat="-22.061136" lon="-45.909401">
        <ele>1194.019</ele>
        <time>2019-10-15T12:00:26Z</time>
      </trkpt>
      <trkpt lat="-22.061265" lon="-45.909062">
        <ele>1190.459</ele>
        <time>2019-10-15T12:00:33Z</time>
      </trkpt>
      <trkpt lat="-22.061309" lon="-45.908995">
        <ele>1189.139</ele>
        <time>2019-10-15T12:00:35Z</time>
      </trkpt>
      <trkpt lat="-22.061354" lon="-45.908942">
        <ele>1188.324</ele>
        <time>2019-10-15T12:00:37Z</time>
      </trkpt>
      <trkpt lat="-22.061367" lon="-45.908871">
        <ele>1187.643</ele>
        <time>2019-10-15T12:00:39Z</time>
      </trkpt>
      <trkpt lat="-22.061371" lon="-45.908790">
        <ele>1186.185</ele>
        <time>2019-10-15T12:00:41Z</time>
      </trkpt>
      <trkpt lat="-22.061404" lon="-45.908709">
        <ele>1184.189</ele>
        <time>2019-10-15T12:00:43Z</time>
      </trkpt>
      <trkpt lat="-22.061569" lon="-45.908378">
        <ele>1177.917</ele>
        <time>2019-10-15T12:00:50Z</time>
      </trkpt>
      <trkpt lat="-22.061008" lon="-45.906069">
        <ele>1092.908</ele>
        <time>2019-10-15T12:02:13Z</time>
      </trkpt>
      <trkpt lat="-22.061006" lon="-45.905999">
        <ele>1091.232</ele>
        <time>2019-10-15T12:02:17Z</time>
      </trkpt>
      <trkpt lat="-22.060999" lon="-45.905940">
        <ele>1090.650</ele>
        <time>2019-10-15T12:02:19Z</time>
      </trkpt>
      <trkpt lat="-22.060996" lon="-45.905883">
        <ele>1089.993</ele>
        <time>2019-10-15T12:02:20Z</time>
      </trkpt>
      <trkpt lat="-22.060996" lon="-45.905823">
        <ele>1088.988</ele>
        <time>2019-10-15T12:02:22Z</time>
      </trkpt>
      <trkpt lat="-22.060998" lon="-45.905762">
        <ele>1087.768</ele>
        <time>2019-10-15T12:02:24Z</time>
      </trkpt>
      <trkpt lat="-22.061014" lon="-45.905683">
        <ele>1086.378</ele>
        <time>2019-10-15T12:02:27Z</time>
      </trkpt>
      <trkpt lat="-22.062667" lon="-45.904854">
        <ele>1057.223</ele>
        <time>2019-10-15T12:03:01Z</time>
      </trkpt>
      <trkpt lat="-22.062703" lon="-45.904821">
        <ele>1056.742</ele>
        <time>2019-10-15T12:03:46Z</time>
      </trkpt>
      <trkpt lat="-22.062768" lon="-45.904809">
        <ele>1056.773</ele>
        <time>2019-10-15T12:03:57Z</time>
      </trkpt>
      <trkpt lat="-22.062821" lon="-45.904788">
        <ele>1056.985</ele>
        <time>2019-10-15T12:04:00Z</time>
      </trkpt>
      <trkpt lat="-22.062873" lon="-45.904772">
        <ele>1057.313</ele>
        <time>2019-10-15T12:04:03Z</time>
      </trkpt>
      <trkpt lat="-22.062920" lon="-45.904752">
        <ele>1057.408</ele>
        <time>2019-10-15T12:04:07Z</time>
      </trkpt>
      <trkpt lat="-22.062969" lon="-45.904735">
        <ele>1057.531</ele>
        <time>2019-10-15T12:04:10Z</time>
      </trkpt>
      <trkpt lat="-22.063012" lon="-45.904718">
        <ele>1056.649</ele>
        <time>2019-10-15T12:04:13Z</time>
      </trkpt>
      <trkpt lat="-22.063062" lon="-45.904700">
        <ele>1057.352</ele>
        <time>2019-10-15T12:04:16Z</time>
      </trkpt>
      <trkpt lat="-22.063106" lon="-45.904691">
        <ele>1057.977</ele>
        <time>2019-10-15T12:04:19Z</time>
      </trkpt>
      <trkpt lat="-22.063154" lon="-45.904675">
        <ele>1058.587</ele>
        <time>2019-10-15T12:04:21Z</time>
      </trkpt>
      <trkpt lat="-22.063202" lon="-45.904660">
        <ele>1059.297</ele>
        <time>2019-10-15T12:04:27Z</time>
      </trkpt>
      <trkpt lat="-22.063243" lon="-45.904635">
        <ele>1060.142</ele>
        <time>2019-10-15T12:04:31Z</time>
      </trkpt>
      <trkpt lat="-22.063289" lon="-45.904624">
        <ele>1060.581</ele>
        <time>2019-10-15T12:04:34Z</time>
      </trkpt>
      <trkpt lat="-22.063335" lon="-45.904629">
        <ele>1060.472</ele>
        <time>2019-10-15T12:04:36Z</time>
      </trkpt>
      <trkpt lat="-22.063381" lon="-45.904609">
        <ele>1061.113</ele>
        <time>2019-10-15T12:04:40Z</time>
      </trkpt>
      <trkpt lat="-22.063416" lon="-45.904574">
        <ele>1061.714</ele>
        <time>2019-10-15T12:04:46Z</time>
      </trkpt>
      <trkpt lat="-22.063480" lon="-45.904576">
        <ele>1062.208</ele>
        <time>2019-10-15T12:04:50Z</time>
      </trkpt>
      <trkpt lat="-22.063531" lon="-45.904583">
        <ele>1062.121</ele>
        <time>2019-10-15T12:04:52Z</time>
      </trkpt>
      <trkpt lat="-22.063576" lon="-45.904559">
        <ele>1062.419</ele>
        <time>2019-10-15T12:04:56Z</time>
      </trkpt>
      <trkpt lat="-22.063625" lon="-45.904558">
        <ele>1063.132</ele>
        <time>2019-10-15T12:04:59Z</time>
      </trkpt>
      <trkpt lat="-22.063667" lon="-45.904538">
        <ele>1063.917</ele>
        <time>2019-10-15T12:05:04Z</time>
      </trkpt>
      <trkpt lat="-22.063702" lon="-45.904503">
        <ele>1064.347</ele>
        <time>2019-10-15T12:05:09Z</time>
      </trkpt>
      <trkpt lat="-22.063749" lon="-45.904489">
        <ele>1065.097</ele>
        <time>2019-10-15T12:05:12Z</time>
      </trkpt>
      <trkpt lat="-22.063796" lon="-45.904480">
        <ele>1065.462</ele>
        <time>2019-10-15T12:05:15Z</time>
      </trkpt>
      <trkpt lat="-22.063854" lon="-45.904461">
        <ele>1066.181</ele>
        <time>2019-10-15T12:05:19Z</time>
      </trkpt>
      <trkpt lat="-22.063901" lon="-45.904429">
        <ele>1066.971</ele>
        <time>2019-10-15T12:05:23Z</time>
      </trkpt>
      <trkpt lat="-22.063932" lon="-45.904391">
        <ele>1067.841</ele>
        <time>2019-10-15T12:05:30Z</time>
      </trkpt>
      <trkpt lat="-22.063964" lon="-45.904352">
        <ele>1069.015</ele>
        <time>2019-10-15T12:05:36Z</time>
      </trkpt>
      <trkpt lat="-22.064007" lon="-45.904324">
        <ele>1070.008</ele>
        <time>2019-10-15T12:05:43Z</time>
      </trkpt>
      <trkpt lat="-22.064057" lon="-45.904297">
        <ele>1071.591</ele>
        <time>2019-10-15T12:05:48Z</time>
      </trkpt>
      <trkpt lat="-22.064106" lon="-45.904279">
        <ele>1071.799</ele>
        <time>2019-10-15T12:05:51Z</time>
      </trkpt>
      <trkpt lat="-22.064151" lon="-45.904266">
        <ele>1071.652</ele>
        <time>2019-10-15T12:05:56Z</time>
      </trkpt>
      <trkpt lat="-22.064222" lon="-45.904264">
        <ele>1071.417</ele>
        <time>2019-10-15T12:05:58Z</time>
      </trkpt>
      <trkpt lat="-22.064277" lon="-45.904259">
        <ele>1071.057</ele>
        <time>2019-10-15T12:06:00Z</time>
      </trkpt>
      <trkpt lat="-22.064325" lon="-45.904247">
        <ele>1071.247</ele>
        <time>2019-10-15T12:06:03Z</time>
      </trkpt>
      <trkpt lat="-22.064363" lon="-45.904210">
        <ele>1071.012</ele>
        <time>2019-10-15T12:06:17Z</time>
      </trkpt>
      <trkpt lat="-22.064324" lon="-45.904245">
        <ele>1071.551</ele>
        <time>2019-10-15T12:06:23Z</time>
      </trkpt>
      <trkpt lat="-22.064358" lon="-45.904295">
        <ele>1071.732</ele>
        <time>2019-10-15T12:06:26Z</time>
      </trkpt>
      <trkpt lat="-22.064400" lon="-45.904322">
        <ele>1071.992</ele>
        <time>2019-10-15T12:06:30Z</time>
      </trkpt>
      <trkpt lat="-22.064460" lon="-45.904334">
        <ele>1071.911</ele>
        <time>2019-10-15T12:06:33Z</time>
      </trkpt>
      <trkpt lat="-22.064503" lon="-45.904354">
        <ele>1071.908</ele>
        <time>2019-10-15T12:06:35Z</time>
      </trkpt>
      <trkpt lat="-22.064548" lon="-45.904383">
        <ele>1072.077</ele>
        <time>2019-10-15T12:06:38Z</time>
      </trkpt>
      <trkpt lat="-22.064458" lon="-45.904328">
        <ele>1073.225</ele>
        <time>2019-10-15T12:08:45Z</time>
      </trkpt>
      <trkpt lat="-22.064412" lon="-45.904334">
        <ele>1072.628</ele>
        <time>2019-10-15T12:08:53Z</time>
      </trkpt>
      <trkpt lat="-22.064354" lon="-45.904298">
        <ele>1072.043</ele>
        <time>2019-10-15T12:08:56Z</time>
      </trkpt>
      <trkpt lat="-22.064353" lon="-45.904249">
        <ele>1071.563</ele>
        <time>2019-10-15T12:08:58Z</time>
      </trkpt>
      <trkpt lat="-22.064399" lon="-45.904232">
        <ele>1070.853</ele>
        <time>2019-10-15T12:09:01Z</time>
      </trkpt>
      <trkpt lat="-22.064457" lon="-45.904220">
        <ele>1069.648</ele>
        <time>2019-10-15T12:09:04Z</time>
      </trkpt>
      <trkpt lat="-22.064513" lon="-45.904187">
        <ele>1068.587</ele>
        <time>2019-10-15T12:09:07Z</time>
      </trkpt>
      <trkpt lat="-22.064553" lon="-45.904158">
        <ele>1067.254</ele>
        <time>2019-10-15T12:09:09Z</time>
      </trkpt>
      <trkpt lat="-22.064631" lon="-45.904116">
        <ele>1063.456</ele>
        <time>2019-10-15T12:09:12Z</time>
      </trkpt>
      <trkpt lat="-22.063757" lon="-45.899596">
        <ele>974.211</ele>
        <time>2019-10-15T12:10:45Z</time>
      </trkpt>
      <trkpt lat="-22.063811" lon="-45.899564">
        <ele>974.008</ele>
        <time>2019-10-15T12:10:48Z</time>
      </trkpt>
      <trkpt lat="-22.063989" lon="-45.899517">
        <ele>972.049</ele>
        <time>2019-10-15T12:12:22Z</time>
      </trkpt>
      <trkpt lat="-22.064050" lon="-45.899495">
        <ele>971.577</ele>
        <time>2019-10-15T12:12:24Z</time>
      </trkpt>
      <trkpt lat="-22.064108" lon="-45.899472">
        <ele>971.010</ele>
        <time>2019-10-15T12:12:25Z</time>
      </trkpt>
      <trkpt lat="-22.065276" lon="-45.898609">
        <ele>968.515</ele>
        <time>2019-10-15T12:12:58Z</time>
      </trkpt>
      <trkpt lat="-22.065286" lon="-45.898550">
        <ele>969.025</ele>
        <time>2019-10-15T12:13:01Z</time>
      </trkpt>
      <trkpt lat="-22.065278" lon="-45.898494">
        <ele>969.185</ele>
        <time>2019-10-15T12:13:02Z</time>
      </trkpt>
      <trkpt lat="-22.065275" lon="-45.898405">
        <ele>969.140</ele>
        <time>2019-10-15T12:13:05Z</time>
      </trkpt>
      <trkpt lat="-22.065279" lon="-45.898349">
        <ele>969.339</ele>
        <time>2019-10-15T12:13:06Z</time>
      </trkpt>
      <trkpt lat="-22.065277" lon="-45.898289">
        <ele>969.317</ele>
        <time>2019-10-15T12:13:08Z</time>
      </trkpt>
      <trkpt lat="-22.065276" lon="-45.898233">
        <ele>969.187</ele>
        <time>2019-10-15T12:13:10Z</time>
      </trkpt>
      <trkpt lat="-22.065266" lon="-45.898121">
        <ele>968.515</ele>
        <time>2019-10-15T12:13:14Z</time>
      </trkpt>
      <trkpt lat="-22.065253" lon="-45.898062">
        <ele>968.108</ele>
        <time>2019-10-15T12:13:16Z</time>
      </trkpt>
      <trkpt lat="-22.058888" lon="-45.890975">
        <ele>895.655</ele>
        <time>2019-10-15T12:15:35Z</time>
      </trkpt>
      <trkpt lat="-22.058833" lon="-45.890942">
        <ele>895.533</ele>
        <time>2019-10-15T12:15:37Z</time>
      </trkpt>
      <trkpt lat="-22.058833" lon="-45.890942">
        <ele>895.536</ele>
        <time>2019-10-15T12:15:37Z</time>
      </trkpt>
      <trkpt lat="-22.058762" lon="-45.890888">
        <ele>895.561</ele>
        <time>2019-10-15T12:15:40Z</time>
      </trkpt>
      <trkpt lat="-22.058715" lon="-45.890846">
        <ele>895.641</ele>
        <time>2019-10-15T12:15:42Z</time>
      </trkpt>
      <trkpt lat="-22.058677" lon="-45.890806">
        <ele>896.111</ele>
        <time>2019-10-15T12:15:45Z</time>
      </trkpt>
      <trkpt lat="-22.058647" lon="-45.890769">
        <ele>896.366</ele>
        <time>2019-10-15T12:15:47Z</time>
      </trkpt>
      <trkpt lat="-22.058612" lon="-45.890725">
        <ele>896.915</ele>
        <time>2019-10-15T12:15:49Z</time>
      </trkpt>
      <trkpt lat="-22.058581" lon="-45.890686">
        <ele>897.493</ele>
        <time>2019-10-15T12:15:52Z</time>
      </trkpt>
      <trkpt lat="-22.058549" lon="-45.890633">
        <ele>897.665</ele>
        <time>2019-10-15T12:15:55Z</time>
      </trkpt>
      <trkpt lat="-22.058519" lon="-45.890594">
        <ele>897.921</ele>
        <time>2019-10-15T12:15:57Z</time>
      </trkpt>
      <trkpt lat="-22.058475" lon="-45.890528">
        <ele>898.808</ele>
        <time>2019-10-15T12:16:01Z</time>
      </trkpt>
      <trkpt lat="-22.058444" lon="-45.890479">
        <ele>899.033</ele>
        <time>2019-10-15T12:16:03Z</time>
      </trkpt>
      <trkpt lat="-22.058405" lon="-45.890423">
        <ele>899.021</ele>
        <time>2019-10-15T12:16:07Z</time>
      </trkpt>
      <trkpt lat="-22.058378" lon="-45.890355">
        <ele>899.454</ele>
        <time>2019-10-15T12:16:10Z</time>
      </trkpt>
      <trkpt lat="-22.058357" lon="-45.890297">
        <ele>899.529</ele>
        <time>2019-10-15T12:16:13Z</time>
      </trkpt>
      <trkpt lat="-22.058336" lon="-45.890246">
        <ele>899.729</ele>
        <time>2019-10-15T12:16:15Z</time>
      </trkpt>
      <trkpt lat="-22.058313" lon="-45.890188">
        <ele>900.019</ele>
        <time>2019-10-15T12:16:19Z</time>
      </trkpt>
      <trkpt lat="-22.058294" lon="-45.890137">
        <ele>900.814</ele>
        <time>2019-10-15T12:16:21Z</time>
      </trkpt>
      <trkpt lat="-22.058279" lon="-45.890091">
        <ele>901.193</ele>
        <time>2019-10-15T12:16:24Z</time>
      </trkpt>
      <trkpt lat="-22.058258" lon="-45.890037">
        <ele>901.726</ele>
        <time>2019-10-15T12:16:26Z</time>
      </trkpt>
      <trkpt lat="-22.058236" lon="-45.889971">
        <ele>902.347</ele>
        <time>2019-10-15T12:16:29Z</time>
      </trkpt>
      <trkpt lat="-22.058215" lon="-45.889909">
        <ele>902.511</ele>
        <time>2019-10-15T12:16:33Z</time>
      </trkpt>
      <trkpt lat="-22.058197" lon="-45.889860">
        <ele>902.508</ele>
        <time>2019-10-15T12:16:35Z</time>
      </trkpt>
      <trkpt lat="-22.058177" lon="-45.889807">
        <ele>902.436</ele>
        <time>2019-10-15T12:16:37Z</time>
      </trkpt>
      <trkpt lat="-22.058139" lon="-45.889743">
        <ele>902.794</ele>
        <time>2019-10-15T12:16:41Z</time>
      </trkpt>
      <trkpt lat="-22.058109" lon="-45.889707">
        <ele>902.967</ele>
        <time>2019-10-15T12:16:43Z</time>
      </trkpt>
      <trkpt lat="-22.058080" lon="-45.889669">
        <ele>902.542</ele>
        <time>2019-10-15T12:16:44Z</time>
      </trkpt>
      <trkpt lat="-22.058039" lon="-45.889620">
        <ele>902.052</ele>
        <time>2019-10-15T12:16:47Z</time>
      </trkpt>
      <trkpt lat="-22.059520" lon="-45.883461">
        <ele>868.722</ele>
        <time>2019-10-15T12:18:21Z</time>
      </trkpt>
      <trkpt lat="-22.059541" lon="-45.883411">
        <ele>868.817</ele>
        <time>2019-10-15T12:18:23Z</time>
      </trkpt>
      <trkpt lat="-22.059566" lon="-45.883364">
        <ele>868.766</ele>
        <time>2019-10-15T12:18:25Z</time>
      </trkpt>
      <trkpt lat="-22.059593" lon="-45.883312">
        <ele>869.258</ele>
        <time>2019-10-15T12:18:27Z</time>
      </trkpt>
      <trkpt lat="-22.059605" lon="-45.883263">
        <ele>868.952</ele>
        <time>2019-10-15T12:18:28Z</time>
      </trkpt>
      <trkpt lat="-22.059619" lon="-45.883209">
        <ele>869.217</ele>
        <time>2019-10-15T12:18:31Z</time>
      </trkpt>
      <trkpt lat="-22.059636" lon="-45.883138">
        <ele>869.108</ele>
        <time>2019-10-15T12:18:33Z</time>
      </trkpt>
      <trkpt lat="-22.059657" lon="-45.883080">
        <ele>868.869</ele>
        <time>2019-10-15T12:18:35Z</time>
      </trkpt>
      <trkpt lat="-22.059667" lon="-45.883031">
        <ele>868.667</ele>
        <time>2019-10-15T12:18:37Z</time>
      </trkpt>
      <trkpt lat="-22.059672" lon="-45.882974">
        <ele>869.110</ele>
        <time>2019-10-15T12:18:39Z</time>
      </trkpt>
      <trkpt lat="-22.059684" lon="-45.882886">
        <ele>868.975</ele>
        <time>2019-10-15T12:18:41Z</time>
      </trkpt>
      <trkpt lat="-22.059699" lon="-45.882833">
        <ele>869.295</ele>
        <time>2019-10-15T12:18:43Z</time>
      </trkpt>
      <trkpt lat="-22.059705" lon="-45.882778">
        <ele>869.375</ele>
        <time>2019-10-15T12:18:44Z</time>
      </trkpt>
      <trkpt lat="-22.059711" lon="-45.882710">
        <ele>869.510</ele>
        <time>2019-10-15T12:18:47Z</time>
      </trkpt>
      <trkpt lat="-22.059714" lon="-45.882635">
        <ele>869.649</ele>
        <time>2019-10-15T12:18:49Z</time>
      </trkpt>
      <trkpt lat="-22.059718" lon="-45.882581">
        <ele>869.516</ele>
        <time>2019-10-15T12:18:51Z</time>
      </trkpt>
      <trkpt lat="-22.059717" lon="-45.882517">
        <ele>869.576</ele>
        <time>2019-10-15T12:18:52Z</time>
      </trkpt>
      <trkpt lat="-22.059719" lon="-45.882457">
        <ele>869.913</ele>
        <time>2019-10-15T12:18:55Z</time>
      </trkpt>
      <trkpt lat="-22.059722" lon="-45.882405">
        <ele>870.208</ele>
        <time>2019-10-15T12:18:57Z</time>
      </trkpt>
      <trkpt lat="-22.059730" lon="-45.882306">
        <ele>870.775</ele>
        <time>2019-10-15T12:19:00Z</time>
      </trkpt>
      <trkpt lat="-22.059732" lon="-45.882248">
        <ele>871.133</ele>
        <time>2019-10-15T12:19:02Z</time>
      </trkpt>
      <trkpt lat="-22.059713" lon="-45.882178">
        <ele>871.326</ele>
        <time>2019-10-15T12:19:04Z</time>
      </trkpt>
      <trkpt lat="-22.059703" lon="-45.882129">
        <ele>871.911</ele>
        <time>2019-10-15T12:19:07Z</time>
      </trkpt>
      <trkpt lat="-22.059685" lon="-45.882065">
        <ele>872.561</ele>
        <time>2019-10-15T12:19:09Z</time>
      </trkpt>
      <trkpt lat="-22.059666" lon="-45.882015">
        <ele>872.581</ele>
        <time>2019-10-15T12:19:12Z</time>
      </trkpt>
      <trkpt lat="-22.059646" lon="-45.881965">
        <ele>872.926</ele>
        <time>2019-10-15T12:19:14Z</time>
      </trkpt>
      <trkpt lat="-22.059611" lon="-45.881895">
        <ele>873.195</ele>
        <time>2019-10-15T12:19:16Z</time>
      </trkpt>
      <trkpt lat="-22.059584" lon="-45.881842">
        <ele>873.418</ele>
        <time>2019-10-15T12:19:18Z</time>
      </trkpt>
      <trkpt lat="-22.059552" lon="-45.881791">
        <ele>873.498</ele>
        <time>2019-10-15T12:19:21Z</time>
      </trkpt>
      <trkpt lat="-22.059513" lon="-45.881726">
        <ele>873.617</ele>
        <time>2019-10-15T12:19:24Z</time>
      </trkpt>
      <trkpt lat="-22.059482" lon="-45.881681">
        <ele>874.008</ele>
        <time>2019-10-15T12:19:26Z</time>
      </trkpt>
      <trkpt lat="-22.059440" lon="-45.881622">
        <ele>874.385</ele>
        <time>2019-10-15T12:19:28Z</time>
      </trkpt>
      <trkpt lat="-22.059410" lon="-45.881575">
        <ele>874.383</ele>
        <time>2019-10-15T12:19:30Z</time>
      </trkpt>
      <trkpt lat="-22.059384" lon="-45.881524">
        <ele>874.356</ele>
        <time>2019-10-15T12:19:32Z</time>
      </trkpt>
      <trkpt lat="-22.059345" lon="-45.881457">
        <ele>874.471</ele>
        <time>2019-10-15T12:19:35Z</time>
      </trkpt>
      <trkpt lat="-22.059324" lon="-45.881410">
        <ele>874.441</ele>
        <time>2019-10-15T12:19:36Z</time>
      </trkpt>
      <trkpt lat="-22.059301" lon="-45.881363">
        <ele>874.851</ele>
        <time>2019-10-15T12:19:38Z</time>
      </trkpt>
      <trkpt lat="-22.059279" lon="-45.881318">
        <ele>874.566</ele>
        <time>2019-10-15T12:19:40Z</time>
      </trkpt>
      <trkpt lat="-22.059254" lon="-45.881252">
        <ele>874.315</ele>
        <time>2019-10-15T12:19:42Z</time>
      </trkpt>
      <trkpt lat="-22.059231" lon="-45.881194">
        <ele>874.286</ele>
        <time>2019-10-15T12:19:43Z</time>
      </trkpt>
      <trkpt lat="-22.059200" lon="-45.881118">
        <ele>874.060</ele>
        <time>2019-10-15T12:19:46Z</time>
      </trkpt>
      <trkpt lat="-22.057626" lon="-45.877193">
        <ele>864.026</ele>
        <time>2019-10-15T12:20:44Z</time>
      </trkpt>
      <trkpt lat="-22.057624" lon="-45.877138">
        <ele>864.708</ele>
        <time>2019-10-15T12:20:47Z</time>
      </trkpt>
      <trkpt lat="-22.057625" lon="-45.877076">
        <ele>865.582</ele>
        <time>2019-10-15T12:20:51Z</time>
      </trkpt>
      <trkpt lat="-22.057626" lon="-45.877025">
        <ele>866.170</ele>
        <time>2019-10-15T12:20:54Z</time>
      </trkpt>
      <trkpt lat="-22.057639" lon="-45.876975">
        <ele>867.353</ele>
        <time>2019-10-15T12:20:58Z</time>
      </trkpt>
      <trkpt lat="-22.057663" lon="-45.876917">
        <ele>868.048</ele>
        <time>2019-10-15T12:21:01Z</time>
      </trkpt>
      <trkpt lat="-22.057698" lon="-45.876875">
        <ele>868.848</ele>
        <time>2019-10-15T12:21:05Z</time>
      </trkpt>
      <trkpt lat="-22.057751" lon="-45.876848">
        <ele>869.378</ele>
        <time>2019-10-15T12:21:08Z</time>
      </trkpt>
      <trkpt lat="-22.057800" lon="-45.876853">
        <ele>870.283</ele>
        <time>2019-10-15T12:21:12Z</time>
      </trkpt>
      <trkpt lat="-22.057854" lon="-45.876831">
        <ele>870.672</ele>
        <time>2019-10-15T12:21:16Z</time>
      </trkpt>
      <trkpt lat="-22.057909" lon="-45.876803">
        <ele>871.377</ele>
        <time>2019-10-15T12:21:19Z</time>
      </trkpt>
      <trkpt lat="-22.057958" lon="-45.876796">
        <ele>872.361</ele>
        <time>2019-10-15T12:21:25Z</time>
      </trkpt>
      <trkpt lat="-22.058018" lon="-45.876783">
        <ele>872.427</ele>
        <time>2019-10-15T12:21:30Z</time>
      </trkpt>
      <trkpt lat="-22.058079" lon="-45.876789">
        <ele>873.408</ele>
        <time>2019-10-15T12:21:34Z</time>
      </trkpt>
      <trkpt lat="-22.058129" lon="-45.876779">
        <ele>873.881</ele>
        <time>2019-10-15T12:21:38Z</time>
      </trkpt>
      <trkpt lat="-22.058183" lon="-45.876772">
        <ele>874.029</ele>
        <time>2019-10-15T12:21:44Z</time>
      </trkpt>
      <trkpt lat="-22.058230" lon="-45.876763">
        <ele>875.122</ele>
        <time>2019-10-15T12:21:48Z</time>
      </trkpt>
      <trkpt lat="-22.058278" lon="-45.876756">
        <ele>875.557</ele>
        <time>2019-10-15T12:21:53Z</time>
      </trkpt>
      <trkpt lat="-22.058328" lon="-45.876756">
        <ele>875.777</ele>
        <time>2019-10-15T12:21:56Z</time>
      </trkpt>
      <trkpt lat="-22.058389" lon="-45.876760">
        <ele>876.367</ele>
        <time>2019-10-15T12:21:59Z</time>
      </trkpt>
      <trkpt lat="-22.058436" lon="-45.876761">
        <ele>876.512</ele>
        <time>2019-10-15T12:22:02Z</time>
      </trkpt>
      <trkpt lat="-22.058484" lon="-45.876750">
        <ele>877.491</ele>
        <time>2019-10-15T12:22:06Z</time>
      </trkpt>
      <trkpt lat="-22.058530" lon="-45.876738">
        <ele>877.734</ele>
        <time>2019-10-15T12:22:10Z</time>
      </trkpt>
      <trkpt lat="-22.058577" lon="-45.876716">
        <ele>878.455</ele>
        <time>2019-10-15T12:22:15Z</time>
      </trkpt>
      <trkpt lat="-22.058650" lon="-45.876695">
        <ele>879.010</ele>
        <time>2019-10-15T12:22:20Z</time>
      </trkpt>
      <trkpt lat="-22.058702" lon="-45.876687">
        <ele>879.208</ele>
        <time>2019-10-15T12:22:23Z</time>
      </trkpt>
      <trkpt lat="-22.058759" lon="-45.876665">
        <ele>880.267</ele>
        <time>2019-10-15T12:22:27Z</time>
      </trkpt>
      <trkpt lat="-22.058804" lon="-45.876654">
        <ele>880.645</ele>
        <time>2019-10-15T12:22:30Z</time>
      </trkpt>
      <trkpt lat="-22.058854" lon="-45.876643">
        <ele>880.748</ele>
        <time>2019-10-15T12:22:33Z</time>
      </trkpt>
      <trkpt lat="-22.058905" lon="-45.876627">
        <ele>881.483</ele>
        <time>2019-10-15T12:22:36Z</time>
      </trkpt>
      <trkpt lat="-22.058945" lon="-45.876602">
        <ele>881.473</ele>
        <time>2019-10-15T12:22:39Z</time>
      </trkpt>
      <trkpt lat="-22.058979" lon="-45.876569">
        <ele>881.723</ele>
        <time>2019-10-15T12:22:41Z</time>
      </trkpt>
      <trkpt lat="-22.058977" lon="-45.876510">
        <ele>881.548</ele>
        <time>2019-10-15T12:22:45Z</time>
      </trkpt>
      <trkpt lat="-22.058965" lon="-45.876459">
        <ele>881.567</ele>
        <time>2019-10-15T12:22:47Z</time>
      </trkpt>
      <trkpt lat="-22.058932" lon="-45.876403">
        <ele>881.819</ele>
        <time>2019-10-15T12:22:50Z</time>
      </trkpt>
      <trkpt lat="-22.058895" lon="-45.876370">
        <ele>882.209</ele>
        <time>2019-10-15T12:22:53Z</time>
      </trkpt>
      <trkpt lat="-22.058852" lon="-45.876342">
        <ele>882.019</ele>
        <time>2019-10-15T12:22:56Z</time>
      </trkpt>
      <trkpt lat="-22.058796" lon="-45.876298">
        <ele>882.108</ele>
        <time>2019-10-15T12:23:00Z</time>
      </trkpt>
      <trkpt lat="-22.058746" lon="-45.876285">
        <ele>881.875</ele>
        <time>2019-10-15T12:23:01Z</time>
      </trkpt>
      <trkpt lat="-22.058697" lon="-45.876287">
        <ele>881.363</ele>
        <time>2019-10-15T12:23:03Z</time>
      </trkpt>
      <trkpt lat="-22.058641" lon="-45.876305">
        <ele>880.926</ele>
        <time>2019-10-15T12:23:05Z</time>
      </trkpt>
      <trkpt lat="-22.058594" lon="-45.876325">
        <ele>880.481</ele>
        <time>2019-10-15T12:23:06Z</time>
      </trkpt>
      <trkpt lat="-22.058543" lon="-45.876339">
        <ele>880.191</ele>
        <time>2019-10-15T12:23:08Z</time>
      </trkpt>
      <trkpt lat="-22.058483" lon="-45.876343">
        <ele>880.081</ele>
        <time>2019-10-15T12:23:10Z</time>
      </trkpt>
      <trkpt lat="-22.058418" lon="-45.876357">
        <ele>879.476</ele>
        <time>2019-10-15T12:23:12Z</time>
      </trkpt>
      <trkpt lat="-22.058349" lon="-45.876378">
        <ele>879.295</ele>
        <time>2019-10-15T12:23:14Z</time>
      </trkpt>
      <trkpt lat="-22.058295" lon="-45.876390">
        <ele>878.717</ele>
        <time>2019-10-15T12:23:15Z</time>
      </trkpt>
      <trkpt lat="-22.054927" lon="-45.875217">
        <ele>857.087</ele>
        <time>2019-10-15T12:24:30Z</time>
      </trkpt>
      <trkpt lat="-22.054877" lon="-45.875225">
        <ele>857.115</ele>
        <time>2019-10-15T12:24:32Z</time>
      </trkpt>
      <trkpt lat="-22.054818" lon="-45.875220">
        <ele>857.808</ele>
        <time>2019-10-15T12:24:35Z</time>
      </trkpt>
      <trkpt lat="-22.054771" lon="-45.875206">
        <ele>858.015</ele>
        <time>2019-10-15T12:24:38Z</time>
      </trkpt>
      <trkpt lat="-22.054728" lon="-45.875182">
        <ele>858.823</ele>
        <time>2019-10-15T12:24:42Z</time>
      </trkpt>
      <trkpt lat="-22.054696" lon="-45.875143">
        <ele>859.456</ele>
        <time>2019-10-15T12:24:45Z</time>
      </trkpt>
      <trkpt lat="-22.054656" lon="-45.875115">
        <ele>860.231</ele>
        <time>2019-10-15T12:24:50Z</time>
      </trkpt>
      <trkpt lat="-22.054611" lon="-45.875102">
        <ele>861.981</ele>
        <time>2019-10-15T12:24:58Z</time>
      </trkpt>
      <trkpt lat="-22.054540" lon="-45.875087">
        <ele>864.271</ele>
        <time>2019-10-15T12:25:12Z</time>
      </trkpt>
      <trkpt lat="-22.054502" lon="-45.875115">
        <ele>867.186</ele>
        <time>2019-10-15T12:25:29Z</time>
      </trkpt>
      <trkpt lat="-22.054469" lon="-45.875062">
        <ele>869.275</ele>
        <time>2019-10-15T12:25:39Z</time>
      </trkpt>
      <trkpt lat="-22.054436" lon="-45.875005">
        <ele>870.022</ele>
        <time>2019-10-15T12:25:43Z</time>
      </trkpt>
      <trkpt lat="-22.054404" lon="-45.874950">
        <ele>871.062</ele>
        <time>2019-10-15T12:25:48Z</time>
      </trkpt>
      <trkpt lat="-22.054384" lon="-45.874901">
        <ele>871.708</ele>
        <time>2019-10-15T12:25:50Z</time>
      </trkpt>
      <trkpt lat="-22.054364" lon="-45.874830">
        <ele>872.408</ele>
        <time>2019-10-15T12:25:54Z</time>
      </trkpt>
      <trkpt lat="-22.054350" lon="-45.874779">
        <ele>872.846</ele>
        <time>2019-10-15T12:25:56Z</time>
      </trkpt>
      <trkpt lat="-22.054338" lon="-45.874586">
        <ele>874.574</ele>
        <time>2019-10-15T12:26:23Z</time>
      </trkpt>
      <trkpt lat="-22.054372" lon="-45.874551">
        <ele>875.997</ele>
        <time>2019-10-15T12:26:33Z</time>
      </trkpt>
      <trkpt lat="-22.054399" lon="-45.874511">
        <ele>876.662</ele>
        <time>2019-10-15T12:26:37Z</time>
      </trkpt>
      <trkpt lat="-22.054430" lon="-45.874460">
        <ele>877.552</ele>
        <time>2019-10-15T12:26:41Z</time>
      </trkpt>
      <trkpt lat="-22.054454" lon="-45.874399">
        <ele>879.132</ele>
        <time>2019-10-15T12:26:47Z</time>
      </trkpt>
      <trkpt lat="-22.054472" lon="-45.874354">
        <ele>879.757</ele>
        <time>2019-10-15T12:26:51Z</time>
      </trkpt>
      <trkpt lat="-22.054489" lon="-45.874304">
        <ele>881.136</ele>
        <time>2019-10-15T12:26:57Z</time>
      </trkpt>
      <trkpt lat="-22.054489" lon="-45.874237">
        <ele>882.461</ele>
        <time>2019-10-15T12:27:02Z</time>
      </trkpt>
      <trkpt lat="-22.054477" lon="-45.874179">
        <ele>882.821</ele>
        <time>2019-10-15T12:27:04Z</time>
      </trkpt>
      <trkpt lat="-22.054471" lon="-45.874126">
        <ele>883.813</ele>
        <time>2019-10-15T12:27:07Z</time>
      </trkpt>
      <trkpt lat="-22.054466" lon="-45.874075">
        <ele>885.108</ele>
        <time>2019-10-15T12:27:11Z</time>
      </trkpt>
      <trkpt lat="-22.054460" lon="-45.874019">
        <ele>886.830</ele>
        <time>2019-10-15T12:27:18Z</time>
      </trkpt>
      <trkpt lat="-22.054452" lon="-45.873961">
        <ele>887.258</ele>
        <time>2019-10-15T12:27:37Z</time>
      </trkpt>
      <trkpt lat="-22.054441" lon="-45.873912">
        <ele>888.781</ele>
        <time>2019-10-15T12:27:44Z</time>
      </trkpt>
      <trkpt lat="-22.054426" lon="-45.873851">
        <ele>889.636</ele>
        <time>2019-10-15T12:27:50Z</time>
      </trkpt>
      <trkpt lat="-22.054418" lon="-45.873802">
        <ele>890.746</ele>
        <time>2019-10-15T12:27:55Z</time>
      </trkpt>
      <trkpt lat="-22.054409" lon="-45.873733">
        <ele>891.986</ele>
        <time>2019-10-15T12:28:00Z</time>
      </trkpt>
      <trkpt lat="-22.054392" lon="-45.873674">
        <ele>893.331</ele>
        <time>2019-10-15T12:28:07Z</time>
      </trkpt>
      <trkpt lat="-22.054372" lon="-45.873628">
        <ele>894.510</ele>
        <time>2019-10-15T12:28:14Z</time>
      </trkpt>
      <trkpt lat="-22.054353" lon="-45.873576">
        <ele>895.976</ele>
        <time>2019-10-15T12:28:21Z</time>
      </trkpt>
      <trkpt lat="-22.054326" lon="-45.873532">
        <ele>896.990</ele>
        <time>2019-10-15T12:28:27Z</time>
      </trkpt>
      <trkpt lat="-22.054305" lon="-45.873481">
        <ele>897.819</ele>
        <time>2019-10-15T12:28:32Z</time>
      </trkpt>
      <trkpt lat="-22.054279" lon="-45.873428">
        <ele>898.808</ele>
        <time>2019-10-15T12:28:36Z</time>
      </trkpt>
      <trkpt lat="-22.054258" lon="-45.873381">
        <ele>899.111</ele>
        <time>2019-10-15T12:28:49Z</time>
      </trkpt>
      <trkpt lat="-22.054243" lon="-45.873332">
        <ele>900.529</ele>
        <time>2019-10-15T12:28:54Z</time>
      </trkpt>
      <trkpt lat="-22.054222" lon="-45.873285">
        <ele>901.112</ele>
        <time>2019-10-15T12:28:59Z</time>
      </trkpt>
      <trkpt lat="-22.054194" lon="-45.873238">
        <ele>902.817</ele>
        <time>2019-10-15T12:29:06Z</time>
      </trkpt>
      <trkpt lat="-22.054173" lon="-45.873192">
        <ele>903.787</ele>
        <time>2019-10-15T12:29:11Z</time>
      </trkpt>
      <trkpt lat="-22.054143" lon="-45.873147">
        <ele>904.627</ele>
        <time>2019-10-15T12:29:16Z</time>
      </trkpt>
      <trkpt lat="-22.054104" lon="-45.873106">
        <ele>905.782</ele>
        <time>2019-10-15T12:29:21Z</time>
      </trkpt>
      <trkpt lat="-22.054069" lon="-45.873060">
        <ele>906.651</ele>
        <time>2019-10-15T12:29:27Z</time>
      </trkpt>
      <trkpt lat="-22.054037" lon="-45.873019">
        <ele>907.778</ele>
        <time>2019-10-15T12:29:35Z</time>
      </trkpt>
      <trkpt lat="-22.053999" lon="-45.872968">
        <ele>908.433</ele>
        <time>2019-10-15T12:29:40Z</time>
      </trkpt>
      <trkpt lat="-22.053958" lon="-45.872942">
        <ele>909.126</ele>
        <time>2019-10-15T12:29:44Z</time>
      </trkpt>
      <trkpt lat="-22.053919" lon="-45.872918">
        <ele>909.708</ele>
        <time>2019-10-15T12:29:48Z</time>
      </trkpt>
      <trkpt lat="-22.053851" lon="-45.872876">
        <ele>910.461</ele>
        <time>2019-10-15T12:29:51Z</time>
      </trkpt>
      <trkpt lat="-22.053809" lon="-45.872839">
        <ele>911.159</ele>
        <time>2019-10-15T12:29:54Z</time>
      </trkpt>
      <trkpt lat="-22.053775" lon="-45.872805">
        <ele>911.592</ele>
        <time>2019-10-15T12:29:56Z</time>
      </trkpt>
      <trkpt lat="-22.053731" lon="-45.872762">
        <ele>912.527</ele>
        <time>2019-10-15T12:30:01Z</time>
      </trkpt>
      <trkpt lat="-22.053682" lon="-45.872734">
        <ele>912.927</ele>
        <time>2019-10-15T12:30:05Z</time>
      </trkpt>
      <trkpt lat="-22.053647" lon="-45.872694">
        <ele>913.317</ele>
        <time>2019-10-15T12:30:08Z</time>
      </trkpt>
      <trkpt lat="-22.053617" lon="-45.872655">
        <ele>913.852</ele>
        <time>2019-10-15T12:30:12Z</time>
      </trkpt>
      <trkpt lat="-22.053579" lon="-45.872622">
        <ele>914.111</ele>
        <time>2019-10-15T12:30:16Z</time>
      </trkpt>
      <trkpt lat="-22.053546" lon="-45.872587">
        <ele>914.926</ele>
        <time>2019-10-15T12:30:19Z</time>
      </trkpt>
      <trkpt lat="-22.053517" lon="-45.872544">
        <ele>915.647</ele>
        <time>2019-10-15T12:30:24Z</time>
      </trkpt>
      <trkpt lat="-22.053482" lon="-45.872488">
        <ele>916.511</ele>
        <time>2019-10-15T12:30:30Z</time>
      </trkpt>
      <trkpt lat="-22.053441" lon="-45.872439">
        <ele>917.008</ele>
        <time>2019-10-15T12:30:34Z</time>
      </trkpt>
      <trkpt lat="-22.053411" lon="-45.872396">
        <ele>917.666</ele>
        <time>2019-10-15T12:30:39Z</time>
      </trkpt>
      <trkpt lat="-22.053379" lon="-45.872349">
        <ele>918.284</ele>
        <time>2019-10-15T12:30:44Z</time>
      </trkpt>
      <trkpt lat="-22.053344" lon="-45.872305">
        <ele>919.057</ele>
        <time>2019-10-15T12:30:48Z</time>
      </trkpt>
      <trkpt lat="-22.053298" lon="-45.872265">
        <ele>919.572</ele>
        <time>2019-10-15T12:30:53Z</time>
      </trkpt>
      <trkpt lat="-22.053267" lon="-45.872228">
        <ele>920.232</ele>
        <time>2019-10-15T12:30:57Z</time>
      </trkpt>
      <trkpt lat="-22.053221" lon="-45.872197">
        <ele>920.582</ele>
        <time>2019-10-15T12:30:59Z</time>
      </trkpt>
      <trkpt lat="-22.053182" lon="-45.872170">
        <ele>920.847</ele>
        <time>2019-10-15T12:31:01Z</time>
      </trkpt>
      <trkpt lat="-22.053144" lon="-45.872142">
        <ele>921.456</ele>
        <time>2019-10-15T12:31:04Z</time>
      </trkpt>
      <trkpt lat="-22.053093" lon="-45.872092">
        <ele>921.923</ele>
        <time>2019-10-15T12:31:09Z</time>
      </trkpt>
      <trkpt lat="-22.053055" lon="-45.872036">
        <ele>922.783</ele>
        <time>2019-10-15T12:31:14Z</time>
      </trkpt>
      <trkpt lat="-22.053006" lon="-45.871998">
        <ele>923.111</ele>
        <time>2019-10-15T12:31:17Z</time>
      </trkpt>
      <trkpt lat="-22.052961" lon="-45.871951">
        <ele>923.708</ele>
        <time>2019-10-15T12:31:22Z</time>
      </trkpt>
      <trkpt lat="-22.052921" lon="-45.871927">
        <ele>924.496</ele>
        <time>2019-10-15T12:31:25Z</time>
      </trkpt>
      <trkpt lat="-22.052843" lon="-45.871880">
        <ele>922.734</ele>
        <time>2019-10-15T12:33:24Z</time>
      </trkpt>
      <trkpt lat="-22.045344" lon="-45.868864">
        <ele>863.537</ele>
        <time>2019-10-15T12:34:58Z</time>
      </trkpt>
      <trkpt lat="-22.045305" lon="-45.868829">
        <ele>864.312</ele>
        <time>2019-10-15T12:35:00Z</time>
      </trkpt>
      <trkpt lat="-22.045269" lon="-45.868787">
        <ele>864.582</ele>
        <time>2019-10-15T12:35:02Z</time>
      </trkpt>
      <trkpt lat="-22.045224" lon="-45.868744">
        <ele>864.982</ele>
        <time>2019-10-15T12:35:05Z</time>
      </trkpt>
      <trkpt lat="-22.045178" lon="-45.868701">
        <ele>865.577</ele>
        <time>2019-10-15T12:35:08Z</time>
      </trkpt>
      <trkpt lat="-22.045140" lon="-45.868667">
        <ele>865.556</ele>
        <time>2019-10-15T12:35:10Z</time>
      </trkpt>
      <trkpt lat="-22.045094" lon="-45.868628">
        <ele>865.722</ele>
        <time>2019-10-15T12:35:13Z</time>
      </trkpt>
      <trkpt lat="-22.045057" lon="-45.868595">
        <ele>866.262</ele>
        <time>2019-10-15T12:35:16Z</time>
      </trkpt>
      <trkpt lat="-22.045011" lon="-45.868565">
        <ele>866.208</ele>
        <time>2019-10-15T12:35:18Z</time>
      </trkpt>
      <trkpt lat="-22.044965" lon="-45.868528">
        <ele>866.808</ele>
        <time>2019-10-15T12:35:22Z</time>
      </trkpt>
      <trkpt lat="-22.044925" lon="-45.868497">
        <ele>867.646</ele>
        <time>2019-10-15T12:35:24Z</time>
      </trkpt>
      <trkpt lat="-22.044883" lon="-45.868461">
        <ele>867.854</ele>
        <time>2019-10-15T12:35:28Z</time>
      </trkpt>
      <trkpt lat="-22.044852" lon="-45.868425">
        <ele>868.437</ele>
        <time>2019-10-15T12:35:32Z</time>
      </trkpt>
      <trkpt lat="-22.044808" lon="-45.868388">
        <ele>869.262</ele>
        <time>2019-10-15T12:35:35Z</time>
      </trkpt>
      <trkpt lat="-22.044772" lon="-45.868354">
        <ele>869.662</ele>
        <time>2019-10-15T12:35:37Z</time>
      </trkpt>
      <trkpt lat="-22.044739" lon="-45.868320">
        <ele>870.312</ele>
        <time>2019-10-15T12:35:41Z</time>
      </trkpt>
      <trkpt lat="-22.044705" lon="-45.868288">
        <ele>870.977</ele>
        <time>2019-10-15T12:35:44Z</time>
      </trkpt>
      <trkpt lat="-22.044647" lon="-45.868236">
        <ele>871.076</ele>
        <time>2019-10-15T12:35:49Z</time>
      </trkpt>
      <trkpt lat="-22.044615" lon="-45.868190">
        <ele>871.355</ele>
        <time>2019-10-15T12:35:53Z</time>
      </trkpt>
      <trkpt lat="-22.044576" lon="-45.868152">
        <ele>871.907</ele>
        <time>2019-10-15T12:35:56Z</time>
      </trkpt>
      <trkpt lat="-22.044550" lon="-45.868111">
        <ele>872.117</ele>
        <time>2019-10-15T12:35:59Z</time>
      </trkpt>
      <trkpt lat="-22.044514" lon="-45.868074">
        <ele>872.608</ele>
        <time>2019-10-15T12:36:03Z</time>
      </trkpt>
      <trkpt lat="-22.044485" lon="-45.868035">
        <ele>872.869</ele>
        <time>2019-10-15T12:36:05Z</time>
      </trkpt>
      <trkpt lat="-22.044452" lon="-45.867992">
        <ele>873.117</ele>
        <time>2019-10-15T12:36:09Z</time>
      </trkpt>
      <trkpt lat="-22.044421" lon="-45.867956">
        <ele>873.120</ele>
        <time>2019-10-15T12:36:12Z</time>
      </trkpt>
      <trkpt lat="-22.044384" lon="-45.867921">
        <ele>873.985</ele>
        <time>2019-10-15T12:36:15Z</time>
      </trkpt>
      <trkpt lat="-22.044340" lon="-45.867872">
        <ele>874.585</ele>
        <time>2019-10-15T12:36:19Z</time>
      </trkpt>
      <trkpt lat="-22.044297" lon="-45.867831">
        <ele>874.665</ele>
        <time>2019-10-15T12:36:22Z</time>
      </trkpt>
      <trkpt lat="-22.044255" lon="-45.867796">
        <ele>875.470</ele>
        <time>2019-10-15T12:36:26Z</time>
      </trkpt>
      <trkpt lat="-22.044216" lon="-45.867759">
        <ele>875.369</ele>
        <time>2019-10-15T12:36:29Z</time>
      </trkpt>
      <trkpt lat="-22.044164" lon="-45.867718">
        <ele>876.463</ele>
        <time>2019-10-15T12:36:34Z</time>
      </trkpt>
      <trkpt lat="-22.044117" lon="-45.867676">
        <ele>876.544</ele>
        <time>2019-10-15T12:36:38Z</time>
      </trkpt>
      <trkpt lat="-22.044075" lon="-45.867650">
        <ele>876.618</ele>
        <time>2019-10-15T12:36:41Z</time>
      </trkpt>
      <trkpt lat="-22.044039" lon="-45.867615">
        <ele>877.308</ele>
        <time>2019-10-15T12:36:44Z</time>
      </trkpt>
      <trkpt lat="-22.043998" lon="-45.867581">
        <ele>877.790</ele>
        <time>2019-10-15T12:36:47Z</time>
      </trkpt>
      <trkpt lat="-22.043956" lon="-45.867553">
        <ele>878.118</ele>
        <time>2019-10-15T12:36:50Z</time>
      </trkpt>
      <trkpt lat="-22.043908" lon="-45.867522">
        <ele>878.511</ele>
        <time>2019-10-15T12:36:53Z</time>
      </trkpt>
      <trkpt lat="-22.043860" lon="-45.867487">
        <ele>879.386</ele>
        <time>2019-10-15T12:36:57Z</time>
      </trkpt>
      <trkpt lat="-22.043788" lon="-45.867458">
        <ele>879.816</ele>
        <time>2019-10-15T12:37:02Z</time>
      </trkpt>
      <trkpt lat="-22.043739" lon="-45.867438">
        <ele>880.396</ele>
        <time>2019-10-15T12:37:05Z</time>
      </trkpt>
      <trkpt lat="-22.043696" lon="-45.867416">
        <ele>880.821</ele>
        <time>2019-10-15T12:37:08Z</time>
      </trkpt>
      <trkpt lat="-22.043625" lon="-45.867392">
        <ele>881.220</ele>
        <time>2019-10-15T12:37:13Z</time>
      </trkpt>
      <trkpt lat="-22.043575" lon="-45.867376">
        <ele>881.419</ele>
        <time>2019-10-15T12:37:16Z</time>
      </trkpt>
      <trkpt lat="-22.043526" lon="-45.867359">
        <ele>881.709</ele>
        <time>2019-10-15T12:37:18Z</time>
      </trkpt>
      <trkpt lat="-22.043486" lon="-45.867328">
        <ele>881.819</ele>
        <time>2019-10-15T12:37:21Z</time>
      </trkpt>
      <trkpt lat="-22.043439" lon="-45.867289">
        <ele>881.608</ele>
        <time>2019-10-15T12:37:24Z</time>
      </trkpt>
      <trkpt lat="-22.043408" lon="-45.867252">
        <ele>881.565</ele>
        <time>2019-10-15T12:37:28Z</time>
      </trkpt>
      <trkpt lat="-22.043369" lon="-45.867205">
        <ele>881.473</ele>
        <time>2019-10-15T12:37:31Z</time>
      </trkpt>
      <trkpt lat="-22.043323" lon="-45.867139">
        <ele>881.376</ele>
        <time>2019-10-15T12:37:35Z</time>
      </trkpt>
      <trkpt lat="-22.043299" lon="-45.867094">
        <ele>881.381</ele>
        <time>2019-10-15T12:37:38Z</time>
      </trkpt>
      <trkpt lat="-22.043273" lon="-45.867049">
        <ele>880.421</ele>
        <time>2019-10-15T12:37:40Z</time>
      </trkpt>
      <trkpt lat="-22.043228" lon="-45.866987">
        <ele>879.541</ele>
        <time>2019-10-15T12:37:43Z</time>
      </trkpt>
      <trkpt lat="-22.043190" lon="-45.866926">
        <ele>878.866</ele>
        <time>2019-10-15T12:37:45Z</time>
      </trkpt>
      <trkpt lat="-22.043158" lon="-45.866869">
        <ele>877.895</ele>
        <time>2019-10-15T12:37:47Z</time>
      </trkpt>
      <trkpt lat="-22.043112" lon="-45.866800">
        <ele>876.359</ele>
        <time>2019-10-15T12:37:49Z</time>
      </trkpt>
      <trkpt lat="-22.036478" lon="-45.861923">
        <ele>836.503</ele>
        <time>2019-10-15T12:40:00Z</time>
      </trkpt>
      <trkpt lat="-22.036438" lon="-45.861954">
        <ele>836.823</ele>
        <time>2019-10-15T12:40:03Z</time>
      </trkpt>
      <trkpt lat="-22.036394" lon="-45.861973">
        <ele>836.908</ele>
        <time>2019-10-15T12:40:04Z</time>
      </trkpt>
      <trkpt lat="-22.036345" lon="-45.862004">
        <ele>837.269</ele>
        <time>2019-10-15T12:40:08Z</time>
      </trkpt>
      <trkpt lat="-22.036269" lon="-45.862046">
        <ele>837.717</ele>
        <time>2019-10-15T12:40:14Z</time>
      </trkpt>
      <trkpt lat="-22.036229" lon="-45.862081">
        <ele>838.080</ele>
        <time>2019-10-15T12:40:16Z</time>
      </trkpt>
      <trkpt lat="-22.036183" lon="-45.862109">
        <ele>838.475</ele>
        <time>2019-10-15T12:40:20Z</time>
      </trkpt>
      <trkpt lat="-22.036110" lon="-45.862151">
        <ele>839.245</ele>
        <time>2019-10-15T12:40:25Z</time>
      </trkpt>
      <trkpt lat="-22.036064" lon="-45.862184">
        <ele>839.315</ele>
        <time>2019-10-15T12:40:29Z</time>
      </trkpt>
      <trkpt lat="-22.036012" lon="-45.862224">
        <ele>839.880</ele>
        <time>2019-10-15T12:40:32Z</time>
      </trkpt>
      <trkpt lat="-22.035960" lon="-45.862259">
        <ele>840.099</ele>
        <time>2019-10-15T12:40:36Z</time>
      </trkpt>
      <trkpt lat="-22.035918" lon="-45.862283">
        <ele>840.432</ele>
        <time>2019-10-15T12:40:39Z</time>
      </trkpt>
      <trkpt lat="-22.035869" lon="-45.862317">
        <ele>840.792</ele>
        <time>2019-10-15T12:40:42Z</time>
      </trkpt>
      <trkpt lat="-22.035834" lon="-45.862349">
        <ele>840.611</ele>
        <time>2019-10-15T12:40:44Z</time>
      </trkpt>
      <trkpt lat="-22.035796" lon="-45.862380">
        <ele>840.908</ele>
        <time>2019-10-15T12:40:46Z</time>
      </trkpt>
      <trkpt lat="-22.035737" lon="-45.862423">
        <ele>841.337</ele>
        <time>2019-10-15T12:40:50Z</time>
      </trkpt>
      <trkpt lat="-22.035690" lon="-45.862447">
        <ele>841.395</ele>
        <time>2019-10-15T12:40:53Z</time>
      </trkpt>
      <trkpt lat="-22.035645" lon="-45.862477">
        <ele>841.898</ele>
        <time>2019-10-15T12:40:56Z</time>
      </trkpt>
      <trkpt lat="-22.035603" lon="-45.862511">
        <ele>842.053</ele>
        <time>2019-10-15T12:40:58Z</time>
      </trkpt>
      <trkpt lat="-22.035562" lon="-45.862536">
        <ele>842.263</ele>
        <time>2019-10-15T12:41:00Z</time>
      </trkpt>
      <trkpt lat="-22.035514" lon="-45.862575">
        <ele>842.163</ele>
        <time>2019-10-15T12:41:04Z</time>
      </trkpt>
      <trkpt lat="-22.035463" lon="-45.862606">
        <ele>842.278</ele>
        <time>2019-10-15T12:41:06Z</time>
      </trkpt>
      <trkpt lat="-22.035408" lon="-45.862641">
        <ele>842.477</ele>
        <time>2019-10-15T12:41:10Z</time>
      </trkpt>
      <trkpt lat="-22.035365" lon="-45.862668">
        <ele>842.927</ele>
        <time>2019-10-15T12:41:13Z</time>
      </trkpt>
      <trkpt lat="-22.035317" lon="-45.862669">
        <ele>843.168</ele>
        <time>2019-10-15T12:41:16Z</time>
      </trkpt>
      <trkpt lat="-22.035332" lon="-45.862617">
        <ele>843.214</ele>
        <time>2019-10-15T12:41:19Z</time>
      </trkpt>
      <trkpt lat="-22.035375" lon="-45.862597">
        <ele>843.008</ele>
        <time>2019-10-15T12:41:21Z</time>
      </trkpt>
      <trkpt lat="-22.035415" lon="-45.862567">
        <ele>842.816</ele>
        <time>2019-10-15T12:41:24Z</time>
      </trkpt>
      <trkpt lat="-22.035456" lon="-45.862539">
        <ele>842.874</ele>
        <time>2019-10-15T12:41:26Z</time>
      </trkpt>
      <trkpt lat="-22.035493" lon="-45.862507">
        <ele>842.257</ele>
        <time>2019-10-15T12:41:28Z</time>
      </trkpt>
      <trkpt lat="-22.035547" lon="-45.862469">
        <ele>841.882</ele>
        <time>2019-10-15T12:41:30Z</time>
      </trkpt>
      <trkpt lat="-22.035596" lon="-45.862431">
        <ele>841.512</ele>
        <time>2019-10-15T12:41:32Z</time>
      </trkpt>
      <trkpt lat="-22.035648" lon="-45.862384">
        <ele>841.162</ele>
        <time>2019-10-15T12:41:34Z</time>
      </trkpt>
      <trkpt lat="-22.035731" lon="-45.862325">
        <ele>841.127</ele>
        <time>2019-10-15T12:41:37Z</time>
      </trkpt>
      <trkpt lat="-22.035780" lon="-45.862289">
        <ele>840.716</ele>
        <time>2019-10-15T12:41:39Z</time>
      </trkpt>
      <trkpt lat="-22.036134" lon="-45.861862">
        <ele>839.148</ele>
        <time>2019-10-15T12:41:51Z</time>
      </trkpt>
      <trkpt lat="-22.036164" lon="-45.861816">
        <ele>840.261</ele>
        <time>2019-10-15T12:41:52Z</time>
      </trkpt>
      <trkpt lat="-22.036191" lon="-45.861740">
        <ele>839.917</ele>
        <time>2019-10-15T12:41:55Z</time>
      </trkpt>
      <trkpt lat="-22.036254" lon="-45.861517">
        <ele>840.708</ele>
        <time>2019-10-15T12:42:00Z</time>
      </trkpt>
      <trkpt lat="-22.036267" lon="-45.861457">
        <ele>841.168</ele>
        <time>2019-10-15T12:42:01Z</time>
      </trkpt>
      <trkpt lat="-22.036280" lon="-45.861369">
        <ele>841.136</ele>
        <time>2019-10-15T12:42:03Z</time>
      </trkpt>
      <trkpt lat="-22.036288" lon="-45.861232">
        <ele>841.339</ele>
        <time>2019-10-15T12:42:07Z</time>
      </trkpt>
      <trkpt lat="-22.036290" lon="-45.861145">
        <ele>841.824</ele>
        <time>2019-10-15T12:42:09Z</time>
      </trkpt>
      <trkpt lat="-22.036287" lon="-45.861072">
        <ele>842.114</ele>
        <time>2019-10-15T12:42:10Z</time>
      </trkpt>
      <trkpt lat="-22.036281" lon="-45.861015">
        <ele>842.034</ele>
        <time>2019-10-15T12:42:12Z</time>
      </trkpt>
      <trkpt lat="-22.036270" lon="-45.860959">
        <ele>842.469</ele>
        <time>2019-10-15T12:42:14Z</time>
      </trkpt>
      <trkpt lat="-22.036259" lon="-45.860881">
        <ele>842.228</ele>
        <time>2019-10-15T12:42:16Z</time>
      </trkpt>
      <trkpt lat="-22.036252" lon="-45.860821">
        <ele>842.646</ele>
        <time>2019-10-15T12:42:18Z</time>
      </trkpt>
      <trkpt lat="-22.036238" lon="-45.860751">
        <ele>843.188</ele>
        <time>2019-10-15T12:42:20Z</time>
      </trkpt>
      <trkpt lat="-22.036219" lon="-45.860672">
        <ele>843.516</ele>
        <time>2019-10-15T12:42:22Z</time>
      </trkpt>
      <trkpt lat="-22.036199" lon="-45.860572">
        <ele>844.108</ele>
        <time>2019-10-15T12:42:25Z</time>
      </trkpt>
      <trkpt lat="-22.036166" lon="-45.860420">
        <ele>844.638</ele>
        <time>2019-10-15T12:42:30Z</time>
      </trkpt>
      <trkpt lat="-22.036155" lon="-45.860359">
        <ele>844.826</ele>
        <time>2019-10-15T12:42:33Z</time>
      </trkpt>
      <trkpt lat="-22.036125" lon="-45.860253">
        <ele>845.429</ele>
        <time>2019-10-15T12:42:37Z</time>
      </trkpt>
      <trkpt lat="-22.036112" lon="-45.860196">
        <ele>845.734</ele>
        <time>2019-10-15T12:42:39Z</time>
      </trkpt>
      <trkpt lat="-22.036094" lon="-45.860109">
        <ele>846.064</ele>
        <time>2019-10-15T12:42:42Z</time>
      </trkpt>
      <trkpt lat="-22.036077" lon="-45.860031">
        <ele>846.254</ele>
        <time>2019-10-15T12:42:45Z</time>
      </trkpt>
      <trkpt lat="-22.036053" lon="-45.859947">
        <ele>846.959</ele>
        <time>2019-10-15T12:42:47Z</time>
      </trkpt>
      <trkpt lat="-22.036038" lon="-45.859892">
        <ele>847.078</ele>
        <time>2019-10-15T12:42:50Z</time>
      </trkpt>
      <trkpt lat="-22.036026" lon="-45.859836">
        <ele>847.173</ele>
        <time>2019-10-15T12:42:52Z</time>
      </trkpt>
      <trkpt lat="-22.036013" lon="-45.859786">
        <ele>847.485</ele>
        <time>2019-10-15T12:42:54Z</time>
      </trkpt>
      <trkpt lat="-22.036000" lon="-45.859721">
        <ele>847.913</ele>
        <time>2019-10-15T12:42:57Z</time>
      </trkpt>
      <trkpt lat="-22.035988" lon="-45.859673">
        <ele>848.508</ele>
        <time>2019-10-15T12:42:59Z</time>
      </trkpt>
      <trkpt lat="-22.035966" lon="-45.859600">
        <ele>849.061</ele>
        <time>2019-10-15T12:43:02Z</time>
      </trkpt>
      <trkpt lat="-22.035957" lon="-45.859547">
        <ele>849.279</ele>
        <time>2019-10-15T12:43:05Z</time>
      </trkpt>
      <trkpt lat="-22.035939" lon="-45.859476">
        <ele>849.312</ele>
        <time>2019-10-15T12:43:08Z</time>
      </trkpt>
      <trkpt lat="-22.035920" lon="-45.859397">
        <ele>849.957</ele>
        <time>2019-10-15T12:43:12Z</time>
      </trkpt>
      <trkpt lat="-22.035903" lon="-45.859328">
        <ele>850.587</ele>
        <time>2019-10-15T12:43:15Z</time>
      </trkpt>
      <trkpt lat="-22.035890" lon="-45.859269">
        <ele>850.957</ele>
        <time>2019-10-15T12:43:18Z</time>
      </trkpt>
      <trkpt lat="-22.035875" lon="-45.859210">
        <ele>851.272</ele>
        <time>2019-10-15T12:43:20Z</time>
      </trkpt>
      <trkpt lat="-22.035860" lon="-45.859146">
        <ele>851.561</ele>
        <time>2019-10-15T12:43:24Z</time>
      </trkpt>
      <trkpt lat="-22.035835" lon="-45.859037">
        <ele>851.959</ele>
        <time>2019-10-15T12:43:29Z</time>
      </trkpt>
      <trkpt lat="-22.035818" lon="-45.858981">
        <ele>851.903</ele>
        <time>2019-10-15T12:43:32Z</time>
      </trkpt>
      <trkpt lat="-22.035803" lon="-45.858917">
        <ele>852.423</ele>
        <time>2019-10-15T12:43:35Z</time>
      </trkpt>
      <trkpt lat="-22.035786" lon="-45.858849">
        <ele>853.108</ele>
        <time>2019-10-15T12:43:38Z</time>
      </trkpt>
      <trkpt lat="-22.035773" lon="-45.858787">
        <ele>853.529</ele>
        <time>2019-10-15T12:43:40Z</time>
      </trkpt>
      <trkpt lat="-22.035760" lon="-45.858739">
        <ele>854.157</ele>
        <time>2019-10-15T12:43:43Z</time>
      </trkpt>
      <trkpt lat="-22.035732" lon="-45.858636">
        <ele>854.840</ele>
        <time>2019-10-15T12:43:48Z</time>
      </trkpt>
      <trkpt lat="-22.035720" lon="-45.858577">
        <ele>855.295</ele>
        <time>2019-10-15T12:43:52Z</time>
      </trkpt>
      <trkpt lat="-22.035703" lon="-45.858514">
        <ele>855.675</ele>
        <time>2019-10-15T12:43:56Z</time>
      </trkpt>
      <trkpt lat="-22.035696" lon="-45.858447">
        <ele>855.975</ele>
        <time>2019-10-15T12:44:00Z</time>
      </trkpt>
      <trkpt lat="-22.035684" lon="-45.858396">
        <ele>856.440</ele>
        <time>2019-10-15T12:44:03Z</time>
      </trkpt>
      <trkpt lat="-22.035670" lon="-45.858340">
        <ele>856.669</ele>
        <time>2019-10-15T12:44:05Z</time>
      </trkpt>
      <trkpt lat="-22.035656" lon="-45.858263">
        <ele>857.645</ele>
        <time>2019-10-15T12:44:09Z</time>
      </trkpt>
      <trkpt lat="-22.035640" lon="-45.858199">
        <ele>857.847</ele>
        <time>2019-10-15T12:44:12Z</time>
      </trkpt>
      <trkpt lat="-22.035628" lon="-45.858147">
        <ele>858.411</ele>
        <time>2019-10-15T12:44:14Z</time>
      </trkpt>
      <trkpt lat="-22.035610" lon="-45.858084">
        <ele>858.808</ele>
        <time>2019-10-15T12:44:18Z</time>
      </trkpt>
      <trkpt lat="-22.035587" lon="-45.858030">
        <ele>859.388</ele>
        <time>2019-10-15T12:44:21Z</time>
      </trkpt>
      <trkpt lat="-22.035568" lon="-45.857979">
        <ele>859.436</ele>
        <time>2019-10-15T12:44:24Z</time>
      </trkpt>
      <trkpt lat="-22.035540" lon="-45.857903">
        <ele>859.959</ele>
        <time>2019-10-15T12:44:27Z</time>
      </trkpt>
      <trkpt lat="-22.035521" lon="-45.857856">
        <ele>860.074</ele>
        <time>2019-10-15T12:44:30Z</time>
      </trkpt>
      <trkpt lat="-22.035483" lon="-45.857767">
        <ele>860.644</ele>
        <time>2019-10-15T12:44:35Z</time>
      </trkpt>
      <trkpt lat="-22.035416" lon="-45.857619">
        <ele>861.734</ele>
        <time>2019-10-15T12:44:43Z</time>
      </trkpt>
      <trkpt lat="-22.035393" lon="-45.857576">
        <ele>862.289</ele>
        <time>2019-10-15T12:44:45Z</time>
      </trkpt>
      <trkpt lat="-22.035359" lon="-45.857527">
        <ele>862.268</ele>
        <time>2019-10-15T12:44:48Z</time>
      </trkpt>
      <trkpt lat="-22.035321" lon="-45.857472">
        <ele>862.759</ele>
        <time>2019-10-15T12:44:50Z</time>
      </trkpt>
      <trkpt lat="-22.035286" lon="-45.857412">
        <ele>863.103</ele>
        <time>2019-10-15T12:44:53Z</time>
      </trkpt>
      <trkpt lat="-22.035249" lon="-45.857371">
        <ele>863.523</ele>
        <time>2019-10-15T12:44:56Z</time>
      </trkpt>
      <trkpt lat="-22.035220" lon="-45.857330">
        <ele>863.608</ele>
        <time>2019-10-15T12:44:58Z</time>
      </trkpt>
      <trkpt lat="-22.035147" lon="-45.857246">
        <ele>864.059</ele>
        <time>2019-10-15T12:45:03Z</time>
      </trkpt>
      <trkpt lat="-22.035109" lon="-45.857194">
        <ele>864.857</ele>
        <time>2019-10-15T12:45:06Z</time>
      </trkpt>
      <trkpt lat="-22.035054" lon="-45.857134">
        <ele>865.020</ele>
        <time>2019-10-15T12:45:10Z</time>
      </trkpt>
      <trkpt lat="-22.035014" lon="-45.857099">
        <ele>864.975</ele>
        <time>2019-10-15T12:45:12Z</time>
      </trkpt>
      <trkpt lat="-22.034968" lon="-45.857049">
        <ele>865.035</ele>
        <time>2019-10-15T12:45:14Z</time>
      </trkpt>
      <trkpt lat="-22.034930" lon="-45.857022">
        <ele>865.615</ele>
        <time>2019-10-15T12:45:17Z</time>
      </trkpt>
      <trkpt lat="-22.034881" lon="-45.856988">
        <ele>865.990</ele>
        <time>2019-10-15T12:45:19Z</time>
      </trkpt>
      <trkpt lat="-22.034840" lon="-45.856951">
        <ele>866.269</ele>
        <time>2019-10-15T12:45:22Z</time>
      </trkpt>
      <trkpt lat="-22.034804" lon="-45.856921">
        <ele>866.467</ele>
        <time>2019-10-15T12:45:24Z</time>
      </trkpt>
      <trkpt lat="-22.034752" lon="-45.856884">
        <ele>866.681</ele>
        <time>2019-10-15T12:45:27Z</time>
      </trkpt>
      <trkpt lat="-22.034704" lon="-45.856858">
        <ele>866.819</ele>
        <time>2019-10-15T12:45:29Z</time>
      </trkpt>
      <trkpt lat="-22.034656" lon="-45.856839">
        <ele>867.408</ele>
        <time>2019-10-15T12:45:31Z</time>
      </trkpt>
      <trkpt lat="-22.034610" lon="-45.856813">
        <ele>867.440</ele>
        <time>2019-10-15T12:45:33Z</time>
      </trkpt>
      <trkpt lat="-22.034538" lon="-45.856774">
        <ele>867.868</ele>
        <time>2019-10-15T12:45:36Z</time>
      </trkpt>
      <trkpt lat="-22.034495" lon="-45.856746">
        <ele>867.941</ele>
        <time>2019-10-15T12:45:37Z</time>
      </trkpt>
      <trkpt lat="-22.034437" lon="-45.856716">
        <ele>868.196</ele>
        <time>2019-10-15T12:45:40Z</time>
      </trkpt>
      <trkpt lat="-22.034384" lon="-45.856687">
        <ele>868.376</ele>
        <time>2019-10-15T12:45:42Z</time>
      </trkpt>
      <trkpt lat="-22.034342" lon="-45.856666">
        <ele>869.056</ele>
        <time>2019-10-15T12:45:44Z</time>
      </trkpt>
      <trkpt lat="-22.034296" lon="-45.856639">
        <ele>869.211</ele>
        <time>2019-10-15T12:45:45Z</time>
      </trkpt>
      <trkpt lat="-22.034244" lon="-45.856610">
        <ele>869.540</ele>
        <time>2019-10-15T12:45:48Z</time>
      </trkpt>
      <trkpt lat="-22.034201" lon="-45.856587">
        <ele>870.067</ele>
        <time>2019-10-15T12:45:49Z</time>
      </trkpt>
      <trkpt lat="-22.034153" lon="-45.856561">
        <ele>870.081</ele>
        <time>2019-10-15T12:45:51Z</time>
      </trkpt>
      <trkpt lat="-22.034110" lon="-45.856536">
        <ele>870.119</ele>
        <time>2019-10-15T12:45:54Z</time>
      </trkpt>
      <trkpt lat="-22.034062" lon="-45.856508">
        <ele>870.408</ele>
        <time>2019-10-15T12:45:56Z</time>
      </trkpt>
      <trkpt lat="-22.034021" lon="-45.856482">
        <ele>871.010</ele>
        <time>2019-10-15T12:45:57Z</time>
      </trkpt>
      <trkpt lat="-22.033960" lon="-45.856441">
        <ele>870.868</ele>
        <time>2019-10-15T12:46:00Z</time>
      </trkpt>
      <trkpt lat="-22.033912" lon="-45.856402">
        <ele>871.361</ele>
        <time>2019-10-15T12:46:02Z</time>
      </trkpt>
      <trkpt lat="-22.033864" lon="-45.856365">
        <ele>871.586</ele>
        <time>2019-10-15T12:46:04Z</time>
      </trkpt>
      <trkpt lat="-22.033817" lon="-45.856334">
        <ele>871.646</ele>
        <time>2019-10-15T12:46:07Z</time>
      </trkpt>
      <trkpt lat="-22.033667" lon="-45.856197">
        <ele>872.336</ele>
        <time>2019-10-15T12:46:14Z</time>
      </trkpt>
      <trkpt lat="-22.033622" lon="-45.856135">
        <ele>872.471</ele>
        <time>2019-10-15T12:46:16Z</time>
      </trkpt>
      <trkpt lat="-22.033586" lon="-45.856090">
        <ele>872.820</ele>
        <time>2019-10-15T12:46:19Z</time>
      </trkpt>
      <trkpt lat="-22.033544" lon="-45.856023">
        <ele>873.159</ele>
        <time>2019-10-15T12:46:22Z</time>
      </trkpt>
      <trkpt lat="-22.033512" lon="-45.855978">
        <ele>873.103</ele>
        <time>2019-10-15T12:46:24Z</time>
      </trkpt>
      <trkpt lat="-22.033482" lon="-45.855928">
        <ele>873.123</ele>
        <time>2019-10-15T12:46:26Z</time>
      </trkpt>
      <trkpt lat="-22.033448" lon="-45.855864">
        <ele>873.508</ele>
        <time>2019-10-15T12:46:28Z</time>
      </trkpt>
      <trkpt lat="-22.033429" lon="-45.855815">
        <ele>873.869</ele>
        <time>2019-10-15T12:46:30Z</time>
      </trkpt>
      <trkpt lat="-22.033409" lon="-45.855757">
        <ele>874.367</ele>
        <time>2019-10-15T12:46:31Z</time>
      </trkpt>
      <trkpt lat="-22.033388" lon="-45.855692">
        <ele>874.350</ele>
        <time>2019-10-15T12:46:34Z</time>
      </trkpt>
      <trkpt lat="-22.033357" lon="-45.855568">
        <ele>874.495</ele>
        <time>2019-10-15T12:46:38Z</time>
      </trkpt>
      <trkpt lat="-22.033336" lon="-45.855465">
        <ele>874.955</ele>
        <time>2019-10-15T12:46:42Z</time>
      </trkpt>
      <trkpt lat="-22.033326" lon="-45.855399">
        <ele>875.065</ele>
        <time>2019-10-15T12:46:44Z</time>
      </trkpt>
      <trkpt lat="-22.033325" lon="-45.855346">
        <ele>875.180</ele>
        <time>2019-10-15T12:46:46Z</time>
      </trkpt>
      <trkpt lat="-22.033318" lon="-45.855277">
        <ele>875.149</ele>
        <time>2019-10-15T12:46:48Z</time>
      </trkpt>
      <trkpt lat="-22.033321" lon="-45.855190">
        <ele>874.942</ele>
        <time>2019-10-15T12:46:50Z</time>
      </trkpt>
      <trkpt lat="-22.033326" lon="-45.855125">
        <ele>875.322</ele>
        <time>2019-10-15T12:46:53Z</time>
      </trkpt>
      <trkpt lat="-22.033335" lon="-45.855016">
        <ele>875.214</ele>
        <time>2019-10-15T12:46:56Z</time>
      </trkpt>
      <trkpt lat="-22.033348" lon="-45.854938">
        <ele>875.208</ele>
        <time>2019-10-15T12:46:59Z</time>
      </trkpt>
      <trkpt lat="-22.033395" lon="-45.854787">
        <ele>875.438</ele>
        <time>2019-10-15T12:47:04Z</time>
      </trkpt>
      <trkpt lat="-22.033438" lon="-45.854675">
        <ele>876.586</ele>
        <time>2019-10-15T12:47:08Z</time>
      </trkpt>
      <trkpt lat="-22.033466" lon="-45.854612">
        <ele>876.519</ele>
        <time>2019-10-15T12:47:10Z</time>
      </trkpt>
      <trkpt lat="-22.033493" lon="-45.854558">
        <ele>876.834</ele>
        <time>2019-10-15T12:47:11Z</time>
      </trkpt>
      <trkpt lat="-22.033517" lon="-45.854513">
        <ele>876.764</ele>
        <time>2019-10-15T12:47:13Z</time>
      </trkpt>
      <trkpt lat="-22.033546" lon="-45.854471">
        <ele>876.934</ele>
        <time>2019-10-15T12:47:15Z</time>
      </trkpt>
      <trkpt lat="-22.033578" lon="-45.854420">
        <ele>877.299</ele>
        <time>2019-10-15T12:47:16Z</time>
      </trkpt>
      <trkpt lat="-22.033606" lon="-45.854380">
        <ele>877.428</ele>
        <time>2019-10-15T12:47:18Z</time>
      </trkpt>
      <trkpt lat="-22.033642" lon="-45.854343">
        <ele>877.673</ele>
        <time>2019-10-15T12:47:20Z</time>
      </trkpt>
      <trkpt lat="-22.033688" lon="-45.854293">
        <ele>877.685</ele>
        <time>2019-10-15T12:47:22Z</time>
      </trkpt>
      <trkpt lat="-22.033727" lon="-45.854251">
        <ele>877.513</ele>
        <time>2019-10-15T12:47:23Z</time>
      </trkpt>
      <trkpt lat="-22.033768" lon="-45.854206">
        <ele>877.808</ele>
        <time>2019-10-15T12:47:26Z</time>
      </trkpt>
      <trkpt lat="-22.033832" lon="-45.854145">
        <ele>877.921</ele>
        <time>2019-10-15T12:47:28Z</time>
      </trkpt>
      <trkpt lat="-22.033870" lon="-45.854115">
        <ele>878.299</ele>
        <time>2019-10-15T12:47:30Z</time>
      </trkpt>
      <trkpt lat="-22.033920" lon="-45.854076">
        <ele>877.982</ele>
        <time>2019-10-15T12:47:32Z</time>
      </trkpt>
      <trkpt lat="-22.033961" lon="-45.854047">
        <ele>878.187</ele>
        <time>2019-10-15T12:47:34Z</time>
      </trkpt>
      <trkpt lat="-22.034005" lon="-45.854014">
        <ele>878.277</ele>
        <time>2019-10-15T12:47:36Z</time>
      </trkpt>
      <trkpt lat="-22.034045" lon="-45.853983">
        <ele>878.367</ele>
        <time>2019-10-15T12:47:37Z</time>
      </trkpt>
      <trkpt lat="-22.034090" lon="-45.853947">
        <ele>878.132</ele>
        <time>2019-10-15T12:47:39Z</time>
      </trkpt>
      <trkpt lat="-22.034127" lon="-45.853910">
        <ele>878.691</ele>
        <time>2019-10-15T12:47:41Z</time>
      </trkpt>
      <trkpt lat="-22.034173" lon="-45.853877">
        <ele>878.578</ele>
        <time>2019-10-15T12:47:43Z</time>
      </trkpt>
      <trkpt lat="-22.034243" lon="-45.853818">
        <ele>878.533</ele>
        <time>2019-10-15T12:47:46Z</time>
      </trkpt>
      <trkpt lat="-22.034289" lon="-45.853784">
        <ele>878.726</ele>
        <time>2019-10-15T12:47:48Z</time>
      </trkpt>
      <trkpt lat="-22.034349" lon="-45.853747">
        <ele>878.708</ele>
        <time>2019-10-15T12:47:49Z</time>
      </trkpt>
      <trkpt lat="-22.034403" lon="-45.853704">
        <ele>879.981</ele>
        <time>2019-10-15T12:47:52Z</time>
      </trkpt>
      <trkpt lat="-22.034458" lon="-45.853659">
        <ele>880.349</ele>
        <time>2019-10-15T12:47:54Z</time>
      </trkpt>
      <trkpt lat="-22.034537" lon="-45.853597">
        <ele>880.482</ele>
        <time>2019-10-15T12:47:56Z</time>
      </trkpt>
      <trkpt lat="-22.034617" lon="-45.853526">
        <ele>880.417</ele>
        <time>2019-10-15T12:48:00Z</time>
      </trkpt>
      <trkpt lat="-22.034684" lon="-45.853479">
        <ele>880.487</ele>
        <time>2019-10-15T12:48:02Z</time>
      </trkpt>
      <trkpt lat="-22.034736" lon="-45.853438">
        <ele>880.327</ele>
        <time>2019-10-15T12:48:04Z</time>
      </trkpt>
      <trkpt lat="-22.034777" lon="-45.853405">
        <ele>880.392</ele>
        <time>2019-10-15T12:48:05Z</time>
      </trkpt>
      <trkpt lat="-22.034847" lon="-45.853352">
        <ele>880.791</ele>
        <time>2019-10-15T12:48:08Z</time>
      </trkpt>
      <trkpt lat="-22.034888" lon="-45.853322">
        <ele>880.963</ele>
        <time>2019-10-15T12:48:10Z</time>
      </trkpt>
      <trkpt lat="-22.034928" lon="-45.853289">
        <ele>881.044</ele>
        <time>2019-10-15T12:48:12Z</time>
      </trkpt>
      <trkpt lat="-22.034998" lon="-45.853232">
        <ele>881.318</ele>
        <time>2019-10-15T12:48:14Z</time>
      </trkpt>
      <trkpt lat="-22.035070" lon="-45.853177">
        <ele>881.608</ele>
        <time>2019-10-15T12:48:17Z</time>
      </trkpt>
      <trkpt lat="-22.035131" lon="-45.853123">
        <ele>881.640</ele>
        <time>2019-10-15T12:48:20Z</time>
      </trkpt>
      <trkpt lat="-22.035176" lon="-45.853085">
        <ele>881.938</ele>
        <time>2019-10-15T12:48:21Z</time>
      </trkpt>
      <trkpt lat="-22.035228" lon="-45.853040">
        <ele>882.271</ele>
        <time>2019-10-15T12:48:24Z</time>
      </trkpt>
      <trkpt lat="-22.035274" lon="-45.853003">
        <ele>882.186</ele>
        <time>2019-10-15T12:48:26Z</time>
      </trkpt>
      <trkpt lat="-22.035326" lon="-45.852949">
        <ele>882.626</ele>
        <time>2019-10-15T12:48:28Z</time>
      </trkpt>
      <trkpt lat="-22.035371" lon="-45.852897">
        <ele>882.586</ele>
        <time>2019-10-15T12:48:30Z</time>
      </trkpt>
      <trkpt lat="-22.035416" lon="-45.852845">
        <ele>882.911</ele>
        <time>2019-10-15T12:48:32Z</time>
      </trkpt>
      <trkpt lat="-22.035453" lon="-45.852791">
        <ele>882.640</ele>
        <time>2019-10-15T12:48:34Z</time>
      </trkpt>
      <trkpt lat="-22.035496" lon="-45.852725">
        <ele>881.918</ele>
        <time>2019-10-15T12:48:35Z</time>
      </trkpt>
      <trkpt lat="-22.035531" lon="-45.852658">
        <ele>882.398</ele>
        <time>2019-10-15T12:48:38Z</time>
      </trkpt>
      <trkpt lat="-22.035567" lon="-45.852590">
        <ele>883.117</ele>
        <time>2019-10-15T12:48:40Z</time>
      </trkpt>
      <trkpt lat="-22.035590" lon="-45.852533">
        <ele>883.508</ele>
        <time>2019-10-15T12:48:41Z</time>
      </trkpt>
      <trkpt lat="-22.035611" lon="-45.852478">
        <ele>883.495</ele>
        <time>2019-10-15T12:48:43Z</time>
      </trkpt>
      <trkpt lat="-22.035634" lon="-45.852422">
        <ele>883.673</ele>
        <time>2019-10-15T12:48:45Z</time>
      </trkpt>
      <trkpt lat="-22.035660" lon="-45.852337">
        <ele>883.866</ele>
        <time>2019-10-15T12:48:47Z</time>
      </trkpt>
      <trkpt lat="-22.035679" lon="-45.852281">
        <ele>884.131</ele>
        <time>2019-10-15T12:48:48Z</time>
      </trkpt>
      <trkpt lat="-22.035693" lon="-45.852203">
        <ele>884.461</ele>
        <time>2019-10-15T12:48:51Z</time>
      </trkpt>
      <trkpt lat="-22.035701" lon="-45.852122">
        <ele>884.671</ele>
        <time>2019-10-15T12:48:53Z</time>
      </trkpt>
      <trkpt lat="-22.035706" lon="-45.852056">
        <ele>884.856</ele>
        <time>2019-10-15T12:48:54Z</time>
      </trkpt>
      <trkpt lat="-22.035709" lon="-45.851965">
        <ele>884.845</ele>
        <time>2019-10-15T12:48:57Z</time>
      </trkpt>
      <trkpt lat="-22.035701" lon="-45.851904">
        <ele>885.047</ele>
        <time>2019-10-15T12:48:59Z</time>
      </trkpt>
      <trkpt lat="-22.035692" lon="-45.851841">
        <ele>884.929</ele>
        <time>2019-10-15T12:49:00Z</time>
      </trkpt>
      <trkpt lat="-22.035686" lon="-45.851783">
        <ele>885.121</ele>
        <time>2019-10-15T12:49:02Z</time>
      </trkpt>
      <trkpt lat="-22.035673" lon="-45.851717">
        <ele>885.208</ele>
        <time>2019-10-15T12:49:04Z</time>
      </trkpt>
      <trkpt lat="-22.035642" lon="-45.851589">
        <ele>886.148</ele>
        <time>2019-10-15T12:49:07Z</time>
      </trkpt>
      <trkpt lat="-22.035624" lon="-45.851535">
        <ele>886.236</ele>
        <time>2019-10-15T12:49:08Z</time>
      </trkpt>
      <trkpt lat="-22.035592" lon="-45.851463">
        <ele>886.089</ele>
        <time>2019-10-15T12:49:11Z</time>
      </trkpt>
      <trkpt lat="-22.035570" lon="-45.851409">
        <ele>886.034</ele>
        <time>2019-10-15T12:49:12Z</time>
      </trkpt>
      <trkpt lat="-22.035554" lon="-45.851362">
        <ele>886.044</ele>
        <time>2019-10-15T12:49:13Z</time>
      </trkpt>
      <trkpt lat="-22.035524" lon="-45.851307">
        <ele>886.434</ele>
        <time>2019-10-15T12:49:15Z</time>
      </trkpt>
      <trkpt lat="-22.035489" lon="-45.851248">
        <ele>886.489</ele>
        <time>2019-10-15T12:49:16Z</time>
      </trkpt>
      <trkpt lat="-22.035416" lon="-45.851146">
        <ele>886.248</ele>
        <time>2019-10-15T12:49:20Z</time>
      </trkpt>
      <trkpt lat="-22.035370" lon="-45.851084">
        <ele>886.826</ele>
        <time>2019-10-15T12:49:22Z</time>
      </trkpt>
      <trkpt lat="-22.035320" lon="-45.851029">
        <ele>887.047</ele>
        <time>2019-10-15T12:49:24Z</time>
      </trkpt>
      <trkpt lat="-22.035267" lon="-45.850975">
        <ele>887.111</ele>
        <time>2019-10-15T12:49:26Z</time>
      </trkpt>
      <trkpt lat="-22.035223" lon="-45.850931">
        <ele>887.108</ele>
        <time>2019-10-15T12:49:28Z</time>
      </trkpt>
      <trkpt lat="-22.035174" lon="-45.850881">
        <ele>887.386</ele>
        <time>2019-10-15T12:49:29Z</time>
      </trkpt>
      <trkpt lat="-22.035131" lon="-45.850837">
        <ele>887.444</ele>
        <time>2019-10-15T12:49:31Z</time>
      </trkpt>
      <trkpt lat="-22.035075" lon="-45.850783">
        <ele>888.167</ele>
        <time>2019-10-15T12:49:33Z</time>
      </trkpt>
      <trkpt lat="-22.034268" lon="-45.845256">
        <ele>896.242</ele>
        <time>2019-10-15T12:51:43Z</time>
      </trkpt>
      <trkpt lat="-22.034245" lon="-45.845210">
        <ele>896.352</ele>
        <time>2019-10-15T12:51:46Z</time>
      </trkpt>
      <trkpt lat="-22.034214" lon="-45.845171">
        <ele>896.582</ele>
        <time>2019-10-15T12:51:48Z</time>
      </trkpt>
      <trkpt lat="-22.034170" lon="-45.845122">
        <ele>897.047</ele>
        <time>2019-10-15T12:51:50Z</time>
      </trkpt>
      <trkpt lat="-22.034139" lon="-45.845080">
        <ele>897.236</ele>
        <time>2019-10-15T12:51:52Z</time>
      </trkpt>
      <trkpt lat="-22.034086" lon="-45.845023">
        <ele>897.735</ele>
        <time>2019-10-15T12:51:55Z</time>
      </trkpt>
      <trkpt lat="-22.034042" lon="-45.844982">
        <ele>897.986</ele>
        <time>2019-10-15T12:51:58Z</time>
      </trkpt>
      <trkpt lat="-22.034002" lon="-45.844954">
        <ele>898.514</ele>
        <time>2019-10-15T12:52:00Z</time>
      </trkpt>
      <trkpt lat="-22.033960" lon="-45.844927">
        <ele>898.608</ele>
        <time>2019-10-15T12:52:02Z</time>
      </trkpt>
      <trkpt lat="-22.033915" lon="-45.844881">
        <ele>898.957</ele>
        <time>2019-10-15T12:52:04Z</time>
      </trkpt>
      <trkpt lat="-22.033859" lon="-45.844840">
        <ele>899.635</ele>
        <time>2019-10-15T12:52:08Z</time>
      </trkpt>
      <trkpt lat="-22.033805" lon="-45.844808">
        <ele>900.598</ele>
        <time>2019-10-15T12:52:12Z</time>
      </trkpt>
      <trkpt lat="-22.033761" lon="-45.844771">
        <ele>901.533</ele>
        <time>2019-10-15T12:52:14Z</time>
      </trkpt>
      <trkpt lat="-22.033724" lon="-45.844741">
        <ele>902.033</ele>
        <time>2019-10-15T12:52:16Z</time>
      </trkpt>
      <trkpt lat="-22.033680" lon="-45.844711">
        <ele>902.813</ele>
        <time>2019-10-15T12:52:20Z</time>
      </trkpt>
      <trkpt lat="-22.033624" lon="-45.844680">
        <ele>903.248</ele>
        <time>2019-10-15T12:52:23Z</time>
      </trkpt>
      <trkpt lat="-22.033579" lon="-45.844651">
        <ele>904.017</ele>
        <time>2019-10-15T12:52:25Z</time>
      </trkpt>
      <trkpt lat="-22.033525" lon="-45.844620">
        <ele>904.914</ele>
        <time>2019-10-15T12:52:29Z</time>
      </trkpt>
      <trkpt lat="-22.033480" lon="-45.844590">
        <ele>905.654</ele>
        <time>2019-10-15T12:52:32Z</time>
      </trkpt>
      <trkpt lat="-22.033437" lon="-45.844565">
        <ele>905.709</ele>
        <time>2019-10-15T12:52:34Z</time>
      </trkpt>
      <trkpt lat="-22.033379" lon="-45.844533">
        <ele>906.508</ele>
        <time>2019-10-15T12:52:37Z</time>
      </trkpt>
      <trkpt lat="-22.033325" lon="-45.844499">
        <ele>907.125</ele>
        <time>2019-10-15T12:52:39Z</time>
      </trkpt>
      <trkpt lat="-22.033278" lon="-45.844468">
        <ele>908.083</ele>
        <time>2019-10-15T12:52:42Z</time>
      </trkpt>
      <trkpt lat="-22.033239" lon="-45.844443">
        <ele>908.686</ele>
        <time>2019-10-15T12:52:44Z</time>
      </trkpt>
      <trkpt lat="-22.033186" lon="-45.844415">
        <ele>909.471</ele>
        <time>2019-10-15T12:52:47Z</time>
      </trkpt>
      <trkpt lat="-22.033120" lon="-45.844387">
        <ele>910.141</ele>
        <time>2019-10-15T12:52:50Z</time>
      </trkpt>
      <trkpt lat="-22.033076" lon="-45.844370">
        <ele>910.231</ele>
        <time>2019-10-15T12:52:51Z</time>
      </trkpt>
      <trkpt lat="-22.033029" lon="-45.844340">
        <ele>910.826</ele>
        <time>2019-10-15T12:52:53Z</time>
      </trkpt>
      <trkpt lat="-22.032986" lon="-45.844306">
        <ele>911.315</ele>
        <time>2019-10-15T12:52:55Z</time>
      </trkpt>
      <trkpt lat="-22.032944" lon="-45.844282">
        <ele>911.833</ele>
        <time>2019-10-15T12:52:56Z</time>
      </trkpt>
      <trkpt lat="-22.032874" lon="-45.844246">
        <ele>912.423</ele>
        <time>2019-10-15T12:52:59Z</time>
      </trkpt>
      <trkpt lat="-22.032826" lon="-45.844216">
        <ele>913.015</ele>
        <time>2019-10-15T12:53:01Z</time>
      </trkpt>
      <trkpt lat="-22.032784" lon="-45.844174">
        <ele>913.508</ele>
        <time>2019-10-15T12:53:04Z</time>
      </trkpt>
      <trkpt lat="-22.032736" lon="-45.844129">
        <ele>913.767</ele>
        <time>2019-10-15T12:53:07Z</time>
      </trkpt>
      <trkpt lat="-22.032698" lon="-45.844083">
        <ele>914.275</ele>
        <time>2019-10-15T12:53:10Z</time>
      </trkpt>
      <trkpt lat="-22.032663" lon="-45.844033">
        <ele>914.118</ele>
        <time>2019-10-15T12:53:12Z</time>
      </trkpt>
      <trkpt lat="-22.032631" lon="-45.843997">
        <ele>914.473</ele>
        <time>2019-10-15T12:53:15Z</time>
      </trkpt>
      <trkpt lat="-22.032600" lon="-45.843962">
        <ele>914.553</ele>
        <time>2019-10-15T12:53:17Z</time>
      </trkpt>
      <trkpt lat="-22.032564" lon="-45.843918">
        <ele>914.753</ele>
        <time>2019-10-15T12:53:20Z</time>
      </trkpt>
      <trkpt lat="-22.032523" lon="-45.843866">
        <ele>915.028</ele>
        <time>2019-10-15T12:53:22Z</time>
      </trkpt>
      <trkpt lat="-22.032486" lon="-45.843826">
        <ele>914.757</ele>
        <time>2019-10-15T12:53:25Z</time>
      </trkpt>
      <trkpt lat="-22.032447" lon="-45.843775">
        <ele>914.833</ele>
        <time>2019-10-15T12:53:27Z</time>
      </trkpt>
      <trkpt lat="-22.032417" lon="-45.843728">
        <ele>914.823</ele>
        <time>2019-10-15T12:53:29Z</time>
      </trkpt>
      <trkpt lat="-22.032380" lon="-45.843686">
        <ele>914.615</ele>
        <time>2019-10-15T12:53:31Z</time>
      </trkpt>
      <trkpt lat="-22.032338" lon="-45.843622">
        <ele>914.308</ele>
        <time>2019-10-15T12:53:34Z</time>
      </trkpt>
      <trkpt lat="-22.032301" lon="-45.843562">
        <ele>914.377</ele>
        <time>2019-10-15T12:53:35Z</time>
      </trkpt>
      <trkpt lat="-22.032257" lon="-45.843498">
        <ele>913.955</ele>
        <time>2019-10-15T12:53:39Z</time>
      </trkpt>
      <trkpt lat="-22.032228" lon="-45.843459">
        <ele>913.698</ele>
        <time>2019-10-15T12:53:40Z</time>
      </trkpt>
      <trkpt lat="-22.032197" lon="-45.843413">
        <ele>913.453</ele>
        <time>2019-10-15T12:53:41Z</time>
      </trkpt>
      <trkpt lat="-22.032167" lon="-45.843365">
        <ele>912.813</ele>
        <time>2019-10-15T12:53:43Z</time>
      </trkpt>
      <trkpt lat="-22.032137" lon="-45.843316">
        <ele>912.613</ele>
        <time>2019-10-15T12:53:45Z</time>
      </trkpt>
      <trkpt lat="-22.032098" lon="-45.843255">
        <ele>912.178</ele>
        <time>2019-10-15T12:53:47Z</time>
      </trkpt>
      <trkpt lat="-22.032066" lon="-45.843192">
        <ele>912.137</ele>
        <time>2019-10-15T12:53:49Z</time>
      </trkpt>
      <trkpt lat="-22.032046" lon="-45.843143">
        <ele>911.948</ele>
        <time>2019-10-15T12:53:51Z</time>
      </trkpt>
      <trkpt lat="-22.032021" lon="-45.843093">
        <ele>912.061</ele>
        <time>2019-10-15T12:53:54Z</time>
      </trkpt>
      <trkpt lat="-22.031978" lon="-45.843054">
        <ele>911.517</ele>
        <time>2019-10-15T12:54:25Z</time>
      </trkpt>
      <trkpt lat="-22.031935" lon="-45.843001">
        <ele>910.808</ele>
        <time>2019-10-15T12:54:28Z</time>
      </trkpt>
      <trkpt lat="-22.031914" lon="-45.842950">
        <ele>910.368</ele>
        <time>2019-10-15T12:54:30Z</time>
      </trkpt>
      <trkpt lat="-22.031860" lon="-45.842870">
        <ele>909.876</ele>
        <time>2019-10-15T12:54:32Z</time>
      </trkpt>
      <trkpt lat="-22.031809" lon="-45.842791">
        <ele>909.299</ele>
        <time>2019-10-15T12:54:35Z</time>
      </trkpt>
      <trkpt lat="-22.029613" lon="-45.840109">
        <ele>873.684</ele>
        <time>2019-10-15T12:55:37Z</time>
      </trkpt>
      <trkpt lat="-22.028754" lon="-45.837821">
        <ele>851.414</ele>
        <time>2019-10-15T12:56:16Z</time>
      </trkpt>
      <trkpt lat="-22.028762" lon="-45.837761">
        <ele>853.444</ele>
        <time>2019-10-15T12:56:25Z</time>
      </trkpt>
      <trkpt lat="-22.028766" lon="-45.837708">
        <ele>854.229</ele>
        <time>2019-10-15T12:56:29Z</time>
      </trkpt>
      <trkpt lat="-22.028784" lon="-45.837663">
        <ele>855.518</ele>
        <time>2019-10-15T12:56:35Z</time>
      </trkpt>
      <trkpt lat="-22.028815" lon="-45.837610">
        <ele>857.122</ele>
        <time>2019-10-15T12:56:42Z</time>
      </trkpt>
      <trkpt lat="-22.028840" lon="-45.837566">
        <ele>858.062</ele>
        <time>2019-10-15T12:56:48Z</time>
      </trkpt>
      <trkpt lat="-22.028881" lon="-45.837541">
        <ele>858.608</ele>
        <time>2019-10-15T12:56:50Z</time>
      </trkpt>
      <trkpt lat="-22.028878" lon="-45.837492">
        <ele>859.908</ele>
        <time>2019-10-15T12:56:58Z</time>
      </trkpt>
      <trkpt lat="-22.028915" lon="-45.837458">
        <ele>860.336</ele>
        <time>2019-10-15T12:57:01Z</time>
      </trkpt>
      <trkpt lat="-22.028921" lon="-45.837409">
        <ele>861.454</ele>
        <time>2019-10-15T12:57:07Z</time>
      </trkpt>
      <trkpt lat="-22.028958" lon="-45.837376">
        <ele>862.347</ele>
        <time>2019-10-15T12:57:10Z</time>
      </trkpt>
      <trkpt lat="-22.028930" lon="-45.837417">
        <ele>863.232</ele>
        <time>2019-10-15T12:57:38Z</time>
      </trkpt>
      <trkpt lat="-22.028968" lon="-45.837370">
        <ele>863.462</ele>
        <time>2019-10-15T12:57:52Z</time>
      </trkpt>
      <trkpt lat="-22.028989" lon="-45.837323">
        <ele>864.042</ele>
        <time>2019-10-15T12:57:59Z</time>
      </trkpt>
      <trkpt lat="-22.029005" lon="-45.837277">
        <ele>864.557</ele>
        <time>2019-10-15T12:58:04Z</time>
      </trkpt>
      <trkpt lat="-22.029030" lon="-45.837227">
        <ele>865.256</ele>
        <time>2019-10-15T12:58:09Z</time>
      </trkpt>
      <trkpt lat="-22.029053" lon="-45.837177">
        <ele>865.681</ele>
        <time>2019-10-15T12:58:15Z</time>
      </trkpt>
      <trkpt lat="-22.029082" lon="-45.837136">
        <ele>866.961</ele>
        <time>2019-10-15T12:58:22Z</time>
      </trkpt>
      <trkpt lat="-22.029111" lon="-45.837092">
        <ele>867.617</ele>
        <time>2019-10-15T12:58:28Z</time>
      </trkpt>
      <trkpt lat="-22.029136" lon="-45.837034">
        <ele>868.708</ele>
        <time>2019-10-15T12:58:35Z</time>
      </trkpt>
      <trkpt lat="-22.029154" lon="-45.836985">
        <ele>869.962</ele>
        <time>2019-10-15T12:58:43Z</time>
      </trkpt>
      <trkpt lat="-22.029172" lon="-45.836931">
        <ele>870.830</ele>
        <time>2019-10-15T12:58:51Z</time>
      </trkpt>
      <trkpt lat="-22.029194" lon="-45.836878">
        <ele>872.233</ele>
        <time>2019-10-15T12:58:58Z</time>
      </trkpt>
      <trkpt lat="-22.029222" lon="-45.836835">
        <ele>872.968</ele>
        <time>2019-10-15T12:59:04Z</time>
      </trkpt>
      <trkpt lat="-22.029245" lon="-45.836782">
        <ele>874.068</ele>
        <time>2019-10-15T12:59:11Z</time>
      </trkpt>
      <trkpt lat="-22.029278" lon="-45.836745">
        <ele>874.928</ele>
        <time>2019-10-15T12:59:16Z</time>
      </trkpt>
      <trkpt lat="-22.029323" lon="-45.836718">
        <ele>875.683</ele>
        <time>2019-10-15T12:59:19Z</time>
      </trkpt>
      <trkpt lat="-22.029371" lon="-45.836675">
        <ele>876.122</ele>
        <time>2019-10-15T12:59:29Z</time>
      </trkpt>
      <trkpt lat="-22.029416" lon="-45.836650">
        <ele>876.664</ele>
        <time>2019-10-15T12:59:41Z</time>
      </trkpt>
      <trkpt lat="-22.029466" lon="-45.836630">
        <ele>877.206</ele>
        <time>2019-10-15T12:59:45Z</time>
      </trkpt>
      <trkpt lat="-22.029506" lon="-45.836578">
        <ele>877.716</ele>
        <time>2019-10-15T12:59:50Z</time>
      </trkpt>
      <trkpt lat="-22.029532" lon="-45.836533">
        <ele>878.808</ele>
        <time>2019-10-15T12:59:54Z</time>
      </trkpt>
      <trkpt lat="-22.029553" lon="-45.836483">
        <ele>879.440</ele>
        <time>2019-10-15T12:59:58Z</time>
      </trkpt>
      <trkpt lat="-22.029577" lon="-45.836439">
        <ele>880.038</ele>
        <time>2019-10-15T13:00:03Z</time>
      </trkpt>
      <trkpt lat="-22.029615" lon="-45.836398">
        <ele>880.011</ele>
        <time>2019-10-15T13:00:06Z</time>
      </trkpt>
      <trkpt lat="-22.029646" lon="-45.836356">
        <ele>880.526</ele>
        <time>2019-10-15T13:00:09Z</time>
      </trkpt>
      <trkpt lat="-22.029676" lon="-45.836312">
        <ele>881.156</ele>
        <time>2019-10-15T13:00:13Z</time>
      </trkpt>
      <trkpt lat="-22.029714" lon="-45.836262">
        <ele>880.986</ele>
        <time>2019-10-15T13:00:17Z</time>
      </trkpt>
      <trkpt lat="-22.029749" lon="-45.836224">
        <ele>881.391</ele>
        <time>2019-10-15T13:00:19Z</time>
      </trkpt>
      <trkpt lat="-22.029775" lon="-45.836178">
        <ele>881.710</ele>
        <time>2019-10-15T13:00:22Z</time>
      </trkpt>
      <trkpt lat="-22.029796" lon="-45.836132">
        <ele>881.985</ele>
        <time>2019-10-15T13:00:25Z</time>
      </trkpt>
      <trkpt lat="-22.029830" lon="-45.836085">
        <ele>881.989</ele>
        <time>2019-10-15T13:00:28Z</time>
      </trkpt>
      <trkpt lat="-22.029868" lon="-45.836038">
        <ele>882.117</ele>
        <time>2019-10-15T13:00:30Z</time>
      </trkpt>
      <trkpt lat="-22.029901" lon="-45.835985">
        <ele>882.308</ele>
        <time>2019-10-15T13:00:33Z</time>
      </trkpt>
      <trkpt lat="-22.029914" lon="-45.835932">
        <ele>882.842</ele>
        <time>2019-10-15T13:00:36Z</time>
      </trkpt>
      <trkpt lat="-22.029919" lon="-45.835864">
        <ele>882.470</ele>
        <time>2019-10-15T13:00:39Z</time>
      </trkpt>
      <trkpt lat="-22.029926" lon="-45.835786">
        <ele>883.223</ele>
        <time>2019-10-15T13:00:45Z</time>
      </trkpt>
      <trkpt lat="-22.029957" lon="-45.835747">
        <ele>883.538</ele>
        <time>2019-10-15T13:00:48Z</time>
      </trkpt>
      <trkpt lat="-22.029977" lon="-45.835699">
        <ele>884.268</ele>
        <time>2019-10-15T13:00:54Z</time>
      </trkpt>
      <trkpt lat="-22.029997" lon="-45.835633">
        <ele>884.688</ele>
        <time>2019-10-15T13:00:59Z</time>
      </trkpt>
      <trkpt lat="-22.030031" lon="-45.835586">
        <ele>884.773</ele>
        <time>2019-10-15T13:01:02Z</time>
      </trkpt>
      <trkpt lat="-22.030052" lon="-45.835539">
        <ele>884.852</ele>
        <time>2019-10-15T13:01:09Z</time>
      </trkpt>
      <trkpt lat="-22.030007" lon="-45.835546">
        <ele>884.678</ele>
        <time>2019-10-15T13:01:38Z</time>
      </trkpt>
      <trkpt lat="-22.029983" lon="-45.835499">
        <ele>884.633</ele>
        <time>2019-10-15T13:01:40Z</time>
      </trkpt>
      <trkpt lat="-22.029994" lon="-45.835444">
        <ele>884.926</ele>
        <time>2019-10-15T13:01:48Z</time>
      </trkpt>
      <trkpt lat="-22.030027" lon="-45.835396">
        <ele>885.208</ele>
        <time>2019-10-15T13:02:06Z</time>
      </trkpt>
      <trkpt lat="-22.030078" lon="-45.835409">
        <ele>885.241</ele>
        <time>2019-10-15T13:02:31Z</time>
      </trkpt>
      <trkpt lat="-22.030016" lon="-45.835421">
        <ele>885.119</ele>
        <time>2019-10-15T13:03:18Z</time>
      </trkpt>
      <trkpt lat="-22.030068" lon="-45.835439">
        <ele>885.032</ele>
        <time>2019-10-15T13:03:46Z</time>
      </trkpt>
      <trkpt lat="-22.030120" lon="-45.835402">
        <ele>884.977</ele>
        <time>2019-10-15T13:04:36Z</time>
      </trkpt>
      <trkpt lat="-22.030073" lon="-45.835416">
        <ele>885.237</ele>
        <time>2019-10-15T13:05:46Z</time>
      </trkpt>
      <trkpt lat="-22.030092" lon="-45.835368">
        <ele>885.877</ele>
        <time>2019-10-15T13:12:45Z</time>
      </trkpt>
      <trkpt lat="-22.030115" lon="-45.835321">
        <ele>885.962</ele>
        <time>2019-10-15T13:12:53Z</time>
      </trkpt>
      <trkpt lat="-22.030152" lon="-45.835276">
        <ele>885.851</ele>
        <time>2019-10-15T13:13:02Z</time>
      </trkpt>
      <trkpt lat="-22.030175" lon="-45.835226">
        <ele>886.141</ele>
        <time>2019-10-15T13:14:08Z</time>
      </trkpt>
      <trkpt lat="-22.030205" lon="-45.835188">
        <ele>887.081</ele>
        <time>2019-10-15T13:19:06Z</time>
      </trkpt>
      <trkpt lat="-22.030216" lon="-45.835134">
        <ele>888.209</ele>
        <time>2019-10-15T13:19:18Z</time>
      </trkpt>
      <trkpt lat="-22.030209" lon="-45.835083">
        <ele>888.508</ele>
        <time>2019-10-15T13:19:22Z</time>
      </trkpt>
      <trkpt lat="-22.030184" lon="-45.835042">
        <ele>889.128</ele>
        <time>2019-10-15T13:19:26Z</time>
      </trkpt>
      <trkpt lat="-22.030159" lon="-45.834986">
        <ele>889.696</ele>
        <time>2019-10-15T13:19:30Z</time>
      </trkpt>
      <trkpt lat="-22.030122" lon="-45.834956">
        <ele>890.159</ele>
        <time>2019-10-15T13:19:36Z</time>
      </trkpt>
      <trkpt lat="-22.030113" lon="-45.834904">
        <ele>890.454</ele>
        <time>2019-10-15T13:20:07Z</time>
      </trkpt>
      <trkpt lat="-22.030069" lon="-45.834924">
        <ele>889.974</ele>
        <time>2019-10-15T13:20:15Z</time>
      </trkpt>
      <trkpt lat="-22.030027" lon="-45.834896">
        <ele>891.134</ele>
        <time>2019-10-15T13:25:24Z</time>
      </trkpt>
      <trkpt lat="-22.029975" lon="-45.834862">
        <ele>891.359</ele>
        <time>2019-10-15T13:25:28Z</time>
      </trkpt>
      <trkpt lat="-22.029928" lon="-45.834808">
        <ele>891.038</ele>
        <time>2019-10-15T13:25:30Z</time>
      </trkpt>
      <trkpt lat="-22.029891" lon="-45.834774">
        <ele>890.919</ele>
        <time>2019-10-15T13:25:32Z</time>
      </trkpt>
      <trkpt lat="-22.029850" lon="-45.834741">
        <ele>890.609</ele>
        <time>2019-10-15T13:25:34Z</time>
      </trkpt>
      <trkpt lat="-22.029812" lon="-45.834706">
        <ele>890.019</ele>
        <time>2019-10-15T13:25:37Z</time>
      </trkpt>
      <trkpt lat="-22.029757" lon="-45.834675">
        <ele>889.208</ele>
        <time>2019-10-15T13:25:41Z</time>
      </trkpt>
      <trkpt lat="-22.029712" lon="-45.834651">
        <ele>888.855</ele>
        <time>2019-10-15T13:25:43Z</time>
      </trkpt>
      <trkpt lat="-22.029671" lon="-45.834690">
        <ele>888.613</ele>
        <time>2019-10-15T13:25:48Z</time>
      </trkpt>
      <trkpt lat="-22.029649" lon="-45.834733">
        <ele>887.816</ele>
        <time>2019-10-15T13:26:10Z</time>
      </trkpt>
      <trkpt lat="-22.029611" lon="-45.834784">
        <ele>886.721</ele>
        <time>2019-10-15T13:26:13Z</time>
      </trkpt>
      <trkpt lat="-22.029572" lon="-45.834844">
        <ele>885.691</ele>
        <time>2019-10-15T13:26:16Z</time>
      </trkpt>
      <trkpt lat="-22.029531" lon="-45.834891">
        <ele>884.381</ele>
        <time>2019-10-15T13:26:19Z</time>
      </trkpt>
      <trkpt lat="-22.029500" lon="-45.834935">
        <ele>883.256</ele>
        <time>2019-10-15T13:26:21Z</time>
      </trkpt>
      <trkpt lat="-22.029462" lon="-45.834989">
        <ele>882.155</ele>
        <time>2019-10-15T13:26:24Z</time>
      </trkpt>
      <trkpt lat="-22.029436" lon="-45.835038">
        <ele>881.373</ele>
        <time>2019-10-15T13:26:25Z</time>
      </trkpt>
      <trkpt lat="-22.029408" lon="-45.835089">
        <ele>880.485</ele>
        <time>2019-10-15T13:26:27Z</time>
      </trkpt>
      <trkpt lat="-22.029372" lon="-45.835142">
        <ele>879.013</ele>
        <time>2019-10-15T13:26:30Z</time>
      </trkpt>
      <trkpt lat="-22.029347" lon="-45.835186">
        <ele>878.008</ele>
        <time>2019-10-15T13:26:31Z</time>
      </trkpt>
      <trkpt lat="-22.029308" lon="-45.835233">
        <ele>876.951</ele>
        <time>2019-10-15T13:26:33Z</time>
      </trkpt>
      <trkpt lat="-22.029270" lon="-45.835264">
        <ele>876.229</ele>
        <time>2019-10-15T13:26:36Z</time>
      </trkpt>
      <trkpt lat="-22.029223" lon="-45.835286">
        <ele>875.492</ele>
        <time>2019-10-15T13:26:38Z</time>
      </trkpt>
      <trkpt lat="-22.029175" lon="-45.835235">
        <ele>875.187</ele>
        <time>2019-10-15T13:26:40Z</time>
      </trkpt>
      <trkpt lat="-22.029134" lon="-45.835156">
        <ele>874.737</ele>
        <time>2019-10-15T13:26:41Z</time>
      </trkpt>
      <trkpt lat="-22.029090" lon="-45.835090">
        <ele>874.947</ele>
        <time>2019-10-15T13:26:44Z</time>
      </trkpt>
      <trkpt lat="-22.029054" lon="-45.835038">
        <ele>874.812</ele>
        <time>2019-10-15T13:26:45Z</time>
      </trkpt>
      <trkpt lat="-22.029003" lon="-45.834977">
        <ele>874.711</ele>
        <time>2019-10-15T13:26:48Z</time>
      </trkpt>
      <trkpt lat="-22.028932" lon="-45.834892">
        <ele>874.046</ele>
        <time>2019-10-15T13:26:51Z</time>
      </trkpt>
      <trkpt lat="-22.028879" lon="-45.834820">
        <ele>874.188</ele>
        <time>2019-10-15T13:26:54Z</time>
      </trkpt>
      <trkpt lat="-22.028847" lon="-45.834785">
        <ele>873.816</ele>
        <time>2019-10-15T13:26:56Z</time>
      </trkpt>
      <trkpt lat="-22.028800" lon="-45.834738">
        <ele>873.708</ele>
        <time>2019-10-15T13:26:58Z</time>
      </trkpt>
      <trkpt lat="-22.028752" lon="-45.834694">
        <ele>873.798</ele>
        <time>2019-10-15T13:27:00Z</time>
      </trkpt>
      <trkpt lat="-22.028699" lon="-45.834658">
        <ele>873.476</ele>
        <time>2019-10-15T13:27:02Z</time>
      </trkpt>
      <trkpt lat="-22.028648" lon="-45.834627">
        <ele>873.369</ele>
        <time>2019-10-15T13:27:05Z</time>
      </trkpt>
      <trkpt lat="-22.028607" lon="-45.834602">
        <ele>872.494</ele>
        <time>2019-10-15T13:27:07Z</time>
      </trkpt>
      <trkpt lat="-22.028555" lon="-45.834579">
        <ele>871.974</ele>
        <time>2019-10-15T13:27:09Z</time>
      </trkpt>
      <trkpt lat="-22.028505" lon="-45.834554">
        <ele>871.014</ele>
        <time>2019-10-15T13:27:11Z</time>
      </trkpt>
      <trkpt lat="-22.028449" lon="-45.834494">
        <ele>869.979</ele>
        <time>2019-10-15T13:27:15Z</time>
      </trkpt>
      <trkpt lat="-22.028458" lon="-45.834437">
        <ele>869.868</ele>
        <time>2019-10-15T13:27:16Z</time>
      </trkpt>
      <trkpt lat="-22.028490" lon="-45.834355">
        <ele>870.127</ele>
        <time>2019-10-15T13:27:19Z</time>
      </trkpt>
      <trkpt lat="-22.028505" lon="-45.834305">
        <ele>870.568</ele>
        <time>2019-10-15T13:27:22Z</time>
      </trkpt>
      <trkpt lat="-22.028497" lon="-45.834366">
        <ele>870.514</ele>
        <time>2019-10-15T13:30:11Z</time>
      </trkpt>
      <trkpt lat="-22.028488" lon="-45.834427">
        <ele>870.308</ele>
        <time>2019-10-15T13:30:16Z</time>
      </trkpt>
      <trkpt lat="-22.028457" lon="-45.834469">
        <ele>869.946</ele>
        <time>2019-10-15T13:30:18Z</time>
      </trkpt>
      <trkpt lat="-22.028391" lon="-45.834477">
        <ele>869.514</ele>
        <time>2019-10-15T13:30:20Z</time>
      </trkpt>
      <trkpt lat="-22.028346" lon="-45.834456">
        <ele>868.957</ele>
        <time>2019-10-15T13:30:23Z</time>
      </trkpt>
      <trkpt lat="-22.028298" lon="-45.834433">
        <ele>868.232</ele>
        <time>2019-10-15T13:30:25Z</time>
      </trkpt>
      <trkpt lat="-22.028232" lon="-45.834399">
        <ele>867.212</ele>
        <time>2019-10-15T13:30:28Z</time>
      </trkpt>
      <trkpt lat="-22.028170" lon="-45.834359">
        <ele>866.492</ele>
        <time>2019-10-15T13:30:30Z</time>
      </trkpt>
      <trkpt lat="-22.028104" lon="-45.834323">
        <ele>865.897</ele>
        <time>2019-10-15T13:30:32Z</time>
      </trkpt>
      <trkpt lat="-22.028051" lon="-45.834296">
        <ele>865.086</ele>
        <time>2019-10-15T13:30:34Z</time>
      </trkpt>
      <trkpt lat="-22.027984" lon="-45.834259">
        <ele>863.475</ele>
        <time>2019-10-15T13:30:38Z</time>
      </trkpt>
      <trkpt lat="-22.027918" lon="-45.834237">
        <ele>862.628</ele>
        <time>2019-10-15T13:30:39Z</time>
      </trkpt>
      <trkpt lat="-22.027536" lon="-45.834144">
        <ele>855.620</ele>
        <time>2019-10-15T13:30:49Z</time>
      </trkpt>
      <trkpt lat="-22.027542" lon="-45.833648">
        <ele>851.808</ele>
        <time>2019-10-15T13:31:00Z</time>
      </trkpt>
      <trkpt lat="-22.027572" lon="-45.833611">
        <ele>851.511</ele>
        <time>2019-10-15T13:31:01Z</time>
      </trkpt>
      <trkpt lat="-22.027574" lon="-45.833562">
        <ele>851.549</ele>
        <time>2019-10-15T13:31:02Z</time>
      </trkpt>
      <trkpt lat="-22.027584" lon="-45.833455">
        <ele>851.732</ele>
        <time>2019-10-15T13:31:06Z</time>
      </trkpt>
      <trkpt lat="-22.027598" lon="-45.833400">
        <ele>851.897</ele>
        <time>2019-10-15T13:31:08Z</time>
      </trkpt>
      <trkpt lat="-22.027627" lon="-45.833261">
        <ele>850.057</ele>
        <time>2019-10-15T13:31:14Z</time>
      </trkpt>
      <trkpt lat="-22.028245" lon="-45.832185">
        <ele>847.517</ele>
        <time>2019-10-15T13:31:38Z</time>
      </trkpt>
      <trkpt lat="-22.028295" lon="-45.832125">
        <ele>847.542</ele>
        <time>2019-10-15T13:31:41Z</time>
      </trkpt>
      <trkpt lat="-22.028335" lon="-45.832070">
        <ele>847.961</ele>
        <time>2019-10-15T13:31:43Z</time>
      </trkpt>
      <trkpt lat="-22.028389" lon="-45.832009">
        <ele>848.569</ele>
        <time>2019-10-15T13:31:46Z</time>
      </trkpt>
      <trkpt lat="-22.028438" lon="-45.831956">
        <ele>848.704</ele>
        <time>2019-10-15T13:31:49Z</time>
      </trkpt>
      <trkpt lat="-22.028477" lon="-45.831925">
        <ele>848.824</ele>
        <time>2019-10-15T13:31:51Z</time>
      </trkpt>
      <trkpt lat="-22.028561" lon="-45.831867">
        <ele>848.808</ele>
        <time>2019-10-15T13:31:55Z</time>
      </trkpt>
      <trkpt lat="-22.028625" lon="-45.831812">
        <ele>848.560</ele>
        <time>2019-10-15T13:31:58Z</time>
      </trkpt>
      <trkpt lat="-22.028669" lon="-45.831765">
        <ele>848.258</ele>
        <time>2019-10-15T13:32:00Z</time>
      </trkpt>
      <trkpt lat="-22.028706" lon="-45.831735">
        <ele>848.491</ele>
        <time>2019-10-15T13:32:01Z</time>
      </trkpt>
      <trkpt lat="-22.028758" lon="-45.831695">
        <ele>848.426</ele>
        <time>2019-10-15T13:32:03Z</time>
      </trkpt>
      <trkpt lat="-22.028827" lon="-45.831633">
        <ele>848.266</ele>
        <time>2019-10-15T13:32:07Z</time>
      </trkpt>
      <trkpt lat="-22.028876" lon="-45.831597">
        <ele>848.456</ele>
        <time>2019-10-15T13:32:09Z</time>
      </trkpt>
      <trkpt lat="-22.028947" lon="-45.831541">
        <ele>848.311</ele>
        <time>2019-10-15T13:32:11Z</time>
      </trkpt>
      <trkpt lat="-22.029009" lon="-45.831499">
        <ele>848.270</ele>
        <time>2019-10-15T13:32:14Z</time>
      </trkpt>
      <trkpt lat="-22.029090" lon="-45.831446">
        <ele>848.591</ele>
        <time>2019-10-15T13:32:17Z</time>
      </trkpt>
      <trkpt lat="-22.029131" lon="-45.831421">
        <ele>848.681</ele>
        <time>2019-10-15T13:32:18Z</time>
      </trkpt>
      <trkpt lat="-22.029172" lon="-45.831399">
        <ele>848.819</ele>
        <time>2019-10-15T13:32:20Z</time>
      </trkpt>
      <trkpt lat="-22.029220" lon="-45.831379">
        <ele>848.608</ele>
        <time>2019-10-15T13:32:22Z</time>
      </trkpt>
      <trkpt lat="-22.029278" lon="-45.831335">
        <ele>848.613</ele>
        <time>2019-10-15T13:32:25Z</time>
      </trkpt>
      <trkpt lat="-22.029326" lon="-45.831309">
        <ele>848.751</ele>
        <time>2019-10-15T13:32:26Z</time>
      </trkpt>
      <trkpt lat="-22.029397" lon="-45.831285">
        <ele>848.714</ele>
        <time>2019-10-15T13:32:29Z</time>
      </trkpt>
      <trkpt lat="-22.029454" lon="-45.831264">
        <ele>848.869</ele>
        <time>2019-10-15T13:32:31Z</time>
      </trkpt>
      <trkpt lat="-22.029580" lon="-45.831227">
        <ele>849.139</ele>
        <time>2019-10-15T13:32:36Z</time>
      </trkpt>
      <trkpt lat="-22.029624" lon="-45.831212">
        <ele>849.339</ele>
        <time>2019-10-15T13:32:37Z</time>
      </trkpt>
      <trkpt lat="-22.029681" lon="-45.831196">
        <ele>848.974</ele>
        <time>2019-10-15T13:32:40Z</time>
      </trkpt>
      <trkpt lat="-22.029749" lon="-45.831176">
        <ele>848.933</ele>
        <time>2019-10-15T13:32:42Z</time>
      </trkpt>
      <trkpt lat="-22.029801" lon="-45.831161">
        <ele>849.316</ele>
        <time>2019-10-15T13:32:43Z</time>
      </trkpt>
      <trkpt lat="-22.029865" lon="-45.831142">
        <ele>849.276</ele>
        <time>2019-10-15T13:32:46Z</time>
      </trkpt>
      <trkpt lat="-22.029934" lon="-45.831117">
        <ele>848.913</ele>
        <time>2019-10-15T13:32:48Z</time>
      </trkpt>
      <trkpt lat="-22.029985" lon="-45.831098">
        <ele>848.908</ele>
        <time>2019-10-15T13:32:50Z</time>
      </trkpt>
      <trkpt lat="-22.030058" lon="-45.831078">
        <ele>849.145</ele>
        <time>2019-10-15T13:32:52Z</time>
      </trkpt>
      <trkpt lat="-22.030129" lon="-45.831056">
        <ele>849.143</ele>
        <time>2019-10-15T13:32:54Z</time>
      </trkpt>
      <trkpt lat="-22.030183" lon="-45.831038">
        <ele>848.516</ele>
        <time>2019-10-15T13:32:55Z</time>
      </trkpt>
      <trkpt lat="-22.030324" lon="-45.831001">
        <ele>848.811</ele>
        <time>2019-10-15T13:33:00Z</time>
      </trkpt>
      <trkpt lat="-22.030397" lon="-45.830983">
        <ele>848.991</ele>
        <time>2019-10-15T13:33:02Z</time>
      </trkpt>
      <trkpt lat="-22.030464" lon="-45.830968">
        <ele>848.891</ele>
        <time>2019-10-15T13:33:04Z</time>
      </trkpt>
      <trkpt lat="-22.030511" lon="-45.830952">
        <ele>848.846</ele>
        <time>2019-10-15T13:33:06Z</time>
      </trkpt>
      <trkpt lat="-22.030600" lon="-45.830911">
        <ele>848.515</ele>
        <time>2019-10-15T13:33:08Z</time>
      </trkpt>
      <trkpt lat="-22.030656" lon="-45.830880">
        <ele>848.391</ele>
        <time>2019-10-15T13:33:10Z</time>
      </trkpt>
      <trkpt lat="-22.030710" lon="-45.830847">
        <ele>848.581</ele>
        <time>2019-10-15T13:33:12Z</time>
      </trkpt>
      <trkpt lat="-22.030777" lon="-45.830827">
        <ele>848.619</ele>
        <time>2019-10-15T13:33:14Z</time>
      </trkpt>
      <trkpt lat="-22.030831" lon="-45.830802">
        <ele>848.508</ele>
        <time>2019-10-15T13:33:15Z</time>
      </trkpt>
      <trkpt lat="-22.030868" lon="-45.830745">
        <ele>848.343</ele>
        <time>2019-10-15T13:33:17Z</time>
      </trkpt>
      <trkpt lat="-22.030921" lon="-45.830711">
        <ele>848.341</ele>
        <time>2019-10-15T13:33:19Z</time>
      </trkpt>
      <trkpt lat="-22.030986" lon="-45.830663">
        <ele>848.724</ele>
        <time>2019-10-15T13:33:21Z</time>
      </trkpt>
      <trkpt lat="-22.031051" lon="-45.830621">
        <ele>848.779</ele>
        <time>2019-10-15T13:33:23Z</time>
      </trkpt>
      <trkpt lat="-22.031107" lon="-45.830574">
        <ele>848.589</ele>
        <time>2019-10-15T13:33:25Z</time>
      </trkpt>
      <trkpt lat="-22.031145" lon="-45.830546">
        <ele>848.849</ele>
        <time>2019-10-15T13:33:26Z</time>
      </trkpt>
      <trkpt lat="-22.031194" lon="-45.830504">
        <ele>849.274</ele>
        <time>2019-10-15T13:33:28Z</time>
      </trkpt>
      <trkpt lat="-22.031235" lon="-45.830468">
        <ele>849.713</ele>
        <time>2019-10-15T13:33:30Z</time>
      </trkpt>
      <trkpt lat="-22.031278" lon="-45.830429">
        <ele>849.586</ele>
        <time>2019-10-15T13:33:31Z</time>
      </trkpt>
      <trkpt lat="-22.031317" lon="-45.830388">
        <ele>849.360</ele>
        <time>2019-10-15T13:33:33Z</time>
      </trkpt>
      <trkpt lat="-22.031393" lon="-45.830286">
        <ele>849.626</ele>
        <time>2019-10-15T13:33:37Z</time>
      </trkpt>
      <trkpt lat="-22.031423" lon="-45.830235">
        <ele>849.808</ele>
        <time>2019-10-15T13:33:38Z</time>
      </trkpt>
      <trkpt lat="-22.031452" lon="-45.830170">
        <ele>850.192</ele>
        <time>2019-10-15T13:33:41Z</time>
      </trkpt>
      <trkpt lat="-22.031472" lon="-45.830103">
        <ele>850.150</ele>
        <time>2019-10-15T13:33:43Z</time>
      </trkpt>
      <trkpt lat="-22.031486" lon="-45.830036">
        <ele>850.353</ele>
        <time>2019-10-15T13:33:45Z</time>
      </trkpt>
      <trkpt lat="-22.031493" lon="-45.829983">
        <ele>851.198</ele>
        <time>2019-10-15T13:33:46Z</time>
      </trkpt>
      <trkpt lat="-22.031499" lon="-45.829887">
        <ele>851.068</ele>
        <time>2019-10-15T13:33:50Z</time>
      </trkpt>
      <trkpt lat="-22.031492" lon="-45.829811">
        <ele>851.028</ele>
        <time>2019-10-15T13:33:52Z</time>
      </trkpt>
      <trkpt lat="-22.031489" lon="-45.829753">
        <ele>851.223</ele>
        <time>2019-10-15T13:33:55Z</time>
      </trkpt>
      <trkpt lat="-22.031482" lon="-45.829694">
        <ele>851.422</ele>
        <time>2019-10-15T13:33:57Z</time>
      </trkpt>
      <trkpt lat="-22.031475" lon="-45.829635">
        <ele>852.164</ele>
        <time>2019-10-15T13:34:00Z</time>
      </trkpt>
      <trkpt lat="-22.031475" lon="-45.829582">
        <ele>852.706</ele>
        <time>2019-10-15T13:34:03Z</time>
      </trkpt>
      <trkpt lat="-22.031459" lon="-45.829501">
        <ele>853.316</ele>
        <time>2019-10-15T13:34:06Z</time>
      </trkpt>
      <trkpt lat="-22.031453" lon="-45.829432">
        <ele>853.708</ele>
        <time>2019-10-15T13:34:10Z</time>
      </trkpt>
      <trkpt lat="-22.031453" lon="-45.829373">
        <ele>854.480</ele>
        <time>2019-10-15T13:34:12Z</time>
      </trkpt>
      <trkpt lat="-22.031439" lon="-45.829313">
        <ele>855.188</ele>
        <time>2019-10-15T13:34:16Z</time>
      </trkpt>
      <trkpt lat="-22.031436" lon="-45.829258">
        <ele>855.511</ele>
        <time>2019-10-15T13:34:19Z</time>
      </trkpt>
      <trkpt lat="-22.031428" lon="-45.829169">
        <ele>856.276</ele>
        <time>2019-10-15T13:34:24Z</time>
      </trkpt>
      <trkpt lat="-22.031428" lon="-45.829113">
        <ele>856.466</ele>
        <time>2019-10-15T13:34:27Z</time>
      </trkpt>
      <trkpt lat="-22.031416" lon="-45.829061">
        <ele>857.276</ele>
        <time>2019-10-15T13:34:31Z</time>
      </trkpt>
      <trkpt lat="-22.031411" lon="-45.829002">
        <ele>858.081</ele>
        <time>2019-10-15T13:34:34Z</time>
      </trkpt>
      <trkpt lat="-22.031395" lon="-45.828950">
        <ele>858.420</ele>
        <time>2019-10-15T13:34:39Z</time>
      </trkpt>
      <trkpt lat="-22.031367" lon="-45.828892">
        <ele>859.596</ele>
        <time>2019-10-15T13:34:47Z</time>
      </trkpt>
      <trkpt lat="-22.031370" lon="-45.828820">
        <ele>859.631</ele>
        <time>2019-10-15T13:34:50Z</time>
      </trkpt>
      <trkpt lat="-22.031381" lon="-45.828759">
        <ele>859.924</ele>
        <time>2019-10-15T13:34:53Z</time>
      </trkpt>
      <trkpt lat="-22.031382" lon="-45.828707">
        <ele>860.408</ele>
        <time>2019-10-15T13:34:55Z</time>
      </trkpt>
      <trkpt lat="-22.031379" lon="-45.828654">
        <ele>860.663</ele>
        <time>2019-10-15T13:34:59Z</time>
      </trkpt>
      <trkpt lat="-22.031368" lon="-45.828605">
        <ele>861.351</ele>
        <time>2019-10-15T13:35:03Z</time>
      </trkpt>
      <trkpt lat="-22.031369" lon="-45.828549">
        <ele>861.814</ele>
        <time>2019-10-15T13:35:06Z</time>
      </trkpt>
      <trkpt lat="-22.031382" lon="-45.828497">
        <ele>862.239</ele>
        <time>2019-10-15T13:35:09Z</time>
      </trkpt>
      <trkpt lat="-22.031383" lon="-45.828445">
        <ele>862.869</ele>
        <time>2019-10-15T13:35:13Z</time>
      </trkpt>
      <trkpt lat="-22.031375" lon="-45.828385">
        <ele>863.299</ele>
        <time>2019-10-15T13:35:17Z</time>
      </trkpt>
      <trkpt lat="-22.031354" lon="-45.828330">
        <ele>864.144</ele>
        <time>2019-10-15T13:35:22Z</time>
      </trkpt>
      <trkpt lat="-22.031341" lon="-45.828270">
        <ele>864.853</ele>
        <time>2019-10-15T13:35:28Z</time>
      </trkpt>
      <trkpt lat="-22.031344" lon="-45.828219">
        <ele>865.097</ele>
        <time>2019-10-15T13:35:31Z</time>
      </trkpt>
      <trkpt lat="-22.031347" lon="-45.828168">
        <ele>865.923</ele>
        <time>2019-10-15T13:35:36Z</time>
      </trkpt>
      <trkpt lat="-22.031358" lon="-45.828106">
        <ele>866.325</ele>
        <time>2019-10-15T13:35:41Z</time>
      </trkpt>
      <trkpt lat="-22.031376" lon="-45.828052">
        <ele>867.008</ele>
        <time>2019-10-15T13:35:45Z</time>
      </trkpt>
      <trkpt lat="-22.031426" lon="-45.827962">
        <ele>867.313</ele>
        <time>2019-10-15T13:35:48Z</time>
      </trkpt>
      <trkpt lat="-22.031462" lon="-45.827905">
        <ele>867.591</ele>
        <time>2019-10-15T13:35:50Z</time>
      </trkpt>
      <trkpt lat="-22.031475" lon="-45.827854">
        <ele>868.134</ele>
        <time>2019-10-15T13:35:54Z</time>
      </trkpt>
      <trkpt lat="-22.031508" lon="-45.827812">
        <ele>868.379</ele>
        <time>2019-10-15T13:35:56Z</time>
      </trkpt>
      <trkpt lat="-22.031525" lon="-45.827764">
        <ele>868.739</ele>
        <time>2019-10-15T13:36:00Z</time>
      </trkpt>
      <trkpt lat="-22.031558" lon="-45.827689">
        <ele>869.469</ele>
        <time>2019-10-15T13:36:06Z</time>
      </trkpt>
      <trkpt lat="-22.031610" lon="-45.827641">
        <ele>869.484</ele>
        <time>2019-10-15T13:36:09Z</time>
      </trkpt>
      <trkpt lat="-22.031646" lon="-45.827604">
        <ele>870.413</ele>
        <time>2019-10-15T13:36:13Z</time>
      </trkpt>
      <trkpt lat="-22.031673" lon="-45.827561">
        <ele>871.152</ele>
        <time>2019-10-15T13:36:19Z</time>
      </trkpt>
      <trkpt lat="-22.031701" lon="-45.827520">
        <ele>871.553</ele>
        <time>2019-10-15T13:36:23Z</time>
      </trkpt>
      <trkpt lat="-22.031734" lon="-45.827487">
        <ele>872.408</ele>
        <time>2019-10-15T13:36:29Z</time>
      </trkpt>
      <trkpt lat="-22.031772" lon="-45.827460">
        <ele>872.908</ele>
        <time>2019-10-15T13:36:34Z</time>
      </trkpt>
      <trkpt lat="-22.031822" lon="-45.827436">
        <ele>873.429</ele>
        <time>2019-10-15T13:36:39Z</time>
      </trkpt>
      <trkpt lat="-22.031863" lon="-45.827409">
        <ele>873.687</ele>
        <time>2019-10-15T13:36:43Z</time>
      </trkpt>
      <trkpt lat="-22.031907" lon="-45.827393">
        <ele>874.320</ele>
        <time>2019-10-15T13:36:45Z</time>
      </trkpt>
      <trkpt lat="-22.032017" lon="-45.827373">
        <ele>874.955</ele>
        <time>2019-10-15T13:36:49Z</time>
      </trkpt>
      <trkpt lat="-22.032061" lon="-45.827346">
        <ele>875.565</ele>
        <time>2019-10-15T13:36:51Z</time>
      </trkpt>
      <trkpt lat="-22.032121" lon="-45.827307">
        <ele>875.935</ele>
        <time>2019-10-15T13:36:56Z</time>
      </trkpt>
      <trkpt lat="-22.032158" lon="-45.827271">
        <ele>876.510</ele>
        <time>2019-10-15T13:37:01Z</time>
      </trkpt>
      <trkpt lat="-22.032195" lon="-45.827227">
        <ele>877.129</ele>
        <time>2019-10-15T13:37:07Z</time>
      </trkpt>
      <trkpt lat="-22.032239" lon="-45.827187">
        <ele>877.531</ele>
        <time>2019-10-15T13:37:11Z</time>
      </trkpt>
      <trkpt lat="-22.032299" lon="-45.827174">
        <ele>877.761</ele>
        <time>2019-10-15T13:37:13Z</time>
      </trkpt>
      <trkpt lat="-22.032345" lon="-45.827147">
        <ele>878.207</ele>
        <time>2019-10-15T13:37:16Z</time>
      </trkpt>
      <trkpt lat="-22.032372" lon="-45.827107">
        <ele>878.808</ele>
        <time>2019-10-15T13:37:22Z</time>
      </trkpt>
      <trkpt lat="-22.032449" lon="-45.827073">
        <ele>879.687</ele>
        <time>2019-10-15T13:37:27Z</time>
      </trkpt>
      <trkpt lat="-22.032505" lon="-45.827029">
        <ele>879.935</ele>
        <time>2019-10-15T13:37:31Z</time>
      </trkpt>
      <trkpt lat="-22.032543" lon="-45.826999">
        <ele>880.338</ele>
        <time>2019-10-15T13:37:33Z</time>
      </trkpt>
      <trkpt lat="-22.032578" lon="-45.826953">
        <ele>880.943</ele>
        <time>2019-10-15T13:37:37Z</time>
      </trkpt>
      <trkpt lat="-22.032613" lon="-45.826914">
        <ele>881.553</ele>
        <time>2019-10-15T13:37:41Z</time>
      </trkpt>
      <trkpt lat="-22.032647" lon="-45.826874">
        <ele>881.793</ele>
        <time>2019-10-15T13:37:45Z</time>
      </trkpt>
      <trkpt lat="-22.032675" lon="-45.826816">
        <ele>882.128</ele>
        <time>2019-10-15T13:37:49Z</time>
      </trkpt>
      <trkpt lat="-22.032698" lon="-45.826770">
        <ele>882.677</ele>
        <time>2019-10-15T13:37:53Z</time>
      </trkpt>
      <trkpt lat="-22.032718" lon="-45.826723">
        <ele>883.181</ele>
        <time>2019-10-15T13:37:56Z</time>
      </trkpt>
      <trkpt lat="-22.032733" lon="-45.826658">
        <ele>883.861</ele>
        <time>2019-10-15T13:37:59Z</time>
      </trkpt>
      <trkpt lat="-22.032748" lon="-45.826609">
        <ele>884.317</ele>
        <time>2019-10-15T13:38:03Z</time>
      </trkpt>
      <trkpt lat="-22.032762" lon="-45.826558">
        <ele>884.808</ele>
        <time>2019-10-15T13:38:08Z</time>
      </trkpt>
      <trkpt lat="-22.032773" lon="-45.826496">
        <ele>885.272</ele>
        <time>2019-10-15T13:38:12Z</time>
      </trkpt>
      <trkpt lat="-22.032770" lon="-45.826437">
        <ele>885.920</ele>
        <time>2019-10-15T13:38:17Z</time>
      </trkpt>
      <trkpt lat="-22.032774" lon="-45.826380">
        <ele>886.673</ele>
        <time>2019-10-15T13:38:20Z</time>
      </trkpt>
      <trkpt lat="-22.032776" lon="-45.826328">
        <ele>887.228</ele>
        <time>2019-10-15T13:38:24Z</time>
      </trkpt>
      <trkpt lat="-22.032765" lon="-45.826274">
        <ele>888.148</ele>
        <time>2019-10-15T13:38:29Z</time>
      </trkpt>
      <trkpt lat="-22.032758" lon="-45.826210">
        <ele>888.718</ele>
        <time>2019-10-15T13:38:36Z</time>
      </trkpt>
      <trkpt lat="-22.032761" lon="-45.826154">
        <ele>889.343</ele>
        <time>2019-10-15T13:38:41Z</time>
      </trkpt>
      <trkpt lat="-22.032763" lon="-45.826101">
        <ele>889.652</ele>
        <time>2019-10-15T13:38:45Z</time>
      </trkpt>
      <trkpt lat="-22.032768" lon="-45.826039">
        <ele>890.126</ele>
        <time>2019-10-15T13:38:48Z</time>
      </trkpt>
      <trkpt lat="-22.032802" lon="-45.825975">
        <ele>890.447</ele>
        <time>2019-10-15T13:38:51Z</time>
      </trkpt>
      <trkpt lat="-22.032798" lon="-45.825912">
        <ele>891.111</ele>
        <time>2019-10-15T13:38:57Z</time>
      </trkpt>
      <trkpt lat="-22.032778" lon="-45.825867">
        <ele>891.908</ele>
        <time>2019-10-15T13:39:02Z</time>
      </trkpt>
      <trkpt lat="-22.032772" lon="-45.825808">
        <ele>892.596</ele>
        <time>2019-10-15T13:39:08Z</time>
      </trkpt>
      <trkpt lat="-22.032772" lon="-45.825738">
        <ele>893.634</ele>
        <time>2019-10-15T13:39:15Z</time>
      </trkpt>
      <trkpt lat="-22.032762" lon="-45.825688">
        <ele>894.327</ele>
        <time>2019-10-15T13:39:19Z</time>
      </trkpt>
      <trkpt lat="-22.032750" lon="-45.825639">
        <ele>895.152</ele>
        <time>2019-10-15T13:39:23Z</time>
      </trkpt>
      <trkpt lat="-22.032768" lon="-45.825593">
        <ele>894.952</ele>
        <time>2019-10-15T13:39:25Z</time>
      </trkpt>
      <trkpt lat="-22.032792" lon="-45.825537">
        <ele>895.372</ele>
        <time>2019-10-15T13:39:27Z</time>
      </trkpt>
      <trkpt lat="-22.032801" lon="-45.825487">
        <ele>896.187</ele>
        <time>2019-10-15T13:39:31Z</time>
      </trkpt>
      <trkpt lat="-22.032785" lon="-45.825440">
        <ele>897.176</ele>
        <time>2019-10-15T13:39:38Z</time>
      </trkpt>
      <trkpt lat="-22.032772" lon="-45.825390">
        <ele>897.534</ele>
        <time>2019-10-15T13:39:44Z</time>
      </trkpt>
      <trkpt lat="-22.032772" lon="-45.825330">
        <ele>898.055</ele>
        <time>2019-10-15T13:39:49Z</time>
      </trkpt>
      <trkpt lat="-22.032772" lon="-45.825274">
        <ele>898.910</ele>
        <time>2019-10-15T13:39:55Z</time>
      </trkpt>
      <trkpt lat="-22.032767" lon="-45.825217">
        <ele>899.608</ele>
        <time>2019-10-15T13:40:00Z</time>
      </trkpt>
      <trkpt lat="-22.032766" lon="-45.825145">
        <ele>900.237</ele>
        <time>2019-10-15T13:40:05Z</time>
      </trkpt>
      <trkpt lat="-22.032774" lon="-45.825095">
        <ele>900.945</ele>
        <time>2019-10-15T13:40:10Z</time>
      </trkpt>
      <trkpt lat="-22.032779" lon="-45.825045">
        <ele>901.698</ele>
        <time>2019-10-15T13:40:14Z</time>
      </trkpt>
      <trkpt lat="-22.032776" lon="-45.824991">
        <ele>902.293</ele>
        <time>2019-10-15T13:40:20Z</time>
      </trkpt>
      <trkpt lat="-22.032778" lon="-45.824934">
        <ele>902.893</ele>
        <time>2019-10-15T13:40:25Z</time>
      </trkpt>
      <trkpt lat="-22.032777" lon="-45.824878">
        <ele>903.363</ele>
        <time>2019-10-15T13:40:29Z</time>
      </trkpt>
      <trkpt lat="-22.032771" lon="-45.824807">
        <ele>904.438</ele>
        <time>2019-10-15T13:40:35Z</time>
      </trkpt>
      <trkpt lat="-22.032765" lon="-45.824754">
        <ele>905.147</ele>
        <time>2019-10-15T13:40:39Z</time>
      </trkpt>
      <trkpt lat="-22.032761" lon="-45.824689">
        <ele>906.253</ele>
        <time>2019-10-15T13:40:45Z</time>
      </trkpt>
      <trkpt lat="-22.032753" lon="-45.824628">
        <ele>906.704</ele>
        <time>2019-10-15T13:40:50Z</time>
      </trkpt>
      <trkpt lat="-22.032747" lon="-45.824574">
        <ele>907.214</ele>
        <time>2019-10-15T13:40:54Z</time>
      </trkpt>
      <trkpt lat="-22.032745" lon="-45.824524">
        <ele>908.208</ele>
        <time>2019-10-15T13:40:59Z</time>
      </trkpt>
      <trkpt lat="-22.032755" lon="-45.824465">
        <ele>909.069</ele>
        <time>2019-10-15T13:41:04Z</time>
      </trkpt>
      <trkpt lat="-22.032768" lon="-45.824410">
        <ele>909.117</ele>
        <time>2019-10-15T13:41:06Z</time>
      </trkpt>
      <trkpt lat="-22.032785" lon="-45.824354">
        <ele>909.940</ele>
        <time>2019-10-15T13:41:09Z</time>
      </trkpt>
      <trkpt lat="-22.032754" lon="-45.824293">
        <ele>911.055</ele>
        <time>2019-10-15T13:41:20Z</time>
      </trkpt>
      <trkpt lat="-22.032737" lon="-45.824246">
        <ele>911.915</ele>
        <time>2019-10-15T13:41:30Z</time>
      </trkpt>
      <trkpt lat="-22.032725" lon="-45.824188">
        <ele>912.955</ele>
        <time>2019-10-15T13:41:38Z</time>
      </trkpt>
      <trkpt lat="-22.032717" lon="-45.824132">
        <ele>913.070</ele>
        <time>2019-10-15T13:41:43Z</time>
      </trkpt>
      <trkpt lat="-22.032721" lon="-45.824058">
        <ele>913.549</ele>
        <time>2019-10-15T13:41:50Z</time>
      </trkpt>
      <trkpt lat="-22.032697" lon="-45.824005">
        <ele>914.551</ele>
        <time>2019-10-15T13:41:56Z</time>
      </trkpt>
      <trkpt lat="-22.032680" lon="-45.823946">
        <ele>914.801</ele>
        <time>2019-10-15T13:42:00Z</time>
      </trkpt>
      <trkpt lat="-22.032673" lon="-45.823890">
        <ele>915.311</ele>
        <time>2019-10-15T13:42:05Z</time>
      </trkpt>
      <trkpt lat="-22.032667" lon="-45.823840">
        <ele>915.508</ele>
        <time>2019-10-15T13:42:07Z</time>
      </trkpt>
      <trkpt lat="-22.032668" lon="-45.823786">
        <ele>916.139</ele>
        <time>2019-10-15T13:42:11Z</time>
      </trkpt>
      <trkpt lat="-22.032662" lon="-45.823723">
        <ele>916.727</ele>
        <time>2019-10-15T13:42:17Z</time>
      </trkpt>
      <trkpt lat="-22.032657" lon="-45.823664">
        <ele>917.480</ele>
        <time>2019-10-15T13:42:21Z</time>
      </trkpt>
      <trkpt lat="-22.032657" lon="-45.823605">
        <ele>917.975</ele>
        <time>2019-10-15T13:42:25Z</time>
      </trkpt>
      <trkpt lat="-22.032654" lon="-45.823548">
        <ele>918.155</ele>
        <time>2019-10-15T13:42:30Z</time>
      </trkpt>
      <trkpt lat="-22.032650" lon="-45.823498">
        <ele>918.175</ele>
        <time>2019-10-15T13:42:33Z</time>
      </trkpt>
      <trkpt lat="-22.032650" lon="-45.823446">
        <ele>918.680</ele>
        <time>2019-10-15T13:42:37Z</time>
      </trkpt>
      <trkpt lat="-22.032648" lon="-45.823383">
        <ele>919.029</ele>
        <time>2019-10-15T13:42:42Z</time>
      </trkpt>
      <trkpt lat="-22.032663" lon="-45.823336">
        <ele>919.363</ele>
        <time>2019-10-15T13:42:45Z</time>
      </trkpt>
      <trkpt lat="-22.032674" lon="-45.823272">
        <ele>919.944</ele>
        <time>2019-10-15T13:42:49Z</time>
      </trkpt>
      <trkpt lat="-22.032707" lon="-45.823215">
        <ele>920.118</ele>
        <time>2019-10-15T13:42:50Z</time>
      </trkpt>
      <trkpt lat="-22.032731" lon="-45.823138">
        <ele>920.408</ele>
        <time>2019-10-15T13:42:54Z</time>
      </trkpt>
      <trkpt lat="-22.032745" lon="-45.823090">
        <ele>920.760</ele>
        <time>2019-10-15T13:42:57Z</time>
      </trkpt>
      <trkpt lat="-22.032768" lon="-45.823047">
        <ele>921.018</ele>
        <time>2019-10-15T13:43:00Z</time>
      </trkpt>
      <trkpt lat="-22.032808" lon="-45.822997">
        <ele>920.911</ele>
        <time>2019-10-15T13:43:03Z</time>
      </trkpt>
      <trkpt lat="-22.032839" lon="-45.822959">
        <ele>921.046</ele>
        <time>2019-10-15T13:43:06Z</time>
      </trkpt>
      <trkpt lat="-22.032875" lon="-45.822930">
        <ele>921.136</ele>
        <time>2019-10-15T13:43:08Z</time>
      </trkpt>
      <trkpt lat="-22.032918" lon="-45.822906">
        <ele>920.916</ele>
        <time>2019-10-15T13:43:10Z</time>
      </trkpt>
      <trkpt lat="-22.032971" lon="-45.822885">
        <ele>920.611</ele>
        <time>2019-10-15T13:43:12Z</time>
      </trkpt>
      <trkpt lat="-22.033035" lon="-45.822871">
        <ele>920.430</ele>
        <time>2019-10-15T13:43:15Z</time>
      </trkpt>
      <trkpt lat="-22.033109" lon="-45.822861">
        <ele>920.187</ele>
        <time>2019-10-15T13:43:18Z</time>
      </trkpt>
      <trkpt lat="-22.033172" lon="-45.822865">
        <ele>920.042</ele>
        <time>2019-10-15T13:43:20Z</time>
      </trkpt>
      <trkpt lat="-22.033242" lon="-45.822863">
        <ele>919.626</ele>
        <time>2019-10-15T13:43:22Z</time>
      </trkpt>
      <trkpt lat="-22.033296" lon="-45.822859">
        <ele>919.808</ele>
        <time>2019-10-15T13:43:24Z</time>
      </trkpt>
      <trkpt lat="-22.033347" lon="-45.822858">
        <ele>919.712</ele>
        <time>2019-10-15T13:43:27Z</time>
      </trkpt>
      <trkpt lat="-22.033400" lon="-45.822866">
        <ele>919.760</ele>
        <time>2019-10-15T13:43:28Z</time>
      </trkpt>
      <trkpt lat="-22.033454" lon="-45.822873">
        <ele>919.823</ele>
        <time>2019-10-15T13:43:31Z</time>
      </trkpt>
      <trkpt lat="-22.033526" lon="-45.822880">
        <ele>919.358</ele>
        <time>2019-10-15T13:43:34Z</time>
      </trkpt>
      <trkpt lat="-22.033625" lon="-45.822896">
        <ele>919.448</ele>
        <time>2019-10-15T13:43:38Z</time>
      </trkpt>
      <trkpt lat="-22.033681" lon="-45.822904">
        <ele>919.638</ele>
        <time>2019-10-15T13:43:40Z</time>
      </trkpt>
      <trkpt lat="-22.033728" lon="-45.822918">
        <ele>919.473</ele>
        <time>2019-10-15T13:43:42Z</time>
      </trkpt>
      <trkpt lat="-22.033785" lon="-45.822934">
        <ele>919.572</ele>
        <time>2019-10-15T13:43:44Z</time>
      </trkpt>
      <trkpt lat="-22.033844" lon="-45.822951">
        <ele>919.197</ele>
        <time>2019-10-15T13:43:47Z</time>
      </trkpt>
      <trkpt lat="-22.033912" lon="-45.822970">
        <ele>919.223</ele>
        <time>2019-10-15T13:43:50Z</time>
      </trkpt>
      <trkpt lat="-22.033963" lon="-45.822987">
        <ele>919.125</ele>
        <time>2019-10-15T13:43:52Z</time>
      </trkpt>
      <trkpt lat="-22.034029" lon="-45.823009">
        <ele>918.908</ele>
        <time>2019-10-15T13:43:54Z</time>
      </trkpt>
      <trkpt lat="-22.034097" lon="-45.823028">
        <ele>918.843</ele>
        <time>2019-10-15T13:43:57Z</time>
      </trkpt>
      <trkpt lat="-22.034172" lon="-45.823058">
        <ele>918.311</ele>
        <time>2019-10-15T13:44:00Z</time>
      </trkpt>
      <trkpt lat="-22.034216" lon="-45.823070">
        <ele>918.134</ele>
        <time>2019-10-15T13:44:02Z</time>
      </trkpt>
      <trkpt lat="-22.034281" lon="-45.823095">
        <ele>918.079</ele>
        <time>2019-10-15T13:44:04Z</time>
      </trkpt>
      <trkpt lat="-22.034328" lon="-45.823122">
        <ele>917.819</ele>
        <time>2019-10-15T13:44:06Z</time>
      </trkpt>
      <trkpt lat="-22.034392" lon="-45.823161">
        <ele>917.799</ele>
        <time>2019-10-15T13:44:08Z</time>
      </trkpt>
      <trkpt lat="-22.034485" lon="-45.823198">
        <ele>917.144</ele>
        <time>2019-10-15T13:44:11Z</time>
      </trkpt>
      <trkpt lat="-22.034529" lon="-45.823210">
        <ele>917.023</ele>
        <time>2019-10-15T13:44:12Z</time>
      </trkpt>
      <trkpt lat="-22.034578" lon="-45.823212">
        <ele>916.458</ele>
        <time>2019-10-15T13:44:14Z</time>
      </trkpt>
      <trkpt lat="-22.034648" lon="-45.823194">
        <ele>915.952</ele>
        <time>2019-10-15T13:44:16Z</time>
      </trkpt>
      <trkpt lat="-22.034698" lon="-45.823177">
        <ele>915.317</ele>
        <time>2019-10-15T13:44:17Z</time>
      </trkpt>
      <trkpt lat="-22.031966" lon="-45.813048">
        <ele>854.308</ele>
        <time>2019-10-15T13:46:51Z</time>
      </trkpt>
      <trkpt lat="-22.031954" lon="-45.812995">
        <ele>853.769</ele>
        <time>2019-10-15T13:46:53Z</time>
      </trkpt>
      <trkpt lat="-22.031941" lon="-45.812936">
        <ele>853.427</ele>
        <time>2019-10-15T13:46:54Z</time>
      </trkpt>
      <trkpt lat="-22.031745" lon="-45.812514">
        <ele>852.680</ele>
        <time>2019-10-15T13:47:05Z</time>
      </trkpt>
      <trkpt lat="-22.031701" lon="-45.812461">
        <ele>852.755</ele>
        <time>2019-10-15T13:47:07Z</time>
      </trkpt>
      <trkpt lat="-22.031658" lon="-45.812412">
        <ele>853.375</ele>
        <time>2019-10-15T13:47:09Z</time>
      </trkpt>
      <trkpt lat="-22.031597" lon="-45.812344">
        <ele>853.215</ele>
        <time>2019-10-15T13:47:11Z</time>
      </trkpt>
      <trkpt lat="-22.031553" lon="-45.812302">
        <ele>853.060</ele>
        <time>2019-10-15T13:47:13Z</time>
      </trkpt>
      <trkpt lat="-22.031495" lon="-45.812243">
        <ele>853.139</ele>
        <time>2019-10-15T13:47:15Z</time>
      </trkpt>
      <trkpt lat="-22.031429" lon="-45.812186">
        <ele>853.677</ele>
        <time>2019-10-15T13:47:17Z</time>
      </trkpt>
      <trkpt lat="-22.031388" lon="-45.812145">
        <ele>853.761</ele>
        <time>2019-10-15T13:47:20Z</time>
      </trkpt>
      <trkpt lat="-22.031354" lon="-45.812096">
        <ele>853.927</ele>
        <time>2019-10-15T13:47:23Z</time>
      </trkpt>
      <trkpt lat="-22.031310" lon="-45.812044">
        <ele>854.008</ele>
        <time>2019-10-15T13:47:26Z</time>
      </trkpt>
      <trkpt lat="-22.031265" lon="-45.811992">
        <ele>854.361</ele>
        <time>2019-10-15T13:47:29Z</time>
      </trkpt>
      <trkpt lat="-22.031214" lon="-45.811924">
        <ele>854.599</ele>
        <time>2019-10-15T13:47:32Z</time>
      </trkpt>
      <trkpt lat="-22.031179" lon="-45.811866">
        <ele>854.592</ele>
        <time>2019-10-15T13:47:35Z</time>
      </trkpt>
      <trkpt lat="-22.031153" lon="-45.811819">
        <ele>855.027</ele>
        <time>2019-10-15T13:47:37Z</time>
      </trkpt>
      <trkpt lat="-22.031140" lon="-45.811766">
        <ele>855.167</ele>
        <time>2019-10-15T13:47:40Z</time>
      </trkpt>
      <trkpt lat="-22.031120" lon="-45.811706">
        <ele>854.957</ele>
        <time>2019-10-15T13:47:43Z</time>
      </trkpt>
      <trkpt lat="-22.031123" lon="-45.811654">
        <ele>854.672</ele>
        <time>2019-10-15T13:47:44Z</time>
      </trkpt>
      <trkpt lat="-22.031131" lon="-45.811606">
        <ele>854.591</ele>
        <time>2019-10-15T13:47:46Z</time>
      </trkpt>
      <trkpt lat="-22.031131" lon="-45.811606">
        <ele>854.547</ele>
        <time>2019-10-15T13:47:46Z</time>
      </trkpt>
      <trkpt lat="-22.031136" lon="-45.811557">
        <ele>854.429</ele>
        <time>2019-10-15T13:47:48Z</time>
      </trkpt>
      <trkpt lat="-22.031142" lon="-45.811496">
        <ele>854.221</ele>
        <time>2019-10-15T13:47:49Z</time>
      </trkpt>
      <trkpt lat="-22.031294" lon="-45.811134">
        <ele>851.708</ele>
        <time>2019-10-15T13:47:58Z</time>
      </trkpt>
      <trkpt lat="-22.031318" lon="-45.811080">
        <ele>851.818</ele>
        <time>2019-10-15T13:48:00Z</time>
      </trkpt>
      <trkpt lat="-22.031365" lon="-45.811039">
        <ele>851.796</ele>
        <time>2019-10-15T13:48:02Z</time>
      </trkpt>
      <trkpt lat="-22.031394" lon="-45.810973">
        <ele>851.089</ele>
        <time>2019-10-15T13:49:16Z</time>
      </trkpt>
      <trkpt lat="-22.031413" lon="-45.810929">
        <ele>850.454</ele>
        <time>2019-10-15T13:49:18Z</time>
      </trkpt>
      <trkpt lat="-22.031447" lon="-45.810860">
        <ele>849.684</ele>
        <time>2019-10-15T13:49:20Z</time>
      </trkpt>
      <trkpt lat="-22.035451" lon="-45.808690">
        <ele>832.044</ele>
        <time>2019-10-15T13:45:43Z</time>
      </trkpt>
      <trkpt lat="-22.035510" lon="-45.808674">
        <ele>832.139</ele>
        <time>2019-10-15T13:45:44Z</time>
      </trkpt>
      <trkpt lat="-22.035565" lon="-45.808657">
        <ele>832.728</ele>
        <time>2019-10-15T13:45:45Z</time>
      </trkpt>
      <trkpt lat="-22.035623" lon="-45.808636">
        <ele>833.148</ele>
        <time>2019-10-15T13:45:46Z</time>
      </trkpt>
      <trkpt lat="-22.035678" lon="-45.808608">
        <ele>833.061</ele>
        <time>2019-10-15T13:45:47Z</time>
      </trkpt>
      <trkpt lat="-22.035731" lon="-45.808585">
        <ele>832.617</ele>
        <time>2019-10-15T13:45:48Z</time>
      </trkpt>
      <trkpt lat="-22.035786" lon="-45.808566">
        <ele>832.708</ele>
        <time>2019-10-15T13:45:49Z</time>
      </trkpt>
      <trkpt lat="-22.035840" lon="-45.808554">
        <ele>832.668</ele>
        <time>2019-10-15T13:45:50Z</time>
      </trkpt>
      <trkpt lat="-22.035892" lon="-45.808542">
        <ele>832.566</ele>
        <time>2019-10-15T13:45:51Z</time>
      </trkpt>
      <trkpt lat="-22.035942" lon="-45.808531">
        <ele>832.179</ele>
        <time>2019-10-15T13:45:52Z</time>
      </trkpt>
      <trkpt lat="-22.035987" lon="-45.808514">
        <ele>831.744</ele>
        <time>2019-10-15T13:45:53Z</time>
      </trkpt>
      <trkpt lat="-22.036032" lon="-45.808492">
        <ele>831.884</ele>
        <time>2019-10-15T13:45:54Z</time>
      </trkpt>
      <trkpt lat="-22.036074" lon="-45.808471">
        <ele>832.094</ele>
        <time>2019-10-15T13:45:55Z</time>
      </trkpt>
      <trkpt lat="-22.036155" lon="-45.808434">
        <ele>832.669</ele>
        <time>2019-10-15T13:45:57Z</time>
      </trkpt>
      <trkpt lat="-22.036228" lon="-45.808402">
        <ele>833.028</ele>
        <time>2019-10-15T13:45:59Z</time>
      </trkpt>
      <trkpt lat="-22.036293" lon="-45.808367">
        <ele>833.463</ele>
        <time>2019-10-15T13:46:01Z</time>
      </trkpt>
      <trkpt lat="-22.036349" lon="-45.808336">
        <ele>833.644</ele>
        <time>2019-10-15T13:46:03Z</time>
      </trkpt>
      <trkpt lat="-22.036396" lon="-45.808318">
        <ele>833.618</ele>
        <time>2019-10-15T13:46:05Z</time>
      </trkpt>
      <trkpt lat="-22.036441" lon="-45.808297">
        <ele>833.908</ele>
        <time>2019-10-15T13:51:01Z</time>
      </trkpt>
      <trkpt lat="-22.036487" lon="-45.808266">
        <ele>834.150</ele>
        <time>2019-10-15T13:51:03Z</time>
      </trkpt>
      <trkpt lat="-22.036535" lon="-45.808233">
        <ele>834.438</ele>
        <time>2019-10-15T13:51:05Z</time>
      </trkpt>
      <trkpt lat="-22.036593" lon="-45.808209">
        <ele>834.761</ele>
        <time>2019-10-15T13:51:07Z</time>
      </trkpt>
      <trkpt lat="-22.036637" lon="-45.808183">
        <ele>834.586</ele>
        <time>2019-10-15T13:51:09Z</time>
      </trkpt>
      <trkpt lat="-22.036686" lon="-45.808151">
        <ele>834.756</ele>
        <time>2019-10-15T13:51:11Z</time>
      </trkpt>
      <trkpt lat="-22.036747" lon="-45.808113">
        <ele>834.826</ele>
        <time>2019-10-15T13:51:14Z</time>
      </trkpt>
      <trkpt lat="-22.036796" lon="-45.808083">
        <ele>835.121</ele>
        <time>2019-10-15T13:51:16Z</time>
      </trkpt>
      <trkpt lat="-22.036855" lon="-45.808049">
        <ele>835.360</ele>
        <time>2019-10-15T13:51:19Z</time>
      </trkpt>
      <trkpt lat="-22.036906" lon="-45.808015">
        <ele>835.584</ele>
        <time>2019-10-15T13:51:21Z</time>
      </trkpt>
      <trkpt lat="-22.036944" lon="-45.807989">
        <ele>835.707</ele>
        <time>2019-10-15T13:51:23Z</time>
      </trkpt>
      <trkpt lat="-22.036993" lon="-45.807960">
        <ele>835.717</ele>
        <time>2019-10-15T13:51:25Z</time>
      </trkpt>
      <trkpt lat="-22.037071" lon="-45.807926">
        <ele>836.308</ele>
        <time>2019-10-15T13:51:28Z</time>
      </trkpt>
      <trkpt lat="-22.037125" lon="-45.807903">
        <ele>836.032</ele>
        <time>2019-10-15T13:51:30Z</time>
      </trkpt>
      <trkpt lat="-22.037169" lon="-45.807878">
        <ele>836.310</ele>
        <time>2019-10-15T13:51:32Z</time>
      </trkpt>
      <trkpt lat="-22.037242" lon="-45.807836">
        <ele>836.663</ele>
        <time>2019-10-15T13:51:35Z</time>
      </trkpt>
      <trkpt lat="-22.037299" lon="-45.807816">
        <ele>836.798</ele>
        <time>2019-10-15T13:51:37Z</time>
      </trkpt>
      <trkpt lat="-22.037359" lon="-45.807791">
        <ele>836.938</ele>
        <time>2019-10-15T13:51:39Z</time>
      </trkpt>
      <trkpt lat="-22.037402" lon="-45.807773">
        <ele>837.268</ele>
        <time>2019-10-15T13:51:40Z</time>
      </trkpt>
      <trkpt lat="-22.037469" lon="-45.807752">
        <ele>837.313</ele>
        <time>2019-10-15T13:51:43Z</time>
      </trkpt>
      <trkpt lat="-22.037517" lon="-45.807738">
        <ele>837.362</ele>
        <time>2019-10-15T13:51:45Z</time>
      </trkpt>
      <trkpt lat="-22.037563" lon="-45.807724">
        <ele>837.429</ele>
        <time>2019-10-15T13:51:46Z</time>
      </trkpt>
      <trkpt lat="-22.037634" lon="-45.807700">
        <ele>837.400</ele>
        <time>2019-10-15T13:51:49Z</time>
      </trkpt>
      <trkpt lat="-22.037684" lon="-45.807685">
        <ele>837.520</ele>
        <time>2019-10-15T13:51:50Z</time>
      </trkpt>
      <trkpt lat="-22.037747" lon="-45.807667">
        <ele>837.608</ele>
        <time>2019-10-15T13:51:53Z</time>
      </trkpt>
      <trkpt lat="-22.037803" lon="-45.807645">
        <ele>837.496</ele>
        <time>2019-10-15T13:51:55Z</time>
      </trkpt>
      <trkpt lat="-22.037864" lon="-45.807610">
        <ele>837.444</ele>
        <time>2019-10-15T13:51:57Z</time>
      </trkpt>
      <trkpt lat="-22.037919" lon="-45.807574">
        <ele>837.427</ele>
        <time>2019-10-15T13:51:59Z</time>
      </trkpt>
      <trkpt lat="-22.037959" lon="-45.807548">
        <ele>837.472</ele>
        <time>2019-10-15T13:52:01Z</time>
      </trkpt>
      <trkpt lat="-22.038011" lon="-45.807510">
        <ele>837.852</ele>
        <time>2019-10-15T13:52:03Z</time>
      </trkpt>
      <trkpt lat="-22.038051" lon="-45.807479">
        <ele>838.082</ele>
        <time>2019-10-15T13:52:05Z</time>
      </trkpt>
      <trkpt lat="-22.038092" lon="-45.807436">
        <ele>838.387</ele>
        <time>2019-10-15T13:52:06Z</time>
      </trkpt>
      <trkpt lat="-22.038126" lon="-45.807401">
        <ele>838.756</ele>
        <time>2019-10-15T13:52:09Z</time>
      </trkpt>
      <trkpt lat="-22.038168" lon="-45.807357">
        <ele>839.094</ele>
        <time>2019-10-15T13:52:11Z</time>
      </trkpt>
      <trkpt lat="-22.038197" lon="-45.807314">
        <ele>839.857</ele>
        <time>2019-10-15T13:52:15Z</time>
      </trkpt>
      <trkpt lat="-22.038214" lon="-45.807266">
        <ele>839.922</ele>
        <time>2019-10-15T13:52:17Z</time>
      </trkpt>
      <trkpt lat="-22.038241" lon="-45.807220">
        <ele>840.508</ele>
        <time>2019-10-15T13:52:21Z</time>
      </trkpt>
      <trkpt lat="-22.038261" lon="-45.807163">
        <ele>841.013</ele>
        <time>2019-10-15T13:52:24Z</time>
      </trkpt>
      <trkpt lat="-22.038282" lon="-45.807110">
        <ele>841.591</ele>
        <time>2019-10-15T13:52:28Z</time>
      </trkpt>
      <trkpt lat="-22.038297" lon="-45.807058">
        <ele>842.314</ele>
        <time>2019-10-15T13:52:33Z</time>
      </trkpt>
      <trkpt lat="-22.038303" lon="-45.807002">
        <ele>843.019</ele>
        <time>2019-10-15T13:52:38Z</time>
      </trkpt>
      <trkpt lat="-22.038304" lon="-45.806948">
        <ele>843.869</ele>
        <time>2019-10-15T13:52:45Z</time>
      </trkpt>
      <trkpt lat="-22.038308" lon="-45.806899">
        <ele>844.529</ele>
        <time>2019-10-15T13:52:50Z</time>
      </trkpt>
      <trkpt lat="-22.038331" lon="-45.806856">
        <ele>844.934</ele>
        <time>2019-10-15T13:52:55Z</time>
      </trkpt>
      <trkpt lat="-22.038342" lon="-45.806806">
        <ele>845.783</ele>
        <time>2019-10-15T13:52:59Z</time>
      </trkpt>
      <trkpt lat="-22.038348" lon="-45.806752">
        <ele>845.849</ele>
        <time>2019-10-15T13:53:05Z</time>
      </trkpt>
      <trkpt lat="-22.038389" lon="-45.806689">
        <ele>846.602</ele>
        <time>2019-10-15T13:53:11Z</time>
      </trkpt>
      <trkpt lat="-22.038409" lon="-45.806639">
        <ele>847.422</ele>
        <time>2019-10-15T13:53:17Z</time>
      </trkpt>
      <trkpt lat="-22.038433" lon="-45.806597">
        <ele>847.608</ele>
        <time>2019-10-15T13:53:20Z</time>
      </trkpt>
      <trkpt lat="-22.038452" lon="-45.806545">
        <ele>847.928</ele>
        <time>2019-10-15T13:53:25Z</time>
      </trkpt>
      <trkpt lat="-22.038468" lon="-45.806491">
        <ele>848.426</ele>
        <time>2019-10-15T13:53:30Z</time>
      </trkpt>
      <trkpt lat="-22.038493" lon="-45.806444">
        <ele>848.889</ele>
        <time>2019-10-15T13:53:33Z</time>
      </trkpt>
      <trkpt lat="-22.038514" lon="-45.806389">
        <ele>849.634</ele>
        <time>2019-10-15T13:53:38Z</time>
      </trkpt>
      <trkpt lat="-22.038528" lon="-45.806336">
        <ele>850.244</ele>
        <time>2019-10-15T13:53:43Z</time>
      </trkpt>
      <trkpt lat="-22.038556" lon="-45.806298">
        <ele>850.964</ele>
        <time>2019-10-15T13:53:49Z</time>
      </trkpt>
      <trkpt lat="-22.038584" lon="-45.806251">
        <ele>851.269</ele>
        <time>2019-10-15T13:53:53Z</time>
      </trkpt>
      <trkpt lat="-22.038614" lon="-45.806207">
        <ele>851.648</ele>
        <time>2019-10-15T13:53:56Z</time>
      </trkpt>
      <trkpt lat="-22.038629" lon="-45.806157">
        <ele>852.612</ele>
        <time>2019-10-15T13:54:02Z</time>
      </trkpt>
      <trkpt lat="-22.038673" lon="-45.806108">
        <ele>852.932</ele>
        <time>2019-10-15T13:54:07Z</time>
      </trkpt>
      <trkpt lat="-22.038693" lon="-45.806063">
        <ele>853.205</ele>
        <time>2019-10-15T13:54:13Z</time>
      </trkpt>
      <trkpt lat="-22.038707" lon="-45.806004">
        <ele>854.208</ele>
        <time>2019-10-15T13:54:18Z</time>
      </trkpt>
      <trkpt lat="-22.038723" lon="-45.805956">
        <ele>854.725</ele>
        <time>2019-10-15T13:54:24Z</time>
      </trkpt>
      <trkpt lat="-22.038748" lon="-45.805912">
        <ele>855.573</ele>
        <time>2019-10-15T13:54:28Z</time>
      </trkpt>
      <trkpt lat="-22.038775" lon="-45.805870">
        <ele>855.716</ele>
        <time>2019-10-15T13:54:34Z</time>
      </trkpt>
      <trkpt lat="-22.038791" lon="-45.805809">
        <ele>857.381</ele>
        <time>2019-10-15T13:54:42Z</time>
      </trkpt>
      <trkpt lat="-22.038819" lon="-45.805770">
        <ele>857.971</ele>
        <time>2019-10-15T13:54:47Z</time>
      </trkpt>
      <trkpt lat="-22.038844" lon="-45.805723">
        <ele>858.731</ele>
        <time>2019-10-15T13:54:51Z</time>
      </trkpt>
      <trkpt lat="-22.038862" lon="-45.805662">
        <ele>859.516</ele>
        <time>2019-10-15T13:54:56Z</time>
      </trkpt>
      <trkpt lat="-22.038884" lon="-45.805611">
        <ele>860.535</ele>
        <time>2019-10-15T13:55:03Z</time>
      </trkpt>
      <trkpt lat="-22.038931" lon="-45.805564">
        <ele>861.717</ele>
        <time>2019-10-15T13:55:10Z</time>
      </trkpt>
      <trkpt lat="-22.038962" lon="-45.805517">
        <ele>862.687</ele>
        <time>2019-10-15T13:55:16Z</time>
      </trkpt>
      <trkpt lat="-22.039012" lon="-45.805438">
        <ele>863.815</ele>
        <time>2019-10-15T13:55:25Z</time>
      </trkpt>
      <trkpt lat="-22.039029" lon="-45.805387">
        <ele>864.508</ele>
        <time>2019-10-15T13:55:31Z</time>
      </trkpt>
      <trkpt lat="-22.039054" lon="-45.805338">
        <ele>865.245</ele>
        <time>2019-10-15T13:55:34Z</time>
      </trkpt>
      <trkpt lat="-22.039062" lon="-45.805290">
        <ele>866.013</ele>
        <time>2019-10-15T13:55:40Z</time>
      </trkpt>
      <trkpt lat="-22.039081" lon="-45.805245">
        <ele>866.656</ele>
        <time>2019-10-15T13:55:45Z</time>
      </trkpt>
      <trkpt lat="-22.039094" lon="-45.805172">
        <ele>867.941</ele>
        <time>2019-10-15T13:55:54Z</time>
      </trkpt>
      <trkpt lat="-22.039114" lon="-45.805123">
        <ele>868.831</ele>
        <time>2019-10-15T13:56:00Z</time>
      </trkpt>
      <trkpt lat="-22.039139" lon="-45.805076">
        <ele>869.321</ele>
        <time>2019-10-15T13:56:05Z</time>
      </trkpt>
      <trkpt lat="-22.039162" lon="-45.805031">
        <ele>870.326</ele>
        <time>2019-10-15T13:56:09Z</time>
      </trkpt>
      <trkpt lat="-22.039198" lon="-45.804979">
        <ele>870.875</ele>
        <time>2019-10-15T13:56:15Z</time>
      </trkpt>
      <trkpt lat="-22.039215" lon="-45.804927">
        <ele>871.791</ele>
        <time>2019-10-15T13:56:20Z</time>
      </trkpt>
      <trkpt lat="-22.039238" lon="-45.804878">
        <ele>872.481</ele>
        <time>2019-10-15T13:56:25Z</time>
      </trkpt>
      <trkpt lat="-22.039257" lon="-45.804831">
        <ele>873.219</ele>
        <time>2019-10-15T13:56:30Z</time>
      </trkpt>
      <trkpt lat="-22.039282" lon="-45.804776">
        <ele>873.808</ele>
        <time>2019-10-15T13:56:36Z</time>
      </trkpt>
      <trkpt lat="-22.039302" lon="-45.804729">
        <ele>874.773</ele>
        <time>2019-10-15T13:56:40Z</time>
      </trkpt>
      <trkpt lat="-22.039333" lon="-45.804675">
        <ele>875.651</ele>
        <time>2019-10-15T13:56:46Z</time>
      </trkpt>
      <trkpt lat="-22.039359" lon="-45.804635">
        <ele>876.014</ele>
        <time>2019-10-15T13:56:51Z</time>
      </trkpt>
      <trkpt lat="-22.039375" lon="-45.804585">
        <ele>876.659</ele>
        <time>2019-10-15T13:56:56Z</time>
      </trkpt>
      <trkpt lat="-22.039395" lon="-45.804535">
        <ele>877.159</ele>
        <time>2019-10-15T13:57:00Z</time>
      </trkpt>
      <trkpt lat="-22.039415" lon="-45.804488">
        <ele>877.799</ele>
        <time>2019-10-15T13:57:04Z</time>
      </trkpt>
      <trkpt lat="-22.039442" lon="-45.804443">
        <ele>878.694</ele>
        <time>2019-10-15T13:57:09Z</time>
      </trkpt>
      <trkpt lat="-22.039501" lon="-45.804386">
        <ele>879.143</ele>
        <time>2019-10-15T13:57:13Z</time>
      </trkpt>
      <trkpt lat="-22.039545" lon="-45.804337">
        <ele>879.871</ele>
        <time>2019-10-15T13:57:16Z</time>
      </trkpt>
      <trkpt lat="-22.039568" lon="-45.804289">
        <ele>881.041</ele>
        <time>2019-10-15T13:57:18Z</time>
      </trkpt>
      <trkpt lat="-22.039590" lon="-45.804231">
        <ele>881.915</ele>
        <time>2019-10-15T13:57:23Z</time>
      </trkpt>
      <trkpt lat="-22.039603" lon="-45.804176">
        <ele>882.608</ele>
        <time>2019-10-15T13:57:28Z</time>
      </trkpt>
      <trkpt lat="-22.039624" lon="-45.804127">
        <ele>883.251</ele>
        <time>2019-10-15T13:57:31Z</time>
      </trkpt>
      <trkpt lat="-22.039657" lon="-45.804071">
        <ele>883.969</ele>
        <time>2019-10-15T13:57:35Z</time>
      </trkpt>
      <trkpt lat="-22.039658" lon="-45.804018">
        <ele>884.922</ele>
        <time>2019-10-15T13:57:41Z</time>
      </trkpt>
      <trkpt lat="-22.039658" lon="-45.803967">
        <ele>885.917</ele>
        <time>2019-10-15T13:57:49Z</time>
      </trkpt>
      <trkpt lat="-22.039661" lon="-45.803910">
        <ele>886.487</ele>
        <time>2019-10-15T13:57:54Z</time>
      </trkpt>
      <trkpt lat="-22.039670" lon="-45.803859">
        <ele>887.187</ele>
        <time>2019-10-15T13:57:59Z</time>
      </trkpt>
      <trkpt lat="-22.039688" lon="-45.803814">
        <ele>887.492</ele>
        <time>2019-10-15T13:58:03Z</time>
      </trkpt>
      <trkpt lat="-22.039709" lon="-45.803751">
        <ele>888.011</ele>
        <time>2019-10-15T13:58:08Z</time>
      </trkpt>
      <trkpt lat="-22.039757" lon="-45.803718">
        <ele>888.112</ele>
        <time>2019-10-15T13:58:09Z</time>
      </trkpt>
      <trkpt lat="-22.039789" lon="-45.803681">
        <ele>888.532</ele>
        <time>2019-10-15T13:58:11Z</time>
      </trkpt>
      <trkpt lat="-22.039785" lon="-45.803618">
        <ele>889.405</ele>
        <time>2019-10-15T13:58:16Z</time>
      </trkpt>
      <trkpt lat="-22.039772" lon="-45.803562">
        <ele>890.208</ele>
        <time>2019-10-15T13:58:22Z</time>
      </trkpt>
      <trkpt lat="-22.039774" lon="-45.803513">
        <ele>890.855</ele>
        <time>2019-10-15T13:58:26Z</time>
      </trkpt>
      <trkpt lat="-22.039770" lon="-45.803464">
        <ele>891.243</ele>
        <time>2019-10-15T13:58:31Z</time>
      </trkpt>
      <trkpt lat="-22.039785" lon="-45.803414">
        <ele>891.456</ele>
        <time>2019-10-15T13:58:34Z</time>
      </trkpt>
      <trkpt lat="-22.039806" lon="-45.803363">
        <ele>891.961</ele>
        <time>2019-10-15T13:58:39Z</time>
      </trkpt>
      <trkpt lat="-22.039854" lon="-45.803312">
        <ele>892.181</ele>
        <time>2019-10-15T13:58:40Z</time>
      </trkpt>
      <trkpt lat="-22.039856" lon="-45.803263">
        <ele>892.311</ele>
        <time>2019-10-15T13:58:44Z</time>
      </trkpt>
      <trkpt lat="-22.039837" lon="-45.803210">
        <ele>892.666</ele>
        <time>2019-10-15T13:58:50Z</time>
      </trkpt>
      <trkpt lat="-22.039816" lon="-45.803161">
        <ele>893.345</ele>
        <time>2019-10-15T13:58:56Z</time>
      </trkpt>
      <trkpt lat="-22.039838" lon="-45.803102">
        <ele>893.857</ele>
        <time>2019-10-15T13:58:58Z</time>
      </trkpt>
      <trkpt lat="-22.039846" lon="-45.803049">
        <ele>894.100</ele>
        <time>2019-10-15T13:59:00Z</time>
      </trkpt>
      <trkpt lat="-22.039831" lon="-45.803001">
        <ele>894.620</ele>
        <time>2019-10-15T13:59:04Z</time>
      </trkpt>
      <trkpt lat="-22.039858" lon="-45.802946">
        <ele>894.908</ele>
        <time>2019-10-15T13:59:08Z</time>
      </trkpt>
      <trkpt lat="-22.039868" lon="-45.802894">
        <ele>895.179</ele>
        <time>2019-10-15T13:59:11Z</time>
      </trkpt>
      <trkpt lat="-22.039887" lon="-45.802838">
        <ele>895.157</ele>
        <time>2019-10-15T13:59:14Z</time>
      </trkpt>
      <trkpt lat="-22.039895" lon="-45.802788">
        <ele>895.520</ele>
        <time>2019-10-15T13:59:17Z</time>
      </trkpt>
      <trkpt lat="-22.039891" lon="-45.802732">
        <ele>896.265</ele>
        <time>2019-10-15T13:59:22Z</time>
      </trkpt>
      <trkpt lat="-22.039885" lon="-45.802683">
        <ele>896.925</ele>
        <time>2019-10-15T13:59:26Z</time>
      </trkpt>
      <trkpt lat="-22.039885" lon="-45.802629">
        <ele>897.415</ele>
        <time>2019-10-15T13:59:32Z</time>
      </trkpt>
      <trkpt lat="-22.039887" lon="-45.802580">
        <ele>898.250</ele>
        <time>2019-10-15T13:59:36Z</time>
      </trkpt>
      <trkpt lat="-22.039893" lon="-45.802529">
        <ele>898.969</ele>
        <time>2019-10-15T13:59:40Z</time>
      </trkpt>
      <trkpt lat="-22.039915" lon="-45.802474">
        <ele>899.729</ele>
        <time>2019-10-15T13:59:45Z</time>
      </trkpt>
      <trkpt lat="-22.039942" lon="-45.802428">
        <ele>900.000</ele>
        <time>2019-10-15T13:59:49Z</time>
      </trkpt>
      <trkpt lat="-22.039965" lon="-45.802381">
        <ele>900.920</ele>
        <time>2019-10-15T13:59:53Z</time>
      </trkpt>
      <trkpt lat="-22.039985" lon="-45.802337">
        <ele>901.608</ele>
        <time>2019-10-15T13:59:58Z</time>
      </trkpt>
      <trkpt lat="-22.040008" lon="-45.802294">
        <ele>902.226</ele>
        <time>2019-10-15T14:00:02Z</time>
      </trkpt>
      <trkpt lat="-22.040028" lon="-45.802250">
        <ele>902.834</ele>
        <time>2019-10-15T14:00:08Z</time>
      </trkpt>
      <trkpt lat="-22.040029" lon="-45.802189">
        <ele>904.227</ele>
        <time>2019-10-15T14:00:16Z</time>
      </trkpt>
      <trkpt lat="-22.040043" lon="-45.802141">
        <ele>905.192</ele>
        <time>2019-10-15T14:00:21Z</time>
      </trkpt>
      <trkpt lat="-22.040053" lon="-45.802073">
        <ele>906.032</ele>
        <time>2019-10-15T14:00:28Z</time>
      </trkpt>
      <trkpt lat="-22.040054" lon="-45.802014">
        <ele>907.282</ele>
        <time>2019-10-15T14:00:33Z</time>
      </trkpt>
      <trkpt lat="-22.040045" lon="-45.801962">
        <ele>908.227</ele>
        <time>2019-10-15T14:00:38Z</time>
      </trkpt>
      <trkpt lat="-22.040047" lon="-45.801904">
        <ele>908.916</ele>
        <time>2019-10-15T14:00:43Z</time>
      </trkpt>
      <trkpt lat="-22.040065" lon="-45.801851">
        <ele>909.866</ele>
        <time>2019-10-15T14:00:48Z</time>
      </trkpt>
      <trkpt lat="-22.040078" lon="-45.801790">
        <ele>910.629</ele>
        <time>2019-10-15T14:00:55Z</time>
      </trkpt>
      <trkpt lat="-22.040102" lon="-45.801736">
        <ele>911.421</ele>
        <time>2019-10-15T14:01:00Z</time>
      </trkpt>
      <trkpt lat="-22.040106" lon="-45.801686">
        <ele>912.008</ele>
        <time>2019-10-15T14:01:05Z</time>
      </trkpt>
      <trkpt lat="-22.040107" lon="-45.801630">
        <ele>912.660</ele>
        <time>2019-10-15T14:01:10Z</time>
      </trkpt>
      <trkpt lat="-22.040118" lon="-45.801567">
        <ele>914.198</ele>
        <time>2019-10-15T14:01:19Z</time>
      </trkpt>
      <trkpt lat="-22.040113" lon="-45.801508">
        <ele>914.931</ele>
        <time>2019-10-15T14:01:25Z</time>
      </trkpt>
      <trkpt lat="-22.040123" lon="-45.801446">
        <ele>915.876</ele>
        <time>2019-10-15T14:01:30Z</time>
      </trkpt>
      <trkpt lat="-22.040143" lon="-45.801398">
        <ele>916.716</ele>
        <time>2019-10-15T14:01:35Z</time>
      </trkpt>
      <trkpt lat="-22.040150" lon="-45.801350">
        <ele>917.576</ele>
        <time>2019-10-15T14:01:40Z</time>
      </trkpt>
      <trkpt lat="-22.040151" lon="-45.801295">
        <ele>918.371</ele>
        <time>2019-10-15T14:01:45Z</time>
      </trkpt>
      <trkpt lat="-22.040148" lon="-45.801230">
        <ele>918.840</ele>
        <time>2019-10-15T14:01:51Z</time>
      </trkpt>
      <trkpt lat="-22.040155" lon="-45.801159">
        <ele>920.187</ele>
        <time>2019-10-15T14:01:57Z</time>
      </trkpt>
      <trkpt lat="-22.040174" lon="-45.801101">
        <ele>921.042</ele>
        <time>2019-10-15T14:02:03Z</time>
      </trkpt>
      <trkpt lat="-22.040187" lon="-45.801050">
        <ele>922.626</ele>
        <time>2019-10-15T14:02:10Z</time>
      </trkpt>
      <trkpt lat="-22.040199" lon="-45.800993">
        <ele>923.308</ele>
        <time>2019-10-15T14:02:16Z</time>
      </trkpt>
      <trkpt lat="-22.040215" lon="-45.800942">
        <ele>923.352</ele>
        <time>2019-10-15T14:02:20Z</time>
      </trkpt>
      <trkpt lat="-22.040267" lon="-45.800896">
        <ele>924.080</ele>
        <time>2019-10-15T14:02:27Z</time>
      </trkpt>
      <trkpt lat="-22.040327" lon="-45.800854">
        <ele>924.273</ele>
        <time>2019-10-15T14:02:28Z</time>
      </trkpt>
      <trkpt lat="-22.040373" lon="-45.800823">
        <ele>924.618</ele>
        <time>2019-10-15T14:02:31Z</time>
      </trkpt>
      <trkpt lat="-22.040423" lon="-45.800787">
        <ele>925.488</ele>
        <time>2019-10-15T14:02:35Z</time>
      </trkpt>
      <trkpt lat="-22.040459" lon="-45.800757">
        <ele>926.198</ele>
        <time>2019-10-15T14:02:39Z</time>
      </trkpt>
      <trkpt lat="-22.040505" lon="-45.800728">
        <ele>926.693</ele>
        <time>2019-10-15T14:02:42Z</time>
      </trkpt>
      <trkpt lat="-22.040545" lon="-45.800687">
        <ele>927.072</ele>
        <time>2019-10-15T14:02:48Z</time>
      </trkpt>
      <trkpt lat="-22.040568" lon="-45.800644">
        <ele>927.766</ele>
        <time>2019-10-15T14:02:53Z</time>
      </trkpt>
      <trkpt lat="-22.040588" lon="-45.800596">
        <ele>928.429</ele>
        <time>2019-10-15T14:02:59Z</time>
      </trkpt>
      <trkpt lat="-22.040622" lon="-45.800564">
        <ele>929.121</ele>
        <time>2019-10-15T14:03:03Z</time>
      </trkpt>
      <trkpt lat="-22.040686" lon="-45.800545">
        <ele>929.108</ele>
        <time>2019-10-15T14:03:05Z</time>
      </trkpt>
      <trkpt lat="-22.040736" lon="-45.800527">
        <ele>929.610</ele>
        <time>2019-10-15T14:03:07Z</time>
      </trkpt>
      <trkpt lat="-22.040780" lon="-45.800501">
        <ele>930.088</ele>
        <time>2019-10-15T14:03:11Z</time>
      </trkpt>
      <trkpt lat="-22.040811" lon="-45.800462">
        <ele>930.751</ele>
        <time>2019-10-15T14:03:16Z</time>
      </trkpt>
      <trkpt lat="-22.040855" lon="-45.800446">
        <ele>931.156</ele>
        <time>2019-10-15T14:03:18Z</time>
      </trkpt>
      <trkpt lat="-22.040901" lon="-45.800423">
        <ele>931.196</ele>
        <time>2019-10-15T14:03:21Z</time>
      </trkpt>
      <trkpt lat="-22.040937" lon="-45.800382">
        <ele>932.086</ele>
        <time>2019-10-15T14:03:26Z</time>
      </trkpt>
      <trkpt lat="-22.040961" lon="-45.800331">
        <ele>933.291</ele>
        <time>2019-10-15T14:03:31Z</time>
      </trkpt>
      <trkpt lat="-22.041023" lon="-45.800308">
        <ele>933.430</ele>
        <time>2019-10-15T14:03:35Z</time>
      </trkpt>
      <trkpt lat="-22.041071" lon="-45.800303">
        <ele>933.826</ele>
        <time>2019-10-15T14:03:38Z</time>
      </trkpt>
      <trkpt lat="-22.041119" lon="-45.800265">
        <ele>934.647</ele>
        <time>2019-10-15T14:03:41Z</time>
      </trkpt>
      <trkpt lat="-22.041162" lon="-45.800237">
        <ele>934.711</ele>
        <time>2019-10-15T14:03:45Z</time>
      </trkpt>
      <trkpt lat="-22.041195" lon="-45.800203">
        <ele>935.008</ele>
        <time>2019-10-15T14:03:49Z</time>
      </trkpt>
      <trkpt lat="-22.041220" lon="-45.800155">
        <ele>935.676</ele>
        <time>2019-10-15T14:03:55Z</time>
      </trkpt>
      <trkpt lat="-22.041267" lon="-45.800146">
        <ele>935.934</ele>
        <time>2019-10-15T14:03:57Z</time>
      </trkpt>
      <trkpt lat="-22.041314" lon="-45.800118">
        <ele>936.467</ele>
        <time>2019-10-15T14:04:01Z</time>
      </trkpt>
      <trkpt lat="-22.041362" lon="-45.800101">
        <ele>937.182</ele>
        <time>2019-10-15T14:04:04Z</time>
      </trkpt>
      <trkpt lat="-22.041401" lon="-45.800075">
        <ele>936.992</ele>
        <time>2019-10-15T14:04:07Z</time>
      </trkpt>
      <trkpt lat="-22.041451" lon="-45.800042">
        <ele>937.562</ele>
        <time>2019-10-15T14:04:10Z</time>
      </trkpt>
      <trkpt lat="-22.041494" lon="-45.800021">
        <ele>937.617</ele>
        <time>2019-10-15T14:04:12Z</time>
      </trkpt>
      <trkpt lat="-22.041546" lon="-45.799986">
        <ele>937.676</ele>
        <time>2019-10-15T14:04:14Z</time>
      </trkpt>
      <trkpt lat="-22.041583" lon="-45.799958">
        <ele>937.648</ele>
        <time>2019-10-15T14:04:17Z</time>
      </trkpt>
      <trkpt lat="-22.041627" lon="-45.799924">
        <ele>938.161</ele>
        <time>2019-10-15T14:04:19Z</time>
      </trkpt>
      <trkpt lat="-22.041673" lon="-45.799884">
        <ele>938.617</ele>
        <time>2019-10-15T14:04:22Z</time>
      </trkpt>
      <trkpt lat="-22.041712" lon="-45.799852">
        <ele>939.008</ele>
        <time>2019-10-15T14:04:24Z</time>
      </trkpt>
      <trkpt lat="-22.041759" lon="-45.799817">
        <ele>939.158</ele>
        <time>2019-10-15T14:04:26Z</time>
      </trkpt>
      <trkpt lat="-22.041798" lon="-45.799782">
        <ele>940.086</ele>
        <time>2019-10-15T14:04:28Z</time>
      </trkpt>
      <trkpt lat="-22.041836" lon="-45.799745">
        <ele>940.759</ele>
        <time>2019-10-15T14:04:31Z</time>
      </trkpt>
      <trkpt lat="-22.041873" lon="-45.799710">
        <ele>940.964</ele>
        <time>2019-10-15T14:04:33Z</time>
      </trkpt>
      <trkpt lat="-22.041913" lon="-45.799668">
        <ele>940.774</ele>
        <time>2019-10-15T14:04:34Z</time>
      </trkpt>
      <trkpt lat="-22.041947" lon="-45.799631">
        <ele>942.284</ele>
        <time>2019-10-15T14:04:37Z</time>
      </trkpt>
      <trkpt lat="-22.042007" lon="-45.799572">
        <ele>942.789</ele>
        <time>2019-10-15T14:04:39Z</time>
      </trkpt>
      <trkpt lat="-22.042050" lon="-45.799520">
        <ele>943.768</ele>
        <time>2019-10-15T14:04:42Z</time>
      </trkpt>
      <trkpt lat="-22.042078" lon="-45.799477">
        <ele>944.592</ele>
        <time>2019-10-15T14:04:44Z</time>
      </trkpt>
      <trkpt lat="-22.042112" lon="-45.799445">
        <ele>945.373</ele>
        <time>2019-10-15T14:04:48Z</time>
      </trkpt>
      <trkpt lat="-22.042147" lon="-45.799401">
        <ele>945.620</ele>
        <time>2019-10-15T14:04:51Z</time>
      </trkpt>
      <trkpt lat="-22.042181" lon="-45.799348">
        <ele>946.008</ele>
        <time>2019-10-15T14:04:55Z</time>
      </trkpt>
      <trkpt lat="-22.042215" lon="-45.799299">
        <ele>947.293</ele>
        <time>2019-10-15T14:04:58Z</time>
      </trkpt>
      <trkpt lat="-22.042249" lon="-45.799238">
        <ele>947.971</ele>
        <time>2019-10-15T14:05:03Z</time>
      </trkpt>
      <trkpt lat="-22.042274" lon="-45.799194">
        <ele>948.654</ele>
        <time>2019-10-15T14:05:06Z</time>
      </trkpt>
      <trkpt lat="-22.042299" lon="-45.799148">
        <ele>949.189</ele>
        <time>2019-10-15T14:05:10Z</time>
      </trkpt>
      <trkpt lat="-22.042319" lon="-45.799097">
        <ele>949.589</ele>
        <time>2019-10-15T14:05:14Z</time>
      </trkpt>
      <trkpt lat="-22.042337" lon="-45.799045">
        <ele>949.949</ele>
        <time>2019-10-15T14:05:18Z</time>
      </trkpt>
      <trkpt lat="-22.042356" lon="-45.798962">
        <ele>949.984</ele>
        <time>2019-10-15T14:05:21Z</time>
      </trkpt>
      <trkpt lat="-22.042359" lon="-45.798898">
        <ele>949.933</ele>
        <time>2019-10-15T14:05:23Z</time>
      </trkpt>
      <trkpt lat="-22.042363" lon="-45.798844">
        <ele>949.362</ele>
        <time>2019-10-15T14:05:25Z</time>
      </trkpt>
      <trkpt lat="-22.042263" lon="-45.797661">
        <ele>949.183</ele>
        <time>2019-10-15T14:05:50Z</time>
      </trkpt>
      <trkpt lat="-22.042274" lon="-45.797575">
        <ele>949.311</ele>
        <time>2019-10-15T14:05:53Z</time>
      </trkpt>
      <trkpt lat="-22.042272" lon="-45.797512">
        <ele>949.208</ele>
        <time>2019-10-15T14:05:55Z</time>
      </trkpt>
      <trkpt lat="-22.042272" lon="-45.797442">
        <ele>949.550</ele>
        <time>2019-10-15T14:05:58Z</time>
      </trkpt>
      <trkpt lat="-22.042273" lon="-45.797368">
        <ele>949.818</ele>
        <time>2019-10-15T14:06:01Z</time>
      </trkpt>
      <trkpt lat="-22.042265" lon="-45.797310">
        <ele>949.761</ele>
        <time>2019-10-15T14:06:03Z</time>
      </trkpt>
      <trkpt lat="-22.042264" lon="-45.797256">
        <ele>949.726</ele>
        <time>2019-10-15T14:06:05Z</time>
      </trkpt>
      <trkpt lat="-22.042258" lon="-45.797206">
        <ele>949.666</ele>
        <time>2019-10-15T14:06:07Z</time>
      </trkpt>
      <trkpt lat="-22.042253" lon="-45.797156">
        <ele>949.776</ele>
        <time>2019-10-15T14:06:09Z</time>
      </trkpt>
      <trkpt lat="-22.042253" lon="-45.797062">
        <ele>949.411</ele>
        <time>2019-10-15T14:06:12Z</time>
      </trkpt>
      <trkpt lat="-22.042256" lon="-45.796997">
        <ele>949.220</ele>
        <time>2019-10-15T14:06:14Z</time>
      </trkpt>
      <trkpt lat="-22.042257" lon="-45.796941">
        <ele>949.058</ele>
        <time>2019-10-15T14:06:15Z</time>
      </trkpt>
      <trkpt lat="-22.042254" lon="-45.796864">
        <ele>948.752</ele>
        <time>2019-10-15T14:06:18Z</time>
      </trkpt>
      <trkpt lat="-22.042255" lon="-45.796802">
        <ele>948.617</ele>
        <time>2019-10-15T14:06:19Z</time>
      </trkpt>
      <trkpt lat="-22.042287" lon="-45.796469">
        <ele>946.308</ele>
        <time>2019-10-15T14:06:27Z</time>
      </trkpt>
      <trkpt lat="-22.039859" lon="-45.781893">
        <ele>834.869</ele>
        <time>2019-10-15T14:09:30Z</time>
      </trkpt>
      <trkpt lat="-22.039805" lon="-45.781851">
        <ele>834.467</ele>
        <time>2019-10-15T14:09:32Z</time>
      </trkpt>
      <trkpt lat="-22.039746" lon="-45.781801">
        <ele>834.430</ele>
        <time>2019-10-15T14:09:34Z</time>
      </trkpt>
      <trkpt lat="-22.039120" lon="-45.781021">
        <ele>833.055</ele>
        <time>2019-10-15T14:09:56Z</time>
      </trkpt>
      <trkpt lat="-22.039092" lon="-45.780968">
        <ele>832.765</ele>
        <time>2019-10-15T14:09:58Z</time>
      </trkpt>
      <trkpt lat="-22.039070" lon="-45.780913">
        <ele>833.065</ele>
        <time>2019-10-15T14:09:59Z</time>
      </trkpt>
      <trkpt lat="-22.039047" lon="-45.780875">
        <ele>833.370</ele>
        <time>2019-10-15T14:05:09Z</time>
      </trkpt>
      <trkpt lat="-22.039020" lon="-45.780832">
        <ele>833.669</ele>
        <time>2019-10-15T14:05:11Z</time>
      </trkpt>
      <trkpt lat="-22.038997" lon="-45.780784">
        <ele>833.874</ele>
        <time>2019-10-15T14:10:05Z</time>
      </trkpt>
      <trkpt lat="-22.038971" lon="-45.780727">
        <ele>834.256</ele>
        <time>2019-10-15T14:10:07Z</time>
      </trkpt>
      <trkpt lat="-22.038944" lon="-45.780685">
        <ele>834.521</ele>
        <time>2019-10-15T14:10:09Z</time>
      </trkpt>
      <trkpt lat="-22.038911" lon="-45.780632">
        <ele>835.108</ele>
        <time>2019-10-15T14:10:12Z</time>
      </trkpt>
      <trkpt lat="-22.038883" lon="-45.780585">
        <ele>835.381</ele>
        <time>2019-10-15T14:10:15Z</time>
      </trkpt>
      <trkpt lat="-22.038853" lon="-45.780540">
        <ele>835.499</ele>
        <time>2019-10-15T14:10:17Z</time>
      </trkpt>
      <trkpt lat="-22.038825" lon="-45.780494">
        <ele>835.942</ele>
        <time>2019-10-15T14:10:20Z</time>
      </trkpt>
      <trkpt lat="-22.038796" lon="-45.780435">
        <ele>836.577</ele>
        <time>2019-10-15T14:10:23Z</time>
      </trkpt>
      <trkpt lat="-22.038776" lon="-45.780384">
        <ele>836.697</ele>
        <time>2019-10-15T14:10:25Z</time>
      </trkpt>
      <trkpt lat="-22.038743" lon="-45.780324">
        <ele>836.877</ele>
        <time>2019-10-15T14:10:29Z</time>
      </trkpt>
      <trkpt lat="-22.038718" lon="-45.780272">
        <ele>837.042</ele>
        <time>2019-10-15T14:10:31Z</time>
      </trkpt>
      <trkpt lat="-22.038690" lon="-45.780186">
        <ele>837.431</ele>
        <time>2019-10-15T14:10:35Z</time>
      </trkpt>
      <trkpt lat="-22.038657" lon="-45.780111">
        <ele>837.928</ele>
        <time>2019-10-15T14:10:38Z</time>
      </trkpt>
      <trkpt lat="-22.038640" lon="-45.780059">
        <ele>838.289</ele>
        <time>2019-10-15T14:10:40Z</time>
      </trkpt>
      <trkpt lat="-22.038622" lon="-45.779987">
        <ele>838.717</ele>
        <time>2019-10-15T14:10:42Z</time>
      </trkpt>
      <trkpt lat="-22.038590" lon="-45.779919">
        <ele>839.308</ele>
        <time>2019-10-15T14:10:44Z</time>
      </trkpt>
      <trkpt lat="-22.038567" lon="-45.779876">
        <ele>839.786</ele>
        <time>2019-10-15T14:10:45Z</time>
      </trkpt>
      <trkpt lat="-22.038550" lon="-45.779828">
        <ele>840.374</ele>
        <time>2019-10-15T14:10:48Z</time>
      </trkpt>
      <trkpt lat="-22.038543" lon="-45.779754">
        <ele>840.257</ele>
        <time>2019-10-15T14:10:50Z</time>
      </trkpt>
      <trkpt lat="-22.038533" lon="-45.779692">
        <ele>840.182</ele>
        <time>2019-10-15T14:10:53Z</time>
      </trkpt>
      <trkpt lat="-22.038525" lon="-45.779620">
        <ele>840.122</ele>
        <time>2019-10-15T14:10:55Z</time>
      </trkpt>
      <trkpt lat="-22.038522" lon="-45.779560">
        <ele>840.172</ele>
        <time>2019-10-15T14:10:56Z</time>
      </trkpt>
      <trkpt lat="-22.038515" lon="-45.779484">
        <ele>839.047</ele>
        <time>2019-10-15T14:10:59Z</time>
      </trkpt>
      <trkpt lat="-22.038511" lon="-45.779428">
        <ele>839.136</ele>
        <time>2019-10-15T14:11:00Z</time>
      </trkpt>
      <trkpt lat="-22.038511" lon="-45.779365">
        <ele>839.116</ele>
        <time>2019-10-15T14:11:02Z</time>
      </trkpt>
      <trkpt lat="-22.038511" lon="-45.779313">
        <ele>838.876</ele>
        <time>2019-10-15T14:11:03Z</time>
      </trkpt>
      <trkpt lat="-22.038410" lon="-45.778363">
        <ele>837.013</ele>
        <time>2019-10-15T14:11:26Z</time>
      </trkpt>
      <trkpt lat="-22.038395" lon="-45.778273">
        <ele>836.508</ele>
        <time>2019-10-15T14:11:27Z</time>
      </trkpt>
      <trkpt lat="-22.038388" lon="-45.778215">
        <ele>836.825</ele>
        <time>2019-10-15T14:11:29Z</time>
      </trkpt>
      <trkpt lat="-22.038378" lon="-45.778150">
        <ele>836.743</ele>
        <time>2019-10-15T14:11:30Z</time>
      </trkpt>
      <trkpt lat="-22.038268" lon="-45.777245">
        <ele>836.596</ele>
        <time>2019-10-15T14:11:52Z</time>
      </trkpt>
      <trkpt lat="-22.038256" lon="-45.777185">
        <ele>836.871</ele>
        <time>2019-10-15T14:11:53Z</time>
      </trkpt>
      <trkpt lat="-22.038246" lon="-45.777121">
        <ele>836.541</ele>
        <time>2019-10-15T14:11:54Z</time>
      </trkpt>
      <trkpt lat="-22.038238" lon="-45.777068">
        <ele>836.691</ele>
        <time>2019-10-15T14:11:56Z</time>
      </trkpt>
      <trkpt lat="-22.038228" lon="-45.776972">
        <ele>836.736</ele>
        <time>2019-10-15T14:11:58Z</time>
      </trkpt>
      <trkpt lat="-22.038212" lon="-45.776896">
        <ele>836.985</ele>
        <time>2019-10-15T14:11:59Z</time>
      </trkpt>
      <trkpt lat="-22.038201" lon="-45.776833">
        <ele>837.195</ele>
        <time>2019-10-15T14:12:01Z</time>
      </trkpt>
      <trkpt lat="-22.038195" lon="-45.776767">
        <ele>836.749</ele>
        <time>2019-10-15T14:12:03Z</time>
      </trkpt>
      <trkpt lat="-22.038177" lon="-45.776682">
        <ele>836.823</ele>
        <time>2019-10-15T14:12:04Z</time>
      </trkpt>
      <trkpt lat="-22.038174" lon="-45.776633">
        <ele>836.708</ele>
        <time>2019-10-15T14:12:06Z</time>
      </trkpt>
      <trkpt lat="-22.036918" lon="-45.774067">
        <ele>828.483</ele>
        <time>2019-10-15T14:08:06Z</time>
      </trkpt>
      <trkpt lat="-22.036856" lon="-45.774012">
        <ele>828.711</ele>
        <time>2019-10-15T14:08:08Z</time>
      </trkpt>
      <trkpt lat="-22.036798" lon="-45.773960">
        <ele>828.664</ele>
        <time>2019-10-15T14:08:10Z</time>
      </trkpt>
      <trkpt lat="-22.036764" lon="-45.773926">
        <ele>828.969</ele>
        <time>2019-10-15T14:13:05Z</time>
      </trkpt>
      <trkpt lat="-22.036711" lon="-45.773881">
        <ele>829.269</ele>
        <time>2019-10-15T14:13:07Z</time>
      </trkpt>
      <trkpt lat="-22.036662" lon="-45.773850">
        <ele>829.359</ele>
        <time>2019-10-15T14:13:08Z</time>
      </trkpt>
      <trkpt lat="-22.036650" lon="-45.773838">
        <ele>829.414</ele>
        <time>2019-10-15T14:08:17Z</time>
      </trkpt>
      <trkpt lat="-22.036616" lon="-45.773802">
        <ele>829.623</ele>
        <time>2019-10-15T14:13:11Z</time>
      </trkpt>
      <trkpt lat="-22.036539" lon="-45.773737">
        <ele>829.471</ele>
        <time>2019-10-15T14:13:14Z</time>
      </trkpt>
      <trkpt lat="-22.036479" lon="-45.773678">
        <ele>828.741</ele>
        <time>2019-10-15T14:13:16Z</time>
      </trkpt>
      <trkpt lat="-22.036431" lon="-45.773644">
        <ele>828.615</ele>
        <time>2019-10-15T14:13:17Z</time>
      </trkpt>
      <trkpt lat="-22.036371" lon="-45.773594">
        <ele>828.608</ele>
        <time>2019-10-15T14:13:20Z</time>
      </trkpt>
      <trkpt lat="-22.036324" lon="-45.773557">
        <ele>828.461</ele>
        <time>2019-10-15T14:13:21Z</time>
      </trkpt>
      <trkpt lat="-22.036277" lon="-45.773518">
        <ele>828.559</ele>
        <time>2019-10-15T14:13:23Z</time>
      </trkpt>
      <trkpt lat="-22.036239" lon="-45.773486">
        <ele>828.892</ele>
        <time>2019-10-15T14:13:25Z</time>
      </trkpt>
      <trkpt lat="-22.036199" lon="-45.773447">
        <ele>829.067</ele>
        <time>2019-10-15T14:13:26Z</time>
      </trkpt>
      <trkpt lat="-22.036151" lon="-45.773401">
        <ele>829.297</ele>
        <time>2019-10-15T14:13:29Z</time>
      </trkpt>
      <trkpt lat="-22.036094" lon="-45.773354">
        <ele>828.947</ele>
        <time>2019-10-15T14:13:31Z</time>
      </trkpt>
      <trkpt lat="-22.036018" lon="-45.773280">
        <ele>830.092</ele>
        <time>2019-10-15T14:13:33Z</time>
      </trkpt>
      <trkpt lat="-22.035979" lon="-45.773242">
        <ele>829.951</ele>
        <time>2019-10-15T14:13:35Z</time>
      </trkpt>
      <trkpt lat="-22.035933" lon="-45.773197">
        <ele>829.587</ele>
        <time>2019-10-15T14:13:36Z</time>
      </trkpt>
      <trkpt lat="-22.035862" lon="-45.773131">
        <ele>829.942</ele>
        <time>2019-10-15T14:13:39Z</time>
      </trkpt>
      <trkpt lat="-22.035797" lon="-45.773072">
        <ele>830.526</ele>
        <time>2019-10-15T14:13:41Z</time>
      </trkpt>
      <trkpt lat="-22.035749" lon="-45.773041">
        <ele>830.908</ele>
        <time>2019-10-15T14:13:42Z</time>
      </trkpt>
      <trkpt lat="-22.035688" lon="-45.772980">
        <ele>831.382</ele>
        <time>2019-10-15T14:13:45Z</time>
      </trkpt>
      <trkpt lat="-22.035619" lon="-45.772915">
        <ele>831.670</ele>
        <time>2019-10-15T14:13:47Z</time>
      </trkpt>
      <trkpt lat="-22.035406" lon="-45.772684">
        <ele>832.313</ele>
        <time>2019-10-15T14:13:54Z</time>
      </trkpt>
      <trkpt lat="-22.035361" lon="-45.772645">
        <ele>832.668</ele>
        <time>2019-10-15T14:13:55Z</time>
      </trkpt>
      <trkpt lat="-22.035303" lon="-45.772594">
        <ele>833.078</ele>
        <time>2019-10-15T14:13:57Z</time>
      </trkpt>
      <trkpt lat="-22.035250" lon="-45.772542">
        <ele>833.648</ele>
        <time>2019-10-15T14:13:59Z</time>
      </trkpt>
      <trkpt lat="-22.035198" lon="-45.772495">
        <ele>834.153</ele>
        <time>2019-10-15T14:14:02Z</time>
      </trkpt>
      <trkpt lat="-22.035164" lon="-45.772461">
        <ele>834.572</ele>
        <time>2019-10-15T14:14:03Z</time>
      </trkpt>
      <trkpt lat="-22.035125" lon="-45.772421">
        <ele>834.866</ele>
        <time>2019-10-15T14:14:06Z</time>
      </trkpt>
      <trkpt lat="-22.035087" lon="-45.772384">
        <ele>835.129</ele>
        <time>2019-10-15T14:14:08Z</time>
      </trkpt>
      <trkpt lat="-22.035054" lon="-45.772344">
        <ele>835.021</ele>
        <time>2019-10-15T14:14:09Z</time>
      </trkpt>
      <trkpt lat="-22.035013" lon="-45.772311">
        <ele>835.108</ele>
        <time>2019-10-15T14:14:11Z</time>
      </trkpt>
      <trkpt lat="-22.034943" lon="-45.772257">
        <ele>835.430</ele>
        <time>2019-10-15T14:14:15Z</time>
      </trkpt>
      <trkpt lat="-22.034894" lon="-45.772203">
        <ele>835.458</ele>
        <time>2019-10-15T14:14:18Z</time>
      </trkpt>
      <trkpt lat="-22.034846" lon="-45.772161">
        <ele>835.491</ele>
        <time>2019-10-15T14:14:20Z</time>
      </trkpt>
      <trkpt lat="-22.034808" lon="-45.772130">
        <ele>835.116</ele>
        <time>2019-10-15T14:14:21Z</time>
      </trkpt>
      <trkpt lat="-22.034757" lon="-45.772089">
        <ele>835.166</ele>
        <time>2019-10-15T14:14:24Z</time>
      </trkpt>
      <trkpt lat="-22.034707" lon="-45.772042">
        <ele>835.446</ele>
        <time>2019-10-15T14:14:26Z</time>
      </trkpt>
      <trkpt lat="-22.034670" lon="-45.772010">
        <ele>835.471</ele>
        <time>2019-10-15T14:14:27Z</time>
      </trkpt>
      <trkpt lat="-22.034629" lon="-45.771987">
        <ele>835.310</ele>
        <time>2019-10-15T14:14:28Z</time>
      </trkpt>
      <trkpt lat="-22.034541" lon="-45.771931">
        <ele>835.412</ele>
        <time>2019-10-15T14:14:31Z</time>
      </trkpt>
      <trkpt lat="-22.034486" lon="-45.771903">
        <ele>835.732</ele>
        <time>2019-10-15T14:14:33Z</time>
      </trkpt>
      <trkpt lat="-22.034428" lon="-45.771869">
        <ele>835.705</ele>
        <time>2019-10-15T14:14:34Z</time>
      </trkpt>
      <trkpt lat="-22.034353" lon="-45.771824">
        <ele>835.708</ele>
        <time>2019-10-15T14:14:37Z</time>
      </trkpt>
      <trkpt lat="-22.034318" lon="-45.771778">
        <ele>835.535</ele>
        <time>2019-10-15T14:14:39Z</time>
      </trkpt>
      <trkpt lat="-22.034249" lon="-45.771735">
        <ele>835.463</ele>
        <time>2019-10-15T14:14:41Z</time>
      </trkpt>
      <trkpt lat="-22.034205" lon="-45.771700">
        <ele>835.566</ele>
        <time>2019-10-15T14:14:42Z</time>
      </trkpt>
      <trkpt lat="-22.034164" lon="-45.771662">
        <ele>835.671</ele>
        <time>2019-10-15T14:14:44Z</time>
      </trkpt>
      <trkpt lat="-22.034115" lon="-45.771630">
        <ele>835.481</ele>
        <time>2019-10-15T14:14:46Z</time>
      </trkpt>
      <trkpt lat="-22.034060" lon="-45.771586">
        <ele>835.011</ele>
        <time>2019-10-15T14:14:47Z</time>
      </trkpt>
      <trkpt lat="-22.034005" lon="-45.771540">
        <ele>835.576</ele>
        <time>2019-10-15T14:14:50Z</time>
      </trkpt>
      <trkpt lat="-22.033967" lon="-45.771503">
        <ele>835.265</ele>
        <time>2019-10-15T14:14:51Z</time>
      </trkpt>
      <trkpt lat="-22.033914" lon="-45.771452">
        <ele>835.074</ele>
        <time>2019-10-15T14:14:53Z</time>
      </trkpt>
      <trkpt lat="-22.031226" lon="-45.769313">
        <ele>827.756</ele>
        <time>2019-10-15T14:15:53Z</time>
      </trkpt>
      <trkpt lat="-22.031190" lon="-45.769267">
        <ele>828.021</ele>
        <time>2019-10-15T14:15:55Z</time>
      </trkpt>
      <trkpt lat="-22.031132" lon="-45.769244">
        <ele>827.808</ele>
        <time>2019-10-15T14:15:56Z</time>
      </trkpt>
      <trkpt lat="-22.030850" lon="-45.769020">
        <ele>827.431</ele>
        <time>2019-10-15T14:16:05Z</time>
      </trkpt>
      <trkpt lat="-22.030805" lon="-45.768988">
        <ele>827.319</ele>
        <time>2019-10-15T14:16:06Z</time>
      </trkpt>
      <trkpt lat="-22.030763" lon="-45.768943">
        <ele>828.022</ele>
        <time>2019-10-15T14:16:08Z</time>
      </trkpt>
      <trkpt lat="-22.029344" lon="-45.766919">
        <ele>826.157</ele>
        <time>2019-10-15T14:16:55Z</time>
      </trkpt>
      <trkpt lat="-22.029302" lon="-45.766899">
        <ele>827.187</ele>
        <time>2019-10-15T14:16:57Z</time>
      </trkpt>
      <trkpt lat="-22.029266" lon="-45.766861">
        <ele>827.647</ele>
        <time>2019-10-15T14:16:59Z</time>
      </trkpt>
      <trkpt lat="-22.029227" lon="-45.766823">
        <ele>828.192</ele>
        <time>2019-10-15T14:17:01Z</time>
      </trkpt>
      <trkpt lat="-22.029178" lon="-45.766782">
        <ele>828.451</ele>
        <time>2019-10-15T14:17:03Z</time>
      </trkpt>
      <trkpt lat="-22.029140" lon="-45.766750">
        <ele>828.743</ele>
        <time>2019-10-15T14:17:04Z</time>
      </trkpt>
      <trkpt lat="-22.029081" lon="-45.766703">
        <ele>828.764</ele>
        <time>2019-10-15T14:17:07Z</time>
      </trkpt>
      <trkpt lat="-22.029015" lon="-45.766666">
        <ele>829.010</ele>
        <time>2019-10-15T14:17:09Z</time>
      </trkpt>
      <trkpt lat="-22.028967" lon="-45.766641">
        <ele>829.608</ele>
        <time>2019-10-15T14:17:11Z</time>
      </trkpt>
      <trkpt lat="-22.028927" lon="-45.766614">
        <ele>829.678</ele>
        <time>2019-10-15T14:17:12Z</time>
      </trkpt>
      <trkpt lat="-22.028881" lon="-45.766575">
        <ele>829.416</ele>
        <time>2019-10-15T14:17:14Z</time>
      </trkpt>
      <trkpt lat="-22.028838" lon="-45.766537">
        <ele>829.629</ele>
        <time>2019-10-15T14:17:15Z</time>
      </trkpt>
      <trkpt lat="-22.028791" lon="-45.766484">
        <ele>829.624</ele>
        <time>2019-10-15T14:17:18Z</time>
      </trkpt>
      <trkpt lat="-22.028754" lon="-45.766451">
        <ele>829.434</ele>
        <time>2019-10-15T14:17:19Z</time>
      </trkpt>
      <trkpt lat="-22.028704" lon="-45.766418">
        <ele>829.234</ele>
        <time>2019-10-15T14:17:21Z</time>
      </trkpt>
      <trkpt lat="-22.028641" lon="-45.766377">
        <ele>829.169</ele>
        <time>2019-10-15T14:17:23Z</time>
      </trkpt>
      <trkpt lat="-22.028586" lon="-45.766335">
        <ele>829.178</ele>
        <time>2019-10-15T14:17:25Z</time>
      </trkpt>
      <trkpt lat="-22.028471" lon="-45.766235">
        <ele>828.744</ele>
        <time>2019-10-15T14:17:28Z</time>
      </trkpt>
      <trkpt lat="-22.028375" lon="-45.766140">
        <ele>828.305</ele>
        <time>2019-10-15T14:17:31Z</time>
      </trkpt>
      <trkpt lat="-22.028291" lon="-45.766089">
        <ele>828.315</ele>
        <time>2019-10-15T14:17:34Z</time>
      </trkpt>
      <trkpt lat="-22.028241" lon="-45.766048">
        <ele>828.308</ele>
        <time>2019-10-15T14:17:35Z</time>
      </trkpt>
      <trkpt lat="-22.028149" lon="-45.765955">
        <ele>828.218</ele>
        <time>2019-10-15T14:17:37Z</time>
      </trkpt>
      <trkpt lat="-22.028066" lon="-45.765864">
        <ele>828.326</ele>
        <time>2019-10-15T14:17:40Z</time>
      </trkpt>
      <trkpt lat="-22.028024" lon="-45.765834">
        <ele>828.469</ele>
        <time>2019-10-15T14:17:42Z</time>
      </trkpt>
      <trkpt lat="-22.027990" lon="-45.765784">
        <ele>828.444</ele>
        <time>2019-10-15T14:17:43Z</time>
      </trkpt>
      <trkpt lat="-22.027938" lon="-45.765718">
        <ele>828.154</ele>
        <time>2019-10-15T14:17:45Z</time>
      </trkpt>
      <trkpt lat="-22.027882" lon="-45.765662">
        <ele>827.484</ele>
        <time>2019-10-15T14:17:47Z</time>
      </trkpt>
      <trkpt lat="-22.027518" lon="-45.765312">
        <ele>827.349</ele>
        <time>2019-10-15T14:17:58Z</time>
      </trkpt>
      <trkpt lat="-22.027457" lon="-45.765280">
        <ele>827.488</ele>
        <time>2019-10-15T14:18:00Z</time>
      </trkpt>
      <trkpt lat="-22.027416" lon="-45.765225">
        <ele>827.172</ele>
        <time>2019-10-15T14:18:02Z</time>
      </trkpt>
      <trkpt lat="-22.027361" lon="-45.765172">
        <ele>827.313</ele>
        <time>2019-10-15T14:18:03Z</time>
      </trkpt>
      <trkpt lat="-22.027303" lon="-45.765119">
        <ele>826.314</ele>
        <time>2019-10-15T14:18:06Z</time>
      </trkpt>
      <trkpt lat="-22.027234" lon="-45.765063">
        <ele>826.208</ele>
        <time>2019-10-15T14:18:08Z</time>
      </trkpt>
      <trkpt lat="-22.027193" lon="-45.765023">
        <ele>826.641</ele>
        <time>2019-10-15T14:18:09Z</time>
      </trkpt>
      <trkpt lat="-22.027157" lon="-45.764979">
        <ele>826.999</ele>
        <time>2019-10-15T14:18:11Z</time>
      </trkpt>
      <trkpt lat="-22.027113" lon="-45.764926">
        <ele>826.582</ele>
        <time>2019-10-15T14:18:13Z</time>
      </trkpt>
      <trkpt lat="-22.027060" lon="-45.764873">
        <ele>826.977</ele>
        <time>2019-10-15T14:18:15Z</time>
      </trkpt>
      <trkpt lat="-22.027022" lon="-45.764834">
        <ele>827.217</ele>
        <time>2019-10-15T14:18:17Z</time>
      </trkpt>
      <trkpt lat="-22.026980" lon="-45.764787">
        <ele>826.997</ele>
        <time>2019-10-15T14:18:18Z</time>
      </trkpt>
      <trkpt lat="-22.026931" lon="-45.764736">
        <ele>826.822</ele>
        <time>2019-10-15T14:18:20Z</time>
      </trkpt>
      <trkpt lat="-22.026881" lon="-45.764687">
        <ele>826.961</ele>
        <time>2019-10-15T14:18:22Z</time>
      </trkpt>
      <trkpt lat="-22.026837" lon="-45.764644">
        <ele>826.331</ele>
        <time>2019-10-15T14:18:25Z</time>
      </trkpt>
      <trkpt lat="-22.026798" lon="-45.764603">
        <ele>826.161</ele>
        <time>2019-10-15T14:18:27Z</time>
      </trkpt>
      <trkpt lat="-22.026757" lon="-45.764563">
        <ele>826.307</ele>
        <time>2019-10-15T14:18:28Z</time>
      </trkpt>
      <trkpt lat="-22.026712" lon="-45.764524">
        <ele>826.208</ele>
        <time>2019-10-15T14:18:30Z</time>
      </trkpt>
      <trkpt lat="-22.026402" lon="-45.764230">
        <ele>826.227</ele>
        <time>2019-10-15T14:18:40Z</time>
      </trkpt>
      <trkpt lat="-22.026331" lon="-45.764185">
        <ele>825.865</ele>
        <time>2019-10-15T14:18:42Z</time>
      </trkpt>
      <trkpt lat="-22.026295" lon="-45.764153">
        <ele>826.098</ele>
        <time>2019-10-15T14:18:43Z</time>
      </trkpt>
      <trkpt lat="-22.026249" lon="-45.764109">
        <ele>826.493</ele>
        <time>2019-10-15T14:18:44Z</time>
      </trkpt>
      <trkpt lat="-22.026188" lon="-45.764053">
        <ele>826.343</ele>
        <time>2019-10-15T14:18:47Z</time>
      </trkpt>
      <trkpt lat="-22.026156" lon="-45.764017">
        <ele>826.393</ele>
        <time>2019-10-15T14:18:48Z</time>
      </trkpt>
      <trkpt lat="-22.026107" lon="-45.763971">
        <ele>825.928</ele>
        <time>2019-10-15T14:18:49Z</time>
      </trkpt>
      <trkpt lat="-22.026062" lon="-45.763933">
        <ele>825.667</ele>
        <time>2019-10-15T14:18:51Z</time>
      </trkpt>
      <trkpt lat="-22.026016" lon="-45.763882">
        <ele>825.879</ele>
        <time>2019-10-15T14:18:52Z</time>
      </trkpt>
      <trkpt lat="-22.025898" lon="-45.763755">
        <ele>826.305</ele>
        <time>2019-10-15T14:18:57Z</time>
      </trkpt>
      <trkpt lat="-22.025856" lon="-45.763706">
        <ele>826.325</ele>
        <time>2019-10-15T14:18:58Z</time>
      </trkpt>
      <trkpt lat="-22.025782" lon="-45.763531">
        <ele>826.008</ele>
        <time>2019-10-15T14:19:02Z</time>
      </trkpt>
      <trkpt lat="-22.025749" lon="-45.763469">
        <ele>825.931</ele>
        <time>2019-10-15T14:19:04Z</time>
      </trkpt>
      <trkpt lat="-22.025669" lon="-45.763255">
        <ele>826.079</ele>
        <time>2019-10-15T14:19:09Z</time>
      </trkpt>
      <trkpt lat="-22.025653" lon="-45.763197">
        <ele>826.332</ele>
        <time>2019-10-15T14:19:10Z</time>
      </trkpt>
      <trkpt lat="-22.025671" lon="-45.759947">
        <ele>825.847</ele>
        <time>2019-10-15T14:20:19Z</time>
      </trkpt>
      <trkpt lat="-22.025692" lon="-45.759897">
        <ele>825.677</ele>
        <time>2019-10-15T14:20:20Z</time>
      </trkpt>
      <trkpt lat="-22.025707" lon="-45.759821">
        <ele>826.757</ele>
        <time>2019-10-15T14:20:23Z</time>
      </trkpt>
      <trkpt lat="-22.025730" lon="-45.759759">
        <ele>827.052</ele>
        <time>2019-10-15T14:20:24Z</time>
      </trkpt>
      <trkpt lat="-22.025748" lon="-45.759700">
        <ele>827.431</ele>
        <time>2019-10-15T14:20:26Z</time>
      </trkpt>
      <trkpt lat="-22.025769" lon="-45.759642">
        <ele>827.322</ele>
        <time>2019-10-15T14:20:28Z</time>
      </trkpt>
      <trkpt lat="-22.025803" lon="-45.759534">
        <ele>827.962</ele>
        <time>2019-10-15T14:20:31Z</time>
      </trkpt>
      <trkpt lat="-22.025818" lon="-45.759482">
        <ele>828.508</ele>
        <time>2019-10-15T14:20:32Z</time>
      </trkpt>
      <trkpt lat="-22.025837" lon="-45.759431">
        <ele>829.008</ele>
        <time>2019-10-15T14:20:34Z</time>
      </trkpt>
      <trkpt lat="-22.025852" lon="-45.759370">
        <ele>829.046</ele>
        <time>2019-10-15T14:20:36Z</time>
      </trkpt>
      <trkpt lat="-22.025876" lon="-45.759315">
        <ele>829.944</ele>
        <time>2019-10-15T14:20:37Z</time>
      </trkpt>
      <trkpt lat="-22.025901" lon="-45.759244">
        <ele>830.557</ele>
        <time>2019-10-15T14:20:39Z</time>
      </trkpt>
      <trkpt lat="-22.025918" lon="-45.759196">
        <ele>830.682</ele>
        <time>2019-10-15T14:20:41Z</time>
      </trkpt>
      <trkpt lat="-22.025948" lon="-45.759112">
        <ele>831.322</ele>
        <time>2019-10-15T14:20:44Z</time>
      </trkpt>
      <trkpt lat="-22.025970" lon="-45.759054">
        <ele>831.652</ele>
        <time>2019-10-15T14:20:45Z</time>
      </trkpt>
      <trkpt lat="-22.025993" lon="-45.758984">
        <ele>832.047</ele>
        <time>2019-10-15T14:20:47Z</time>
      </trkpt>
      <trkpt lat="-22.026013" lon="-45.758925">
        <ele>832.536</ele>
        <time>2019-10-15T14:20:50Z</time>
      </trkpt>
      <trkpt lat="-22.026027" lon="-45.758873">
        <ele>832.561</ele>
        <time>2019-10-15T14:20:51Z</time>
      </trkpt>
      <trkpt lat="-22.026041" lon="-45.758826">
        <ele>832.821</ele>
        <time>2019-10-15T14:20:53Z</time>
      </trkpt>
      <trkpt lat="-22.026063" lon="-45.758754">
        <ele>833.513</ele>
        <time>2019-10-15T14:20:56Z</time>
      </trkpt>
      <trkpt lat="-22.026093" lon="-45.758678">
        <ele>833.308</ele>
        <time>2019-10-15T14:20:58Z</time>
      </trkpt>
      <trkpt lat="-22.026116" lon="-45.758617">
        <ele>833.260</ele>
        <time>2019-10-15T14:21:01Z</time>
      </trkpt>
      <trkpt lat="-22.026143" lon="-45.758551">
        <ele>833.138</ele>
        <time>2019-10-15T14:21:03Z</time>
      </trkpt>
      <trkpt lat="-22.026201" lon="-45.758463">
        <ele>832.661</ele>
        <time>2019-10-15T14:21:05Z</time>
      </trkpt>
      <trkpt lat="-22.026247" lon="-45.758393">
        <ele>832.176</ele>
        <time>2019-10-15T14:21:08Z</time>
      </trkpt>
      <trkpt lat="-22.026297" lon="-45.758322">
        <ele>831.626</ele>
        <time>2019-10-15T14:21:10Z</time>
      </trkpt>
      <trkpt lat="-22.028278" lon="-45.756200">
        <ele>824.536</ele>
        <time>2019-10-15T14:21:54Z</time>
      </trkpt>
      <trkpt lat="-22.028310" lon="-45.756155">
        <ele>824.811</ele>
        <time>2019-10-15T14:21:57Z</time>
      </trkpt>
      <trkpt lat="-22.028363" lon="-45.756102">
        <ele>825.360</ele>
        <time>2019-10-15T14:22:00Z</time>
      </trkpt>
      <trkpt lat="-22.028402" lon="-45.756055">
        <ele>825.518</ele>
        <time>2019-10-15T14:22:02Z</time>
      </trkpt>
      <trkpt lat="-22.028444" lon="-45.756014">
        <ele>825.698</ele>
        <time>2019-10-15T14:22:04Z</time>
      </trkpt>
      <trkpt lat="-22.028495" lon="-45.755958">
        <ele>825.817</ele>
        <time>2019-10-15T14:22:07Z</time>
      </trkpt>
      <trkpt lat="-22.028538" lon="-45.755918">
        <ele>825.708</ele>
        <time>2019-10-15T14:22:09Z</time>
      </trkpt>
      <trkpt lat="-22.028593" lon="-45.755868">
        <ele>826.725</ele>
        <time>2019-10-15T14:22:12Z</time>
      </trkpt>
      <trkpt lat="-22.028648" lon="-45.755830">
        <ele>826.883</ele>
        <time>2019-10-15T14:22:14Z</time>
      </trkpt>
      <trkpt lat="-22.028717" lon="-45.755764">
        <ele>826.916</ele>
        <time>2019-10-15T14:22:17Z</time>
      </trkpt>
      <trkpt lat="-22.028757" lon="-45.755727">
        <ele>827.461</ele>
        <time>2019-10-15T14:22:19Z</time>
      </trkpt>
      <trkpt lat="-22.028793" lon="-45.755696">
        <ele>827.771</ele>
        <time>2019-10-15T14:22:20Z</time>
      </trkpt>
      <trkpt lat="-22.028842" lon="-45.755653">
        <ele>827.861</ele>
        <time>2019-10-15T14:22:23Z</time>
      </trkpt>
      <trkpt lat="-22.028877" lon="-45.755614">
        <ele>828.186</ele>
        <time>2019-10-15T14:22:24Z</time>
      </trkpt>
      <trkpt lat="-22.028910" lon="-45.755580">
        <ele>828.635</ele>
        <time>2019-10-15T14:22:26Z</time>
      </trkpt>
      <trkpt lat="-22.028946" lon="-45.755547">
        <ele>828.764</ele>
        <time>2019-10-15T14:22:27Z</time>
      </trkpt>
      <trkpt lat="-22.028988" lon="-45.755504">
        <ele>829.106</ele>
        <time>2019-10-15T14:22:30Z</time>
      </trkpt>
      <trkpt lat="-22.029024" lon="-45.755466">
        <ele>829.316</ele>
        <time>2019-10-15T14:22:31Z</time>
      </trkpt>
      <trkpt lat="-22.029063" lon="-45.755425">
        <ele>829.708</ele>
        <time>2019-10-15T14:22:34Z</time>
      </trkpt>
      <trkpt lat="-22.029113" lon="-45.755382">
        <ele>830.430</ele>
        <time>2019-10-15T14:22:36Z</time>
      </trkpt>
      <trkpt lat="-22.029152" lon="-45.755344">
        <ele>830.698</ele>
        <time>2019-10-15T14:22:38Z</time>
      </trkpt>
      <trkpt lat="-22.029202" lon="-45.755293">
        <ele>830.881</ele>
        <time>2019-10-15T14:22:41Z</time>
      </trkpt>
      <trkpt lat="-22.029238" lon="-45.755249">
        <ele>831.166</ele>
        <time>2019-10-15T14:22:43Z</time>
      </trkpt>
      <trkpt lat="-22.029272" lon="-45.755207">
        <ele>831.626</ele>
        <time>2019-10-15T14:22:45Z</time>
      </trkpt>
      <trkpt lat="-22.029307" lon="-45.755164">
        <ele>832.176</ele>
        <time>2019-10-15T14:22:47Z</time>
      </trkpt>
      <trkpt lat="-22.029347" lon="-45.755102">
        <ele>832.251</ele>
        <time>2019-10-15T14:22:50Z</time>
      </trkpt>
      <trkpt lat="-22.029375" lon="-45.755059">
        <ele>832.640</ele>
        <time>2019-10-15T14:22:52Z</time>
      </trkpt>
      <trkpt lat="-22.029418" lon="-45.755008">
        <ele>833.157</ele>
        <time>2019-10-15T14:22:55Z</time>
      </trkpt>
      <trkpt lat="-22.029449" lon="-45.754946">
        <ele>833.200</ele>
        <time>2019-10-15T14:22:58Z</time>
      </trkpt>
      <trkpt lat="-22.029474" lon="-45.754905">
        <ele>833.220</ele>
        <time>2019-10-15T14:23:00Z</time>
      </trkpt>
      <trkpt lat="-22.029502" lon="-45.754858">
        <ele>833.408</ele>
        <time>2019-10-15T14:23:02Z</time>
      </trkpt>
      <trkpt lat="-22.029540" lon="-45.754783">
        <ele>833.699</ele>
        <time>2019-10-15T14:23:06Z</time>
      </trkpt>
      <trkpt lat="-22.029561" lon="-45.754734">
        <ele>833.827</ele>
        <time>2019-10-15T14:23:08Z</time>
      </trkpt>
      <trkpt lat="-22.029577" lon="-45.754687">
        <ele>834.240</ele>
        <time>2019-10-15T14:23:10Z</time>
      </trkpt>
      <trkpt lat="-22.029588" lon="-45.754637">
        <ele>834.275</ele>
        <time>2019-10-15T14:23:12Z</time>
      </trkpt>
      <trkpt lat="-22.029616" lon="-45.754568">
        <ele>834.845</ele>
        <time>2019-10-15T14:23:16Z</time>
      </trkpt>
      <trkpt lat="-22.029631" lon="-45.754515">
        <ele>835.425</ele>
        <time>2019-10-15T14:23:19Z</time>
      </trkpt>
      <trkpt lat="-22.029657" lon="-45.754454">
        <ele>835.390</ele>
        <time>2019-10-15T14:23:23Z</time>
      </trkpt>
      <trkpt lat="-22.029684" lon="-45.754398">
        <ele>835.749</ele>
        <time>2019-10-15T14:23:26Z</time>
      </trkpt>
      <trkpt lat="-22.029709" lon="-45.754355">
        <ele>836.233</ele>
        <time>2019-10-15T14:23:29Z</time>
      </trkpt>
      <trkpt lat="-22.029736" lon="-45.754309">
        <ele>836.223</ele>
        <time>2019-10-15T14:23:31Z</time>
      </trkpt>
      <trkpt lat="-22.029766" lon="-45.754253">
        <ele>837.015</ele>
        <time>2019-10-15T14:23:35Z</time>
      </trkpt>
      <trkpt lat="-22.029796" lon="-45.754206">
        <ele>836.908</ele>
        <time>2019-10-15T14:23:37Z</time>
      </trkpt>
      <trkpt lat="-22.029823" lon="-45.754159">
        <ele>837.387</ele>
        <time>2019-10-15T14:23:40Z</time>
      </trkpt>
      <trkpt lat="-22.029850" lon="-45.754105">
        <ele>837.925</ele>
        <time>2019-10-15T14:23:44Z</time>
      </trkpt>
      <trkpt lat="-22.029875" lon="-45.754057">
        <ele>838.028</ele>
        <time>2019-10-15T14:23:46Z</time>
      </trkpt>
      <trkpt lat="-22.029908" lon="-45.753993">
        <ele>837.943</ele>
        <time>2019-10-15T14:23:50Z</time>
      </trkpt>
      <trkpt lat="-22.029928" lon="-45.753947">
        <ele>837.913</ele>
        <time>2019-10-15T14:23:52Z</time>
      </trkpt>
      <trkpt lat="-22.029959" lon="-45.753888">
        <ele>838.653</ele>
        <time>2019-10-15T14:23:56Z</time>
      </trkpt>
      <trkpt lat="-22.029992" lon="-45.753841">
        <ele>838.978</ele>
        <time>2019-10-15T14:23:58Z</time>
      </trkpt>
      <trkpt lat="-22.030012" lon="-45.753796">
        <ele>839.127</ele>
        <time>2019-10-15T14:24:01Z</time>
      </trkpt>
      <trkpt lat="-22.030046" lon="-45.753715">
        <ele>839.582</ele>
        <time>2019-10-15T14:24:05Z</time>
      </trkpt>
      <trkpt lat="-22.030082" lon="-45.753660">
        <ele>839.743</ele>
        <time>2019-10-15T14:24:08Z</time>
      </trkpt>
      <trkpt lat="-22.030118" lon="-45.753615">
        <ele>840.117</ele>
        <time>2019-10-15T14:24:10Z</time>
      </trkpt>
      <trkpt lat="-22.030148" lon="-45.753568">
        <ele>840.608</ele>
        <time>2019-10-15T14:24:13Z</time>
      </trkpt>
      <trkpt lat="-22.030177" lon="-45.753528">
        <ele>840.862</ele>
        <time>2019-10-15T14:24:16Z</time>
      </trkpt>
      <trkpt lat="-22.030217" lon="-45.753474">
        <ele>841.610</ele>
        <time>2019-10-15T14:24:20Z</time>
      </trkpt>
      <trkpt lat="-22.030245" lon="-45.753416">
        <ele>841.953</ele>
        <time>2019-10-15T14:24:22Z</time>
      </trkpt>
      <trkpt lat="-22.030276" lon="-45.753376">
        <ele>842.038</ele>
        <time>2019-10-15T14:24:24Z</time>
      </trkpt>
      <trkpt lat="-22.030317" lon="-45.753327">
        <ele>842.068</ele>
        <time>2019-10-15T14:24:28Z</time>
      </trkpt>
      <trkpt lat="-22.030352" lon="-45.753285">
        <ele>841.798</ele>
        <time>2019-10-15T14:24:31Z</time>
      </trkpt>
      <trkpt lat="-22.030377" lon="-45.753243">
        <ele>842.023</ele>
        <time>2019-10-15T14:24:33Z</time>
      </trkpt>
      <trkpt lat="-22.030414" lon="-45.753211">
        <ele>841.962</ele>
        <time>2019-10-15T14:24:34Z</time>
      </trkpt>
      <trkpt lat="-22.030453" lon="-45.753149">
        <ele>842.575</ele>
        <time>2019-10-15T14:24:38Z</time>
      </trkpt>
      <trkpt lat="-22.030496" lon="-45.753097">
        <ele>842.528</ele>
        <time>2019-10-15T14:24:41Z</time>
      </trkpt>
      <trkpt lat="-22.030527" lon="-45.753057">
        <ele>842.520</ele>
        <time>2019-10-15T14:24:43Z</time>
      </trkpt>
      <trkpt lat="-22.030561" lon="-45.753013">
        <ele>843.508</ele>
        <time>2019-10-15T14:24:45Z</time>
      </trkpt>
      <trkpt lat="-22.030598" lon="-45.752978">
        <ele>843.861</ele>
        <time>2019-10-15T14:24:48Z</time>
      </trkpt>
      <trkpt lat="-22.030644" lon="-45.752931">
        <ele>843.759</ele>
        <time>2019-10-15T14:24:50Z</time>
      </trkpt>
      <trkpt lat="-22.030684" lon="-45.752891">
        <ele>844.282</ele>
        <time>2019-10-15T14:24:53Z</time>
      </trkpt>
      <trkpt lat="-22.030723" lon="-45.752831">
        <ele>844.447</ele>
        <time>2019-10-15T14:24:55Z</time>
      </trkpt>
      <trkpt lat="-22.030751" lon="-45.752788">
        <ele>844.567</ele>
        <time>2019-10-15T14:24:57Z</time>
      </trkpt>
      <trkpt lat="-22.030784" lon="-45.752743">
        <ele>844.667</ele>
        <time>2019-10-15T14:25:00Z</time>
      </trkpt>
      <trkpt lat="-22.030808" lon="-45.752694">
        <ele>844.452</ele>
        <time>2019-10-15T14:25:02Z</time>
      </trkpt>
      <trkpt lat="-22.030822" lon="-45.752638">
        <ele>844.631</ele>
        <time>2019-10-15T14:25:04Z</time>
      </trkpt>
      <trkpt lat="-22.030830" lon="-45.752579">
        <ele>844.282</ele>
        <time>2019-10-15T14:25:05Z</time>
      </trkpt>
      <trkpt lat="-22.030843" lon="-45.752484">
        <ele>843.443</ele>
        <time>2019-10-15T14:25:08Z</time>
      </trkpt>
      <trkpt lat="-22.030850" lon="-45.752415">
        <ele>843.117</ele>
        <time>2019-10-15T14:25:09Z</time>
      </trkpt>
      <trkpt lat="-22.030249" lon="-45.747831">
        <ele>829.108</ele>
        <time>2019-10-15T14:26:20Z</time>
      </trkpt>
      <trkpt lat="-22.030225" lon="-45.747745">
        <ele>829.652</ele>
        <time>2019-10-15T14:26:24Z</time>
      </trkpt>
      <trkpt lat="-22.030197" lon="-45.747693">
        <ele>829.550</ele>
        <time>2019-10-15T14:21:33Z</time>
      </trkpt>
      <trkpt lat="-22.030168" lon="-45.747641">
        <ele>829.353</ele>
        <time>2019-10-15T14:26:27Z</time>
      </trkpt>
      <trkpt lat="-22.030132" lon="-45.747574">
        <ele>829.348</ele>
        <time>2019-10-15T14:26:29Z</time>
      </trkpt>
      <trkpt lat="-22.030125" lon="-45.747486">
        <ele>828.818</ele>
        <time>2019-10-15T14:26:31Z</time>
      </trkpt>
      <trkpt lat="-22.030101" lon="-45.747418">
        <ele>828.518</ele>
        <time>2019-10-15T14:26:32Z</time>
      </trkpt>
      <trkpt lat="-22.030058" lon="-45.747334">
        <ele>828.833</ele>
        <time>2019-10-15T14:26:35Z</time>
      </trkpt>
      <trkpt lat="-22.030032" lon="-45.747268">
        <ele>829.022</ele>
        <time>2019-10-15T14:26:36Z</time>
      </trkpt>
      <trkpt lat="-22.030007" lon="-45.747204">
        <ele>829.091</ele>
        <time>2019-10-15T14:26:38Z</time>
      </trkpt>
      <trkpt lat="-22.029981" lon="-45.747144">
        <ele>829.581</ele>
        <time>2019-10-15T14:26:40Z</time>
      </trkpt>
      <trkpt lat="-22.029938" lon="-45.747056">
        <ele>829.519</ele>
        <time>2019-10-15T14:26:42Z</time>
      </trkpt>
      <trkpt lat="-22.029908" lon="-45.746989">
        <ele>829.608</ele>
        <time>2019-10-15T14:26:43Z</time>
      </trkpt>
      <trkpt lat="-22.029886" lon="-45.746945">
        <ele>829.243</ele>
        <time>2019-10-15T14:26:44Z</time>
      </trkpt>
      <trkpt lat="-22.029849" lon="-45.746854">
        <ele>827.961</ele>
        <time>2019-10-15T14:26:47Z</time>
      </trkpt>
      <trkpt lat="-22.029033" lon="-45.745154">
        <ele>828.534</ele>
        <time>2019-10-15T14:27:27Z</time>
      </trkpt>
      <trkpt lat="-22.029011" lon="-45.745111">
        <ele>828.799</ele>
        <time>2019-10-15T14:27:28Z</time>
      </trkpt>
      <trkpt lat="-22.028991" lon="-45.745065">
        <ele>829.369</ele>
        <time>2019-10-15T14:27:30Z</time>
      </trkpt>
      <trkpt lat="-22.028967" lon="-45.745016">
        <ele>829.249</ele>
        <time>2019-10-15T14:27:31Z</time>
      </trkpt>
      <trkpt lat="-22.028945" lon="-45.744972">
        <ele>829.384</ele>
        <time>2019-10-15T14:27:33Z</time>
      </trkpt>
      <trkpt lat="-22.028903" lon="-45.744903">
        <ele>829.033</ele>
        <time>2019-10-15T14:27:35Z</time>
      </trkpt>
      <trkpt lat="-22.028837" lon="-45.744797">
        <ele>828.691</ele>
        <time>2019-10-15T14:27:39Z</time>
      </trkpt>
      <trkpt lat="-22.028732" lon="-45.742613">
        <ele>820.981</ele>
        <time>2019-10-15T14:28:31Z</time>
      </trkpt>
      <trkpt lat="-22.028805" lon="-45.742609">
        <ele>821.119</ele>
        <time>2019-10-15T14:28:34Z</time>
      </trkpt>
      <trkpt lat="-22.028885" lon="-45.742618">
        <ele>821.608</ele>
        <time>2019-10-15T14:28:36Z</time>
      </trkpt>
      <trkpt lat="-22.028938" lon="-45.742618">
        <ele>821.983</ele>
        <time>2019-10-15T14:28:37Z</time>
      </trkpt>
      <trkpt lat="-22.029013" lon="-45.742615">
        <ele>822.021</ele>
        <time>2019-10-15T14:28:40Z</time>
      </trkpt>
      <trkpt lat="-22.029087" lon="-45.742615">
        <ele>822.464</ele>
        <time>2019-10-15T14:28:42Z</time>
      </trkpt>
      <trkpt lat="-22.029157" lon="-45.742622">
        <ele>822.849</ele>
        <time>2019-10-15T14:28:44Z</time>
      </trkpt>
      <trkpt lat="-22.029228" lon="-45.742631">
        <ele>823.399</ele>
        <time>2019-10-15T14:28:46Z</time>
      </trkpt>
      <trkpt lat="-22.029286" lon="-45.742641">
        <ele>823.459</ele>
        <time>2019-10-15T14:28:49Z</time>
      </trkpt>
      <trkpt lat="-22.029335" lon="-45.742642">
        <ele>823.714</ele>
        <time>2019-10-15T14:28:50Z</time>
      </trkpt>
      <trkpt lat="-22.029387" lon="-45.742633">
        <ele>823.853</ele>
        <time>2019-10-15T14:28:52Z</time>
      </trkpt>
      <trkpt lat="-22.029433" lon="-45.742626">
        <ele>824.043</ele>
        <time>2019-10-15T14:28:54Z</time>
      </trkpt>
      <trkpt lat="-22.029501" lon="-45.742623">
        <ele>824.064</ele>
        <time>2019-10-15T14:28:56Z</time>
      </trkpt>
      <trkpt lat="-22.029548" lon="-45.742616">
        <ele>824.310</ele>
        <time>2019-10-15T14:28:58Z</time>
      </trkpt>
      <trkpt lat="-22.029600" lon="-45.742607">
        <ele>824.408</ele>
        <time>2019-10-15T14:28:59Z</time>
      </trkpt>
      <trkpt lat="-22.029680" lon="-45.742587">
        <ele>824.628</ele>
        <time>2019-10-15T14:29:02Z</time>
      </trkpt>
      <trkpt lat="-22.029729" lon="-45.742576">
        <ele>824.826</ele>
        <time>2019-10-15T14:29:03Z</time>
      </trkpt>
      <trkpt lat="-22.029792" lon="-45.742565">
        <ele>825.219</ele>
        <time>2019-10-15T14:29:05Z</time>
      </trkpt>
      <trkpt lat="-22.029856" lon="-45.742557">
        <ele>825.234</ele>
        <time>2019-10-15T14:29:07Z</time>
      </trkpt>
      <trkpt lat="-22.029919" lon="-45.742547">
        <ele>825.124</ele>
        <time>2019-10-15T14:29:09Z</time>
      </trkpt>
      <trkpt lat="-22.029968" lon="-45.742535">
        <ele>824.974</ele>
        <time>2019-10-15T14:29:11Z</time>
      </trkpt>
      <trkpt lat="-22.030038" lon="-45.742516">
        <ele>824.979</ele>
        <time>2019-10-15T14:29:13Z</time>
      </trkpt>
      <trkpt lat="-22.030089" lon="-45.742503">
        <ele>825.268</ele>
        <time>2019-10-15T14:29:14Z</time>
      </trkpt>
      <trkpt lat="-22.030146" lon="-45.742486">
        <ele>825.449</ele>
        <time>2019-10-15T14:29:17Z</time>
      </trkpt>
      <trkpt lat="-22.030212" lon="-45.742455">
        <ele>825.602</ele>
        <time>2019-10-15T14:29:19Z</time>
      </trkpt>
      <trkpt lat="-22.030263" lon="-45.742430">
        <ele>825.622</ele>
        <time>2019-10-15T14:29:21Z</time>
      </trkpt>
      <trkpt lat="-22.030317" lon="-45.742407">
        <ele>825.808</ele>
        <time>2019-10-15T14:29:23Z</time>
      </trkpt>
      <trkpt lat="-22.030364" lon="-45.742382">
        <ele>826.278</ele>
        <time>2019-10-15T14:29:24Z</time>
      </trkpt>
      <trkpt lat="-22.030407" lon="-45.742353">
        <ele>826.426</ele>
        <time>2019-10-15T14:29:26Z</time>
      </trkpt>
      <trkpt lat="-22.030472" lon="-45.742306">
        <ele>826.519</ele>
        <time>2019-10-15T14:29:28Z</time>
      </trkpt>
      <trkpt lat="-22.030513" lon="-45.742271">
        <ele>826.514</ele>
        <time>2019-10-15T14:29:29Z</time>
      </trkpt>
      <trkpt lat="-22.030566" lon="-45.742223">
        <ele>826.964</ele>
        <time>2019-10-15T14:29:32Z</time>
      </trkpt>
      <trkpt lat="-22.030630" lon="-45.742172">
        <ele>826.814</ele>
        <time>2019-10-15T14:29:34Z</time>
      </trkpt>
      <trkpt lat="-22.030673" lon="-45.742136">
        <ele>827.099</ele>
        <time>2019-10-15T14:29:36Z</time>
      </trkpt>
      <trkpt lat="-22.030751" lon="-45.742062">
        <ele>827.888</ele>
        <time>2019-10-15T14:29:39Z</time>
      </trkpt>
      <trkpt lat="-22.030802" lon="-45.742016">
        <ele>827.917</ele>
        <time>2019-10-15T14:29:41Z</time>
      </trkpt>
      <trkpt lat="-22.030837" lon="-45.741982">
        <ele>827.987</ele>
        <time>2019-10-15T14:29:42Z</time>
      </trkpt>
      <trkpt lat="-22.030875" lon="-45.741938">
        <ele>827.915</ele>
        <time>2019-10-15T14:29:45Z</time>
      </trkpt>
      <trkpt lat="-22.030913" lon="-45.741896">
        <ele>828.508</ele>
        <time>2019-10-15T14:29:47Z</time>
      </trkpt>
      <trkpt lat="-22.030964" lon="-45.741846">
        <ele>828.815</ele>
        <time>2019-10-15T14:29:49Z</time>
      </trkpt>
      <trkpt lat="-22.031002" lon="-45.741806">
        <ele>829.153</ele>
        <time>2019-10-15T14:29:52Z</time>
      </trkpt>
      <trkpt lat="-22.031045" lon="-45.741754">
        <ele>829.516</ele>
        <time>2019-10-15T14:29:55Z</time>
      </trkpt>
      <trkpt lat="-22.031087" lon="-45.741719">
        <ele>829.461</ele>
        <time>2019-10-15T14:29:57Z</time>
      </trkpt>
      <trkpt lat="-22.031128" lon="-45.741686">
        <ele>829.941</ele>
        <time>2019-10-15T14:29:59Z</time>
      </trkpt>
      <trkpt lat="-22.031168" lon="-45.741637">
        <ele>830.051</ele>
        <time>2019-10-15T14:30:02Z</time>
      </trkpt>
      <trkpt lat="-22.031203" lon="-45.741599">
        <ele>830.246</ele>
        <time>2019-10-15T14:30:03Z</time>
      </trkpt>
      <trkpt lat="-22.031237" lon="-45.741560">
        <ele>830.235</ele>
        <time>2019-10-15T14:30:06Z</time>
      </trkpt>
      <trkpt lat="-22.031273" lon="-45.741512">
        <ele>830.642</ele>
        <time>2019-10-15T14:30:08Z</time>
      </trkpt>
      <trkpt lat="-22.031304" lon="-45.741473">
        <ele>831.122</ele>
        <time>2019-10-15T14:30:09Z</time>
      </trkpt>
      <trkpt lat="-22.031344" lon="-45.741423">
        <ele>831.414</ele>
        <time>2019-10-15T14:30:12Z</time>
      </trkpt>
      <trkpt lat="-22.031377" lon="-45.741383">
        <ele>831.508</ele>
        <time>2019-10-15T14:30:13Z</time>
      </trkpt>
      <trkpt lat="-22.031415" lon="-45.741332">
        <ele>831.658</ele>
        <time>2019-10-15T14:30:15Z</time>
      </trkpt>
      <trkpt lat="-22.031446" lon="-45.741275">
        <ele>831.556</ele>
        <time>2019-10-15T14:30:17Z</time>
      </trkpt>
      <trkpt lat="-22.031481" lon="-45.741217">
        <ele>831.969</ele>
        <time>2019-10-15T14:30:20Z</time>
      </trkpt>
      <trkpt lat="-22.031531" lon="-45.741168">
        <ele>832.124</ele>
        <time>2019-10-15T14:30:22Z</time>
      </trkpt>
      <trkpt lat="-22.031563" lon="-45.741106">
        <ele>832.394</ele>
        <time>2019-10-15T14:30:24Z</time>
      </trkpt>
      <trkpt lat="-22.031587" lon="-45.741045">
        <ele>832.234</ele>
        <time>2019-10-15T14:30:26Z</time>
      </trkpt>
      <trkpt lat="-22.031604" lon="-45.740980">
        <ele>832.419</ele>
        <time>2019-10-15T14:30:29Z</time>
      </trkpt>
      <trkpt lat="-22.031617" lon="-45.740923">
        <ele>832.438</ele>
        <time>2019-10-15T14:30:31Z</time>
      </trkpt>
      <trkpt lat="-22.031639" lon="-45.740865">
        <ele>832.612</ele>
        <time>2019-10-15T14:30:33Z</time>
      </trkpt>
      <trkpt lat="-22.031656" lon="-45.740819">
        <ele>832.532</ele>
        <time>2019-10-15T14:30:35Z</time>
      </trkpt>
      <trkpt lat="-22.031687" lon="-45.740751">
        <ele>832.605</ele>
        <time>2019-10-15T14:30:38Z</time>
      </trkpt>
      <trkpt lat="-22.031707" lon="-45.740697">
        <ele>832.808</ele>
        <time>2019-10-15T14:30:40Z</time>
      </trkpt>
      <trkpt lat="-22.031723" lon="-45.740642">
        <ele>832.885</ele>
        <time>2019-10-15T14:30:42Z</time>
      </trkpt>
      <trkpt lat="-22.031741" lon="-45.740591">
        <ele>833.173</ele>
        <time>2019-10-15T14:30:43Z</time>
      </trkpt>
      <trkpt lat="-22.031759" lon="-45.740530">
        <ele>833.076</ele>
        <time>2019-10-15T14:30:46Z</time>
      </trkpt>
      <trkpt lat="-22.031782" lon="-45.740483">
        <ele>833.011</ele>
        <time>2019-10-15T14:30:47Z</time>
      </trkpt>
      <trkpt lat="-22.031812" lon="-45.740414">
        <ele>833.081</ele>
        <time>2019-10-15T14:30:50Z</time>
      </trkpt>
      <trkpt lat="-22.031832" lon="-45.740347">
        <ele>833.231</ele>
        <time>2019-10-15T14:30:52Z</time>
      </trkpt>
      <trkpt lat="-22.031851" lon="-45.740300">
        <ele>833.486</ele>
        <time>2019-10-15T14:30:53Z</time>
      </trkpt>
      <trkpt lat="-22.031869" lon="-45.740238">
        <ele>833.925</ele>
        <time>2019-10-15T14:30:55Z</time>
      </trkpt>
      <trkpt lat="-22.031892" lon="-45.740166">
        <ele>833.773</ele>
        <time>2019-10-15T14:30:58Z</time>
      </trkpt>
      <trkpt lat="-22.031913" lon="-45.740116">
        <ele>833.985</ele>
        <time>2019-10-15T14:31:00Z</time>
      </trkpt>
      <trkpt lat="-22.031931" lon="-45.740049">
        <ele>834.213</ele>
        <time>2019-10-15T14:31:02Z</time>
      </trkpt>
      <trkpt lat="-22.031949" lon="-45.739990">
        <ele>834.408</ele>
        <time>2019-10-15T14:31:04Z</time>
      </trkpt>
      <trkpt lat="-22.031964" lon="-45.739938">
        <ele>834.311</ele>
        <time>2019-10-15T14:31:05Z</time>
      </trkpt>
      <trkpt lat="-22.031993" lon="-45.739878">
        <ele>834.539</ele>
        <time>2019-10-15T14:31:07Z</time>
      </trkpt>
      <trkpt lat="-22.032012" lon="-45.739833">
        <ele>834.712</ele>
        <time>2019-10-15T14:31:09Z</time>
      </trkpt>
      <trkpt lat="-22.032032" lon="-45.739789">
        <ele>834.957</ele>
        <time>2019-10-15T14:31:11Z</time>
      </trkpt>
      <trkpt lat="-22.032050" lon="-45.739738">
        <ele>834.727</ele>
        <time>2019-10-15T14:31:12Z</time>
      </trkpt>
      <trkpt lat="-22.032079" lon="-45.739680">
        <ele>835.097</ele>
        <time>2019-10-15T14:31:15Z</time>
      </trkpt>
      <trkpt lat="-22.032110" lon="-45.739614">
        <ele>835.272</ele>
        <time>2019-10-15T14:31:17Z</time>
      </trkpt>
      <trkpt lat="-22.032137" lon="-45.739556">
        <ele>835.511</ele>
        <time>2019-10-15T14:31:19Z</time>
      </trkpt>
      <trkpt lat="-22.032158" lon="-45.739513">
        <ele>835.778</ele>
        <time>2019-10-15T14:31:21Z</time>
      </trkpt>
      <trkpt lat="-22.032178" lon="-45.739462">
        <ele>836.133</ele>
        <time>2019-10-15T14:31:23Z</time>
      </trkpt>
      <trkpt lat="-22.032207" lon="-45.739420">
        <ele>836.326</ele>
        <time>2019-10-15T14:31:24Z</time>
      </trkpt>
      <trkpt lat="-22.032236" lon="-45.739372">
        <ele>836.708</ele>
        <time>2019-10-15T14:31:27Z</time>
      </trkpt>
      <trkpt lat="-22.032281" lon="-45.739287">
        <ele>837.191</ele>
        <time>2019-10-15T14:31:30Z</time>
      </trkpt>
      <trkpt lat="-22.032317" lon="-45.739227">
        <ele>837.399</ele>
        <time>2019-10-15T14:31:33Z</time>
      </trkpt>
      <trkpt lat="-22.032343" lon="-45.739183">
        <ele>837.752</ele>
        <time>2019-10-15T14:31:35Z</time>
      </trkpt>
      <trkpt lat="-22.032374" lon="-45.739135">
        <ele>838.097</ele>
        <time>2019-10-15T14:31:37Z</time>
      </trkpt>
      <trkpt lat="-22.032406" lon="-45.739099">
        <ele>838.247</ele>
        <time>2019-10-15T14:31:39Z</time>
      </trkpt>
      <trkpt lat="-22.032434" lon="-45.739054">
        <ele>838.137</ele>
        <time>2019-10-15T14:31:41Z</time>
      </trkpt>
      <trkpt lat="-22.032469" lon="-45.739004">
        <ele>838.372</ele>
        <time>2019-10-15T14:31:44Z</time>
      </trkpt>
      <trkpt lat="-22.032502" lon="-45.738962">
        <ele>838.721</ele>
        <time>2019-10-15T14:31:46Z</time>
      </trkpt>
      <trkpt lat="-22.032543" lon="-45.738898">
        <ele>838.799</ele>
        <time>2019-10-15T14:31:50Z</time>
      </trkpt>
      <trkpt lat="-22.032575" lon="-45.738854">
        <ele>838.907</ele>
        <time>2019-10-15T14:31:52Z</time>
      </trkpt>
      <trkpt lat="-22.032606" lon="-45.738811">
        <ele>839.227</ele>
        <time>2019-10-15T14:31:54Z</time>
      </trkpt>
      <trkpt lat="-22.032638" lon="-45.738758">
        <ele>839.808</ele>
        <time>2019-10-15T14:31:57Z</time>
      </trkpt>
      <trkpt lat="-22.032677" lon="-45.738700">
        <ele>840.343</ele>
        <time>2019-10-15T14:32:00Z</time>
      </trkpt>
      <trkpt lat="-22.032697" lon="-45.738655">
        <ele>840.571</ele>
        <time>2019-10-15T14:32:03Z</time>
      </trkpt>
      <trkpt lat="-22.032732" lon="-45.738609">
        <ele>840.714</ele>
        <time>2019-10-15T14:32:05Z</time>
      </trkpt>
      <trkpt lat="-22.032774" lon="-45.738534">
        <ele>840.969</ele>
        <time>2019-10-15T14:32:08Z</time>
      </trkpt>
      <trkpt lat="-22.032798" lon="-45.738482">
        <ele>841.179</ele>
        <time>2019-10-15T14:32:11Z</time>
      </trkpt>
      <trkpt lat="-22.032835" lon="-45.738423">
        <ele>841.579</ele>
        <time>2019-10-15T14:32:13Z</time>
      </trkpt>
      <trkpt lat="-22.032857" lon="-45.738371">
        <ele>841.864</ele>
        <time>2019-10-15T14:32:16Z</time>
      </trkpt>
      <trkpt lat="-22.032885" lon="-45.738324">
        <ele>842.183</ele>
        <time>2019-10-15T14:32:18Z</time>
      </trkpt>
      <trkpt lat="-22.032915" lon="-45.738276">
        <ele>842.159</ele>
        <time>2019-10-15T14:32:20Z</time>
      </trkpt>
      <trkpt lat="-22.032954" lon="-45.738226">
        <ele>842.303</ele>
        <time>2019-10-15T14:32:23Z</time>
      </trkpt>
      <trkpt lat="-22.032991" lon="-45.738185">
        <ele>842.523</ele>
        <time>2019-10-15T14:32:25Z</time>
      </trkpt>
      <trkpt lat="-22.033028" lon="-45.738119">
        <ele>842.808</ele>
        <time>2019-10-15T14:32:28Z</time>
      </trkpt>
      <trkpt lat="-22.033054" lon="-45.738080">
        <ele>842.799</ele>
        <time>2019-10-15T14:32:29Z</time>
      </trkpt>
      <trkpt lat="-22.033092" lon="-45.738039">
        <ele>843.427</ele>
        <time>2019-10-15T14:32:32Z</time>
      </trkpt>
      <trkpt lat="-22.033129" lon="-45.737998">
        <ele>843.530</ele>
        <time>2019-10-15T14:32:34Z</time>
      </trkpt>
      <trkpt lat="-22.033175" lon="-45.737948">
        <ele>843.255</ele>
        <time>2019-10-15T14:32:36Z</time>
      </trkpt>
      <trkpt lat="-22.033206" lon="-45.737902">
        <ele>844.035</ele>
        <time>2019-10-15T14:32:39Z</time>
      </trkpt>
      <trkpt lat="-22.033237" lon="-45.737860">
        <ele>843.965</ele>
        <time>2019-10-15T14:32:41Z</time>
      </trkpt>
      <trkpt lat="-22.033276" lon="-45.737812">
        <ele>844.310</ele>
        <time>2019-10-15T14:32:44Z</time>
      </trkpt>
      <trkpt lat="-22.033320" lon="-45.737752">
        <ele>844.399</ele>
        <time>2019-10-15T14:32:47Z</time>
      </trkpt>
      <trkpt lat="-22.033356" lon="-45.737707">
        <ele>844.346</ele>
        <time>2019-10-15T14:32:49Z</time>
      </trkpt>
      <trkpt lat="-22.033404" lon="-45.737646">
        <ele>845.088</ele>
        <time>2019-10-15T14:32:52Z</time>
      </trkpt>
      <trkpt lat="-22.033445" lon="-45.737594">
        <ele>844.616</ele>
        <time>2019-10-15T14:32:54Z</time>
      </trkpt>
      <trkpt lat="-22.033491" lon="-45.737515">
        <ele>845.108</ele>
        <time>2019-10-15T14:32:57Z</time>
      </trkpt>
      <trkpt lat="-22.033533" lon="-45.737453">
        <ele>845.268</ele>
        <time>2019-10-15T14:33:00Z</time>
      </trkpt>
      <trkpt lat="-22.033574" lon="-45.737391">
        <ele>845.786</ele>
        <time>2019-10-15T14:33:02Z</time>
      </trkpt>
      <trkpt lat="-22.033604" lon="-45.737344">
        <ele>845.889</ele>
        <time>2019-10-15T14:33:05Z</time>
      </trkpt>
      <trkpt lat="-22.033636" lon="-45.737307">
        <ele>846.354</ele>
        <time>2019-10-15T14:33:07Z</time>
      </trkpt>
      <trkpt lat="-22.033667" lon="-45.737265">
        <ele>846.534</ele>
        <time>2019-10-15T14:33:09Z</time>
      </trkpt>
      <trkpt lat="-22.033694" lon="-45.737222">
        <ele>847.034</ele>
        <time>2019-10-15T14:33:12Z</time>
      </trkpt>
      <trkpt lat="-22.033717" lon="-45.737178">
        <ele>847.349</ele>
        <time>2019-10-15T14:33:14Z</time>
      </trkpt>
      <trkpt lat="-22.033749" lon="-45.737124">
        <ele>847.818</ele>
        <time>2019-10-15T14:33:18Z</time>
      </trkpt>
      <trkpt lat="-22.033774" lon="-45.737069">
        <ele>848.377</ele>
        <time>2019-10-15T14:33:22Z</time>
      </trkpt>
      <trkpt lat="-22.033793" lon="-45.737018">
        <ele>849.161</ele>
        <time>2019-10-15T14:33:25Z</time>
      </trkpt>
      <trkpt lat="-22.033818" lon="-45.736947">
        <ele>849.627</ele>
        <time>2019-10-15T14:33:28Z</time>
      </trkpt>
      <trkpt lat="-22.033835" lon="-45.736898">
        <ele>849.808</ele>
        <time>2019-10-15T14:33:31Z</time>
      </trkpt>
      <trkpt lat="-22.033863" lon="-45.736829">
        <ele>850.521</ele>
        <time>2019-10-15T14:33:34Z</time>
      </trkpt>
      <trkpt lat="-22.033895" lon="-45.736756">
        <ele>851.029</ele>
        <time>2019-10-15T14:33:38Z</time>
      </trkpt>
      <trkpt lat="-22.033906" lon="-45.736708">
        <ele>851.692</ele>
        <time>2019-10-15T14:33:41Z</time>
      </trkpt>
      <trkpt lat="-22.033916" lon="-45.736643">
        <ele>852.567</ele>
        <time>2019-10-15T14:33:44Z</time>
      </trkpt>
      <trkpt lat="-22.033931" lon="-45.736590">
        <ele>853.047</ele>
        <time>2019-10-15T14:33:47Z</time>
      </trkpt>
      <trkpt lat="-22.033937" lon="-45.736533">
        <ele>853.477</ele>
        <time>2019-10-15T14:33:50Z</time>
      </trkpt>
      <trkpt lat="-22.033949" lon="-45.736456">
        <ele>854.182</ele>
        <time>2019-10-15T14:33:53Z</time>
      </trkpt>
      <trkpt lat="-22.033952" lon="-45.736398">
        <ele>854.151</ele>
        <time>2019-10-15T14:33:56Z</time>
      </trkpt>
      <trkpt lat="-22.033972" lon="-45.736336">
        <ele>854.492</ele>
        <time>2019-10-15T14:33:59Z</time>
      </trkpt>
      <trkpt lat="-22.033984" lon="-45.736271">
        <ele>855.073</ele>
        <time>2019-10-15T14:34:02Z</time>
      </trkpt>
      <trkpt lat="-22.034003" lon="-45.736225">
        <ele>855.220</ele>
        <time>2019-10-15T14:34:03Z</time>
      </trkpt>
      <trkpt lat="-22.034037" lon="-45.736164">
        <ele>855.508</ele>
        <time>2019-10-15T14:34:07Z</time>
      </trkpt>
      <trkpt lat="-22.034054" lon="-45.736118">
        <ele>855.423</ele>
        <time>2019-10-15T14:34:09Z</time>
      </trkpt>
      <trkpt lat="-22.034088" lon="-45.736062">
        <ele>855.341</ele>
        <time>2019-10-15T14:34:12Z</time>
      </trkpt>
      <trkpt lat="-22.034118" lon="-45.736020">
        <ele>855.844</ele>
        <time>2019-10-15T14:34:14Z</time>
      </trkpt>
      <trkpt lat="-22.034150" lon="-45.735972">
        <ele>856.249</ele>
        <time>2019-10-15T14:34:16Z</time>
      </trkpt>
      <trkpt lat="-22.034184" lon="-45.735932">
        <ele>856.919</ele>
        <time>2019-10-15T14:34:19Z</time>
      </trkpt>
      <trkpt lat="-22.034230" lon="-45.735893">
        <ele>857.039</ele>
        <time>2019-10-15T14:34:22Z</time>
      </trkpt>
      <trkpt lat="-22.034272" lon="-45.735854">
        <ele>857.564</ele>
        <time>2019-10-15T14:34:25Z</time>
      </trkpt>
      <trkpt lat="-22.034319" lon="-45.735815">
        <ele>858.033</ele>
        <time>2019-10-15T14:34:29Z</time>
      </trkpt>
      <trkpt lat="-22.034374" lon="-45.735772">
        <ele>858.539</ele>
        <time>2019-10-15T14:34:32Z</time>
      </trkpt>
      <trkpt lat="-22.034421" lon="-45.735734">
        <ele>858.701</ele>
        <time>2019-10-15T14:34:35Z</time>
      </trkpt>
      <trkpt lat="-22.034461" lon="-45.735707">
        <ele>859.321</ele>
        <time>2019-10-15T14:34:38Z</time>
      </trkpt>
      <trkpt lat="-22.034498" lon="-45.735674">
        <ele>859.208</ele>
        <time>2019-10-15T14:34:41Z</time>
      </trkpt>
      <trkpt lat="-22.034540" lon="-45.735635">
        <ele>860.047</ele>
        <time>2019-10-15T14:34:44Z</time>
      </trkpt>
      <trkpt lat="-22.034570" lon="-45.735596">
        <ele>860.345</ele>
        <time>2019-10-15T14:34:46Z</time>
      </trkpt>
      <trkpt lat="-22.034612" lon="-45.735533">
        <ele>860.948</ele>
        <time>2019-10-15T14:34:49Z</time>
      </trkpt>
      <trkpt lat="-22.034659" lon="-45.735482">
        <ele>861.543</ele>
        <time>2019-10-15T14:34:52Z</time>
      </trkpt>
      <trkpt lat="-22.034718" lon="-45.735412">
        <ele>862.393</ele>
        <time>2019-10-15T14:34:56Z</time>
      </trkpt>
      <trkpt lat="-22.034745" lon="-45.735373">
        <ele>862.773</ele>
        <time>2019-10-15T14:34:58Z</time>
      </trkpt>
      <trkpt lat="-22.034778" lon="-45.735318">
        <ele>863.248</ele>
        <time>2019-10-15T14:35:01Z</time>
      </trkpt>
      <trkpt lat="-22.034811" lon="-45.735274">
        <ele>863.687</ele>
        <time>2019-10-15T14:35:03Z</time>
      </trkpt>
      <trkpt lat="-22.034841" lon="-45.735235">
        <ele>864.018</ele>
        <time>2019-10-15T14:35:06Z</time>
      </trkpt>
      <trkpt lat="-22.034871" lon="-45.735191">
        <ele>864.698</ele>
        <time>2019-10-15T14:35:09Z</time>
      </trkpt>
      <trkpt lat="-22.034898" lon="-45.735130">
        <ele>865.217</ele>
        <time>2019-10-15T14:35:12Z</time>
      </trkpt>
      <trkpt lat="-22.034918" lon="-45.735075">
        <ele>865.508</ele>
        <time>2019-10-15T14:35:15Z</time>
      </trkpt>
      <trkpt lat="-22.034939" lon="-45.735011">
        <ele>866.355</ele>
        <time>2019-10-15T14:35:18Z</time>
      </trkpt>
      <trkpt lat="-22.034954" lon="-45.734960">
        <ele>866.523</ele>
        <time>2019-10-15T14:35:22Z</time>
      </trkpt>
      <trkpt lat="-22.034961" lon="-45.734901">
        <ele>866.966</ele>
        <time>2019-10-15T14:35:25Z</time>
      </trkpt>
      <trkpt lat="-22.034973" lon="-45.734818">
        <ele>867.781</ele>
        <time>2019-10-15T14:35:30Z</time>
      </trkpt>
      <trkpt lat="-22.034977" lon="-45.734762">
        <ele>868.241</ele>
        <time>2019-10-15T14:35:32Z</time>
      </trkpt>
      <trkpt lat="-22.034980" lon="-45.734696">
        <ele>868.161</ele>
        <time>2019-10-15T14:35:34Z</time>
      </trkpt>
      <trkpt lat="-22.034985" lon="-45.734627">
        <ele>869.186</ele>
        <time>2019-10-15T14:35:38Z</time>
      </trkpt>
      <trkpt lat="-22.034976" lon="-45.734574">
        <ele>869.655</ele>
        <time>2019-10-15T14:35:40Z</time>
      </trkpt>
      <trkpt lat="-22.034976" lon="-45.734517">
        <ele>870.144</ele>
        <time>2019-10-15T14:35:44Z</time>
      </trkpt>
      <trkpt lat="-22.034983" lon="-45.734453">
        <ele>870.605</ele>
        <time>2019-10-15T14:35:47Z</time>
      </trkpt>
      <trkpt lat="-22.034993" lon="-45.734397">
        <ele>871.015</ele>
        <time>2019-10-15T14:35:51Z</time>
      </trkpt>
      <trkpt lat="-22.035000" lon="-45.734344">
        <ele>871.008</ele>
        <time>2019-10-15T14:35:54Z</time>
      </trkpt>
      <trkpt lat="-22.035009" lon="-45.734288">
        <ele>871.278</ele>
        <time>2019-10-15T14:35:57Z</time>
      </trkpt>
      <trkpt lat="-22.035036" lon="-45.734216">
        <ele>871.446</ele>
        <time>2019-10-15T14:36:00Z</time>
      </trkpt>
      <trkpt lat="-22.035067" lon="-45.734162">
        <ele>872.169</ele>
        <time>2019-10-15T14:36:03Z</time>
      </trkpt>
      <trkpt lat="-22.035102" lon="-45.734113">
        <ele>872.144</ele>
        <time>2019-10-15T14:36:06Z</time>
      </trkpt>
      <trkpt lat="-22.035146" lon="-45.734062">
        <ele>872.844</ele>
        <time>2019-10-15T14:36:09Z</time>
      </trkpt>
      <trkpt lat="-22.035182" lon="-45.734021">
        <ele>872.984</ele>
        <time>2019-10-15T14:36:11Z</time>
      </trkpt>
      <trkpt lat="-22.035217" lon="-45.733977">
        <ele>873.399</ele>
        <time>2019-10-15T14:36:14Z</time>
      </trkpt>
      <trkpt lat="-22.035251" lon="-45.733939">
        <ele>873.418</ele>
        <time>2019-10-15T14:36:16Z</time>
      </trkpt>
      <trkpt lat="-22.035285" lon="-45.733902">
        <ele>874.174</ele>
        <time>2019-10-15T14:36:20Z</time>
      </trkpt>
      <trkpt lat="-22.035324" lon="-45.733851">
        <ele>874.556</ele>
        <time>2019-10-15T14:36:23Z</time>
      </trkpt>
      <trkpt lat="-22.035362" lon="-45.733814">
        <ele>874.821</ele>
        <time>2019-10-15T14:36:26Z</time>
      </trkpt>
      <trkpt lat="-22.035398" lon="-45.733773">
        <ele>875.408</ele>
        <time>2019-10-15T14:36:29Z</time>
      </trkpt>
      <trkpt lat="-22.035429" lon="-45.733737">
        <ele>875.881</ele>
        <time>2019-10-15T14:36:31Z</time>
      </trkpt>
      <trkpt lat="-22.035467" lon="-45.733693">
        <ele>876.699</ele>
        <time>2019-10-15T14:36:35Z</time>
      </trkpt>
      <trkpt lat="-22.035503" lon="-45.733658">
        <ele>876.742</ele>
        <time>2019-10-15T14:36:37Z</time>
      </trkpt>
      <trkpt lat="-22.035535" lon="-45.733618">
        <ele>877.247</ele>
        <time>2019-10-15T14:36:41Z</time>
      </trkpt>
      <trkpt lat="-22.035560" lon="-45.733577">
        <ele>877.537</ele>
        <time>2019-10-15T14:36:44Z</time>
      </trkpt>
      <trkpt lat="-22.035598" lon="-45.733524">
        <ele>877.957</ele>
        <time>2019-10-15T14:36:48Z</time>
      </trkpt>
      <trkpt lat="-22.035631" lon="-45.733485">
        <ele>878.562</ele>
        <time>2019-10-15T14:36:51Z</time>
      </trkpt>
      <trkpt lat="-22.035674" lon="-45.733433">
        <ele>879.221</ele>
        <time>2019-10-15T14:36:55Z</time>
      </trkpt>
      <trkpt lat="-22.035712" lon="-45.733391">
        <ele>879.773</ele>
        <time>2019-10-15T14:36:58Z</time>
      </trkpt>
      <trkpt lat="-22.035768" lon="-45.733341">
        <ele>880.185</ele>
        <time>2019-10-15T14:37:02Z</time>
      </trkpt>
      <trkpt lat="-22.035819" lon="-45.733310">
        <ele>880.413</ele>
        <time>2019-10-15T14:37:06Z</time>
      </trkpt>
      <trkpt lat="-22.035876" lon="-45.733269">
        <ele>880.708</ele>
        <time>2019-10-15T14:37:09Z</time>
      </trkpt>
      <trkpt lat="-22.035921" lon="-45.733241">
        <ele>881.071</ele>
        <time>2019-10-15T14:37:12Z</time>
      </trkpt>
      <trkpt lat="-22.035966" lon="-45.733214">
        <ele>881.399</ele>
        <time>2019-10-15T14:37:15Z</time>
      </trkpt>
      <trkpt lat="-22.036014" lon="-45.733180">
        <ele>881.892</ele>
        <time>2019-10-15T14:37:17Z</time>
      </trkpt>
      <trkpt lat="-22.036056" lon="-45.733156">
        <ele>882.147</ele>
        <time>2019-10-15T14:37:19Z</time>
      </trkpt>
      <trkpt lat="-22.036098" lon="-45.733132">
        <ele>882.297</ele>
        <time>2019-10-15T14:37:22Z</time>
      </trkpt>
      <trkpt lat="-22.036150" lon="-45.733099">
        <ele>882.357</ele>
        <time>2019-10-15T14:37:25Z</time>
      </trkpt>
      <trkpt lat="-22.036199" lon="-45.733070">
        <ele>882.862</ele>
        <time>2019-10-15T14:37:27Z</time>
      </trkpt>
      <trkpt lat="-22.036243" lon="-45.733052">
        <ele>882.951</ele>
        <time>2019-10-15T14:37:30Z</time>
      </trkpt>
      <trkpt lat="-22.036302" lon="-45.733016">
        <ele>883.777</ele>
        <time>2019-10-15T14:37:34Z</time>
      </trkpt>
      <trkpt lat="-22.036345" lon="-45.732991">
        <ele>883.861</ele>
        <time>2019-10-15T14:37:36Z</time>
      </trkpt>
      <trkpt lat="-22.036390" lon="-45.732961">
        <ele>884.527</ele>
        <time>2019-10-15T14:37:38Z</time>
      </trkpt>
      <trkpt lat="-22.036442" lon="-45.732933">
        <ele>885.008</ele>
        <time>2019-10-15T14:37:42Z</time>
      </trkpt>
      <trkpt lat="-22.036493" lon="-45.732911">
        <ele>885.351</ele>
        <time>2019-10-15T14:37:45Z</time>
      </trkpt>
      <trkpt lat="-22.036534" lon="-45.732881">
        <ele>885.659</ele>
        <time>2019-10-15T14:37:48Z</time>
      </trkpt>
      <trkpt lat="-22.036586" lon="-45.732852">
        <ele>886.022</ele>
        <time>2019-10-15T14:37:51Z</time>
      </trkpt>
      <trkpt lat="-22.036634" lon="-45.732831">
        <ele>886.497</ele>
        <time>2019-10-15T14:37:53Z</time>
      </trkpt>
      <trkpt lat="-22.036685" lon="-45.732799">
        <ele>886.557</ele>
        <time>2019-10-15T14:37:57Z</time>
      </trkpt>
      <trkpt lat="-22.036758" lon="-45.732753">
        <ele>887.357</ele>
        <time>2019-10-15T14:38:01Z</time>
      </trkpt>
      <trkpt lat="-22.036807" lon="-45.732733">
        <ele>887.472</ele>
        <time>2019-10-15T14:38:04Z</time>
      </trkpt>
      <trkpt lat="-22.036853" lon="-45.732708">
        <ele>887.931</ele>
        <time>2019-10-15T14:38:05Z</time>
      </trkpt>
      <trkpt lat="-22.036897" lon="-45.732684">
        <ele>888.268</ele>
        <time>2019-10-15T14:38:08Z</time>
      </trkpt>
      <trkpt lat="-22.036940" lon="-45.732658">
        <ele>888.642</ele>
        <time>2019-10-15T14:38:10Z</time>
      </trkpt>
      <trkpt lat="-22.036998" lon="-45.732629">
        <ele>888.826</ele>
        <time>2019-10-15T14:38:13Z</time>
      </trkpt>
      <trkpt lat="-22.037045" lon="-45.732601">
        <ele>888.908</ele>
        <time>2019-10-15T14:38:15Z</time>
      </trkpt>
      <trkpt lat="-22.037097" lon="-45.732582">
        <ele>889.230</ele>
        <time>2019-10-15T14:38:17Z</time>
      </trkpt>
      <trkpt lat="-22.037155" lon="-45.732558">
        <ele>889.848</ele>
        <time>2019-10-15T14:38:20Z</time>
      </trkpt>
      <trkpt lat="-22.037207" lon="-45.732545">
        <ele>890.061</ele>
        <time>2019-10-15T14:38:22Z</time>
      </trkpt>
      <trkpt lat="-22.037261" lon="-45.732563">
        <ele>890.136</ele>
        <time>2019-10-15T14:38:24Z</time>
      </trkpt>
      <trkpt lat="-22.037315" lon="-45.732559">
        <ele>890.216</ele>
        <time>2019-10-15T14:38:27Z</time>
      </trkpt>
      <trkpt lat="-22.037362" lon="-45.732558">
        <ele>890.316</ele>
        <time>2019-10-15T14:38:29Z</time>
      </trkpt>
      <trkpt lat="-22.037429" lon="-45.732562">
        <ele>890.441</ele>
        <time>2019-10-15T14:38:32Z</time>
      </trkpt>
      <trkpt lat="-22.037482" lon="-45.732559">
        <ele>890.620</ele>
        <time>2019-10-15T14:38:34Z</time>
      </trkpt>
      <trkpt lat="-22.037573" lon="-45.732555">
        <ele>890.517</ele>
        <time>2019-10-15T14:38:38Z</time>
      </trkpt>
      <trkpt lat="-22.037624" lon="-45.732558">
        <ele>890.587</ele>
        <time>2019-10-15T14:38:39Z</time>
      </trkpt>
      <trkpt lat="-22.037696" lon="-45.732561">
        <ele>890.415</ele>
        <time>2019-10-15T14:38:42Z</time>
      </trkpt>
      <trkpt lat="-22.037747" lon="-45.732556">
        <ele>890.108</ele>
        <time>2019-10-15T14:38:44Z</time>
      </trkpt>
      <trkpt lat="-22.037810" lon="-45.732553">
        <ele>889.925</ele>
        <time>2019-10-15T14:38:45Z</time>
      </trkpt>
      <trkpt lat="-22.037858" lon="-45.732548">
        <ele>889.333</ele>
        <time>2019-10-15T14:38:46Z</time>
      </trkpt>
      <trkpt lat="-22.039101" lon="-45.730578">
        <ele>887.516</ele>
        <time>2019-10-15T14:39:33Z</time>
      </trkpt>
      <trkpt lat="-22.039115" lon="-45.730527">
        <ele>887.791</ele>
        <time>2019-10-15T14:39:35Z</time>
      </trkpt>
      <trkpt lat="-22.039143" lon="-45.730447">
        <ele>887.741</ele>
        <time>2019-10-15T14:39:37Z</time>
      </trkpt>
      <trkpt lat="-22.039160" lon="-45.730388">
        <ele>887.721</ele>
        <time>2019-10-15T14:39:38Z</time>
      </trkpt>
      <trkpt lat="-22.039181" lon="-45.730336">
        <ele>887.956</ele>
        <time>2019-10-15T14:39:40Z</time>
      </trkpt>
      <trkpt lat="-22.039204" lon="-45.730288">
        <ele>888.025</ele>
        <time>2019-10-15T14:39:42Z</time>
      </trkpt>
      <trkpt lat="-22.039228" lon="-45.730228">
        <ele>888.539</ele>
        <time>2019-10-15T14:39:44Z</time>
      </trkpt>
      <trkpt lat="-22.039247" lon="-45.730178">
        <ele>888.501</ele>
        <time>2019-10-15T14:39:45Z</time>
      </trkpt>
      <trkpt lat="-22.039268" lon="-45.730124">
        <ele>888.121</ele>
        <time>2019-10-15T14:39:48Z</time>
      </trkpt>
      <trkpt lat="-22.039288" lon="-45.730075">
        <ele>887.608</ele>
        <time>2019-10-15T14:39:49Z</time>
      </trkpt>
      <trkpt lat="-22.039305" lon="-45.730023">
        <ele>887.947</ele>
        <time>2019-10-15T14:39:51Z</time>
      </trkpt>
      <trkpt lat="-22.039318" lon="-45.729970">
        <ele>887.765</ele>
        <time>2019-10-15T14:39:53Z</time>
      </trkpt>
      <trkpt lat="-22.039332" lon="-45.729910">
        <ele>887.498</ele>
        <time>2019-10-15T14:39:55Z</time>
      </trkpt>
      <trkpt lat="-22.039335" lon="-45.729852">
        <ele>887.713</ele>
        <time>2019-10-15T14:39:56Z</time>
      </trkpt>
      <trkpt lat="-22.039342" lon="-45.729790">
        <ele>888.273</ele>
        <time>2019-10-15T14:39:58Z</time>
      </trkpt>
      <trkpt lat="-22.039350" lon="-45.729735">
        <ele>888.553</ele>
        <time>2019-10-15T14:39:59Z</time>
      </trkpt>
      <trkpt lat="-22.039346" lon="-45.729662">
        <ele>888.348</ele>
        <time>2019-10-15T14:40:02Z</time>
      </trkpt>
      <trkpt lat="-22.039339" lon="-45.729598">
        <ele>888.587</ele>
        <time>2019-10-15T14:40:03Z</time>
      </trkpt>
      <trkpt lat="-22.039339" lon="-45.729598">
        <ele>888.578</ele>
        <time>2019-10-15T14:40:03Z</time>
      </trkpt>
      <trkpt lat="-22.039332" lon="-45.729536">
        <ele>888.333</ele>
        <time>2019-10-15T14:40:05Z</time>
      </trkpt>
      <trkpt lat="-22.039318" lon="-45.729482">
        <ele>888.526</ele>
        <time>2019-10-15T14:40:06Z</time>
      </trkpt>
      <trkpt lat="-22.039308" lon="-45.729428">
        <ele>888.608</ele>
        <time>2019-10-15T14:40:08Z</time>
      </trkpt>
      <trkpt lat="-22.039312" lon="-45.729378">
        <ele>888.561</ele>
        <time>2019-10-15T14:40:10Z</time>
      </trkpt>
      <trkpt lat="-22.039295" lon="-45.729329">
        <ele>888.919</ele>
        <time>2019-10-15T14:40:11Z</time>
      </trkpt>
      <trkpt lat="-22.039280" lon="-45.729273">
        <ele>889.462</ele>
        <time>2019-10-15T14:40:13Z</time>
      </trkpt>
      <trkpt lat="-22.039270" lon="-45.729204">
        <ele>890.087</ele>
        <time>2019-10-15T14:40:17Z</time>
      </trkpt>
      <trkpt lat="-22.039264" lon="-45.729155">
        <ele>890.167</ele>
        <time>2019-10-15T14:40:19Z</time>
      </trkpt>
      <trkpt lat="-22.039238" lon="-45.729056">
        <ele>890.577</ele>
        <time>2019-10-15T14:40:23Z</time>
      </trkpt>
      <trkpt lat="-22.039221" lon="-45.728969">
        <ele>891.232</ele>
        <time>2019-10-15T14:40:26Z</time>
      </trkpt>
      <trkpt lat="-22.039205" lon="-45.728898">
        <ele>891.731</ele>
        <time>2019-10-15T14:40:29Z</time>
      </trkpt>
      <trkpt lat="-22.039183" lon="-45.728848">
        <ele>892.125</ele>
        <time>2019-10-15T14:40:30Z</time>
      </trkpt>
      <trkpt lat="-22.039173" lon="-45.728791">
        <ele>892.126</ele>
        <time>2019-10-15T14:40:33Z</time>
      </trkpt>
      <trkpt lat="-22.039159" lon="-45.728744">
        <ele>892.108</ele>
        <time>2019-10-15T14:40:35Z</time>
      </trkpt>
      <trkpt lat="-22.039144" lon="-45.728680">
        <ele>892.108</ele>
        <time>2019-10-15T14:40:38Z</time>
      </trkpt>
      <trkpt lat="-22.039124" lon="-45.728629">
        <ele>892.186</ele>
        <time>2019-10-15T14:40:40Z</time>
      </trkpt>
      <trkpt lat="-22.039108" lon="-45.728557">
        <ele>891.874</ele>
        <time>2019-10-15T14:40:42Z</time>
      </trkpt>
      <trkpt lat="-22.039084" lon="-45.728489">
        <ele>891.627</ele>
        <time>2019-10-15T14:40:45Z</time>
      </trkpt>
      <trkpt lat="-22.039067" lon="-45.728432">
        <ele>891.622</ele>
        <time>2019-10-15T14:40:46Z</time>
      </trkpt>
      <trkpt lat="-22.039037" lon="-45.728361">
        <ele>891.782</ele>
        <time>2019-10-15T14:40:49Z</time>
      </trkpt>
      <trkpt lat="-22.038996" lon="-45.728271">
        <ele>891.732</ele>
        <time>2019-10-15T14:40:52Z</time>
      </trkpt>
      <trkpt lat="-22.038979" lon="-45.728223">
        <ele>891.917</ele>
        <time>2019-10-15T14:40:53Z</time>
      </trkpt>
      <trkpt lat="-22.038952" lon="-45.728156">
        <ele>891.476</ele>
        <time>2019-10-15T14:40:56Z</time>
      </trkpt>
      <trkpt lat="-22.038933" lon="-45.728100">
        <ele>891.532</ele>
        <time>2019-10-15T14:40:57Z</time>
      </trkpt>
      <trkpt lat="-22.038909" lon="-45.728041">
        <ele>892.192</ele>
        <time>2019-10-15T14:41:00Z</time>
      </trkpt>
      <trkpt lat="-22.038889" lon="-45.727985">
        <ele>891.811</ele>
        <time>2019-10-15T14:41:02Z</time>
      </trkpt>
      <trkpt lat="-22.038865" lon="-45.727931">
        <ele>892.308</ele>
        <time>2019-10-15T14:41:05Z</time>
      </trkpt>
      <trkpt lat="-22.038866" lon="-45.727873">
        <ele>891.967</ele>
        <time>2019-10-15T14:41:07Z</time>
      </trkpt>
      <trkpt lat="-22.038859" lon="-45.727799">
        <ele>891.945</ele>
        <time>2019-10-15T14:41:09Z</time>
      </trkpt>
      <trkpt lat="-22.038855" lon="-45.727734">
        <ele>891.798</ele>
        <time>2019-10-15T14:41:12Z</time>
      </trkpt>
      <trkpt lat="-22.038852" lon="-45.727685">
        <ele>891.953</ele>
        <time>2019-10-15T14:41:14Z</time>
      </trkpt>
      <trkpt lat="-22.038862" lon="-45.727617">
        <ele>890.933</ele>
        <time>2019-10-15T14:41:15Z</time>
      </trkpt>
      <trkpt lat="-22.038871" lon="-45.727538">
        <ele>888.833</ele>
        <time>2019-10-15T14:41:18Z</time>
      </trkpt>
      <trkpt lat="-22.040161" lon="-45.721532">
        <ele>869.938</ele>
        <time>2019-10-15T14:42:40Z</time>
      </trkpt>
      <trkpt lat="-22.040181" lon="-45.721480">
        <ele>870.587</ele>
        <time>2019-10-15T14:42:42Z</time>
      </trkpt>
      <trkpt lat="-22.040214" lon="-45.721434">
        <ele>870.844</ele>
        <time>2019-10-15T14:42:45Z</time>
      </trkpt>
      <trkpt lat="-22.040238" lon="-45.721393">
        <ele>871.305</ele>
        <time>2019-10-15T14:42:46Z</time>
      </trkpt>
      <trkpt lat="-22.040290" lon="-45.721314">
        <ele>872.315</ele>
        <time>2019-10-15T14:42:49Z</time>
      </trkpt>
      <trkpt lat="-22.040335" lon="-45.721256">
        <ele>872.808</ele>
        <time>2019-10-15T14:42:52Z</time>
      </trkpt>
      <trkpt lat="-22.040374" lon="-45.721195">
        <ele>873.798</ele>
        <time>2019-10-15T14:42:55Z</time>
      </trkpt>
      <trkpt lat="-22.040400" lon="-45.721132">
        <ele>874.456</ele>
        <time>2019-10-15T14:42:57Z</time>
      </trkpt>
      <trkpt lat="-22.040430" lon="-45.721080">
        <ele>874.759</ele>
        <time>2019-10-15T14:43:00Z</time>
      </trkpt>
      <trkpt lat="-22.040471" lon="-45.721038">
        <ele>875.124</ele>
        <time>2019-10-15T14:43:02Z</time>
      </trkpt>
      <trkpt lat="-22.040495" lon="-45.720989">
        <ele>875.434</ele>
        <time>2019-10-15T14:43:04Z</time>
      </trkpt>
      <trkpt lat="-22.040538" lon="-45.720902">
        <ele>875.094</ele>
        <time>2019-10-15T14:43:09Z</time>
      </trkpt>
      <trkpt lat="-22.040559" lon="-45.720858">
        <ele>875.159</ele>
        <time>2019-10-15T14:43:10Z</time>
      </trkpt>
      <trkpt lat="-22.040589" lon="-45.720808">
        <ele>875.098</ele>
        <time>2019-10-15T14:43:13Z</time>
      </trkpt>
      <trkpt lat="-22.040629" lon="-45.720756">
        <ele>874.244</ele>
        <time>2019-10-15T14:43:15Z</time>
      </trkpt>
      <trkpt lat="-22.042400" lon="-45.719370">
        <ele>871.505</ele>
        <time>2019-10-15T14:44:08Z</time>
      </trkpt>
      <trkpt lat="-22.042528" lon="-45.719269">
        <ele>870.415</ele>
        <time>2019-10-15T14:45:02Z</time>
      </trkpt>
      <trkpt lat="-22.042581" lon="-45.719238">
        <ele>870.708</ele>
        <time>2019-10-15T14:45:04Z</time>
      </trkpt>
      <trkpt lat="-22.042629" lon="-45.719208">
        <ele>870.518</ele>
        <time>2019-10-15T14:45:06Z</time>
      </trkpt>
      <trkpt lat="-22.042701" lon="-45.719172">
        <ele>870.986</ele>
        <time>2019-10-15T14:45:08Z</time>
      </trkpt>
      <trkpt lat="-22.042755" lon="-45.719148">
        <ele>870.969</ele>
        <time>2019-10-15T14:45:10Z</time>
      </trkpt>
      <trkpt lat="-22.042846" lon="-45.719097">
        <ele>870.844</ele>
        <time>2019-10-15T14:45:12Z</time>
      </trkpt>
      <trkpt lat="-22.042894" lon="-45.719067">
        <ele>871.044</ele>
        <time>2019-10-15T14:45:14Z</time>
      </trkpt>
      <trkpt lat="-22.042951" lon="-45.719041">
        <ele>870.934</ele>
        <time>2019-10-15T14:45:15Z</time>
      </trkpt>
      <trkpt lat="-22.043007" lon="-45.719010">
        <ele>870.989</ele>
        <time>2019-10-15T14:45:17Z</time>
      </trkpt>
      <trkpt lat="-22.043062" lon="-45.718980">
        <ele>870.618</ele>
        <time>2019-10-15T14:45:20Z</time>
      </trkpt>
      <trkpt lat="-22.043111" lon="-45.718958">
        <ele>870.999</ele>
        <time>2019-10-15T14:45:21Z</time>
      </trkpt>
      <trkpt lat="-22.043170" lon="-45.718930">
        <ele>871.207</ele>
        <time>2019-10-15T14:45:23Z</time>
      </trkpt>
      <trkpt lat="-22.043227" lon="-45.718896">
        <ele>871.327</ele>
        <time>2019-10-15T14:45:26Z</time>
      </trkpt>
      <trkpt lat="-22.043285" lon="-45.718861">
        <ele>871.408</ele>
        <time>2019-10-15T14:45:28Z</time>
      </trkpt>
      <trkpt lat="-22.043329" lon="-45.718837">
        <ele>871.683</ele>
        <time>2019-10-15T14:45:29Z</time>
      </trkpt>
      <trkpt lat="-22.043382" lon="-45.718804">
        <ele>871.681</ele>
        <time>2019-10-15T14:45:31Z</time>
      </trkpt>
      <trkpt lat="-22.043458" lon="-45.718761">
        <ele>871.664</ele>
        <time>2019-10-15T14:45:34Z</time>
      </trkpt>
      <trkpt lat="-22.043514" lon="-45.718729">
        <ele>872.159</ele>
        <time>2019-10-15T14:45:37Z</time>
      </trkpt>
      <trkpt lat="-22.043568" lon="-45.718701">
        <ele>871.559</ele>
        <time>2019-10-15T14:45:39Z</time>
      </trkpt>
      <trkpt lat="-22.043635" lon="-45.718670">
        <ele>871.329</ele>
        <time>2019-10-15T14:45:41Z</time>
      </trkpt>
      <trkpt lat="-22.043684" lon="-45.718653">
        <ele>871.344</ele>
        <time>2019-10-15T14:45:43Z</time>
      </trkpt>
      <trkpt lat="-22.043736" lon="-45.718633">
        <ele>870.993</ele>
        <time>2019-10-15T14:45:44Z</time>
      </trkpt>
      <trkpt lat="-22.043790" lon="-45.718620">
        <ele>870.524</ele>
        <time>2019-10-15T14:45:46Z</time>
      </trkpt>
      <trkpt lat="-22.043851" lon="-45.718608">
        <ele>870.004</ele>
        <time>2019-10-15T14:45:47Z</time>
      </trkpt>
      <trkpt lat="-22.047004" lon="-45.717006">
        <ele>859.014</ele>
        <time>2019-10-15T14:46:43Z</time>
      </trkpt>
      <trkpt lat="-22.047050" lon="-45.716986">
        <ele>859.508</ele>
        <time>2019-10-15T14:46:45Z</time>
      </trkpt>
      <trkpt lat="-22.047100" lon="-45.716976">
        <ele>859.356</ele>
        <time>2019-10-15T14:46:46Z</time>
      </trkpt>
      <trkpt lat="-22.047152" lon="-45.716962">
        <ele>859.544</ele>
        <time>2019-10-15T14:46:48Z</time>
      </trkpt>
      <trkpt lat="-22.047231" lon="-45.716918">
        <ele>859.347</ele>
        <time>2019-10-15T14:46:51Z</time>
      </trkpt>
      <trkpt lat="-22.047297" lon="-45.716889">
        <ele>859.222</ele>
        <time>2019-10-15T14:46:53Z</time>
      </trkpt>
      <trkpt lat="-22.047355" lon="-45.716859">
        <ele>859.292</ele>
        <time>2019-10-15T14:46:54Z</time>
      </trkpt>
      <trkpt lat="-22.047402" lon="-45.716825">
        <ele>858.812</ele>
        <time>2019-10-15T14:46:56Z</time>
      </trkpt>
      <trkpt lat="-22.050146" lon="-45.707907">
        <ele>816.447</ele>
        <time>2019-10-15T14:49:25Z</time>
      </trkpt>
      <trkpt lat="-22.050186" lon="-45.707850">
        <ele>816.736</ele>
        <time>2019-10-15T14:49:26Z</time>
      </trkpt>
      <trkpt lat="-22.050213" lon="-45.707798">
        <ele>816.588</ele>
        <time>2019-10-15T14:49:28Z</time>
      </trkpt>
      <trkpt lat="-22.050268" lon="-45.707713">
        <ele>816.824</ele>
        <time>2019-10-15T14:49:30Z</time>
      </trkpt>
      <trkpt lat="-22.050300" lon="-45.707665">
        <ele>816.826</ele>
        <time>2019-10-15T14:49:31Z</time>
      </trkpt>
      <trkpt lat="-22.053278" lon="-45.705106">
        <ele>811.608</ele>
        <time>2019-10-15T14:50:53Z</time>
      </trkpt>
      <trkpt lat="-22.053309" lon="-45.705067">
        <ele>812.132</ele>
        <time>2019-10-15T14:50:54Z</time>
      </trkpt>
      <trkpt lat="-22.054226" lon="-45.700596">
        <ele>806.650</ele>
        <time>2019-10-15T14:52:29Z</time>
      </trkpt>
      <trkpt lat="-22.054188" lon="-45.700555">
        <ele>806.623</ele>
        <time>2019-10-15T14:52:31Z</time>
      </trkpt>
      <trkpt lat="-22.054155" lon="-45.700519">
        <ele>806.628</ele>
        <time>2019-10-15T14:52:34Z</time>
      </trkpt>
      <trkpt lat="-22.054117" lon="-45.700477">
        <ele>806.668</ele>
        <time>2019-10-15T14:52:36Z</time>
      </trkpt>
      <trkpt lat="-22.054018" lon="-45.700382">
        <ele>806.228</ele>
        <time>2019-10-15T14:52:43Z</time>
      </trkpt>
      <trkpt lat="-22.053969" lon="-45.700333">
        <ele>806.553</ele>
        <time>2019-10-15T14:52:46Z</time>
      </trkpt>
      <trkpt lat="-22.053904" lon="-45.700248">
        <ele>806.382</ele>
        <time>2019-10-15T14:53:07Z</time>
      </trkpt>
      <trkpt lat="-22.053860" lon="-45.700207">
        <ele>806.765</ele>
        <time>2019-10-15T14:53:14Z</time>
      </trkpt>
      <trkpt lat="-22.053813" lon="-45.700134">
        <ele>806.368</ele>
        <time>2019-10-15T14:55:36Z</time>
      </trkpt>
      <trkpt lat="-22.053768" lon="-45.700038">
        <ele>805.814</ele>
        <time>2019-10-15T14:55:40Z</time>
      </trkpt>
      <trkpt lat="-22.053733" lon="-45.700006">
        <ele>806.008</ele>
        <time>2019-10-15T14:55:41Z</time>
      </trkpt>
      <trkpt lat="-22.053688" lon="-45.699977">
        <ele>805.840</ele>
        <time>2019-10-15T14:55:43Z</time>
      </trkpt>
      <trkpt lat="-22.053632" lon="-45.699917">
        <ele>805.858</ele>
        <time>2019-10-15T14:55:46Z</time>
      </trkpt>
      <trkpt lat="-22.053584" lon="-45.699859">
        <ele>806.121</ele>
        <time>2019-10-15T14:55:48Z</time>
      </trkpt>
      <trkpt lat="-22.053526" lon="-45.699810">
        <ele>805.986</ele>
        <time>2019-10-15T14:55:50Z</time>
      </trkpt>
      <trkpt lat="-22.053492" lon="-45.699766">
        <ele>806.226</ele>
        <time>2019-10-15T14:55:52Z</time>
      </trkpt>
      <trkpt lat="-22.053460" lon="-45.699727">
        <ele>806.496</ele>
        <time>2019-10-15T14:55:53Z</time>
      </trkpt>
      <trkpt lat="-22.053416" lon="-45.699673">
        <ele>806.531</ele>
        <time>2019-10-15T14:55:56Z</time>
      </trkpt>
      <trkpt lat="-22.053386" lon="-45.699636">
        <ele>806.820</ele>
        <time>2019-10-15T14:55:58Z</time>
      </trkpt>
      <trkpt lat="-22.053350" lon="-45.699591">
        <ele>807.097</ele>
        <time>2019-10-15T14:56:00Z</time>
      </trkpt>
      <trkpt lat="-22.053313" lon="-45.699546">
        <ele>807.323</ele>
        <time>2019-10-15T14:56:02Z</time>
      </trkpt>
      <trkpt lat="-22.053264" lon="-45.699488">
        <ele>808.325</ele>
        <time>2019-10-15T14:56:05Z</time>
      </trkpt>
      <trkpt lat="-22.053207" lon="-45.699425">
        <ele>809.508</ele>
        <time>2019-10-15T14:56:09Z</time>
      </trkpt>
      <trkpt lat="-22.053169" lon="-45.699385">
        <ele>809.933</ele>
        <time>2019-10-15T14:56:11Z</time>
      </trkpt>
      <trkpt lat="-22.053125" lon="-45.699332">
        <ele>811.021</ele>
        <time>2019-10-15T14:56:15Z</time>
      </trkpt>
      <trkpt lat="-22.053067" lon="-45.699313">
        <ele>811.354</ele>
        <time>2019-10-15T14:56:17Z</time>
      </trkpt>
      <trkpt lat="-22.053018" lon="-45.699322">
        <ele>811.769</ele>
        <time>2019-10-15T14:56:19Z</time>
      </trkpt>
      <trkpt lat="-22.052965" lon="-45.699348">
        <ele>811.999</ele>
        <time>2019-10-15T14:56:22Z</time>
      </trkpt>
      <trkpt lat="-22.052909" lon="-45.699366">
        <ele>811.979</ele>
        <time>2019-10-15T14:56:24Z</time>
      </trkpt>
      <trkpt lat="-22.052823" lon="-45.699399">
        <ele>812.034</ele>
        <time>2019-10-15T14:56:28Z</time>
      </trkpt>
      <trkpt lat="-22.052778" lon="-45.699421">
        <ele>812.663</ele>
        <time>2019-10-15T14:56:30Z</time>
      </trkpt>
      <trkpt lat="-22.052706" lon="-45.699442">
        <ele>812.719</ele>
        <time>2019-10-15T14:56:34Z</time>
      </trkpt>
      <trkpt lat="-22.052637" lon="-45.699457">
        <ele>812.609</ele>
        <time>2019-10-15T14:56:37Z</time>
      </trkpt>
      <trkpt lat="-22.052576" lon="-45.699465">
        <ele>812.319</ele>
        <time>2019-10-15T14:56:39Z</time>
      </trkpt>
      <trkpt lat="-22.052516" lon="-45.699461">
        <ele>811.908</ele>
        <time>2019-10-15T14:56:40Z</time>
      </trkpt>
      <trkpt lat="-22.052438" lon="-45.699464">
        <ele>811.425</ele>
        <time>2019-10-15T14:56:42Z</time>
      </trkpt>
      <trkpt lat="-22.048875" lon="-45.699469">
        <ele>804.023</ele>
        <time>2019-10-15T14:57:46Z</time>
      </trkpt>
      <trkpt lat="-22.048820" lon="-45.699466">
        <ele>804.166</ele>
        <time>2019-10-15T14:57:48Z</time>
      </trkpt>
      <trkpt lat="-22.048621" lon="-45.699421">
        <ele>804.041</ele>
        <time>2019-10-15T14:57:53Z</time>
      </trkpt>
      <trkpt lat="-22.048037" lon="-45.699444">
        <ele>804.471</ele>
        <time>2019-10-15T14:58:06Z</time>
      </trkpt>
      <trkpt lat="-22.047987" lon="-45.699431">
        <ele>803.681</ele>
        <time>2019-10-15T14:58:07Z</time>
      </trkpt>
      <trkpt lat="-22.047928" lon="-45.699442">
        <ele>803.446</ele>
        <time>2019-10-15T14:58:09Z</time>
      </trkpt>
      <trkpt lat="-22.047800" lon="-45.699444">
        <ele>803.915</ele>
        <time>2019-10-15T14:58:12Z</time>
      </trkpt>
      <trkpt lat="-22.047720" lon="-45.699449">
        <ele>803.993</ele>
        <time>2019-10-15T14:58:14Z</time>
      </trkpt>
      <trkpt lat="-22.047645" lon="-45.699457">
        <ele>804.165</ele>
        <time>2019-10-15T14:58:17Z</time>
      </trkpt>
      <trkpt lat="-22.047584" lon="-45.699456">
        <ele>804.321</ele>
        <time>2019-10-15T14:58:18Z</time>
      </trkpt>
      <trkpt lat="-22.047535" lon="-45.699461">
        <ele>804.508</ele>
        <time>2019-10-15T14:58:20Z</time>
      </trkpt>
      <trkpt lat="-22.047479" lon="-45.699457">
        <ele>804.463</ele>
        <time>2019-10-15T14:58:22Z</time>
      </trkpt>
      <trkpt lat="-22.047400" lon="-45.699450">
        <ele>804.611</ele>
        <time>2019-10-15T14:58:24Z</time>
      </trkpt>
      <trkpt lat="-22.047335" lon="-45.699449">
        <ele>804.384</ele>
        <time>2019-10-15T14:58:26Z</time>
      </trkpt>
      <trkpt lat="-22.047256" lon="-45.699445">
        <ele>804.489</ele>
        <time>2019-10-15T14:58:28Z</time>
      </trkpt>
      <trkpt lat="-22.047209" lon="-45.699442">
        <ele>804.659</ele>
        <time>2019-10-15T14:58:29Z</time>
      </trkpt>
      <trkpt lat="-22.047143" lon="-45.699438">
        <ele>804.869</ele>
        <time>2019-10-15T14:58:30Z</time>
      </trkpt>
      <trkpt lat="-22.047064" lon="-45.699443">
        <ele>805.194</ele>
        <time>2019-10-15T14:58:33Z</time>
      </trkpt>
      <trkpt lat="-22.046978" lon="-45.699441">
        <ele>805.493</ele>
        <time>2019-10-15T14:58:35Z</time>
      </trkpt>
      <trkpt lat="-22.046903" lon="-45.699442">
        <ele>805.455</ele>
        <time>2019-10-15T14:58:37Z</time>
      </trkpt>
      <trkpt lat="-22.046848" lon="-45.699436">
        <ele>805.607</ele>
        <time>2019-10-15T14:58:39Z</time>
      </trkpt>
      <trkpt lat="-22.046782" lon="-45.699430">
        <ele>805.117</ele>
        <time>2019-10-15T14:58:41Z</time>
      </trkpt>
      <trkpt lat="-22.046724" lon="-45.699429">
        <ele>805.108</ele>
        <time>2019-10-15T14:58:42Z</time>
      </trkpt>
      <trkpt lat="-22.046666" lon="-45.699436">
        <ele>805.019</ele>
        <time>2019-10-15T14:58:44Z</time>
      </trkpt>
      <trkpt lat="-22.046604" lon="-45.699446">
        <ele>804.927</ele>
        <time>2019-10-15T14:58:45Z</time>
      </trkpt>
      <trkpt lat="-22.046472" lon="-45.699449">
        <ele>805.260</ele>
        <time>2019-10-15T14:58:49Z</time>
      </trkpt>
      <trkpt lat="-22.046377" lon="-45.699449">
        <ele>805.645</ele>
        <time>2019-10-15T14:58:52Z</time>
      </trkpt>
      <trkpt lat="-22.046319" lon="-45.699445">
        <ele>805.645</ele>
        <time>2019-10-15T14:58:54Z</time>
      </trkpt>
      <trkpt lat="-22.046243" lon="-45.699439">
        <ele>804.945</ele>
        <time>2019-10-15T14:58:56Z</time>
      </trkpt>
      <trkpt lat="-22.046180" lon="-45.699437">
        <ele>804.780</ele>
        <time>2019-10-15T14:58:57Z</time>
      </trkpt>
      <trkpt lat="-22.046124" lon="-45.699424">
        <ele>804.359</ele>
        <time>2019-10-15T14:58:59Z</time>
      </trkpt>
      <trkpt lat="-22.046026" lon="-45.699415">
        <ele>804.753</ele>
        <time>2019-10-15T14:59:02Z</time>
      </trkpt>
      <trkpt lat="-22.046017" lon="-45.699414">
        <ele>806.404</ele>
        <time>2019-10-15T14:56:31Z</time>
      </trkpt>
      <trkpt lat="-22.045971" lon="-45.699444">
        <ele>805.814</ele>
        <time>2019-10-15T15:00:50Z</time>
      </trkpt>
      <trkpt lat="-22.045911" lon="-45.699442">
        <ele>806.008</ele>
        <time>2019-10-15T15:05:46Z</time>
      </trkpt>
      <trkpt lat="-22.045858" lon="-45.699443">
        <ele>805.969</ele>
        <time>2019-10-15T15:05:49Z</time>
      </trkpt>
      <trkpt lat="-22.045707" lon="-45.699429">
        <ele>805.557</ele>
        <time>2019-10-15T15:05:54Z</time>
      </trkpt>
      <trkpt lat="-22.045632" lon="-45.699419">
        <ele>805.660</ele>
        <time>2019-10-15T15:05:56Z</time>
      </trkpt>
      <trkpt lat="-22.045570" lon="-45.699413">
        <ele>805.665</ele>
        <time>2019-10-15T15:05:59Z</time>
      </trkpt>
      <trkpt lat="-22.045516" lon="-45.699407">
        <ele>805.795</ele>
        <time>2019-10-15T15:06:00Z</time>
      </trkpt>
      <trkpt lat="-22.045457" lon="-45.699405">
        <ele>805.755</ele>
        <time>2019-10-15T15:06:02Z</time>
      </trkpt>
      <trkpt lat="-22.045405" lon="-45.699406">
        <ele>806.140</ele>
        <time>2019-10-15T15:06:05Z</time>
      </trkpt>
      <trkpt lat="-22.045348" lon="-45.699401">
        <ele>805.949</ele>
        <time>2019-10-15T15:06:06Z</time>
      </trkpt>
      <trkpt lat="-22.045288" lon="-45.699388">
        <ele>806.076</ele>
        <time>2019-10-15T15:06:09Z</time>
      </trkpt>
      <trkpt lat="-22.045288" lon="-45.699388">
        <ele>806.090</ele>
        <time>2019-10-15T15:06:09Z</time>
      </trkpt>
      <trkpt lat="-22.045236" lon="-45.699379">
        <ele>806.219</ele>
        <time>2019-10-15T15:06:11Z</time>
      </trkpt>
      <trkpt lat="-22.045183" lon="-45.699377">
        <ele>805.908</ele>
        <time>2019-10-15T15:06:12Z</time>
      </trkpt>
      <trkpt lat="-22.045127" lon="-45.699382">
        <ele>805.781</ele>
        <time>2019-10-15T15:06:14Z</time>
      </trkpt>
      <trkpt lat="-22.045066" lon="-45.699374">
        <ele>805.799</ele>
        <time>2019-10-15T15:06:15Z</time>
      </trkpt>
      <trkpt lat="-22.045020" lon="-45.699370">
        <ele>805.622</ele>
        <time>2019-10-15T15:06:17Z</time>
      </trkpt>
      <trkpt lat="-22.044917" lon="-45.699358">
        <ele>805.857</ele>
        <time>2019-10-15T15:06:20Z</time>
      </trkpt>
      <trkpt lat="-22.044856" lon="-45.699354">
        <ele>806.117</ele>
        <time>2019-10-15T15:06:22Z</time>
      </trkpt>
      <trkpt lat="-22.044787" lon="-45.699342">
        <ele>805.737</ele>
        <time>2019-10-15T15:06:25Z</time>
      </trkpt>
      <trkpt lat="-22.044740" lon="-45.699336">
        <ele>806.292</ele>
        <time>2019-10-15T15:06:27Z</time>
      </trkpt>
      <trkpt lat="-22.044692" lon="-45.699333">
        <ele>806.591</ele>
        <time>2019-10-15T15:06:28Z</time>
      </trkpt>
      <trkpt lat="-22.044642" lon="-45.699326">
        <ele>806.183</ele>
        <time>2019-10-15T15:06:30Z</time>
      </trkpt>
      <trkpt lat="-22.044565" lon="-45.699308">
        <ele>806.025</ele>
        <time>2019-10-15T15:06:32Z</time>
      </trkpt>
      <trkpt lat="-22.044513" lon="-45.699303">
        <ele>805.917</ele>
        <time>2019-10-15T15:06:34Z</time>
      </trkpt>
      <trkpt lat="-22.044450" lon="-45.699303">
        <ele>805.908</ele>
        <time>2019-10-15T15:06:36Z</time>
      </trkpt>
      <trkpt lat="-22.044404" lon="-45.699302">
        <ele>806.072</ele>
        <time>2019-10-15T15:06:37Z</time>
      </trkpt>
      <trkpt lat="-22.044359" lon="-45.699294">
        <ele>805.980</ele>
        <time>2019-10-15T15:06:39Z</time>
      </trkpt>
      <trkpt lat="-22.044311" lon="-45.699289">
        <ele>806.023</ele>
        <time>2019-10-15T15:06:41Z</time>
      </trkpt>
      <trkpt lat="-22.044262" lon="-45.699276">
        <ele>806.258</ele>
        <time>2019-10-15T15:06:43Z</time>
      </trkpt>
      <trkpt lat="-22.044207" lon="-45.699270">
        <ele>805.948</ele>
        <time>2019-10-15T15:06:44Z</time>
      </trkpt>
      <trkpt lat="-22.044148" lon="-45.699265">
        <ele>806.378</ele>
        <time>2019-10-15T15:06:46Z</time>
      </trkpt>
      <trkpt lat="-22.044070" lon="-45.699258">
        <ele>806.283</ele>
        <time>2019-10-15T15:06:49Z</time>
      </trkpt>
      <trkpt lat="-22.043997" lon="-45.699250">
        <ele>806.482</ele>
        <time>2019-10-15T15:06:51Z</time>
      </trkpt>
      <trkpt lat="-22.043937" lon="-45.699240">
        <ele>806.568</ele>
        <time>2019-10-15T15:06:52Z</time>
      </trkpt>
      <trkpt lat="-22.043886" lon="-45.699231">
        <ele>806.542</ele>
        <time>2019-10-15T15:06:54Z</time>
      </trkpt>
      <trkpt lat="-22.043838" lon="-45.699231">
        <ele>806.726</ele>
        <time>2019-10-15T15:06:55Z</time>
      </trkpt>
      <trkpt lat="-22.043786" lon="-45.699233">
        <ele>806.408</ele>
        <time>2019-10-15T15:06:57Z</time>
      </trkpt>
      <trkpt lat="-22.043731" lon="-45.699232">
        <ele>806.190</ele>
        <time>2019-10-15T15:06:59Z</time>
      </trkpt>
      <trkpt lat="-22.043665" lon="-45.699227">
        <ele>805.738</ele>
        <time>2019-10-15T15:07:00Z</time>
      </trkpt>
      <trkpt lat="-22.043521" lon="-45.699207">
        <ele>806.161</ele>
        <time>2019-10-15T15:07:04Z</time>
      </trkpt>
      <trkpt lat="-22.043457" lon="-45.699192">
        <ele>806.146</ele>
        <time>2019-10-15T15:07:06Z</time>
      </trkpt>
      <trkpt lat="-22.043382" lon="-45.699172">
        <ele>805.946</ele>
        <time>2019-10-15T15:07:08Z</time>
      </trkpt>
      <trkpt lat="-22.043331" lon="-45.699159">
        <ele>805.866</ele>
        <time>2019-10-15T15:07:09Z</time>
      </trkpt>
      <trkpt lat="-22.043287" lon="-45.699150">
        <ele>805.111</ele>
        <time>2019-10-15T15:07:11Z</time>
      </trkpt>
      <trkpt lat="-22.042920" lon="-45.699131">
        <ele>806.460</ele>
        <time>2019-10-15T15:07:22Z</time>
      </trkpt>
      <trkpt lat="-22.042974" lon="-45.699133">
        <ele>807.224</ele>
        <time>2019-10-15T15:07:35Z</time>
      </trkpt>
      <trkpt lat="-22.043021" lon="-45.699120">
        <ele>807.204</ele>
        <time>2019-10-15T15:07:38Z</time>
      </trkpt>
      <trkpt lat="-22.043073" lon="-45.699114">
        <ele>807.414</ele>
        <time>2019-10-15T15:07:41Z</time>
      </trkpt>
      <trkpt lat="-22.043124" lon="-45.699108">
        <ele>807.608</ele>
        <time>2019-10-15T15:07:45Z</time>
      </trkpt>
      <trkpt lat="-22.043168" lon="-45.699093">
        <ele>807.666</ele>
        <time>2019-10-15T15:12:45Z</time>
      </trkpt>
      <trkpt lat="-22.043156" lon="-45.699141">
        <ele>808.254</ele>
        <time>2019-10-15T15:13:17Z</time>
      </trkpt>
      <trkpt lat="-22.043226" lon="-45.699080">
        <ele>808.157</ele>
        <time>2019-10-15T15:13:28Z</time>
      </trkpt>
      <trkpt lat="-22.043189" lon="-45.699117">
        <ele>808.122</ele>
        <time>2019-10-15T15:13:30Z</time>
      </trkpt>
      <trkpt lat="-22.043180" lon="-45.699170">
        <ele>808.142</ele>
        <time>2019-10-15T15:13:46Z</time>
      </trkpt>
      <trkpt lat="-22.043117" lon="-45.699327">
        <ele>808.522</ele>
        <time>2019-10-15T15:14:05Z</time>
      </trkpt>
      <trkpt lat="-22.043099" lon="-45.699416">
        <ele>808.727</ele>
        <time>2019-10-15T15:14:15Z</time>
      </trkpt>
      <trkpt lat="-22.043093" lon="-45.699356">
        <ele>808.396</ele>
        <time>2019-10-15T15:14:23Z</time>
      </trkpt>
      <trkpt lat="-22.043111" lon="-45.699242">
        <ele>808.682</ele>
        <time>2019-10-15T15:14:25Z</time>
      </trkpt>
      <trkpt lat="-22.043061" lon="-45.699208">
        <ele>808.343</ele>
        <time>2019-10-15T15:15:11Z</time>
      </trkpt>
      <trkpt lat="-22.043076" lon="-45.699255">
        <ele>808.417</ele>
        <time>2019-10-15T15:15:21Z</time>
      </trkpt>
      <trkpt lat="-22.043061" lon="-45.699339">
        <ele>808.308</ele>
        <time>2019-10-15T15:15:41Z</time>
      </trkpt>
      <trkpt lat="-22.043153" lon="-45.699303">
        <ele>807.982</ele>
        <time>2019-10-15T15:15:51Z</time>
      </trkpt>
      <trkpt lat="-22.043159" lon="-45.699367">
        <ele>807.960</ele>
        <time>2019-10-15T15:16:18Z</time>
      </trkpt>
      <trkpt lat="-22.043123" lon="-45.699291">
        <ele>808.063</ele>
        <time>2019-10-15T15:16:22Z</time>
      </trkpt>
      <trkpt lat="-22.043025" lon="-45.699603">
        <ele>808.058</ele>
        <time>2019-10-15T15:16:32Z</time>
      </trkpt>
      <trkpt lat="-22.043025" lon="-45.699416">
        <ele>808.028</ele>
        <time>2019-10-15T15:16:41Z</time>
      </trkpt>
      <trkpt lat="-22.043025" lon="-45.699361">
        <ele>808.098</ele>
        <time>2019-10-15T15:16:46Z</time>
      </trkpt>
      <trkpt lat="-22.043073" lon="-45.699453">
        <ele>808.273</ele>
        <time>2019-10-15T15:17:12Z</time>
      </trkpt>
      <trkpt lat="-22.043163" lon="-45.699507">
        <ele>808.622</ele>
        <time>2019-10-15T15:17:33Z</time>
      </trkpt>
      <trkpt lat="-22.043192" lon="-45.699458">
        <ele>808.623</ele>
        <time>2019-10-15T15:17:43Z</time>
      </trkpt>
      <trkpt lat="-22.043214" lon="-45.699395">
        <ele>808.483</ele>
        <time>2019-10-15T15:18:03Z</time>
      </trkpt>
      <trkpt lat="-22.043313" lon="-45.699125">
        <ele>808.311</ele>
        <time>2019-10-15T15:18:23Z</time>
      </trkpt>
      <trkpt lat="-22.043064" lon="-45.699308">
        <ele>808.608</ele>
        <time>2019-10-15T15:18:54Z</time>
      </trkpt>
      <trkpt lat="-22.043079" lon="-45.699257">
        <ele>808.256</ele>
        <time>2019-10-15T15:19:09Z</time>
      </trkpt>
      <trkpt lat="-22.043124" lon="-45.699192">
        <ele>808.944</ele>
        <time>2019-10-15T15:19:29Z</time>
      </trkpt>
      <trkpt lat="-22.043133" lon="-45.699299">
        <ele>808.827</ele>
        <time>2019-10-15T15:20:00Z</time>
      </trkpt>
      <trkpt lat="-22.043087" lon="-45.699288">
        <ele>809.082</ele>
        <time>2019-10-15T15:20:33Z</time>
      </trkpt>
      <trkpt lat="-22.043072" lon="-45.699234">
        <ele>809.082</ele>
        <time>2019-10-15T15:20:40Z</time>
      </trkpt>
      <trkpt lat="-22.043053" lon="-45.699332">
        <ele>809.192</ele>
        <time>2019-10-15T15:21:00Z</time>
      </trkpt>
      <trkpt lat="-22.043057" lon="-45.699399">
        <ele>808.997</ele>
        <time>2019-10-15T15:21:10Z</time>
      </trkpt>
      <trkpt lat="-22.043111" lon="-45.699307">
        <ele>808.666</ele>
        <time>2019-10-15T15:21:51Z</time>
      </trkpt>
      <trkpt lat="-22.043160" lon="-45.699271">
        <ele>808.724</ele>
        <time>2019-10-15T15:22:01Z</time>
      </trkpt>
      <trkpt lat="-22.043148" lon="-45.699347">
        <ele>808.904</ele>
        <time>2019-10-15T15:22:11Z</time>
      </trkpt>
      <trkpt lat="-22.043088" lon="-45.699380">
        <ele>809.014</ele>
        <time>2019-10-15T15:22:51Z</time>
      </trkpt>
      <trkpt lat="-22.043111" lon="-45.699294">
        <ele>808.708</ele>
        <time>2019-10-15T15:23:12Z</time>
      </trkpt>
      <trkpt lat="-22.043126" lon="-45.699360">
        <ele>809.026</ele>
        <time>2019-10-15T15:23:22Z</time>
      </trkpt>
      <trkpt lat="-22.042732" lon="-45.699644">
        <ele>808.934</ele>
        <time>2019-10-15T15:23:52Z</time>
      </trkpt>
      <trkpt lat="-22.043144" lon="-45.699364">
        <ele>808.767</ele>
        <time>2019-10-15T15:24:11Z</time>
      </trkpt>
      <trkpt lat="-22.043114" lon="-45.699305">
        <ele>809.092</ele>
        <time>2019-10-15T15:24:41Z</time>
      </trkpt>
      <trkpt lat="-22.043084" lon="-45.699245">
        <ele>809.572</ele>
        <time>2019-10-15T15:24:46Z</time>
      </trkpt>
      <trkpt lat="-22.043119" lon="-45.699210">
        <ele>808.872</ele>
        <time>2019-10-15T15:27:13Z</time>
      </trkpt>
      <trkpt lat="-22.043161" lon="-45.699159">
        <ele>808.987</ele>
        <time>2019-10-15T15:27:23Z</time>
      </trkpt>
      <trkpt lat="-22.043116" lon="-45.699198">
        <ele>808.446</ele>
        <time>2019-10-15T15:28:07Z</time>
      </trkpt>
      <trkpt lat="-22.043168" lon="-45.699194">
        <ele>809.579</ele>
        <time>2019-10-15T15:28:35Z</time>
      </trkpt>
      <trkpt lat="-22.043072" lon="-45.699184">
        <ele>809.105</ele>
        <time>2019-10-15T15:30:47Z</time>
      </trkpt>
      <trkpt lat="-22.042923" lon="-45.699153">
        <ele>808.825</ele>
        <time>2019-10-15T15:30:52Z</time>
      </trkpt>
      <trkpt lat="-22.042959" lon="-45.699122">
        <ele>811.008</ele>
        <time>2019-10-15T15:35:57Z</time>
      </trkpt>
      <trkpt lat="-22.043021" lon="-45.699129">
        <ele>810.851</ele>
        <time>2019-10-15T15:36:01Z</time>
      </trkpt>
      <trkpt lat="-22.043080" lon="-45.699141">
        <ele>810.629</ele>
        <time>2019-10-15T15:36:04Z</time>
      </trkpt>
      <trkpt lat="-22.043126" lon="-45.699150">
        <ele>810.762</ele>
        <time>2019-10-15T15:36:06Z</time>
      </trkpt>
      <trkpt lat="-22.043175" lon="-45.699167">
        <ele>810.867</ele>
        <time>2019-10-15T15:36:08Z</time>
      </trkpt>
      <trkpt lat="-22.043235" lon="-45.699185">
        <ele>810.797</ele>
        <time>2019-10-15T15:36:10Z</time>
      </trkpt>
      <trkpt lat="-22.043300" lon="-45.699202">
        <ele>811.027</ele>
        <time>2019-10-15T15:36:12Z</time>
      </trkpt>
      <trkpt lat="-22.043355" lon="-45.699210">
        <ele>811.232</ele>
        <time>2019-10-15T15:36:14Z</time>
      </trkpt>
      <trkpt lat="-22.043430" lon="-45.699227">
        <ele>811.061</ele>
        <time>2019-10-15T15:36:16Z</time>
      </trkpt>
      <trkpt lat="-22.043509" lon="-45.699245">
        <ele>811.018</ele>
        <time>2019-10-15T15:36:18Z</time>
      </trkpt>
      <trkpt lat="-22.043557" lon="-45.699255">
        <ele>810.998</ele>
        <time>2019-10-15T15:36:19Z</time>
      </trkpt>
      <trkpt lat="-22.043616" lon="-45.699270">
        <ele>811.117</ele>
        <time>2019-10-15T15:36:21Z</time>
      </trkpt>
      <trkpt lat="-22.043689" lon="-45.699278">
        <ele>811.008</ele>
        <time>2019-10-15T15:36:23Z</time>
      </trkpt>
      <trkpt lat="-22.043738" lon="-45.699277">
        <ele>810.425</ele>
        <time>2019-10-15T15:41:17Z</time>
      </trkpt>
      <trkpt lat="-22.043817" lon="-45.699238">
        <ele>810.643</ele>
        <time>2019-10-15T15:41:18Z</time>
      </trkpt>
      <trkpt lat="-22.043852" lon="-45.699158">
        <ele>810.976</ele>
        <time>2019-10-15T15:41:21Z</time>
      </trkpt>
      <trkpt lat="-22.043863" lon="-45.699072">
        <ele>811.241</ele>
        <time>2019-10-15T15:41:23Z</time>
      </trkpt>
      <trkpt lat="-22.043866" lon="-45.698957">
        <ele>812.281</ele>
        <time>2019-10-15T15:41:26Z</time>
      </trkpt>
      <trkpt lat="-22.043874" lon="-45.698862">
        <ele>813.111</ele>
        <time>2019-10-15T15:41:31Z</time>
      </trkpt>
      <trkpt lat="-22.043942" lon="-45.698237">
        <ele>818.226</ele>
        <time>2019-10-15T15:42:05Z</time>
      </trkpt>
      <trkpt lat="-22.043979" lon="-45.697909">
        <ele>821.065</ele>
        <time>2019-10-15T15:42:24Z</time>
      </trkpt>
      <trkpt lat="-22.043975" lon="-45.697828">
        <ele>822.082</ele>
        <time>2019-10-15T15:42:29Z</time>
      </trkpt>
      <trkpt lat="-22.043948" lon="-45.697782">
        <ele>823.443</ele>
        <time>2019-10-15T15:42:37Z</time>
      </trkpt>
      <trkpt lat="-22.043955" lon="-45.697696">
        <ele>825.217</ele>
        <time>2019-10-15T15:42:50Z</time>
      </trkpt>
      <trkpt lat="-22.043970" lon="-45.697646">
        <ele>825.808</ele>
        <time>2019-10-15T15:42:56Z</time>
      </trkpt>
      <trkpt lat="-22.043976" lon="-45.697570">
        <ele>826.662</ele>
        <time>2019-10-15T15:43:02Z</time>
      </trkpt>
      <trkpt lat="-22.043983" lon="-45.697515">
        <ele>827.110</ele>
        <time>2019-10-15T15:43:06Z</time>
      </trkpt>
      <trkpt lat="-22.044047" lon="-45.697400">
        <ele>828.693</ele>
        <time>2019-10-15T15:43:15Z</time>
      </trkpt>
      <trkpt lat="-22.044108" lon="-45.697373">
        <ele>828.448</ele>
        <time>2019-10-15T15:43:20Z</time>
      </trkpt>
      <trkpt lat="-22.044172" lon="-45.697380">
        <ele>828.188</ele>
        <time>2019-10-15T15:43:24Z</time>
      </trkpt>
      <trkpt lat="-22.044247" lon="-45.697358">
        <ele>828.038</ele>
        <time>2019-10-15T15:43:50Z</time>
      </trkpt>
      <trkpt lat="-22.044234" lon="-45.697297">
        <ele>827.653</ele>
        <time>2019-10-15T15:43:52Z</time>
      </trkpt>
      <trkpt lat="-22.044169" lon="-45.697276">
        <ele>827.582</ele>
        <time>2019-10-15T15:43:55Z</time>
      </trkpt>
      <trkpt lat="-22.044104" lon="-45.697275">
        <ele>828.245</ele>
        <time>2019-10-15T15:43:57Z</time>
      </trkpt>
      <trkpt lat="-22.044057" lon="-45.697264">
        <ele>828.147</ele>
        <time>2019-10-15T15:44:00Z</time>
      </trkpt>
      <trkpt lat="-22.043996" lon="-45.697253">
        <ele>828.111</ele>
        <time>2019-10-15T15:44:03Z</time>
      </trkpt>
      <trkpt lat="-22.043945" lon="-45.697245">
        <ele>827.808</ele>
        <time>2019-10-15T15:44:05Z</time>
      </trkpt>
      <trkpt lat="-22.043900" lon="-45.697235">
        <ele>828.138</ele>
        <time>2019-10-15T15:44:07Z</time>
      </trkpt>
      <trkpt lat="-22.043855" lon="-45.697228">
        <ele>828.886</ele>
        <time>2019-10-15T15:44:09Z</time>
      </trkpt>
      <trkpt lat="-22.043808" lon="-45.697222">
        <ele>828.919</ele>
        <time>2019-10-15T15:44:11Z</time>
      </trkpt>
      <trkpt lat="-22.043762" lon="-45.697213">
        <ele>829.234</ele>
        <time>2019-10-15T15:44:13Z</time>
      </trkpt>
      <trkpt lat="-22.043697" lon="-45.697192">
        <ele>829.664</ele>
        <time>2019-10-15T15:44:17Z</time>
      </trkpt>
      <trkpt lat="-22.043641" lon="-45.697181">
        <ele>829.714</ele>
        <time>2019-10-15T15:44:19Z</time>
      </trkpt>
      <trkpt lat="-22.043596" lon="-45.697174">
        <ele>829.869</ele>
        <time>2019-10-15T15:44:21Z</time>
      </trkpt>
      <trkpt lat="-22.043544" lon="-45.697166">
        <ele>830.238</ele>
        <time>2019-10-15T15:44:23Z</time>
      </trkpt>
      <trkpt lat="-22.043493" lon="-45.697163">
        <ele>830.682</ele>
        <time>2019-10-15T15:44:25Z</time>
      </trkpt>
      <trkpt lat="-22.043429" lon="-45.697146">
        <ele>831.043</ele>
        <time>2019-10-15T15:44:29Z</time>
      </trkpt>
      <trkpt lat="-22.043358" lon="-45.697133">
        <ele>831.117</ele>
        <time>2019-10-15T15:44:32Z</time>
      </trkpt>
      <trkpt lat="-22.043301" lon="-45.697124">
        <ele>831.108</ele>
        <time>2019-10-15T15:44:34Z</time>
      </trkpt>
      <trkpt lat="-22.043250" lon="-45.697114">
        <ele>831.272</ele>
        <time>2019-10-15T15:44:37Z</time>
      </trkpt>
      <trkpt lat="-22.043198" lon="-45.697099">
        <ele>831.290</ele>
        <time>2019-10-15T15:44:39Z</time>
      </trkpt>
      <trkpt lat="-22.043153" lon="-45.697091">
        <ele>831.653</ele>
        <time>2019-10-15T15:44:41Z</time>
      </trkpt>
      <trkpt lat="-22.043098" lon="-45.697087">
        <ele>832.298</ele>
        <time>2019-10-15T15:44:44Z</time>
      </trkpt>
      <trkpt lat="-22.043025" lon="-45.697072">
        <ele>832.338</ele>
        <time>2019-10-15T15:44:47Z</time>
      </trkpt>
      <trkpt lat="-22.042970" lon="-45.697058">
        <ele>832.498</ele>
        <time>2019-10-15T15:44:50Z</time>
      </trkpt>
      <trkpt lat="-22.042897" lon="-45.697042">
        <ele>832.543</ele>
        <time>2019-10-15T15:44:53Z</time>
      </trkpt>
      <trkpt lat="-22.042825" lon="-45.697024">
        <ele>833.192</ele>
        <time>2019-10-15T15:44:56Z</time>
      </trkpt>
      <trkpt lat="-22.042779" lon="-45.697017">
        <ele>833.635</ele>
        <time>2019-10-15T15:44:58Z</time>
      </trkpt>
      <trkpt lat="-22.042731" lon="-45.697010">
        <ele>833.486</ele>
        <time>2019-10-15T15:45:00Z</time>
      </trkpt>
      <trkpt lat="-22.042686" lon="-45.696996">
        <ele>833.514</ele>
        <time>2019-10-15T15:45:03Z</time>
      </trkpt>
      <trkpt lat="-22.042626" lon="-45.696977">
        <ele>833.408</ele>
        <time>2019-10-15T15:45:05Z</time>
      </trkpt>
      <trkpt lat="-22.042573" lon="-45.696962">
        <ele>833.757</ele>
        <time>2019-10-15T15:45:07Z</time>
      </trkpt>
      <trkpt lat="-22.042528" lon="-45.696941">
        <ele>833.595</ele>
        <time>2019-10-15T15:45:10Z</time>
      </trkpt>
      <trkpt lat="-22.042448" lon="-45.696915">
        <ele>833.598</ele>
        <time>2019-10-15T15:45:13Z</time>
      </trkpt>
      <trkpt lat="-22.042359" lon="-45.696883">
        <ele>834.273</ele>
        <time>2019-10-15T15:45:17Z</time>
      </trkpt>
      <trkpt lat="-22.042303" lon="-45.696854">
        <ele>834.443</ele>
        <time>2019-10-15T15:45:19Z</time>
      </trkpt>
      <trkpt lat="-22.042238" lon="-45.696823">
        <ele>834.613</ele>
        <time>2019-10-15T15:45:22Z</time>
      </trkpt>
      <trkpt lat="-22.042186" lon="-45.696788">
        <ele>834.988</ele>
        <time>2019-10-15T15:45:24Z</time>
      </trkpt>
      <trkpt lat="-22.042145" lon="-45.696769">
        <ele>834.957</ele>
        <time>2019-10-15T15:45:25Z</time>
      </trkpt>
      <trkpt lat="-22.042098" lon="-45.696738">
        <ele>834.796</ele>
        <time>2019-10-15T15:45:28Z</time>
      </trkpt>
      <trkpt lat="-22.042044" lon="-45.696717">
        <ele>834.831</ele>
        <time>2019-10-15T15:45:30Z</time>
      </trkpt>
      <trkpt lat="-22.042003" lon="-45.696687">
        <ele>835.324</ele>
        <time>2019-10-15T15:45:32Z</time>
      </trkpt>
      <trkpt lat="-22.041950" lon="-45.696658">
        <ele>835.408</ele>
        <time>2019-10-15T15:45:34Z</time>
      </trkpt>
      <trkpt lat="-22.041904" lon="-45.696620">
        <ele>835.253</ele>
        <time>2019-10-15T15:45:36Z</time>
      </trkpt>
      <trkpt lat="-22.041867" lon="-45.696584">
        <ele>835.191</ele>
        <time>2019-10-15T15:45:38Z</time>
      </trkpt>
      <trkpt lat="-22.041785" lon="-45.696530">
        <ele>834.814</ele>
        <time>2019-10-15T15:45:41Z</time>
      </trkpt>
      <trkpt lat="-22.041718" lon="-45.696481">
        <ele>834.779</ele>
        <time>2019-10-15T15:45:43Z</time>
      </trkpt>
      <trkpt lat="-22.041681" lon="-45.696449">
        <ele>834.849</ele>
        <time>2019-10-15T15:45:44Z</time>
      </trkpt>
      <trkpt lat="-22.041637" lon="-45.696411">
        <ele>834.699</ele>
        <time>2019-10-15T15:45:47Z</time>
      </trkpt>
      <trkpt lat="-22.041597" lon="-45.696379">
        <ele>834.464</ele>
        <time>2019-10-15T15:45:48Z</time>
      </trkpt>
      <trkpt lat="-22.041561" lon="-45.696344">
        <ele>834.153</ele>
        <time>2019-10-15T15:45:50Z</time>
      </trkpt>
      <trkpt lat="-22.041513" lon="-45.696291">
        <ele>833.618</ele>
        <time>2019-10-15T15:45:52Z</time>
      </trkpt>
      <trkpt lat="-22.041469" lon="-45.696240">
        <ele>833.198</ele>
        <time>2019-10-15T15:45:54Z</time>
      </trkpt>
      <trkpt lat="-22.041430" lon="-45.696195">
        <ele>832.917</ele>
        <time>2019-10-15T15:45:55Z</time>
      </trkpt>
      <trkpt lat="-22.041394" lon="-45.696155">
        <ele>832.408</ele>
        <time>2019-10-15T15:45:57Z</time>
      </trkpt>
      <trkpt lat="-22.041333" lon="-45.696088">
        <ele>831.825</ele>
        <time>2019-10-15T15:45:59Z</time>
      </trkpt>
      <trkpt lat="-22.041286" lon="-45.696039">
        <ele>831.853</ele>
        <time>2019-10-15T15:46:00Z</time>
      </trkpt>
      <trkpt lat="-22.041248" lon="-45.695995">
        <ele>831.686</ele>
        <time>2019-10-15T15:46:02Z</time>
      </trkpt>
      <trkpt lat="-22.041211" lon="-45.695955">
        <ele>831.661</ele>
        <time>2019-10-15T15:46:04Z</time>
      </trkpt>
      <trkpt lat="-22.041158" lon="-45.695882">
        <ele>830.751</ele>
        <time>2019-10-15T15:46:06Z</time>
      </trkpt>
      <trkpt lat="-22.041126" lon="-45.695831">
        <ele>829.771</ele>
        <time>2019-10-15T15:46:07Z</time>
      </trkpt>
      <trkpt lat="-22.041094" lon="-45.695777">
        <ele>829.556</ele>
        <time>2019-10-15T15:46:09Z</time>
      </trkpt>
      <trkpt lat="-22.041059" lon="-45.695718">
        <ele>829.365</ele>
        <time>2019-10-15T15:46:11Z</time>
      </trkpt>
      <trkpt lat="-22.040993" lon="-45.695585">
        <ele>829.167</ele>
        <time>2019-10-15T15:46:14Z</time>
      </trkpt>
      <trkpt lat="-22.040968" lon="-45.695531">
        <ele>828.581</ele>
        <time>2019-10-15T15:46:16Z</time>
      </trkpt>
      <trkpt lat="-22.040942" lon="-45.695492">
        <ele>828.219</ele>
        <time>2019-10-15T15:46:17Z</time>
      </trkpt>
      <trkpt lat="-22.040900" lon="-45.695417">
        <ele>828.208</ele>
        <time>2019-10-15T15:46:19Z</time>
      </trkpt>
      <trkpt lat="-22.040873" lon="-45.695357">
        <ele>826.930</ele>
        <time>2019-10-15T15:46:20Z</time>
      </trkpt>
      <trkpt lat="-22.040218" lon="-45.689873">
        <ele>814.398</ele>
        <time>2019-10-15T15:47:49Z</time>
      </trkpt>
      <trkpt lat="-22.040197" lon="-45.689823">
        <ele>814.171</ele>
        <time>2019-10-15T15:47:52Z</time>
      </trkpt>
      <trkpt lat="-22.040184" lon="-45.689768">
        <ele>814.086</ele>
        <time>2019-10-15T15:47:53Z</time>
      </trkpt>
      <trkpt lat="-22.040161" lon="-45.689679">
        <ele>813.756</ele>
        <time>2019-10-15T15:47:55Z</time>
      </trkpt>
      <trkpt lat="-22.040152" lon="-45.689610">
        <ele>813.776</ele>
        <time>2019-10-15T15:47:57Z</time>
      </trkpt>
      <trkpt lat="-22.040138" lon="-45.689551">
        <ele>813.651</ele>
        <time>2019-10-15T15:47:58Z</time>
      </trkpt>
      <trkpt lat="-22.040106" lon="-45.689458">
        <ele>813.710</ele>
        <time>2019-10-15T15:48:01Z</time>
      </trkpt>
      <trkpt lat="-22.039978" lon="-45.689129">
        <ele>812.126</ele>
        <time>2019-10-15T15:48:08Z</time>
      </trkpt>
      <trkpt lat="-22.039951" lon="-45.689076">
        <ele>811.847</ele>
        <time>2019-10-15T15:48:10Z</time>
      </trkpt>
      <trkpt lat="-22.039932" lon="-45.688988">
        <ele>812.111</ele>
        <time>2019-10-15T15:48:12Z</time>
      </trkpt>
      <trkpt lat="-22.039513" lon="-45.687009">
        <ele>810.208</ele>
        <time>2019-10-15T15:49:01Z</time>
      </trkpt>
      <trkpt lat="-22.039593" lon="-45.686937">
        <ele>810.546</ele>
        <time>2019-10-15T15:49:05Z</time>
      </trkpt>
      <trkpt lat="-22.039642" lon="-45.686889">
        <ele>810.884</ele>
        <time>2019-10-15T15:49:07Z</time>
      </trkpt>
      <trkpt lat="-22.039680" lon="-45.686854">
        <ele>810.827</ele>
        <time>2019-10-15T15:49:08Z</time>
      </trkpt>
      <trkpt lat="-22.039727" lon="-45.686815">
        <ele>810.992</ele>
        <time>2019-10-15T15:49:10Z</time>
      </trkpt>
      <trkpt lat="-22.039800" lon="-45.686756">
        <ele>811.272</ele>
        <time>2019-10-15T15:49:14Z</time>
      </trkpt>
      <trkpt lat="-22.039838" lon="-45.686728">
        <ele>811.292</ele>
        <time>2019-10-15T15:49:15Z</time>
      </trkpt>
      <trkpt lat="-22.039876" lon="-45.686699">
        <ele>812.087</ele>
        <time>2019-10-15T15:49:18Z</time>
      </trkpt>
      <trkpt lat="-22.039927" lon="-45.686666">
        <ele>812.396</ele>
        <time>2019-10-15T15:49:20Z</time>
      </trkpt>
      <trkpt lat="-22.039974" lon="-45.686636">
        <ele>812.669</ele>
        <time>2019-10-15T15:49:22Z</time>
      </trkpt>
      <trkpt lat="-22.040032" lon="-45.686597">
        <ele>813.204</ele>
        <time>2019-10-15T15:49:25Z</time>
      </trkpt>
      <trkpt lat="-22.040093" lon="-45.686564">
        <ele>813.724</ele>
        <time>2019-10-15T15:49:27Z</time>
      </trkpt>
      <trkpt lat="-22.040135" lon="-45.686539">
        <ele>814.208</ele>
        <time>2019-10-15T15:49:29Z</time>
      </trkpt>
      <trkpt lat="-22.040207" lon="-45.686493">
        <ele>814.310</ele>
        <time>2019-10-15T15:49:34Z</time>
      </trkpt>
      <trkpt lat="-22.040237" lon="-45.686442">
        <ele>814.398</ele>
        <time>2019-10-15T15:49:37Z</time>
      </trkpt>
      <trkpt lat="-22.040199" lon="-45.686401">
        <ele>813.931</ele>
        <time>2019-10-15T15:49:40Z</time>
      </trkpt>
      <trkpt lat="-22.040151" lon="-45.686398">
        <ele>814.346</ele>
        <time>2019-10-15T15:49:42Z</time>
      </trkpt>
      <trkpt lat="-22.040073" lon="-45.686390">
        <ele>814.946</ele>
        <time>2019-10-15T15:49:47Z</time>
      </trkpt>
      <trkpt lat="-22.040024" lon="-45.686363">
        <ele>814.426</ele>
        <time>2019-10-15T15:49:49Z</time>
      </trkpt>
      <trkpt lat="-22.039980" lon="-45.686325">
        <ele>816.061</ele>
        <time>2019-10-15T15:49:55Z</time>
      </trkpt>
      <trkpt lat="-22.040058" lon="-45.686333">
        <ele>817.770</ele>
        <time>2019-10-15T15:50:06Z</time>
      </trkpt>
      <trkpt lat="-22.040107" lon="-45.686365">
        <ele>817.659</ele>
        <time>2019-10-15T15:50:08Z</time>
      </trkpt>
      <trkpt lat="-22.040061" lon="-45.686386">
        <ele>818.003</ele>
        <time>2019-10-15T15:50:13Z</time>
      </trkpt>
      <trkpt lat="-22.040019" lon="-45.686369">
        <ele>818.123</ele>
        <time>2019-10-15T15:50:16Z</time>
      </trkpt>
      <trkpt lat="-22.039961" lon="-45.686356">
        <ele>818.408</ele>
        <time>2019-10-15T15:50:19Z</time>
      </trkpt>
      <trkpt lat="-22.040015" lon="-45.686349">
        <ele>819.419</ele>
        <time>2019-10-15T15:50:25Z</time>
      </trkpt>
      <trkpt lat="-22.040059" lon="-45.686366">
        <ele>819.997</ele>
        <time>2019-10-15T15:50:27Z</time>
      </trkpt>
      <trkpt lat="-22.040090" lon="-45.686306">
        <ele>819.070</ele>
        <time>2019-10-15T15:50:31Z</time>
      </trkpt>
      <trkpt lat="-22.040097" lon="-45.686249">
        <ele>818.995</ele>
        <time>2019-10-15T15:50:32Z</time>
      </trkpt>
      <trkpt lat="-22.040104" lon="-45.686189">
        <ele>818.835</ele>
        <time>2019-10-15T15:50:34Z</time>
      </trkpt>
      <trkpt lat="-22.040122" lon="-45.686111">
        <ele>818.935</ele>
        <time>2019-10-15T15:50:36Z</time>
      </trkpt>
      <trkpt lat="-22.040148" lon="-45.686068">
        <ele>819.270</ele>
        <time>2019-10-15T15:50:38Z</time>
      </trkpt>
      <trkpt lat="-22.040194" lon="-45.686074">
        <ele>818.759</ele>
        <time>2019-10-15T15:50:40Z</time>
      </trkpt>
      <trkpt lat="-22.040242" lon="-45.686085">
        <ele>818.465</ele>
        <time>2019-10-15T15:50:43Z</time>
      </trkpt>
      <trkpt lat="-22.040195" lon="-45.686052">
        <ele>816.868</ele>
        <time>2019-10-15T15:50:48Z</time>
      </trkpt>
      <trkpt lat="-22.040139" lon="-45.686046">
        <ele>816.914</ele>
        <time>2019-10-15T15:50:50Z</time>
      </trkpt>
      <trkpt lat="-22.040096" lon="-45.686026">
        <ele>816.808</ele>
        <time>2019-10-15T15:50:51Z</time>
      </trkpt>
      <trkpt lat="-22.040046" lon="-45.686009">
        <ele>816.620</ele>
        <time>2019-10-15T15:50:53Z</time>
      </trkpt>
      <trkpt lat="-22.040075" lon="-45.686054">
        <ele>816.338</ele>
        <time>2019-10-15T15:50:58Z</time>
      </trkpt>
      <trkpt lat="-22.040127" lon="-45.686062">
        <ele>816.261</ele>
        <time>2019-10-15T15:51:00Z</time>
      </trkpt>
      <trkpt lat="-22.040186" lon="-45.686076">
        <ele>815.626</ele>
        <time>2019-10-15T15:51:01Z</time>
      </trkpt>
      <trkpt lat="-22.040240" lon="-45.686085">
        <ele>815.526</ele>
        <time>2019-10-15T15:51:05Z</time>
      </trkpt>
      <trkpt lat="-22.040247" lon="-45.686036">
        <ele>814.076</ele>
        <time>2019-10-15T15:51:10Z</time>
      </trkpt>
      <trkpt lat="-22.040200" lon="-45.686045">
        <ele>813.821</ele>
        <time>2019-10-15T15:51:13Z</time>
      </trkpt>
      <trkpt lat="-22.040133" lon="-45.686064">
        <ele>813.590</ele>
        <time>2019-10-15T15:51:15Z</time>
      </trkpt>
      <trkpt lat="-22.040067" lon="-45.686029">
        <ele>814.349</ele>
        <time>2019-10-15T15:51:17Z</time>
      </trkpt>
      <trkpt lat="-22.040114" lon="-45.686009">
        <ele>813.702</ele>
        <time>2019-10-15T15:51:22Z</time>
      </trkpt>
      <trkpt lat="-22.040160" lon="-45.686022">
        <ele>813.322</ele>
        <time>2019-10-15T15:51:24Z</time>
      </trkpt>
      <trkpt lat="-22.040222" lon="-45.686033">
        <ele>812.608</ele>
        <time>2019-10-15T15:51:28Z</time>
      </trkpt>
      <trkpt lat="-22.040184" lon="-45.686000">
        <ele>811.998</ele>
        <time>2019-10-15T15:51:32Z</time>
      </trkpt>
      <trkpt lat="-22.040136" lon="-45.685993">
        <ele>811.416</ele>
        <time>2019-10-15T15:51:35Z</time>
      </trkpt>
      <trkpt lat="-22.040088" lon="-45.685984">
        <ele>810.819</ele>
        <time>2019-10-15T15:51:37Z</time>
      </trkpt>
      <trkpt lat="-22.040015" lon="-45.685964">
        <ele>810.134</ele>
        <time>2019-10-15T15:51:38Z</time>
      </trkpt>
      <trkpt lat="-22.039909" lon="-45.685946">
        <ele>811.174</ele>
        <time>2019-10-15T15:51:42Z</time>
      </trkpt>
      <trkpt lat="-22.039867" lon="-45.685980">
        <ele>810.864</ele>
        <time>2019-10-15T15:51:44Z</time>
      </trkpt>
      <trkpt lat="-22.039829" lon="-45.686011">
        <ele>810.869</ele>
        <time>2019-10-15T15:51:46Z</time>
      </trkpt>
      <trkpt lat="-22.039779" lon="-45.686005">
        <ele>810.468</ele>
        <time>2019-10-15T15:51:48Z</time>
      </trkpt>
      <trkpt lat="-22.039730" lon="-45.685986">
        <ele>810.444</ele>
        <time>2019-10-15T15:51:49Z</time>
      </trkpt>
      <trkpt lat="-22.039649" lon="-45.685947">
        <ele>810.105</ele>
        <time>2019-10-15T15:51:51Z</time>
      </trkpt>
      <trkpt lat="-22.037642" lon="-45.684003">
        <ele>811.515</ele>
        <time>2019-10-15T15:52:53Z</time>
      </trkpt>
      <trkpt lat="-22.037632" lon="-45.683946">
        <ele>811.708</ele>
        <time>2019-10-15T15:52:55Z</time>
      </trkpt>
      <trkpt lat="-22.037604" lon="-45.683905">
        <ele>811.558</ele>
        <time>2019-10-15T15:52:57Z</time>
      </trkpt>
      <trkpt lat="-22.037574" lon="-45.683847">
        <ele>811.476</ele>
        <time>2019-10-15T15:52:58Z</time>
      </trkpt>
      <trkpt lat="-22.037545" lon="-45.683790">
        <ele>811.869</ele>
        <time>2019-10-15T15:53:00Z</time>
      </trkpt>
      <trkpt lat="-22.037503" lon="-45.683691">
        <ele>811.714</ele>
        <time>2019-10-15T15:53:02Z</time>
      </trkpt>
      <trkpt lat="-22.037446" lon="-45.683546">
        <ele>812.434</ele>
        <time>2019-10-15T15:53:06Z</time>
      </trkpt>
      <trkpt lat="-22.037420" lon="-45.683465">
        <ele>812.754</ele>
        <time>2019-10-15T15:53:08Z</time>
      </trkpt>
      <trkpt lat="-22.037374" lon="-45.683341">
        <ele>813.419</ele>
        <time>2019-10-15T15:53:11Z</time>
      </trkpt>
      <trkpt lat="-22.037324" lon="-45.683236">
        <ele>813.558</ele>
        <time>2019-10-15T15:53:13Z</time>
      </trkpt>
      <trkpt lat="-22.037307" lon="-45.683183">
        <ele>813.893</ele>
        <time>2019-10-15T15:53:15Z</time>
      </trkpt>
      <trkpt lat="-22.037285" lon="-45.683116">
        <ele>814.065</ele>
        <time>2019-10-15T15:53:17Z</time>
      </trkpt>
      <trkpt lat="-22.037257" lon="-45.683045">
        <ele>813.821</ele>
        <time>2019-10-15T15:53:18Z</time>
      </trkpt>
      <trkpt lat="-22.037235" lon="-45.682992">
        <ele>814.308</ele>
        <time>2019-10-15T15:53:20Z</time>
      </trkpt>
      <trkpt lat="-22.037214" lon="-45.682926">
        <ele>814.423</ele>
        <time>2019-10-15T15:53:22Z</time>
      </trkpt>
      <trkpt lat="-22.037190" lon="-45.682859">
        <ele>814.181</ele>
        <time>2019-10-15T15:53:23Z</time>
      </trkpt>
      <trkpt lat="-22.037172" lon="-45.682812">
        <ele>814.294</ele>
        <time>2019-10-15T15:53:25Z</time>
      </trkpt>
      <trkpt lat="-22.037142" lon="-45.682730">
        <ele>813.779</ele>
        <time>2019-10-15T15:53:26Z</time>
      </trkpt>
      <trkpt lat="-22.037117" lon="-45.682666">
        <ele>813.679</ele>
        <time>2019-10-15T15:53:28Z</time>
      </trkpt>
      <trkpt lat="-22.035313" lon="-45.678431">
        <ele>815.879</ele>
        <time>2019-10-15T15:55:02Z</time>
      </trkpt>
      <trkpt lat="-22.035271" lon="-45.678380">
        <ele>816.184</ele>
        <time>2019-10-15T15:55:04Z</time>
      </trkpt>
      <trkpt lat="-22.035228" lon="-45.678304">
        <ele>815.553</ele>
        <time>2019-10-15T15:55:06Z</time>
      </trkpt>
      <trkpt lat="-22.035180" lon="-45.678236">
        <ele>815.982</ele>
        <time>2019-10-15T15:55:08Z</time>
      </trkpt>
      <trkpt lat="-22.035147" lon="-45.678192">
        <ele>815.943</ele>
        <time>2019-10-15T15:55:09Z</time>
      </trkpt>
      <trkpt lat="-22.035097" lon="-45.678129">
        <ele>816.117</ele>
        <time>2019-10-15T15:55:12Z</time>
      </trkpt>
      <trkpt lat="-22.035062" lon="-45.678078">
        <ele>816.408</ele>
        <time>2019-10-15T15:55:13Z</time>
      </trkpt>
      <trkpt lat="-22.035024" lon="-45.678029">
        <ele>816.992</ele>
        <time>2019-10-15T15:55:16Z</time>
      </trkpt>
      <trkpt lat="-22.034996" lon="-45.677991">
        <ele>817.120</ele>
        <time>2019-10-15T15:55:17Z</time>
      </trkpt>
      <trkpt lat="-22.034941" lon="-45.677925">
        <ele>816.613</ele>
        <time>2019-10-15T15:55:20Z</time>
      </trkpt>
      <trkpt lat="-22.034909" lon="-45.677886">
        <ele>816.928</ele>
        <time>2019-10-15T15:55:21Z</time>
      </trkpt>
      <trkpt lat="-22.034876" lon="-45.677849">
        <ele>817.228</ele>
        <time>2019-10-15T15:55:23Z</time>
      </trkpt>
      <trkpt lat="-22.034839" lon="-45.677807">
        <ele>818.078</ele>
        <time>2019-10-15T15:55:25Z</time>
      </trkpt>
      <trkpt lat="-22.034804" lon="-45.677767">
        <ele>818.273</ele>
        <time>2019-10-15T15:55:26Z</time>
      </trkpt>
      <trkpt lat="-22.034769" lon="-45.677723">
        <ele>818.882</ele>
        <time>2019-10-15T15:55:28Z</time>
      </trkpt>
      <trkpt lat="-22.034720" lon="-45.677676">
        <ele>818.649</ele>
        <time>2019-10-15T15:55:30Z</time>
      </trkpt>
      <trkpt lat="-22.034677" lon="-45.677639">
        <ele>818.402</ele>
        <time>2019-10-15T15:55:31Z</time>
      </trkpt>
      <trkpt lat="-22.034626" lon="-45.677586">
        <ele>818.622</ele>
        <time>2019-10-15T15:55:34Z</time>
      </trkpt>
      <trkpt lat="-22.034593" lon="-45.677550">
        <ele>819.008</ele>
        <time>2019-10-15T15:55:35Z</time>
      </trkpt>
      <trkpt lat="-22.034544" lon="-45.677508">
        <ele>819.398</ele>
        <time>2019-10-15T15:55:38Z</time>
      </trkpt>
      <trkpt lat="-22.034498" lon="-45.677461">
        <ele>820.036</ele>
        <time>2019-10-15T15:55:40Z</time>
      </trkpt>
      <trkpt lat="-22.034450" lon="-45.677407">
        <ele>820.379</ele>
        <time>2019-10-15T15:55:42Z</time>
      </trkpt>
      <trkpt lat="-22.034415" lon="-45.677375">
        <ele>820.764</ele>
        <time>2019-10-15T15:55:44Z</time>
      </trkpt>
      <trkpt lat="-22.034366" lon="-45.677327">
        <ele>820.764</ele>
        <time>2019-10-15T15:55:45Z</time>
      </trkpt>
      <trkpt lat="-22.034297" lon="-45.677265">
        <ele>820.924</ele>
        <time>2019-10-15T15:55:48Z</time>
      </trkpt>
      <trkpt lat="-22.034237" lon="-45.677207">
        <ele>820.789</ele>
        <time>2019-10-15T15:55:51Z</time>
      </trkpt>
      <trkpt lat="-22.034201" lon="-45.677174">
        <ele>821.038</ele>
        <time>2019-10-15T15:55:53Z</time>
      </trkpt>
      <trkpt lat="-22.034133" lon="-45.677106">
        <ele>821.245</ele>
        <time>2019-10-15T15:55:55Z</time>
      </trkpt>
      <trkpt lat="-22.034077" lon="-45.677053">
        <ele>821.647</ele>
        <time>2019-10-15T15:55:58Z</time>
      </trkpt>
      <trkpt lat="-22.034023" lon="-45.677004">
        <ele>821.411</ele>
        <time>2019-10-15T15:56:01Z</time>
      </trkpt>
      <trkpt lat="-22.033969" lon="-45.676959">
        <ele>821.708</ele>
        <time>2019-10-15T15:56:03Z</time>
      </trkpt>
      <trkpt lat="-22.033894" lon="-45.676886">
        <ele>822.528</ele>
        <time>2019-10-15T15:56:07Z</time>
      </trkpt>
      <trkpt lat="-22.033846" lon="-45.676836">
        <ele>822.566</ele>
        <time>2019-10-15T15:56:09Z</time>
      </trkpt>
      <trkpt lat="-22.033813" lon="-45.676802">
        <ele>822.749</ele>
        <time>2019-10-15T15:56:11Z</time>
      </trkpt>
      <trkpt lat="-22.033705" lon="-45.676700">
        <ele>823.044</ele>
        <time>2019-10-15T15:56:15Z</time>
      </trkpt>
      <trkpt lat="-22.033624" lon="-45.676627">
        <ele>822.834</ele>
        <time>2019-10-15T15:56:19Z</time>
      </trkpt>
      <trkpt lat="-22.033560" lon="-45.676575">
        <ele>823.374</ele>
        <time>2019-10-15T15:56:22Z</time>
      </trkpt>
      <trkpt lat="-22.033449" lon="-45.676479">
        <ele>824.759</ele>
        <time>2019-10-15T15:56:26Z</time>
      </trkpt>
      <trkpt lat="-22.033312" lon="-45.676368">
        <ele>824.868</ele>
        <time>2019-10-15T15:56:31Z</time>
      </trkpt>
      <trkpt lat="-22.033155" lon="-45.676264">
        <ele>825.088</ele>
        <time>2019-10-15T15:56:35Z</time>
      </trkpt>
      <trkpt lat="-22.033094" lon="-45.676224">
        <ele>825.024</ele>
        <time>2019-10-15T15:56:37Z</time>
      </trkpt>
      <trkpt lat="-22.033040" lon="-45.676159">
        <ele>825.526</ele>
        <time>2019-10-15T15:56:40Z</time>
      </trkpt>
      <trkpt lat="-22.033061" lon="-45.676095">
        <ele>826.108</ele>
        <time>2019-10-15T15:56:42Z</time>
      </trkpt>
      <trkpt lat="-22.033108" lon="-45.676045">
        <ele>825.962</ele>
        <time>2019-10-15T15:56:44Z</time>
      </trkpt>
      <trkpt lat="-22.033145" lon="-45.676015">
        <ele>825.950</ele>
        <time>2019-10-15T15:56:46Z</time>
      </trkpt>
      <trkpt lat="-22.033208" lon="-45.676009">
        <ele>826.413</ele>
        <time>2019-10-15T15:56:49Z</time>
      </trkpt>
      <trkpt lat="-22.033262" lon="-45.675996">
        <ele>826.698</ele>
        <time>2019-10-15T15:56:51Z</time>
      </trkpt>
      <trkpt lat="-22.033311" lon="-45.675991">
        <ele>826.668</ele>
        <time>2019-10-15T15:56:54Z</time>
      </trkpt>
      <trkpt lat="-22.033367" lon="-45.675973">
        <ele>826.518</ele>
        <time>2019-10-15T15:56:56Z</time>
      </trkpt>
      <trkpt lat="-22.033415" lon="-45.675958">
        <ele>826.763</ele>
        <time>2019-10-15T15:56:59Z</time>
      </trkpt>
      <trkpt lat="-22.033473" lon="-45.675931">
        <ele>826.642</ele>
        <time>2019-10-15T15:57:02Z</time>
      </trkpt>
      <trkpt lat="-22.033529" lon="-45.675920">
        <ele>826.614</ele>
        <time>2019-10-15T15:57:04Z</time>
      </trkpt>
      <trkpt lat="-22.033577" lon="-45.675910">
        <ele>826.354</ele>
        <time>2019-10-15T15:57:06Z</time>
      </trkpt>
      <trkpt lat="-22.033633" lon="-45.675895">
        <ele>826.509</ele>
        <time>2019-10-15T15:57:07Z</time>
      </trkpt>
      <trkpt lat="-22.033690" lon="-45.675880">
        <ele>827.108</ele>
        <time>2019-10-15T15:57:10Z</time>
      </trkpt>
      <trkpt lat="-22.033736" lon="-45.675862">
        <ele>826.695</ele>
        <time>2019-10-15T15:57:11Z</time>
      </trkpt>
      <trkpt lat="-22.033818" lon="-45.675840">
        <ele>826.963</ele>
        <time>2019-10-15T15:57:15Z</time>
      </trkpt>
      <trkpt lat="-22.033878" lon="-45.675822">
        <ele>827.096</ele>
        <time>2019-10-15T15:57:17Z</time>
      </trkpt>
      <trkpt lat="-22.033928" lon="-45.675806">
        <ele>826.861</ele>
        <time>2019-10-15T15:57:18Z</time>
      </trkpt>
      <trkpt lat="-22.034031" lon="-45.675782">
        <ele>826.571</ele>
        <time>2019-10-15T15:57:21Z</time>
      </trkpt>
      <trkpt lat="-22.034106" lon="-45.675764">
        <ele>826.841</ele>
        <time>2019-10-15T15:57:24Z</time>
      </trkpt>
      <trkpt lat="-22.034151" lon="-45.675752">
        <ele>826.776</ele>
        <time>2019-10-15T15:57:26Z</time>
      </trkpt>
      <trkpt lat="-22.034197" lon="-45.675741">
        <ele>826.885</ele>
        <time>2019-10-15T15:57:27Z</time>
      </trkpt>
      <trkpt lat="-22.034254" lon="-45.675727">
        <ele>826.897</ele>
        <time>2019-10-15T15:57:29Z</time>
      </trkpt>
      <trkpt lat="-22.034309" lon="-45.675713">
        <ele>826.323</ele>
        <time>2019-10-15T15:57:31Z</time>
      </trkpt>
      <trkpt lat="-22.034367" lon="-45.675704">
        <ele>826.225</ele>
        <time>2019-10-15T15:57:32Z</time>
      </trkpt>
      <trkpt lat="-22.034412" lon="-45.675690">
        <ele>826.308</ele>
        <time>2019-10-15T15:57:34Z</time>
      </trkpt>
      <trkpt lat="-22.034475" lon="-45.675680">
        <ele>826.163</ele>
        <time>2019-10-15T15:57:36Z</time>
      </trkpt>
      <trkpt lat="-22.034560" lon="-45.675672">
        <ele>826.311</ele>
        <time>2019-10-15T15:57:38Z</time>
      </trkpt>
      <trkpt lat="-22.034612" lon="-45.675663">
        <ele>826.234</ele>
        <time>2019-10-15T15:57:40Z</time>
      </trkpt>
      <trkpt lat="-22.034663" lon="-45.675647">
        <ele>826.389</ele>
        <time>2019-10-15T15:57:42Z</time>
      </trkpt>
      <trkpt lat="-22.034728" lon="-45.675637">
        <ele>826.439</ele>
        <time>2019-10-15T15:57:44Z</time>
      </trkpt>
      <trkpt lat="-22.034782" lon="-45.675623">
        <ele>827.069</ele>
        <time>2019-10-15T15:57:46Z</time>
      </trkpt>
      <trkpt lat="-22.034835" lon="-45.675612">
        <ele>827.024</ele>
        <time>2019-10-15T15:57:47Z</time>
      </trkpt>
      <trkpt lat="-22.034883" lon="-45.675601">
        <ele>826.863</ele>
        <time>2019-10-15T15:57:49Z</time>
      </trkpt>
      <trkpt lat="-22.034968" lon="-45.675585">
        <ele>826.947</ele>
        <time>2019-10-15T15:57:51Z</time>
      </trkpt>
      <trkpt lat="-22.035052" lon="-45.675571">
        <ele>826.929</ele>
        <time>2019-10-15T15:57:54Z</time>
      </trkpt>
      <trkpt lat="-22.035144" lon="-45.675541">
        <ele>826.621</ele>
        <time>2019-10-15T15:57:57Z</time>
      </trkpt>
      <trkpt lat="-22.035205" lon="-45.675522">
        <ele>826.208</ele>
        <time>2019-10-15T15:58:00Z</time>
      </trkpt>
      <trkpt lat="-22.035266" lon="-45.675510">
        <ele>826.298</ele>
        <time>2019-10-15T15:58:02Z</time>
      </trkpt>
      <trkpt lat="-22.035332" lon="-45.675503">
        <ele>826.196</ele>
        <time>2019-10-15T15:58:04Z</time>
      </trkpt>
      <trkpt lat="-22.035391" lon="-45.675499">
        <ele>825.759</ele>
        <time>2019-10-15T15:58:05Z</time>
      </trkpt>
      <trkpt lat="-22.035460" lon="-45.675492">
        <ele>825.554</ele>
        <time>2019-10-15T15:58:08Z</time>
      </trkpt>
      <trkpt lat="-22.035533" lon="-45.675483">
        <ele>825.574</ele>
        <time>2019-10-15T15:58:09Z</time>
      </trkpt>
      <trkpt lat="-22.035589" lon="-45.675475">
        <ele>825.324</ele>
        <time>2019-10-15T15:58:11Z</time>
      </trkpt>
      <trkpt lat="-22.035662" lon="-45.675460">
        <ele>825.059</ele>
        <time>2019-10-15T15:58:13Z</time>
      </trkpt>
      <trkpt lat="-22.035725" lon="-45.675444">
        <ele>824.618</ele>
        <time>2019-10-15T15:58:14Z</time>
      </trkpt>
      <trkpt lat="-22.035791" lon="-45.675426">
        <ele>824.521</ele>
        <time>2019-10-15T15:58:16Z</time>
      </trkpt>
      <trkpt lat="-22.035868" lon="-45.675398">
        <ele>825.141</ele>
        <time>2019-10-15T15:58:18Z</time>
      </trkpt>
      <trkpt lat="-22.035935" lon="-45.675385">
        <ele>824.605</ele>
        <time>2019-10-15T15:58:20Z</time>
      </trkpt>
      <trkpt lat="-22.037181" lon="-45.675015">
        <ele>823.908</ele>
        <time>2019-10-15T15:58:50Z</time>
      </trkpt>
      <trkpt lat="-22.037238" lon="-45.674989">
        <ele>824.016</ele>
        <time>2019-10-15T15:58:52Z</time>
      </trkpt>
      <trkpt lat="-22.037292" lon="-45.674962">
        <ele>824.254</ele>
        <time>2019-10-15T15:58:54Z</time>
      </trkpt>
      <trkpt lat="-22.037339" lon="-45.674942">
        <ele>824.247</ele>
        <time>2019-10-15T15:58:55Z</time>
      </trkpt>
      <trkpt lat="-22.037387" lon="-45.674923">
        <ele>824.592</ele>
        <time>2019-10-15T15:58:57Z</time>
      </trkpt>
      <trkpt lat="-22.037449" lon="-45.674896">
        <ele>824.452</ele>
        <time>2019-10-15T15:58:59Z</time>
      </trkpt>
      <trkpt lat="-22.037496" lon="-45.674870">
        <ele>824.842</ele>
        <time>2019-10-15T15:59:01Z</time>
      </trkpt>
      <trkpt lat="-22.037567" lon="-45.674835">
        <ele>825.147</ele>
        <time>2019-10-15T15:59:03Z</time>
      </trkpt>
      <trkpt lat="-22.037622" lon="-45.674811">
        <ele>825.286</ele>
        <time>2019-10-15T15:59:04Z</time>
      </trkpt>
      <trkpt lat="-22.037681" lon="-45.674777">
        <ele>825.331</ele>
        <time>2019-10-15T15:59:07Z</time>
      </trkpt>
      <trkpt lat="-22.037741" lon="-45.674740">
        <ele>825.161</ele>
        <time>2019-10-15T15:59:08Z</time>
      </trkpt>
      <trkpt lat="-22.037788" lon="-45.674711">
        <ele>825.307</ele>
        <time>2019-10-15T15:59:10Z</time>
      </trkpt>
      <trkpt lat="-22.037873" lon="-45.674662">
        <ele>825.208</ele>
        <time>2019-10-15T15:59:13Z</time>
      </trkpt>
      <trkpt lat="-22.037923" lon="-45.674635">
        <ele>825.577</ele>
        <time>2019-10-15T15:59:14Z</time>
      </trkpt>
      <trkpt lat="-22.038001" lon="-45.674595">
        <ele>825.385</ele>
        <time>2019-10-15T15:59:17Z</time>
      </trkpt>
      <trkpt lat="-22.038050" lon="-45.674565">
        <ele>825.428</ele>
        <time>2019-10-15T15:59:18Z</time>
      </trkpt>
      <trkpt lat="-22.038091" lon="-45.674537">
        <ele>825.553</ele>
        <time>2019-10-15T15:59:20Z</time>
      </trkpt>
      <trkpt lat="-22.038133" lon="-45.674509">
        <ele>825.683</ele>
        <time>2019-10-15T15:59:21Z</time>
      </trkpt>
      <trkpt lat="-22.038189" lon="-45.674476">
        <ele>825.873</ele>
        <time>2019-10-15T15:59:24Z</time>
      </trkpt>
      <trkpt lat="-22.038243" lon="-45.674438">
        <ele>825.758</ele>
        <time>2019-10-15T15:59:26Z</time>
      </trkpt>
      <trkpt lat="-22.038282" lon="-45.674406">
        <ele>826.017</ele>
        <time>2019-10-15T15:59:27Z</time>
      </trkpt>
      <trkpt lat="-22.038317" lon="-45.674375">
        <ele>826.331</ele>
        <time>2019-10-15T15:59:29Z</time>
      </trkpt>
      <trkpt lat="-22.038381" lon="-45.674311">
        <ele>826.461</ele>
        <time>2019-10-15T15:59:32Z</time>
      </trkpt>
      <trkpt lat="-22.038421" lon="-45.674280">
        <ele>826.707</ele>
        <time>2019-10-15T15:59:33Z</time>
      </trkpt>
      <trkpt lat="-22.038454" lon="-45.674246">
        <ele>826.608</ele>
        <time>2019-10-15T15:59:35Z</time>
      </trkpt>
      <trkpt lat="-22.038488" lon="-45.674210">
        <ele>826.427</ele>
        <time>2019-10-15T15:59:37Z</time>
      </trkpt>
      <trkpt lat="-22.038552" lon="-45.674141">
        <ele>826.785</ele>
        <time>2019-10-15T15:59:39Z</time>
      </trkpt>
      <trkpt lat="-22.038583" lon="-45.674103">
        <ele>826.828</ele>
        <time>2019-10-15T15:59:41Z</time>
      </trkpt>
      <trkpt lat="-22.038630" lon="-45.674054">
        <ele>826.753</ele>
        <time>2019-10-15T15:59:43Z</time>
      </trkpt>
      <trkpt lat="-22.038667" lon="-45.674007">
        <ele>826.953</ele>
        <time>2019-10-15T15:59:45Z</time>
      </trkpt>
      <trkpt lat="-22.038707" lon="-45.673967">
        <ele>826.943</ele>
        <time>2019-10-15T15:59:47Z</time>
      </trkpt>
      <trkpt lat="-22.038751" lon="-45.673914">
        <ele>826.988</ele>
        <time>2019-10-15T15:59:48Z</time>
      </trkpt>
      <trkpt lat="-22.038786" lon="-45.673873">
        <ele>826.957</ele>
        <time>2019-10-15T15:59:50Z</time>
      </trkpt>
      <trkpt lat="-22.038822" lon="-45.673835">
        <ele>826.788</ele>
        <time>2019-10-15T15:59:52Z</time>
      </trkpt>
      <trkpt lat="-22.038853" lon="-45.673794">
        <ele>826.724</ele>
        <time>2019-10-15T15:59:53Z</time>
      </trkpt>
      <trkpt lat="-22.038904" lon="-45.673728">
        <ele>826.926</ele>
        <time>2019-10-15T15:59:56Z</time>
      </trkpt>
      <trkpt lat="-22.038939" lon="-45.673684">
        <ele>826.908</ele>
        <time>2019-10-15T15:59:58Z</time>
      </trkpt>
      <trkpt lat="-22.038983" lon="-45.673629">
        <ele>826.782</ele>
        <time>2019-10-15T15:59:59Z</time>
      </trkpt>
      <trkpt lat="-22.039030" lon="-45.673569">
        <ele>826.410</ele>
        <time>2019-10-15T16:00:02Z</time>
      </trkpt>
      <trkpt lat="-22.039069" lon="-45.673516">
        <ele>826.813</ele>
        <time>2019-10-15T16:00:03Z</time>
      </trkpt>
      <trkpt lat="-22.039100" lon="-45.673476">
        <ele>827.048</ele>
        <time>2019-10-15T16:00:04Z</time>
      </trkpt>
      <trkpt lat="-22.039129" lon="-45.673438">
        <ele>826.758</ele>
        <time>2019-10-15T16:00:06Z</time>
      </trkpt>
      <trkpt lat="-22.039209" lon="-45.673344">
        <ele>826.928</ele>
        <time>2019-10-15T16:00:09Z</time>
      </trkpt>
      <trkpt lat="-22.039251" lon="-45.673304">
        <ele>826.813</ele>
        <time>2019-10-15T16:00:10Z</time>
      </trkpt>
      <trkpt lat="-22.039287" lon="-45.673263">
        <ele>826.982</ele>
        <time>2019-10-15T16:00:12Z</time>
      </trkpt>
      <trkpt lat="-22.039321" lon="-45.673219">
        <ele>826.981</ele>
        <time>2019-10-15T16:00:13Z</time>
      </trkpt>
      <trkpt lat="-22.039375" lon="-45.673155">
        <ele>826.761</ele>
        <time>2019-10-15T16:00:16Z</time>
      </trkpt>
      <trkpt lat="-22.039407" lon="-45.673110">
        <ele>826.717</ele>
        <time>2019-10-15T16:00:18Z</time>
      </trkpt>
      <trkpt lat="-22.039442" lon="-45.673070">
        <ele>826.608</ele>
        <time>2019-10-15T16:00:19Z</time>
      </trkpt>
      <trkpt lat="-22.039477" lon="-45.673024">
        <ele>826.592</ele>
        <time>2019-10-15T16:00:21Z</time>
      </trkpt>
      <trkpt lat="-22.039521" lon="-45.672964">
        <ele>826.680</ele>
        <time>2019-10-15T16:00:23Z</time>
      </trkpt>
      <trkpt lat="-22.039573" lon="-45.672916">
        <ele>826.563</ele>
        <time>2019-10-15T16:00:25Z</time>
      </trkpt>
      <trkpt lat="-22.039614" lon="-45.672876">
        <ele>826.558</ele>
        <time>2019-10-15T16:00:26Z</time>
      </trkpt>
      <trkpt lat="-22.039663" lon="-45.672820">
        <ele>826.558</ele>
        <time>2019-10-15T16:00:28Z</time>
      </trkpt>
      <trkpt lat="-22.039706" lon="-45.672753">
        <ele>826.118</ele>
        <time>2019-10-15T16:00:30Z</time>
      </trkpt>
      <trkpt lat="-22.040678" lon="-45.670852">
        <ele>823.763</ele>
        <time>2019-10-15T16:01:12Z</time>
      </trkpt>
      <trkpt lat="-22.040695" lon="-45.670807">
        <ele>824.442</ele>
        <time>2019-10-15T16:01:14Z</time>
      </trkpt>
      <trkpt lat="-22.040731" lon="-45.670720">
        <ele>824.014</ele>
        <time>2019-10-15T16:01:17Z</time>
      </trkpt>
      <trkpt lat="-22.040831" lon="-45.670495">
        <ele>823.654</ele>
        <time>2019-10-15T16:01:22Z</time>
      </trkpt>
      <trkpt lat="-22.040859" lon="-45.670436">
        <ele>823.809</ele>
        <time>2019-10-15T16:01:24Z</time>
      </trkpt>
      <trkpt lat="-22.040901" lon="-45.670357">
        <ele>823.508</ele>
        <time>2019-10-15T16:01:26Z</time>
      </trkpt>
      <trkpt lat="-22.040939" lon="-45.670300">
        <ele>823.465</ele>
        <time>2019-10-15T16:01:27Z</time>
      </trkpt>
      <trkpt lat="-22.040978" lon="-45.670253">
        <ele>823.483</ele>
        <time>2019-10-15T16:01:29Z</time>
      </trkpt>
      <trkpt lat="-22.041008" lon="-45.670208">
        <ele>823.836</ele>
        <time>2019-10-15T16:01:31Z</time>
      </trkpt>
      <trkpt lat="-22.041050" lon="-45.670151">
        <ele>824.321</ele>
        <time>2019-10-15T16:01:33Z</time>
      </trkpt>
      <trkpt lat="-22.041087" lon="-45.670106">
        <ele>824.211</ele>
        <time>2019-10-15T16:01:34Z</time>
      </trkpt>
      <trkpt lat="-22.041128" lon="-45.670045">
        <ele>825.161</ele>
        <time>2019-10-15T16:01:36Z</time>
      </trkpt>
      <trkpt lat="-22.041159" lon="-45.669997">
        <ele>825.416</ele>
        <time>2019-10-15T16:01:38Z</time>
      </trkpt>
      <trkpt lat="-22.041192" lon="-45.669955">
        <ele>825.725</ele>
        <time>2019-10-15T16:01:41Z</time>
      </trkpt>
      <trkpt lat="-22.041237" lon="-45.669902">
        <ele>826.283</ele>
        <time>2019-10-15T16:01:44Z</time>
      </trkpt>
      <trkpt lat="-22.041270" lon="-45.669860">
        <ele>826.425</ele>
        <time>2019-10-15T16:01:47Z</time>
      </trkpt>
      <trkpt lat="-22.041304" lon="-45.669820">
        <ele>826.617</ele>
        <time>2019-10-15T16:01:49Z</time>
      </trkpt>
      <trkpt lat="-22.041357" lon="-45.669756">
        <ele>827.208</ele>
        <time>2019-10-15T16:01:53Z</time>
      </trkpt>
      <trkpt lat="-22.041396" lon="-45.669708">
        <ele>827.762</ele>
        <time>2019-10-15T16:01:55Z</time>
      </trkpt>
      <trkpt lat="-22.041433" lon="-45.669657">
        <ele>827.780</ele>
        <time>2019-10-15T16:01:58Z</time>
      </trkpt>
      <trkpt lat="-22.041475" lon="-45.669594">
        <ele>828.423</ele>
        <time>2019-10-15T16:02:02Z</time>
      </trkpt>
      <trkpt lat="-22.041511" lon="-45.669546">
        <ele>828.298</ele>
        <time>2019-10-15T16:02:05Z</time>
      </trkpt>
      <trkpt lat="-22.041537" lon="-45.669497">
        <ele>828.368</ele>
        <time>2019-10-15T16:02:07Z</time>
      </trkpt>
      <trkpt lat="-22.041569" lon="-45.669447">
        <ele>828.268</ele>
        <time>2019-10-15T16:02:09Z</time>
      </trkpt>
      <trkpt lat="-22.041613" lon="-45.669386">
        <ele>827.943</ele>
        <time>2019-10-15T16:02:12Z</time>
      </trkpt>
      <trkpt lat="-22.041645" lon="-45.669339">
        <ele>827.452</ele>
        <time>2019-10-15T16:02:14Z</time>
      </trkpt>
      <trkpt lat="-22.041700" lon="-45.668190">
        <ele>828.412</ele>
        <time>2019-10-15T16:02:39Z</time>
      </trkpt>
      <trkpt lat="-22.041706" lon="-45.668132">
        <ele>828.832</ele>
        <time>2019-10-15T16:02:42Z</time>
      </trkpt>
      <trkpt lat="-22.041698" lon="-45.668072">
        <ele>829.005</ele>
        <time>2019-10-15T16:02:44Z</time>
      </trkpt>
      <trkpt lat="-22.041694" lon="-45.668009">
        <ele>829.208</ele>
        <time>2019-10-15T16:02:46Z</time>
      </trkpt>
      <trkpt lat="-22.041689" lon="-45.667954">
        <ele>829.285</ele>
        <time>2019-10-15T16:02:48Z</time>
      </trkpt>
      <trkpt lat="-22.041681" lon="-45.667881">
        <ele>829.613</ele>
        <time>2019-10-15T16:02:51Z</time>
      </trkpt>
      <trkpt lat="-22.041676" lon="-45.667821">
        <ele>829.656</ele>
        <time>2019-10-15T16:02:53Z</time>
      </trkpt>
      <trkpt lat="-22.041668" lon="-45.667749">
        <ele>829.831</ele>
        <time>2019-10-15T16:02:56Z</time>
      </trkpt>
      <trkpt lat="-22.041658" lon="-45.667664">
        <ele>829.621</ele>
        <time>2019-10-15T16:02:59Z</time>
      </trkpt>
      <trkpt lat="-22.041648" lon="-45.667605">
        <ele>829.921</ele>
        <time>2019-10-15T16:03:00Z</time>
      </trkpt>
      <trkpt lat="-22.041634" lon="-45.667542">
        <ele>829.846</ele>
        <time>2019-10-15T16:03:02Z</time>
      </trkpt>
      <trkpt lat="-22.041622" lon="-45.667436">
        <ele>830.085</ele>
        <time>2019-10-15T16:03:06Z</time>
      </trkpt>
      <trkpt lat="-22.041607" lon="-45.667385">
        <ele>830.332</ele>
        <time>2019-10-15T16:03:07Z</time>
      </trkpt>
      <trkpt lat="-22.041591" lon="-45.667335">
        <ele>830.792</ele>
        <time>2019-10-15T16:03:09Z</time>
      </trkpt>
      <trkpt lat="-22.041567" lon="-45.667220">
        <ele>831.311</ele>
        <time>2019-10-15T16:04:24Z</time>
      </trkpt>
      <trkpt lat="-22.041556" lon="-45.667172">
        <ele>831.508</ele>
        <time>2019-10-15T16:04:27Z</time>
      </trkpt>
      <trkpt lat="-22.041503" lon="-45.667048">
        <ele>831.797</ele>
        <time>2019-10-15T16:04:32Z</time>
      </trkpt>
      <trkpt lat="-22.041497" lon="-45.666985">
        <ele>831.655</ele>
        <time>2019-10-15T16:04:35Z</time>
      </trkpt>
      <trkpt lat="-22.041487" lon="-45.666933">
        <ele>831.968</ele>
        <time>2019-10-15T16:04:37Z</time>
      </trkpt>
      <trkpt lat="-22.041486" lon="-45.666883">
        <ele>831.953</ele>
        <time>2019-10-15T16:04:39Z</time>
      </trkpt>
      <trkpt lat="-22.041460" lon="-45.666803">
        <ele>832.323</ele>
        <time>2019-10-15T16:04:42Z</time>
      </trkpt>
      <trkpt lat="-22.041440" lon="-45.666731">
        <ele>832.593</ele>
        <time>2019-10-15T16:04:45Z</time>
      </trkpt>
      <trkpt lat="-22.041416" lon="-45.666661">
        <ele>832.858</ele>
        <time>2019-10-15T16:04:48Z</time>
      </trkpt>
      <trkpt lat="-22.041389" lon="-45.666561">
        <ele>833.247</ele>
        <time>2019-10-15T16:04:52Z</time>
      </trkpt>
      <trkpt lat="-22.041374" lon="-45.666510">
        <ele>833.174</ele>
        <time>2019-10-15T16:04:54Z</time>
      </trkpt>
      <trkpt lat="-22.041345" lon="-45.666416">
        <ele>833.356</ele>
        <time>2019-10-15T16:04:58Z</time>
      </trkpt>
      <trkpt lat="-22.041321" lon="-45.666323">
        <ele>833.321</ele>
        <time>2019-10-15T16:05:02Z</time>
      </trkpt>
      <trkpt lat="-22.041273" lon="-45.666226">
        <ele>833.508</ele>
        <time>2019-10-15T16:05:06Z</time>
      </trkpt>
      <trkpt lat="-22.041254" lon="-45.666180">
        <ele>833.741</ele>
        <time>2019-10-15T16:05:07Z</time>
      </trkpt>
      <trkpt lat="-22.041234" lon="-45.666120">
        <ele>833.959</ele>
        <time>2019-10-15T16:05:10Z</time>
      </trkpt>
      <trkpt lat="-22.041199" lon="-45.666049">
        <ele>833.952</ele>
        <time>2019-10-15T16:05:12Z</time>
      </trkpt>
      <trkpt lat="-22.041168" lon="-45.665981">
        <ele>834.177</ele>
        <time>2019-10-15T16:05:15Z</time>
      </trkpt>
      <trkpt lat="-22.041148" lon="-45.665932">
        <ele>834.477</ele>
        <time>2019-10-15T16:05:16Z</time>
      </trkpt>
      <trkpt lat="-22.041109" lon="-45.665828">
        <ele>834.487</ele>
        <time>2019-10-15T16:05:20Z</time>
      </trkpt>
      <trkpt lat="-22.041074" lon="-45.665751">
        <ele>834.582</ele>
        <time>2019-10-15T16:05:22Z</time>
      </trkpt>
      <trkpt lat="-22.041046" lon="-45.665695">
        <ele>834.521</ele>
        <time>2019-10-15T16:05:24Z</time>
      </trkpt>
      <trkpt lat="-22.041018" lon="-45.665632">
        <ele>834.987</ele>
        <time>2019-10-15T16:05:27Z</time>
      </trkpt>
      <trkpt lat="-22.040990" lon="-45.665557">
        <ele>835.542</ele>
        <time>2019-10-15T16:05:30Z</time>
      </trkpt>
      <trkpt lat="-22.040966" lon="-45.665513">
        <ele>835.626</ele>
        <time>2019-10-15T16:05:31Z</time>
      </trkpt>
      <trkpt lat="-22.040936" lon="-45.665463">
        <ele>835.608</ele>
        <time>2019-10-15T16:05:34Z</time>
      </trkpt>
      <trkpt lat="-22.040909" lon="-45.665414">
        <ele>836.212</ele>
        <time>2019-10-15T16:05:36Z</time>
      </trkpt>
      <trkpt lat="-22.040884" lon="-45.665365">
        <ele>836.760</ele>
        <time>2019-10-15T16:05:38Z</time>
      </trkpt>
      <trkpt lat="-22.040856" lon="-45.665318">
        <ele>837.333</ele>
        <time>2019-10-15T16:05:42Z</time>
      </trkpt>
      <trkpt lat="-22.040832" lon="-45.665260">
        <ele>838.218</ele>
        <time>2019-10-15T16:05:46Z</time>
      </trkpt>
      <trkpt lat="-22.040797" lon="-45.665212">
        <ele>839.098</ele>
        <time>2019-10-15T16:05:50Z</time>
      </trkpt>
      <trkpt lat="-22.040769" lon="-45.665166">
        <ele>839.598</ele>
        <time>2019-10-15T16:05:54Z</time>
      </trkpt>
      <trkpt lat="-22.040730" lon="-45.665123">
        <ele>840.243</ele>
        <time>2019-10-15T16:05:59Z</time>
      </trkpt>
      <trkpt lat="-22.040705" lon="-45.665077">
        <ele>840.452</ele>
        <time>2019-10-15T16:06:02Z</time>
      </trkpt>
      <trkpt lat="-22.040649" lon="-45.665030">
        <ele>841.557</ele>
        <time>2019-10-15T16:06:10Z</time>
      </trkpt>
      <trkpt lat="-22.040613" lon="-45.664986">
        <ele>842.100</ele>
        <time>2019-10-15T16:06:16Z</time>
      </trkpt>
      <trkpt lat="-22.040590" lon="-45.664921">
        <ele>842.120</ele>
        <time>2019-10-15T16:06:17Z</time>
      </trkpt>
      <trkpt lat="-22.040565" lon="-45.664869">
        <ele>842.408</ele>
        <time>2019-10-15T16:06:20Z</time>
      </trkpt>
      <trkpt lat="-22.040521" lon="-45.664817">
        <ele>843.039</ele>
        <time>2019-10-15T16:06:26Z</time>
      </trkpt>
      <trkpt lat="-22.040480" lon="-45.664787">
        <ele>843.587</ele>
        <time>2019-10-15T16:06:32Z</time>
      </trkpt>
      <trkpt lat="-22.040463" lon="-45.664723">
        <ele>843.610</ele>
        <time>2019-10-15T16:06:34Z</time>
      </trkpt>
      <trkpt lat="-22.040442" lon="-45.664673">
        <ele>843.675</ele>
        <time>2019-10-15T16:06:37Z</time>
      </trkpt>
      <trkpt lat="-22.040417" lon="-45.664619">
        <ele>844.195</ele>
        <time>2019-10-15T16:06:40Z</time>
      </trkpt>
      <trkpt lat="-22.040389" lon="-45.664564">
        <ele>844.535</ele>
        <time>2019-10-15T16:06:43Z</time>
      </trkpt>
      <trkpt lat="-22.040369" lon="-45.664517">
        <ele>844.470</ele>
        <time>2019-10-15T16:06:47Z</time>
      </trkpt>
      <trkpt lat="-22.040353" lon="-45.664471">
        <ele>844.849</ele>
        <time>2019-10-15T16:06:50Z</time>
      </trkpt>
      <trkpt lat="-22.040326" lon="-45.664416">
        <ele>845.198</ele>
        <time>2019-10-15T16:06:54Z</time>
      </trkpt>
      <trkpt lat="-22.040306" lon="-45.664363">
        <ele>845.515</ele>
        <time>2019-10-15T16:06:57Z</time>
      </trkpt>
      <trkpt lat="-22.040283" lon="-45.664303">
        <ele>845.826</ele>
        <time>2019-10-15T16:07:00Z</time>
      </trkpt>
      <trkpt lat="-22.040268" lon="-45.664244">
        <ele>846.208</ele>
        <time>2019-10-15T16:07:04Z</time>
      </trkpt>
      <trkpt lat="-22.040242" lon="-45.664183">
        <ele>846.463</ele>
        <time>2019-10-15T16:07:08Z</time>
      </trkpt>
      <trkpt lat="-22.040219" lon="-45.664132">
        <ele>846.711</ele>
        <time>2019-10-15T16:07:11Z</time>
      </trkpt>
      <trkpt lat="-22.040199" lon="-45.664081">
        <ele>847.094</ele>
        <time>2019-10-15T16:07:14Z</time>
      </trkpt>
      <trkpt lat="-22.040179" lon="-45.664030">
        <ele>847.439</ele>
        <time>2019-10-15T16:07:17Z</time>
      </trkpt>
      <trkpt lat="-22.040160" lon="-45.663980">
        <ele>847.539</ele>
        <time>2019-10-15T16:07:20Z</time>
      </trkpt>
      <trkpt lat="-22.040146" lon="-45.663931">
        <ele>847.929</ele>
        <time>2019-10-15T16:07:22Z</time>
      </trkpt>
      <trkpt lat="-22.040126" lon="-45.663884">
        <ele>848.534</ele>
        <time>2019-10-15T16:07:26Z</time>
      </trkpt>
      <trkpt lat="-22.040108" lon="-45.663831">
        <ele>848.963</ele>
        <time>2019-10-15T16:07:29Z</time>
      </trkpt>
      <trkpt lat="-22.040092" lon="-45.663778">
        <ele>849.296</ele>
        <time>2019-10-15T16:07:32Z</time>
      </trkpt>
      <trkpt lat="-22.040074" lon="-45.663723">
        <ele>849.531</ele>
        <time>2019-10-15T16:07:35Z</time>
      </trkpt>
      <trkpt lat="-22.040062" lon="-45.663664">
        <ele>849.824</ele>
        <time>2019-10-15T16:07:39Z</time>
      </trkpt>
      <trkpt lat="-22.040043" lon="-45.663616">
        <ele>849.808</ele>
        <time>2019-10-15T16:07:41Z</time>
      </trkpt>
      <trkpt lat="-22.040028" lon="-45.663560">
        <ele>850.173</ele>
        <time>2019-10-15T16:07:44Z</time>
      </trkpt>
      <trkpt lat="-22.040008" lon="-45.663491">
        <ele>850.461</ele>
        <time>2019-10-15T16:07:47Z</time>
      </trkpt>
      <trkpt lat="-22.040000" lon="-45.663437">
        <ele>850.474</ele>
        <time>2019-10-15T16:07:50Z</time>
      </trkpt>
      <trkpt lat="-22.039988" lon="-45.663389">
        <ele>850.939</ele>
        <time>2019-10-15T16:07:53Z</time>
      </trkpt>
      <trkpt lat="-22.039977" lon="-45.663340">
        <ele>850.789</ele>
        <time>2019-10-15T16:07:55Z</time>
      </trkpt>
      <trkpt lat="-22.039969" lon="-45.663289">
        <ele>850.919</ele>
        <time>2019-10-15T16:07:57Z</time>
      </trkpt>
      <trkpt lat="-22.039952" lon="-45.663232">
        <ele>851.364</ele>
        <time>2019-10-15T16:08:00Z</time>
      </trkpt>
      <trkpt lat="-22.039937" lon="-45.663181">
        <ele>851.293</ele>
        <time>2019-10-15T16:08:02Z</time>
      </trkpt>
      <trkpt lat="-22.039925" lon="-45.663121">
        <ele>851.393</ele>
        <time>2019-10-15T16:08:05Z</time>
      </trkpt>
      <trkpt lat="-22.039913" lon="-45.663058">
        <ele>851.565</ele>
        <time>2019-10-15T16:08:08Z</time>
      </trkpt>
      <trkpt lat="-22.039900" lon="-45.663005">
        <ele>852.021</ele>
        <time>2019-10-15T16:08:10Z</time>
      </trkpt>
      <trkpt lat="-22.039879" lon="-45.662929">
        <ele>852.308</ele>
        <time>2019-10-15T16:08:14Z</time>
      </trkpt>
      <trkpt lat="-22.039871" lon="-45.662861">
        <ele>852.473</ele>
        <time>2019-10-15T16:08:17Z</time>
      </trkpt>
      <trkpt lat="-22.039857" lon="-45.662812">
        <ele>852.741</ele>
        <time>2019-10-15T16:08:19Z</time>
      </trkpt>
      <trkpt lat="-22.039848" lon="-45.662748">
        <ele>852.754</ele>
        <time>2019-10-15T16:08:22Z</time>
      </trkpt>
      <trkpt lat="-22.039841" lon="-45.662697">
        <ele>852.649</ele>
        <time>2019-10-15T16:08:23Z</time>
      </trkpt>
      <trkpt lat="-22.039833" lon="-45.662640">
        <ele>852.749</ele>
        <time>2019-10-15T16:08:26Z</time>
      </trkpt>
      <trkpt lat="-22.039819" lon="-45.662582">
        <ele>852.899</ele>
        <time>2019-10-15T16:08:28Z</time>
      </trkpt>
      <trkpt lat="-22.039803" lon="-45.662473">
        <ele>852.684</ele>
        <time>2019-10-15T16:08:31Z</time>
      </trkpt>
      <trkpt lat="-22.039795" lon="-45.662423">
        <ele>852.643</ele>
        <time>2019-10-15T16:08:33Z</time>
      </trkpt>
      <trkpt lat="-22.039785" lon="-45.662370">
        <ele>853.045</ele>
        <time>2019-10-15T16:08:35Z</time>
      </trkpt>
      <trkpt lat="-22.039776" lon="-45.662283">
        <ele>853.147</ele>
        <time>2019-10-15T16:08:37Z</time>
      </trkpt>
      <trkpt lat="-22.039766" lon="-45.662216">
        <ele>852.511</ele>
        <time>2019-10-15T16:08:38Z</time>
      </trkpt>
      <trkpt lat="-22.039757" lon="-45.662070">
        <ele>851.708</ele>
        <time>2019-10-15T16:08:42Z</time>
      </trkpt>
      <trkpt lat="-22.039761" lon="-45.662011">
        <ele>851.498</ele>
        <time>2019-10-15T16:08:43Z</time>
      </trkpt>
      <trkpt lat="-22.039760" lon="-45.661921">
        <ele>851.676</ele>
        <time>2019-10-15T16:08:46Z</time>
      </trkpt>
      <trkpt lat="-22.039756" lon="-45.661823">
        <ele>851.579</ele>
        <time>2019-10-15T16:08:48Z</time>
      </trkpt>
      <trkpt lat="-22.039761" lon="-45.661761">
        <ele>851.924</ele>
        <time>2019-10-15T16:08:50Z</time>
      </trkpt>
      <trkpt lat="-22.039767" lon="-45.661686">
        <ele>852.274</ele>
        <time>2019-10-15T16:08:53Z</time>
      </trkpt>
      <trkpt lat="-22.039766" lon="-45.661616">
        <ele>851.814</ele>
        <time>2019-10-15T16:08:55Z</time>
      </trkpt>
      <trkpt lat="-22.039765" lon="-45.661556">
        <ele>852.199</ele>
        <time>2019-10-15T16:08:57Z</time>
      </trkpt>
      <trkpt lat="-22.039771" lon="-45.661482">
        <ele>852.088</ele>
        <time>2019-10-15T16:08:59Z</time>
      </trkpt>
      <trkpt lat="-22.039782" lon="-45.661364">
        <ele>852.192</ele>
        <time>2019-10-15T16:09:02Z</time>
      </trkpt>
      <trkpt lat="-22.039787" lon="-45.661235">
        <ele>851.773</ele>
        <time>2019-10-15T16:09:06Z</time>
      </trkpt>
      <trkpt lat="-22.039792" lon="-45.661163">
        <ele>851.520</ele>
        <time>2019-10-15T16:09:08Z</time>
      </trkpt>
      <trkpt lat="-22.039796" lon="-45.661100">
        <ele>851.208</ele>
        <time>2019-10-15T16:09:09Z</time>
      </trkpt>
      <trkpt lat="-22.039801" lon="-45.661041">
        <ele>851.543</ele>
        <time>2019-10-15T16:09:11Z</time>
      </trkpt>
      <trkpt lat="-22.039804" lon="-45.660989">
        <ele>851.751</ele>
        <time>2019-10-15T16:09:13Z</time>
      </trkpt>
      <trkpt lat="-22.039806" lon="-45.660940">
        <ele>851.664</ele>
        <time>2019-10-15T16:09:14Z</time>
      </trkpt>
      <trkpt lat="-22.039814" lon="-45.660860">
        <ele>851.839</ele>
        <time>2019-10-15T16:09:17Z</time>
      </trkpt>
      <trkpt lat="-22.039817" lon="-45.660798">
        <ele>851.469</ele>
        <time>2019-10-15T16:09:19Z</time>
      </trkpt>
      <trkpt lat="-22.039827" lon="-45.660708">
        <ele>851.759</ele>
        <time>2019-10-15T16:09:21Z</time>
      </trkpt>
      <trkpt lat="-22.039833" lon="-45.660655">
        <ele>851.534</ele>
        <time>2019-10-15T16:09:23Z</time>
      </trkpt>
      <trkpt lat="-22.039839" lon="-45.660574">
        <ele>851.683</ele>
        <time>2019-10-15T16:09:25Z</time>
      </trkpt>
      <trkpt lat="-22.039843" lon="-45.660526">
        <ele>851.955</ele>
        <time>2019-10-15T16:09:27Z</time>
      </trkpt>
      <trkpt lat="-22.039848" lon="-45.660449">
        <ele>851.907</ele>
        <time>2019-10-15T16:09:29Z</time>
      </trkpt>
      <trkpt lat="-22.039855" lon="-45.660395">
        <ele>852.417</ele>
        <time>2019-10-15T16:09:30Z</time>
      </trkpt>
      <trkpt lat="-22.039865" lon="-45.660332">
        <ele>852.408</ele>
        <time>2019-10-15T16:09:33Z</time>
      </trkpt>
      <trkpt lat="-22.039872" lon="-45.660277">
        <ele>852.859</ele>
        <time>2019-10-15T16:09:35Z</time>
      </trkpt>
      <trkpt lat="-22.039883" lon="-45.660217">
        <ele>853.317</ele>
        <time>2019-10-15T16:09:37Z</time>
      </trkpt>
      <trkpt lat="-22.039895" lon="-45.660159">
        <ele>853.650</ele>
        <time>2019-10-15T16:09:39Z</time>
      </trkpt>
      <trkpt lat="-22.039908" lon="-45.660069">
        <ele>854.175</ele>
        <time>2019-10-15T16:09:43Z</time>
      </trkpt>
      <trkpt lat="-22.039915" lon="-45.660016">
        <ele>854.285</ele>
        <time>2019-10-15T16:09:44Z</time>
      </trkpt>
      <trkpt lat="-22.039923" lon="-45.659964">
        <ele>853.875</ele>
        <time>2019-10-15T16:09:47Z</time>
      </trkpt>
      <trkpt lat="-22.039934" lon="-45.659888">
        <ele>854.460</ele>
        <time>2019-10-15T16:09:49Z</time>
      </trkpt>
      <trkpt lat="-22.039944" lon="-45.659828">
        <ele>854.859</ele>
        <time>2019-10-15T16:09:52Z</time>
      </trkpt>
      <trkpt lat="-22.039952" lon="-45.659771">
        <ele>855.424</ele>
        <time>2019-10-15T16:09:54Z</time>
      </trkpt>
      <trkpt lat="-22.039960" lon="-45.659709">
        <ele>855.704</ele>
        <time>2019-10-15T16:09:56Z</time>
      </trkpt>
      <trkpt lat="-22.039965" lon="-45.659658">
        <ele>856.314</ele>
        <time>2019-10-15T16:09:59Z</time>
      </trkpt>
      <trkpt lat="-22.039981" lon="-45.659587">
        <ele>856.308</ele>
        <time>2019-10-15T16:10:02Z</time>
      </trkpt>
      <trkpt lat="-22.039987" lon="-45.659534">
        <ele>856.596</ele>
        <time>2019-10-15T16:10:04Z</time>
      </trkpt>
      <trkpt lat="-22.039996" lon="-45.659478">
        <ele>856.424</ele>
        <time>2019-10-15T16:10:06Z</time>
      </trkpt>
      <trkpt lat="-22.039834" lon="-45.658254">
        <ele>853.657</ele>
        <time>2019-10-15T16:10:31Z</time>
      </trkpt>
      <trkpt lat="-22.039802" lon="-45.658164">
        <ele>852.862</ele>
        <time>2019-10-15T16:10:34Z</time>
      </trkpt>
      <trkpt lat="-22.039773" lon="-45.658076">
        <ele>852.032</ele>
        <time>2019-10-15T16:10:37Z</time>
      </trkpt>
      <trkpt lat="-22.039263" lon="-45.655836">
        <ele>849.592</ele>
        <time>2019-10-15T16:11:15Z</time>
      </trkpt>
      <trkpt lat="-22.039274" lon="-45.655769">
        <ele>850.237</ele>
        <time>2019-10-15T16:11:16Z</time>
      </trkpt>
      <trkpt lat="-22.039271" lon="-45.655714">
        <ele>850.616</ele>
        <time>2019-10-15T16:11:18Z</time>
      </trkpt>
      <trkpt lat="-22.039272" lon="-45.655658">
        <ele>851.118</ele>
        <time>2019-10-15T16:11:20Z</time>
      </trkpt>
      <trkpt lat="-22.039273" lon="-45.655607">
        <ele>852.098</ele>
        <time>2019-10-15T16:11:23Z</time>
      </trkpt>
      <trkpt lat="-22.039263" lon="-45.655546">
        <ele>852.417</ele>
        <time>2019-10-15T16:11:27Z</time>
      </trkpt>
      <trkpt lat="-22.039255" lon="-45.655498">
        <ele>852.708</ele>
        <time>2019-10-15T16:11:30Z</time>
      </trkpt>
      <trkpt lat="-22.039242" lon="-45.655450">
        <ele>853.115</ele>
        <time>2019-10-15T16:11:33Z</time>
      </trkpt>
      <trkpt lat="-22.039246" lon="-45.655395">
        <ele>853.553</ele>
        <time>2019-10-15T16:11:36Z</time>
      </trkpt>
      <trkpt lat="-22.039248" lon="-45.655333">
        <ele>853.856</ele>
        <time>2019-10-15T16:11:40Z</time>
      </trkpt>
      <trkpt lat="-22.039242" lon="-45.655278">
        <ele>854.421</ele>
        <time>2019-10-15T16:11:43Z</time>
      </trkpt>
      <trkpt lat="-22.039236" lon="-45.655221">
        <ele>854.771</ele>
        <time>2019-10-15T16:11:46Z</time>
      </trkpt>
      <trkpt lat="-22.039236" lon="-45.655161">
        <ele>855.241</ele>
        <time>2019-10-15T16:11:49Z</time>
      </trkpt>
      <trkpt lat="-22.039234" lon="-45.655106">
        <ele>855.696</ele>
        <time>2019-10-15T16:11:53Z</time>
      </trkpt>
      <trkpt lat="-22.039229" lon="-45.655050">
        <ele>855.935</ele>
        <time>2019-10-15T16:11:56Z</time>
      </trkpt>
      <trkpt lat="-22.039224" lon="-45.655001">
        <ele>856.177</ele>
        <time>2019-10-15T16:11:59Z</time>
      </trkpt>
      <trkpt lat="-22.039224" lon="-45.654947">
        <ele>856.361</ele>
        <time>2019-10-15T16:12:01Z</time>
      </trkpt>
      <trkpt lat="-22.039223" lon="-45.654891">
        <ele>856.227</ele>
        <time>2019-10-15T16:12:05Z</time>
      </trkpt>
      <trkpt lat="-22.039224" lon="-45.654840">
        <ele>856.908</ele>
        <time>2019-10-15T16:12:08Z</time>
      </trkpt>
      <trkpt lat="-22.039230" lon="-45.654787">
        <ele>857.141</ele>
        <time>2019-10-15T16:12:12Z</time>
      </trkpt>
      <trkpt lat="-22.039229" lon="-45.654731">
        <ele>857.619</ele>
        <time>2019-10-15T16:12:14Z</time>
      </trkpt>
      <trkpt lat="-22.039232" lon="-45.654669">
        <ele>858.342</ele>
        <time>2019-10-15T16:12:19Z</time>
      </trkpt>
      <trkpt lat="-22.039233" lon="-45.654617">
        <ele>858.717</ele>
        <time>2019-10-15T16:12:22Z</time>
      </trkpt>
      <trkpt lat="-22.039237" lon="-45.654567">
        <ele>859.217</ele>
        <time>2019-10-15T16:12:25Z</time>
      </trkpt>
      <trkpt lat="-22.039236" lon="-45.654510">
        <ele>860.297</ele>
        <time>2019-10-15T16:12:30Z</time>
      </trkpt>
      <trkpt lat="-22.039226" lon="-45.654456">
        <ele>860.992</ele>
        <time>2019-10-15T16:12:35Z</time>
      </trkpt>
      <trkpt lat="-22.039232" lon="-45.654392">
        <ele>861.551</ele>
        <time>2019-10-15T16:12:40Z</time>
      </trkpt>
      <trkpt lat="-22.039251" lon="-45.654333">
        <ele>862.123</ele>
        <time>2019-10-15T16:12:43Z</time>
      </trkpt>
      <trkpt lat="-22.039238" lon="-45.654273">
        <ele>863.683</ele>
        <time>2019-10-15T16:12:49Z</time>
      </trkpt>
      <trkpt lat="-22.039228" lon="-45.654225">
        <ele>864.111</ele>
        <time>2019-10-15T16:12:55Z</time>
      </trkpt>
      <trkpt lat="-22.039236" lon="-45.654163">
        <ele>864.608</ele>
        <time>2019-10-15T16:13:01Z</time>
      </trkpt>
      <trkpt lat="-22.039243" lon="-45.654107">
        <ele>865.626</ele>
        <time>2019-10-15T16:13:09Z</time>
      </trkpt>
      <trkpt lat="-22.039255" lon="-45.654058">
        <ele>866.224</ele>
        <time>2019-10-15T16:13:15Z</time>
      </trkpt>
      <trkpt lat="-22.039268" lon="-45.654003">
        <ele>866.657</ele>
        <time>2019-10-15T16:13:18Z</time>
      </trkpt>
      <trkpt lat="-22.039285" lon="-45.653935">
        <ele>867.112</ele>
        <time>2019-10-15T16:13:21Z</time>
      </trkpt>
      <trkpt lat="-22.039301" lon="-45.653882">
        <ele>867.892</ele>
        <time>2019-10-15T16:13:25Z</time>
      </trkpt>
      <trkpt lat="-22.039310" lon="-45.653831">
        <ele>868.392</ele>
        <time>2019-10-15T16:13:30Z</time>
      </trkpt>
      <trkpt lat="-22.039324" lon="-45.653784">
        <ele>868.677</ele>
        <time>2019-10-15T16:13:34Z</time>
      </trkpt>
      <trkpt lat="-22.039341" lon="-45.653735">
        <ele>868.886</ele>
        <time>2019-10-15T16:13:37Z</time>
      </trkpt>
      <trkpt lat="-22.039346" lon="-45.653683">
        <ele>869.713</ele>
        <time>2019-10-15T16:13:42Z</time>
      </trkpt>
      <trkpt lat="-22.039356" lon="-45.653623">
        <ele>869.943</ele>
        <time>2019-10-15T16:13:48Z</time>
      </trkpt>
      <trkpt lat="-22.039370" lon="-45.653567">
        <ele>870.207</ele>
        <time>2019-10-15T16:13:52Z</time>
      </trkpt>
      <trkpt lat="-22.039384" lon="-45.653510">
        <ele>871.008</ele>
        <time>2019-10-15T16:13:57Z</time>
      </trkpt>
      <trkpt lat="-22.039404" lon="-45.653430">
        <ele>871.585</ele>
        <time>2019-10-15T16:14:00Z</time>
      </trkpt>
      <trkpt lat="-22.039462" lon="-45.653352">
        <ele>871.563</ele>
        <time>2019-10-15T16:14:03Z</time>
      </trkpt>
      <trkpt lat="-22.039489" lon="-45.653312">
        <ele>871.746</ele>
        <time>2019-10-15T16:14:05Z</time>
      </trkpt>
      <trkpt lat="-22.039512" lon="-45.653266">
        <ele>871.511</ele>
        <time>2019-10-15T16:14:07Z</time>
      </trkpt>
      <trkpt lat="-22.039536" lon="-45.653225">
        <ele>871.811</ele>
        <time>2019-10-15T16:14:10Z</time>
      </trkpt>
      <trkpt lat="-22.039566" lon="-45.653169">
        <ele>872.051</ele>
        <time>2019-10-15T16:14:13Z</time>
      </trkpt>
      <trkpt lat="-22.039586" lon="-45.653123">
        <ele>872.296</ele>
        <time>2019-10-15T16:14:15Z</time>
      </trkpt>
      <trkpt lat="-22.039612" lon="-45.653074">
        <ele>872.115</ele>
        <time>2019-10-15T16:14:18Z</time>
      </trkpt>
      <trkpt lat="-22.039631" lon="-45.653022">
        <ele>872.381</ele>
        <time>2019-10-15T16:14:21Z</time>
      </trkpt>
      <trkpt lat="-22.039666" lon="-45.652976">
        <ele>872.561</ele>
        <time>2019-10-15T16:14:24Z</time>
      </trkpt>
      <trkpt lat="-22.039691" lon="-45.652913">
        <ele>872.717</ele>
        <time>2019-10-15T16:14:27Z</time>
      </trkpt>
      <trkpt lat="-22.039717" lon="-45.652863">
        <ele>872.808</ele>
        <time>2019-10-15T16:14:29Z</time>
      </trkpt>
      <trkpt lat="-22.039745" lon="-45.652821">
        <ele>873.022</ele>
        <time>2019-10-15T16:14:33Z</time>
      </trkpt>
      <trkpt lat="-22.039767" lon="-45.652779">
        <ele>873.310</ele>
        <time>2019-10-15T16:14:35Z</time>
      </trkpt>
      <trkpt lat="-22.039775" lon="-45.652711">
        <ele>873.953</ele>
        <time>2019-10-15T16:14:39Z</time>
      </trkpt>
      <trkpt lat="-22.039777" lon="-45.652661">
        <ele>874.478</ele>
        <time>2019-10-15T16:14:42Z</time>
      </trkpt>
      <trkpt lat="-22.039765" lon="-45.652612">
        <ele>874.628</ele>
        <time>2019-10-15T16:14:45Z</time>
      </trkpt>
      <trkpt lat="-22.039732" lon="-45.652573">
        <ele>875.058</ele>
        <time>2019-10-15T16:14:51Z</time>
      </trkpt>
      <trkpt lat="-22.039688" lon="-45.652547">
        <ele>876.043</ele>
        <time>2019-10-15T16:14:58Z</time>
      </trkpt>
      <trkpt lat="-22.039656" lon="-45.652503">
        <ele>876.272</ele>
        <time>2019-10-15T16:15:00Z</time>
      </trkpt>
      <trkpt lat="-22.039608" lon="-45.652464">
        <ele>876.562</ele>
        <time>2019-10-15T16:15:03Z</time>
      </trkpt>
      <trkpt lat="-22.039556" lon="-45.652395">
        <ele>877.183</ele>
        <time>2019-10-15T16:15:07Z</time>
      </trkpt>
      <trkpt lat="-22.039533" lon="-45.652351">
        <ele>877.511</ele>
        <time>2019-10-15T16:15:10Z</time>
      </trkpt>
      <trkpt lat="-22.039499" lon="-45.652313">
        <ele>878.308</ele>
        <time>2019-10-15T16:15:15Z</time>
      </trkpt>
      <trkpt lat="-22.039468" lon="-45.652267">
        <ele>878.390</ele>
        <time>2019-10-15T16:15:18Z</time>
      </trkpt>
      <trkpt lat="-22.039439" lon="-45.652202">
        <ele>878.498</ele>
        <time>2019-10-15T16:15:21Z</time>
      </trkpt>
      <trkpt lat="-22.039416" lon="-45.652152">
        <ele>879.031</ele>
        <time>2019-10-15T16:15:24Z</time>
      </trkpt>
      <trkpt lat="-22.039392" lon="-45.652109">
        <ele>879.476</ele>
        <time>2019-10-15T16:15:28Z</time>
      </trkpt>
      <trkpt lat="-22.039386" lon="-45.652042">
        <ele>879.946</ele>
        <time>2019-10-15T16:15:32Z</time>
      </trkpt>
      <trkpt lat="-22.039385" lon="-45.651984">
        <ele>880.226</ele>
        <time>2019-10-15T16:15:35Z</time>
      </trkpt>
      <trkpt lat="-22.039392" lon="-45.651934">
        <ele>880.581</ele>
        <time>2019-10-15T16:15:39Z</time>
      </trkpt>
      <trkpt lat="-22.039397" lon="-45.651876">
        <ele>880.980</ele>
        <time>2019-10-15T16:15:42Z</time>
      </trkpt>
      <trkpt lat="-22.039407" lon="-45.651824">
        <ele>881.263</ele>
        <time>2019-10-15T16:15:45Z</time>
      </trkpt>
      <trkpt lat="-22.039422" lon="-45.651748">
        <ele>881.644</ele>
        <time>2019-10-15T16:15:50Z</time>
      </trkpt>
      <trkpt lat="-22.039431" lon="-45.651694">
        <ele>881.618</ele>
        <time>2019-10-15T16:15:53Z</time>
      </trkpt>
      <trkpt lat="-22.039431" lon="-45.651640">
        <ele>882.108</ele>
        <time>2019-10-15T16:15:56Z</time>
      </trkpt>
      <trkpt lat="-22.039454" lon="-45.651590">
        <ele>882.640</ele>
        <time>2019-10-15T16:15:59Z</time>
      </trkpt>
      <trkpt lat="-22.039463" lon="-45.651533">
        <ele>883.368</ele>
        <time>2019-10-15T16:16:02Z</time>
      </trkpt>
      <trkpt lat="-22.039468" lon="-45.651482">
        <ele>883.711</ele>
        <time>2019-10-15T16:16:06Z</time>
      </trkpt>
      <trkpt lat="-22.039466" lon="-45.651427">
        <ele>884.386</ele>
        <time>2019-10-15T16:16:09Z</time>
      </trkpt>
      <trkpt lat="-22.039480" lon="-45.651371">
        <ele>884.256</ele>
        <time>2019-10-15T16:16:12Z</time>
      </trkpt>
      <trkpt lat="-22.039486" lon="-45.651299">
        <ele>884.436</ele>
        <time>2019-10-15T16:16:15Z</time>
      </trkpt>
      <trkpt lat="-22.039493" lon="-45.651249">
        <ele>884.761</ele>
        <time>2019-10-15T16:16:18Z</time>
      </trkpt>
      <trkpt lat="-22.039499" lon="-45.651193">
        <ele>885.010</ele>
        <time>2019-10-15T16:16:22Z</time>
      </trkpt>
      <trkpt lat="-22.039498" lon="-45.651142">
        <ele>885.214</ele>
        <time>2019-10-15T16:16:25Z</time>
      </trkpt>
      <trkpt lat="-22.039498" lon="-45.651064">
        <ele>886.054</ele>
        <time>2019-10-15T16:16:31Z</time>
      </trkpt>
      <trkpt lat="-22.039501" lon="-45.650996">
        <ele>886.209</ele>
        <time>2019-10-15T16:16:34Z</time>
      </trkpt>
      <trkpt lat="-22.039505" lon="-45.650944">
        <ele>886.308</ele>
        <time>2019-10-15T16:16:37Z</time>
      </trkpt>
      <trkpt lat="-22.039491" lon="-45.650876">
        <ele>887.235</ele>
        <time>2019-10-15T16:16:41Z</time>
      </trkpt>
      <trkpt lat="-22.039479" lon="-45.650828">
        <ele>887.323</ele>
        <time>2019-10-15T16:16:45Z</time>
      </trkpt>
      <trkpt lat="-22.039469" lon="-45.650760">
        <ele>888.156</ele>
        <time>2019-10-15T16:16:48Z</time>
      </trkpt>
      <trkpt lat="-22.039455" lon="-45.650707">
        <ele>888.821</ele>
        <time>2019-10-15T16:16:53Z</time>
      </trkpt>
      <trkpt lat="-22.039444" lon="-45.650639">
        <ele>889.341</ele>
        <time>2019-10-15T16:16:57Z</time>
      </trkpt>
      <trkpt lat="-22.039435" lon="-45.650576">
        <ele>889.461</ele>
        <time>2019-10-15T16:17:01Z</time>
      </trkpt>
      <trkpt lat="-22.039427" lon="-45.650521">
        <ele>889.746</ele>
        <time>2019-10-15T16:17:03Z</time>
      </trkpt>
      <trkpt lat="-22.039429" lon="-45.650462">
        <ele>889.765</ele>
        <time>2019-10-15T16:17:07Z</time>
      </trkpt>
      <trkpt lat="-22.039425" lon="-45.650409">
        <ele>890.526</ele>
        <time>2019-10-15T16:17:12Z</time>
      </trkpt>
      <trkpt lat="-22.039411" lon="-45.650357">
        <ele>891.347</ele>
        <time>2019-10-15T16:17:18Z</time>
      </trkpt>
      <trkpt lat="-22.039400" lon="-45.650307">
        <ele>892.011</ele>
        <time>2019-10-15T16:17:24Z</time>
      </trkpt>
      <trkpt lat="-22.039424" lon="-45.650196">
        <ele>892.608</ele>
        <time>2019-10-15T16:17:30Z</time>
      </trkpt>
      <trkpt lat="-22.039410" lon="-45.650103">
        <ele>893.226</ele>
        <time>2019-10-15T16:17:35Z</time>
      </trkpt>
      <trkpt lat="-22.039415" lon="-45.650054">
        <ele>893.954</ele>
        <time>2019-10-15T16:17:38Z</time>
      </trkpt>
      <trkpt lat="-22.039423" lon="-45.650000">
        <ele>894.427</ele>
        <time>2019-10-15T16:17:42Z</time>
      </trkpt>
      <trkpt lat="-22.039420" lon="-45.649945">
        <ele>895.152</ele>
        <time>2019-10-15T16:17:46Z</time>
      </trkpt>
      <trkpt lat="-22.039424" lon="-45.649890">
        <ele>895.552</ele>
        <time>2019-10-15T16:17:50Z</time>
      </trkpt>
      <trkpt lat="-22.039429" lon="-45.649835">
        <ele>895.542</ele>
        <time>2019-10-15T16:17:53Z</time>
      </trkpt>
      <trkpt lat="-22.039427" lon="-45.649775">
        <ele>895.897</ele>
        <time>2019-10-15T16:17:56Z</time>
      </trkpt>
      <trkpt lat="-22.039411" lon="-45.649715">
        <ele>895.966</ele>
        <time>2019-10-15T16:17:59Z</time>
      </trkpt>
      <trkpt lat="-22.039381" lon="-45.649675">
        <ele>896.178</ele>
        <time>2019-10-15T16:18:02Z</time>
      </trkpt>
      <trkpt lat="-22.039346" lon="-45.649631">
        <ele>896.733</ele>
        <time>2019-10-15T16:18:05Z</time>
      </trkpt>
      <trkpt lat="-22.039310" lon="-45.649594">
        <ele>897.026</ele>
        <time>2019-10-15T16:18:09Z</time>
      </trkpt>
      <trkpt lat="-22.039268" lon="-45.649558">
        <ele>897.708</ele>
        <time>2019-10-15T16:18:12Z</time>
      </trkpt>
      <trkpt lat="-22.039214" lon="-45.649510">
        <ele>898.191</ele>
        <time>2019-10-15T16:18:18Z</time>
      </trkpt>
      <trkpt lat="-22.039170" lon="-45.649482">
        <ele>898.469</ele>
        <time>2019-10-15T16:18:22Z</time>
      </trkpt>
      <trkpt lat="-22.039100" lon="-45.649433">
        <ele>899.082</ele>
        <time>2019-10-15T16:18:27Z</time>
      </trkpt>
      <trkpt lat="-22.039059" lon="-45.649403">
        <ele>899.567</ele>
        <time>2019-10-15T16:18:31Z</time>
      </trkpt>
      <trkpt lat="-22.039003" lon="-45.649349">
        <ele>900.187</ele>
        <time>2019-10-15T16:18:36Z</time>
      </trkpt>
      <trkpt lat="-22.038979" lon="-45.649298">
        <ele>900.227</ele>
        <time>2019-10-15T16:18:39Z</time>
      </trkpt>
      <trkpt lat="-22.038946" lon="-45.649245">
        <ele>900.682</ele>
        <time>2019-10-15T16:18:42Z</time>
      </trkpt>
      <trkpt lat="-22.038911" lon="-45.649197">
        <ele>900.571</ele>
        <time>2019-10-15T16:18:45Z</time>
      </trkpt>
      <trkpt lat="-22.038884" lon="-45.649139">
        <ele>900.368</ele>
        <time>2019-10-15T16:18:47Z</time>
      </trkpt>
      <trkpt lat="-22.038869" lon="-45.649089">
        <ele>900.442</ele>
        <time>2019-10-15T16:18:50Z</time>
      </trkpt>
      <trkpt lat="-22.038858" lon="-45.649035">
        <ele>900.026</ele>
        <time>2019-10-15T16:18:52Z</time>
      </trkpt>
      <trkpt lat="-22.038839" lon="-45.648982">
        <ele>899.808</ele>
        <time>2019-10-15T16:18:55Z</time>
      </trkpt>
      <trkpt lat="-22.038827" lon="-45.648925">
        <ele>899.540</ele>
        <time>2019-10-15T16:18:57Z</time>
      </trkpt>
      <trkpt lat="-22.038818" lon="-45.648863">
        <ele>898.928</ele>
        <time>2019-10-15T16:19:00Z</time>
      </trkpt>
      <trkpt lat="-22.038804" lon="-45.648805">
        <ele>898.641</ele>
        <time>2019-10-15T16:19:02Z</time>
      </trkpt>
      <trkpt lat="-22.038791" lon="-45.648730">
        <ele>897.766</ele>
        <time>2019-10-15T16:19:04Z</time>
      </trkpt>
      <trkpt lat="-22.038781" lon="-45.648672">
        <ele>896.716</ele>
        <time>2019-10-15T16:19:05Z</time>
      </trkpt>
      <trkpt lat="-22.038770" lon="-45.648563">
        <ele>895.286</ele>
        <time>2019-10-15T16:19:08Z</time>
      </trkpt>
      <trkpt lat="-22.038761" lon="-45.648470">
        <ele>894.581</ele>
        <time>2019-10-15T16:19:10Z</time>
      </trkpt>
      <trkpt lat="-22.039904" lon="-45.638965">
        <ele>826.740</ele>
        <time>2019-10-15T16:21:17Z</time>
      </trkpt>
      <trkpt lat="-22.039922" lon="-45.638888">
        <ele>827.224</ele>
        <time>2019-10-15T16:21:21Z</time>
      </trkpt>
      <trkpt lat="-22.039933" lon="-45.638797">
        <ele>827.604</ele>
        <time>2019-10-15T16:21:25Z</time>
      </trkpt>
      <trkpt lat="-22.039929" lon="-45.638741">
        <ele>827.614</ele>
        <time>2019-10-15T16:21:27Z</time>
      </trkpt>
      <trkpt lat="-22.039923" lon="-45.638685">
        <ele>828.108</ele>
        <time>2019-10-15T16:21:30Z</time>
      </trkpt>
      <trkpt lat="-22.039916" lon="-45.638635">
        <ele>828.156</ele>
        <time>2019-10-15T16:21:33Z</time>
      </trkpt>
      <trkpt lat="-22.039900" lon="-45.638568">
        <ele>827.934</ele>
        <time>2019-10-15T16:21:36Z</time>
      </trkpt>
      <trkpt lat="-22.039879" lon="-45.638499">
        <ele>827.687</ele>
        <time>2019-10-15T16:21:39Z</time>
      </trkpt>
      <trkpt lat="-22.039861" lon="-45.638443">
        <ele>826.492</ele>
        <time>2019-10-15T16:21:41Z</time>
      </trkpt>
      <trkpt lat="-22.039830" lon="-45.638367">
        <ele>826.012</ele>
        <time>2019-10-15T16:21:43Z</time>
      </trkpt>
      <trkpt lat="-22.038878" lon="-45.636396">
        <ele>821.112</ele>
        <time>2019-10-15T16:22:17Z</time>
      </trkpt>
      <trkpt lat="-22.038863" lon="-45.636300">
        <ele>821.077</ele>
        <time>2019-10-15T16:22:20Z</time>
      </trkpt>
      <trkpt lat="-22.038854" lon="-45.636244">
        <ele>820.636</ele>
        <time>2019-10-15T16:22:22Z</time>
      </trkpt>
      <trkpt lat="-22.038844" lon="-45.636189">
        <ele>820.953</ele>
        <time>2019-10-15T16:22:23Z</time>
      </trkpt>
      <trkpt lat="-22.038832" lon="-45.636122">
        <ele>820.904</ele>
        <time>2019-10-15T16:22:25Z</time>
      </trkpt>
      <trkpt lat="-22.038817" lon="-45.636056">
        <ele>821.314</ele>
        <time>2019-10-15T16:22:28Z</time>
      </trkpt>
      <trkpt lat="-22.038803" lon="-45.635993">
        <ele>821.408</ele>
        <time>2019-10-15T16:22:29Z</time>
      </trkpt>
      <trkpt lat="-22.038784" lon="-45.635939">
        <ele>821.679</ele>
        <time>2019-10-15T16:22:31Z</time>
      </trkpt>
      <trkpt lat="-22.038766" lon="-45.635877">
        <ele>822.037</ele>
        <time>2019-10-15T16:22:34Z</time>
      </trkpt>
      <trkpt lat="-22.038762" lon="-45.635827">
        <ele>822.130</ele>
        <time>2019-10-15T16:22:35Z</time>
      </trkpt>
      <trkpt lat="-22.038741" lon="-45.635763">
        <ele>822.455</ele>
        <time>2019-10-15T16:22:37Z</time>
      </trkpt>
      <trkpt lat="-22.038712" lon="-45.635703">
        <ele>822.435</ele>
        <time>2019-10-15T16:22:40Z</time>
      </trkpt>
      <trkpt lat="-22.038683" lon="-45.635653">
        <ele>822.315</ele>
        <time>2019-10-15T16:22:41Z</time>
      </trkpt>
      <trkpt lat="-22.038683" lon="-45.635653">
        <ele>822.380</ele>
        <time>2019-10-15T16:22:41Z</time>
      </trkpt>
      <trkpt lat="-22.038633" lon="-45.635599">
        <ele>822.499</ele>
        <time>2019-10-15T16:22:44Z</time>
      </trkpt>
      <trkpt lat="-22.038577" lon="-45.635559">
        <ele>822.641</ele>
        <time>2019-10-15T16:22:46Z</time>
      </trkpt>
      <trkpt lat="-22.038537" lon="-45.635521">
        <ele>822.781</ele>
        <time>2019-10-15T16:22:48Z</time>
      </trkpt>
      <trkpt lat="-22.038483" lon="-45.635476">
        <ele>822.709</ele>
        <time>2019-10-15T16:22:51Z</time>
      </trkpt>
      <trkpt lat="-22.038426" lon="-45.635416">
        <ele>822.408</ele>
        <time>2019-10-15T16:22:52Z</time>
      </trkpt>
      <trkpt lat="-22.038393" lon="-45.635373">
        <ele>822.078</ele>
        <time>2019-10-15T16:22:54Z</time>
      </trkpt>
      <trkpt lat="-22.038355" lon="-45.635316">
        <ele>822.476</ele>
        <time>2019-10-15T16:22:55Z</time>
      </trkpt>
      <trkpt lat="-22.038314" lon="-45.635253">
        <ele>822.489</ele>
        <time>2019-10-15T16:22:57Z</time>
      </trkpt>
      <trkpt lat="-22.038286" lon="-45.635186">
        <ele>822.734</ele>
        <time>2019-10-15T16:23:00Z</time>
      </trkpt>
      <trkpt lat="-22.038267" lon="-45.635128">
        <ele>822.594</ele>
        <time>2019-10-15T16:23:02Z</time>
      </trkpt>
      <trkpt lat="-22.038250" lon="-45.635081">
        <ele>822.784</ele>
        <time>2019-10-15T16:23:04Z</time>
      </trkpt>
      <trkpt lat="-22.038218" lon="-45.635018">
        <ele>822.699</ele>
        <time>2019-10-15T16:23:06Z</time>
      </trkpt>
      <trkpt lat="-22.038180" lon="-45.634964">
        <ele>822.178</ele>
        <time>2019-10-15T16:23:07Z</time>
      </trkpt>
      <trkpt lat="-22.037320" lon="-45.634003">
        <ele>819.413</ele>
        <time>2019-10-15T16:23:33Z</time>
      </trkpt>
      <trkpt lat="-22.037270" lon="-45.633906">
        <ele>819.843</ele>
        <time>2019-10-15T16:23:36Z</time>
      </trkpt>
      <trkpt lat="-22.037232" lon="-45.633854">
        <ele>819.907</ele>
        <time>2019-10-15T16:23:37Z</time>
      </trkpt>
      <trkpt lat="-22.037174" lon="-45.633775">
        <ele>819.808</ele>
        <time>2019-10-15T16:23:40Z</time>
      </trkpt>
      <trkpt lat="-22.037134" lon="-45.633724">
        <ele>820.135</ele>
        <time>2019-10-15T16:23:41Z</time>
      </trkpt>
      <trkpt lat="-22.037101" lon="-45.633681">
        <ele>820.273</ele>
        <time>2019-10-15T16:23:43Z</time>
      </trkpt>
      <trkpt lat="-22.037073" lon="-45.633632">
        <ele>820.426</ele>
        <time>2019-10-15T16:23:45Z</time>
      </trkpt>
      <trkpt lat="-22.037027" lon="-45.633571">
        <ele>821.031</ele>
        <time>2019-10-15T16:23:47Z</time>
      </trkpt>
      <trkpt lat="-22.036988" lon="-45.633514">
        <ele>821.491</ele>
        <time>2019-10-15T16:23:49Z</time>
      </trkpt>
      <trkpt lat="-22.036964" lon="-45.633461">
        <ele>822.321</ele>
        <time>2019-10-15T16:23:51Z</time>
      </trkpt>
      <trkpt lat="-22.036942" lon="-45.633408">
        <ele>823.226</ele>
        <time>2019-10-15T16:23:54Z</time>
      </trkpt>
      <trkpt lat="-22.036907" lon="-45.633357">
        <ele>824.285</ele>
        <time>2019-10-15T16:23:57Z</time>
      </trkpt>
      <trkpt lat="-22.036876" lon="-45.633304">
        <ele>824.746</ele>
        <time>2019-10-15T16:24:00Z</time>
      </trkpt>
      <trkpt lat="-22.036849" lon="-45.633242">
        <ele>825.388</ele>
        <time>2019-10-15T16:24:02Z</time>
      </trkpt>
      <trkpt lat="-22.036807" lon="-45.633165">
        <ele>826.216</ele>
        <time>2019-10-15T16:24:06Z</time>
      </trkpt>
      <trkpt lat="-22.036782" lon="-45.633114">
        <ele>826.308</ele>
        <time>2019-10-15T16:24:09Z</time>
      </trkpt>
      <trkpt lat="-22.036752" lon="-45.633056">
        <ele>826.248</ele>
        <time>2019-10-15T16:24:11Z</time>
      </trkpt>
      <trkpt lat="-22.036729" lon="-45.633011">
        <ele>825.836</ele>
        <time>2019-10-15T16:24:14Z</time>
      </trkpt>
      <trkpt lat="-22.036698" lon="-45.632966">
        <ele>825.859</ele>
        <time>2019-10-15T16:24:16Z</time>
      </trkpt>
      <trkpt lat="-22.036667" lon="-45.632920">
        <ele>825.594</ele>
        <time>2019-10-15T16:24:18Z</time>
      </trkpt>
      <trkpt lat="-22.036630" lon="-45.632858">
        <ele>825.184</ele>
        <time>2019-10-15T16:24:21Z</time>
      </trkpt>
      <trkpt lat="-22.036595" lon="-45.632792">
        <ele>825.514</ele>
        <time>2019-10-15T16:24:23Z</time>
      </trkpt>
      <trkpt lat="-22.036577" lon="-45.632743">
        <ele>825.729</ele>
        <time>2019-10-15T16:24:25Z</time>
      </trkpt>
      <trkpt lat="-22.036548" lon="-45.632678">
        <ele>825.528</ele>
        <time>2019-10-15T16:24:27Z</time>
      </trkpt>
      <trkpt lat="-22.036535" lon="-45.632632">
        <ele>825.736</ele>
        <time>2019-10-15T16:24:28Z</time>
      </trkpt>
      <trkpt lat="-22.036492" lon="-45.632560">
        <ele>825.217</ele>
        <time>2019-10-15T16:24:32Z</time>
      </trkpt>
      <trkpt lat="-22.036472" lon="-45.632507">
        <ele>825.518</ele>
        <time>2019-10-15T16:24:34Z</time>
      </trkpt>
      <trkpt lat="-22.036443" lon="-45.632439">
        <ele>825.408</ele>
        <time>2019-10-15T16:24:37Z</time>
      </trkpt>
      <trkpt lat="-22.036420" lon="-45.632391">
        <ele>825.187</ele>
        <time>2019-10-15T16:24:38Z</time>
      </trkpt>
      <trkpt lat="-22.036393" lon="-45.632310">
        <ele>825.985</ele>
        <time>2019-10-15T16:24:41Z</time>
      </trkpt>
      <trkpt lat="-22.036367" lon="-45.632244">
        <ele>826.268</ele>
        <time>2019-10-15T16:24:43Z</time>
      </trkpt>
      <trkpt lat="-22.036337" lon="-45.632181">
        <ele>826.583</ele>
        <time>2019-10-15T16:24:46Z</time>
      </trkpt>
      <trkpt lat="-22.036309" lon="-45.632123">
        <ele>826.893</ele>
        <time>2019-10-15T16:24:48Z</time>
      </trkpt>
      <trkpt lat="-22.036276" lon="-45.632061">
        <ele>827.433</ele>
        <time>2019-10-15T16:24:50Z</time>
      </trkpt>
      <trkpt lat="-22.036255" lon="-45.632011">
        <ele>827.798</ele>
        <time>2019-10-15T16:24:53Z</time>
      </trkpt>
      <trkpt lat="-22.036233" lon="-45.631960">
        <ele>828.447</ele>
        <time>2019-10-15T16:24:55Z</time>
      </trkpt>
      <trkpt lat="-22.036208" lon="-45.631915">
        <ele>828.695</ele>
        <time>2019-10-15T16:24:57Z</time>
      </trkpt>
      <trkpt lat="-22.036183" lon="-45.631862">
        <ele>829.549</ele>
        <time>2019-10-15T16:24:59Z</time>
      </trkpt>
      <trkpt lat="-22.036167" lon="-45.631810">
        <ele>830.023</ele>
        <time>2019-10-15T16:25:01Z</time>
      </trkpt>
      <trkpt lat="-22.036151" lon="-45.631758">
        <ele>830.108</ele>
        <time>2019-10-15T16:25:04Z</time>
      </trkpt>
      <trkpt lat="-22.036132" lon="-45.631709">
        <ele>830.523</ele>
        <time>2019-10-15T16:25:07Z</time>
      </trkpt>
      <trkpt lat="-22.036091" lon="-45.631632">
        <ele>830.241</ele>
        <time>2019-10-15T16:25:10Z</time>
      </trkpt>
      <trkpt lat="-22.036061" lon="-45.631594">
        <ele>830.364</ele>
        <time>2019-10-15T16:25:13Z</time>
      </trkpt>
      <trkpt lat="-22.036028" lon="-45.631539">
        <ele>830.389</ele>
        <time>2019-10-15T16:25:15Z</time>
      </trkpt>
      <trkpt lat="-22.036002" lon="-45.631497">
        <ele>830.729</ele>
        <time>2019-10-15T16:25:17Z</time>
      </trkpt>
      <trkpt lat="-22.035966" lon="-45.631457">
        <ele>830.979</ele>
        <time>2019-10-15T16:25:20Z</time>
      </trkpt>
      <trkpt lat="-22.035936" lon="-45.631407">
        <ele>831.244</ele>
        <time>2019-10-15T16:25:22Z</time>
      </trkpt>
      <trkpt lat="-22.035913" lon="-45.631355">
        <ele>831.153</ele>
        <time>2019-10-15T16:25:23Z</time>
      </trkpt>
      <trkpt lat="-22.035878" lon="-45.631281">
        <ele>830.847</ele>
        <time>2019-10-15T16:25:26Z</time>
      </trkpt>
      <trkpt lat="-22.035850" lon="-45.631232">
        <ele>830.729</ele>
        <time>2019-10-15T16:25:27Z</time>
      </trkpt>
      <trkpt lat="-22.035806" lon="-45.631155">
        <ele>830.721</ele>
        <time>2019-10-15T16:25:29Z</time>
      </trkpt>
      <trkpt lat="-22.035777" lon="-45.631088">
        <ele>830.908</ele>
        <time>2019-10-15T16:25:31Z</time>
      </trkpt>
      <trkpt lat="-22.035751" lon="-45.631028">
        <ele>830.568</ele>
        <time>2019-10-15T16:25:34Z</time>
      </trkpt>
      <trkpt lat="-22.035714" lon="-45.630970">
        <ele>830.676</ele>
        <time>2019-10-15T16:25:36Z</time>
      </trkpt>
      <trkpt lat="-22.035663" lon="-45.630878">
        <ele>830.049</ele>
        <time>2019-10-15T16:25:38Z</time>
      </trkpt>
      <trkpt lat="-22.035669" lon="-45.627834">
        <ele>820.964</ele>
        <time>2019-10-15T16:26:42Z</time>
      </trkpt>
      <trkpt lat="-22.035687" lon="-45.627764">
        <ele>820.384</ele>
        <time>2019-10-15T16:26:43Z</time>
      </trkpt>
      <trkpt lat="-22.035691" lon="-45.627563">
        <ele>819.524</ele>
        <time>2019-10-15T16:26:48Z</time>
      </trkpt>
      <trkpt lat="-22.035689" lon="-45.627496">
        <ele>819.879</ele>
        <time>2019-10-15T16:26:50Z</time>
      </trkpt>
      <trkpt lat="-22.035699" lon="-45.627423">
        <ele>819.888</ele>
        <time>2019-10-15T16:26:51Z</time>
      </trkpt>
      <trkpt lat="-22.035710" lon="-45.627333">
        <ele>819.182</ele>
        <time>2019-10-15T16:26:54Z</time>
      </trkpt>
      <trkpt lat="-22.035738" lon="-45.627135">
        <ele>818.743</ele>
        <time>2019-10-15T16:26:58Z</time>
      </trkpt>
      <trkpt lat="-22.035742" lon="-45.627084">
        <ele>818.317</ele>
        <time>2019-10-15T16:27:00Z</time>
      </trkpt>
      <trkpt lat="-22.035744" lon="-45.626992">
        <ele>819.308</ele>
        <time>2019-10-15T16:27:01Z</time>
      </trkpt>
      <trkpt lat="-22.035746" lon="-45.626927">
        <ele>819.422</ele>
        <time>2019-10-15T16:27:03Z</time>
      </trkpt>
      <trkpt lat="-22.035761" lon="-45.626792">
        <ele>819.580</ele>
        <time>2019-10-15T16:27:07Z</time>
      </trkpt>
      <trkpt lat="-22.035766" lon="-45.626720">
        <ele>819.483</ele>
        <time>2019-10-15T16:27:09Z</time>
      </trkpt>
      <trkpt lat="-22.035772" lon="-45.626652">
        <ele>819.518</ele>
        <time>2019-10-15T16:27:10Z</time>
      </trkpt>
      <trkpt lat="-22.035776" lon="-45.626566">
        <ele>819.688</ele>
        <time>2019-10-15T16:27:13Z</time>
      </trkpt>
      <trkpt lat="-22.035782" lon="-45.626502">
        <ele>818.758</ele>
        <time>2019-10-15T16:27:14Z</time>
      </trkpt>
      <trkpt lat="-22.035792" lon="-45.626436">
        <ele>819.313</ele>
        <time>2019-10-15T16:27:16Z</time>
      </trkpt>
      <trkpt lat="-22.035799" lon="-45.626360">
        <ele>819.032</ele>
        <time>2019-10-15T16:27:18Z</time>
      </trkpt>
      <trkpt lat="-22.035806" lon="-45.626277">
        <ele>819.045</ele>
        <time>2019-10-15T16:27:20Z</time>
      </trkpt>
      <trkpt lat="-22.035817" lon="-45.626206">
        <ele>819.447</ele>
        <time>2019-10-15T16:27:21Z</time>
      </trkpt>
      <trkpt lat="-22.035823" lon="-45.626107">
        <ele>819.711</ele>
        <time>2019-10-15T16:27:24Z</time>
      </trkpt>
      <trkpt lat="-22.035829" lon="-45.626043">
        <ele>820.008</ele>
        <time>2019-10-15T16:27:25Z</time>
      </trkpt>
      <trkpt lat="-22.035842" lon="-45.625963">
        <ele>819.948</ele>
        <time>2019-10-15T16:27:28Z</time>
      </trkpt>
      <trkpt lat="-22.035848" lon="-45.625881">
        <ele>819.676</ele>
        <time>2019-10-15T16:27:30Z</time>
      </trkpt>
      <trkpt lat="-22.035855" lon="-45.625830">
        <ele>819.689</ele>
        <time>2019-10-15T16:27:31Z</time>
      </trkpt>
      <trkpt lat="-22.035860" lon="-45.625749">
        <ele>819.494</ele>
        <time>2019-10-15T16:27:33Z</time>
      </trkpt>
      <trkpt lat="-22.035870" lon="-45.625667">
        <ele>819.774</ele>
        <time>2019-10-15T16:27:35Z</time>
      </trkpt>
      <trkpt lat="-22.035877" lon="-45.625599">
        <ele>819.644</ele>
        <time>2019-10-15T16:27:36Z</time>
      </trkpt>
      <trkpt lat="-22.035884" lon="-45.625518">
        <ele>820.159</ele>
        <time>2019-10-15T16:27:39Z</time>
      </trkpt>
      <trkpt lat="-22.035892" lon="-45.625437">
        <ele>820.488</ele>
        <time>2019-10-15T16:27:41Z</time>
      </trkpt>
      <trkpt lat="-22.035904" lon="-45.625368">
        <ele>820.425</ele>
        <time>2019-10-15T16:27:42Z</time>
      </trkpt>
      <trkpt lat="-22.035916" lon="-45.625302">
        <ele>820.026</ele>
        <time>2019-10-15T16:27:44Z</time>
      </trkpt>
      <trkpt lat="-22.035922" lon="-45.625239">
        <ele>819.108</ele>
        <time>2019-10-15T16:27:45Z</time>
      </trkpt>
      <trkpt lat="-22.035934" lon="-45.625134">
        <ele>819.208</ele>
        <time>2019-10-15T16:27:48Z</time>
      </trkpt>
      <trkpt lat="-22.035944" lon="-45.625052">
        <ele>819.116</ele>
        <time>2019-10-15T16:27:50Z</time>
      </trkpt>
      <trkpt lat="-22.035947" lon="-45.624987">
        <ele>819.414</ele>
        <time>2019-10-15T16:27:52Z</time>
      </trkpt>
      <trkpt lat="-22.035957" lon="-45.624917">
        <ele>819.457</ele>
        <time>2019-10-15T16:27:53Z</time>
      </trkpt>
      <trkpt lat="-22.035960" lon="-45.624857">
        <ele>819.622</ele>
        <time>2019-10-15T16:27:55Z</time>
      </trkpt>
      <trkpt lat="-22.035967" lon="-45.624790">
        <ele>819.612</ele>
        <time>2019-10-15T16:27:56Z</time>
      </trkpt>
      <trkpt lat="-22.035972" lon="-45.624728">
        <ele>819.942</ele>
        <time>2019-10-15T16:27:58Z</time>
      </trkpt>
      <trkpt lat="-22.035980" lon="-45.624662">
        <ele>820.477</ele>
        <time>2019-10-15T16:28:00Z</time>
      </trkpt>
      <trkpt lat="-22.035987" lon="-45.624578">
        <ele>820.486</ele>
        <time>2019-10-15T16:28:01Z</time>
      </trkpt>
      <trkpt lat="-22.035995" lon="-45.624485">
        <ele>820.979</ele>
        <time>2019-10-15T16:28:04Z</time>
      </trkpt>
      <trkpt lat="-22.036002" lon="-45.624406">
        <ele>820.505</ele>
        <time>2019-10-15T16:28:06Z</time>
      </trkpt>
      <trkpt lat="-22.036012" lon="-45.624296">
        <ele>819.625</ele>
        <time>2019-10-15T16:28:09Z</time>
      </trkpt>
      <trkpt lat="-22.036021" lon="-45.624193">
        <ele>819.608</ele>
        <time>2019-10-15T16:28:11Z</time>
      </trkpt>
      <trkpt lat="-22.036032" lon="-45.624136">
        <ele>819.781</ele>
        <time>2019-10-15T16:28:13Z</time>
      </trkpt>
      <trkpt lat="-22.036039" lon="-45.624061">
        <ele>819.799</ele>
        <time>2019-10-15T16:28:14Z</time>
      </trkpt>
      <trkpt lat="-22.036044" lon="-45.624006">
        <ele>820.032</ele>
        <time>2019-10-15T16:28:16Z</time>
      </trkpt>
      <trkpt lat="-22.036057" lon="-45.623916">
        <ele>819.947</ele>
        <time>2019-10-15T16:28:18Z</time>
      </trkpt>
      <trkpt lat="-22.036066" lon="-45.623836">
        <ele>820.197</ele>
        <time>2019-10-15T16:28:20Z</time>
      </trkpt>
      <trkpt lat="-22.036070" lon="-45.623759">
        <ele>820.347</ele>
        <time>2019-10-15T16:28:23Z</time>
      </trkpt>
      <trkpt lat="-22.036081" lon="-45.623639">
        <ele>820.872</ele>
        <time>2019-10-15T16:28:26Z</time>
      </trkpt>
      <trkpt lat="-22.036094" lon="-45.623550">
        <ele>820.931</ele>
        <time>2019-10-15T16:28:27Z</time>
      </trkpt>
      <trkpt lat="-22.036097" lon="-45.623499">
        <ele>820.756</ele>
        <time>2019-10-15T16:28:29Z</time>
      </trkpt>
      <trkpt lat="-22.036100" lon="-45.623436">
        <ele>821.359</ele>
        <time>2019-10-15T16:28:30Z</time>
      </trkpt>
      <trkpt lat="-22.036103" lon="-45.623374">
        <ele>821.214</ele>
        <time>2019-10-15T16:28:32Z</time>
      </trkpt>
      <trkpt lat="-22.036110" lon="-45.623307">
        <ele>821.008</ele>
        <time>2019-10-15T16:28:34Z</time>
      </trkpt>
      <trkpt lat="-22.036121" lon="-45.623200">
        <ele>820.919</ele>
        <time>2019-10-15T16:28:36Z</time>
      </trkpt>
      <trkpt lat="-22.036131" lon="-45.623103">
        <ele>820.457</ele>
        <time>2019-10-15T16:28:38Z</time>
      </trkpt>
      <trkpt lat="-22.036138" lon="-45.623034">
        <ele>820.840</ele>
        <time>2019-10-15T16:28:40Z</time>
      </trkpt>
      <trkpt lat="-22.036142" lon="-45.622948">
        <ele>820.685</ele>
        <time>2019-10-15T16:28:42Z</time>
      </trkpt>
      <trkpt lat="-22.036149" lon="-45.622880">
        <ele>820.965</ele>
        <time>2019-10-15T16:28:43Z</time>
      </trkpt>
      <trkpt lat="-22.036151" lon="-45.622816">
        <ele>821.455</ele>
        <time>2019-10-15T16:28:45Z</time>
      </trkpt>
      <trkpt lat="-22.036159" lon="-45.622750">
        <ele>821.570</ele>
        <time>2019-10-15T16:28:47Z</time>
      </trkpt>
      <trkpt lat="-22.036174" lon="-45.622621">
        <ele>821.139</ele>
        <time>2019-10-15T16:28:50Z</time>
      </trkpt>
      <trkpt lat="-22.036184" lon="-45.622533">
        <ele>821.476</ele>
        <time>2019-10-15T16:28:52Z</time>
      </trkpt>
      <trkpt lat="-22.036189" lon="-45.622466">
        <ele>821.590</ele>
        <time>2019-10-15T16:28:54Z</time>
      </trkpt>
      <trkpt lat="-22.036203" lon="-45.622381">
        <ele>822.219</ele>
        <time>2019-10-15T16:28:56Z</time>
      </trkpt>
      <trkpt lat="-22.036208" lon="-45.622306">
        <ele>821.908</ele>
        <time>2019-10-15T16:28:57Z</time>
      </trkpt>
      <trkpt lat="-22.036222" lon="-45.622213">
        <ele>821.541</ele>
        <time>2019-10-15T16:28:59Z</time>
      </trkpt>
      <trkpt lat="-22.036228" lon="-45.622151">
        <ele>821.019</ele>
        <time>2019-10-15T16:29:01Z</time>
      </trkpt>
      <trkpt lat="-22.036238" lon="-45.622077">
        <ele>821.072</ele>
        <time>2019-10-15T16:29:03Z</time>
      </trkpt>
      <trkpt lat="-22.036245" lon="-45.621993">
        <ele>821.147</ele>
        <time>2019-10-15T16:29:05Z</time>
      </trkpt>
      <trkpt lat="-22.036252" lon="-45.621917">
        <ele>821.567</ele>
        <time>2019-10-15T16:29:07Z</time>
      </trkpt>
      <trkpt lat="-22.036263" lon="-45.621814">
        <ele>821.237</ele>
        <time>2019-10-15T16:29:10Z</time>
      </trkpt>
      <trkpt lat="-22.036270" lon="-45.621724">
        <ele>821.652</ele>
        <time>2019-10-15T16:29:12Z</time>
      </trkpt>
      <trkpt lat="-22.036276" lon="-45.621673">
        <ele>821.761</ele>
        <time>2019-10-15T16:29:13Z</time>
      </trkpt>
      <trkpt lat="-22.036437" lon="-45.620305">
        <ele>821.386</ele>
        <time>2019-10-15T16:29:45Z</time>
      </trkpt>
      <trkpt lat="-22.036443" lon="-45.620215">
        <ele>821.260</ele>
        <time>2019-10-15T16:29:47Z</time>
      </trkpt>
      <trkpt lat="-22.036446" lon="-45.620154">
        <ele>821.026</ele>
        <time>2019-10-15T16:29:48Z</time>
      </trkpt>
      <trkpt lat="-22.036473" lon="-45.619994">
        <ele>820.808</ele>
        <time>2019-10-15T16:29:51Z</time>
      </trkpt>
      <trkpt lat="-22.036478" lon="-45.619891">
        <ele>821.582</ele>
        <time>2019-10-15T16:29:54Z</time>
      </trkpt>
      <trkpt lat="-22.036479" lon="-45.619834">
        <ele>821.590</ele>
        <time>2019-10-15T16:29:56Z</time>
      </trkpt>
      <trkpt lat="-22.036488" lon="-45.619766">
        <ele>821.573</ele>
        <time>2019-10-15T16:29:57Z</time>
      </trkpt>
      <trkpt lat="-22.036493" lon="-45.619707">
        <ele>822.228</ele>
        <time>2019-10-15T16:30:00Z</time>
      </trkpt>
      <trkpt lat="-22.036500" lon="-45.619648">
        <ele>822.848</ele>
        <time>2019-10-15T16:30:02Z</time>
      </trkpt>
      <trkpt lat="-22.036512" lon="-45.619556">
        <ele>822.728</ele>
        <time>2019-10-15T16:30:06Z</time>
      </trkpt>
      <trkpt lat="-22.036522" lon="-45.619508">
        <ele>823.533</ele>
        <time>2019-10-15T16:30:07Z</time>
      </trkpt>
      <trkpt lat="-22.036525" lon="-45.619458">
        <ele>823.892</ele>
        <time>2019-10-15T16:30:10Z</time>
      </trkpt>
      <trkpt lat="-22.036527" lon="-45.619401">
        <ele>824.467</ele>
        <time>2019-10-15T16:30:12Z</time>
      </trkpt>
      <trkpt lat="-22.036535" lon="-45.619329">
        <ele>825.081</ele>
        <time>2019-10-15T16:30:15Z</time>
      </trkpt>
      <trkpt lat="-22.036541" lon="-45.619270">
        <ele>825.519</ele>
        <time>2019-10-15T16:30:17Z</time>
      </trkpt>
      <trkpt lat="-22.036550" lon="-45.619194">
        <ele>825.508</ele>
        <time>2019-10-15T16:30:19Z</time>
      </trkpt>
      <trkpt lat="-22.036557" lon="-45.619137">
        <ele>825.830</ele>
        <time>2019-10-15T16:30:22Z</time>
      </trkpt>
      <trkpt lat="-22.036563" lon="-45.619073">
        <ele>825.858</ele>
        <time>2019-10-15T16:30:24Z</time>
      </trkpt>
      <trkpt lat="-22.036570" lon="-45.619019">
        <ele>825.511</ele>
        <time>2019-10-15T16:30:26Z</time>
      </trkpt>
      <trkpt lat="-22.036570" lon="-45.618940">
        <ele>825.216</ele>
        <time>2019-10-15T16:30:27Z</time>
      </trkpt>
      <trkpt lat="-22.036579" lon="-45.618849">
        <ele>824.786</ele>
        <time>2019-10-15T16:30:30Z</time>
      </trkpt>
      <trkpt lat="-22.036587" lon="-45.618795">
        <ele>824.026</ele>
        <time>2019-10-15T16:30:31Z</time>
      </trkpt>
      <trkpt lat="-22.036594" lon="-45.618743">
        <ele>824.331</ele>
        <time>2019-10-15T16:30:33Z</time>
      </trkpt>
      <trkpt lat="-22.036598" lon="-45.618692">
        <ele>825.040</ele>
        <time>2019-10-15T16:30:35Z</time>
      </trkpt>
      <trkpt lat="-22.036603" lon="-45.618615">
        <ele>824.976</ele>
        <time>2019-10-15T16:30:37Z</time>
      </trkpt>
      <trkpt lat="-22.036611" lon="-45.618537">
        <ele>824.590</ele>
        <time>2019-10-15T16:30:38Z</time>
      </trkpt>
      <trkpt lat="-22.036619" lon="-45.618471">
        <ele>824.819</ele>
        <time>2019-10-15T16:30:40Z</time>
      </trkpt>
      <trkpt lat="-22.036631" lon="-45.618405">
        <ele>824.808</ele>
        <time>2019-10-15T16:30:41Z</time>
      </trkpt>
      <trkpt lat="-22.036640" lon="-45.618319">
        <ele>825.111</ele>
        <time>2019-10-15T16:30:44Z</time>
      </trkpt>
      <trkpt lat="-22.036646" lon="-45.618246">
        <ele>825.529</ele>
        <time>2019-10-15T16:30:46Z</time>
      </trkpt>
      <trkpt lat="-22.036654" lon="-45.618189">
        <ele>825.552</ele>
        <time>2019-10-15T16:30:47Z</time>
      </trkpt>
      <trkpt lat="-22.036660" lon="-45.618128">
        <ele>825.287</ele>
        <time>2019-10-15T16:30:49Z</time>
      </trkpt>
      <trkpt lat="-22.036674" lon="-45.618041">
        <ele>824.597</ele>
        <time>2019-10-15T16:30:51Z</time>
      </trkpt>
      <trkpt lat="-22.036681" lon="-45.617973">
        <ele>823.937</ele>
        <time>2019-10-15T16:30:53Z</time>
      </trkpt>
      <trkpt lat="-22.036686" lon="-45.617909">
        <ele>824.122</ele>
        <time>2019-10-15T16:30:54Z</time>
      </trkpt>
      <trkpt lat="-22.036689" lon="-45.617848">
        <ele>823.871</ele>
        <time>2019-10-15T16:30:56Z</time>
      </trkpt>
      <trkpt lat="-22.036700" lon="-45.617780">
        <ele>823.574</ele>
        <time>2019-10-15T16:30:57Z</time>
      </trkpt>
      <trkpt lat="-22.036707" lon="-45.617718">
        <ele>824.056</ele>
        <time>2019-10-15T16:30:59Z</time>
      </trkpt>
      <trkpt lat="-22.036714" lon="-45.617657">
        <ele>824.321</ele>
        <time>2019-10-15T16:31:00Z</time>
      </trkpt>
      <trkpt lat="-22.036722" lon="-45.617576">
        <ele>824.408</ele>
        <time>2019-10-15T16:31:03Z</time>
      </trkpt>
      <trkpt lat="-22.036730" lon="-45.617504">
        <ele>824.991</ele>
        <time>2019-10-15T16:31:04Z</time>
      </trkpt>
      <trkpt lat="-22.036735" lon="-45.617444">
        <ele>825.039</ele>
        <time>2019-10-15T16:31:06Z</time>
      </trkpt>
      <trkpt lat="-22.036739" lon="-45.617376">
        <ele>825.352</ele>
        <time>2019-10-15T16:31:08Z</time>
      </trkpt>
      <trkpt lat="-22.036746" lon="-45.617294">
        <ele>825.397</ele>
        <time>2019-10-15T16:31:10Z</time>
      </trkpt>
      <trkpt lat="-22.036760" lon="-45.617193">
        <ele>825.237</ele>
        <time>2019-10-15T16:31:12Z</time>
      </trkpt>
      <trkpt lat="-22.036777" lon="-45.617147">
        <ele>825.377</ele>
        <time>2019-10-15T16:31:13Z</time>
      </trkpt>
      <trkpt lat="-22.036772" lon="-45.617082">
        <ele>825.092</ele>
        <time>2019-10-15T16:31:15Z</time>
      </trkpt>
      <trkpt lat="-22.036775" lon="-45.617015">
        <ele>824.951</ele>
        <time>2019-10-15T16:31:17Z</time>
      </trkpt>
      <trkpt lat="-22.036782" lon="-45.616945">
        <ele>824.924</ele>
        <time>2019-10-15T16:31:18Z</time>
      </trkpt>
      <trkpt lat="-22.036790" lon="-45.616884">
        <ele>824.804</ele>
        <time>2019-10-15T16:31:20Z</time>
      </trkpt>
      <trkpt lat="-22.036793" lon="-45.616823">
        <ele>825.114</ele>
        <time>2019-10-15T16:31:22Z</time>
      </trkpt>
      <trkpt lat="-22.036800" lon="-45.616739">
        <ele>825.708</ele>
        <time>2019-10-15T16:31:24Z</time>
      </trkpt>
      <trkpt lat="-22.036810" lon="-45.616669">
        <ele>826.036</ele>
        <time>2019-10-15T16:31:26Z</time>
      </trkpt>
      <trkpt lat="-22.036823" lon="-45.616579">
        <ele>825.944</ele>
        <time>2019-10-15T16:31:28Z</time>
      </trkpt>
      <trkpt lat="-22.036826" lon="-45.616501">
        <ele>826.027</ele>
        <time>2019-10-15T16:31:30Z</time>
      </trkpt>
      <trkpt lat="-22.036837" lon="-45.616426">
        <ele>826.212</ele>
        <time>2019-10-15T16:31:31Z</time>
      </trkpt>
      <trkpt lat="-22.036841" lon="-45.616333">
        <ele>825.722</ele>
        <time>2019-10-15T16:31:34Z</time>
      </trkpt>
      <trkpt lat="-22.036850" lon="-45.616268">
        <ele>826.052</ele>
        <time>2019-10-15T16:31:36Z</time>
      </trkpt>
      <trkpt lat="-22.036856" lon="-45.616185">
        <ele>825.547</ele>
        <time>2019-10-15T16:31:38Z</time>
      </trkpt>
      <trkpt lat="-22.036867" lon="-45.616124">
        <ele>825.476</ele>
        <time>2019-10-15T16:31:39Z</time>
      </trkpt>
      <trkpt lat="-22.036876" lon="-45.616048">
        <ele>825.364</ele>
        <time>2019-10-15T16:31:41Z</time>
      </trkpt>
      <trkpt lat="-22.036883" lon="-45.615973">
        <ele>825.406</ele>
        <time>2019-10-15T16:31:44Z</time>
      </trkpt>
      <trkpt lat="-22.036894" lon="-45.615894">
        <ele>825.716</ele>
        <time>2019-10-15T16:31:45Z</time>
      </trkpt>
      <trkpt lat="-22.036901" lon="-45.615816">
        <ele>825.208</ele>
        <time>2019-10-15T16:31:47Z</time>
      </trkpt>
      <trkpt lat="-22.036911" lon="-45.615755">
        <ele>825.740</ele>
        <time>2019-10-15T16:31:50Z</time>
      </trkpt>
      <trkpt lat="-22.036916" lon="-45.615699">
        <ele>825.838</ele>
        <time>2019-10-15T16:31:51Z</time>
      </trkpt>
      <trkpt lat="-22.036922" lon="-45.615642">
        <ele>825.781</ele>
        <time>2019-10-15T16:31:53Z</time>
      </trkpt>
      <trkpt lat="-22.036928" lon="-45.615590">
        <ele>826.126</ele>
        <time>2019-10-15T16:31:54Z</time>
      </trkpt>
      <trkpt lat="-22.036937" lon="-45.615531">
        <ele>826.326</ele>
        <time>2019-10-15T16:31:56Z</time>
      </trkpt>
      <trkpt lat="-22.036942" lon="-45.615456">
        <ele>826.366</ele>
        <time>2019-10-15T16:31:58Z</time>
      </trkpt>
      <trkpt lat="-22.036952" lon="-45.615372">
        <ele>826.691</ele>
        <time>2019-10-15T16:32:00Z</time>
      </trkpt>
      <trkpt lat="-22.036962" lon="-45.615314">
        <ele>826.730</ele>
        <time>2019-10-15T16:32:02Z</time>
      </trkpt>
      <trkpt lat="-22.036965" lon="-45.615261">
        <ele>826.728</ele>
        <time>2019-10-15T16:32:03Z</time>
      </trkpt>
      <trkpt lat="-22.036966" lon="-45.615198">
        <ele>826.989</ele>
        <time>2019-10-15T16:32:05Z</time>
      </trkpt>
      <trkpt lat="-22.036970" lon="-45.615117">
        <ele>826.917</ele>
        <time>2019-10-15T16:32:07Z</time>
      </trkpt>
      <trkpt lat="-22.036984" lon="-45.615013">
        <ele>827.908</ele>
        <time>2019-10-15T16:32:10Z</time>
      </trkpt>
      <trkpt lat="-22.036990" lon="-45.614955">
        <ele>827.776</ele>
        <time>2019-10-15T16:32:11Z</time>
      </trkpt>
      <trkpt lat="-22.036995" lon="-45.614889">
        <ele>827.874</ele>
        <time>2019-10-15T16:32:14Z</time>
      </trkpt>
      <trkpt lat="-22.036999" lon="-45.614814">
        <ele>827.737</ele>
        <time>2019-10-15T16:32:16Z</time>
      </trkpt>
      <trkpt lat="-22.037007" lon="-45.614745">
        <ele>827.962</ele>
        <time>2019-10-15T16:32:18Z</time>
      </trkpt>
      <trkpt lat="-22.037014" lon="-45.614693">
        <ele>827.872</ele>
        <time>2019-10-15T16:32:19Z</time>
      </trkpt>
      <trkpt lat="-22.037014" lon="-45.614628">
        <ele>827.922</ele>
        <time>2019-10-15T16:32:22Z</time>
      </trkpt>
      <trkpt lat="-22.037016" lon="-45.614558">
        <ele>828.627</ele>
        <time>2019-10-15T16:32:24Z</time>
      </trkpt>
      <trkpt lat="-22.037023" lon="-45.614503">
        <ele>828.966</ele>
        <time>2019-10-15T16:32:26Z</time>
      </trkpt>
      <trkpt lat="-22.037034" lon="-45.614417">
        <ele>829.339</ele>
        <time>2019-10-15T16:32:28Z</time>
      </trkpt>
      <trkpt lat="-22.037042" lon="-45.614342">
        <ele>830.101</ele>
        <time>2019-10-15T16:32:32Z</time>
      </trkpt>
      <trkpt lat="-22.037044" lon="-45.614276">
        <ele>831.021</ele>
        <time>2019-10-15T16:32:35Z</time>
      </trkpt>
      <trkpt lat="-22.037044" lon="-45.614217">
        <ele>831.308</ele>
        <time>2019-10-15T16:32:38Z</time>
      </trkpt>
      <trkpt lat="-22.037047" lon="-45.614163">
        <ele>831.827</ele>
        <time>2019-10-15T16:32:41Z</time>
      </trkpt>
      <trkpt lat="-22.037052" lon="-45.614109">
        <ele>832.345</ele>
        <time>2019-10-15T16:32:44Z</time>
      </trkpt>
      <trkpt lat="-22.037055" lon="-45.614046">
        <ele>832.978</ele>
        <time>2019-10-15T16:32:48Z</time>
      </trkpt>
      <trkpt lat="-22.037059" lon="-45.613990">
        <ele>832.853</ele>
        <time>2019-10-15T16:32:50Z</time>
      </trkpt>
      <trkpt lat="-22.037068" lon="-45.613919">
        <ele>833.543</ele>
        <time>2019-10-15T16:32:54Z</time>
      </trkpt>
      <trkpt lat="-22.037077" lon="-45.613852">
        <ele>834.433</ele>
        <time>2019-10-15T16:32:58Z</time>
      </trkpt>
      <trkpt lat="-22.037083" lon="-45.613782">
        <ele>834.968</ele>
        <time>2019-10-15T16:33:02Z</time>
      </trkpt>
      <trkpt lat="-22.037089" lon="-45.613724">
        <ele>835.647</ele>
        <time>2019-10-15T16:33:05Z</time>
      </trkpt>
      <trkpt lat="-22.037101" lon="-45.613661">
        <ele>836.239</ele>
        <time>2019-10-15T16:33:08Z</time>
      </trkpt>
      <trkpt lat="-22.037108" lon="-45.613603">
        <ele>836.301</ele>
        <time>2019-10-15T16:33:10Z</time>
      </trkpt>
      <trkpt lat="-22.037117" lon="-45.613531">
        <ele>836.821</ele>
        <time>2019-10-15T16:33:13Z</time>
      </trkpt>
      <trkpt lat="-22.037128" lon="-45.613438">
        <ele>836.808</ele>
        <time>2019-10-15T16:33:18Z</time>
      </trkpt>
      <trkpt lat="-22.037139" lon="-45.613355">
        <ele>836.427</ele>
        <time>2019-10-15T16:33:20Z</time>
      </trkpt>
      <trkpt lat="-22.037142" lon="-45.613306">
        <ele>836.475</ele>
        <time>2019-10-15T16:33:22Z</time>
      </trkpt>
      <trkpt lat="-22.037154" lon="-45.613249">
        <ele>836.968</ele>
        <time>2019-10-15T16:33:24Z</time>
      </trkpt>
      <trkpt lat="-22.037163" lon="-45.613179">
        <ele>836.943</ele>
        <time>2019-10-15T16:33:27Z</time>
      </trkpt>
      <trkpt lat="-22.037168" lon="-45.613115">
        <ele>836.923</ele>
        <time>2019-10-15T16:33:29Z</time>
      </trkpt>
      <trkpt lat="-22.037175" lon="-45.613056">
        <ele>836.813</ele>
        <time>2019-10-15T16:33:31Z</time>
      </trkpt>
      <trkpt lat="-22.037179" lon="-45.613001">
        <ele>836.888</ele>
        <time>2019-10-15T16:33:33Z</time>
      </trkpt>
      <trkpt lat="-22.037183" lon="-45.612941">
        <ele>836.967</ele>
        <time>2019-10-15T16:33:34Z</time>
      </trkpt>
      <trkpt lat="-22.037191" lon="-45.612878">
        <ele>836.933</ele>
        <time>2019-10-15T16:33:36Z</time>
      </trkpt>
      <trkpt lat="-22.037195" lon="-45.612816">
        <ele>837.523</ele>
        <time>2019-10-15T16:33:39Z</time>
      </trkpt>
      <trkpt lat="-22.037209" lon="-45.612721">
        <ele>837.615</ele>
        <time>2019-10-15T16:33:42Z</time>
      </trkpt>
      <trkpt lat="-22.037212" lon="-45.612671">
        <ele>837.808</ele>
        <time>2019-10-15T16:33:43Z</time>
      </trkpt>
      <trkpt lat="-22.037226" lon="-45.612575">
        <ele>838.167</ele>
        <time>2019-10-15T16:33:47Z</time>
      </trkpt>
      <trkpt lat="-22.037230" lon="-45.612501">
        <ele>838.455</ele>
        <time>2019-10-15T16:33:49Z</time>
      </trkpt>
      <trkpt lat="-22.037238" lon="-45.612445">
        <ele>838.578</ele>
        <time>2019-10-15T16:33:51Z</time>
      </trkpt>
      <trkpt lat="-22.037242" lon="-45.612396">
        <ele>838.763</ele>
        <time>2019-10-15T16:33:53Z</time>
      </trkpt>
      <trkpt lat="-22.037254" lon="-45.612318">
        <ele>839.533</ele>
        <time>2019-10-15T16:33:56Z</time>
      </trkpt>
      <trkpt lat="-22.037271" lon="-45.612272">
        <ele>840.383</ele>
        <time>2019-10-15T16:33:59Z</time>
      </trkpt>
      <trkpt lat="-22.037280" lon="-45.612218">
        <ele>840.338</ele>
        <time>2019-10-15T16:34:01Z</time>
      </trkpt>
      <trkpt lat="-22.037282" lon="-45.612146">
        <ele>840.717</ele>
        <time>2019-10-15T16:34:05Z</time>
      </trkpt>
      <trkpt lat="-22.037282" lon="-45.612069">
        <ele>840.836</ele>
        <time>2019-10-15T16:34:09Z</time>
      </trkpt>
      <trkpt lat="-22.037290" lon="-45.612004">
        <ele>841.317</ele>
        <time>2019-10-15T16:34:11Z</time>
      </trkpt>
      <trkpt lat="-22.037294" lon="-45.611939">
        <ele>841.318</ele>
        <time>2019-10-15T16:34:13Z</time>
      </trkpt>
      <trkpt lat="-22.037299" lon="-45.611878">
        <ele>840.808</ele>
        <time>2019-10-15T16:34:15Z</time>
      </trkpt>
      <trkpt lat="-22.037306" lon="-45.611813">
        <ele>841.257</ele>
        <time>2019-10-15T16:34:18Z</time>
      </trkpt>
      <trkpt lat="-22.037312" lon="-45.611753">
        <ele>841.355</ele>
        <time>2019-10-15T16:34:20Z</time>
      </trkpt>
      <trkpt lat="-22.037306" lon="-45.611691">
        <ele>841.968</ele>
        <time>2019-10-15T16:34:22Z</time>
      </trkpt>
      <trkpt lat="-22.037310" lon="-45.611630">
        <ele>842.263</ele>
        <time>2019-10-15T16:34:25Z</time>
      </trkpt>
      <trkpt lat="-22.037315" lon="-45.611575">
        <ele>842.393</ele>
        <time>2019-10-15T16:34:27Z</time>
      </trkpt>
      <trkpt lat="-22.037325" lon="-45.611526">
        <ele>842.373</ele>
        <time>2019-10-15T16:34:29Z</time>
      </trkpt>
      <trkpt lat="-22.037329" lon="-45.611470">
        <ele>842.338</ele>
        <time>2019-10-15T16:34:31Z</time>
      </trkpt>
      <trkpt lat="-22.037335" lon="-45.611396">
        <ele>842.937</ele>
        <time>2019-10-15T16:34:33Z</time>
      </trkpt>
      <trkpt lat="-22.037347" lon="-45.611338">
        <ele>843.428</ele>
        <time>2019-10-15T16:34:36Z</time>
      </trkpt>
      <trkpt lat="-22.037355" lon="-45.611282">
        <ele>844.089</ele>
        <time>2019-10-15T16:34:38Z</time>
      </trkpt>
      <trkpt lat="-22.037362" lon="-45.611207">
        <ele>844.517</ele>
        <time>2019-10-15T16:34:40Z</time>
      </trkpt>
      <trkpt lat="-22.037373" lon="-45.611130">
        <ele>845.208</ele>
        <time>2019-10-15T16:34:44Z</time>
      </trkpt>
      <trkpt lat="-22.037373" lon="-45.611079">
        <ele>845.336</ele>
        <time>2019-10-15T16:34:46Z</time>
      </trkpt>
      <trkpt lat="-22.037374" lon="-45.611023">
        <ele>845.944</ele>
        <time>2019-10-15T16:34:49Z</time>
      </trkpt>
      <trkpt lat="-22.037362" lon="-45.610962">
        <ele>846.667</ele>
        <time>2019-10-15T16:34:59Z</time>
      </trkpt>
      <trkpt lat="-22.037384" lon="-45.610865">
        <ele>847.082</ele>
        <time>2019-10-15T16:35:02Z</time>
      </trkpt>
      <trkpt lat="-22.037406" lon="-45.610819">
        <ele>847.282</ele>
        <time>2019-10-15T16:35:04Z</time>
      </trkpt>
      <trkpt lat="-22.037413" lon="-45.610618">
        <ele>847.652</ele>
        <time>2019-10-15T16:35:16Z</time>
      </trkpt>
      <trkpt lat="-22.037415" lon="-45.610564">
        <ele>847.627</ele>
        <time>2019-10-15T16:35:19Z</time>
      </trkpt>
      <trkpt lat="-22.037410" lon="-45.610508">
        <ele>848.126</ele>
        <time>2019-10-15T16:35:21Z</time>
      </trkpt>
      <trkpt lat="-22.037414" lon="-45.610452">
        <ele>848.579</ele>
        <time>2019-10-15T16:35:24Z</time>
      </trkpt>
      <trkpt lat="-22.037418" lon="-45.610399">
        <ele>848.605</ele>
        <time>2019-10-15T16:35:26Z</time>
      </trkpt>
      <trkpt lat="-22.037417" lon="-45.610350">
        <ele>848.925</ele>
        <time>2019-10-15T16:35:28Z</time>
      </trkpt>
      <trkpt lat="-22.037419" lon="-45.610285">
        <ele>849.108</ele>
        <time>2019-10-15T16:35:31Z</time>
      </trkpt>
      <trkpt lat="-22.037417" lon="-45.610191">
        <ele>849.441</ele>
        <time>2019-10-15T16:35:35Z</time>
      </trkpt>
      <trkpt lat="-22.037426" lon="-45.610142">
        <ele>849.889</ele>
        <time>2019-10-15T16:35:37Z</time>
      </trkpt>
      <trkpt lat="-22.037441" lon="-45.610067">
        <ele>849.532</ele>
        <time>2019-10-15T16:35:40Z</time>
      </trkpt>
      <trkpt lat="-22.037451" lon="-45.610012">
        <ele>849.787</ele>
        <time>2019-10-15T16:35:41Z</time>
      </trkpt>
      <trkpt lat="-22.037465" lon="-45.609942">
        <ele>849.827</ele>
        <time>2019-10-15T16:35:44Z</time>
      </trkpt>
      <trkpt lat="-22.037477" lon="-45.609883">
        <ele>849.767</ele>
        <time>2019-10-15T16:35:47Z</time>
      </trkpt>
      <trkpt lat="-22.037495" lon="-45.609831">
        <ele>850.022</ele>
        <time>2019-10-15T16:35:48Z</time>
      </trkpt>
      <trkpt lat="-22.037512" lon="-45.609786">
        <ele>850.031</ele>
        <time>2019-10-15T16:35:51Z</time>
      </trkpt>
      <trkpt lat="-22.037533" lon="-45.609724">
        <ele>850.226</ele>
        <time>2019-10-15T16:35:53Z</time>
      </trkpt>
      <trkpt lat="-22.037555" lon="-45.609679">
        <ele>850.247</ele>
        <time>2019-10-15T16:35:56Z</time>
      </trkpt>
      <trkpt lat="-22.037588" lon="-45.609629">
        <ele>850.711</ele>
        <time>2019-10-15T16:35:58Z</time>
      </trkpt>
      <trkpt lat="-22.037626" lon="-45.609576">
        <ele>850.708</ele>
        <time>2019-10-15T16:36:01Z</time>
      </trkpt>
      <trkpt lat="-22.037645" lon="-45.609528">
        <ele>850.696</ele>
        <time>2019-10-15T16:36:03Z</time>
      </trkpt>
      <trkpt lat="-22.037666" lon="-45.609480">
        <ele>850.834</ele>
        <time>2019-10-15T16:36:05Z</time>
      </trkpt>
      <trkpt lat="-22.037689" lon="-45.609428">
        <ele>850.587</ele>
        <time>2019-10-15T16:36:07Z</time>
      </trkpt>
      <trkpt lat="-22.037718" lon="-45.609375">
        <ele>850.482</ele>
        <time>2019-10-15T16:36:09Z</time>
      </trkpt>
      <trkpt lat="-22.037743" lon="-45.609332">
        <ele>850.472</ele>
        <time>2019-10-15T16:36:10Z</time>
      </trkpt>
      <trkpt lat="-22.037768" lon="-45.609289">
        <ele>850.172</ele>
        <time>2019-10-15T16:36:12Z</time>
      </trkpt>
      <trkpt lat="-22.037796" lon="-45.609236">
        <ele>850.047</ele>
        <time>2019-10-15T16:36:14Z</time>
      </trkpt>
      <trkpt lat="-22.037820" lon="-45.609189">
        <ele>849.426</ele>
        <time>2019-10-15T16:36:16Z</time>
      </trkpt>
      <trkpt lat="-22.037849" lon="-45.609145">
        <ele>849.588</ele>
        <time>2019-10-15T16:36:17Z</time>
      </trkpt>
      <trkpt lat="-22.037873" lon="-45.609103">
        <ele>849.424</ele>
        <time>2019-10-15T16:36:19Z</time>
      </trkpt>
      <trkpt lat="-22.037895" lon="-45.609055">
        <ele>849.126</ele>
        <time>2019-10-15T16:36:20Z</time>
      </trkpt>
      <trkpt lat="-22.037931" lon="-45.608979">
        <ele>848.808</ele>
        <time>2019-10-15T16:36:23Z</time>
      </trkpt>
      <trkpt lat="-22.037955" lon="-45.608927">
        <ele>848.772</ele>
        <time>2019-10-15T16:36:24Z</time>
      </trkpt>
      <trkpt lat="-22.037979" lon="-45.608883">
        <ele>848.730</ele>
        <time>2019-10-15T16:36:26Z</time>
      </trkpt>
      <trkpt lat="-22.038007" lon="-45.608830">
        <ele>848.773</ele>
        <time>2019-10-15T16:36:28Z</time>
      </trkpt>
      <trkpt lat="-22.038062" lon="-45.608728">
        <ele>848.958</ele>
        <time>2019-10-15T16:36:31Z</time>
      </trkpt>
      <trkpt lat="-22.038096" lon="-45.608663">
        <ele>848.538</ele>
        <time>2019-10-15T16:36:33Z</time>
      </trkpt>
      <trkpt lat="-22.038126" lon="-45.608610">
        <ele>848.758</ele>
        <time>2019-10-15T16:36:34Z</time>
      </trkpt>
      <trkpt lat="-22.038164" lon="-45.608540">
        <ele>848.533</ele>
        <time>2019-10-15T16:36:37Z</time>
      </trkpt>
      <trkpt lat="-22.038192" lon="-45.608487">
        <ele>848.952</ele>
        <time>2019-10-15T16:36:38Z</time>
      </trkpt>
      <trkpt lat="-22.038216" lon="-45.608440">
        <ele>848.798</ele>
        <time>2019-10-15T16:36:40Z</time>
      </trkpt>
      <trkpt lat="-22.038241" lon="-45.608394">
        <ele>848.715</ele>
        <time>2019-10-15T16:36:41Z</time>
      </trkpt>
      <trkpt lat="-22.038271" lon="-45.608338">
        <ele>848.926</ele>
        <time>2019-10-15T16:36:44Z</time>
      </trkpt>
      <trkpt lat="-22.038295" lon="-45.608279">
        <ele>849.008</ele>
        <time>2019-10-15T16:36:46Z</time>
      </trkpt>
      <trkpt lat="-22.038319" lon="-45.608230">
        <ele>849.533</ele>
        <time>2019-10-15T16:36:47Z</time>
      </trkpt>
      <trkpt lat="-22.038352" lon="-45.608156">
        <ele>848.951</ele>
        <time>2019-10-15T16:36:50Z</time>
      </trkpt>
      <trkpt lat="-22.038384" lon="-45.608090">
        <ele>849.384</ele>
        <time>2019-10-15T16:36:52Z</time>
      </trkpt>
      <trkpt lat="-22.038409" lon="-45.608048">
        <ele>849.429</ele>
        <time>2019-10-15T16:36:53Z</time>
      </trkpt>
      <trkpt lat="-22.038430" lon="-45.608004">
        <ele>849.629</ele>
        <time>2019-10-15T16:36:55Z</time>
      </trkpt>
      <trkpt lat="-22.038454" lon="-45.607950">
        <ele>849.319</ele>
        <time>2019-10-15T16:36:57Z</time>
      </trkpt>
      <trkpt lat="-22.038488" lon="-45.607898">
        <ele>849.464</ele>
        <time>2019-10-15T16:36:59Z</time>
      </trkpt>
      <trkpt lat="-22.038514" lon="-45.607851">
        <ele>849.653</ele>
        <time>2019-10-15T16:37:00Z</time>
      </trkpt>
      <trkpt lat="-22.038547" lon="-45.607775">
        <ele>849.943</ele>
        <time>2019-10-15T16:37:03Z</time>
      </trkpt>
      <trkpt lat="-22.038572" lon="-45.607724">
        <ele>849.864</ele>
        <time>2019-10-15T16:37:05Z</time>
      </trkpt>
      <trkpt lat="-22.038593" lon="-45.607677">
        <ele>849.810</ele>
        <time>2019-10-15T16:37:06Z</time>
      </trkpt>
      <trkpt lat="-22.038617" lon="-45.607626">
        <ele>849.808</ele>
        <time>2019-10-15T16:37:08Z</time>
      </trkpt>
      <trkpt lat="-22.038649" lon="-45.607563">
        <ele>850.438</ele>
        <time>2019-10-15T16:37:10Z</time>
      </trkpt>
      <trkpt lat="-22.038676" lon="-45.607511">
        <ele>850.576</ele>
        <time>2019-10-15T16:37:11Z</time>
      </trkpt>
      <trkpt lat="-22.038706" lon="-45.607457">
        <ele>850.829</ele>
        <time>2019-10-15T16:37:14Z</time>
      </trkpt>
      <trkpt lat="-22.038733" lon="-45.607405">
        <ele>851.394</ele>
        <time>2019-10-15T16:37:16Z</time>
      </trkpt>
      <trkpt lat="-22.038759" lon="-45.607351">
        <ele>851.634</ele>
        <time>2019-10-15T16:37:18Z</time>
      </trkpt>
      <trkpt lat="-22.038790" lon="-45.607298">
        <ele>851.994</ele>
        <time>2019-10-15T16:37:21Z</time>
      </trkpt>
      <trkpt lat="-22.038827" lon="-45.607227">
        <ele>852.649</ele>
        <time>2019-10-15T16:37:24Z</time>
      </trkpt>
      <trkpt lat="-22.038843" lon="-45.607180">
        <ele>852.828</ele>
        <time>2019-10-15T16:37:27Z</time>
      </trkpt>
      <trkpt lat="-22.038885" lon="-45.607106">
        <ele>853.481</ele>
        <time>2019-10-15T16:37:31Z</time>
      </trkpt>
      <trkpt lat="-22.038907" lon="-45.607054">
        <ele>853.761</ele>
        <time>2019-10-15T16:37:34Z</time>
      </trkpt>
      <trkpt lat="-22.038941" lon="-45.606988">
        <ele>854.317</ele>
        <time>2019-10-15T16:37:37Z</time>
      </trkpt>
      <trkpt lat="-22.038969" lon="-45.606928">
        <ele>854.608</ele>
        <time>2019-10-15T16:37:40Z</time>
      </trkpt>
      <trkpt lat="-22.038991" lon="-45.606873">
        <ele>854.982</ele>
        <time>2019-10-15T16:37:43Z</time>
      </trkpt>
      <trkpt lat="-22.039015" lon="-45.606824">
        <ele>855.330</ele>
        <time>2019-10-15T16:37:46Z</time>
      </trkpt>
      <trkpt lat="-22.039047" lon="-45.606768">
        <ele>855.663</ele>
        <time>2019-10-15T16:37:49Z</time>
      </trkpt>
      <trkpt lat="-22.039073" lon="-45.606721">
        <ele>855.838</ele>
        <time>2019-10-15T16:37:52Z</time>
      </trkpt>
      <trkpt lat="-22.039099" lon="-45.606665">
        <ele>856.258</ele>
        <time>2019-10-15T16:37:55Z</time>
      </trkpt>
      <trkpt lat="-22.039122" lon="-45.606614">
        <ele>856.628</ele>
        <time>2019-10-15T16:37:57Z</time>
      </trkpt>
      <trkpt lat="-22.039153" lon="-45.606561">
        <ele>856.673</ele>
        <time>2019-10-15T16:38:00Z</time>
      </trkpt>
      <trkpt lat="-22.039177" lon="-45.606512">
        <ele>857.322</ele>
        <time>2019-10-15T16:38:03Z</time>
      </trkpt>
      <trkpt lat="-22.039211" lon="-45.606455">
        <ele>857.779</ele>
        <time>2019-10-15T16:38:07Z</time>
      </trkpt>
      <trkpt lat="-22.039231" lon="-45.606409">
        <ele>858.205</ele>
        <time>2019-10-15T16:38:09Z</time>
      </trkpt>
      <trkpt lat="-22.039264" lon="-45.606347">
        <ele>858.625</ele>
        <time>2019-10-15T16:38:13Z</time>
      </trkpt>
      <trkpt lat="-22.039289" lon="-45.606299">
        <ele>858.808</ele>
        <time>2019-10-15T16:38:16Z</time>
      </trkpt>
      <trkpt lat="-22.039317" lon="-45.606251">
        <ele>859.081</ele>
        <time>2019-10-15T16:38:18Z</time>
      </trkpt>
      <trkpt lat="-22.039348" lon="-45.606200">
        <ele>859.649</ele>
        <time>2019-10-15T16:38:22Z</time>
      </trkpt>
      <trkpt lat="-22.039368" lon="-45.606156">
        <ele>860.362</ele>
        <time>2019-10-15T16:38:25Z</time>
      </trkpt>
      <trkpt lat="-22.039386" lon="-45.606105">
        <ele>860.517</ele>
        <time>2019-10-15T16:38:27Z</time>
      </trkpt>
      <trkpt lat="-22.039418" lon="-45.606042">
        <ele>861.047</ele>
        <time>2019-10-15T16:38:31Z</time>
      </trkpt>
      <trkpt lat="-22.039460" lon="-45.605966">
        <ele>861.857</ele>
        <time>2019-10-15T16:38:35Z</time>
      </trkpt>
      <trkpt lat="-22.039486" lon="-45.605915">
        <ele>862.232</ele>
        <time>2019-10-15T16:38:38Z</time>
      </trkpt>
      <trkpt lat="-22.039514" lon="-45.605870">
        <ele>862.381</ele>
        <time>2019-10-15T16:38:40Z</time>
      </trkpt>
      <trkpt lat="-22.039551" lon="-45.605808">
        <ele>862.516</ele>
        <time>2019-10-15T16:38:43Z</time>
      </trkpt>
      <trkpt lat="-22.039578" lon="-45.605760">
        <ele>863.176</ele>
        <time>2019-10-15T16:38:46Z</time>
      </trkpt>
      <trkpt lat="-22.039602" lon="-45.605714">
        <ele>863.313</ele>
        <time>2019-10-15T16:38:49Z</time>
      </trkpt>
      <trkpt lat="-22.039619" lon="-45.605666">
        <ele>863.608</ele>
        <time>2019-10-15T16:38:50Z</time>
      </trkpt>
      <trkpt lat="-22.039645" lon="-45.605614">
        <ele>863.785</ele>
        <time>2019-10-15T16:38:54Z</time>
      </trkpt>
      <trkpt lat="-22.039660" lon="-45.605568">
        <ele>864.143</ele>
        <time>2019-10-15T16:38:56Z</time>
      </trkpt>
      <trkpt lat="-22.039690" lon="-45.605518">
        <ele>864.556</ele>
        <time>2019-10-15T16:38:59Z</time>
      </trkpt>
      <trkpt lat="-22.039725" lon="-45.605451">
        <ele>864.771</ele>
        <time>2019-10-15T16:39:03Z</time>
      </trkpt>
      <trkpt lat="-22.039755" lon="-45.605392">
        <ele>865.251</ele>
        <time>2019-10-15T16:39:06Z</time>
      </trkpt>
      <trkpt lat="-22.039779" lon="-45.605337">
        <ele>865.381</ele>
        <time>2019-10-15T16:39:09Z</time>
      </trkpt>
      <trkpt lat="-22.039800" lon="-45.605294">
        <ele>865.856</ele>
        <time>2019-10-15T16:39:11Z</time>
      </trkpt>
      <trkpt lat="-22.039838" lon="-45.605228">
        <ele>866.265</ele>
        <time>2019-10-15T16:39:15Z</time>
      </trkpt>
      <trkpt lat="-22.039862" lon="-45.605177">
        <ele>866.566</ele>
        <time>2019-10-15T16:39:17Z</time>
      </trkpt>
      <trkpt lat="-22.039886" lon="-45.605130">
        <ele>867.129</ele>
        <time>2019-10-15T16:39:19Z</time>
      </trkpt>
      <trkpt lat="-22.039910" lon="-45.605085">
        <ele>867.421</ele>
        <time>2019-10-15T16:39:22Z</time>
      </trkpt>
      <trkpt lat="-22.039935" lon="-45.605035">
        <ele>867.508</ele>
        <time>2019-10-15T16:39:24Z</time>
      </trkpt>
      <trkpt lat="-22.039968" lon="-45.604976">
        <ele>867.770</ele>
        <time>2019-10-15T16:39:27Z</time>
      </trkpt>
      <trkpt lat="-22.039993" lon="-45.604925">
        <ele>867.888</ele>
        <time>2019-10-15T16:39:29Z</time>
      </trkpt>
      <trkpt lat="-22.040014" lon="-45.604875">
        <ele>868.171</ele>
        <time>2019-10-15T16:39:31Z</time>
      </trkpt>
      <trkpt lat="-22.040036" lon="-45.604825">
        <ele>868.366</ele>
        <time>2019-10-15T16:39:33Z</time>
      </trkpt>
      <trkpt lat="-22.040065" lon="-45.604770">
        <ele>868.846</ele>
        <time>2019-10-15T16:39:35Z</time>
      </trkpt>
      <trkpt lat="-22.040089" lon="-45.604721">
        <ele>869.166</ele>
        <time>2019-10-15T16:39:38Z</time>
      </trkpt>
      <trkpt lat="-22.040117" lon="-45.604674">
        <ele>869.551</ele>
        <time>2019-10-15T16:39:40Z</time>
      </trkpt>
      <trkpt lat="-22.040143" lon="-45.604613">
        <ele>869.640</ele>
        <time>2019-10-15T16:39:42Z</time>
      </trkpt>
      <trkpt lat="-22.040167" lon="-45.604570">
        <ele>869.738</ele>
        <time>2019-10-15T16:39:45Z</time>
      </trkpt>
      <trkpt lat="-22.040193" lon="-45.604518">
        <ele>870.070</ele>
        <time>2019-10-15T16:39:47Z</time>
      </trkpt>
      <trkpt lat="-22.040217" lon="-45.604464">
        <ele>870.017</ele>
        <time>2019-10-15T16:39:49Z</time>
      </trkpt>
      <trkpt lat="-22.040246" lon="-45.604402">
        <ele>870.408</ele>
        <time>2019-10-15T16:39:52Z</time>
      </trkpt>
      <trkpt lat="-22.040276" lon="-45.604350">
        <ele>870.737</ele>
        <time>2019-10-15T16:39:54Z</time>
      </trkpt>
      <trkpt lat="-22.040298" lon="-45.604290">
        <ele>870.745</ele>
        <time>2019-10-15T16:39:56Z</time>
      </trkpt>
      <trkpt lat="-22.040322" lon="-45.604239">
        <ele>871.148</ele>
        <time>2019-10-15T16:39:59Z</time>
      </trkpt>
      <trkpt lat="-22.040346" lon="-45.604190">
        <ele>871.183</ele>
        <time>2019-10-15T16:40:01Z</time>
      </trkpt>
      <trkpt lat="-22.040372" lon="-45.604141">
        <ele>871.363</ele>
        <time>2019-10-15T16:40:03Z</time>
      </trkpt>
      <trkpt lat="-22.040400" lon="-45.604086">
        <ele>871.843</ele>
        <time>2019-10-15T16:40:05Z</time>
      </trkpt>
      <trkpt lat="-22.040430" lon="-45.604028">
        <ele>871.928</ele>
        <time>2019-10-15T16:40:07Z</time>
      </trkpt>
      <trkpt lat="-22.040485" lon="-45.603936">
        <ele>871.987</ele>
        <time>2019-10-15T16:40:11Z</time>
      </trkpt>
      <trkpt lat="-22.040507" lon="-45.603883">
        <ele>871.948</ele>
        <time>2019-10-15T16:40:13Z</time>
      </trkpt>
      <trkpt lat="-22.040541" lon="-45.603831">
        <ele>872.061</ele>
        <time>2019-10-15T16:40:15Z</time>
      </trkpt>
      <trkpt lat="-22.040572" lon="-45.603761">
        <ele>872.717</ele>
        <time>2019-10-15T16:40:18Z</time>
      </trkpt>
      <trkpt lat="-22.040610" lon="-45.603688">
        <ele>872.708</ele>
        <time>2019-10-15T16:40:20Z</time>
      </trkpt>
      <trkpt lat="-22.040633" lon="-45.603640">
        <ele>872.888</ele>
        <time>2019-10-15T16:40:22Z</time>
      </trkpt>
      <trkpt lat="-22.040671" lon="-45.603538">
        <ele>872.846</ele>
        <time>2019-10-15T16:40:26Z</time>
      </trkpt>
      <trkpt lat="-22.040701" lon="-45.603481">
        <ele>872.899</ele>
        <time>2019-10-15T16:40:28Z</time>
      </trkpt>
      <trkpt lat="-22.040741" lon="-45.603421">
        <ele>872.884</ele>
        <time>2019-10-15T16:40:31Z</time>
      </trkpt>
      <trkpt lat="-22.040765" lon="-45.603369">
        <ele>872.784</ele>
        <time>2019-10-15T16:40:32Z</time>
      </trkpt>
      <trkpt lat="-22.040813" lon="-45.603267">
        <ele>873.064</ele>
        <time>2019-10-15T16:40:37Z</time>
      </trkpt>
      <trkpt lat="-22.040838" lon="-45.603223">
        <ele>873.079</ele>
        <time>2019-10-15T16:40:39Z</time>
      </trkpt>
      <trkpt lat="-22.040859" lon="-45.603176">
        <ele>873.168</ele>
        <time>2019-10-15T16:40:40Z</time>
      </trkpt>
      <trkpt lat="-22.040914" lon="-45.603072">
        <ele>873.485</ele>
        <time>2019-10-15T16:40:44Z</time>
      </trkpt>
      <trkpt lat="-22.040940" lon="-45.603023">
        <ele>873.889</ele>
        <time>2019-10-15T16:40:46Z</time>
      </trkpt>
      <trkpt lat="-22.040976" lon="-45.602958">
        <ele>873.717</ele>
        <time>2019-10-15T16:40:47Z</time>
      </trkpt>
      <trkpt lat="-22.041002" lon="-45.602904">
        <ele>873.808</ele>
        <time>2019-10-15T16:40:50Z</time>
      </trkpt>
      <trkpt lat="-22.041030" lon="-45.602843">
        <ele>874.092</ele>
        <time>2019-10-15T16:40:52Z</time>
      </trkpt>
      <trkpt lat="-22.041058" lon="-45.602780">
        <ele>874.110</ele>
        <time>2019-10-15T16:40:53Z</time>
      </trkpt>
      <trkpt lat="-22.041088" lon="-45.602728">
        <ele>874.013</ele>
        <time>2019-10-15T16:40:55Z</time>
      </trkpt>
      <trkpt lat="-22.041132" lon="-45.602639">
        <ele>873.728</ele>
        <time>2019-10-15T16:40:58Z</time>
      </trkpt>
      <trkpt lat="-22.041162" lon="-45.602585">
        <ele>873.798</ele>
        <time>2019-10-15T16:40:59Z</time>
      </trkpt>
      <trkpt lat="-22.041194" lon="-45.602521">
        <ele>874.078</ele>
        <time>2019-10-15T16:41:02Z</time>
      </trkpt>
      <trkpt lat="-22.041236" lon="-45.602433">
        <ele>874.273</ele>
        <time>2019-10-15T16:41:04Z</time>
      </trkpt>
      <trkpt lat="-22.041261" lon="-45.602388">
        <ele>874.622</ele>
        <time>2019-10-15T16:41:06Z</time>
      </trkpt>
      <trkpt lat="-22.041285" lon="-45.602345">
        <ele>874.552</ele>
        <time>2019-10-15T16:41:08Z</time>
      </trkpt>
      <trkpt lat="-22.041317" lon="-45.602286">
        <ele>874.653</ele>
        <time>2019-10-15T16:41:09Z</time>
      </trkpt>
      <trkpt lat="-22.041353" lon="-45.602208">
        <ele>874.708</ele>
        <time>2019-10-15T16:41:12Z</time>
      </trkpt>
      <trkpt lat="-22.041400" lon="-45.602114">
        <ele>875.008</ele>
        <time>2019-10-15T16:41:15Z</time>
      </trkpt>
      <trkpt lat="-22.041425" lon="-45.602066">
        <ele>874.699</ele>
        <time>2019-10-15T16:41:17Z</time>
      </trkpt>
      <trkpt lat="-22.041460" lon="-45.601997">
        <ele>874.987</ele>
        <time>2019-10-15T16:41:19Z</time>
      </trkpt>
      <trkpt lat="-22.041485" lon="-45.601946">
        <ele>875.240</ele>
        <time>2019-10-15T16:41:22Z</time>
      </trkpt>
      <trkpt lat="-22.041511" lon="-45.601894">
        <ele>875.235</ele>
        <time>2019-10-15T16:41:24Z</time>
      </trkpt>
      <trkpt lat="-22.041531" lon="-45.601848">
        <ele>875.275</ele>
        <time>2019-10-15T16:41:26Z</time>
      </trkpt>
      <trkpt lat="-22.041558" lon="-45.601797">
        <ele>875.115</ele>
        <time>2019-10-15T16:41:28Z</time>
      </trkpt>
      <trkpt lat="-22.041587" lon="-45.601743">
        <ele>874.840</ele>
        <time>2019-10-15T16:41:30Z</time>
      </trkpt>
      <trkpt lat="-22.041631" lon="-45.601666">
        <ele>874.999</ele>
        <time>2019-10-15T16:41:33Z</time>
      </trkpt>
      <trkpt lat="-22.041673" lon="-45.601582">
        <ele>874.782</ele>
        <time>2019-10-15T16:41:36Z</time>
      </trkpt>
      <trkpt lat="-22.041701" lon="-45.601524">
        <ele>874.243</ele>
        <time>2019-10-15T16:41:37Z</time>
      </trkpt>
      <trkpt lat="-22.041744" lon="-45.601427">
        <ele>874.017</ele>
        <time>2019-10-15T16:41:40Z</time>
      </trkpt>
      <trkpt lat="-22.041766" lon="-45.601368">
        <ele>874.208</ele>
        <time>2019-10-15T16:41:42Z</time>
      </trkpt>
      <trkpt lat="-22.041791" lon="-45.601319">
        <ele>874.482</ele>
        <time>2019-10-15T16:41:43Z</time>
      </trkpt>
      <trkpt lat="-22.041832" lon="-45.601249">
        <ele>873.830</ele>
        <time>2019-10-15T16:41:45Z</time>
      </trkpt>
      <trkpt lat="-22.041868" lon="-45.601178">
        <ele>873.663</ele>
        <time>2019-10-15T16:41:48Z</time>
      </trkpt>
      <trkpt lat="-22.041903" lon="-45.601111">
        <ele>873.488</ele>
        <time>2019-10-15T16:41:50Z</time>
      </trkpt>
      <trkpt lat="-22.041936" lon="-45.601051">
        <ele>873.258</ele>
        <time>2019-10-15T16:41:51Z</time>
      </trkpt>
      <trkpt lat="-22.041977" lon="-45.600976">
        <ele>872.728</ele>
        <time>2019-10-15T16:41:54Z</time>
      </trkpt>
      <trkpt lat="-22.042009" lon="-45.600917">
        <ele>872.753</ele>
        <time>2019-10-15T16:41:55Z</time>
      </trkpt>
      <trkpt lat="-22.042066" lon="-45.600806">
        <ele>872.472</ele>
        <time>2019-10-15T16:41:59Z</time>
      </trkpt>
      <trkpt lat="-22.042099" lon="-45.600745">
        <ele>872.295</ele>
        <time>2019-10-15T16:42:00Z</time>
      </trkpt>
      <trkpt lat="-22.042130" lon="-45.600687">
        <ele>872.049</ele>
        <time>2019-10-15T16:42:02Z</time>
      </trkpt>
      <trkpt lat="-22.044043" lon="-45.597004">
        <ele>858.223</ele>
        <time>2019-10-15T16:43:07Z</time>
      </trkpt>
      <trkpt lat="-22.044092" lon="-45.596963">
        <ele>858.308</ele>
        <time>2019-10-15T16:43:10Z</time>
      </trkpt>
      <trkpt lat="-22.044137" lon="-45.596934">
        <ele>857.883</ele>
        <time>2019-10-15T16:43:12Z</time>
      </trkpt>
      <trkpt lat="-22.044213" lon="-45.596933">
        <ele>857.421</ele>
        <time>2019-10-15T16:43:15Z</time>
      </trkpt>
      <trkpt lat="-22.044456" lon="-45.597059">
        <ele>857.194</ele>
        <time>2019-10-15T16:43:22Z</time>
      </trkpt>
      <trkpt lat="-22.044528" lon="-45.597133">
        <ele>857.229</ele>
        <time>2019-10-15T16:43:24Z</time>
      </trkpt>
      <trkpt lat="-22.044576" lon="-45.597168">
        <ele>857.099</ele>
        <time>2019-10-15T16:43:26Z</time>
      </trkpt>
      <trkpt lat="-22.045419" lon="-45.597290">
        <ele>856.769</ele>
        <time>2019-10-15T16:43:46Z</time>
      </trkpt>
      <trkpt lat="-22.045476" lon="-45.597341">
        <ele>856.864</ele>
        <time>2019-10-15T16:43:59Z</time>
      </trkpt>
      <trkpt lat="-22.045593" lon="-45.597348">
        <ele>856.833</ele>
        <time>2019-10-15T16:44:05Z</time>
      </trkpt>
      <trkpt lat="-22.045687" lon="-45.597346">
        <ele>857.091</ele>
        <time>2019-10-15T16:44:08Z</time>
      </trkpt>
      <trkpt lat="-22.045775" lon="-45.597336">
        <ele>857.481</ele>
        <time>2019-10-15T16:44:11Z</time>
      </trkpt>
      <trkpt lat="-22.045856" lon="-45.597320">
        <ele>857.519</ele>
        <time>2019-10-15T16:44:13Z</time>
      </trkpt>
      <trkpt lat="-22.045903" lon="-45.597318">
        <ele>857.608</ele>
        <time>2019-10-15T16:44:15Z</time>
      </trkpt>
      <trkpt lat="-22.045952" lon="-45.597307">
        <ele>858.143</ele>
        <time>2019-10-15T16:44:18Z</time>
      </trkpt>
      <trkpt lat="-22.045938" lon="-45.597307">
        <ele>858.521</ele>
        <time>2019-10-15T16:40:51Z</time>
      </trkpt>
      <trkpt lat="-22.045988" lon="-45.597278">
        <ele>858.794</ele>
        <time>2019-10-15T16:41:15Z</time>
      </trkpt>
      <trkpt lat="-22.046031" lon="-45.597251">
        <ele>859.149</ele>
        <time>2019-10-15T16:41:17Z</time>
      </trkpt>
      <trkpt lat="-22.046088" lon="-45.597218">
        <ele>858.939</ele>
        <time>2019-10-15T16:41:19Z</time>
      </trkpt>
      <trkpt lat="-22.046144" lon="-45.597197">
        <ele>858.989</ele>
        <time>2019-10-15T16:46:13Z</time>
      </trkpt>
      <trkpt lat="-22.046204" lon="-45.597126">
        <ele>858.644</ele>
        <time>2019-10-15T16:46:16Z</time>
      </trkpt>
      <trkpt lat="-22.046243" lon="-45.597079">
        <ele>858.243</ele>
        <time>2019-10-15T16:46:17Z</time>
      </trkpt>
      <trkpt lat="-22.046278" lon="-45.597041">
        <ele>858.728</ele>
        <time>2019-10-15T16:46:18Z</time>
      </trkpt>
      <trkpt lat="-22.046310" lon="-45.597005">
        <ele>858.889</ele>
        <time>2019-10-15T16:46:19Z</time>
      </trkpt>
      <trkpt lat="-22.046361" lon="-45.596931">
        <ele>858.417</ele>
        <time>2019-10-15T16:46:21Z</time>
      </trkpt>
      <trkpt lat="-22.046417" lon="-45.596828">
        <ele>858.908</ele>
        <time>2019-10-15T16:46:24Z</time>
      </trkpt>
      <trkpt lat="-22.046466" lon="-45.596724">
        <ele>859.586</ele>
        <time>2019-10-15T16:46:27Z</time>
      </trkpt>
      <trkpt lat="-22.046513" lon="-45.596610">
        <ele>859.924</ele>
        <time>2019-10-15T16:46:31Z</time>
      </trkpt>
      <trkpt lat="-22.046572" lon="-45.596442">
        <ele>860.397</ele>
        <time>2019-10-15T16:46:36Z</time>
      </trkpt>
      <trkpt lat="-22.046622" lon="-45.596310">
        <ele>860.952</ele>
        <time>2019-10-15T16:46:40Z</time>
      </trkpt>
      <trkpt lat="-22.046699" lon="-45.596125">
        <ele>861.672</ele>
        <time>2019-10-15T16:46:46Z</time>
      </trkpt>
      <trkpt lat="-22.046783" lon="-45.595932">
        <ele>862.572</ele>
        <time>2019-10-15T16:46:51Z</time>
      </trkpt>
      <trkpt lat="-22.046856" lon="-45.595804">
        <ele>863.687</ele>
        <time>2019-10-15T16:46:56Z</time>
      </trkpt>
      <trkpt lat="-22.046887" lon="-45.595752">
        <ele>863.356</ele>
        <time>2019-10-15T16:46:58Z</time>
      </trkpt>
      <trkpt lat="-22.046956" lon="-45.595648">
        <ele>864.012</ele>
        <time>2019-10-15T16:47:03Z</time>
      </trkpt>
      <trkpt lat="-22.047040" lon="-45.595529">
        <ele>864.632</ele>
        <time>2019-10-15T16:47:07Z</time>
      </trkpt>
      <trkpt lat="-22.047153" lon="-45.595376">
        <ele>865.905</ele>
        <time>2019-10-15T16:47:13Z</time>
      </trkpt>
      <trkpt lat="-22.047193" lon="-45.595318">
        <ele>866.308</ele>
        <time>2019-10-15T16:47:16Z</time>
      </trkpt>
      <trkpt lat="-22.047253" lon="-45.595248">
        <ele>866.815</ele>
        <time>2019-10-15T16:47:19Z</time>
      </trkpt>
      <trkpt lat="-22.047353" lon="-45.595117">
        <ele>867.653</ele>
        <time>2019-10-15T16:47:25Z</time>
      </trkpt>
      <trkpt lat="-22.047500" lon="-45.594961">
        <ele>868.786</ele>
        <time>2019-10-15T16:47:33Z</time>
      </trkpt>
      <trkpt lat="-22.047678" lon="-45.594744">
        <ele>869.451</ele>
        <time>2019-10-15T16:47:42Z</time>
      </trkpt>
      <trkpt lat="-22.047765" lon="-45.594635">
        <ele>869.981</ele>
        <time>2019-10-15T16:47:48Z</time>
      </trkpt>
      <trkpt lat="-22.047822" lon="-45.594578">
        <ele>869.961</ele>
        <time>2019-10-15T16:47:51Z</time>
      </trkpt>
      <trkpt lat="-22.047882" lon="-45.594513">
        <ele>870.516</ele>
        <time>2019-10-15T16:47:53Z</time>
      </trkpt>
      <trkpt lat="-22.048022" lon="-45.594374">
        <ele>870.085</ele>
        <time>2019-10-15T16:48:00Z</time>
      </trkpt>
      <trkpt lat="-22.048084" lon="-45.594321">
        <ele>870.277</ele>
        <time>2019-10-15T16:48:01Z</time>
      </trkpt>
      <trkpt lat="-22.048124" lon="-45.594285">
        <ele>870.661</ele>
        <time>2019-10-15T16:48:03Z</time>
      </trkpt>
      <trkpt lat="-22.048176" lon="-45.594253">
        <ele>870.427</ele>
        <time>2019-10-15T16:48:05Z</time>
      </trkpt>
      <trkpt lat="-22.048246" lon="-45.594203">
        <ele>870.108</ele>
        <time>2019-10-15T16:48:07Z</time>
      </trkpt>
      <trkpt lat="-22.048329" lon="-45.594148">
        <ele>869.651</ele>
        <time>2019-10-15T16:48:10Z</time>
      </trkpt>
      <trkpt lat="-22.048395" lon="-45.594116">
        <ele>869.749</ele>
        <time>2019-10-15T16:48:12Z</time>
      </trkpt>
      <trkpt lat="-22.057190" lon="-45.586971">
        <ele>852.672</ele>
        <time>2019-10-15T16:50:59Z</time>
      </trkpt>
      <trkpt lat="-22.057233" lon="-45.586878">
        <ele>853.597</ele>
        <time>2019-10-15T16:51:01Z</time>
      </trkpt>
      <trkpt lat="-22.057273" lon="-45.586774">
        <ele>853.797</ele>
        <time>2019-10-15T16:51:05Z</time>
      </trkpt>
      <trkpt lat="-22.057463" lon="-45.586258">
        <ele>856.417</ele>
        <time>2019-10-15T16:51:25Z</time>
      </trkpt>
      <trkpt lat="-22.057569" lon="-45.585997">
        <ele>856.422</ele>
        <time>2019-10-15T16:51:36Z</time>
      </trkpt>
      <trkpt lat="-22.057639" lon="-45.585806">
        <ele>857.981</ele>
        <time>2019-10-15T16:51:43Z</time>
      </trkpt>
      <trkpt lat="-22.057694" lon="-45.585661">
        <ele>858.286</ele>
        <time>2019-10-15T16:51:49Z</time>
      </trkpt>
      <trkpt lat="-22.057729" lon="-45.585582">
        <ele>858.260</ele>
        <time>2019-10-15T16:51:51Z</time>
      </trkpt>
      <trkpt lat="-22.057756" lon="-45.585510">
        <ele>858.226</ele>
        <time>2019-10-15T16:51:54Z</time>
      </trkpt>
      <trkpt lat="-22.057813" lon="-45.585371">
        <ele>859.408</ele>
        <time>2019-10-15T16:51:59Z</time>
      </trkpt>
      <trkpt lat="-22.057845" lon="-45.585289">
        <ele>859.442</ele>
        <time>2019-10-15T16:52:02Z</time>
      </trkpt>
      <trkpt lat="-22.057889" lon="-45.585172">
        <ele>859.510</ele>
        <time>2019-10-15T16:52:06Z</time>
      </trkpt>
      <trkpt lat="-22.057912" lon="-45.585109">
        <ele>859.973</ele>
        <time>2019-10-15T16:52:08Z</time>
      </trkpt>
      <trkpt lat="-22.057956" lon="-45.584983">
        <ele>860.378</ele>
        <time>2019-10-15T16:52:12Z</time>
      </trkpt>
      <trkpt lat="-22.057982" lon="-45.584917">
        <ele>860.518</ele>
        <time>2019-10-15T16:52:14Z</time>
      </trkpt>
      <trkpt lat="-22.058005" lon="-45.584859">
        <ele>860.438</ele>
        <time>2019-10-15T16:52:15Z</time>
      </trkpt>
      <trkpt lat="-22.058030" lon="-45.584782">
        <ele>860.873</ele>
        <time>2019-10-15T16:52:17Z</time>
      </trkpt>
      <trkpt lat="-22.058055" lon="-45.584710">
        <ele>861.022</ele>
        <time>2019-10-15T16:52:20Z</time>
      </trkpt>
      <trkpt lat="-22.058082" lon="-45.584654">
        <ele>861.178</ele>
        <time>2019-10-15T16:52:21Z</time>
      </trkpt>
      <trkpt lat="-22.058116" lon="-45.584561">
        <ele>860.533</ele>
        <time>2019-10-15T16:52:24Z</time>
      </trkpt>
      <trkpt lat="-22.058134" lon="-45.584504">
        <ele>860.826</ele>
        <time>2019-10-15T16:52:26Z</time>
      </trkpt>
      <trkpt lat="-22.058174" lon="-45.584391">
        <ele>861.108</ele>
        <time>2019-10-15T16:52:28Z</time>
      </trkpt>
      <trkpt lat="-22.058217" lon="-45.584290">
        <ele>861.181</ele>
        <time>2019-10-15T16:52:31Z</time>
      </trkpt>
      <trkpt lat="-22.058245" lon="-45.584205">
        <ele>861.349</ele>
        <time>2019-10-15T16:52:33Z</time>
      </trkpt>
      <trkpt lat="-22.058299" lon="-45.584081">
        <ele>861.642</ele>
        <time>2019-10-15T16:52:36Z</time>
      </trkpt>
      <trkpt lat="-22.058317" lon="-45.584036">
        <ele>861.887</ele>
        <time>2019-10-15T16:52:38Z</time>
      </trkpt>
      <trkpt lat="-22.058359" lon="-45.583919">
        <ele>861.797</ele>
        <time>2019-10-15T16:52:41Z</time>
      </trkpt>
      <trkpt lat="-22.058408" lon="-45.583809">
        <ele>861.827</ele>
        <time>2019-10-15T16:52:44Z</time>
      </trkpt>
      <trkpt lat="-22.058424" lon="-45.583756">
        <ele>861.952</ele>
        <time>2019-10-15T16:52:45Z</time>
      </trkpt>
      <trkpt lat="-22.058447" lon="-45.583700">
        <ele>862.211</ele>
        <time>2019-10-15T16:52:46Z</time>
      </trkpt>
      <trkpt lat="-22.058493" lon="-45.583587">
        <ele>862.462</ele>
        <time>2019-10-15T16:52:49Z</time>
      </trkpt>
      <trkpt lat="-22.058513" lon="-45.583532">
        <ele>862.783</ele>
        <time>2019-10-15T16:52:51Z</time>
      </trkpt>
      <trkpt lat="-22.058536" lon="-45.583459">
        <ele>863.111</ele>
        <time>2019-10-15T16:52:53Z</time>
      </trkpt>
      <trkpt lat="-22.058557" lon="-45.583401">
        <ele>863.108</ele>
        <time>2019-10-15T16:52:55Z</time>
      </trkpt>
      <trkpt lat="-22.058592" lon="-45.583323">
        <ele>863.070</ele>
        <time>2019-10-15T16:52:57Z</time>
      </trkpt>
      <trkpt lat="-22.058618" lon="-45.583258">
        <ele>863.758</ele>
        <time>2019-10-15T16:52:59Z</time>
      </trkpt>
      <trkpt lat="-22.058656" lon="-45.583160">
        <ele>864.071</ele>
        <time>2019-10-15T16:53:02Z</time>
      </trkpt>
      <trkpt lat="-22.058692" lon="-45.583067">
        <ele>864.656</ele>
        <time>2019-10-15T16:53:05Z</time>
      </trkpt>
      <trkpt lat="-22.058716" lon="-45.583005">
        <ele>864.796</ele>
        <time>2019-10-15T16:53:07Z</time>
      </trkpt>
      <trkpt lat="-22.058741" lon="-45.582944">
        <ele>865.266</ele>
        <time>2019-10-15T16:53:09Z</time>
      </trkpt>
      <trkpt lat="-22.058769" lon="-45.582877">
        <ele>865.631</ele>
        <time>2019-10-15T16:53:11Z</time>
      </trkpt>
      <trkpt lat="-22.058836" lon="-45.582694">
        <ele>866.370</ele>
        <time>2019-10-15T16:53:17Z</time>
      </trkpt>
      <trkpt lat="-22.058857" lon="-45.582639">
        <ele>866.431</ele>
        <time>2019-10-15T16:53:18Z</time>
      </trkpt>
      <trkpt lat="-22.058879" lon="-45.582571">
        <ele>866.861</ele>
        <time>2019-10-15T16:53:21Z</time>
      </trkpt>
      <trkpt lat="-22.058916" lon="-45.582475">
        <ele>867.507</ele>
        <time>2019-10-15T16:53:24Z</time>
      </trkpt>
      <trkpt lat="-22.058961" lon="-45.582359">
        <ele>867.608</ele>
        <time>2019-10-15T16:53:28Z</time>
      </trkpt>
      <trkpt lat="-22.058999" lon="-45.582270">
        <ele>868.247</ele>
        <time>2019-10-15T16:53:31Z</time>
      </trkpt>
      <trkpt lat="-22.059030" lon="-45.582184">
        <ele>868.465</ele>
        <time>2019-10-15T16:53:35Z</time>
      </trkpt>
      <trkpt lat="-22.059063" lon="-45.582106">
        <ele>868.798</ele>
        <time>2019-10-15T16:53:38Z</time>
      </trkpt>
      <trkpt lat="-22.059241" lon="-45.581668">
        <ele>870.763</ele>
        <time>2019-10-15T16:53:49Z</time>
      </trkpt>
      <trkpt lat="-22.059324" lon="-45.581420">
        <ele>872.093</ele>
        <time>2019-10-15T16:53:57Z</time>
      </trkpt>
      <trkpt lat="-22.059356" lon="-45.581343">
        <ele>872.613</ele>
        <time>2019-10-15T16:53:59Z</time>
      </trkpt>
      <trkpt lat="-22.059418" lon="-45.581191">
        <ele>872.378</ele>
        <time>2019-10-15T16:54:04Z</time>
      </trkpt>
      <trkpt lat="-22.059437" lon="-45.581143">
        <ele>872.517</ele>
        <time>2019-10-15T16:54:06Z</time>
      </trkpt>
      <trkpt lat="-22.059460" lon="-45.581089">
        <ele>872.652</ele>
        <time>2019-10-15T16:54:08Z</time>
      </trkpt>
      <trkpt lat="-22.059485" lon="-45.581017">
        <ele>872.853</ele>
        <time>2019-10-15T16:54:10Z</time>
      </trkpt>
      <trkpt lat="-22.059506" lon="-45.580956">
        <ele>872.908</ele>
        <time>2019-10-15T16:54:11Z</time>
      </trkpt>
      <trkpt lat="-22.059551" lon="-45.580848">
        <ele>873.008</ele>
        <time>2019-10-15T16:54:15Z</time>
      </trkpt>
      <trkpt lat="-22.059579" lon="-45.580768">
        <ele>873.149</ele>
        <time>2019-10-15T16:54:17Z</time>
      </trkpt>
      <trkpt lat="-22.059601" lon="-45.580700">
        <ele>873.457</ele>
        <time>2019-10-15T16:54:18Z</time>
      </trkpt>
      <trkpt lat="-22.059632" lon="-45.580621">
        <ele>873.670</ele>
        <time>2019-10-15T16:54:21Z</time>
      </trkpt>
      <trkpt lat="-22.059696" lon="-45.580483">
        <ele>873.115</ele>
        <time>2019-10-15T16:54:24Z</time>
      </trkpt>
      <trkpt lat="-22.059743" lon="-45.580387">
        <ele>873.025</ele>
        <time>2019-10-15T16:54:27Z</time>
      </trkpt>
      <trkpt lat="-22.063614" lon="-45.575537">
        <ele>861.745</ele>
        <time>2019-10-15T16:51:20Z</time>
      </trkpt>
      <trkpt lat="-22.063653" lon="-45.575498">
        <ele>861.610</ele>
        <time>2019-10-15T16:51:21Z</time>
      </trkpt>
      <trkpt lat="-22.063694" lon="-45.575458">
        <ele>861.539</ele>
        <time>2019-10-15T16:51:22Z</time>
      </trkpt>
      <trkpt lat="-22.063735" lon="-45.575418">
        <ele>861.195</ele>
        <time>2019-10-15T16:51:23Z</time>
      </trkpt>
      <trkpt lat="-22.063776" lon="-45.575377">
        <ele>860.949</ele>
        <time>2019-10-15T16:51:24Z</time>
      </trkpt>
      <trkpt lat="-22.063820" lon="-45.575332">
        <ele>860.623</ele>
        <time>2019-10-15T16:51:25Z</time>
      </trkpt>
      <trkpt lat="-22.063862" lon="-45.575288">
        <ele>860.608</ele>
        <time>2019-10-15T16:51:26Z</time>
      </trkpt>
      <trkpt lat="-22.063909" lon="-45.575242">
        <ele>860.183</ele>
        <time>2019-10-15T16:51:27Z</time>
      </trkpt>
      <trkpt lat="-22.063958" lon="-45.575196">
        <ele>859.781</ele>
        <time>2019-10-15T16:51:28Z</time>
      </trkpt>
      <trkpt lat="-22.064011" lon="-45.575145">
        <ele>858.764</ele>
        <time>2019-10-15T16:51:29Z</time>
      </trkpt>
      <trkpt lat="-22.064064" lon="-45.575097">
        <ele>857.669</ele>
        <time>2019-10-15T16:51:30Z</time>
      </trkpt>
      <trkpt lat="-22.064120" lon="-45.575044">
        <ele>856.539</ele>
        <time>2019-10-15T16:51:31Z</time>
      </trkpt>
      <trkpt lat="-22.064178" lon="-45.574989">
        <ele>855.839</ele>
        <time>2019-10-15T16:51:32Z</time>
      </trkpt>
      <trkpt lat="-22.064238" lon="-45.574930">
        <ele>855.074</ele>
        <time>2019-10-15T16:51:33Z</time>
      </trkpt>
      <trkpt lat="-22.064296" lon="-45.574869">
        <ele>854.373</ele>
        <time>2019-10-15T16:51:34Z</time>
      </trkpt>
      <trkpt lat="-22.064354" lon="-45.574806">
        <ele>853.398</ele>
        <time>2019-10-15T16:51:35Z</time>
      </trkpt>
      <trkpt lat="-22.064416" lon="-45.574736">
        <ele>852.515</ele>
        <time>2019-10-15T16:51:36Z</time>
      </trkpt>
      <trkpt lat="-22.064482" lon="-45.574668">
        <ele>851.926</ele>
        <time>2019-10-15T16:51:37Z</time>
      </trkpt>
      <trkpt lat="-22.064554" lon="-45.574597">
        <ele>851.008</ele>
        <time>2019-10-15T16:51:38Z</time>
      </trkpt>
      <trkpt lat="-22.064622" lon="-45.574526">
        <ele>850.243</ele>
        <time>2019-10-15T16:51:39Z</time>
      </trkpt>
      <trkpt lat="-22.064694" lon="-45.574450">
        <ele>848.831</ele>
        <time>2019-10-15T16:51:40Z</time>
      </trkpt>
      <trkpt lat="-22.064766" lon="-45.574372">
        <ele>847.294</ele>
        <time>2019-10-15T16:51:41Z</time>
      </trkpt>
      <trkpt lat="-22.064836" lon="-45.574298">
        <ele>845.199</ele>
        <time>2019-10-15T16:51:42Z</time>
      </trkpt>
      <trkpt lat="-22.064906" lon="-45.574227">
        <ele>843.389</ele>
        <time>2019-10-15T16:51:43Z</time>
      </trkpt>
      <trkpt lat="-22.064978" lon="-45.574148">
        <ele>842.919</ele>
        <time>2019-10-15T16:51:44Z</time>
      </trkpt>
      <trkpt lat="-22.065049" lon="-45.574071">
        <ele>842.354</ele>
        <time>2019-10-15T16:51:45Z</time>
      </trkpt>
      <trkpt lat="-22.065124" lon="-45.573990">
        <ele>841.313</ele>
        <time>2019-10-15T16:51:46Z</time>
      </trkpt>
      <trkpt lat="-22.065202" lon="-45.573908">
        <ele>840.656</ele>
        <time>2019-10-15T16:51:47Z</time>
      </trkpt>
      <trkpt lat="-22.065283" lon="-45.573828">
        <ele>840.159</ele>
        <time>2019-10-15T16:51:48Z</time>
      </trkpt>
      <trkpt lat="-22.065366" lon="-45.573749">
        <ele>839.014</ele>
        <time>2019-10-15T16:51:49Z</time>
      </trkpt>
      <trkpt lat="-22.065450" lon="-45.573670">
        <ele>838.608</ele>
        <time>2019-10-15T16:51:50Z</time>
      </trkpt>
      <trkpt lat="-22.065534" lon="-45.573590">
        <ele>837.939</ele>
        <time>2019-10-15T16:51:51Z</time>
      </trkpt>
      <trkpt lat="-22.065615" lon="-45.573508">
        <ele>837.527</ele>
        <time>2019-10-15T16:51:52Z</time>
      </trkpt>
      <trkpt lat="-22.065699" lon="-45.573426">
        <ele>837.650</ele>
        <time>2019-10-15T16:51:53Z</time>
      </trkpt>
      <trkpt lat="-22.065778" lon="-45.573348">
        <ele>837.835</ele>
        <time>2019-10-15T16:51:54Z</time>
      </trkpt>
      <trkpt lat="-22.065858" lon="-45.573263">
        <ele>837.585</ele>
        <time>2019-10-15T16:51:55Z</time>
      </trkpt>
      <trkpt lat="-22.065931" lon="-45.573183">
        <ele>837.575</ele>
        <time>2019-10-15T16:51:56Z</time>
      </trkpt>
      <trkpt lat="-22.065998" lon="-45.573105">
        <ele>838.590</ele>
        <time>2019-10-15T16:51:57Z</time>
      </trkpt>
      <trkpt lat="-22.066062" lon="-45.573030">
        <ele>839.069</ele>
        <time>2019-10-15T16:51:58Z</time>
      </trkpt>
      <trkpt lat="-22.066121" lon="-45.572957">
        <ele>839.424</ele>
        <time>2019-10-15T16:51:59Z</time>
      </trkpt>
      <trkpt lat="-22.066173" lon="-45.572891">
        <ele>840.304</ele>
        <time>2019-10-15T16:52:00Z</time>
      </trkpt>
      <trkpt lat="-22.066225" lon="-45.572825">
        <ele>841.814</ele>
        <time>2019-10-15T16:52:01Z</time>
      </trkpt>
      <trkpt lat="-22.066270" lon="-45.572761">
        <ele>842.908</ele>
        <time>2019-10-15T16:52:02Z</time>
      </trkpt>
      <trkpt lat="-22.066315" lon="-45.572699">
        <ele>843.656</ele>
        <time>2019-10-15T16:52:03Z</time>
      </trkpt>
      <trkpt lat="-22.066357" lon="-45.572643">
        <ele>843.814</ele>
        <time>2019-10-15T16:52:04Z</time>
      </trkpt>
      <trkpt lat="-22.066395" lon="-45.572593">
        <ele>843.567</ele>
        <time>2019-10-15T16:52:05Z</time>
      </trkpt>
      <trkpt lat="-22.066427" lon="-45.572548">
        <ele>843.992</ele>
        <time>2019-10-15T16:52:06Z</time>
      </trkpt>
      <trkpt lat="-22.066459" lon="-45.572503">
        <ele>844.642</ele>
        <time>2019-10-15T16:52:07Z</time>
      </trkpt>
      <trkpt lat="-22.066489" lon="-45.572460">
        <ele>844.832</ele>
        <time>2019-10-15T16:52:08Z</time>
      </trkpt>
      <trkpt lat="-22.066521" lon="-45.572422">
        <ele>845.077</ele>
        <time>2019-10-15T16:52:09Z</time>
      </trkpt>
      <trkpt lat="-22.066583" lon="-45.572358">
        <ele>845.856</ele>
        <time>2019-10-15T16:52:11Z</time>
      </trkpt>
      <trkpt lat="-22.066632" lon="-45.572291">
        <ele>846.142</ele>
        <time>2019-10-15T16:52:13Z</time>
      </trkpt>
      <trkpt lat="-22.066669" lon="-45.572218">
        <ele>846.222</ele>
        <time>2019-10-15T16:52:15Z</time>
      </trkpt>
      <trkpt lat="-22.066703" lon="-45.572146">
        <ele>846.814</ele>
        <time>2019-10-15T16:52:17Z</time>
      </trkpt>
      <trkpt lat="-22.066717" lon="-45.572085">
        <ele>847.308</ele>
        <time>2019-10-15T16:57:11Z</time>
      </trkpt>
      <trkpt lat="-22.066763" lon="-45.572012">
        <ele>847.038</ele>
        <time>2019-10-15T16:57:13Z</time>
      </trkpt>
      <trkpt lat="-22.066795" lon="-45.571941">
        <ele>847.676</ele>
        <time>2019-10-15T16:57:15Z</time>
      </trkpt>
      <trkpt lat="-22.066825" lon="-45.571860">
        <ele>847.899</ele>
        <time>2019-10-15T16:57:18Z</time>
      </trkpt>
      <trkpt lat="-22.066848" lon="-45.571798">
        <ele>847.194</ele>
        <time>2019-10-15T16:57:20Z</time>
      </trkpt>
      <trkpt lat="-22.066875" lon="-45.571745">
        <ele>847.624</ele>
        <time>2019-10-15T16:57:22Z</time>
      </trkpt>
      <trkpt lat="-22.066923" lon="-45.571648">
        <ele>848.034</ele>
        <time>2019-10-15T16:57:25Z</time>
      </trkpt>
      <trkpt lat="-22.066948" lon="-45.571592">
        <ele>848.499</ele>
        <time>2019-10-15T16:57:26Z</time>
      </trkpt>
      <trkpt lat="-22.066974" lon="-45.571539">
        <ele>848.438</ele>
        <time>2019-10-15T16:57:28Z</time>
      </trkpt>
      <trkpt lat="-22.067008" lon="-45.571448">
        <ele>848.673</ele>
        <time>2019-10-15T16:57:31Z</time>
      </trkpt>
      <trkpt lat="-22.067045" lon="-45.571363">
        <ele>849.085</ele>
        <time>2019-10-15T16:57:33Z</time>
      </trkpt>
      <trkpt lat="-22.067085" lon="-45.571260">
        <ele>849.213</ele>
        <time>2019-10-15T16:57:37Z</time>
      </trkpt>
      <trkpt lat="-22.067118" lon="-45.571179">
        <ele>849.508</ele>
        <time>2019-10-15T16:57:39Z</time>
      </trkpt>
      <trkpt lat="-22.067154" lon="-45.571058">
        <ele>850.071</ele>
        <time>2019-10-15T16:57:42Z</time>
      </trkpt>
      <trkpt lat="-22.067181" lon="-45.570957">
        <ele>850.129</ele>
        <time>2019-10-15T16:57:45Z</time>
      </trkpt>
      <trkpt lat="-22.067204" lon="-45.570881">
        <ele>850.252</ele>
        <time>2019-10-15T16:57:48Z</time>
      </trkpt>
      <trkpt lat="-22.067223" lon="-45.570819">
        <ele>850.467</ele>
        <time>2019-10-15T16:57:50Z</time>
      </trkpt>
      <trkpt lat="-22.067238" lon="-45.570765">
        <ele>850.637</ele>
        <time>2019-10-15T16:57:51Z</time>
      </trkpt>
      <trkpt lat="-22.067277" lon="-45.570596">
        <ele>850.567</ele>
        <time>2019-10-15T16:57:56Z</time>
      </trkpt>
      <trkpt lat="-22.067291" lon="-45.570532">
        <ele>850.912</ele>
        <time>2019-10-15T16:57:57Z</time>
      </trkpt>
      <trkpt lat="-22.067312" lon="-45.570447">
        <ele>850.891</ele>
        <time>2019-10-15T16:58:00Z</time>
      </trkpt>
      <trkpt lat="-22.067324" lon="-45.570389">
        <ele>851.214</ele>
        <time>2019-10-15T16:58:01Z</time>
      </trkpt>
      <trkpt lat="-22.067345" lon="-45.570296">
        <ele>851.354</ele>
        <time>2019-10-15T16:58:04Z</time>
      </trkpt>
      <trkpt lat="-22.067369" lon="-45.570204">
        <ele>851.909</ele>
        <time>2019-10-15T16:58:06Z</time>
      </trkpt>
      <trkpt lat="-22.067389" lon="-45.570122">
        <ele>851.808</ele>
        <time>2019-10-15T16:58:09Z</time>
      </trkpt>
      <trkpt lat="-22.067409" lon="-45.570008">
        <ele>851.725</ele>
        <time>2019-10-15T16:58:12Z</time>
      </trkpt>
      <trkpt lat="-22.067435" lon="-45.569887">
        <ele>852.463</ele>
        <time>2019-10-15T16:58:16Z</time>
      </trkpt>
      <trkpt lat="-22.067451" lon="-45.569817">
        <ele>852.936</ele>
        <time>2019-10-15T16:58:17Z</time>
      </trkpt>
      <trkpt lat="-22.067464" lon="-45.569761">
        <ele>852.741</ele>
        <time>2019-10-15T16:58:19Z</time>
      </trkpt>
      <trkpt lat="-22.067471" lon="-45.569707">
        <ele>852.381</ele>
        <time>2019-10-15T16:58:21Z</time>
      </trkpt>
      <trkpt lat="-22.067485" lon="-45.569648">
        <ele>852.221</ele>
        <time>2019-10-15T16:58:22Z</time>
      </trkpt>
      <trkpt lat="-22.067500" lon="-45.569587">
        <ele>852.036</ele>
        <time>2019-10-15T16:58:24Z</time>
      </trkpt>
      <trkpt lat="-22.067515" lon="-45.569514">
        <ele>852.285</ele>
        <time>2019-10-15T16:58:26Z</time>
      </trkpt>
      <trkpt lat="-22.067531" lon="-45.569439">
        <ele>852.569</ele>
        <time>2019-10-15T16:58:28Z</time>
      </trkpt>
      <trkpt lat="-22.067547" lon="-45.569354">
        <ele>852.904</ele>
        <time>2019-10-15T16:58:30Z</time>
      </trkpt>
      <trkpt lat="-22.067589" lon="-45.569157">
        <ele>852.524</ele>
        <time>2019-10-15T16:58:36Z</time>
      </trkpt>
      <trkpt lat="-22.067649" lon="-45.568866">
        <ele>853.008</ele>
        <time>2019-10-15T16:58:43Z</time>
      </trkpt>
      <trkpt lat="-22.066209" lon="-45.555794">
        <ele>852.440</ele>
        <time>2019-10-15T17:02:42Z</time>
      </trkpt>
      <trkpt lat="-22.066203" lon="-45.555732">
        <ele>852.598</ele>
        <time>2019-10-15T17:02:44Z</time>
      </trkpt>
      <trkpt lat="-22.066145" lon="-45.555634">
        <ele>852.911</ele>
        <time>2019-10-15T17:02:47Z</time>
      </trkpt>
      <trkpt lat="-22.066125" lon="-45.555584">
        <ele>853.086</ele>
        <time>2019-10-15T17:02:48Z</time>
      </trkpt>
      <trkpt lat="-22.066079" lon="-45.555461">
        <ele>853.796</ele>
        <time>2019-10-15T17:02:52Z</time>
      </trkpt>
      <trkpt lat="-22.066035" lon="-45.555348">
        <ele>854.026</ele>
        <time>2019-10-15T17:02:54Z</time>
      </trkpt>
      <trkpt lat="-22.066001" lon="-45.555256">
        <ele>854.291</ele>
        <time>2019-10-15T17:02:57Z</time>
      </trkpt>
      <trkpt lat="-22.065953" lon="-45.555110">
        <ele>854.190</ele>
        <time>2019-10-15T17:03:01Z</time>
      </trkpt>
      <trkpt lat="-22.065884" lon="-45.554903">
        <ele>854.648</ele>
        <time>2019-10-15T17:03:06Z</time>
      </trkpt>
      <trkpt lat="-22.065855" lon="-45.554813">
        <ele>854.761</ele>
        <time>2019-10-15T17:03:08Z</time>
      </trkpt>
      <trkpt lat="-22.065839" lon="-45.554750">
        <ele>854.617</ele>
        <time>2019-10-15T17:03:10Z</time>
      </trkpt>
      <trkpt lat="-22.065818" lon="-45.554691">
        <ele>855.008</ele>
        <time>2019-10-15T17:03:12Z</time>
      </trkpt>
      <trkpt lat="-22.065789" lon="-45.554593">
        <ele>855.448</ele>
        <time>2019-10-15T17:03:14Z</time>
      </trkpt>
      <trkpt lat="-22.065726" lon="-45.554367">
        <ele>855.286</ele>
        <time>2019-10-15T17:03:19Z</time>
      </trkpt>
      <trkpt lat="-22.065673" lon="-45.554204">
        <ele>855.689</ele>
        <time>2019-10-15T17:03:24Z</time>
      </trkpt>
      <trkpt lat="-22.065640" lon="-45.554091">
        <ele>855.914</ele>
        <time>2019-10-15T17:03:28Z</time>
      </trkpt>
      <trkpt lat="-22.065621" lon="-45.554031">
        <ele>855.934</ele>
        <time>2019-10-15T17:03:30Z</time>
      </trkpt>
      <trkpt lat="-22.065603" lon="-45.553970">
        <ele>856.244</ele>
        <time>2019-10-15T17:03:32Z</time>
      </trkpt>
      <trkpt lat="-22.065590" lon="-45.553927">
        <ele>855.929</ele>
        <time>2019-10-15T16:58:42Z</time>
      </trkpt>
      <trkpt lat="-22.065579" lon="-45.553875">
        <ele>856.338</ele>
        <time>2019-10-15T17:03:35Z</time>
      </trkpt>
      <trkpt lat="-22.065567" lon="-45.553810">
        <ele>856.433</ele>
        <time>2019-10-15T17:03:38Z</time>
      </trkpt>
      <trkpt lat="-22.065548" lon="-45.553720">
        <ele>856.223</ele>
        <time>2019-10-15T17:03:40Z</time>
      </trkpt>
      <trkpt lat="-22.065527" lon="-45.553646">
        <ele>856.015</ele>
        <time>2019-10-15T17:03:42Z</time>
      </trkpt>
      <trkpt lat="-22.065130" lon="-45.545263">
        <ele>850.108</ele>
        <time>2019-10-15T17:06:38Z</time>
      </trkpt>
      <trkpt lat="-22.065160" lon="-45.545177">
        <ele>850.247</ele>
        <time>2019-10-15T17:06:41Z</time>
      </trkpt>
      <trkpt lat="-22.065182" lon="-45.545098">
        <ele>850.235</ele>
        <time>2019-10-15T17:06:43Z</time>
      </trkpt>
      <trkpt lat="-22.065190" lon="-45.545043">
        <ele>850.358</ele>
        <time>2019-10-15T17:06:45Z</time>
      </trkpt>
      <trkpt lat="-22.065197" lon="-45.544985">
        <ele>850.493</ele>
        <time>2019-10-15T17:06:47Z</time>
      </trkpt>
      <trkpt lat="-22.065217" lon="-45.544866">
        <ele>850.873</ele>
        <time>2019-10-15T17:06:52Z</time>
      </trkpt>
      <trkpt lat="-22.065237" lon="-45.544809">
        <ele>851.593</ele>
        <time>2019-10-15T17:07:07Z</time>
      </trkpt>
      <trkpt lat="-22.065295" lon="-45.544767">
        <ele>850.968</ele>
        <time>2019-10-15T17:08:02Z</time>
      </trkpt>
      <trkpt lat="-22.065335" lon="-45.544740">
        <ele>850.877</ele>
        <time>2019-10-15T17:08:03Z</time>
      </trkpt>
      <trkpt lat="-22.065381" lon="-45.544705">
        <ele>850.968</ele>
        <time>2019-10-15T17:08:05Z</time>
      </trkpt>
      <trkpt lat="-22.065402" lon="-45.544647">
        <ele>851.642</ele>
        <time>2019-10-15T17:08:08Z</time>
      </trkpt>
      <trkpt lat="-22.065401" lon="-45.544573">
        <ele>851.826</ele>
        <time>2019-10-15T17:08:10Z</time>
      </trkpt>
      <trkpt lat="-22.065398" lon="-45.544513">
        <ele>852.308</ele>
        <time>2019-10-15T17:08:12Z</time>
      </trkpt>
      <trkpt lat="-22.065398" lon="-45.544464">
        <ele>853.040</ele>
        <time>2019-10-15T17:08:14Z</time>
      </trkpt>
      <trkpt lat="-22.065398" lon="-45.544415">
        <ele>853.068</ele>
        <time>2019-10-15T17:08:15Z</time>
      </trkpt>
      <trkpt lat="-22.065388" lon="-45.544354">
        <ele>853.771</ele>
        <time>2019-10-15T17:08:18Z</time>
      </trkpt>
      <trkpt lat="-22.065384" lon="-45.544299">
        <ele>853.886</ele>
        <time>2019-10-15T17:08:20Z</time>
      </trkpt>
      <trkpt lat="-22.065383" lon="-45.544248">
        <ele>854.116</ele>
        <time>2019-10-15T17:08:22Z</time>
      </trkpt>
      <trkpt lat="-22.065373" lon="-45.544188">
        <ele>855.196</ele>
        <time>2019-10-15T17:08:26Z</time>
      </trkpt>
      <trkpt lat="-22.065367" lon="-45.544103">
        <ele>855.121</ele>
        <time>2019-10-15T17:08:29Z</time>
      </trkpt>
      <trkpt lat="-22.065370" lon="-45.544052">
        <ele>856.010</ele>
        <time>2019-10-15T17:08:32Z</time>
      </trkpt>
      <trkpt lat="-22.065373" lon="-45.543992">
        <ele>856.497</ele>
        <time>2019-10-15T17:08:35Z</time>
      </trkpt>
      <trkpt lat="-22.065365" lon="-45.543939">
        <ele>856.723</ele>
        <time>2019-10-15T17:08:38Z</time>
      </trkpt>
      <trkpt lat="-22.065364" lon="-45.543883">
        <ele>857.325</ele>
        <time>2019-10-15T17:08:41Z</time>
      </trkpt>
      <trkpt lat="-22.065355" lon="-45.543827">
        <ele>858.008</ele>
        <time>2019-10-15T17:08:44Z</time>
      </trkpt>
      <trkpt lat="-22.065351" lon="-45.543764">
        <ele>858.423</ele>
        <time>2019-10-15T17:08:48Z</time>
      </trkpt>
      <trkpt lat="-22.065367" lon="-45.543707">
        <ele>859.061</ele>
        <time>2019-10-15T17:08:52Z</time>
      </trkpt>
      <trkpt lat="-22.065358" lon="-45.543655">
        <ele>859.194</ele>
        <time>2019-10-15T17:08:54Z</time>
      </trkpt>
      <trkpt lat="-22.065351" lon="-45.543592">
        <ele>859.599</ele>
        <time>2019-10-15T17:08:57Z</time>
      </trkpt>
      <trkpt lat="-22.065350" lon="-45.543529">
        <ele>859.769</ele>
        <time>2019-10-15T17:09:00Z</time>
      </trkpt>
      <trkpt lat="-22.065346" lon="-45.543466">
        <ele>859.829</ele>
        <time>2019-10-15T17:09:03Z</time>
      </trkpt>
      <trkpt lat="-22.065344" lon="-45.543413">
        <ele>860.244</ele>
        <time>2019-10-15T17:09:05Z</time>
      </trkpt>
      <trkpt lat="-22.065339" lon="-45.543356">
        <ele>860.583</ele>
        <time>2019-10-15T17:09:08Z</time>
      </trkpt>
      <trkpt lat="-22.065338" lon="-45.543306">
        <ele>860.877</ele>
        <time>2019-10-15T17:09:11Z</time>
      </trkpt>
      <trkpt lat="-22.065333" lon="-45.543256">
        <ele>860.761</ele>
        <time>2019-10-15T17:09:13Z</time>
      </trkpt>
      <trkpt lat="-22.065332" lon="-45.543190">
        <ele>860.727</ele>
        <time>2019-10-15T17:09:15Z</time>
      </trkpt>
      <trkpt lat="-22.065327" lon="-45.543129">
        <ele>860.708</ele>
        <time>2019-10-15T17:09:17Z</time>
      </trkpt>
      <trkpt lat="-22.065319" lon="-45.543069">
        <ele>861.091</ele>
        <time>2019-10-15T17:09:19Z</time>
      </trkpt>
      <trkpt lat="-22.065317" lon="-45.543019">
        <ele>861.399</ele>
        <time>2019-10-15T17:09:21Z</time>
      </trkpt>
      <trkpt lat="-22.065316" lon="-45.542916">
        <ele>861.092</ele>
        <time>2019-10-15T17:09:24Z</time>
      </trkpt>
      <trkpt lat="-22.065315" lon="-45.542857">
        <ele>861.117</ele>
        <time>2019-10-15T17:09:26Z</time>
      </trkpt>
      <trkpt lat="-22.065312" lon="-45.542793">
        <ele>860.987</ele>
        <time>2019-10-15T17:09:28Z</time>
      </trkpt>
      <trkpt lat="-22.065309" lon="-45.542695">
        <ele>860.977</ele>
        <time>2019-10-15T17:09:31Z</time>
      </trkpt>
      <trkpt lat="-22.065304" lon="-45.542633">
        <ele>860.912</ele>
        <time>2019-10-15T17:09:34Z</time>
      </trkpt>
      <trkpt lat="-22.065292" lon="-45.542573">
        <ele>860.491</ele>
        <time>2019-10-15T17:09:36Z</time>
      </trkpt>
      <trkpt lat="-22.065319" lon="-45.542508">
        <ele>860.769</ele>
        <time>2019-10-15T17:09:39Z</time>
      </trkpt>
      <trkpt lat="-22.065368" lon="-45.542490">
        <ele>860.904</ele>
        <time>2019-10-15T17:09:41Z</time>
      </trkpt>
      <trkpt lat="-22.065414" lon="-45.542491">
        <ele>861.324</ele>
        <time>2019-10-15T17:09:43Z</time>
      </trkpt>
      <trkpt lat="-22.065464" lon="-45.542492">
        <ele>861.308</ele>
        <time>2019-10-15T17:09:46Z</time>
      </trkpt>
      <trkpt lat="-22.065516" lon="-45.542476">
        <ele>862.040</ele>
        <time>2019-10-15T17:09:49Z</time>
      </trkpt>
      <trkpt lat="-22.065504" lon="-45.542579">
        <ele>862.788</ele>
        <time>2019-10-15T17:10:23Z</time>
      </trkpt>
      <trkpt lat="-22.065479" lon="-45.542631">
        <ele>863.241</ele>
        <time>2019-10-15T17:11:14Z</time>
      </trkpt>
      <trkpt lat="-22.065557" lon="-45.542673">
        <ele>863.056</ele>
        <time>2019-10-15T17:13:09Z</time>
      </trkpt>
      <trkpt lat="-22.065584" lon="-45.542724">
        <ele>863.186</ele>
        <time>2019-10-15T17:13:19Z</time>
      </trkpt>
      <trkpt lat="-22.065611" lon="-45.542676">
        <ele>863.336</ele>
        <time>2019-10-15T17:14:02Z</time>
      </trkpt>
      <trkpt lat="-22.065570" lon="-45.542702">
        <ele>863.821</ele>
        <time>2019-10-15T17:14:15Z</time>
      </trkpt>
      <trkpt lat="-22.065562" lon="-45.542788">
        <ele>863.920</ele>
        <time>2019-10-15T17:14:50Z</time>
      </trkpt>
      <trkpt lat="-22.065502" lon="-45.542790">
        <ele>864.196</ele>
        <time>2019-10-15T17:15:00Z</time>
      </trkpt>
      <trkpt lat="-22.065551" lon="-45.542765">
        <ele>863.831</ele>
        <time>2019-10-15T17:15:10Z</time>
      </trkpt>
      <trkpt lat="-22.065571" lon="-45.542716">
        <ele>863.524</ele>
        <time>2019-10-15T17:15:30Z</time>
      </trkpt>
      <trkpt lat="-22.065562" lon="-45.542491">
        <ele>863.908</ele>
        <time>2019-10-15T17:15:47Z</time>
      </trkpt>
      <trkpt lat="-22.065561" lon="-45.542552">
        <ele>863.913</ele>
        <time>2019-10-15T17:15:48Z</time>
      </trkpt>
      <trkpt lat="-22.065560" lon="-45.542604">
        <ele>863.931</ele>
        <time>2019-10-15T17:15:50Z</time>
      </trkpt>
      <trkpt lat="-22.065574" lon="-45.542654">
        <ele>864.034</ele>
        <time>2019-10-15T17:15:54Z</time>
      </trkpt>
      <trkpt lat="-22.065523" lon="-45.542668">
        <ele>864.449</ele>
        <time>2019-10-15T17:16:15Z</time>
      </trkpt>
      <trkpt lat="-22.065522" lon="-45.542562">
        <ele>863.989</ele>
        <time>2019-10-15T17:17:07Z</time>
      </trkpt>
      <trkpt lat="-22.065595" lon="-45.542702">
        <ele>864.129</ele>
        <time>2019-10-15T17:17:27Z</time>
      </trkpt>
      <trkpt lat="-22.065603" lon="-45.542567">
        <ele>864.224</ele>
        <time>2019-10-15T17:17:37Z</time>
      </trkpt>
      <trkpt lat="-22.065506" lon="-45.542547">
        <ele>864.023</ele>
        <time>2019-10-15T17:17:47Z</time>
      </trkpt>
      <trkpt lat="-22.065574" lon="-45.542604">
        <ele>864.065</ele>
        <time>2019-10-15T17:18:27Z</time>
      </trkpt>
      <trkpt lat="-22.065415" lon="-45.542569">
        <ele>864.168</ele>
        <time>2019-10-15T17:18:37Z</time>
      </trkpt>
      <trkpt lat="-22.065482" lon="-45.542563">
        <ele>863.714</ele>
        <time>2019-10-15T17:18:58Z</time>
      </trkpt>
      <trkpt lat="-22.065391" lon="-45.542635">
        <ele>863.608</ele>
        <time>2019-10-15T17:20:49Z</time>
      </trkpt>
      <trkpt lat="-22.065323" lon="-45.542793">
        <ele>864.150</ele>
        <time>2019-10-15T17:20:59Z</time>
      </trkpt>
      <trkpt lat="-22.065405" lon="-45.542827">
        <ele>864.138</ele>
        <time>2019-10-15T17:21:09Z</time>
      </trkpt>
      <trkpt lat="-22.065567" lon="-45.542812">
        <ele>864.231</ele>
        <time>2019-10-15T17:21:19Z</time>
      </trkpt>
      <trkpt lat="-22.065660" lon="-45.542762">
        <ele>864.246</ele>
        <time>2019-10-15T17:21:29Z</time>
      </trkpt>
      <trkpt lat="-22.065594" lon="-45.542752">
        <ele>864.246</ele>
        <time>2019-10-15T17:21:39Z</time>
      </trkpt>
      <trkpt lat="-22.065450" lon="-45.542882">
        <ele>864.486</ele>
        <time>2019-10-15T17:21:49Z</time>
      </trkpt>
      <trkpt lat="-22.065207" lon="-45.542904">
        <ele>864.481</ele>
        <time>2019-10-15T17:22:00Z</time>
      </trkpt>
      <trkpt lat="-22.065153" lon="-45.543038">
        <ele>864.160</ele>
        <time>2019-10-15T17:22:10Z</time>
      </trkpt>
      <trkpt lat="-22.064771" lon="-45.543259">
        <ele>864.366</ele>
        <time>2019-10-15T17:22:20Z</time>
      </trkpt>
      <trkpt lat="-22.065485" lon="-45.542575">
        <ele>864.729</ele>
        <time>2019-10-15T17:22:35Z</time>
      </trkpt>
      <trkpt lat="-22.065555" lon="-45.542704">
        <ele>864.421</ele>
        <time>2019-10-15T17:23:05Z</time>
      </trkpt>
      <trkpt lat="-22.065545" lon="-45.542794">
        <ele>864.708</ele>
        <time>2019-10-15T17:23:15Z</time>
      </trkpt>
      <trkpt lat="-22.065593" lon="-45.542909">
        <ele>864.520</ele>
        <time>2019-10-15T17:23:25Z</time>
      </trkpt>
      <trkpt lat="-22.065504" lon="-45.542942">
        <ele>864.738</ele>
        <time>2019-10-15T17:23:35Z</time>
      </trkpt>
      <trkpt lat="-22.065485" lon="-45.542873">
        <ele>864.841</ele>
        <time>2019-10-15T17:23:45Z</time>
      </trkpt>
      <trkpt lat="-22.065545" lon="-45.542783">
        <ele>864.236</ele>
        <time>2019-10-15T17:23:55Z</time>
      </trkpt>
      <trkpt lat="-22.065535" lon="-45.542727">
        <ele>864.596</ele>
        <time>2019-10-15T17:24:05Z</time>
      </trkpt>
      <trkpt lat="-22.065509" lon="-45.542768">
        <ele>864.856</ele>
        <time>2019-10-15T17:24:15Z</time>
      </trkpt>
      <trkpt lat="-22.065477" lon="-45.542603">
        <ele>865.231</ele>
        <time>2019-10-15T17:24:29Z</time>
      </trkpt>
      <trkpt lat="-22.065517" lon="-45.542651">
        <ele>865.120</ele>
        <time>2019-10-15T17:24:56Z</time>
      </trkpt>
      <trkpt lat="-22.065455" lon="-45.542508">
        <ele>865.466</ele>
        <time>2019-10-15T17:26:05Z</time>
      </trkpt>
      <trkpt lat="-22.065506" lon="-45.542550">
        <ele>864.929</ele>
        <time>2019-10-15T17:26:16Z</time>
      </trkpt>
      <trkpt lat="-22.065573" lon="-45.542615">
        <ele>865.321</ele>
        <time>2019-10-15T17:26:56Z</time>
      </trkpt>
      <trkpt lat="-22.065688" lon="-45.542586">
        <ele>865.608</ele>
        <time>2019-10-15T17:27:06Z</time>
      </trkpt>
      <trkpt lat="-22.065648" lon="-45.542616">
        <ele>865.530</ele>
        <time>2019-10-15T17:27:24Z</time>
      </trkpt>
      <trkpt lat="-22.065499" lon="-45.542594">
        <ele>865.488</ele>
        <time>2019-10-15T17:27:36Z</time>
      </trkpt>
      <trkpt lat="-22.065407" lon="-45.542506">
        <ele>865.531</ele>
        <time>2019-10-15T17:27:46Z</time>
      </trkpt>
      <trkpt lat="-22.065412" lon="-45.542564">
        <ele>865.266</ele>
        <time>2019-10-15T17:27:57Z</time>
      </trkpt>
      <trkpt lat="-22.065462" lon="-45.542579">
        <ele>865.266</ele>
        <time>2019-10-15T17:28:27Z</time>
      </trkpt>
      <trkpt lat="-22.065500" lon="-45.542622">
        <ele>865.256</ele>
        <time>2019-10-15T17:28:38Z</time>
      </trkpt>
      <trkpt lat="-22.065528" lon="-45.542660">
        <ele>865.651</ele>
        <time>2019-10-15T17:28:58Z</time>
      </trkpt>
      <trkpt lat="-22.065593" lon="-45.542665">
        <ele>865.340</ele>
        <time>2019-10-15T17:30:09Z</time>
      </trkpt>
      <trkpt lat="-22.065560" lon="-45.542625">
        <ele>865.433</ele>
        <time>2019-10-15T17:30:49Z</time>
      </trkpt>
      <trkpt lat="-22.065625" lon="-45.542611">
        <ele>865.523</ele>
        <time>2019-10-15T17:31:09Z</time>
      </trkpt>
      <trkpt lat="-22.065547" lon="-45.542611">
        <ele>865.815</ele>
        <time>2019-10-15T17:32:09Z</time>
      </trkpt>
      <trkpt lat="-22.065558" lon="-45.542670">
        <ele>865.908</ele>
        <time>2019-10-15T17:32:29Z</time>
      </trkpt>
      <trkpt lat="-22.065485" lon="-45.542703">
        <ele>865.857</ele>
        <time>2019-10-15T17:32:49Z</time>
      </trkpt>
      <trkpt lat="-22.065559" lon="-45.542617">
        <ele>865.575</ele>
        <time>2019-10-15T17:33:20Z</time>
      </trkpt>
      <trkpt lat="-22.065511" lon="-45.542596">
        <ele>865.428</ele>
        <time>2019-10-15T17:33:30Z</time>
      </trkpt>
      <trkpt lat="-22.065533" lon="-45.542640">
        <ele>866.133</ele>
        <time>2019-10-15T17:35:11Z</time>
      </trkpt>
      <trkpt lat="-22.065492" lon="-45.542606">
        <ele>866.093</ele>
        <time>2019-10-15T17:36:11Z</time>
      </trkpt>
      <trkpt lat="-22.065464" lon="-45.542659">
        <ele>866.383</ele>
        <time>2019-10-15T17:37:31Z</time>
      </trkpt>
      <trkpt lat="-22.065486" lon="-45.542705">
        <ele>866.168</ele>
        <time>2019-10-15T17:37:51Z</time>
      </trkpt>
      <trkpt lat="-22.065430" lon="-45.542706">
        <ele>866.467</ele>
        <time>2019-10-15T17:38:32Z</time>
      </trkpt>
      <trkpt lat="-22.065468" lon="-45.542659">
        <ele>866.518</ele>
        <time>2019-10-15T17:39:12Z</time>
      </trkpt>
      <trkpt lat="-22.065516" lon="-45.542622">
        <ele>866.898</ele>
        <time>2019-10-15T17:39:42Z</time>
      </trkpt>
      <trkpt lat="-22.065572" lon="-45.542571">
        <ele>866.717</ele>
        <time>2019-10-15T17:40:02Z</time>
      </trkpt>
      <trkpt lat="-22.065606" lon="-45.542537">
        <ele>866.408</ele>
        <time>2019-10-15T17:40:22Z</time>
      </trkpt>
      <trkpt lat="-22.065535" lon="-45.542554">
        <ele>866.955</ele>
        <time>2019-10-15T17:40:43Z</time>
      </trkpt>
      <trkpt lat="-22.065458" lon="-45.542572">
        <ele>867.053</ele>
        <time>2019-10-15T17:41:03Z</time>
      </trkpt>
      <trkpt lat="-22.065510" lon="-45.542648">
        <ele>867.146</ele>
        <time>2019-10-15T17:41:23Z</time>
      </trkpt>
      <trkpt lat="-22.065534" lon="-45.542715">
        <ele>867.241</ele>
        <time>2019-10-15T17:42:03Z</time>
      </trkpt>
      <trkpt lat="-22.065527" lon="-45.542648">
        <ele>867.161</ele>
        <time>2019-10-15T17:42:43Z</time>
      </trkpt>
      <trkpt lat="-22.065535" lon="-45.542565">
        <ele>867.341</ele>
        <time>2019-10-15T17:44:14Z</time>
      </trkpt>
      <trkpt lat="-22.065489" lon="-45.542551">
        <ele>867.136</ele>
        <time>2019-10-15T17:45:04Z</time>
      </trkpt>
      <trkpt lat="-22.065485" lon="-45.542600">
        <ele>867.165</ele>
        <time>2019-10-15T17:45:34Z</time>
      </trkpt>
      <trkpt lat="-22.065442" lon="-45.542632">
        <ele>868.065</ele>
        <time>2019-10-15T17:49:15Z</time>
      </trkpt>
      <trkpt lat="-22.065487" lon="-45.542606">
        <ele>867.968</ele>
        <time>2019-10-15T17:50:05Z</time>
      </trkpt>
      <trkpt lat="-22.065469" lon="-45.542651">
        <ele>868.914</ele>
        <time>2019-10-15T17:52:26Z</time>
      </trkpt>
      <trkpt lat="-22.065515" lon="-45.542650">
        <ele>869.008</ele>
        <time>2019-10-15T17:52:58Z</time>
      </trkpt>
      <trkpt lat="-22.065485" lon="-45.542580">
        <ele>868.930</ele>
        <time>2019-10-15T17:58:47Z</time>
      </trkpt>
      <trkpt lat="-22.065525" lon="-45.542653">
        <ele>868.828</ele>
        <time>2019-10-15T18:00:08Z</time>
      </trkpt>
      <trkpt lat="-22.065493" lon="-45.542603">
        <ele>869.271</ele>
        <time>2019-10-15T18:01:28Z</time>
      </trkpt>
      <trkpt lat="-22.065567" lon="-45.542524">
        <ele>869.286</ele>
        <time>2019-10-15T18:02:19Z</time>
      </trkpt>
      <trkpt lat="-22.065731" lon="-45.542479">
        <ele>869.736</ele>
        <time>2019-10-15T18:02:29Z</time>
      </trkpt>
      <trkpt lat="-22.065632" lon="-45.542499">
        <ele>869.596</ele>
        <time>2019-10-15T18:02:39Z</time>
      </trkpt>
      <trkpt lat="-22.065614" lon="-45.542497">
        <ele>869.581</ele>
        <time>2019-10-15T17:58:01Z</time>
      </trkpt>
      <trkpt lat="-22.065570" lon="-45.542523">
        <ele>869.280</ele>
        <time>2019-10-15T17:58:14Z</time>
      </trkpt>
      <trkpt lat="-22.065535" lon="-45.542559">
        <ele>869.475</ele>
        <time>2019-10-15T17:58:19Z</time>
      </trkpt>
      <trkpt lat="-22.065530" lon="-45.542607">
        <ele>870.528</ele>
        <time>2019-10-15T18:09:21Z</time>
      </trkpt>
      <trkpt lat="-22.065488" lon="-45.542657">
        <ele>871.420</ele>
        <time>2019-10-15T18:14:13Z</time>
      </trkpt>
      <trkpt lat="-22.065492" lon="-45.542692">
        <ele>871.308</ele>
        <time>2019-10-15T18:09:38Z</time>
      </trkpt>
      <trkpt lat="-22.065484" lon="-45.542746">
        <ele>871.651</ele>
        <time>2019-10-15T18:09:48Z</time>
      </trkpt>
      <trkpt lat="-22.065498" lon="-45.542795">
        <ele>871.659</ele>
        <time>2019-10-15T18:09:56Z</time>
      </trkpt>
      <trkpt lat="-22.065512" lon="-45.542748">
        <ele>871.312</ele>
        <time>2019-10-15T18:10:18Z</time>
      </trkpt>
      <trkpt lat="-22.065525" lon="-45.542700">
        <ele>871.217</ele>
        <time>2019-10-15T18:11:04Z</time>
      </trkpt>
      <trkpt lat="-22.065502" lon="-45.542656">
        <ele>871.057</ele>
        <time>2019-10-15T18:11:38Z</time>
      </trkpt>
      <trkpt lat="-22.065465" lon="-45.542620">
        <ele>871.347</ele>
        <time>2019-10-15T18:13:24Z</time>
      </trkpt>
      <trkpt lat="-22.065507" lon="-45.542640">
        <ele>871.452</ele>
        <time>2019-10-15T18:15:11Z</time>
      </trkpt>
      <trkpt lat="-22.065508" lon="-45.542585">
        <ele>872.251</ele>
        <time>2019-10-15T18:17:36Z</time>
      </trkpt>
      <trkpt lat="-22.065498" lon="-45.542536">
        <ele>872.062</ele>
        <time>2019-10-15T18:17:42Z</time>
      </trkpt>
      <trkpt lat="-22.065473" lon="-45.542481">
        <ele>871.683</ele>
        <time>2019-10-15T18:22:57Z</time>
      </trkpt>
      <trkpt lat="-22.065426" lon="-45.542454">
        <ele>871.211</ele>
        <time>2019-10-15T18:23:00Z</time>
      </trkpt>
      <trkpt lat="-22.065372" lon="-45.542467">
        <ele>870.608</ele>
        <time>2019-10-15T18:23:02Z</time>
      </trkpt>
      <trkpt lat="-22.065320" lon="-45.542488">
        <ele>870.280</ele>
        <time>2019-10-15T18:23:04Z</time>
      </trkpt>
      <trkpt lat="-22.065252" lon="-45.542509">
        <ele>869.958</ele>
        <time>2019-10-15T18:23:07Z</time>
      </trkpt>
      <trkpt lat="-22.065199" lon="-45.542525">
        <ele>869.591</ele>
        <time>2019-10-15T18:23:09Z</time>
      </trkpt>
      <trkpt lat="-22.065153" lon="-45.542543">
        <ele>868.816</ele>
        <time>2019-10-15T18:23:11Z</time>
      </trkpt>
      <trkpt lat="-22.065107" lon="-45.542556">
        <ele>868.186</ele>
        <time>2019-10-15T18:23:12Z</time>
      </trkpt>
      <trkpt lat="-22.065047" lon="-45.542569">
        <ele>867.646</ele>
        <time>2019-10-15T18:23:14Z</time>
      </trkpt>
      <trkpt lat="-22.064631" lon="-45.542693">
        <ele>863.631</ele>
        <time>2019-10-15T18:23:22Z</time>
      </trkpt>
      <trkpt lat="-22.064585" lon="-45.542718">
        <ele>863.370</ele>
        <time>2019-10-15T18:23:24Z</time>
      </trkpt>
      <trkpt lat="-22.064549" lon="-45.542751">
        <ele>863.438</ele>
        <time>2019-10-15T18:23:28Z</time>
      </trkpt>
      <trkpt lat="-22.064562" lon="-45.542700">
        <ele>864.170</ele>
        <time>2019-10-15T18:28:04Z</time>
      </trkpt>
      <trkpt lat="-22.064615" lon="-45.542687">
        <ele>864.817</ele>
        <time>2019-10-15T18:28:12Z</time>
      </trkpt>
      <trkpt lat="-22.064662" lon="-45.542676">
        <ele>865.208</ele>
        <time>2019-10-15T18:28:15Z</time>
      </trkpt>
      <trkpt lat="-22.064708" lon="-45.542669">
        <ele>865.677</ele>
        <time>2019-10-15T18:28:20Z</time>
      </trkpt>
      <trkpt lat="-22.064761" lon="-45.542663">
        <ele>865.975</ele>
        <time>2019-10-15T18:28:23Z</time>
      </trkpt>
      <trkpt lat="-22.064812" lon="-45.542646">
        <ele>866.378</ele>
        <time>2019-10-15T18:28:27Z</time>
      </trkpt>
      <trkpt lat="-22.064862" lon="-45.542622">
        <ele>866.773</ele>
        <time>2019-10-15T18:28:32Z</time>
      </trkpt>
      <trkpt lat="-22.064913" lon="-45.542604">
        <ele>867.353</ele>
        <time>2019-10-15T18:28:39Z</time>
      </trkpt>
      <trkpt lat="-22.064959" lon="-45.542598">
        <ele>867.663</ele>
        <time>2019-10-15T18:28:45Z</time>
      </trkpt>
      <trkpt lat="-22.065007" lon="-45.542589">
        <ele>867.938</ele>
        <time>2019-10-15T18:28:49Z</time>
      </trkpt>
      <trkpt lat="-22.065050" lon="-45.542568">
        <ele>868.537</ele>
        <time>2019-10-15T18:28:52Z</time>
      </trkpt>
      <trkpt lat="-22.065096" lon="-45.542550">
        <ele>868.729</ele>
        <time>2019-10-15T18:28:56Z</time>
      </trkpt>
      <trkpt lat="-22.065149" lon="-45.542538">
        <ele>869.000</ele>
        <time>2019-10-15T18:29:00Z</time>
      </trkpt>
      <trkpt lat="-22.065201" lon="-45.542527">
        <ele>869.920</ele>
        <time>2019-10-15T18:29:05Z</time>
      </trkpt>
      <trkpt lat="-22.065255" lon="-45.542515">
        <ele>870.208</ele>
        <time>2019-10-15T18:29:10Z</time>
      </trkpt>
      <trkpt lat="-22.065302" lon="-45.542500">
        <ele>870.726</ele>
        <time>2019-10-15T18:29:19Z</time>
      </trkpt>
      <trkpt lat="-22.065349" lon="-45.542479">
        <ele>870.894</ele>
        <time>2019-10-15T18:29:22Z</time>
      </trkpt>
      <trkpt lat="-22.065395" lon="-45.542472">
        <ele>871.077</ele>
        <time>2019-10-15T18:29:25Z</time>
      </trkpt>
      <trkpt lat="-22.065440" lon="-45.542464">
        <ele>871.452</ele>
        <time>2019-10-15T18:29:30Z</time>
      </trkpt>
      <trkpt lat="-22.065497" lon="-45.542448">
        <ele>871.972</ele>
        <time>2019-10-15T18:29:35Z</time>
      </trkpt>
      <trkpt lat="-22.065547" lon="-45.542431">
        <ele>872.672</ele>
        <time>2019-10-15T18:29:40Z</time>
      </trkpt>
      <trkpt lat="-22.065595" lon="-45.542423">
        <ele>873.137</ele>
        <time>2019-10-15T18:29:46Z</time>
      </trkpt>
      <trkpt lat="-22.065653" lon="-45.542415">
        <ele>873.576</ele>
        <time>2019-10-15T18:29:52Z</time>
      </trkpt>
      <trkpt lat="-22.065703" lon="-45.542405">
        <ele>873.876</ele>
        <time>2019-10-15T18:29:56Z</time>
      </trkpt>
      <trkpt lat="-22.065764" lon="-45.542390">
        <ele>874.390</ele>
        <time>2019-10-15T18:30:01Z</time>
      </trkpt>
      <trkpt lat="-22.065811" lon="-45.542377">
        <ele>874.619</ele>
        <time>2019-10-15T18:30:05Z</time>
      </trkpt>
      <trkpt lat="-22.065864" lon="-45.542365">
        <ele>875.408</ele>
        <time>2019-10-15T18:30:09Z</time>
      </trkpt>
      <trkpt lat="-22.065912" lon="-45.542358">
        <ele>875.681</ele>
        <time>2019-10-15T18:30:13Z</time>
      </trkpt>
      <trkpt lat="-22.065957" lon="-45.542351">
        <ele>876.089</ele>
        <time>2019-10-15T18:30:17Z</time>
      </trkpt>
      <trkpt lat="-22.066004" lon="-45.542335">
        <ele>876.722</ele>
        <time>2019-10-15T18:30:21Z</time>
      </trkpt>
      <trkpt lat="-22.066050" lon="-45.542323">
        <ele>876.897</ele>
        <time>2019-10-15T18:30:24Z</time>
      </trkpt>
      <trkpt lat="-22.066094" lon="-45.542309">
        <ele>877.367</ele>
        <time>2019-10-15T18:30:29Z</time>
      </trkpt>
      <trkpt lat="-22.066139" lon="-45.542297">
        <ele>877.647</ele>
        <time>2019-10-15T18:30:33Z</time>
      </trkpt>
      <trkpt lat="-22.066188" lon="-45.542286">
        <ele>877.952</ele>
        <time>2019-10-15T18:30:37Z</time>
      </trkpt>
      <trkpt lat="-22.066236" lon="-45.542275">
        <ele>878.421</ele>
        <time>2019-10-15T18:30:41Z</time>
      </trkpt>
      <trkpt lat="-22.066292" lon="-45.542258">
        <ele>878.743</ele>
        <time>2019-10-15T18:30:45Z</time>
      </trkpt>
      <trkpt lat="-22.066348" lon="-45.542230">
        <ele>879.164</ele>
        <time>2019-10-15T18:30:47Z</time>
      </trkpt>
      <trkpt lat="-22.066398" lon="-45.542218">
        <ele>879.810</ele>
        <time>2019-10-15T18:30:52Z</time>
      </trkpt>
      <trkpt lat="-22.066462" lon="-45.542208">
        <ele>880.508</ele>
        <time>2019-10-15T18:30:57Z</time>
      </trkpt>
      <trkpt lat="-22.066518" lon="-45.542211">
        <ele>881.088</ele>
        <time>2019-10-15T18:31:02Z</time>
      </trkpt>
      <trkpt lat="-22.066563" lon="-45.542262">
        <ele>880.636</ele>
        <time>2019-10-15T18:31:05Z</time>
      </trkpt>
      <trkpt lat="-22.066592" lon="-45.542317">
        <ele>880.739</ele>
        <time>2019-10-15T18:31:08Z</time>
      </trkpt>
      <trkpt lat="-22.066628" lon="-45.542358">
        <ele>880.044</ele>
        <time>2019-10-15T18:31:11Z</time>
      </trkpt>
      <trkpt lat="-22.066669" lon="-45.542388">
        <ele>880.064</ele>
        <time>2019-10-15T18:31:13Z</time>
      </trkpt>
      <trkpt lat="-22.066723" lon="-45.542395">
        <ele>881.344</ele>
        <time>2019-10-15T18:31:17Z</time>
      </trkpt>
      <trkpt lat="-22.066773" lon="-45.542393">
        <ele>881.929</ele>
        <time>2019-10-15T18:31:22Z</time>
      </trkpt>
      <trkpt lat="-22.066816" lon="-45.542370">
        <ele>882.788</ele>
        <time>2019-10-15T18:31:27Z</time>
      </trkpt>
      <trkpt lat="-22.066863" lon="-45.542350">
        <ele>883.152</ele>
        <time>2019-10-15T18:31:31Z</time>
      </trkpt>
      <trkpt lat="-22.066901" lon="-45.542287">
        <ele>884.153</ele>
        <time>2019-10-15T18:31:36Z</time>
      </trkpt>
      <trkpt lat="-22.066956" lon="-45.542276">
        <ele>884.408</ele>
        <time>2019-10-15T18:31:41Z</time>
      </trkpt>
      <trkpt lat="-22.067003" lon="-45.542235">
        <ele>885.408</ele>
        <time>2019-10-15T18:31:46Z</time>
      </trkpt>
      <trkpt lat="-22.067050" lon="-45.542235">
        <ele>885.679</ele>
        <time>2019-10-15T18:31:50Z</time>
      </trkpt>
      <trkpt lat="-22.067106" lon="-45.542233">
        <ele>886.497</ele>
        <time>2019-10-15T18:31:53Z</time>
      </trkpt>
      <trkpt lat="-22.067153" lon="-45.542223">
        <ele>886.720</ele>
        <time>2019-10-15T18:31:57Z</time>
      </trkpt>
      <trkpt lat="-22.067198" lon="-45.542230">
        <ele>887.295</ele>
        <time>2019-10-15T18:32:00Z</time>
      </trkpt>
      <trkpt lat="-22.067245" lon="-45.542241">
        <ele>887.355</ele>
        <time>2019-10-15T18:32:03Z</time>
      </trkpt>
      <trkpt lat="-22.067296" lon="-45.542234">
        <ele>887.785</ele>
        <time>2019-10-15T18:32:07Z</time>
      </trkpt>
      <trkpt lat="-22.067350" lon="-45.542242">
        <ele>888.110</ele>
        <time>2019-10-15T18:32:11Z</time>
      </trkpt>
      <trkpt lat="-22.067400" lon="-45.542242">
        <ele>888.159</ele>
        <time>2019-10-15T18:32:14Z</time>
      </trkpt>
      <trkpt lat="-22.067462" lon="-45.542225">
        <ele>888.531</ele>
        <time>2019-10-15T18:32:16Z</time>
      </trkpt>
      <trkpt lat="-22.067507" lon="-45.542213">
        <ele>888.761</ele>
        <time>2019-10-15T18:32:20Z</time>
      </trkpt>
      <trkpt lat="-22.067557" lon="-45.542203">
        <ele>889.007</ele>
        <time>2019-10-15T18:32:25Z</time>
      </trkpt>
      <trkpt lat="-22.067605" lon="-45.542190">
        <ele>889.308</ele>
        <time>2019-10-15T18:32:27Z</time>
      </trkpt>
      <trkpt lat="-22.067661" lon="-45.542166">
        <ele>889.357</ele>
        <time>2019-10-15T18:32:30Z</time>
      </trkpt>
      <trkpt lat="-22.067710" lon="-45.542135">
        <ele>889.625</ele>
        <time>2019-10-15T18:32:34Z</time>
      </trkpt>
      <trkpt lat="-22.067767" lon="-45.542110">
        <ele>890.178</ele>
        <time>2019-10-15T18:32:38Z</time>
      </trkpt>
      <trkpt lat="-22.067815" lon="-45.542083">
        <ele>890.043</ele>
        <time>2019-10-15T18:32:42Z</time>
      </trkpt>
      <trkpt lat="-22.067860" lon="-45.542066">
        <ele>890.223</ele>
        <time>2019-10-15T18:32:45Z</time>
      </trkpt>
      <trkpt lat="-22.067916" lon="-45.542056">
        <ele>890.933</ele>
        <time>2019-10-15T18:32:50Z</time>
      </trkpt>
      <trkpt lat="-22.067973" lon="-45.542055">
        <ele>891.338</ele>
        <time>2019-10-15T18:32:56Z</time>
      </trkpt>
      <trkpt lat="-22.068029" lon="-45.542057">
        <ele>891.277</ele>
        <time>2019-10-15T18:32:58Z</time>
      </trkpt>
      <trkpt lat="-22.068080" lon="-45.542050">
        <ele>891.224</ele>
        <time>2019-10-15T18:33:00Z</time>
      </trkpt>
      <trkpt lat="-22.068116" lon="-45.541994">
        <ele>891.704</ele>
        <time>2019-10-15T18:33:04Z</time>
      </trkpt>
      <trkpt lat="-22.068119" lon="-45.541933">
        <ele>892.014</ele>
        <time>2019-10-15T18:33:07Z</time>
      </trkpt>
      <trkpt lat="-22.068131" lon="-45.541883">
        <ele>892.208</ele>
        <time>2019-10-15T18:33:11Z</time>
      </trkpt>
      <trkpt lat="-22.068143" lon="-45.541835">
        <ele>892.536</ele>
        <time>2019-10-15T18:33:13Z</time>
      </trkpt>
      <trkpt lat="-22.068178" lon="-45.541797">
        <ele>892.634</ele>
        <time>2019-10-15T18:33:17Z</time>
      </trkpt>
      <trkpt lat="-22.068219" lon="-45.541762">
        <ele>893.147</ele>
        <time>2019-10-15T18:33:20Z</time>
      </trkpt>
      <trkpt lat="-22.068261" lon="-45.541733">
        <ele>893.412</ele>
        <time>2019-10-15T18:33:23Z</time>
      </trkpt>
      <trkpt lat="-22.068300" lon="-45.541705">
        <ele>893.772</ele>
        <time>2019-10-15T18:33:26Z</time>
      </trkpt>
      <trkpt lat="-22.068337" lon="-45.541665">
        <ele>894.552</ele>
        <time>2019-10-15T18:33:29Z</time>
      </trkpt>
      <trkpt lat="-22.068387" lon="-45.541612">
        <ele>895.017</ele>
        <time>2019-10-15T18:33:34Z</time>
      </trkpt>
      <trkpt lat="-22.068425" lon="-45.541569">
        <ele>895.226</ele>
        <time>2019-10-15T18:33:37Z</time>
      </trkpt>
      <trkpt lat="-22.068455" lon="-45.541524">
        <ele>895.874</ele>
        <time>2019-10-15T18:33:42Z</time>
      </trkpt>
      <trkpt lat="-22.068477" lon="-45.541471">
        <ele>896.256</ele>
        <time>2019-10-15T18:33:45Z</time>
      </trkpt>
      <trkpt lat="-22.068492" lon="-45.541419">
        <ele>897.121</ele>
        <time>2019-10-15T18:33:48Z</time>
      </trkpt>
      <trkpt lat="-22.068490" lon="-45.541362">
        <ele>897.308</ele>
        <time>2019-10-15T18:33:51Z</time>
      </trkpt>
      <trkpt lat="-22.068480" lon="-45.541301">
        <ele>897.631</ele>
        <time>2019-10-15T18:33:55Z</time>
      </trkpt>
      <trkpt lat="-22.068464" lon="-45.541236">
        <ele>897.839</ele>
        <time>2019-10-15T18:33:59Z</time>
      </trkpt>
      <trkpt lat="-22.068453" lon="-45.541174">
        <ele>898.122</ele>
        <time>2019-10-15T18:34:03Z</time>
      </trkpt>
      <trkpt lat="-22.068436" lon="-45.541127">
        <ele>897.827</ele>
        <time>2019-10-15T18:34:06Z</time>
      </trkpt>
      <trkpt lat="-22.068426" lon="-45.541056">
        <ele>898.287</ele>
        <time>2019-10-15T18:34:09Z</time>
      </trkpt>
      <trkpt lat="-22.068418" lon="-45.541007">
        <ele>898.437</ele>
        <time>2019-10-15T18:34:11Z</time>
      </trkpt>
      <trkpt lat="-22.068435" lon="-45.540948">
        <ele>898.282</ele>
        <time>2019-10-15T18:34:15Z</time>
      </trkpt>
      <trkpt lat="-22.068484" lon="-45.540917">
        <ele>898.861</ele>
        <time>2019-10-15T18:34:19Z</time>
      </trkpt>
      <trkpt lat="-22.068532" lon="-45.540908">
        <ele>899.118</ele>
        <time>2019-10-15T18:34:21Z</time>
      </trkpt>
      <trkpt lat="-22.068636" lon="-45.540880">
        <ele>900.198</ele>
        <time>2019-10-15T18:34:30Z</time>
      </trkpt>
      <trkpt lat="-22.068687" lon="-45.540900">
        <ele>901.217</ele>
        <time>2019-10-15T18:34:39Z</time>
      </trkpt>
      <trkpt lat="-22.068737" lon="-45.540903">
        <ele>901.708</ele>
        <time>2019-10-15T18:34:42Z</time>
      </trkpt>
      <trkpt lat="-22.068791" lon="-45.540893">
        <ele>902.185</ele>
        <time>2019-10-15T18:34:47Z</time>
      </trkpt>
      <trkpt lat="-22.068836" lon="-45.540876">
        <ele>902.433</ele>
        <time>2019-10-15T18:34:50Z</time>
      </trkpt>
      <trkpt lat="-22.068875" lon="-45.540848">
        <ele>902.956</ele>
        <time>2019-10-15T18:34:55Z</time>
      </trkpt>
      <trkpt lat="-22.068919" lon="-45.540832">
        <ele>903.311</ele>
        <time>2019-10-15T18:34:59Z</time>
      </trkpt>
      <trkpt lat="-22.068963" lon="-45.540809">
        <ele>904.341</ele>
        <time>2019-10-15T18:35:04Z</time>
      </trkpt>
      <trkpt lat="-22.069010" lon="-45.540794">
        <ele>905.061</ele>
        <time>2019-10-15T18:35:09Z</time>
      </trkpt>
      <trkpt lat="-22.069056" lon="-45.540796">
        <ele>905.396</ele>
        <time>2019-10-15T18:35:13Z</time>
      </trkpt>
      <trkpt lat="-22.069104" lon="-45.540817">
        <ele>905.565</ele>
        <time>2019-10-15T18:35:18Z</time>
      </trkpt>
      <trkpt lat="-22.069151" lon="-45.540816">
        <ele>906.034</ele>
        <time>2019-10-15T18:35:22Z</time>
      </trkpt>
      <trkpt lat="-22.069197" lon="-45.540806">
        <ele>906.655</ele>
        <time>2019-10-15T18:35:28Z</time>
      </trkpt>
      <trkpt lat="-22.069240" lon="-45.540789">
        <ele>907.010</ele>
        <time>2019-10-15T18:35:32Z</time>
      </trkpt>
      <trkpt lat="-22.069283" lon="-45.540773">
        <ele>907.608</ele>
        <time>2019-10-15T18:35:36Z</time>
      </trkpt>
      <trkpt lat="-22.069330" lon="-45.540762">
        <ele>908.027</ele>
        <time>2019-10-15T18:35:40Z</time>
      </trkpt>
      <trkpt lat="-22.069377" lon="-45.540746">
        <ele>909.015</ele>
        <time>2019-10-15T18:35:45Z</time>
      </trkpt>
      <trkpt lat="-22.069425" lon="-45.540740">
        <ele>909.448</ele>
        <time>2019-10-15T18:35:50Z</time>
      </trkpt>
      <trkpt lat="-22.069472" lon="-45.540733">
        <ele>910.043</ele>
        <time>2019-10-15T18:35:54Z</time>
      </trkpt>
      <trkpt lat="-22.069520" lon="-45.540735">
        <ele>910.693</ele>
        <time>2019-10-15T18:35:59Z</time>
      </trkpt>
      <trkpt lat="-22.069566" lon="-45.540730">
        <ele>911.113</ele>
        <time>2019-10-15T18:36:03Z</time>
      </trkpt>
      <trkpt lat="-22.069611" lon="-45.540715">
        <ele>911.418</ele>
        <time>2019-10-15T18:36:07Z</time>
      </trkpt>
      <trkpt lat="-22.069680" lon="-45.540702">
        <ele>911.277</ele>
        <time>2019-10-15T18:36:12Z</time>
      </trkpt>
      <trkpt lat="-22.069743" lon="-45.540697">
        <ele>911.642</ele>
        <time>2019-10-15T18:36:15Z</time>
      </trkpt>
      <trkpt lat="-22.069797" lon="-45.540683">
        <ele>912.322</ele>
        <time>2019-10-15T18:36:20Z</time>
      </trkpt>
      <trkpt lat="-22.069847" lon="-45.540668">
        <ele>913.214</ele>
        <time>2019-10-15T18:36:27Z</time>
      </trkpt>
      <trkpt lat="-22.069896" lon="-45.540654">
        <ele>914.108</ele>
        <time>2019-10-15T18:36:33Z</time>
      </trkpt>
      <trkpt lat="-22.069942" lon="-45.540645">
        <ele>914.848</ele>
        <time>2019-10-15T18:36:38Z</time>
      </trkpt>
      <trkpt lat="-22.070028" lon="-45.540626">
        <ele>915.766</ele>
        <time>2019-10-15T18:36:46Z</time>
      </trkpt>
      <trkpt lat="-22.070086" lon="-45.540614">
        <ele>916.519</ele>
        <time>2019-10-15T18:36:53Z</time>
      </trkpt>
      <trkpt lat="-22.070134" lon="-45.540608">
        <ele>917.054</ele>
        <time>2019-10-15T18:36:58Z</time>
      </trkpt>
      <trkpt lat="-22.070187" lon="-45.540601">
        <ele>917.274</ele>
        <time>2019-10-15T18:37:02Z</time>
      </trkpt>
      <trkpt lat="-22.070280" lon="-45.540573">
        <ele>918.464</ele>
        <time>2019-10-15T18:37:10Z</time>
      </trkpt>
      <trkpt lat="-22.070338" lon="-45.540565">
        <ele>918.889</ele>
        <time>2019-10-15T18:37:14Z</time>
      </trkpt>
      <trkpt lat="-22.070389" lon="-45.540555">
        <ele>919.078</ele>
        <time>2019-10-15T18:37:16Z</time>
      </trkpt>
      <trkpt lat="-22.070435" lon="-45.540548">
        <ele>919.232</ele>
        <time>2019-10-15T18:37:21Z</time>
      </trkpt>
      <trkpt lat="-22.070500" lon="-45.540494">
        <ele>919.592</ele>
        <time>2019-10-15T18:37:25Z</time>
      </trkpt>
      <trkpt lat="-22.070535" lon="-45.540460">
        <ele>919.911</ele>
        <time>2019-10-15T18:37:28Z</time>
      </trkpt>
      <trkpt lat="-22.070518" lon="-45.540303">
        <ele>920.608</ele>
        <time>2019-10-15T18:37:39Z</time>
      </trkpt>
      <trkpt lat="-22.070508" lon="-45.540178">
        <ele>921.177</ele>
        <time>2019-10-15T18:37:46Z</time>
      </trkpt>
      <trkpt lat="-22.070501" lon="-45.540101">
        <ele>921.465</ele>
        <time>2019-10-15T18:37:49Z</time>
      </trkpt>
      <trkpt lat="-22.070496" lon="-45.540027">
        <ele>921.488</ele>
        <time>2019-10-15T18:37:53Z</time>
      </trkpt>
      <trkpt lat="-22.070489" lon="-45.539946">
        <ele>921.843</ele>
        <time>2019-10-15T18:37:57Z</time>
      </trkpt>
      <trkpt lat="-22.070475" lon="-45.539813">
        <ele>922.173</ele>
        <time>2019-10-15T18:38:03Z</time>
      </trkpt>
      <trkpt lat="-22.070451" lon="-45.539586">
        <ele>922.723</ele>
        <time>2019-10-15T18:38:14Z</time>
      </trkpt>
      <trkpt lat="-22.070465" lon="-45.539523">
        <ele>923.148</ele>
        <time>2019-10-15T18:38:17Z</time>
      </trkpt>
      <trkpt lat="-22.070505" lon="-45.539496">
        <ele>923.437</ele>
        <time>2019-10-15T18:38:19Z</time>
      </trkpt>
      <trkpt lat="-22.070565" lon="-45.539482">
        <ele>923.522</ele>
        <time>2019-10-15T18:38:21Z</time>
      </trkpt>
      <trkpt lat="-22.070617" lon="-45.539470">
        <ele>923.862</ele>
        <time>2019-10-15T18:38:24Z</time>
      </trkpt>
      <trkpt lat="-22.070659" lon="-45.539451">
        <ele>924.108</ele>
        <time>2019-10-15T18:38:27Z</time>
      </trkpt>
      <trkpt lat="-22.070708" lon="-45.539428">
        <ele>924.508</ele>
        <time>2019-10-15T18:38:30Z</time>
      </trkpt>
      <trkpt lat="-22.070774" lon="-45.539395">
        <ele>924.626</ele>
        <time>2019-10-15T18:38:34Z</time>
      </trkpt>
      <trkpt lat="-22.070814" lon="-45.539366">
        <ele>924.384</ele>
        <time>2019-10-15T18:38:38Z</time>
      </trkpt>
      <trkpt lat="-22.070860" lon="-45.539362">
        <ele>924.537</ele>
        <time>2019-10-15T18:38:41Z</time>
      </trkpt>
      <trkpt lat="-22.070911" lon="-45.539358">
        <ele>924.212</ele>
        <time>2019-10-15T18:38:43Z</time>
      </trkpt>
      <trkpt lat="-22.070963" lon="-45.539361">
        <ele>924.132</ele>
        <time>2019-10-15T18:38:46Z</time>
      </trkpt>
      <trkpt lat="-22.071023" lon="-45.539353">
        <ele>923.862</ele>
        <time>2019-10-15T18:38:50Z</time>
      </trkpt>
      <trkpt lat="-22.071067" lon="-45.539344">
        <ele>923.477</ele>
        <time>2019-10-15T18:38:52Z</time>
      </trkpt>
      <trkpt lat="-22.071112" lon="-45.539347">
        <ele>923.196</ele>
        <time>2019-10-15T18:38:54Z</time>
      </trkpt>
      <trkpt lat="-22.071180" lon="-45.539340">
        <ele>922.547</ele>
        <time>2019-10-15T18:38:56Z</time>
      </trkpt>
      <trkpt lat="-22.073153" lon="-45.539156">
        <ele>916.429</ele>
        <time>2019-10-15T18:39:31Z</time>
      </trkpt>
      <trkpt lat="-22.073217" lon="-45.539137">
        <ele>916.621</ele>
        <time>2019-10-15T18:39:35Z</time>
      </trkpt>
      <trkpt lat="-22.073278" lon="-45.539124">
        <ele>916.708</ele>
        <time>2019-10-15T18:39:37Z</time>
      </trkpt>
      <trkpt lat="-22.073338" lon="-45.539102">
        <ele>916.848</ele>
        <time>2019-10-15T18:39:40Z</time>
      </trkpt>
      <trkpt lat="-22.073392" lon="-45.539082">
        <ele>916.826</ele>
        <time>2019-10-15T18:39:42Z</time>
      </trkpt>
      <trkpt lat="-22.073444" lon="-45.539079">
        <ele>917.059</ele>
        <time>2019-10-15T18:39:45Z</time>
      </trkpt>
      <trkpt lat="-22.073503" lon="-45.539076">
        <ele>916.224</ele>
        <time>2019-10-15T18:39:47Z</time>
      </trkpt>
      <trkpt lat="-22.073576" lon="-45.539070">
        <ele>916.344</ele>
        <time>2019-10-15T18:39:49Z</time>
      </trkpt>
      <trkpt lat="-22.073626" lon="-45.539063">
        <ele>915.984</ele>
        <time>2019-10-15T18:39:51Z</time>
      </trkpt>
      <trkpt lat="-22.073714" lon="-45.539056">
        <ele>915.979</ele>
        <time>2019-10-15T18:39:54Z</time>
      </trkpt>
      <trkpt lat="-22.073765" lon="-45.539052">
        <ele>915.558</ele>
        <time>2019-10-15T18:39:56Z</time>
      </trkpt>
      <trkpt lat="-22.073828" lon="-45.539046">
        <ele>915.061</ele>
        <time>2019-10-15T18:39:57Z</time>
      </trkpt>
      <trkpt lat="-22.076500" lon="-45.538639">
        <ele>911.921</ele>
        <time>2019-10-15T18:40:49Z</time>
      </trkpt>
      <trkpt lat="-22.076546" lon="-45.538635">
        <ele>912.513</ele>
        <time>2019-10-15T18:40:52Z</time>
      </trkpt>
      <trkpt lat="-22.076599" lon="-45.538635">
        <ele>912.908</ele>
        <time>2019-10-15T18:40:55Z</time>
      </trkpt>
      <trkpt lat="-22.076645" lon="-45.538632">
        <ele>913.420</ele>
        <time>2019-10-15T18:40:58Z</time>
      </trkpt>
      <trkpt lat="-22.076703" lon="-45.538633">
        <ele>914.358</ele>
        <time>2019-10-15T18:41:03Z</time>
      </trkpt>
      <trkpt lat="-22.076748" lon="-45.538625">
        <ele>914.951</ele>
        <time>2019-10-15T18:41:06Z</time>
      </trkpt>
      <trkpt lat="-22.076799" lon="-45.538625">
        <ele>915.526</ele>
        <time>2019-10-15T18:41:10Z</time>
      </trkpt>
      <trkpt lat="-22.076876" lon="-45.538623">
        <ele>916.376</ele>
        <time>2019-10-15T18:41:15Z</time>
      </trkpt>
      <trkpt lat="-22.076931" lon="-45.538617">
        <ele>916.866</ele>
        <time>2019-10-15T18:41:19Z</time>
      </trkpt>
      <trkpt lat="-22.076976" lon="-45.538612">
        <ele>917.551</ele>
        <time>2019-10-15T18:41:23Z</time>
      </trkpt>
      <trkpt lat="-22.077028" lon="-45.538603">
        <ele>917.880</ele>
        <time>2019-10-15T18:41:26Z</time>
      </trkpt>
      <trkpt lat="-22.077085" lon="-45.538591">
        <ele>918.248</ele>
        <time>2019-10-15T18:41:31Z</time>
      </trkpt>
      <trkpt lat="-22.077141" lon="-45.538560">
        <ele>919.061</ele>
        <time>2019-10-15T18:41:35Z</time>
      </trkpt>
      <trkpt lat="-22.077187" lon="-45.538547">
        <ele>919.217</ele>
        <time>2019-10-15T18:41:38Z</time>
      </trkpt>
      <trkpt lat="-22.077239" lon="-45.538536">
        <ele>919.608</ele>
        <time>2019-10-15T18:41:44Z</time>
      </trkpt>
      <trkpt lat="-22.077290" lon="-45.538519">
        <ele>920.518</ele>
        <time>2019-10-15T18:41:52Z</time>
      </trkpt>
      <trkpt lat="-22.077335" lon="-45.538490">
        <ele>921.286</ele>
        <time>2019-10-15T18:41:57Z</time>
      </trkpt>
      <trkpt lat="-22.077386" lon="-45.538457">
        <ele>921.289</ele>
        <time>2019-10-15T18:42:00Z</time>
      </trkpt>
      <trkpt lat="-22.077439" lon="-45.538424">
        <ele>921.384</ele>
        <time>2019-10-15T18:42:02Z</time>
      </trkpt>
      <trkpt lat="-22.077480" lon="-45.538389">
        <ele>921.694</ele>
        <time>2019-10-15T18:42:04Z</time>
      </trkpt>
      <trkpt lat="-22.077524" lon="-45.538354">
        <ele>922.224</ele>
        <time>2019-10-15T18:42:07Z</time>
      </trkpt>
      <trkpt lat="-22.077568" lon="-45.538322">
        <ele>922.969</ele>
        <time>2019-10-15T18:42:11Z</time>
      </trkpt>
      <trkpt lat="-22.077625" lon="-45.538251">
        <ele>924.368</ele>
        <time>2019-10-15T18:42:24Z</time>
      </trkpt>
      <trkpt lat="-22.077656" lon="-45.538198">
        <ele>924.846</ele>
        <time>2019-10-15T18:42:29Z</time>
      </trkpt>
      <trkpt lat="-22.077687" lon="-45.538117">
        <ele>925.688</ele>
        <time>2019-10-15T18:42:35Z</time>
      </trkpt>
      <trkpt lat="-22.077702" lon="-45.538067">
        <ele>926.116</ele>
        <time>2019-10-15T18:42:39Z</time>
      </trkpt>
      <trkpt lat="-22.077754" lon="-45.537970">
        <ele>927.108</ele>
        <time>2019-10-15T18:42:45Z</time>
      </trkpt>
      <trkpt lat="-22.077779" lon="-45.537915">
        <ele>927.368</ele>
        <time>2019-10-15T18:42:47Z</time>
      </trkpt>
      <trkpt lat="-22.077799" lon="-45.537864">
        <ele>928.026</ele>
        <time>2019-10-15T18:42:52Z</time>
      </trkpt>
      <trkpt lat="-22.077838" lon="-45.537772">
        <ele>928.719</ele>
        <time>2019-10-15T18:43:00Z</time>
      </trkpt>
      <trkpt lat="-22.077864" lon="-45.537724">
        <ele>929.224</ele>
        <time>2019-10-15T18:43:02Z</time>
      </trkpt>
      <trkpt lat="-22.077889" lon="-45.537674">
        <ele>929.634</ele>
        <time>2019-10-15T18:43:06Z</time>
      </trkpt>
      <trkpt lat="-22.077911" lon="-45.537622">
        <ele>929.764</ele>
        <time>2019-10-15T18:43:10Z</time>
      </trkpt>
      <trkpt lat="-22.077935" lon="-45.537565">
        <ele>930.469</ele>
        <time>2019-10-15T18:43:16Z</time>
      </trkpt>
      <trkpt lat="-22.077966" lon="-45.537501">
        <ele>930.918</ele>
        <time>2019-10-15T18:43:20Z</time>
      </trkpt>
      <trkpt lat="-22.077999" lon="-45.537453">
        <ele>931.091</ele>
        <time>2019-10-15T18:43:23Z</time>
      </trkpt>
      <trkpt lat="-22.078050" lon="-45.537388">
        <ele>931.481</ele>
        <time>2019-10-15T18:43:28Z</time>
      </trkpt>
      <trkpt lat="-22.078087" lon="-45.537331">
        <ele>931.719</ele>
        <time>2019-10-15T18:43:32Z</time>
      </trkpt>
      <trkpt lat="-22.078134" lon="-45.537282">
        <ele>931.808</ele>
        <time>2019-10-15T18:43:36Z</time>
      </trkpt>
      <trkpt lat="-22.078162" lon="-45.537242">
        <ele>932.263</ele>
        <time>2019-10-15T18:43:39Z</time>
      </trkpt>
      <trkpt lat="-22.078194" lon="-45.537205">
        <ele>932.681</ele>
        <time>2019-10-15T18:43:42Z</time>
      </trkpt>
      <trkpt lat="-22.078227" lon="-45.537166">
        <ele>932.884</ele>
        <time>2019-10-15T18:43:45Z</time>
      </trkpt>
      <trkpt lat="-22.078261" lon="-45.537122">
        <ele>933.189</ele>
        <time>2019-10-15T18:43:48Z</time>
      </trkpt>
      <trkpt lat="-22.078288" lon="-45.537077">
        <ele>933.639</ele>
        <time>2019-10-15T18:43:52Z</time>
      </trkpt>
      <trkpt lat="-22.078325" lon="-45.537034">
        <ele>934.299</ele>
        <time>2019-10-15T18:43:56Z</time>
      </trkpt>
      <trkpt lat="-22.078416" lon="-45.536941">
        <ele>934.744</ele>
        <time>2019-10-15T18:44:04Z</time>
      </trkpt>
      <trkpt lat="-22.078467" lon="-45.536887">
        <ele>934.933</ele>
        <time>2019-10-15T18:44:08Z</time>
      </trkpt>
      <trkpt lat="-22.078500" lon="-45.536847">
        <ele>935.326</ele>
        <time>2019-10-15T18:44:11Z</time>
      </trkpt>
      <trkpt lat="-22.078537" lon="-45.536818">
        <ele>935.447</ele>
        <time>2019-10-15T18:44:14Z</time>
      </trkpt>
      <trkpt lat="-22.078585" lon="-45.536774">
        <ele>935.811</ele>
        <time>2019-10-15T18:44:18Z</time>
      </trkpt>
      <trkpt lat="-22.078627" lon="-45.536731">
        <ele>936.108</ele>
        <time>2019-10-15T18:44:20Z</time>
      </trkpt>
      <trkpt lat="-22.078701" lon="-45.536687">
        <ele>936.296</ele>
        <time>2019-10-15T18:44:25Z</time>
      </trkpt>
      <trkpt lat="-22.078767" lon="-45.536652">
        <ele>936.854</ele>
        <time>2019-10-15T18:44:30Z</time>
      </trkpt>
      <trkpt lat="-22.078814" lon="-45.536634">
        <ele>936.567</ele>
        <time>2019-10-15T18:44:33Z</time>
      </trkpt>
      <trkpt lat="-22.078862" lon="-45.536620">
        <ele>936.542</ele>
        <time>2019-10-15T18:44:36Z</time>
      </trkpt>
      <trkpt lat="-22.078917" lon="-45.536602">
        <ele>936.562</ele>
        <time>2019-10-15T18:44:39Z</time>
      </trkpt>
      <trkpt lat="-22.078973" lon="-45.536595">
        <ele>937.162</ele>
        <time>2019-10-15T18:44:43Z</time>
      </trkpt>
      <trkpt lat="-22.079023" lon="-45.536584">
        <ele>937.157</ele>
        <time>2019-10-15T18:44:46Z</time>
      </trkpt>
      <trkpt lat="-22.079072" lon="-45.536574">
        <ele>937.176</ele>
        <time>2019-10-15T18:44:49Z</time>
      </trkpt>
      <trkpt lat="-22.079130" lon="-45.536572">
        <ele>938.063</ele>
        <time>2019-10-15T18:44:53Z</time>
      </trkpt>
      <trkpt lat="-22.079183" lon="-45.536569">
        <ele>938.044</ele>
        <time>2019-10-15T18:44:57Z</time>
      </trkpt>
      <trkpt lat="-22.079237" lon="-45.536574">
        <ele>937.918</ele>
        <time>2019-10-15T18:45:00Z</time>
      </trkpt>
      <trkpt lat="-22.079291" lon="-45.536564">
        <ele>938.108</ele>
        <time>2019-10-15T18:45:04Z</time>
      </trkpt>
      <trkpt lat="-22.079336" lon="-45.536562">
        <ele>938.490</ele>
        <time>2019-10-15T18:45:07Z</time>
      </trkpt>
      <trkpt lat="-22.079382" lon="-45.536554">
        <ele>939.178</ele>
        <time>2019-10-15T18:45:10Z</time>
      </trkpt>
      <trkpt lat="-22.079452" lon="-45.536539">
        <ele>939.951</ele>
        <time>2019-10-15T18:45:17Z</time>
      </trkpt>
      <trkpt lat="-22.079503" lon="-45.536530">
        <ele>941.156</ele>
        <time>2019-10-15T18:45:22Z</time>
      </trkpt>
      <trkpt lat="-22.079551" lon="-45.536515">
        <ele>942.286</ele>
        <time>2019-10-15T18:45:29Z</time>
      </trkpt>
      <trkpt lat="-22.079615" lon="-45.536493">
        <ele>943.186</ele>
        <time>2019-10-15T18:45:35Z</time>
      </trkpt>
      <trkpt lat="-22.079658" lon="-45.536470">
        <ele>943.981</ele>
        <time>2019-10-15T18:45:39Z</time>
      </trkpt>
      <trkpt lat="-22.079705" lon="-45.536459">
        <ele>944.790</ele>
        <time>2019-10-15T18:45:44Z</time>
      </trkpt>
      <trkpt lat="-22.079754" lon="-45.536457">
        <ele>945.985</ele>
        <time>2019-10-15T18:45:48Z</time>
      </trkpt>
      <trkpt lat="-22.079810" lon="-45.536469">
        <ele>946.789</ele>
        <time>2019-10-15T18:45:55Z</time>
      </trkpt>
      <trkpt lat="-22.079854" lon="-45.536483">
        <ele>947.917</ele>
        <time>2019-10-15T18:46:00Z</time>
      </trkpt>
      <trkpt lat="-22.079899" lon="-45.536500">
        <ele>949.108</ele>
        <time>2019-10-15T18:46:08Z</time>
      </trkpt>
      <trkpt lat="-22.079953" lon="-45.536537">
        <ele>949.762</ele>
        <time>2019-10-15T18:46:15Z</time>
      </trkpt>
      <trkpt lat="-22.080002" lon="-45.536568">
        <ele>949.930</ele>
        <time>2019-10-15T18:46:20Z</time>
      </trkpt>
      <trkpt lat="-22.080053" lon="-45.536599">
        <ele>950.853</ele>
        <time>2019-10-15T18:46:26Z</time>
      </trkpt>
      <trkpt lat="-22.080098" lon="-45.536623">
        <ele>951.518</ele>
        <time>2019-10-15T18:46:32Z</time>
      </trkpt>
      <trkpt lat="-22.080162" lon="-45.536645">
        <ele>951.988</ele>
        <time>2019-10-15T18:46:38Z</time>
      </trkpt>
      <trkpt lat="-22.080206" lon="-45.536665">
        <ele>952.128</ele>
        <time>2019-10-15T18:46:43Z</time>
      </trkpt>
      <trkpt lat="-22.080250" lon="-45.536676">
        <ele>952.423</ele>
        <time>2019-10-15T18:46:48Z</time>
      </trkpt>
      <trkpt lat="-22.080305" lon="-45.536688">
        <ele>952.842</ele>
        <time>2019-10-15T18:46:54Z</time>
      </trkpt>
      <trkpt lat="-22.080389" lon="-45.536705">
        <ele>953.851</ele>
        <time>2019-10-15T18:47:02Z</time>
      </trkpt>
      <trkpt lat="-22.080440" lon="-45.536711">
        <ele>954.001</ele>
        <time>2019-10-15T18:47:07Z</time>
      </trkpt>
      <trkpt lat="-22.080522" lon="-45.536738">
        <ele>954.211</ele>
        <time>2019-10-15T18:47:11Z</time>
      </trkpt>
      <trkpt lat="-22.080578" lon="-45.536768">
        <ele>954.208</ele>
        <time>2019-10-15T18:47:13Z</time>
      </trkpt>
      <trkpt lat="-22.080631" lon="-45.536815">
        <ele>954.149</ele>
        <time>2019-10-15T18:47:17Z</time>
      </trkpt>
      <trkpt lat="-22.080659" lon="-45.536853">
        <ele>954.647</ele>
        <time>2019-10-15T18:47:21Z</time>
      </trkpt>
      <trkpt lat="-22.080683" lon="-45.536899">
        <ele>954.240</ele>
        <time>2019-10-15T18:47:24Z</time>
      </trkpt>
      <trkpt lat="-22.080695" lon="-45.536949">
        <ele>953.965</ele>
        <time>2019-10-15T18:47:26Z</time>
      </trkpt>
      <trkpt lat="-22.080703" lon="-45.537003">
        <ele>954.055</ele>
        <time>2019-10-15T18:47:28Z</time>
      </trkpt>
      <trkpt lat="-22.080710" lon="-45.537094">
        <ele>954.045</ele>
        <time>2019-10-15T18:47:33Z</time>
      </trkpt>
      <trkpt lat="-22.080714" lon="-45.537155">
        <ele>953.580</ele>
        <time>2019-10-15T18:47:37Z</time>
      </trkpt>
      <trkpt lat="-22.080725" lon="-45.537213">
        <ele>953.629</ele>
        <time>2019-10-15T18:47:40Z</time>
      </trkpt>
      <trkpt lat="-22.080755" lon="-45.537300">
        <ele>953.621</ele>
        <time>2019-10-15T18:49:13Z</time>
      </trkpt>
      <trkpt lat="-22.080782" lon="-45.537343">
        <ele>953.241</ele>
        <time>2019-10-15T18:49:16Z</time>
      </trkpt>
      <trkpt lat="-22.080845" lon="-45.537416">
        <ele>953.105</ele>
        <time>2019-10-15T18:49:19Z</time>
      </trkpt>
      <trkpt lat="-22.080892" lon="-45.537454">
        <ele>953.208</ele>
        <time>2019-10-15T18:49:20Z</time>
      </trkpt>
      <trkpt lat="-22.080935" lon="-45.537497">
        <ele>953.536</ele>
        <time>2019-10-15T18:49:23Z</time>
      </trkpt>
      <trkpt lat="-22.080982" lon="-45.537520">
        <ele>953.524</ele>
        <time>2019-10-15T18:49:25Z</time>
      </trkpt>
      <trkpt lat="-22.081056" lon="-45.537545">
        <ele>953.737</ele>
        <time>2019-10-15T18:49:28Z</time>
      </trkpt>
      <trkpt lat="-22.081110" lon="-45.537553">
        <ele>954.172</ele>
        <time>2019-10-15T18:49:31Z</time>
      </trkpt>
      <trkpt lat="-22.081165" lon="-45.537555">
        <ele>954.192</ele>
        <time>2019-10-15T18:49:33Z</time>
      </trkpt>
      <trkpt lat="-22.081221" lon="-45.537557">
        <ele>954.022</ele>
        <time>2019-10-15T18:49:35Z</time>
      </trkpt>
      <trkpt lat="-22.081282" lon="-45.537559">
        <ele>953.787</ele>
        <time>2019-10-15T18:49:39Z</time>
      </trkpt>
      <trkpt lat="-22.081375" lon="-45.537553">
        <ele>954.456</ele>
        <time>2019-10-15T18:49:44Z</time>
      </trkpt>
      <trkpt lat="-22.081425" lon="-45.537567">
        <ele>955.026</ele>
        <time>2019-10-15T18:49:46Z</time>
      </trkpt>
      <trkpt lat="-22.081476" lon="-45.537583">
        <ele>955.147</ele>
        <time>2019-10-15T18:49:49Z</time>
      </trkpt>
      <trkpt lat="-22.081533" lon="-45.537613">
        <ele>955.511</ele>
        <time>2019-10-15T18:49:52Z</time>
      </trkpt>
      <trkpt lat="-22.081584" lon="-45.537651">
        <ele>956.008</ele>
        <time>2019-10-15T18:49:55Z</time>
      </trkpt>
      <trkpt lat="-22.081631" lon="-45.537679">
        <ele>956.656</ele>
        <time>2019-10-15T18:49:59Z</time>
      </trkpt>
      <trkpt lat="-22.081671" lon="-45.537707">
        <ele>956.824</ele>
        <time>2019-10-15T18:50:01Z</time>
      </trkpt>
      <trkpt lat="-22.081710" lon="-45.537733">
        <ele>957.297</ele>
        <time>2019-10-15T18:50:06Z</time>
      </trkpt>
      <trkpt lat="-22.081773" lon="-45.537752">
        <ele>958.642</ele>
        <time>2019-10-15T18:50:13Z</time>
      </trkpt>
      <trkpt lat="-22.081834" lon="-45.537746">
        <ele>959.322</ele>
        <time>2019-10-15T18:50:19Z</time>
      </trkpt>
      <trkpt lat="-22.081879" lon="-45.537733">
        <ele>959.692</ele>
        <time>2019-10-15T18:50:23Z</time>
      </trkpt>
      <trkpt lat="-22.081925" lon="-45.537704">
        <ele>959.937</ele>
        <time>2019-10-15T18:50:25Z</time>
      </trkpt>
      <trkpt lat="-22.081989" lon="-45.537641">
        <ele>960.016</ele>
        <time>2019-10-15T18:50:30Z</time>
      </trkpt>
      <trkpt lat="-22.082022" lon="-45.537592">
        <ele>960.243</ele>
        <time>2019-10-15T18:50:33Z</time>
      </trkpt>
      <trkpt lat="-22.082061" lon="-45.537510">
        <ele>960.464</ele>
        <time>2019-10-15T18:50:39Z</time>
      </trkpt>
      <trkpt lat="-22.082093" lon="-45.537452">
        <ele>960.310</ele>
        <time>2019-10-15T18:50:44Z</time>
      </trkpt>
      <trkpt lat="-22.082131" lon="-45.537381">
        <ele>960.208</ele>
        <time>2019-10-15T18:50:48Z</time>
      </trkpt>
      <trkpt lat="-22.082198" lon="-45.537253">
        <ele>960.618</ele>
        <time>2019-10-15T18:50:56Z</time>
      </trkpt>
      <trkpt lat="-22.082230" lon="-45.537195">
        <ele>960.996</ele>
        <time>2019-10-15T18:51:00Z</time>
      </trkpt>
      <trkpt lat="-22.082278" lon="-45.537138">
        <ele>961.139</ele>
        <time>2019-10-15T18:51:03Z</time>
      </trkpt>
      <trkpt lat="-22.082308" lon="-45.537094">
        <ele>961.644</ele>
        <time>2019-10-15T18:51:07Z</time>
      </trkpt>
      <trkpt lat="-22.082337" lon="-45.537053">
        <ele>961.624</ele>
        <time>2019-10-15T18:51:11Z</time>
      </trkpt>
      <trkpt lat="-22.082367" lon="-45.537005">
        <ele>961.254</ele>
        <time>2019-10-15T18:51:13Z</time>
      </trkpt>
      <trkpt lat="-22.082397" lon="-45.536965">
        <ele>961.199</ele>
        <time>2019-10-15T18:51:16Z</time>
      </trkpt>
      <trkpt lat="-22.082424" lon="-45.536922">
        <ele>961.448</ele>
        <time>2019-10-15T18:51:19Z</time>
      </trkpt>
      <trkpt lat="-22.082470" lon="-45.536879">
        <ele>961.011</ele>
        <time>2019-10-15T18:51:23Z</time>
      </trkpt>
      <trkpt lat="-22.082513" lon="-45.536859">
        <ele>960.921</ele>
        <time>2019-10-15T18:51:25Z</time>
      </trkpt>
      <trkpt lat="-22.082592" lon="-45.536832">
        <ele>961.003</ele>
        <time>2019-10-15T18:51:30Z</time>
      </trkpt>
      <trkpt lat="-22.082636" lon="-45.536821">
        <ele>961.508</ele>
        <time>2019-10-15T18:51:33Z</time>
      </trkpt>
      <trkpt lat="-22.082679" lon="-45.536802">
        <ele>961.315</ele>
        <time>2019-10-15T18:51:35Z</time>
      </trkpt>
      <trkpt lat="-22.082734" lon="-45.536774">
        <ele>961.383</ele>
        <time>2019-10-15T18:51:38Z</time>
      </trkpt>
      <trkpt lat="-22.082804" lon="-45.536737">
        <ele>960.746</ele>
        <time>2019-10-15T18:51:40Z</time>
      </trkpt>
      <trkpt lat="-22.082853" lon="-45.536702">
        <ele>960.271</ele>
        <time>2019-10-15T18:51:42Z</time>
      </trkpt>
      <trkpt lat="-22.082914" lon="-45.536663">
        <ele>959.811</ele>
        <time>2019-10-15T18:51:43Z</time>
      </trkpt>
      <trkpt lat="-22.083084" lon="-45.536574">
        <ele>958.861</ele>
        <time>2019-10-15T18:51:47Z</time>
      </trkpt>
      <trkpt lat="-22.083144" lon="-45.536560">
        <ele>959.026</ele>
        <time>2019-10-15T18:51:48Z</time>
      </trkpt>
      <trkpt lat="-22.083189" lon="-45.536552">
        <ele>959.815</ele>
        <time>2019-10-15T18:51:50Z</time>
      </trkpt>
      <trkpt lat="-22.083240" lon="-45.536542">
        <ele>960.479</ele>
        <time>2019-10-15T18:51:52Z</time>
      </trkpt>
      <trkpt lat="-22.083285" lon="-45.536528">
        <ele>961.605</ele>
        <time>2019-10-15T18:51:55Z</time>
      </trkpt>
      <trkpt lat="-22.083356" lon="-45.536500">
        <ele>963.225</ele>
        <time>2019-10-15T18:52:00Z</time>
      </trkpt>
      <trkpt lat="-22.083404" lon="-45.536480">
        <ele>964.308</ele>
        <time>2019-10-15T18:52:04Z</time>
      </trkpt>
      <trkpt lat="-22.083449" lon="-45.536471">
        <ele>965.611</ele>
        <time>2019-10-15T18:52:09Z</time>
      </trkpt>
      <trkpt lat="-22.083502" lon="-45.536459">
        <ele>967.069</ele>
        <time>2019-10-15T18:52:15Z</time>
      </trkpt>
      <trkpt lat="-22.083550" lon="-45.536451">
        <ele>968.162</ele>
        <time>2019-10-15T18:52:25Z</time>
      </trkpt>
      <trkpt lat="-22.083597" lon="-45.536448">
        <ele>969.197</ele>
        <time>2019-10-15T18:52:28Z</time>
      </trkpt>
      <trkpt lat="-22.083643" lon="-45.536443">
        <ele>969.427</ele>
        <time>2019-10-15T18:52:35Z</time>
      </trkpt>
      <trkpt lat="-22.083690" lon="-45.536444">
        <ele>970.167</ele>
        <time>2019-10-15T18:52:39Z</time>
      </trkpt>
      <trkpt lat="-22.083744" lon="-45.536449">
        <ele>971.192</ele>
        <time>2019-10-15T18:52:42Z</time>
      </trkpt>
      <trkpt lat="-22.083792" lon="-45.536461">
        <ele>971.541</ele>
        <time>2019-10-15T18:52:47Z</time>
      </trkpt>
      <trkpt lat="-22.083850" lon="-45.536476">
        <ele>972.082</ele>
        <time>2019-10-15T18:52:55Z</time>
      </trkpt>
      <trkpt lat="-22.083896" lon="-45.536489">
        <ele>972.643</ele>
        <time>2019-10-15T18:53:00Z</time>
      </trkpt>
      <trkpt lat="-22.083936" lon="-45.536512">
        <ele>973.117</ele>
        <time>2019-10-15T18:53:14Z</time>
      </trkpt>
      <trkpt lat="-22.083974" lon="-45.536543">
        <ele>973.508</ele>
        <time>2019-10-15T18:53:18Z</time>
      </trkpt>
      <trkpt lat="-22.084012" lon="-45.536615">
        <ele>974.292</ele>
        <time>2019-10-15T18:53:21Z</time>
      </trkpt>
      <trkpt lat="-22.084029" lon="-45.536660">
        <ele>974.850</ele>
        <time>2019-10-15T18:53:23Z</time>
      </trkpt>
      <trkpt lat="-22.084037" lon="-45.536711">
        <ele>975.583</ele>
        <time>2019-10-15T18:53:28Z</time>
      </trkpt>
      <trkpt lat="-22.084047" lon="-45.536760">
        <ele>976.498</ele>
        <time>2019-10-15T18:53:31Z</time>
      </trkpt>
      <trkpt lat="-22.084059" lon="-45.536822">
        <ele>977.278</ele>
        <time>2019-10-15T18:53:34Z</time>
      </trkpt>
      <trkpt lat="-22.084090" lon="-45.536865">
        <ele>978.588</ele>
        <time>2019-10-15T18:53:37Z</time>
      </trkpt>
      <trkpt lat="-22.084135" lon="-45.536915">
        <ele>980.293</ele>
        <time>2019-10-15T18:53:41Z</time>
      </trkpt>
      <trkpt lat="-22.084192" lon="-45.536943">
        <ele>982.192</ele>
        <time>2019-10-15T18:53:49Z</time>
      </trkpt>
      <trkpt lat="-22.084239" lon="-45.536953">
        <ele>983.829</ele>
        <time>2019-10-15T18:53:57Z</time>
      </trkpt>
      <trkpt lat="-22.084288" lon="-45.536961">
        <ele>984.800</ele>
        <time>2019-10-15T18:54:03Z</time>
      </trkpt>
      <trkpt lat="-22.084362" lon="-45.536966">
        <ele>986.020</ele>
        <time>2019-10-15T18:54:10Z</time>
      </trkpt>
      <trkpt lat="-22.084428" lon="-45.536969">
        <ele>987.108</ele>
        <time>2019-10-15T18:54:15Z</time>
      </trkpt>
      <trkpt lat="-22.084480" lon="-45.536955">
        <ele>988.186</ele>
        <time>2019-10-15T18:54:36Z</time>
      </trkpt>
      <trkpt lat="-22.084535" lon="-45.536960">
        <ele>988.854</ele>
        <time>2019-10-15T18:54:50Z</time>
      </trkpt>
      <trkpt lat="-22.084580" lon="-45.536998">
        <ele>989.297</ele>
        <time>2019-10-15T18:54:53Z</time>
      </trkpt>
      <trkpt lat="-22.084601" lon="-45.537064">
        <ele>990.392</ele>
        <time>2019-10-15T18:54:57Z</time>
      </trkpt>
      <trkpt lat="-22.084601" lon="-45.537127">
        <ele>991.032</ele>
        <time>2019-10-15T18:55:01Z</time>
      </trkpt>
      <trkpt lat="-22.084590" lon="-45.537188">
        <ele>991.642</ele>
        <time>2019-10-15T18:55:05Z</time>
      </trkpt>
      <trkpt lat="-22.084559" lon="-45.537264">
        <ele>992.467</ele>
        <time>2019-10-15T18:55:10Z</time>
      </trkpt>
      <trkpt lat="-22.084535" lon="-45.537315">
        <ele>992.486</ele>
        <time>2019-10-15T18:55:15Z</time>
      </trkpt>
      <trkpt lat="-22.084515" lon="-45.537374">
        <ele>992.957</ele>
        <time>2019-10-15T18:55:18Z</time>
      </trkpt>
      <trkpt lat="-22.084474" lon="-45.537429">
        <ele>993.200</ele>
        <time>2019-10-15T18:55:22Z</time>
      </trkpt>
      <trkpt lat="-22.084445" lon="-45.537489">
        <ele>993.920</ele>
        <time>2019-10-15T18:55:27Z</time>
      </trkpt>
      <trkpt lat="-22.084426" lon="-45.537537">
        <ele>994.708</ele>
        <time>2019-10-15T18:55:32Z</time>
      </trkpt>
      <trkpt lat="-22.084391" lon="-45.537617">
        <ele>995.769</ele>
        <time>2019-10-15T18:55:37Z</time>
      </trkpt>
      <trkpt lat="-22.084361" lon="-45.537666">
        <ele>996.047</ele>
        <time>2019-10-15T18:55:41Z</time>
      </trkpt>
      <trkpt lat="-22.084344" lon="-45.537720">
        <ele>996.290</ele>
        <time>2019-10-15T18:55:45Z</time>
      </trkpt>
      <trkpt lat="-22.084337" lon="-45.537769">
        <ele>996.645</ele>
        <time>2019-10-15T18:55:48Z</time>
      </trkpt>
      <trkpt lat="-22.084331" lon="-45.537818">
        <ele>997.425</ele>
        <time>2019-10-15T18:55:50Z</time>
      </trkpt>
      <trkpt lat="-22.084330" lon="-45.537878">
        <ele>997.845</ele>
        <time>2019-10-15T18:55:53Z</time>
      </trkpt>
      <trkpt lat="-22.084332" lon="-45.537937">
        <ele>998.330</ele>
        <time>2019-10-15T18:55:57Z</time>
      </trkpt>
      <trkpt lat="-22.084339" lon="-45.537988">
        <ele>998.929</ele>
        <time>2019-10-15T18:56:00Z</time>
      </trkpt>
      <trkpt lat="-22.084351" lon="-45.538044">
        <ele>999.566</ele>
        <time>2019-10-15T18:56:04Z</time>
      </trkpt>
      <trkpt lat="-22.084370" lon="-45.538107">
        <ele>1000.229</ele>
        <time>2019-10-15T18:56:08Z</time>
      </trkpt>
      <trkpt lat="-22.084403" lon="-45.538175">
        <ele>1000.221</ele>
        <time>2019-10-15T18:56:13Z</time>
      </trkpt>
      <trkpt lat="-22.084430" lon="-45.538242">
        <ele>1001.108</ele>
        <time>2019-10-15T18:56:17Z</time>
      </trkpt>
      <trkpt lat="-22.084453" lon="-45.538295">
        <ele>1001.040</ele>
        <time>2019-10-15T18:56:20Z</time>
      </trkpt>
      <trkpt lat="-22.084486" lon="-45.538355">
        <ele>1001.428</ele>
        <time>2019-10-15T18:56:24Z</time>
      </trkpt>
      <trkpt lat="-22.084514" lon="-45.538402">
        <ele>1001.961</ele>
        <time>2019-10-15T18:56:28Z</time>
      </trkpt>
      <trkpt lat="-22.084533" lon="-45.538448">
        <ele>1001.616</ele>
        <time>2019-10-15T18:56:31Z</time>
      </trkpt>
      <trkpt lat="-22.084555" lon="-45.538492">
        <ele>1002.156</ele>
        <time>2019-10-15T18:56:34Z</time>
      </trkpt>
      <trkpt lat="-22.084586" lon="-45.538537">
        <ele>1002.776</ele>
        <time>2019-10-15T18:56:39Z</time>
      </trkpt>
      <trkpt lat="-22.084608" lon="-45.538616">
        <ele>1002.991</ele>
        <time>2019-10-15T18:56:43Z</time>
      </trkpt>
      <trkpt lat="-22.084632" lon="-45.538657">
        <ele>1003.690</ele>
        <time>2019-10-15T18:56:46Z</time>
      </trkpt>
      <trkpt lat="-22.084660" lon="-45.538698">
        <ele>1004.288</ele>
        <time>2019-10-15T18:56:49Z</time>
      </trkpt>
      <trkpt lat="-22.084700" lon="-45.538749">
        <ele>1004.924</ele>
        <time>2019-10-15T18:56:52Z</time>
      </trkpt>
      <trkpt lat="-22.084744" lon="-45.538802">
        <ele>1005.826</ele>
        <time>2019-10-15T18:56:56Z</time>
      </trkpt>
      <trkpt lat="-22.084781" lon="-45.538834">
        <ele>1006.508</ele>
        <time>2019-10-15T18:56:59Z</time>
      </trkpt>
      <trkpt lat="-22.084821" lon="-45.538872">
        <ele>1007.472</ele>
        <time>2019-10-15T18:57:04Z</time>
      </trkpt>
      <trkpt lat="-22.084862" lon="-45.538905">
        <ele>1008.430</ele>
        <time>2019-10-15T18:57:09Z</time>
      </trkpt>
      <trkpt lat="-22.084902" lon="-45.538930">
        <ele>1009.733</ele>
        <time>2019-10-15T18:57:14Z</time>
      </trkpt>
      <trkpt lat="-22.084948" lon="-45.538946">
        <ele>1010.568</ele>
        <time>2019-10-15T18:57:17Z</time>
      </trkpt>
      <trkpt lat="-22.084996" lon="-45.538951">
        <ele>1010.968</ele>
        <time>2019-10-15T18:57:18Z</time>
      </trkpt>
      <trkpt lat="-22.085040" lon="-45.538962">
        <ele>1011.448</ele>
        <time>2019-10-15T18:57:23Z</time>
      </trkpt>
      <trkpt lat="-22.085089" lon="-45.538963">
        <ele>1012.023</ele>
        <time>2019-10-15T18:57:27Z</time>
      </trkpt>
      <trkpt lat="-22.085135" lon="-45.538961">
        <ele>1012.512</ele>
        <time>2019-10-15T18:57:31Z</time>
      </trkpt>
      <trkpt lat="-22.085183" lon="-45.538953">
        <ele>1012.951</ele>
        <time>2019-10-15T18:57:35Z</time>
      </trkpt>
      <trkpt lat="-22.085270" lon="-45.538918">
        <ele>1013.401</ele>
        <time>2019-10-15T18:57:40Z</time>
      </trkpt>
      <trkpt lat="-22.085318" lon="-45.538897">
        <ele>1013.811</ele>
        <time>2019-10-15T18:57:44Z</time>
      </trkpt>
      <trkpt lat="-22.085359" lon="-45.538873">
        <ele>1014.008</ele>
        <time>2019-10-15T18:57:48Z</time>
      </trkpt>
      <trkpt lat="-22.085398" lon="-45.538845">
        <ele>1014.089</ele>
        <time>2019-10-15T18:57:50Z</time>
      </trkpt>
      <trkpt lat="-22.085443" lon="-45.538817">
        <ele>1014.637</ele>
        <time>2019-10-15T18:57:54Z</time>
      </trkpt>
      <trkpt lat="-22.085482" lon="-45.538791">
        <ele>1014.710</ele>
        <time>2019-10-15T18:57:56Z</time>
      </trkpt>
      <trkpt lat="-22.085529" lon="-45.538769">
        <ele>1014.785</ele>
        <time>2019-10-15T18:57:59Z</time>
      </trkpt>
      <trkpt lat="-22.085576" lon="-45.538746">
        <ele>1015.385</ele>
        <time>2019-10-15T18:58:03Z</time>
      </trkpt>
      <trkpt lat="-22.085612" lon="-45.538710">
        <ele>1016.255</ele>
        <time>2019-10-15T18:58:07Z</time>
      </trkpt>
      <trkpt lat="-22.085660" lon="-45.538675">
        <ele>1017.620</ele>
        <time>2019-10-15T18:58:11Z</time>
      </trkpt>
      <trkpt lat="-22.085705" lon="-45.538636">
        <ele>1018.869</ele>
        <time>2019-10-15T18:58:15Z</time>
      </trkpt>
      <trkpt lat="-22.085735" lon="-45.538596">
        <ele>1020.035</ele>
        <time>2019-10-15T18:58:19Z</time>
      </trkpt>
      <trkpt lat="-22.085744" lon="-45.538525">
        <ele>1021.086</ele>
        <time>2019-10-15T18:58:23Z</time>
      </trkpt>
      <trkpt lat="-22.085738" lon="-45.538466">
        <ele>1022.114</ele>
        <time>2019-10-15T18:58:27Z</time>
      </trkpt>
      <trkpt lat="-22.085721" lon="-45.538418">
        <ele>1022.908</ele>
        <time>2019-10-15T18:58:33Z</time>
      </trkpt>
      <trkpt lat="-22.085702" lon="-45.538364">
        <ele>1023.977</ele>
        <time>2019-10-15T18:58:39Z</time>
      </trkpt>
      <trkpt lat="-22.085677" lon="-45.538300">
        <ele>1025.345</ele>
        <time>2019-10-15T18:58:45Z</time>
      </trkpt>
      <trkpt lat="-22.085652" lon="-45.538239">
        <ele>1026.368</ele>
        <time>2019-10-15T18:58:51Z</time>
      </trkpt>
      <trkpt lat="-22.085633" lon="-45.538176">
        <ele>1027.333</ele>
        <time>2019-10-15T18:58:58Z</time>
      </trkpt>
      <trkpt lat="-22.085619" lon="-45.538119">
        <ele>1027.893</ele>
        <time>2019-10-15T18:59:03Z</time>
      </trkpt>
      <trkpt lat="-22.085616" lon="-45.538068">
        <ele>1028.373</ele>
        <time>2019-10-15T18:59:08Z</time>
      </trkpt>
      <trkpt lat="-22.085650" lon="-45.537991">
        <ele>1028.718</ele>
        <time>2019-10-15T18:59:12Z</time>
      </trkpt>
      <trkpt lat="-22.085683" lon="-45.537958">
        <ele>1028.817</ele>
        <time>2019-10-15T18:59:14Z</time>
      </trkpt>
      <trkpt lat="-22.085736" lon="-45.537946">
        <ele>1029.981</ele>
        <time>2019-10-15T18:59:18Z</time>
      </trkpt>
      <trkpt lat="-22.085787" lon="-45.537956">
        <ele>1030.761</ele>
        <time>2019-10-15T18:59:21Z</time>
      </trkpt>
      <trkpt lat="-22.085833" lon="-45.537982">
        <ele>1032.717</ele>
        <time>2019-10-15T18:59:26Z</time>
      </trkpt>
      <trkpt lat="-22.085873" lon="-45.538015">
        <ele>1034.008</ele>
        <time>2019-10-15T18:59:32Z</time>
      </trkpt>
      <trkpt lat="-22.085914" lon="-45.538048">
        <ele>1034.532</ele>
        <time>2019-10-15T18:59:44Z</time>
      </trkpt>
      <trkpt lat="-22.085960" lon="-45.538084">
        <ele>1036.070</ele>
        <time>2019-10-15T18:59:49Z</time>
      </trkpt>
      <trkpt lat="-22.085993" lon="-45.538117">
        <ele>1037.063</ele>
        <time>2019-10-15T18:59:53Z</time>
      </trkpt>
      <trkpt lat="-22.086027" lon="-45.538153">
        <ele>1037.578</ele>
        <time>2019-10-15T18:59:58Z</time>
      </trkpt>
      <trkpt lat="-22.086064" lon="-45.538183">
        <ele>1038.688</ele>
        <time>2019-10-15T19:00:03Z</time>
      </trkpt>
      <trkpt lat="-22.086104" lon="-45.538212">
        <ele>1039.848</ele>
        <time>2019-10-15T19:00:08Z</time>
      </trkpt>
      <trkpt lat="-22.086170" lon="-45.538245">
        <ele>1040.563</ele>
        <time>2019-10-15T19:00:37Z</time>
      </trkpt>
      <trkpt lat="-22.086210" lon="-45.538274">
        <ele>1041.962</ele>
        <time>2019-10-15T19:00:42Z</time>
      </trkpt>
      <trkpt lat="-22.086253" lon="-45.538295">
        <ele>1043.347</ele>
        <time>2019-10-15T19:00:47Z</time>
      </trkpt>
      <trkpt lat="-22.086294" lon="-45.538315">
        <ele>1044.229</ele>
        <time>2019-10-15T19:00:53Z</time>
      </trkpt>
      <trkpt lat="-22.086345" lon="-45.538340">
        <ele>1045.821</ele>
        <time>2019-10-15T19:00:59Z</time>
      </trkpt>
      <trkpt lat="-22.086393" lon="-45.538361">
        <ele>1046.408</ele>
        <time>2019-10-15T19:01:03Z</time>
      </trkpt>
      <trkpt lat="-22.086436" lon="-45.538384">
        <ele>1047.898</ele>
        <time>2019-10-15T19:01:09Z</time>
      </trkpt>
      <trkpt lat="-22.086476" lon="-45.538414">
        <ele>1048.856</ele>
        <time>2019-10-15T19:01:14Z</time>
      </trkpt>
      <trkpt lat="-22.086514" lon="-45.538440">
        <ele>1049.829</ele>
        <time>2019-10-15T19:01:18Z</time>
      </trkpt>
      <trkpt lat="-22.086558" lon="-45.538484">
        <ele>1050.544</ele>
        <time>2019-10-15T19:01:33Z</time>
      </trkpt>
      <trkpt lat="-22.086602" lon="-45.538515">
        <ele>1051.144</ele>
        <time>2019-10-15T19:02:03Z</time>
      </trkpt>
      <trkpt lat="-22.086729" lon="-45.538595">
        <ele>1053.974</ele>
        <time>2019-10-15T19:02:14Z</time>
      </trkpt>
      <trkpt lat="-22.086761" lon="-45.538639">
        <ele>1055.849</ele>
        <time>2019-10-15T19:02:23Z</time>
      </trkpt>
      <trkpt lat="-22.086794" lon="-45.538677">
        <ele>1056.328</ele>
        <time>2019-10-15T19:02:27Z</time>
      </trkpt>
      <trkpt lat="-22.086856" lon="-45.538726">
        <ele>1057.147</ele>
        <time>2019-10-15T19:02:33Z</time>
      </trkpt>
      <trkpt lat="-22.086922" lon="-45.538767">
        <ele>1057.629</ele>
        <time>2019-10-15T19:02:36Z</time>
      </trkpt>
      <trkpt lat="-22.086969" lon="-45.538799">
        <ele>1058.221</ele>
        <time>2019-10-15T19:02:40Z</time>
      </trkpt>
      <trkpt lat="-22.087033" lon="-45.538832">
        <ele>1059.808</ele>
        <time>2019-10-15T19:02:45Z</time>
      </trkpt>
      <trkpt lat="-22.087078" lon="-45.538850">
        <ele>1060.818</ele>
        <time>2019-10-15T19:02:49Z</time>
      </trkpt>
      <trkpt lat="-22.087125" lon="-45.538861">
        <ele>1061.816</ele>
        <time>2019-10-15T19:02:53Z</time>
      </trkpt>
      <trkpt lat="-22.087179" lon="-45.538877">
        <ele>1062.799</ele>
        <time>2019-10-15T19:03:00Z</time>
      </trkpt>
      <trkpt lat="-22.087237" lon="-45.538880">
        <ele>1063.514</ele>
        <time>2019-10-15T19:03:05Z</time>
      </trkpt>
      <trkpt lat="-22.087286" lon="-45.538893">
        <ele>1063.914</ele>
        <time>2019-10-15T19:03:10Z</time>
      </trkpt>
      <trkpt lat="-22.087337" lon="-45.538910">
        <ele>1064.054</ele>
        <time>2019-10-15T19:03:12Z</time>
      </trkpt>
      <trkpt lat="-22.087386" lon="-45.538902">
        <ele>1063.919</ele>
        <time>2019-10-15T19:03:38Z</time>
      </trkpt>
      <trkpt lat="-22.087439" lon="-45.538910">
        <ele>1064.758</ele>
        <time>2019-10-15T19:03:41Z</time>
      </trkpt>
      <trkpt lat="-22.087482" lon="-45.538932">
        <ele>1065.393</ele>
        <time>2019-10-15T19:03:45Z</time>
      </trkpt>
      <trkpt lat="-22.087521" lon="-45.538959">
        <ele>1065.765</ele>
        <time>2019-10-15T19:03:49Z</time>
      </trkpt>
      <trkpt lat="-22.087558" lon="-45.538994">
        <ele>1065.921</ele>
        <time>2019-10-15T19:03:52Z</time>
      </trkpt>
      <trkpt lat="-22.087602" lon="-45.539034">
        <ele>1066.308</ele>
        <time>2019-10-15T19:03:56Z</time>
      </trkpt>
      <trkpt lat="-22.087663" lon="-45.539079">
        <ele>1067.083</ele>
        <time>2019-10-15T19:04:01Z</time>
      </trkpt>
      <trkpt lat="-22.087706" lon="-45.539117">
        <ele>1067.541</ele>
        <time>2019-10-15T19:04:05Z</time>
      </trkpt>
      <trkpt lat="-22.087745" lon="-45.539151">
        <ele>1068.134</ele>
        <time>2019-10-15T19:04:08Z</time>
      </trkpt>
      <trkpt lat="-22.087779" lon="-45.539190">
        <ele>1069.099</ele>
        <time>2019-10-15T19:04:14Z</time>
      </trkpt>
      <trkpt lat="-22.087814" lon="-45.539239">
        <ele>1069.379</ele>
        <time>2019-10-15T19:04:17Z</time>
      </trkpt>
      <trkpt lat="-22.087853" lon="-45.539278">
        <ele>1070.299</ele>
        <time>2019-10-15T19:04:21Z</time>
      </trkpt>
      <trkpt lat="-22.087901" lon="-45.539281">
        <ele>1071.714</ele>
        <time>2019-10-15T19:04:24Z</time>
      </trkpt>
      <trkpt lat="-22.087948" lon="-45.539272">
        <ele>1072.633</ele>
        <time>2019-10-15T19:04:28Z</time>
      </trkpt>
      <trkpt lat="-22.087993" lon="-45.539278">
        <ele>1073.098</ele>
        <time>2019-10-15T19:04:32Z</time>
      </trkpt>
      <trkpt lat="-22.088047" lon="-45.539277">
        <ele>1073.815</ele>
        <time>2019-10-15T19:04:34Z</time>
      </trkpt>
      <trkpt lat="-22.088094" lon="-45.539263">
        <ele>1074.426</ele>
        <time>2019-10-15T19:04:40Z</time>
      </trkpt>
      <trkpt lat="-22.088143" lon="-45.539247">
        <ele>1074.508</ele>
        <time>2019-10-15T19:04:42Z</time>
      </trkpt>
      <trkpt lat="-22.088217" lon="-45.539243">
        <ele>1075.023</ele>
        <time>2019-10-15T19:04:47Z</time>
      </trkpt>
      <trkpt lat="-22.088278" lon="-45.539223">
        <ele>1075.871</ele>
        <time>2019-10-15T19:04:51Z</time>
      </trkpt>
      <trkpt lat="-22.088382" lon="-45.539198">
        <ele>1077.784</ele>
        <time>2019-10-15T19:06:04Z</time>
      </trkpt>
      <trkpt lat="-22.088425" lon="-45.539218">
        <ele>1078.169</ele>
        <time>2019-10-15T19:06:07Z</time>
      </trkpt>
      <trkpt lat="-22.088477" lon="-45.539233">
        <ele>1078.719</ele>
        <time>2019-10-15T19:06:10Z</time>
      </trkpt>
      <trkpt lat="-22.088537" lon="-45.539252">
        <ele>1079.639</ele>
        <time>2019-10-15T19:06:14Z</time>
      </trkpt>
      <trkpt lat="-22.088580" lon="-45.539276">
        <ele>1081.154</ele>
        <time>2019-10-15T19:06:18Z</time>
      </trkpt>
      <trkpt lat="-22.088638" lon="-45.539303">
        <ele>1082.823</ele>
        <time>2019-10-15T19:06:26Z</time>
      </trkpt>
      <trkpt lat="-22.088704" lon="-45.539317">
        <ele>1084.046</ele>
        <time>2019-10-15T19:06:31Z</time>
      </trkpt>
      <trkpt lat="-22.088749" lon="-45.539328">
        <ele>1084.588</ele>
        <time>2019-10-15T19:06:33Z</time>
      </trkpt>
      <trkpt lat="-22.088865" lon="-45.539336">
        <ele>1086.816</ele>
        <time>2019-10-15T19:07:24Z</time>
      </trkpt>
      <trkpt lat="-22.088910" lon="-45.539326">
        <ele>1088.508</ele>
        <time>2019-10-15T19:07:28Z</time>
      </trkpt>
      <trkpt lat="-22.088964" lon="-45.539310">
        <ele>1090.028</ele>
        <time>2019-10-15T19:07:33Z</time>
      </trkpt>
      <trkpt lat="-22.089009" lon="-45.539273">
        <ele>1091.216</ele>
        <time>2019-10-15T19:07:37Z</time>
      </trkpt>
      <trkpt lat="-22.089035" lon="-45.539229">
        <ele>1092.059</ele>
        <time>2019-10-15T19:07:40Z</time>
      </trkpt>
      <trkpt lat="-22.089061" lon="-45.539159">
        <ele>1093.514</ele>
        <time>2019-10-15T19:07:48Z</time>
      </trkpt>
      <trkpt lat="-22.089081" lon="-45.539108">
        <ele>1094.314</ele>
        <time>2019-10-15T19:07:53Z</time>
      </trkpt>
      <trkpt lat="-22.089107" lon="-45.539062">
        <ele>1095.334</ele>
        <time>2019-10-15T19:07:58Z</time>
      </trkpt>
      <trkpt lat="-22.089132" lon="-45.539008">
        <ele>1095.839</ele>
        <time>2019-10-15T19:08:03Z</time>
      </trkpt>
      <trkpt lat="-22.089147" lon="-45.538962">
        <ele>1096.458</ele>
        <time>2019-10-15T19:08:05Z</time>
      </trkpt>
      <trkpt lat="-22.089174" lon="-45.538912">
        <ele>1097.493</ele>
        <time>2019-10-15T19:09:00Z</time>
      </trkpt>
      <trkpt lat="-22.089195" lon="-45.538866">
        <ele>1099.065</ele>
        <time>2019-10-15T19:09:08Z</time>
      </trkpt>
      <trkpt lat="-22.089229" lon="-45.538804">
        <ele>1100.321</ele>
        <time>2019-10-15T19:09:14Z</time>
      </trkpt>
      <trkpt lat="-22.089254" lon="-45.538753">
        <ele>1100.808</ele>
        <time>2019-10-15T19:09:18Z</time>
      </trkpt>
      <trkpt lat="-22.089278" lon="-45.538706">
        <ele>1102.383</ele>
        <time>2019-10-15T19:09:23Z</time>
      </trkpt>
      <trkpt lat="-22.089306" lon="-45.538657">
        <ele>1102.921</ele>
        <time>2019-10-15T19:09:35Z</time>
      </trkpt>
      <trkpt lat="-22.089339" lon="-45.538619">
        <ele>1104.234</ele>
        <time>2019-10-15T19:14:29Z</time>
      </trkpt>
      <trkpt lat="-22.089370" lon="-45.538579">
        <ele>1105.719</ele>
        <time>2019-10-15T19:14:37Z</time>
      </trkpt>
      <trkpt lat="-22.089395" lon="-45.538525">
        <ele>1107.039</ele>
        <time>2019-10-15T19:14:43Z</time>
      </trkpt>
      <trkpt lat="-22.089420" lon="-45.538481">
        <ele>1108.099</ele>
        <time>2019-10-15T19:14:48Z</time>
      </trkpt>
      <trkpt lat="-22.089446" lon="-45.538425">
        <ele>1109.044</ele>
        <time>2019-10-15T19:14:55Z</time>
      </trkpt>
      <trkpt lat="-22.089476" lon="-45.538382">
        <ele>1109.863</ele>
        <time>2019-10-15T19:15:00Z</time>
      </trkpt>
      <trkpt lat="-22.089523" lon="-45.538352">
        <ele>1110.873</ele>
        <time>2019-10-15T19:15:05Z</time>
      </trkpt>
      <trkpt lat="-22.089568" lon="-45.538362">
        <ele>1111.185</ele>
        <time>2019-10-15T19:15:13Z</time>
      </trkpt>
      <trkpt lat="-22.089615" lon="-45.538377">
        <ele>1112.913</ele>
        <time>2019-10-15T19:15:23Z</time>
      </trkpt>
      <trkpt lat="-22.089654" lon="-45.538407">
        <ele>1113.808</ele>
        <time>2019-10-15T19:15:31Z</time>
      </trkpt>
      <trkpt lat="-22.089692" lon="-45.538442">
        <ele>1114.951</ele>
        <time>2019-10-15T19:15:39Z</time>
      </trkpt>
      <trkpt lat="-22.089728" lon="-45.538485">
        <ele>1115.879</ele>
        <time>2019-10-15T19:15:46Z</time>
      </trkpt>
      <trkpt lat="-22.089759" lon="-45.538533">
        <ele>1116.812</ele>
        <time>2019-10-15T19:15:53Z</time>
      </trkpt>
      <trkpt lat="-22.089791" lon="-45.538583">
        <ele>1118.597</ele>
        <time>2019-10-15T19:16:04Z</time>
      </trkpt>
      <trkpt lat="-22.089819" lon="-45.538623">
        <ele>1119.667</ele>
        <time>2019-10-15T19:16:11Z</time>
      </trkpt>
      <trkpt lat="-22.089850" lon="-45.538660">
        <ele>1120.387</ele>
        <time>2019-10-15T19:16:17Z</time>
      </trkpt>
      <trkpt lat="-22.089885" lon="-45.538691">
        <ele>1121.292</ele>
        <time>2019-10-15T19:16:27Z</time>
      </trkpt>
      <trkpt lat="-22.089929" lon="-45.538711">
        <ele>1121.921</ele>
        <time>2019-10-15T19:16:33Z</time>
      </trkpt>
      <trkpt lat="-22.089972" lon="-45.538727">
        <ele>1122.889</ele>
        <time>2019-10-15T19:16:37Z</time>
      </trkpt>
      <trkpt lat="-22.090026" lon="-45.538714">
        <ele>1123.406</ele>
        <time>2019-10-15T19:16:43Z</time>
      </trkpt>
      <trkpt lat="-22.090069" lon="-45.538685">
        <ele>1124.726</ele>
        <time>2019-10-15T19:16:47Z</time>
      </trkpt>
      <trkpt lat="-22.090097" lon="-45.538638">
        <ele>1125.808</ele>
        <time>2019-10-15T19:16:50Z</time>
      </trkpt>
      <trkpt lat="-22.090077" lon="-45.538583">
        <ele>1126.272</ele>
        <time>2019-10-15T19:16:51Z</time>
      </trkpt>
      <trkpt lat="-22.090046" lon="-45.538537">
        <ele>1126.810</ele>
        <time>2019-10-15T19:16:55Z</time>
      </trkpt>
      <trkpt lat="-22.090000" lon="-45.538495">
        <ele>1127.213</ele>
        <time>2019-10-15T19:17:02Z</time>
      </trkpt>
      <trkpt lat="-22.089932" lon="-45.538442">
        <ele>1128.258</ele>
        <time>2019-10-15T19:17:11Z</time>
      </trkpt>
      <trkpt lat="-22.089888" lon="-45.538403">
        <ele>1128.878</ele>
        <time>2019-10-15T19:17:17Z</time>
      </trkpt>
      <trkpt lat="-22.089863" lon="-45.538360">
        <ele>1128.818</ele>
        <time>2019-10-15T19:17:22Z</time>
      </trkpt>
      <trkpt lat="-22.089843" lon="-45.538316">
        <ele>1129.143</ele>
        <time>2019-10-15T19:17:26Z</time>
      </trkpt>
      <trkpt lat="-22.089821" lon="-45.538273">
        <ele>1129.542</ele>
        <time>2019-10-15T19:17:29Z</time>
      </trkpt>
      <trkpt lat="-22.089789" lon="-45.538220">
        <ele>1130.222</ele>
        <time>2019-10-15T19:17:34Z</time>
      </trkpt>
      <trkpt lat="-22.089760" lon="-45.538178">
        <ele>1130.362</ele>
        <time>2019-10-15T19:17:39Z</time>
      </trkpt>
      <trkpt lat="-22.089728" lon="-45.538128">
        <ele>1131.108</ele>
        <time>2019-10-15T19:17:44Z</time>
      </trkpt>
      <trkpt lat="-22.089701" lon="-45.538082">
        <ele>1131.608</ele>
        <time>2019-10-15T19:17:48Z</time>
      </trkpt>
      <trkpt lat="-22.089654" lon="-45.538013">
        <ele>1132.036</ele>
        <time>2019-10-15T19:17:55Z</time>
      </trkpt>
      <trkpt lat="-22.089621" lon="-45.537976">
        <ele>1132.534</ele>
        <time>2019-10-15T19:17:58Z</time>
      </trkpt>
      <trkpt lat="-22.089586" lon="-45.537938">
        <ele>1133.397</ele>
        <time>2019-10-15T19:18:04Z</time>
      </trkpt>
      <trkpt lat="-22.089499" lon="-45.537885">
        <ele>1133.782</ele>
        <time>2019-10-15T19:18:09Z</time>
      </trkpt>
      <trkpt lat="-22.089446" lon="-45.537848">
        <ele>1134.632</ele>
        <time>2019-10-15T19:18:12Z</time>
      </trkpt>
      <trkpt lat="-22.089395" lon="-45.537831">
        <ele>1135.982</ele>
        <time>2019-10-15T19:18:17Z</time>
      </trkpt>
      <trkpt lat="-22.089347" lon="-45.537828">
        <ele>1136.257</ele>
        <time>2019-10-15T19:18:21Z</time>
      </trkpt>
      <trkpt lat="-22.089299" lon="-45.537837">
        <ele>1136.726</ele>
        <time>2019-10-15T19:18:24Z</time>
      </trkpt>
      <trkpt lat="-22.089250" lon="-45.537853">
        <ele>1137.736</ele>
        <time>2019-10-15T19:18:29Z</time>
      </trkpt>
      <trkpt lat="-22.089162" lon="-45.537889">
        <ele>1138.117</ele>
        <time>2019-10-15T19:18:36Z</time>
      </trkpt>
      <trkpt lat="-22.089112" lon="-45.537910">
        <ele>1138.718</ele>
        <time>2019-10-15T19:18:42Z</time>
      </trkpt>
      <trkpt lat="-22.089065" lon="-45.537926">
        <ele>1139.208</ele>
        <time>2019-10-15T19:18:46Z</time>
      </trkpt>
      <trkpt lat="-22.089018" lon="-45.537941">
        <ele>1140.057</ele>
        <time>2019-10-15T19:18:50Z</time>
      </trkpt>
      <trkpt lat="-22.088961" lon="-45.537959">
        <ele>1140.795</ele>
        <time>2019-10-15T19:18:55Z</time>
      </trkpt>
      <trkpt lat="-22.088892" lon="-45.537970">
        <ele>1140.248</ele>
        <time>2019-10-15T19:18:57Z</time>
      </trkpt>
      <trkpt lat="-22.088846" lon="-45.537969">
        <ele>1140.713</ele>
        <time>2019-10-15T19:18:59Z</time>
      </trkpt>
      <trkpt lat="-22.088796" lon="-45.537961">
        <ele>1140.733</ele>
        <time>2019-10-15T19:19:01Z</time>
      </trkpt>
      <trkpt lat="-22.088749" lon="-45.537941">
        <ele>1140.553</ele>
        <time>2019-10-15T19:19:04Z</time>
      </trkpt>
      <trkpt lat="-22.088676" lon="-45.537917">
        <ele>1140.928</ele>
        <time>2019-10-15T19:19:08Z</time>
      </trkpt>
      <trkpt lat="-22.088631" lon="-45.537904">
        <ele>1141.217</ele>
        <time>2019-10-15T19:19:11Z</time>
      </trkpt>
      <trkpt lat="-22.088556" lon="-45.537871">
        <ele>1140.966</ele>
        <time>2019-10-15T19:19:14Z</time>
      </trkpt>
      <trkpt lat="-22.088508" lon="-45.537849">
        <ele>1141.029</ele>
        <time>2019-10-15T19:19:16Z</time>
      </trkpt>
      <trkpt lat="-22.088467" lon="-45.537827">
        <ele>1141.321</ele>
        <time>2019-10-15T19:19:18Z</time>
      </trkpt>
      <trkpt lat="-22.088427" lon="-45.537795">
        <ele>1141.308</ele>
        <time>2019-10-15T19:19:20Z</time>
      </trkpt>
      <trkpt lat="-22.088367" lon="-45.537751">
        <ele>1141.570</ele>
        <time>2019-10-15T19:19:23Z</time>
      </trkpt>
      <trkpt lat="-22.088311" lon="-45.537719">
        <ele>1141.728</ele>
        <time>2019-10-15T19:19:27Z</time>
      </trkpt>
      <trkpt lat="-22.088273" lon="-45.537688">
        <ele>1141.921</ele>
        <time>2019-10-15T19:19:29Z</time>
      </trkpt>
      <trkpt lat="-22.088234" lon="-45.537654">
        <ele>1142.016</ele>
        <time>2019-10-15T19:19:33Z</time>
      </trkpt>
      <trkpt lat="-22.088192" lon="-45.537626">
        <ele>1142.266</ele>
        <time>2019-10-15T19:19:46Z</time>
      </trkpt>
      <trkpt lat="-22.088179" lon="-45.537575">
        <ele>1143.256</ele>
        <time>2019-10-15T19:20:02Z</time>
      </trkpt>
      <trkpt lat="-22.088229" lon="-45.537596">
        <ele>1142.671</ele>
        <time>2019-10-15T19:20:48Z</time>
      </trkpt>
      <trkpt lat="-22.088200" lon="-45.537546">
        <ele>1142.630</ele>
        <time>2019-10-15T19:21:22Z</time>
      </trkpt>
      <trkpt lat="-22.088153" lon="-45.537527">
        <ele>1142.864</ele>
        <time>2019-10-15T19:21:30Z</time>
      </trkpt>
      <trkpt lat="-22.088097" lon="-45.537528">
        <ele>1143.706</ele>
        <time>2019-10-15T19:22:12Z</time>
      </trkpt>
      <trkpt lat="-22.066906" lon="-45.541948">
        <ele>1143.416</ele>
        <time>2019-10-15T19:22:22Z</time>
      </trkpt>
      <trkpt lat="-22.088102" lon="-45.537532">
        <ele>1143.608</ele>
        <time>2019-10-15T19:18:26Z</time>
      </trkpt>
      <trkpt lat="-22.088113" lon="-45.537482">
        <ele>1143.620</ele>
        <time>2019-10-15T19:19:26Z</time>
      </trkpt>
      <trkpt lat="-22.088107" lon="-45.537430">
        <ele>1144.198</ele>
        <time>2019-10-15T19:24:21Z</time>
      </trkpt>
      <trkpt lat="-22.088131" lon="-45.537384">
        <ele>1145.571</ele>
        <time>2019-10-15T19:24:28Z</time>
      </trkpt>
      <trkpt lat="-22.088176" lon="-45.537377">
        <ele>1145.726</ele>
        <time>2019-10-15T19:24:29Z</time>
      </trkpt>
      <trkpt lat="-22.088241" lon="-45.537370">
        <ele>1146.126</ele>
        <time>2019-10-15T19:24:35Z</time>
      </trkpt>
      <trkpt lat="-22.088318" lon="-45.537424">
        <ele>1148.286</ele>
        <time>2019-10-15T19:24:47Z</time>
      </trkpt>
      <trkpt lat="-22.088384" lon="-45.537479">
        <ele>1150.141</ele>
        <time>2019-10-15T19:24:58Z</time>
      </trkpt>
      <trkpt lat="-22.088441" lon="-45.537497">
        <ele>1151.080</ele>
        <time>2019-10-15T19:25:07Z</time>
      </trkpt>
      <trkpt lat="-22.088552" lon="-45.537543">
        <ele>1152.931</ele>
        <time>2019-10-15T19:25:18Z</time>
      </trkpt>
      <trkpt lat="-22.088610" lon="-45.537559">
        <ele>1153.961</ele>
        <time>2019-10-15T19:25:24Z</time>
      </trkpt>
      <trkpt lat="-22.088694" lon="-45.537558">
        <ele>1155.207</ele>
        <time>2019-10-15T19:25:33Z</time>
      </trkpt>
      <trkpt lat="-22.088759" lon="-45.537557">
        <ele>1155.408</ele>
        <time>2019-10-15T19:25:40Z</time>
      </trkpt>
      <trkpt lat="-22.088812" lon="-45.537551">
        <ele>1156.257</ele>
        <time>2019-10-15T19:25:46Z</time>
      </trkpt>
      <trkpt lat="-22.088897" lon="-45.537546">
        <ele>1156.925</ele>
        <time>2019-10-15T19:25:54Z</time>
      </trkpt>
      <trkpt lat="-22.088952" lon="-45.537530">
        <ele>1157.088</ele>
        <time>2019-10-15T19:25:59Z</time>
      </trkpt>
      <trkpt lat="-22.089000" lon="-45.537515">
        <ele>1157.523</ele>
        <time>2019-10-15T19:26:03Z</time>
      </trkpt>
      <trkpt lat="-22.089071" lon="-45.537477">
        <ele>1157.643</ele>
        <time>2019-10-15T19:26:05Z</time>
      </trkpt>
      <trkpt lat="-22.089118" lon="-45.537444">
        <ele>1157.713</ele>
        <time>2019-10-15T19:26:07Z</time>
      </trkpt>
      <trkpt lat="-22.089161" lon="-45.537418">
        <ele>1157.848</ele>
        <time>2019-10-15T19:26:09Z</time>
      </trkpt>
      <trkpt lat="-22.089200" lon="-45.537390">
        <ele>1158.197</ele>
        <time>2019-10-15T19:26:12Z</time>
      </trkpt>
      <trkpt lat="-22.089254" lon="-45.537358">
        <ele>1158.478</ele>
        <time>2019-10-15T19:26:18Z</time>
      </trkpt>
      <trkpt lat="-22.089296" lon="-45.537340">
        <ele>1159.033</ele>
        <time>2019-10-15T19:26:22Z</time>
      </trkpt>
      <trkpt lat="-22.089342" lon="-45.537323">
        <ele>1159.726</ele>
        <time>2019-10-15T19:26:27Z</time>
      </trkpt>
      <trkpt lat="-22.089388" lon="-45.537310">
        <ele>1160.508</ele>
        <time>2019-10-15T19:26:34Z</time>
      </trkpt>
      <trkpt lat="-22.089441" lon="-45.537301">
        <ele>1161.321</ele>
        <time>2019-10-15T19:26:40Z</time>
      </trkpt>
      <trkpt lat="-22.089507" lon="-45.537297">
        <ele>1162.449</ele>
        <time>2019-10-15T19:26:46Z</time>
      </trkpt>
      <trkpt lat="-22.089589" lon="-45.537310">
        <ele>1162.642</ele>
        <time>2019-10-15T19:26:48Z</time>
      </trkpt>
      <trkpt lat="-22.089644" lon="-45.537327">
        <ele>1163.267</ele>
        <time>2019-10-15T19:26:51Z</time>
      </trkpt>
      <trkpt lat="-22.089679" lon="-45.537363">
        <ele>1164.097</ele>
        <time>2019-10-15T19:26:54Z</time>
      </trkpt>
      <trkpt lat="-22.089715" lon="-45.537398">
        <ele>1164.477</ele>
        <time>2019-10-15T19:26:59Z</time>
      </trkpt>
      <trkpt lat="-22.089767" lon="-45.537439">
        <ele>1165.452</ele>
        <time>2019-10-15T19:27:07Z</time>
      </trkpt>
      <trkpt lat="-22.089808" lon="-45.537471">
        <ele>1166.021</ele>
        <time>2019-10-15T19:27:14Z</time>
      </trkpt>
      <trkpt lat="-22.089851" lon="-45.537502">
        <ele>1166.583</ele>
        <time>2019-10-15T19:27:20Z</time>
      </trkpt>
      <trkpt lat="-22.089928" lon="-45.537560">
        <ele>1167.225</ele>
        <time>2019-10-15T19:27:24Z</time>
      </trkpt>
      <trkpt lat="-22.089973" lon="-45.537591">
        <ele>1167.617</ele>
        <time>2019-10-15T19:27:28Z</time>
      </trkpt>
      <trkpt lat="-22.090063" lon="-45.537606">
        <ele>1167.708</ele>
        <time>2019-10-15T19:27:34Z</time>
      </trkpt>
      <trkpt lat="-22.090123" lon="-45.537606">
        <ele>1168.032</ele>
        <time>2019-10-15T19:27:37Z</time>
      </trkpt>
      <trkpt lat="-22.090170" lon="-45.537597">
        <ele>1167.990</ele>
        <time>2019-10-15T19:27:40Z</time>
      </trkpt>
      <trkpt lat="-22.090225" lon="-45.537578">
        <ele>1168.253</ele>
        <time>2019-10-15T19:27:44Z</time>
      </trkpt>
      <trkpt lat="-22.090279" lon="-45.537577">
        <ele>1167.778</ele>
        <time>2019-10-15T19:27:47Z</time>
      </trkpt>
      <trkpt lat="-22.090340" lon="-45.537577">
        <ele>1167.748</ele>
        <time>2019-10-15T19:27:52Z</time>
      </trkpt>
      <trkpt lat="-22.090400" lon="-45.537604">
        <ele>1167.538</ele>
        <time>2019-10-15T19:27:55Z</time>
      </trkpt>
      <trkpt lat="-22.090447" lon="-45.537620">
        <ele>1167.993</ele>
        <time>2019-10-15T19:27:57Z</time>
      </trkpt>
      <trkpt lat="-22.090498" lon="-45.537624">
        <ele>1168.792</ele>
        <time>2019-10-15T19:28:01Z</time>
      </trkpt>
      <trkpt lat="-22.090546" lon="-45.537612">
        <ele>1169.732</ele>
        <time>2019-10-15T19:28:06Z</time>
      </trkpt>
      <trkpt lat="-22.090592" lon="-45.537594">
        <ele>1170.392</ele>
        <time>2019-10-15T19:28:09Z</time>
      </trkpt>
      <trkpt lat="-22.090631" lon="-45.537545">
        <ele>1170.811</ele>
        <time>2019-10-15T19:28:13Z</time>
      </trkpt>
      <trkpt lat="-22.090682" lon="-45.537522">
        <ele>1171.508</ele>
        <time>2019-10-15T19:28:18Z</time>
      </trkpt>
      <trkpt lat="-22.090753" lon="-45.537510">
        <ele>1172.027</ele>
        <time>2019-10-15T19:28:22Z</time>
      </trkpt>
      <trkpt lat="-22.090804" lon="-45.537500">
        <ele>1172.525</ele>
        <time>2019-10-15T19:28:28Z</time>
      </trkpt>
      <trkpt lat="-22.090850" lon="-45.537502">
        <ele>1173.598</ele>
        <time>2019-10-15T19:28:33Z</time>
      </trkpt>
      <trkpt lat="-22.090896" lon="-45.537514">
        <ele>1174.253</ele>
        <time>2019-10-15T19:28:37Z</time>
      </trkpt>
      <trkpt lat="-22.090968" lon="-45.537571">
        <ele>1176.013</ele>
        <time>2019-10-15T19:28:49Z</time>
      </trkpt>
      <trkpt lat="-22.091009" lon="-45.537612">
        <ele>1176.743</ele>
        <time>2019-10-15T19:28:53Z</time>
      </trkpt>
      <trkpt lat="-22.091052" lon="-45.537655">
        <ele>1177.148</ele>
        <time>2019-10-15T19:28:57Z</time>
      </trkpt>
      <trkpt lat="-22.091089" lon="-45.537695">
        <ele>1177.717</ele>
        <time>2019-10-15T19:29:02Z</time>
      </trkpt>
      <trkpt lat="-22.091123" lon="-45.537737">
        <ele>1178.659</ele>
        <time>2019-10-15T19:29:05Z</time>
      </trkpt>
      <trkpt lat="-22.091155" lon="-45.537778">
        <ele>1179.303</ele>
        <time>2019-10-15T19:29:11Z</time>
      </trkpt>
      <trkpt lat="-22.091187" lon="-45.537821">
        <ele>1180.023</ele>
        <time>2019-10-15T19:29:16Z</time>
      </trkpt>
      <trkpt lat="-22.091227" lon="-45.537872">
        <ele>1180.908</ele>
        <time>2019-10-15T19:29:23Z</time>
      </trkpt>
      <trkpt lat="-22.091259" lon="-45.537916">
        <ele>1181.719</ele>
        <time>2019-10-15T19:29:30Z</time>
      </trkpt>
      <trkpt lat="-22.091334" lon="-45.538015">
        <ele>1182.367</ele>
        <time>2019-10-15T19:29:40Z</time>
      </trkpt>
      <trkpt lat="-22.091402" lon="-45.538072">
        <ele>1182.510</ele>
        <time>2019-10-15T19:29:42Z</time>
      </trkpt>
      <trkpt lat="-22.091471" lon="-45.538134">
        <ele>1183.295</ele>
        <time>2019-10-15T19:29:46Z</time>
      </trkpt>
      <trkpt lat="-22.091512" lon="-45.538158">
        <ele>1183.815</ele>
        <time>2019-10-15T19:29:53Z</time>
      </trkpt>
      <trkpt lat="-22.091573" lon="-45.538155">
        <ele>1183.615</ele>
        <time>2019-10-15T19:29:55Z</time>
      </trkpt>
      <trkpt lat="-22.091635" lon="-45.538143">
        <ele>1184.020</ele>
        <time>2019-10-15T19:30:00Z</time>
      </trkpt>
      <trkpt lat="-22.091681" lon="-45.538133">
        <ele>1184.199</ele>
        <time>2019-10-15T19:30:03Z</time>
      </trkpt>
      <trkpt lat="-22.091734" lon="-45.538119">
        <ele>1184.165</ele>
        <time>2019-10-15T19:30:09Z</time>
      </trkpt>
      <trkpt lat="-22.091836" lon="-45.538033">
        <ele>1184.968</ele>
        <time>2019-10-15T19:30:15Z</time>
      </trkpt>
      <trkpt lat="-22.091878" lon="-45.538009">
        <ele>1185.014</ele>
        <time>2019-10-15T19:30:18Z</time>
      </trkpt>
      <trkpt lat="-22.091922" lon="-45.537986">
        <ele>1185.308</ele>
        <time>2019-10-15T19:30:21Z</time>
      </trkpt>
      <trkpt lat="-22.091976" lon="-45.537968">
        <ele>1186.050</ele>
        <time>2019-10-15T19:30:24Z</time>
      </trkpt>
      <trkpt lat="-22.092028" lon="-45.537948">
        <ele>1186.678</ele>
        <time>2019-10-15T19:30:29Z</time>
      </trkpt>
      <trkpt lat="-22.092083" lon="-45.537972">
        <ele>1187.051</ele>
        <time>2019-10-15T19:30:31Z</time>
      </trkpt>
      <trkpt lat="-22.092128" lon="-45.537983">
        <ele>1188.066</ele>
        <time>2019-10-15T19:30:33Z</time>
      </trkpt>
      <trkpt lat="-22.092175" lon="-45.537991">
        <ele>1189.236</ele>
        <time>2019-10-15T19:30:36Z</time>
      </trkpt>
      <trkpt lat="-22.092245" lon="-45.538028">
        <ele>1189.446</ele>
        <time>2019-10-15T19:30:44Z</time>
      </trkpt>
      <trkpt lat="-22.092300" lon="-45.538045">
        <ele>1189.941</ele>
        <time>2019-10-15T19:30:47Z</time>
      </trkpt>
      <trkpt lat="-22.092354" lon="-45.538061">
        <ele>1190.620</ele>
        <time>2019-10-15T19:30:53Z</time>
      </trkpt>
      <trkpt lat="-22.092431" lon="-45.538108">
        <ele>1191.446</ele>
        <time>2019-10-15T19:30:59Z</time>
      </trkpt>
      <trkpt lat="-22.092474" lon="-45.538137">
        <ele>1192.088</ele>
        <time>2019-10-15T19:31:02Z</time>
      </trkpt>
      <trkpt lat="-22.092516" lon="-45.538159">
        <ele>1192.516</ele>
        <time>2019-10-15T19:31:07Z</time>
      </trkpt>
      <trkpt lat="-22.092572" lon="-45.538190">
        <ele>1192.708</ele>
        <time>2019-10-15T19:31:14Z</time>
      </trkpt>
      <trkpt lat="-22.092618" lon="-45.538214">
        <ele>1192.948</ele>
        <time>2019-10-15T19:31:16Z</time>
      </trkpt>
      <trkpt lat="-22.092681" lon="-45.538235">
        <ele>1193.576</ele>
        <time>2019-10-15T19:31:21Z</time>
      </trkpt>
      <trkpt lat="-22.092742" lon="-45.538219">
        <ele>1193.949</ele>
        <time>2019-10-15T19:31:24Z</time>
      </trkpt>
      <trkpt lat="-22.092817" lon="-45.538168">
        <ele>1194.014</ele>
        <time>2019-10-15T19:32:51Z</time>
      </trkpt>
      <trkpt lat="-22.092874" lon="-45.538157">
        <ele>1194.584</ele>
        <time>2019-10-15T19:32:54Z</time>
      </trkpt>
      <trkpt lat="-22.092922" lon="-45.538156">
        <ele>1195.824</ele>
        <time>2019-10-15T19:33:03Z</time>
      </trkpt>
      <trkpt lat="-22.092969" lon="-45.538159">
        <ele>1196.659</ele>
        <time>2019-10-15T19:33:08Z</time>
      </trkpt>
      <trkpt lat="-22.093025" lon="-45.538156">
        <ele>1196.858</ele>
        <time>2019-10-15T19:33:10Z</time>
      </trkpt>
      <trkpt lat="-22.093093" lon="-45.538137">
        <ele>1196.846</ele>
        <time>2019-10-15T19:33:13Z</time>
      </trkpt>
      <trkpt lat="-22.093140" lon="-45.538129">
        <ele>1196.888</ele>
        <time>2019-10-15T19:33:19Z</time>
      </trkpt>
      <trkpt lat="-22.093245" lon="-45.538095">
        <ele>1197.116</ele>
        <time>2019-10-15T19:33:24Z</time>
      </trkpt>
      <trkpt lat="-22.093312" lon="-45.538092">
        <ele>1197.408</ele>
        <time>2019-10-15T19:33:28Z</time>
      </trkpt>
      <trkpt lat="-22.093371" lon="-45.538074">
        <ele>1197.778</ele>
        <time>2019-10-15T19:33:32Z</time>
      </trkpt>
      <trkpt lat="-22.093416" lon="-45.538077">
        <ele>1197.736</ele>
        <time>2019-10-15T19:33:35Z</time>
      </trkpt>
      <trkpt lat="-22.093474" lon="-45.538078">
        <ele>1198.119</ele>
        <time>2019-10-15T19:33:38Z</time>
      </trkpt>
      <trkpt lat="-22.093531" lon="-45.538083">
        <ele>1197.864</ele>
        <time>2019-10-15T19:33:40Z</time>
      </trkpt>
      <trkpt lat="-22.093583" lon="-45.538086">
        <ele>1197.744</ele>
        <time>2019-10-15T19:33:43Z</time>
      </trkpt>
      <trkpt lat="-22.093628" lon="-45.538091">
        <ele>1198.424</ele>
        <time>2019-10-15T19:33:45Z</time>
      </trkpt>
      <trkpt lat="-22.093678" lon="-45.538095">
        <ele>1199.389</ele>
        <time>2019-10-15T19:33:48Z</time>
      </trkpt>
      <trkpt lat="-22.093726" lon="-45.538105">
        <ele>1199.868</ele>
        <time>2019-10-15T19:33:50Z</time>
      </trkpt>
      <trkpt lat="-22.093777" lon="-45.538109">
        <ele>1200.893</ele>
        <time>2019-10-15T19:33:53Z</time>
      </trkpt>
      <trkpt lat="-22.093833" lon="-45.538118">
        <ele>1201.765</ele>
        <time>2019-10-15T19:33:58Z</time>
      </trkpt>
      <trkpt lat="-22.093882" lon="-45.538125">
        <ele>1202.121</ele>
        <time>2019-10-15T19:34:01Z</time>
      </trkpt>
      <trkpt lat="-22.093934" lon="-45.538150">
        <ele>1202.608</ele>
        <time>2019-10-15T19:34:05Z</time>
      </trkpt>
      <trkpt lat="-22.094009" lon="-45.538185">
        <ele>1203.453</ele>
        <time>2019-10-15T19:34:10Z</time>
      </trkpt>
      <trkpt lat="-22.094075" lon="-45.538218">
        <ele>1203.881</ele>
        <time>2019-10-15T19:34:16Z</time>
      </trkpt>
      <trkpt lat="-22.094130" lon="-45.538248">
        <ele>1204.094</ele>
        <time>2019-10-15T19:34:19Z</time>
      </trkpt>
      <trkpt lat="-22.094196" lon="-45.538275">
        <ele>1203.029</ele>
        <time>2019-10-15T19:34:23Z</time>
      </trkpt>
      <trkpt lat="-22.094251" lon="-45.538300">
        <ele>1202.039</ele>
        <time>2019-10-15T19:34:26Z</time>
      </trkpt>
      <trkpt lat="-22.094300" lon="-45.538329">
        <ele>1201.399</ele>
        <time>2019-10-15T19:34:27Z</time>
      </trkpt>
      <trkpt lat="-22.094970" lon="-45.538683">
        <ele>1191.154</ele>
        <time>2019-10-15T19:34:47Z</time>
      </trkpt>
      <trkpt lat="-22.094991" lon="-45.538630">
        <ele>1189.573</ele>
        <time>2019-10-15T19:34:49Z</time>
      </trkpt>
      <trkpt lat="-22.094969" lon="-45.538568">
        <ele>1188.014</ele>
        <time>2019-10-15T19:34:51Z</time>
      </trkpt>
      <trkpt lat="-22.101171" lon="-45.533551">
        <ele>1093.654</ele>
        <time>2019-10-15T19:37:01Z</time>
      </trkpt>
      <trkpt lat="-22.101226" lon="-45.533484">
        <ele>1093.609</ele>
        <time>2019-10-15T19:37:05Z</time>
      </trkpt>
      <trkpt lat="-22.101261" lon="-45.533439">
        <ele>1093.708</ele>
        <time>2019-10-15T19:37:07Z</time>
      </trkpt>
      <trkpt lat="-22.101311" lon="-45.533389">
        <ele>1093.445</ele>
        <time>2019-10-15T19:37:09Z</time>
      </trkpt>
      <trkpt lat="-22.101343" lon="-45.533336">
        <ele>1093.273</ele>
        <time>2019-10-15T19:37:11Z</time>
      </trkpt>
      <trkpt lat="-22.101377" lon="-45.533268">
        <ele>1092.496</ele>
        <time>2019-10-15T19:37:14Z</time>
      </trkpt>
      <trkpt lat="-22.101396" lon="-45.533200">
        <ele>1091.251</ele>
        <time>2019-10-15T19:37:16Z</time>
      </trkpt>
      <trkpt lat="-22.103654" lon="-45.528525">
        <ele>1038.141</ele>
        <time>2019-10-15T19:38:31Z</time>
      </trkpt>
      <trkpt lat="-22.103687" lon="-45.528482">
        <ele>1036.231</ele>
        <time>2019-10-15T19:39:25Z</time>
      </trkpt>
      <trkpt lat="-22.103771" lon="-45.528402">
        <ele>1034.126</ele>
        <time>2019-10-15T19:39:29Z</time>
      </trkpt>
      <trkpt lat="-22.103807" lon="-45.528351">
        <ele>1033.375</ele>
        <time>2019-10-15T19:39:31Z</time>
      </trkpt>
      <trkpt lat="-22.103859" lon="-45.528291">
        <ele>1032.555</ele>
        <time>2019-10-15T19:39:33Z</time>
      </trkpt>
      <trkpt lat="-22.103891" lon="-45.528254">
        <ele>1031.807</ele>
        <time>2019-10-15T19:39:35Z</time>
      </trkpt>
      <trkpt lat="-22.103931" lon="-45.528206">
        <ele>1030.017</ele>
        <time>2019-10-15T19:39:48Z</time>
      </trkpt>
      <trkpt lat="-22.105679" lon="-45.528217">
        <ele>957.208</ele>
        <time>2019-10-15T19:41:00Z</time>
      </trkpt>
      <trkpt lat="-22.105755" lon="-45.528725">
        <ele>947.519</ele>
        <time>2019-10-15T19:41:11Z</time>
      </trkpt>
      <trkpt lat="-22.106774" lon="-45.527953">
        <ele>921.687</ele>
        <time>2019-10-15T19:41:40Z</time>
      </trkpt>
      <trkpt lat="-22.106830" lon="-45.527843">
        <ele>918.330</ele>
        <time>2019-10-15T19:41:45Z</time>
      </trkpt>
      <trkpt lat="-22.106858" lon="-45.527775">
        <ele>917.615</ele>
        <time>2019-10-15T19:41:46Z</time>
      </trkpt>
      <trkpt lat="-22.106951" lon="-45.527686">
        <ele>915.495</ele>
        <time>2019-10-15T19:41:49Z</time>
      </trkpt>
      <trkpt lat="-22.107074" lon="-45.527961">
        <ele>915.695</ele>
        <time>2019-10-15T19:41:55Z</time>
      </trkpt>
      <trkpt lat="-22.107077" lon="-45.528031">
        <ele>917.290</ele>
        <time>2019-10-15T19:41:58Z</time>
      </trkpt>
      <trkpt lat="-22.107122" lon="-45.528079">
        <ele>918.119</ele>
        <time>2019-10-15T19:42:01Z</time>
      </trkpt>
      <trkpt lat="-22.107156" lon="-45.528118">
        <ele>918.991</ele>
        <time>2019-10-15T19:42:04Z</time>
      </trkpt>
      <trkpt lat="-22.107191" lon="-45.528156">
        <ele>920.381</ele>
        <time>2019-10-15T19:42:11Z</time>
      </trkpt>
      <trkpt lat="-22.107234" lon="-45.528189">
        <ele>921.519</ele>
        <time>2019-10-15T19:42:17Z</time>
      </trkpt>
      <trkpt lat="-22.107281" lon="-45.528206">
        <ele>923.208</ele>
        <time>2019-10-15T19:42:25Z</time>
      </trkpt>
      <trkpt lat="-22.107325" lon="-45.528224">
        <ele>924.093</ele>
        <time>2019-10-15T19:42:28Z</time>
      </trkpt>
      <trkpt lat="-22.107381" lon="-45.528240">
        <ele>924.571</ele>
        <time>2019-10-15T19:42:30Z</time>
      </trkpt>
      <trkpt lat="-22.107432" lon="-45.528251">
        <ele>925.754</ele>
        <time>2019-10-15T19:42:43Z</time>
      </trkpt>
      <trkpt lat="-22.107503" lon="-45.528172">
        <ele>924.779</ele>
        <time>2019-10-15T19:43:05Z</time>
      </trkpt>
      <trkpt lat="-22.107531" lon="-45.528130">
        <ele>924.159</ele>
        <time>2019-10-15T19:43:07Z</time>
      </trkpt>
      <trkpt lat="-22.107558" lon="-45.528081">
        <ele>923.629</ele>
        <time>2019-10-15T19:43:10Z</time>
      </trkpt>
      <trkpt lat="-22.107661" lon="-45.528096">
        <ele>922.044</ele>
        <time>2019-10-15T19:43:13Z</time>
      </trkpt>
      <trkpt lat="-22.115983" lon="-45.527505">
        <ele>882.973</ele>
        <time>2019-10-15T19:45:34Z</time>
      </trkpt>
      <trkpt lat="-22.116031" lon="-45.527497">
        <ele>883.276</ele>
        <time>2019-10-15T19:45:37Z</time>
      </trkpt>
      <trkpt lat="-22.116087" lon="-45.527474">
        <ele>884.290</ele>
        <time>2019-10-15T19:45:41Z</time>
      </trkpt>
      <trkpt lat="-22.116136" lon="-45.527466">
        <ele>884.919</ele>
        <time>2019-10-15T19:45:45Z</time>
      </trkpt>
      <trkpt lat="-22.116181" lon="-45.527461">
        <ele>885.508</ele>
        <time>2019-10-15T19:45:48Z</time>
      </trkpt>
      <trkpt lat="-22.118064" lon="-45.518934">
        <ele>885.831</ele>
        <time>2019-10-15T19:45:59Z</time>
      </trkpt>
      <trkpt lat="-22.116181" lon="-45.527442">
        <ele>885.759</ele>
        <time>2019-10-15T19:46:00Z</time>
      </trkpt>
      <trkpt lat="-22.116183" lon="-45.527369">
        <ele>885.322</ele>
        <time>2019-10-15T19:46:03Z</time>
      </trkpt>
      <trkpt lat="-22.116184" lon="-45.527263">
        <ele>884.117</ele>
        <time>2019-10-15T19:46:06Z</time>
      </trkpt>
      <trkpt lat="-22.116160" lon="-45.527207">
        <ele>884.177</ele>
        <time>2019-10-15T19:46:07Z</time>
      </trkpt>
      <trkpt lat="-22.116709" lon="-45.525221">
        <ele>883.847</ele>
        <time>2019-10-15T19:46:59Z</time>
      </trkpt>
      <trkpt lat="-22.116746" lon="-45.525183">
        <ele>884.032</ele>
        <time>2019-10-15T19:47:01Z</time>
      </trkpt>
      <trkpt lat="-22.116796" lon="-45.525117">
        <ele>883.931</ele>
        <time>2019-10-15T19:47:04Z</time>
      </trkpt>
      <trkpt lat="-22.116842" lon="-45.525041">
        <ele>883.819</ele>
        <time>2019-10-15T19:47:06Z</time>
      </trkpt>
      <trkpt lat="-22.116860" lon="-45.524991">
        <ele>883.409</ele>
        <time>2019-10-15T19:47:08Z</time>
      </trkpt>
      <trkpt lat="-22.116871" lon="-45.524933">
        <ele>883.819</ele>
        <time>2019-10-15T19:47:10Z</time>
      </trkpt>
      <trkpt lat="-22.116887" lon="-45.524878">
        <ele>884.208</ele>
        <time>2019-10-15T19:47:12Z</time>
      </trkpt>
      <trkpt lat="-22.116901" lon="-45.524831">
        <ele>884.885</ele>
        <time>2019-10-15T19:47:14Z</time>
      </trkpt>
      <trkpt lat="-22.116913" lon="-45.524777">
        <ele>884.573</ele>
        <time>2019-10-15T19:47:15Z</time>
      </trkpt>
      <trkpt lat="-22.116928" lon="-45.524718">
        <ele>884.656</ele>
        <time>2019-10-15T19:47:18Z</time>
      </trkpt>
      <trkpt lat="-22.116939" lon="-45.524652">
        <ele>885.071</ele>
        <time>2019-10-15T19:47:21Z</time>
      </trkpt>
      <trkpt lat="-22.116951" lon="-45.524594">
        <ele>885.641</ele>
        <time>2019-10-15T19:47:23Z</time>
      </trkpt>
      <trkpt lat="-22.116971" lon="-45.524510">
        <ele>886.691</ele>
        <time>2019-10-15T19:47:26Z</time>
      </trkpt>
      <trkpt lat="-22.116991" lon="-45.524425">
        <ele>887.836</ele>
        <time>2019-10-15T19:47:30Z</time>
      </trkpt>
      <trkpt lat="-22.117006" lon="-45.524349">
        <ele>888.425</ele>
        <time>2019-10-15T19:47:33Z</time>
      </trkpt>
      <trkpt lat="-22.117016" lon="-45.524297">
        <ele>888.421</ele>
        <time>2019-10-15T19:47:36Z</time>
      </trkpt>
      <trkpt lat="-22.117038" lon="-45.524220">
        <ele>888.741</ele>
        <time>2019-10-15T19:47:39Z</time>
      </trkpt>
      <trkpt lat="-22.117060" lon="-45.524144">
        <ele>889.705</ele>
        <time>2019-10-15T19:47:42Z</time>
      </trkpt>
      <trkpt lat="-22.117068" lon="-45.524091">
        <ele>890.508</ele>
        <time>2019-10-15T19:47:46Z</time>
      </trkpt>
      <trkpt lat="-22.117083" lon="-45.524029">
        <ele>890.636</ele>
        <time>2019-10-15T19:47:49Z</time>
      </trkpt>
      <trkpt lat="-22.117096" lon="-45.523969">
        <ele>890.834</ele>
        <time>2019-10-15T19:47:52Z</time>
      </trkpt>
      <trkpt lat="-22.117106" lon="-45.523912">
        <ele>890.937</ele>
        <time>2019-10-15T19:47:55Z</time>
      </trkpt>
      <trkpt lat="-22.117118" lon="-45.523863">
        <ele>891.532</ele>
        <time>2019-10-15T19:47:56Z</time>
      </trkpt>
      <trkpt lat="-22.117123" lon="-45.523810">
        <ele>891.772</ele>
        <time>2019-10-15T19:48:00Z</time>
      </trkpt>
      <trkpt lat="-22.117140" lon="-45.523757">
        <ele>892.032</ele>
        <time>2019-10-15T19:48:03Z</time>
      </trkpt>
      <trkpt lat="-22.117149" lon="-45.523709">
        <ele>892.427</ele>
        <time>2019-10-15T19:48:05Z</time>
      </trkpt>
      <trkpt lat="-22.117163" lon="-45.523661">
        <ele>892.616</ele>
        <time>2019-10-15T19:48:08Z</time>
      </trkpt>
      <trkpt lat="-22.117182" lon="-45.523614">
        <ele>892.922</ele>
        <time>2019-10-15T19:48:10Z</time>
      </trkpt>
      <trkpt lat="-22.117182" lon="-45.523614">
        <ele>892.962</ele>
        <time>2019-10-15T19:48:10Z</time>
      </trkpt>
      <trkpt lat="-22.117197" lon="-45.523533">
        <ele>893.208</ele>
        <time>2019-10-15T19:48:14Z</time>
      </trkpt>
      <trkpt lat="-22.117204" lon="-45.523484">
        <ele>893.008</ele>
        <time>2019-10-15T19:48:16Z</time>
      </trkpt>
      <trkpt lat="-22.117217" lon="-45.523430">
        <ele>892.826</ele>
        <time>2019-10-15T19:48:19Z</time>
      </trkpt>
      <trkpt lat="-22.117240" lon="-45.523337">
        <ele>893.164</ele>
        <time>2019-10-15T19:48:23Z</time>
      </trkpt>
      <trkpt lat="-22.117272" lon="-45.523233">
        <ele>893.427</ele>
        <time>2019-10-15T19:48:27Z</time>
      </trkpt>
      <trkpt lat="-22.117296" lon="-45.523128">
        <ele>893.352</ele>
        <time>2019-10-15T19:48:31Z</time>
      </trkpt>
      <trkpt lat="-22.117308" lon="-45.523076">
        <ele>893.032</ele>
        <time>2019-10-15T19:48:32Z</time>
      </trkpt>
      <trkpt lat="-22.117330" lon="-45.523018">
        <ele>892.782</ele>
        <time>2019-10-15T19:48:34Z</time>
      </trkpt>
      <trkpt lat="-22.117346" lon="-45.522957">
        <ele>892.447</ele>
        <time>2019-10-15T19:48:35Z</time>
      </trkpt>
      <trkpt lat="-22.117565" lon="-45.520531">
        <ele>891.016</ele>
        <time>2019-10-15T19:49:16Z</time>
      </trkpt>
      <trkpt lat="-22.117550" lon="-45.520485">
        <ele>891.398</ele>
        <time>2019-10-15T19:49:17Z</time>
      </trkpt>
      <trkpt lat="-22.117517" lon="-45.520394">
        <ele>892.015</ele>
        <time>2019-10-15T19:49:21Z</time>
      </trkpt>
      <trkpt lat="-22.117492" lon="-45.520331">
        <ele>892.226</ele>
        <time>2019-10-15T19:49:24Z</time>
      </trkpt>
      <trkpt lat="-22.117458" lon="-45.520251">
        <ele>892.908</ele>
        <time>2019-10-15T19:49:28Z</time>
      </trkpt>
      <trkpt lat="-22.117452" lon="-45.520205">
        <ele>892.823</ele>
        <time>2019-10-15T19:44:38Z</time>
      </trkpt>
      <trkpt lat="-22.117437" lon="-45.520154">
        <ele>892.951</ele>
        <time>2019-10-15T19:49:33Z</time>
      </trkpt>
      <trkpt lat="-22.117349" lon="-45.519909">
        <ele>893.614</ele>
        <time>2019-10-15T19:49:44Z</time>
      </trkpt>
      <trkpt lat="-22.117338" lon="-45.519853">
        <ele>893.869</ele>
        <time>2019-10-15T19:49:45Z</time>
      </trkpt>
      <trkpt lat="-22.117323" lon="-45.519795">
        <ele>893.639</ele>
        <time>2019-10-15T19:49:48Z</time>
      </trkpt>
      <trkpt lat="-22.117306" lon="-45.519717">
        <ele>893.439</ele>
        <time>2019-10-15T19:49:51Z</time>
      </trkpt>
      <trkpt lat="-22.117297" lon="-45.519633">
        <ele>893.664</ele>
        <time>2019-10-15T19:49:54Z</time>
      </trkpt>
      <trkpt lat="-22.117290" lon="-45.519545">
        <ele>893.623</ele>
        <time>2019-10-15T19:49:56Z</time>
      </trkpt>
      <trkpt lat="-22.117297" lon="-45.519448">
        <ele>893.646</ele>
        <time>2019-10-15T19:49:59Z</time>
      </trkpt>
      <trkpt lat="-22.117309" lon="-45.519367">
        <ele>893.688</ele>
        <time>2019-10-15T19:50:01Z</time>
      </trkpt>
      <trkpt lat="-22.117331" lon="-45.519239">
        <ele>893.616</ele>
        <time>2019-10-15T19:50:06Z</time>
      </trkpt>
      <trkpt lat="-22.117375" lon="-45.519078">
        <ele>893.908</ele>
        <time>2019-10-15T19:50:10Z</time>
      </trkpt>
      <trkpt lat="-22.117405" lon="-45.519007">
        <ele>893.918</ele>
        <time>2019-10-15T19:50:13Z</time>
      </trkpt>
      <trkpt lat="-22.117422" lon="-45.518960">
        <ele>894.016</ele>
        <time>2019-10-15T19:50:14Z</time>
      </trkpt>
      <trkpt lat="-22.117451" lon="-45.518888">
        <ele>894.299</ele>
        <time>2019-10-15T19:50:16Z</time>
      </trkpt>
      <trkpt lat="-22.117481" lon="-45.518780">
        <ele>894.124</ele>
        <time>2019-10-15T19:50:20Z</time>
      </trkpt>
      <trkpt lat="-22.117538" lon="-45.518609">
        <ele>894.514</ele>
        <time>2019-10-15T19:50:26Z</time>
      </trkpt>
      <trkpt lat="-22.117555" lon="-45.518555">
        <ele>894.564</ele>
        <time>2019-10-15T19:50:28Z</time>
      </trkpt>
      <trkpt lat="-22.117590" lon="-45.518477">
        <ele>894.319</ele>
        <time>2019-10-15T19:50:31Z</time>
      </trkpt>
      <trkpt lat="-22.117631" lon="-45.518387">
        <ele>894.138</ele>
        <time>2019-10-15T19:50:34Z</time>
      </trkpt>
      <trkpt lat="-22.117661" lon="-45.518318">
        <ele>894.398</ele>
        <time>2019-10-15T19:50:36Z</time>
      </trkpt>
      <trkpt lat="-22.117692" lon="-45.518240">
        <ele>894.615</ele>
        <time>2019-10-15T19:50:39Z</time>
      </trkpt>
      <trkpt lat="-22.117716" lon="-45.518137">
        <ele>894.226</ele>
        <time>2019-10-15T19:50:42Z</time>
      </trkpt>
      <trkpt lat="-22.117730" lon="-45.518089">
        <ele>894.008</ele>
        <time>2019-10-15T19:50:43Z</time>
      </trkpt>
      <trkpt lat="-22.117744" lon="-45.518040">
        <ele>894.043</ele>
        <time>2019-10-15T19:50:45Z</time>
      </trkpt>
      <trkpt lat="-22.117757" lon="-45.517991">
        <ele>894.051</ele>
        <time>2019-10-15T19:50:47Z</time>
      </trkpt>
      <trkpt lat="-22.117774" lon="-45.517935">
        <ele>894.184</ele>
        <time>2019-10-15T19:50:49Z</time>
      </trkpt>
      <trkpt lat="-22.117808" lon="-45.517868">
        <ele>894.139</ele>
        <time>2019-10-15T19:50:52Z</time>
      </trkpt>
      <trkpt lat="-22.117831" lon="-45.517825">
        <ele>894.289</ele>
        <time>2019-10-15T19:50:53Z</time>
      </trkpt>
      <trkpt lat="-22.117849" lon="-45.517775">
        <ele>894.199</ele>
        <time>2019-10-15T19:50:55Z</time>
      </trkpt>
      <trkpt lat="-22.117894" lon="-45.517655">
        <ele>894.084</ele>
        <time>2019-10-15T19:50:59Z</time>
      </trkpt>
      <trkpt lat="-22.117915" lon="-45.517606">
        <ele>894.213</ele>
        <time>2019-10-15T19:51:00Z</time>
      </trkpt>
      <trkpt lat="-22.117938" lon="-45.517556">
        <ele>894.081</ele>
        <time>2019-10-15T19:51:02Z</time>
      </trkpt>
      <trkpt lat="-22.117969" lon="-45.517489">
        <ele>893.861</ele>
        <time>2019-10-15T19:51:04Z</time>
      </trkpt>
      <trkpt lat="-22.117997" lon="-45.517421">
        <ele>893.817</ele>
        <time>2019-10-15T19:51:06Z</time>
      </trkpt>
      <trkpt lat="-22.118017" lon="-45.517363">
        <ele>893.508</ele>
        <time>2019-10-15T19:51:08Z</time>
      </trkpt>
      <trkpt lat="-22.118041" lon="-45.517285">
        <ele>893.332</ele>
        <time>2019-10-15T19:51:10Z</time>
      </trkpt>
      <trkpt lat="-22.118065" lon="-45.517198">
        <ele>893.110</ele>
        <time>2019-10-15T19:51:12Z</time>
      </trkpt>
      <trkpt lat="-22.118082" lon="-45.517133">
        <ele>893.183</ele>
        <time>2019-10-15T19:51:14Z</time>
      </trkpt>
      <trkpt lat="-22.118095" lon="-45.517071">
        <ele>893.188</ele>
        <time>2019-10-15T19:51:15Z</time>
      </trkpt>
      <trkpt lat="-22.118103" lon="-45.517016">
        <ele>893.378</ele>
        <time>2019-10-15T19:51:17Z</time>
      </trkpt>
      <trkpt lat="-22.118103" lon="-45.516966">
        <ele>893.468</ele>
        <time>2019-10-15T19:51:19Z</time>
      </trkpt>
      <trkpt lat="-22.118103" lon="-45.516908">
        <ele>893.223</ele>
        <time>2019-10-15T19:51:20Z</time>
      </trkpt>
      <trkpt lat="-22.118101" lon="-45.516846">
        <ele>893.022</ele>
        <time>2019-10-15T19:51:23Z</time>
      </trkpt>
      <trkpt lat="-22.118089" lon="-45.516791">
        <ele>892.456</ele>
        <time>2019-10-15T19:51:25Z</time>
      </trkpt>
      <trkpt lat="-22.118077" lon="-45.516732">
        <ele>892.159</ele>
        <time>2019-10-15T19:51:28Z</time>
      </trkpt>
      <trkpt lat="-22.117961" lon="-45.516231">
        <ele>889.614</ele>
        <time>2019-10-15T19:51:39Z</time>
      </trkpt>
      <trkpt lat="-22.117950" lon="-45.516170">
        <ele>889.508</ele>
        <time>2019-10-15T19:51:41Z</time>
      </trkpt>
      <trkpt lat="-22.117947" lon="-45.516101">
        <ele>889.419</ele>
        <time>2019-10-15T19:51:43Z</time>
      </trkpt>
      <trkpt lat="-22.117945" lon="-45.516029">
        <ele>889.517</ele>
        <time>2019-10-15T19:51:45Z</time>
      </trkpt>
      <trkpt lat="-22.117946" lon="-45.515975">
        <ele>889.830</ele>
        <time>2019-10-15T19:51:46Z</time>
      </trkpt>
      <trkpt lat="-22.117950" lon="-45.515926">
        <ele>889.515</ele>
        <time>2019-10-15T19:51:50Z</time>
      </trkpt>
      <trkpt lat="-22.117951" lon="-45.515853">
        <ele>888.295</ele>
        <time>2019-10-15T19:51:54Z</time>
      </trkpt>
      <trkpt lat="-22.117882" lon="-45.514894">
        <ele>888.285</ele>
        <time>2019-10-15T19:52:12Z</time>
      </trkpt>
      <trkpt lat="-22.117872" lon="-45.514776">
        <ele>888.880</ele>
        <time>2019-10-15T19:52:14Z</time>
      </trkpt>
      <trkpt lat="-22.117886" lon="-45.514728">
        <ele>889.179</ele>
        <time>2019-10-15T19:52:16Z</time>
      </trkpt>
      <trkpt lat="-22.117913" lon="-45.514673">
        <ele>889.828</ele>
        <time>2019-10-15T19:52:19Z</time>
      </trkpt>
      <trkpt lat="-22.117939" lon="-45.514633">
        <ele>890.789</ele>
        <time>2019-10-15T19:52:23Z</time>
      </trkpt>
      <trkpt lat="-22.117959" lon="-45.514577">
        <ele>891.617</ele>
        <time>2019-10-15T19:52:27Z</time>
      </trkpt>
      <trkpt lat="-22.117973" lon="-45.514518">
        <ele>892.408</ele>
        <time>2019-10-15T19:52:34Z</time>
      </trkpt>
      <trkpt lat="-22.117996" lon="-45.514471">
        <ele>893.466</ele>
        <time>2019-10-15T19:52:40Z</time>
      </trkpt>
      <trkpt lat="-22.118021" lon="-45.514427">
        <ele>893.764</ele>
        <time>2019-10-15T19:52:43Z</time>
      </trkpt>
      <trkpt lat="-22.118057" lon="-45.514369">
        <ele>894.147</ele>
        <time>2019-10-15T19:52:45Z</time>
      </trkpt>
      <trkpt lat="-22.118087" lon="-45.514323">
        <ele>894.282</ele>
        <time>2019-10-15T19:52:47Z</time>
      </trkpt>
      <trkpt lat="-22.118120" lon="-45.514277">
        <ele>894.832</ele>
        <time>2019-10-15T19:52:50Z</time>
      </trkpt>
      <trkpt lat="-22.118147" lon="-45.514235">
        <ele>895.722</ele>
        <time>2019-10-15T19:52:54Z</time>
      </trkpt>
      <trkpt lat="-22.118171" lon="-45.514189">
        <ele>896.387</ele>
        <time>2019-10-15T19:52:59Z</time>
      </trkpt>
      <trkpt lat="-22.118203" lon="-45.514133">
        <ele>896.826</ele>
        <time>2019-10-15T19:53:01Z</time>
      </trkpt>
      <trkpt lat="-22.118229" lon="-45.514090">
        <ele>897.198</ele>
        <time>2019-10-15T19:53:04Z</time>
      </trkpt>
      <trkpt lat="-22.118249" lon="-45.514043">
        <ele>897.415</ele>
        <time>2019-10-15T19:53:06Z</time>
      </trkpt>
      <trkpt lat="-22.118286" lon="-45.513992">
        <ele>897.926</ele>
        <time>2019-10-15T19:53:11Z</time>
      </trkpt>
      <trkpt lat="-22.118319" lon="-45.513946">
        <ele>898.708</ele>
        <time>2019-10-15T19:53:16Z</time>
      </trkpt>
      <trkpt lat="-22.118347" lon="-45.513897">
        <ele>899.073</ele>
        <time>2019-10-15T19:53:21Z</time>
      </trkpt>
      <trkpt lat="-22.118375" lon="-45.513854">
        <ele>899.711</ele>
        <time>2019-10-15T19:53:24Z</time>
      </trkpt>
      <trkpt lat="-22.118416" lon="-45.513800">
        <ele>900.354</ele>
        <time>2019-10-15T19:56:06Z</time>
      </trkpt>
      <trkpt lat="-22.118406" lon="-45.513857">
        <ele>900.249</ele>
        <time>2019-10-15T19:57:01Z</time>
      </trkpt>
      <trkpt lat="-22.118437" lon="-45.513807">
        <ele>899.819</ele>
        <time>2019-10-15T19:57:21Z</time>
      </trkpt>
      <trkpt lat="-22.118392" lon="-45.513811">
        <ele>899.539</ele>
        <time>2019-10-15T19:57:47Z</time>
      </trkpt>
      <trkpt lat="-22.118378" lon="-45.513861">
        <ele>899.184</ele>
        <time>2019-10-15T20:08:40Z</time>
      </trkpt>
      <trkpt lat="-22.118338" lon="-45.513886">
        <ele>898.493</ele>
        <time>2019-10-15T20:08:43Z</time>
      </trkpt>
      <trkpt lat="-22.118292" lon="-45.513889">
        <ele>898.788</ele>
        <time>2019-10-15T20:08:45Z</time>
      </trkpt>
      <trkpt lat="-22.118239" lon="-45.513872">
        <ele>898.724</ele>
        <time>2019-10-15T20:08:47Z</time>
      </trkpt>
      <trkpt lat="-22.118188" lon="-45.513825">
        <ele>898.726</ele>
        <time>2019-10-15T20:08:52Z</time>
      </trkpt>
      <trkpt lat="-22.118148" lon="-45.513789">
        <ele>899.008</ele>
        <time>2019-10-15T20:08:54Z</time>
      </trkpt>
      <trkpt lat="-22.118131" lon="-45.513724">
        <ele>899.262</ele>
        <time>2019-10-15T20:08:58Z</time>
      </trkpt>
      <trkpt lat="-22.118109" lon="-45.513664">
        <ele>898.730</ele>
        <time>2019-10-15T20:09:23Z</time>
      </trkpt>
      <trkpt lat="-22.118097" lon="-45.513591">
        <ele>898.073</ele>
        <time>2019-10-15T20:10:33Z</time>
      </trkpt>
      <trkpt lat="-22.118100" lon="-45.513517">
        <ele>897.678</ele>
        <time>2019-10-15T20:10:35Z</time>
      </trkpt>
      <trkpt lat="-22.118104" lon="-45.513236">
        <ele>895.538</ele>
        <time>2019-10-15T20:10:41Z</time>
      </trkpt>
      <trkpt lat="-22.118100" lon="-45.513173">
        <ele>895.158</ele>
        <time>2019-10-15T20:10:44Z</time>
      </trkpt>
      <trkpt lat="-22.118114" lon="-45.513109">
        <ele>895.383</ele>
        <time>2019-10-15T20:10:45Z</time>
      </trkpt>
      <trkpt lat="-22.118124" lon="-45.513047">
        <ele>895.612</ele>
        <time>2019-10-15T20:10:47Z</time>
      </trkpt>
      <trkpt lat="-22.118136" lon="-45.512940">
        <ele>895.128</ele>
        <time>2019-10-15T20:10:50Z</time>
      </trkpt>
      <trkpt lat="-22.118138" lon="-45.512885">
        <ele>894.889</ele>
        <time>2019-10-15T20:10:51Z</time>
      </trkpt>
      <trkpt lat="-22.118119" lon="-45.512830">
        <ele>894.717</ele>
        <time>2019-10-15T20:10:54Z</time>
      </trkpt>
      <trkpt lat="-22.118096" lon="-45.512784">
        <ele>894.908</ele>
        <time>2019-10-15T20:10:55Z</time>
      </trkpt>
      <trkpt lat="-22.118076" lon="-45.512739">
        <ele>894.836</ele>
        <time>2019-10-15T20:10:57Z</time>
      </trkpt>
      <trkpt lat="-22.118053" lon="-45.512679">
        <ele>894.334</ele>
        <time>2019-10-15T20:10:59Z</time>
      </trkpt>
      <trkpt lat="-22.118022" lon="-45.512606">
        <ele>894.027</ele>
        <time>2019-10-15T20:11:02Z</time>
      </trkpt>
      <trkpt lat="-22.118007" lon="-45.512555">
        <ele>893.292</ele>
        <time>2019-10-15T20:11:03Z</time>
      </trkpt>
      <trkpt lat="-22.117984" lon="-45.512477">
        <ele>893.312</ele>
        <time>2019-10-15T20:11:05Z</time>
      </trkpt>
      <trkpt lat="-22.117962" lon="-45.512414">
        <ele>893.342</ele>
        <time>2019-10-15T20:11:07Z</time>
      </trkpt>
      <trkpt lat="-22.117950" lon="-45.512366">
        <ele>893.177</ele>
        <time>2019-10-15T20:11:09Z</time>
      </trkpt>
      <trkpt lat="-22.117938" lon="-45.512309">
        <ele>893.656</ele>
        <time>2019-10-15T20:11:11Z</time>
      </trkpt>
      <trkpt lat="-22.117922" lon="-45.512244">
        <ele>893.364</ele>
        <time>2019-10-15T20:11:14Z</time>
      </trkpt>
      <trkpt lat="-22.117920" lon="-45.512191">
        <ele>893.206</ele>
        <time>2019-10-15T20:11:16Z</time>
      </trkpt>
      <trkpt lat="-22.117931" lon="-45.512139">
        <ele>892.716</ele>
        <time>2019-10-15T20:11:19Z</time>
      </trkpt>
      <trkpt lat="-22.117885" lon="-45.512095">
        <ele>892.208</ele>
        <time>2019-10-15T20:11:23Z</time>
      </trkpt>
      <trkpt lat="-22.117803" lon="-45.512064">
        <ele>890.560</ele>
        <time>2019-10-15T20:11:48Z</time>
      </trkpt>
      <trkpt lat="-22.117705" lon="-45.511995">
        <ele>889.728</ele>
        <time>2019-10-15T20:11:52Z</time>
      </trkpt>
      <trkpt lat="-22.117373" lon="-45.512010">
        <ele>889.041</ele>
        <time>2019-10-15T20:12:00Z</time>
      </trkpt>
      <trkpt lat="-22.117311" lon="-45.512014">
        <ele>889.036</ele>
        <time>2019-10-15T20:12:02Z</time>
      </trkpt>
      <trkpt lat="-22.117253" lon="-45.512019">
        <ele>889.636</ele>
        <time>2019-10-15T20:12:03Z</time>
      </trkpt>
      <trkpt lat="-22.117202" lon="-45.512025">
        <ele>889.776</ele>
        <time>2019-10-15T20:12:05Z</time>
      </trkpt>
      <trkpt lat="-22.117123" lon="-45.512041">
        <ele>890.111</ele>
        <time>2019-10-15T20:12:07Z</time>
      </trkpt>
      <trkpt lat="-22.117065" lon="-45.512047">
        <ele>890.010</ele>
        <time>2019-10-15T20:12:09Z</time>
      </trkpt>
      <trkpt lat="-22.117003" lon="-45.512051">
        <ele>890.236</ele>
        <time>2019-10-15T20:12:11Z</time>
      </trkpt>
      <trkpt lat="-22.116955" lon="-45.512055">
        <ele>890.517</ele>
        <time>2019-10-15T20:12:13Z</time>
      </trkpt>
      <trkpt lat="-22.116898" lon="-45.512055">
        <ele>890.818</ele>
        <time>2019-10-15T20:12:16Z</time>
      </trkpt>
      <trkpt lat="-22.116847" lon="-45.512041">
        <ele>892.008</ele>
        <time>2019-10-15T20:12:20Z</time>
      </trkpt>
      <trkpt lat="-22.116790" lon="-45.512029">
        <ele>893.137</ele>
        <time>2019-10-15T20:12:26Z</time>
      </trkpt>
      <trkpt lat="-22.119375" lon="-45.512730">
        <ele>894.275</ele>
        <time>2019-10-15T20:12:35Z</time>
      </trkpt>
      <trkpt lat="-22.117201" lon="-45.512050">
        <ele>894.688</ele>
        <time>2019-10-15T20:12:38Z</time>
      </trkpt>
      <trkpt lat="-22.117146" lon="-45.512038">
        <ele>895.073</ele>
        <time>2019-10-15T20:12:42Z</time>
      </trkpt>
      <trkpt lat="-22.117040" lon="-45.512024">
        <ele>895.383</ele>
        <time>2019-10-15T20:12:43Z</time>
      </trkpt>
      <trkpt lat="-22.116869" lon="-45.511999">
        <ele>895.773</ele>
        <time>2019-10-15T20:12:46Z</time>
      </trkpt>
      <trkpt lat="-22.116812" lon="-45.511991">
        <ele>896.248</ele>
        <time>2019-10-15T20:12:48Z</time>
      </trkpt>
      <trkpt lat="-22.116756" lon="-45.511994">
        <ele>896.397</ele>
        <time>2019-10-15T20:12:49Z</time>
      </trkpt>
      <trkpt lat="-22.116697" lon="-45.511999">
        <ele>896.815</ele>
        <time>2019-10-15T20:12:51Z</time>
      </trkpt>
      <trkpt lat="-22.116651" lon="-45.511993">
        <ele>897.865</ele>
        <time>2019-10-15T20:12:57Z</time>
      </trkpt>
      <trkpt lat="-22.116604" lon="-45.511966">
        <ele>898.911</ele>
        <time>2019-10-15T20:13:04Z</time>
      </trkpt>
      <trkpt lat="-22.116541" lon="-45.511955">
        <ele>899.008</ele>
        <time>2019-10-15T20:13:07Z</time>
      </trkpt>
      <trkpt lat="-22.116492" lon="-45.511939">
        <ele>899.815</ele>
        <time>2019-10-15T20:13:11Z</time>
      </trkpt>
      <trkpt lat="-22.116455" lon="-45.511910">
        <ele>900.383</ele>
        <time>2019-10-15T20:13:14Z</time>
      </trkpt>
      <trkpt lat="-22.116415" lon="-45.511861">
        <ele>900.756</ele>
        <time>2019-10-15T20:13:19Z</time>
      </trkpt>
      <trkpt lat="-22.116382" lon="-45.511814">
        <ele>901.271</ele>
        <time>2019-10-15T20:13:22Z</time>
      </trkpt>
      <trkpt lat="-22.116356" lon="-45.511766">
        <ele>901.641</ele>
        <time>2019-10-15T20:13:28Z</time>
      </trkpt>
      <trkpt lat="-22.116333" lon="-45.511716">
        <ele>902.031</ele>
        <time>2019-10-15T20:13:31Z</time>
      </trkpt>
      <trkpt lat="-22.116329" lon="-45.511650">
        <ele>902.276</ele>
        <time>2019-10-15T20:13:35Z</time>
      </trkpt>
      <trkpt lat="-22.116316" lon="-45.511597">
        <ele>902.675</ele>
        <time>2019-10-15T20:13:39Z</time>
      </trkpt>
      <trkpt lat="-22.116311" lon="-45.511527">
        <ele>903.134</ele>
        <time>2019-10-15T20:13:43Z</time>
      </trkpt>
      <trkpt lat="-22.116332" lon="-45.511481">
        <ele>902.655</ele>
        <time>2019-10-15T20:13:46Z</time>
      </trkpt>
      <trkpt lat="-22.116377" lon="-45.511404">
        <ele>902.110</ele>
        <time>2019-10-15T20:13:49Z</time>
      </trkpt>
      <trkpt lat="-22.116414" lon="-45.511358">
        <ele>901.608</ele>
        <time>2019-10-15T20:13:51Z</time>
      </trkpt>
      <trkpt lat="-22.116834" lon="-45.509932">
        <ele>897.927</ele>
        <time>2019-10-15T20:14:22Z</time>
      </trkpt>
      <trkpt lat="-22.116816" lon="-45.509869">
        <ele>898.235</ele>
        <time>2019-10-15T20:14:24Z</time>
      </trkpt>
      <trkpt lat="-22.116818" lon="-45.509786">
        <ele>898.258</ele>
        <time>2019-10-15T20:14:26Z</time>
      </trkpt>
      <trkpt lat="-22.116813" lon="-45.509726">
        <ele>898.643</ele>
        <time>2019-10-15T20:14:28Z</time>
      </trkpt>
      <trkpt lat="-22.116800" lon="-45.509679">
        <ele>898.913</ele>
        <time>2019-10-15T20:14:30Z</time>
      </trkpt>
      <trkpt lat="-22.116786" lon="-45.509629">
        <ele>899.043</ele>
        <time>2019-10-15T20:14:31Z</time>
      </trkpt>
      <trkpt lat="-22.116770" lon="-45.509562">
        <ele>899.828</ele>
        <time>2019-10-15T20:14:33Z</time>
      </trkpt>
      <trkpt lat="-22.116745" lon="-45.509494">
        <ele>900.067</ele>
        <time>2019-10-15T20:14:36Z</time>
      </trkpt>
      <trkpt lat="-22.116713" lon="-45.509423">
        <ele>900.075</ele>
        <time>2019-10-15T20:14:38Z</time>
      </trkpt>
      <trkpt lat="-22.116699" lon="-45.509368">
        <ele>900.028</ele>
        <time>2019-10-15T20:14:40Z</time>
      </trkpt>
      <trkpt lat="-22.116681" lon="-45.509311">
        <ele>900.720</ele>
        <time>2019-10-15T20:14:42Z</time>
      </trkpt>
      <trkpt lat="-22.116652" lon="-45.509272">
        <ele>900.908</ele>
        <time>2019-10-15T20:14:45Z</time>
      </trkpt>
      <trkpt lat="-22.116634" lon="-45.509216">
        <ele>900.561</ele>
        <time>2019-10-15T20:14:47Z</time>
      </trkpt>
      <trkpt lat="-22.115982" lon="-45.507596">
        <ele>903.359</ele>
        <time>2019-10-15T20:15:21Z</time>
      </trkpt>
      <trkpt lat="-22.115957" lon="-45.507544">
        <ele>902.872</ele>
        <time>2019-10-15T20:15:23Z</time>
      </trkpt>
      <trkpt lat="-22.115942" lon="-45.507494">
        <ele>903.257</ele>
        <time>2019-10-15T20:15:24Z</time>
      </trkpt>
      <trkpt lat="-22.115929" lon="-45.507421">
        <ele>902.877</ele>
        <time>2019-10-15T20:15:26Z</time>
      </trkpt>
      <trkpt lat="-22.115918" lon="-45.507319">
        <ele>902.757</ele>
        <time>2019-10-15T20:15:28Z</time>
      </trkpt>
      <trkpt lat="-22.115909" lon="-45.507263">
        <ele>902.682</ele>
        <time>2019-10-15T20:15:30Z</time>
      </trkpt>
      <trkpt lat="-22.115906" lon="-45.507212">
        <ele>902.881</ele>
        <time>2019-10-15T20:15:31Z</time>
      </trkpt>
      <trkpt lat="-22.115895" lon="-45.507157">
        <ele>903.299</ele>
        <time>2019-10-15T20:15:33Z</time>
      </trkpt>
      <trkpt lat="-22.115884" lon="-45.507098">
        <ele>903.407</ele>
        <time>2019-10-15T20:15:35Z</time>
      </trkpt>
      <trkpt lat="-22.115873" lon="-45.507038">
        <ele>903.327</ele>
        <time>2019-10-15T20:15:38Z</time>
      </trkpt>
      <trkpt lat="-22.115859" lon="-45.506960">
        <ele>903.408</ele>
        <time>2019-10-15T20:15:40Z</time>
      </trkpt>
      <trkpt lat="-22.115842" lon="-45.506898">
        <ele>903.133</ele>
        <time>2019-10-15T20:15:42Z</time>
      </trkpt>
      <trkpt lat="-22.115821" lon="-45.506821">
        <ele>903.581</ele>
        <time>2019-10-15T20:15:45Z</time>
      </trkpt>
      <trkpt lat="-22.115815" lon="-45.506765">
        <ele>904.164</ele>
        <time>2019-10-15T20:15:47Z</time>
      </trkpt>
      <trkpt lat="-22.115808" lon="-45.506715">
        <ele>904.369</ele>
        <time>2019-10-15T20:15:50Z</time>
      </trkpt>
      <trkpt lat="-22.115797" lon="-45.506663">
        <ele>904.819</ele>
        <time>2019-10-15T20:15:52Z</time>
      </trkpt>
      <trkpt lat="-22.115769" lon="-45.506547">
        <ele>905.769</ele>
        <time>2019-10-15T20:16:16Z</time>
      </trkpt>
      <trkpt lat="-22.115747" lon="-45.506491">
        <ele>906.064</ele>
        <time>2019-10-15T20:16:20Z</time>
      </trkpt>
      <trkpt lat="-22.115747" lon="-45.506435">
        <ele>906.273</ele>
        <time>2019-10-15T20:16:23Z</time>
      </trkpt>
      <trkpt lat="-22.115735" lon="-45.506377">
        <ele>906.594</ele>
        <time>2019-10-15T20:16:26Z</time>
      </trkpt>
      <trkpt lat="-22.115731" lon="-45.506326">
        <ele>906.757</ele>
        <time>2019-10-15T20:16:28Z</time>
      </trkpt>
      <trkpt lat="-22.115718" lon="-45.506275">
        <ele>906.722</ele>
        <time>2019-10-15T20:16:31Z</time>
      </trkpt>
      <trkpt lat="-22.115708" lon="-45.506227">
        <ele>907.408</ele>
        <time>2019-10-15T20:16:35Z</time>
      </trkpt>
      <trkpt lat="-22.115704" lon="-45.506185">
        <ele>907.623</ele>
        <time>2019-10-15T20:16:37Z</time>
      </trkpt>
      <trkpt lat="-22.115691" lon="-45.506137">
        <ele>908.041</ele>
        <time>2019-10-15T20:16:41Z</time>
      </trkpt>
      <trkpt lat="-22.115658" lon="-45.506098">
        <ele>908.424</ele>
        <time>2019-10-15T20:16:44Z</time>
      </trkpt>
      <trkpt lat="-22.115625" lon="-45.506055">
        <ele>908.879</ele>
        <time>2019-10-15T20:16:46Z</time>
      </trkpt>
      <trkpt lat="-22.115611" lon="-45.505990">
        <ele>909.189</ele>
        <time>2019-10-15T20:16:49Z</time>
      </trkpt>
      <trkpt lat="-22.115604" lon="-45.505928">
        <ele>909.689</ele>
        <time>2019-10-15T20:16:52Z</time>
      </trkpt>
      <trkpt lat="-22.115592" lon="-45.505875">
        <ele>909.724</ele>
        <time>2019-10-15T20:16:54Z</time>
      </trkpt>
      <trkpt lat="-22.115564" lon="-45.505836">
        <ele>910.193</ele>
        <time>2019-10-15T20:16:57Z</time>
      </trkpt>
      <trkpt lat="-22.115540" lon="-45.505781">
        <ele>910.519</ele>
        <time>2019-10-15T20:16:59Z</time>
      </trkpt>
      <trkpt lat="-22.115521" lon="-45.505729">
        <ele>911.209</ele>
        <time>2019-10-15T20:17:01Z</time>
      </trkpt>
      <trkpt lat="-22.115493" lon="-45.505666">
        <ele>911.519</ele>
        <time>2019-10-15T20:17:03Z</time>
      </trkpt>
      <trkpt lat="-22.115456" lon="-45.505614">
        <ele>911.508</ele>
        <time>2019-10-15T20:17:06Z</time>
      </trkpt>
      <trkpt lat="-22.115423" lon="-45.505574">
        <ele>912.135</ele>
        <time>2019-10-15T20:17:08Z</time>
      </trkpt>
      <trkpt lat="-22.115377" lon="-45.505550">
        <ele>912.453</ele>
        <time>2019-10-15T20:17:11Z</time>
      </trkpt>
      <trkpt lat="-22.115357" lon="-45.505500">
        <ele>912.626</ele>
        <time>2019-10-15T20:17:14Z</time>
      </trkpt>
      <trkpt lat="-22.115328" lon="-45.505445">
        <ele>912.671</ele>
        <time>2019-10-15T20:17:17Z</time>
      </trkpt>
      <trkpt lat="-22.115305" lon="-45.505396">
        <ele>913.281</ele>
        <time>2019-10-15T20:17:20Z</time>
      </trkpt>
      <trkpt lat="-22.115266" lon="-45.505359">
        <ele>913.771</ele>
        <time>2019-10-15T20:17:23Z</time>
      </trkpt>
      <trkpt lat="-22.115232" lon="-45.505312">
        <ele>913.866</ele>
        <time>2019-10-15T20:17:26Z</time>
      </trkpt>
      <trkpt lat="-22.115202" lon="-45.505263">
        <ele>914.085</ele>
        <time>2019-10-15T20:17:28Z</time>
      </trkpt>
      <trkpt lat="-22.115174" lon="-45.505213">
        <ele>914.612</ele>
        <time>2019-10-15T20:17:32Z</time>
      </trkpt>
      <trkpt lat="-22.115150" lon="-45.505169">
        <ele>914.832</ele>
        <time>2019-10-15T20:17:34Z</time>
      </trkpt>
      <trkpt lat="-22.115124" lon="-45.505120">
        <ele>915.205</ele>
        <time>2019-10-15T20:17:36Z</time>
      </trkpt>
      <trkpt lat="-22.115100" lon="-45.505078">
        <ele>915.108</ele>
        <time>2019-10-15T20:17:38Z</time>
      </trkpt>
      <trkpt lat="-22.115063" lon="-45.505016">
        <ele>915.425</ele>
        <time>2019-10-15T20:17:41Z</time>
      </trkpt>
      <trkpt lat="-22.115037" lon="-45.504967">
        <ele>915.473</ele>
        <time>2019-10-15T20:17:43Z</time>
      </trkpt>
      <trkpt lat="-22.115012" lon="-45.504916">
        <ele>915.526</ele>
        <time>2019-10-15T20:17:45Z</time>
      </trkpt>
      <trkpt lat="-22.114986" lon="-45.504869">
        <ele>915.721</ele>
        <time>2019-10-15T20:17:47Z</time>
      </trkpt>
      <trkpt lat="-22.114962" lon="-45.504828">
        <ele>915.961</ele>
        <time>2019-10-15T20:17:50Z</time>
      </trkpt>
      <trkpt lat="-22.114912" lon="-45.504726">
        <ele>915.461</ele>
        <time>2019-10-15T20:18:57Z</time>
      </trkpt>
      <trkpt lat="-22.114896" lon="-45.504666">
        <ele>915.376</ele>
        <time>2019-10-15T20:19:01Z</time>
      </trkpt>
      <trkpt lat="-22.114876" lon="-45.504616">
        <ele>914.755</ele>
        <time>2019-10-15T20:19:05Z</time>
      </trkpt>
      <trkpt lat="-22.114851" lon="-45.504563">
        <ele>914.138</ele>
        <time>2019-10-15T20:19:07Z</time>
      </trkpt>
      <trkpt lat="-22.114821" lon="-45.504505">
        <ele>913.370</ele>
        <time>2019-10-15T20:19:09Z</time>
      </trkpt>
      <trkpt lat="-22.114792" lon="-45.504452">
        <ele>912.317</ele>
        <time>2019-10-15T20:19:11Z</time>
      </trkpt>
      <trkpt lat="-22.114761" lon="-45.504399">
        <ele>911.908</ele>
        <time>2019-10-15T20:19:13Z</time>
      </trkpt>
      <trkpt lat="-22.114720" lon="-45.504352">
        <ele>910.687</ele>
        <time>2019-10-15T20:19:14Z</time>
      </trkpt>
      <trkpt lat="-22.113687" lon="-45.503285">
        <ele>904.785</ele>
        <time>2019-10-15T20:19:47Z</time>
      </trkpt>
      <trkpt lat="-22.113735" lon="-45.503293">
        <ele>904.648</ele>
        <time>2019-10-15T20:22:44Z</time>
      </trkpt>
      <trkpt lat="-22.113817" lon="-45.503313">
        <ele>904.293</ele>
        <time>2019-10-15T20:22:49Z</time>
      </trkpt>
      <trkpt lat="-22.113873" lon="-45.503320">
        <ele>903.813</ele>
        <time>2019-10-15T20:22:51Z</time>
      </trkpt>
      <trkpt lat="-22.113921" lon="-45.503332">
        <ele>903.693</ele>
        <time>2019-10-15T20:22:52Z</time>
      </trkpt>
      <trkpt lat="-22.113990" lon="-45.503349">
        <ele>903.538</ele>
        <time>2019-10-15T20:22:55Z</time>
      </trkpt>
      <trkpt lat="-22.114037" lon="-45.503372">
        <ele>904.027</ele>
        <time>2019-10-15T20:22:58Z</time>
      </trkpt>
      <trkpt lat="-22.114083" lon="-45.503412">
        <ele>904.337</ele>
        <time>2019-10-15T20:23:00Z</time>
      </trkpt>
      <trkpt lat="-22.114117" lon="-45.503460">
        <ele>904.049</ele>
        <time>2019-10-15T20:23:02Z</time>
      </trkpt>
      <trkpt lat="-22.114152" lon="-45.503515">
        <ele>904.013</ele>
        <time>2019-10-15T20:23:04Z</time>
      </trkpt>
      <trkpt lat="-22.114187" lon="-45.503558">
        <ele>903.808</ele>
        <time>2019-10-15T20:23:06Z</time>
      </trkpt>
      <trkpt lat="-22.114220" lon="-45.503603">
        <ele>904.077</ele>
        <time>2019-10-15T20:23:09Z</time>
      </trkpt>
      <trkpt lat="-22.114258" lon="-45.503654">
        <ele>904.165</ele>
        <time>2019-10-15T20:23:11Z</time>
      </trkpt>
      <trkpt lat="-22.114297" lon="-45.503699">
        <ele>904.248</ele>
        <time>2019-10-15T20:23:13Z</time>
      </trkpt>
      <trkpt lat="-22.114327" lon="-45.503743">
        <ele>904.323</ele>
        <time>2019-10-15T20:23:15Z</time>
      </trkpt>
      <trkpt lat="-22.114363" lon="-45.503803">
        <ele>904.473</ele>
        <time>2019-10-15T20:23:18Z</time>
      </trkpt>
      <trkpt lat="-22.114391" lon="-45.503851">
        <ele>904.673</ele>
        <time>2019-10-15T20:23:20Z</time>
      </trkpt>
      <trkpt lat="-22.114426" lon="-45.503905">
        <ele>904.958</ele>
        <time>2019-10-15T20:23:23Z</time>
      </trkpt>
      <trkpt lat="-22.114458" lon="-45.503953">
        <ele>905.037</ele>
        <time>2019-10-15T20:23:25Z</time>
      </trkpt>
      <trkpt lat="-22.114489" lon="-45.503994">
        <ele>905.498</ele>
        <time>2019-10-15T20:23:28Z</time>
      </trkpt>
      <trkpt lat="-22.114518" lon="-45.504043">
        <ele>906.015</ele>
        <time>2019-10-15T20:23:30Z</time>
      </trkpt>
      <trkpt lat="-22.114543" lon="-45.504094">
        <ele>906.326</ele>
        <time>2019-10-15T20:23:33Z</time>
      </trkpt>
      <trkpt lat="-22.114576" lon="-45.504146">
        <ele>907.308</ele>
        <time>2019-10-15T20:23:38Z</time>
      </trkpt>
      <trkpt lat="-22.114606" lon="-45.504201">
        <ele>908.243</ele>
        <time>2019-10-15T20:23:43Z</time>
      </trkpt>
      <trkpt lat="-22.114629" lon="-45.504247">
        <ele>909.351</ele>
        <time>2019-10-15T20:23:50Z</time>
      </trkpt>
      <trkpt lat="-22.114657" lon="-45.504311">
        <ele>909.864</ele>
        <time>2019-10-15T20:23:53Z</time>
      </trkpt>
      <trkpt lat="-22.114686" lon="-45.504370">
        <ele>910.029</ele>
        <time>2019-10-15T20:23:56Z</time>
      </trkpt>
      <trkpt lat="-22.114697" lon="-45.504419">
        <ele>910.969</ele>
        <time>2019-10-15T20:24:00Z</time>
      </trkpt>
      <trkpt lat="-22.114717" lon="-45.504473">
        <ele>912.359</ele>
        <time>2019-10-15T20:24:06Z</time>
      </trkpt>
      <trkpt lat="-22.114737" lon="-45.504521">
        <ele>913.434</ele>
        <time>2019-10-15T20:24:11Z</time>
      </trkpt>
      <trkpt lat="-22.114763" lon="-45.504566">
        <ele>914.073</ele>
        <time>2019-10-15T20:24:15Z</time>
      </trkpt>
      <trkpt lat="-22.114820" lon="-45.504631">
        <ele>914.421</ele>
        <time>2019-10-15T20:24:19Z</time>
      </trkpt>
      <trkpt lat="-22.114855" lon="-45.504675">
        <ele>914.241</ele>
        <time>2019-10-15T20:24:20Z</time>
      </trkpt>
      <trkpt lat="-22.114878" lon="-45.504720">
        <ele>914.505</ele>
        <time>2019-10-15T20:24:23Z</time>
      </trkpt>
      <trkpt lat="-22.114899" lon="-45.504770">
        <ele>915.508</ele>
        <time>2019-10-15T20:24:27Z</time>
      </trkpt>
      <trkpt lat="-22.114916" lon="-45.504821">
        <ele>915.286</ele>
        <time>2019-10-15T20:24:29Z</time>
      </trkpt>
      <trkpt lat="-22.114947" lon="-45.504888">
        <ele>915.344</ele>
        <time>2019-10-15T20:24:33Z</time>
      </trkpt>
      <trkpt lat="-22.114976" lon="-45.504959">
        <ele>915.367</ele>
        <time>2019-10-15T20:24:37Z</time>
      </trkpt>
      <trkpt lat="-22.115010" lon="-45.505010">
        <ele>915.342</ele>
        <time>2019-10-15T20:24:40Z</time>
      </trkpt>
      <trkpt lat="-22.115036" lon="-45.505055">
        <ele>915.052</ele>
        <time>2019-10-15T20:24:41Z</time>
      </trkpt>
      <trkpt lat="-22.115069" lon="-45.505101">
        <ele>914.922</ele>
        <time>2019-10-15T20:24:43Z</time>
      </trkpt>
      <trkpt lat="-22.115097" lon="-45.505139">
        <ele>914.737</ele>
        <time>2019-10-15T20:24:45Z</time>
      </trkpt>
      <trkpt lat="-22.115133" lon="-45.505195">
        <ele>914.596</ele>
        <time>2019-10-15T20:24:48Z</time>
      </trkpt>
      <trkpt lat="-22.115160" lon="-45.505240">
        <ele>914.137</ele>
        <time>2019-10-15T20:24:49Z</time>
      </trkpt>
      <trkpt lat="-22.115189" lon="-45.505285">
        <ele>913.649</ele>
        <time>2019-10-15T20:24:51Z</time>
      </trkpt>
      <trkpt lat="-22.115220" lon="-45.505335">
        <ele>913.513</ele>
        <time>2019-10-15T20:24:53Z</time>
      </trkpt>
      <trkpt lat="-22.115259" lon="-45.505389">
        <ele>912.208</ele>
        <time>2019-10-15T20:24:56Z</time>
      </trkpt>
      <trkpt lat="-22.115294" lon="-45.505438">
        <ele>911.927</ele>
        <time>2019-10-15T20:24:58Z</time>
      </trkpt>
      <trkpt lat="-22.115323" lon="-45.505483">
        <ele>911.895</ele>
        <time>2019-10-15T20:25:00Z</time>
      </trkpt>
      <trkpt lat="-22.115357" lon="-45.505536">
        <ele>911.168</ele>
        <time>2019-10-15T20:25:02Z</time>
      </trkpt>
      <trkpt lat="-22.115395" lon="-45.505598">
        <ele>910.993</ele>
        <time>2019-10-15T20:25:05Z</time>
      </trkpt>
      <trkpt lat="-22.115426" lon="-45.505655">
        <ele>911.043</ele>
        <time>2019-10-15T20:25:07Z</time>
      </trkpt>
      <trkpt lat="-22.115458" lon="-45.505710">
        <ele>910.373</ele>
        <time>2019-10-15T20:25:09Z</time>
      </trkpt>
      <trkpt lat="-22.115488" lon="-45.505761">
        <ele>909.898</ele>
        <time>2019-10-15T20:25:11Z</time>
      </trkpt>
      <trkpt lat="-22.115520" lon="-45.505816">
        <ele>909.827</ele>
        <time>2019-10-15T20:25:13Z</time>
      </trkpt>
      <trkpt lat="-22.115545" lon="-45.505862">
        <ele>909.074</ele>
        <time>2019-10-15T20:25:15Z</time>
      </trkpt>
      <trkpt lat="-22.115586" lon="-45.505966">
        <ele>908.556</ele>
        <time>2019-10-15T20:25:18Z</time>
      </trkpt>
      <trkpt lat="-22.115605" lon="-45.506029">
        <ele>908.121</ele>
        <time>2019-10-15T20:25:20Z</time>
      </trkpt>
      <trkpt lat="-22.115632" lon="-45.506110">
        <ele>907.108</ele>
        <time>2019-10-15T20:25:22Z</time>
      </trkpt>
      <trkpt lat="-22.115661" lon="-45.506221">
        <ele>906.621</ele>
        <time>2019-10-15T20:25:25Z</time>
      </trkpt>
      <trkpt lat="-22.115679" lon="-45.506298">
        <ele>906.179</ele>
        <time>2019-10-15T20:25:27Z</time>
      </trkpt>
      <trkpt lat="-22.115696" lon="-45.506380">
        <ele>905.712</ele>
        <time>2019-10-15T20:25:29Z</time>
      </trkpt>
      <trkpt lat="-22.116039" lon="-45.507745">
        <ele>903.287</ele>
        <time>2019-10-15T20:26:00Z</time>
      </trkpt>
      <trkpt lat="-22.116066" lon="-45.507802">
        <ele>903.867</ele>
        <time>2019-10-15T20:26:02Z</time>
      </trkpt>
      <trkpt lat="-22.116097" lon="-45.507871">
        <ele>903.637</ele>
        <time>2019-10-15T20:26:04Z</time>
      </trkpt>
      <trkpt lat="-22.116121" lon="-45.507925">
        <ele>903.572</ele>
        <time>2019-10-15T20:26:06Z</time>
      </trkpt>
      <trkpt lat="-22.116144" lon="-45.507991">
        <ele>903.431</ele>
        <time>2019-10-15T20:26:08Z</time>
      </trkpt>
      <trkpt lat="-22.116167" lon="-45.508049">
        <ele>903.892</ele>
        <time>2019-10-15T20:26:11Z</time>
      </trkpt>
      <trkpt lat="-22.116188" lon="-45.508093">
        <ele>903.773</ele>
        <time>2019-10-15T20:26:12Z</time>
      </trkpt>
      <trkpt lat="-22.116211" lon="-45.508146">
        <ele>903.620</ele>
        <time>2019-10-15T20:26:14Z</time>
      </trkpt>
      <trkpt lat="-22.116232" lon="-45.508207">
        <ele>904.108</ele>
        <time>2019-10-15T20:26:16Z</time>
      </trkpt>
      <trkpt lat="-22.116261" lon="-45.508263">
        <ele>903.823</ele>
        <time>2019-10-15T20:26:18Z</time>
      </trkpt>
      <trkpt lat="-22.116286" lon="-45.508315">
        <ele>903.821</ele>
        <time>2019-10-15T20:26:20Z</time>
      </trkpt>
      <trkpt lat="-22.116305" lon="-45.508370">
        <ele>904.054</ele>
        <time>2019-10-15T20:26:23Z</time>
      </trkpt>
      <trkpt lat="-22.116324" lon="-45.508426">
        <ele>903.759</ele>
        <time>2019-10-15T20:26:24Z</time>
      </trkpt>
      <trkpt lat="-22.116348" lon="-45.508492">
        <ele>903.939</ele>
        <time>2019-10-15T20:26:27Z</time>
      </trkpt>
      <trkpt lat="-22.116368" lon="-45.508536">
        <ele>903.919</ele>
        <time>2019-10-15T20:26:28Z</time>
      </trkpt>
      <trkpt lat="-22.116387" lon="-45.508581">
        <ele>903.574</ele>
        <time>2019-10-15T20:26:30Z</time>
      </trkpt>
      <trkpt lat="-22.116399" lon="-45.508632">
        <ele>903.023</ele>
        <time>2019-10-15T20:26:31Z</time>
      </trkpt>
      <trkpt lat="-22.116419" lon="-45.508686">
        <ele>902.292</ele>
        <time>2019-10-15T20:26:33Z</time>
      </trkpt>
      <trkpt lat="-22.116446" lon="-45.508742">
        <ele>901.773</ele>
        <time>2019-10-15T20:26:35Z</time>
      </trkpt>
      <trkpt lat="-22.116468" lon="-45.508803">
        <ele>901.720</ele>
        <time>2019-10-15T20:26:36Z</time>
      </trkpt>
      <trkpt lat="-22.116494" lon="-45.508875">
        <ele>901.508</ele>
        <time>2019-10-15T20:26:38Z</time>
      </trkpt>
      <trkpt lat="-22.116520" lon="-45.508950">
        <ele>901.413</ele>
        <time>2019-10-15T20:26:40Z</time>
      </trkpt>
      <trkpt lat="-22.116540" lon="-45.509003">
        <ele>901.571</ele>
        <time>2019-10-15T20:26:42Z</time>
      </trkpt>
      <trkpt lat="-22.116570" lon="-45.509073">
        <ele>901.684</ele>
        <time>2019-10-15T20:26:44Z</time>
      </trkpt>
      <trkpt lat="-22.116588" lon="-45.509118">
        <ele>901.649</ele>
        <time>2019-10-15T20:26:46Z</time>
      </trkpt>
      <trkpt lat="-22.116606" lon="-45.509163">
        <ele>901.419</ele>
        <time>2019-10-15T20:26:47Z</time>
      </trkpt>
      <trkpt lat="-22.116624" lon="-45.509223">
        <ele>901.329</ele>
        <time>2019-10-15T20:26:49Z</time>
      </trkpt>
      <trkpt lat="-22.116649" lon="-45.509287">
        <ele>900.964</ele>
        <time>2019-10-15T20:26:52Z</time>
      </trkpt>
      <trkpt lat="-22.116670" lon="-45.509340">
        <ele>900.793</ele>
        <time>2019-10-15T20:26:53Z</time>
      </trkpt>
      <trkpt lat="-22.116691" lon="-45.509402">
        <ele>899.932</ele>
        <time>2019-10-15T20:26:55Z</time>
      </trkpt>
      <trkpt lat="-22.116795" lon="-45.510770">
        <ele>898.292</ele>
        <time>2019-10-15T20:27:26Z</time>
      </trkpt>
      <trkpt lat="-22.116772" lon="-45.510823">
        <ele>898.211</ele>
        <time>2019-10-15T20:27:28Z</time>
      </trkpt>
      <trkpt lat="-22.116739" lon="-45.510880">
        <ele>898.508</ele>
        <time>2019-10-15T20:27:30Z</time>
      </trkpt>
      <trkpt lat="-22.116698" lon="-45.510936">
        <ele>898.597</ele>
        <time>2019-10-15T20:27:33Z</time>
      </trkpt>
      <trkpt lat="-22.116662" lon="-45.510975">
        <ele>899.045</ele>
        <time>2019-10-15T20:27:34Z</time>
      </trkpt>
      <trkpt lat="-22.116624" lon="-45.511020">
        <ele>899.158</ele>
        <time>2019-10-15T20:27:36Z</time>
      </trkpt>
      <trkpt lat="-22.116594" lon="-45.511062">
        <ele>899.213</ele>
        <time>2019-10-15T20:27:38Z</time>
      </trkpt>
      <trkpt lat="-22.116549" lon="-45.511114">
        <ele>899.783</ele>
        <time>2019-10-15T20:27:41Z</time>
      </trkpt>
      <trkpt lat="-22.116512" lon="-45.511151">
        <ele>900.093</ele>
        <time>2019-10-15T20:27:43Z</time>
      </trkpt>
      <trkpt lat="-22.116479" lon="-45.511198">
        <ele>900.478</ele>
        <time>2019-10-15T20:27:46Z</time>
      </trkpt>
      <trkpt lat="-22.116446" lon="-45.511237">
        <ele>901.057</ele>
        <time>2019-10-15T20:27:48Z</time>
      </trkpt>
      <trkpt lat="-22.116410" lon="-45.511289">
        <ele>901.595</ele>
        <time>2019-10-15T20:27:51Z</time>
      </trkpt>
      <trkpt lat="-22.116381" lon="-45.511333">
        <ele>902.149</ele>
        <time>2019-10-15T20:27:54Z</time>
      </trkpt>
      <trkpt lat="-22.116343" lon="-45.511400">
        <ele>902.723</ele>
        <time>2019-10-15T20:27:58Z</time>
      </trkpt>
      <trkpt lat="-22.116322" lon="-45.511444">
        <ele>903.008</ele>
        <time>2019-10-15T20:28:00Z</time>
      </trkpt>
      <trkpt lat="-22.116297" lon="-45.511493">
        <ele>903.333</ele>
        <time>2019-10-15T20:28:03Z</time>
      </trkpt>
      <trkpt lat="-22.116284" lon="-45.511544">
        <ele>903.071</ele>
        <time>2019-10-15T20:28:05Z</time>
      </trkpt>
      <trkpt lat="-22.116270" lon="-45.511610">
        <ele>903.044</ele>
        <time>2019-10-15T20:28:09Z</time>
      </trkpt>
      <trkpt lat="-22.116258" lon="-45.511673">
        <ele>902.679</ele>
        <time>2019-10-15T20:28:11Z</time>
      </trkpt>
      <trkpt lat="-22.116257" lon="-45.511726">
        <ele>902.439</ele>
        <time>2019-10-15T20:28:13Z</time>
      </trkpt>
      <trkpt lat="-22.116261" lon="-45.511775">
        <ele>902.159</ele>
        <time>2019-10-15T20:28:15Z</time>
      </trkpt>
      <trkpt lat="-22.116280" lon="-45.511829">
        <ele>901.024</ele>
        <time>2019-10-15T20:28:17Z</time>
      </trkpt>
      <trkpt lat="-22.116308" lon="-45.511902">
        <ele>900.763</ele>
        <time>2019-10-15T20:28:20Z</time>
      </trkpt>
      <trkpt lat="-22.116329" lon="-45.511945">
        <ele>900.124</ele>
        <time>2019-10-15T20:28:22Z</time>
      </trkpt>
      <trkpt lat="-22.116365" lon="-45.511983">
        <ele>899.904</ele>
        <time>2019-10-15T20:28:24Z</time>
      </trkpt>
      <trkpt lat="-22.116447" lon="-45.512027">
        <ele>897.914</ele>
        <time>2019-10-15T20:28:26Z</time>
      </trkpt>
      <trkpt lat="-22.116500" lon="-45.512044">
        <ele>897.108</ele>
        <time>2019-10-15T20:28:28Z</time>
      </trkpt>
      <trkpt lat="-22.116544" lon="-45.512053">
        <ele>896.396</ele>
        <time>2019-10-15T20:28:29Z</time>
      </trkpt>
      <trkpt lat="-22.117769" lon="-45.512075">
        <ele>891.184</ele>
        <time>2019-10-15T20:28:57Z</time>
      </trkpt>
      <trkpt lat="-22.117811" lon="-45.512102">
        <ele>892.097</ele>
        <time>2019-10-15T20:28:58Z</time>
      </trkpt>
      <trkpt lat="-22.117850" lon="-45.512132">
        <ele>892.522</ele>
        <time>2019-10-15T20:29:00Z</time>
      </trkpt>
      <trkpt lat="-22.117887" lon="-45.512160">
        <ele>893.162</ele>
        <time>2019-10-15T20:29:02Z</time>
      </trkpt>
      <trkpt lat="-22.117926" lon="-45.512188">
        <ele>893.762</ele>
        <time>2019-10-15T20:29:06Z</time>
      </trkpt>
      <trkpt lat="-22.117968" lon="-45.512212">
        <ele>894.797</ele>
        <time>2019-10-15T20:29:09Z</time>
      </trkpt>
      <trkpt lat="-22.118016" lon="-45.512237">
        <ele>895.976</ele>
        <time>2019-10-15T20:29:14Z</time>
      </trkpt>
      <trkpt lat="-22.118058" lon="-45.512260">
        <ele>896.785</ele>
        <time>2019-10-15T20:29:18Z</time>
      </trkpt>
      <trkpt lat="-22.118100" lon="-45.512287">
        <ele>897.789</ele>
        <time>2019-10-15T20:29:24Z</time>
      </trkpt>
      <trkpt lat="-22.118155" lon="-45.512322">
        <ele>898.517</ele>
        <time>2019-10-15T20:29:29Z</time>
      </trkpt>
      <trkpt lat="-22.118196" lon="-45.512345">
        <ele>899.408</ele>
        <time>2019-10-15T20:29:33Z</time>
      </trkpt>
      <trkpt lat="-22.118241" lon="-45.512374">
        <ele>899.922</ele>
        <time>2019-10-15T20:29:36Z</time>
      </trkpt>
      <trkpt lat="-22.118281" lon="-45.512397">
        <ele>901.130</ele>
        <time>2019-10-15T20:29:45Z</time>
      </trkpt>
      <trkpt lat="-22.118332" lon="-45.512422">
        <ele>901.513</ele>
        <time>2019-10-15T20:29:47Z</time>
      </trkpt>
      <trkpt lat="-22.118382" lon="-45.512453">
        <ele>902.518</ele>
        <time>2019-10-15T20:29:57Z</time>
      </trkpt>
      <trkpt lat="-22.118417" lon="-45.512483">
        <ele>903.758</ele>
        <time>2019-10-15T20:30:04Z</time>
      </trkpt>
      <trkpt lat="-22.118454" lon="-45.512512">
        <ele>903.978</ele>
        <time>2019-10-15T20:30:06Z</time>
      </trkpt>
      <trkpt lat="-22.118504" lon="-45.512548">
        <ele>905.123</ele>
        <time>2019-10-15T20:30:11Z</time>
      </trkpt>
      <trkpt lat="-22.118544" lon="-45.512576">
        <ele>905.882</ele>
        <time>2019-10-15T20:30:15Z</time>
      </trkpt>
      <trkpt lat="-22.118596" lon="-45.512601">
        <ele>906.524</ele>
        <time>2019-10-15T20:30:19Z</time>
      </trkpt>
      <trkpt lat="-22.118640" lon="-45.512629">
        <ele>907.604</ele>
        <time>2019-10-15T20:30:26Z</time>
      </trkpt>
      <trkpt lat="-22.118680" lon="-45.512661">
        <ele>908.514</ele>
        <time>2019-10-15T20:30:29Z</time>
      </trkpt>
      <trkpt lat="-22.118723" lon="-45.512699">
        <ele>909.308</ele>
        <time>2019-10-15T20:30:34Z</time>
      </trkpt>
      <trkpt lat="-22.118762" lon="-45.512726">
        <ele>909.656</ele>
        <time>2019-10-15T20:30:37Z</time>
      </trkpt>
      <trkpt lat="-22.118799" lon="-45.512755">
        <ele>909.644</ele>
        <time>2019-10-15T20:30:40Z</time>
      </trkpt>
      <trkpt lat="-22.118844" lon="-45.512788">
        <ele>909.827</ele>
        <time>2019-10-15T20:30:43Z</time>
      </trkpt>
      <trkpt lat="-22.118882" lon="-45.512817">
        <ele>909.642</ele>
        <time>2019-10-15T20:30:45Z</time>
      </trkpt>
      <trkpt lat="-22.118923" lon="-45.512850">
        <ele>909.992</ele>
        <time>2019-10-15T20:30:48Z</time>
      </trkpt>
      <trkpt lat="-22.118963" lon="-45.512878">
        <ele>910.032</ele>
        <time>2019-10-15T20:30:50Z</time>
      </trkpt>
      <trkpt lat="-22.119009" lon="-45.512919">
        <ele>910.367</ele>
        <time>2019-10-15T20:30:55Z</time>
      </trkpt>
      <trkpt lat="-22.119039" lon="-45.512961">
        <ele>910.386</ele>
        <time>2019-10-15T20:30:57Z</time>
      </trkpt>
      <trkpt lat="-22.119078" lon="-45.513015">
        <ele>910.468</ele>
        <time>2019-10-15T20:31:02Z</time>
      </trkpt>
      <trkpt lat="-22.119085" lon="-45.512962">
        <ele>911.042</ele>
        <time>2019-10-15T20:33:22Z</time>
      </trkpt>
      <trkpt lat="-22.119135" lon="-45.512987">
        <ele>910.826</ele>
        <time>2019-10-15T20:33:26Z</time>
      </trkpt>
      <trkpt lat="-22.119204" lon="-45.512986">
        <ele>910.908</ele>
        <time>2019-10-15T20:33:29Z</time>
      </trkpt>
      <trkpt lat="-22.119252" lon="-45.512985">
        <ele>910.560</ele>
        <time>2019-10-15T20:33:32Z</time>
      </trkpt>
      <trkpt lat="-22.119313" lon="-45.512974">
        <ele>910.698</ele>
        <time>2019-10-15T20:33:34Z</time>
      </trkpt>
      <trkpt lat="-22.119348" lon="-45.512942">
        <ele>910.651</ele>
        <time>2019-10-15T20:33:36Z</time>
      </trkpt>
      <trkpt lat="-22.119381" lon="-45.512907">
        <ele>911.336</ele>
        <time>2019-10-15T20:33:39Z</time>
      </trkpt>
      <trkpt lat="-22.119415" lon="-45.512871">
        <ele>911.986</ele>
        <time>2019-10-15T20:33:42Z</time>
      </trkpt>
      <trkpt lat="-22.119455" lon="-45.512833">
        <ele>912.716</ele>
        <time>2019-10-15T20:33:45Z</time>
      </trkpt>
      <trkpt lat="-22.119489" lon="-45.512792">
        <ele>913.481</ele>
        <time>2019-10-15T20:33:49Z</time>
      </trkpt>
      <trkpt lat="-22.119520" lon="-45.512757">
        <ele>914.030</ele>
        <time>2019-10-15T20:33:52Z</time>
      </trkpt>
      <trkpt lat="-22.119543" lon="-45.512712">
        <ele>914.389</ele>
        <time>2019-10-15T20:33:56Z</time>
      </trkpt>
      <trkpt lat="-22.119588" lon="-45.512687">
        <ele>914.706</ele>
        <time>2019-10-15T20:33:59Z</time>
      </trkpt>
      <trkpt lat="-22.119626" lon="-45.512657">
        <ele>914.726</ele>
        <time>2019-10-15T20:34:02Z</time>
      </trkpt>
      <trkpt lat="-22.119650" lon="-45.512614">
        <ele>915.508</ele>
        <time>2019-10-15T20:34:07Z</time>
      </trkpt>
      <trkpt lat="-22.119686" lon="-45.512583">
        <ele>915.962</ele>
        <time>2019-10-15T20:34:08Z</time>
      </trkpt>
      <trkpt lat="-22.119723" lon="-45.512548">
        <ele>916.140</ele>
        <time>2019-10-15T20:34:12Z</time>
      </trkpt>
      <trkpt lat="-22.119752" lon="-45.512507">
        <ele>916.513</ele>
        <time>2019-10-15T20:34:17Z</time>
      </trkpt>
      <trkpt lat="-22.119800" lon="-45.512475">
        <ele>917.178</ele>
        <time>2019-10-15T20:34:21Z</time>
      </trkpt>
      <trkpt lat="-22.119835" lon="-45.512436">
        <ele>917.688</ele>
        <time>2019-10-15T20:34:26Z</time>
      </trkpt>
      <trkpt lat="-22.119870" lon="-45.512393">
        <ele>918.288</ele>
        <time>2019-10-15T20:34:30Z</time>
      </trkpt>
      <trkpt lat="-22.119925" lon="-45.512364">
        <ele>918.693</ele>
        <time>2019-10-15T20:34:35Z</time>
      </trkpt>
      <trkpt lat="-22.119968" lon="-45.512390">
        <ele>918.582</ele>
        <time>2019-10-15T20:34:38Z</time>
      </trkpt>
      <trkpt lat="-22.120019" lon="-45.512431">
        <ele>918.259</ele>
        <time>2019-10-15T20:34:40Z</time>
      </trkpt>
      <trkpt lat="-22.120061" lon="-45.512466">
        <ele>918.303</ele>
        <time>2019-10-15T20:34:43Z</time>
      </trkpt>
      <trkpt lat="-22.120103" lon="-45.512505">
        <ele>917.923</ele>
        <time>2019-10-15T20:34:45Z</time>
      </trkpt>
      <trkpt lat="-22.120147" lon="-45.512549">
        <ele>917.608</ele>
        <time>2019-10-15T20:34:47Z</time>
      </trkpt>
      <trkpt lat="-22.120180" lon="-45.512584">
        <ele>917.739</ele>
        <time>2019-10-15T20:34:49Z</time>
      </trkpt>
      <trkpt lat="-22.120222" lon="-45.512621">
        <ele>917.217</ele>
        <time>2019-10-15T20:34:51Z</time>
      </trkpt>
      <trkpt lat="-22.120272" lon="-45.512676">
        <ele>916.780</ele>
        <time>2019-10-15T20:34:53Z</time>
      </trkpt>
      <trkpt lat="-22.120323" lon="-45.512716">
        <ele>916.695</ele>
        <time>2019-10-15T20:34:54Z</time>
      </trkpt>
      <trkpt lat="-22.120360" lon="-45.512754">
        <ele>916.715</ele>
        <time>2019-10-15T20:34:56Z</time>
      </trkpt>
      <trkpt lat="-22.120405" lon="-45.512806">
        <ele>916.145</ele>
        <time>2019-10-15T20:34:57Z</time>
      </trkpt>
      <trkpt lat="-22.120448" lon="-45.512846">
        <ele>915.870</ele>
        <time>2019-10-15T20:34:59Z</time>
      </trkpt>
      <trkpt lat="-22.120496" lon="-45.512869">
        <ele>915.789</ele>
        <time>2019-10-15T20:35:01Z</time>
      </trkpt>
      <trkpt lat="-22.120541" lon="-45.512914">
        <ele>915.851</ele>
        <time>2019-10-15T20:35:02Z</time>
      </trkpt>
      <trkpt lat="-22.120588" lon="-45.512975">
        <ele>915.301</ele>
        <time>2019-10-15T20:35:04Z</time>
      </trkpt>
      <trkpt lat="-22.120628" lon="-45.513017">
        <ele>915.311</ele>
        <time>2019-10-15T20:35:06Z</time>
      </trkpt>
      <trkpt lat="-22.120669" lon="-45.513055">
        <ele>915.408</ele>
        <time>2019-10-15T20:35:07Z</time>
      </trkpt>
      <trkpt lat="-22.120719" lon="-45.513101">
        <ele>915.489</ele>
        <time>2019-10-15T20:35:09Z</time>
      </trkpt>
      <trkpt lat="-22.120784" lon="-45.513167">
        <ele>915.017</ele>
        <time>2019-10-15T20:35:12Z</time>
      </trkpt>
      <trkpt lat="-22.120825" lon="-45.513211">
        <ele>914.560</ele>
        <time>2019-10-15T20:35:13Z</time>
      </trkpt>
      <trkpt lat="-22.120877" lon="-45.513261">
        <ele>913.925</ele>
        <time>2019-10-15T20:35:15Z</time>
      </trkpt>
      <trkpt lat="-22.120926" lon="-45.513308">
        <ele>914.265</ele>
        <time>2019-10-15T20:35:17Z</time>
      </trkpt>
      <trkpt lat="-22.120982" lon="-45.513347">
        <ele>913.935</ele>
        <time>2019-10-15T20:35:19Z</time>
      </trkpt>
      <trkpt lat="-22.121037" lon="-45.513383">
        <ele>913.740</ele>
        <time>2019-10-15T20:35:21Z</time>
      </trkpt>
      <trkpt lat="-22.121410" lon="-45.513459">
        <ele>912.249</ele>
        <time>2019-10-15T20:35:31Z</time>
      </trkpt>
      <trkpt lat="-22.121460" lon="-45.513442">
        <ele>912.448</ele>
        <time>2019-10-15T20:35:32Z</time>
      </trkpt>
      <trkpt lat="-22.121540" lon="-45.513448">
        <ele>912.561</ele>
        <time>2019-10-15T20:35:34Z</time>
      </trkpt>
      <trkpt lat="-22.121615" lon="-45.513446">
        <ele>912.217</ele>
        <time>2019-10-15T20:35:36Z</time>
      </trkpt>
      <trkpt lat="-22.121689" lon="-45.513435">
        <ele>912.408</ele>
        <time>2019-10-15T20:35:39Z</time>
      </trkpt>
      <trkpt lat="-22.121772" lon="-45.513426">
        <ele>912.068</ele>
        <time>2019-10-15T20:35:41Z</time>
      </trkpt>
      <trkpt lat="-22.121849" lon="-45.513418">
        <ele>911.296</ele>
        <time>2019-10-15T20:35:43Z</time>
      </trkpt>
      <trkpt lat="-22.122347" lon="-45.513359">
        <ele>909.229</ele>
        <time>2019-10-15T20:35:53Z</time>
      </trkpt>
      <trkpt lat="-22.122403" lon="-45.513356">
        <ele>908.884</ele>
        <time>2019-10-15T20:35:55Z</time>
      </trkpt>
      <trkpt lat="-22.122472" lon="-45.513347">
        <ele>908.514</ele>
        <time>2019-10-15T20:35:57Z</time>
      </trkpt>
      <trkpt lat="-22.122540" lon="-45.513333">
        <ele>908.174</ele>
        <time>2019-10-15T20:36:00Z</time>
      </trkpt>
      <trkpt lat="-22.122619" lon="-45.513320">
        <ele>907.829</ele>
        <time>2019-10-15T20:36:01Z</time>
      </trkpt>
      <trkpt lat="-22.122680" lon="-45.513313">
        <ele>907.928</ele>
        <time>2019-10-15T20:36:03Z</time>
      </trkpt>
      <trkpt lat="-22.122741" lon="-45.513315">
        <ele>907.315</ele>
        <time>2019-10-15T20:36:05Z</time>
      </trkpt>
      <trkpt lat="-22.122725" lon="-45.513262">
        <ele>893.125</ele>
        <time>2019-10-16T11:41:07Z</time>
      </trkpt>
      <trkpt lat="-22.122812" lon="-45.513317">
        <ele>891.626</ele>
        <time>2019-10-16T11:41:20Z</time>
      </trkpt>
      <trkpt lat="-22.122762" lon="-45.513274">
        <ele>892.708</ele>
        <time>2019-10-16T11:41:50Z</time>
      </trkpt>
      <trkpt lat="-22.122934" lon="-45.513263">
        <ele>892.508</ele>
        <time>2019-10-16T11:44:21Z</time>
      </trkpt>
      <trkpt lat="-22.123015" lon="-45.513255">
        <ele>892.496</ele>
        <time>2019-10-16T11:44:23Z</time>
      </trkpt>
      <trkpt lat="-22.123061" lon="-45.513240">
        <ele>892.624</ele>
        <time>2019-10-16T11:44:25Z</time>
      </trkpt>
      <trkpt lat="-22.123114" lon="-45.513227">
        <ele>892.697</ele>
        <time>2019-10-16T11:44:27Z</time>
      </trkpt>
      <trkpt lat="-22.123167" lon="-45.513223">
        <ele>892.585</ele>
        <time>2019-10-16T11:44:29Z</time>
      </trkpt>
      <trkpt lat="-22.123236" lon="-45.513242">
        <ele>892.015</ele>
        <time>2019-10-16T11:44:31Z</time>
      </trkpt>
      <trkpt lat="-22.123223" lon="-45.513319">
        <ele>890.557</ele>
        <time>2019-10-16T11:44:40Z</time>
      </trkpt>
      <trkpt lat="-22.123173" lon="-45.513332">
        <ele>890.451</ele>
        <time>2019-10-16T11:44:48Z</time>
      </trkpt>
      <trkpt lat="-22.123228" lon="-45.513357">
        <ele>890.278</ele>
        <time>2019-10-16T11:44:58Z</time>
      </trkpt>
      <trkpt lat="-22.123187" lon="-45.513419">
        <ele>890.239</ele>
        <time>2019-10-16T11:45:01Z</time>
      </trkpt>
      <trkpt lat="-22.123136" lon="-45.513477">
        <ele>890.001</ele>
        <time>2019-10-16T11:45:04Z</time>
      </trkpt>
      <trkpt lat="-22.123107" lon="-45.513519">
        <ele>889.921</ele>
        <time>2019-10-16T11:45:06Z</time>
      </trkpt>
      <trkpt lat="-22.123063" lon="-45.513576">
        <ele>889.608</ele>
        <time>2019-10-16T11:45:08Z</time>
      </trkpt>
      <trkpt lat="-22.123034" lon="-45.513615">
        <ele>889.417</ele>
        <time>2019-10-16T11:45:10Z</time>
      </trkpt>
      <trkpt lat="-22.123000" lon="-45.513655">
        <ele>889.155</ele>
        <time>2019-10-16T11:45:11Z</time>
      </trkpt>
      <trkpt lat="-22.122967" lon="-45.513693">
        <ele>888.818</ele>
        <time>2019-10-16T11:45:13Z</time>
      </trkpt>
      <trkpt lat="-22.122929" lon="-45.513744">
        <ele>888.396</ele>
        <time>2019-10-16T11:45:15Z</time>
      </trkpt>
      <trkpt lat="-22.122898" lon="-45.513780">
        <ele>888.046</ele>
        <time>2019-10-16T11:45:16Z</time>
      </trkpt>
      <trkpt lat="-22.122827" lon="-45.513848">
        <ele>887.188</ele>
        <time>2019-10-16T11:45:18Z</time>
      </trkpt>
      <trkpt lat="-22.122799" lon="-45.513896">
        <ele>886.562</ele>
        <time>2019-10-16T11:45:20Z</time>
      </trkpt>
      <trkpt lat="-22.122763" lon="-45.513928">
        <ele>886.069</ele>
        <time>2019-10-16T11:45:21Z</time>
      </trkpt>
      <trkpt lat="-22.122321" lon="-45.514566">
        <ele>882.159</ele>
        <time>2019-10-16T11:45:40Z</time>
      </trkpt>
      <trkpt lat="-22.122362" lon="-45.514623">
        <ele>882.403</ele>
        <time>2019-10-16T11:45:42Z</time>
      </trkpt>
      <trkpt lat="-22.122447" lon="-45.514739">
        <ele>882.923</ele>
        <time>2019-10-16T11:45:45Z</time>
      </trkpt>
      <trkpt lat="-22.122417" lon="-45.514785">
        <ele>883.008</ele>
        <time>2019-10-16T11:45:47Z</time>
      </trkpt>
      <trkpt lat="-22.122143" lon="-45.515072">
        <ele>883.269</ele>
        <time>2019-10-16T11:45:55Z</time>
      </trkpt>
      <trkpt lat="-22.122106" lon="-45.515104">
        <ele>883.317</ele>
        <time>2019-10-16T11:45:57Z</time>
      </trkpt>
      <trkpt lat="-22.122035" lon="-45.515195">
        <ele>883.840</ele>
        <time>2019-10-16T11:45:59Z</time>
      </trkpt>
      <trkpt lat="-22.121992" lon="-45.515240">
        <ele>884.268</ele>
        <time>2019-10-16T11:46:01Z</time>
      </trkpt>
      <trkpt lat="-22.121948" lon="-45.515281">
        <ele>884.598</ele>
        <time>2019-10-16T11:46:03Z</time>
      </trkpt>
      <trkpt lat="-22.121913" lon="-45.515316">
        <ele>884.860</ele>
        <time>2019-10-16T11:46:04Z</time>
      </trkpt>
      <trkpt lat="-22.121896" lon="-45.515362">
        <ele>885.244</ele>
        <time>2019-10-16T11:46:07Z</time>
      </trkpt>
      <trkpt lat="-22.121919" lon="-45.515416">
        <ele>885.791</ele>
        <time>2019-10-16T11:46:10Z</time>
      </trkpt>
      <trkpt lat="-22.121953" lon="-45.515452">
        <ele>886.062</ele>
        <time>2019-10-16T11:46:13Z</time>
      </trkpt>
      <trkpt lat="-22.121996" lon="-45.515481">
        <ele>886.183</ele>
        <time>2019-10-16T11:46:16Z</time>
      </trkpt>
      <trkpt lat="-22.122034" lon="-45.515512">
        <ele>886.311</ele>
        <time>2019-10-16T11:46:18Z</time>
      </trkpt>
      <trkpt lat="-22.122074" lon="-45.515544">
        <ele>886.408</ele>
        <time>2019-10-16T11:46:20Z</time>
      </trkpt>
      <trkpt lat="-22.122116" lon="-45.515597">
        <ele>886.740</ele>
        <time>2019-10-16T11:46:24Z</time>
      </trkpt>
      <trkpt lat="-22.122167" lon="-45.515652">
        <ele>886.998</ele>
        <time>2019-10-16T11:46:28Z</time>
      </trkpt>
      <trkpt lat="-22.122206" lon="-45.515685">
        <ele>886.921</ele>
        <time>2019-10-16T11:46:30Z</time>
      </trkpt>
      <trkpt lat="-22.122252" lon="-45.515733">
        <ele>887.079</ele>
        <time>2019-10-16T11:46:32Z</time>
      </trkpt>
      <trkpt lat="-22.122293" lon="-45.515781">
        <ele>887.089</ele>
        <time>2019-10-16T11:46:35Z</time>
      </trkpt>
      <trkpt lat="-22.122330" lon="-45.515816">
        <ele>886.991</ele>
        <time>2019-10-16T11:46:37Z</time>
      </trkpt>
      <trkpt lat="-22.122370" lon="-45.515865">
        <ele>887.255</ele>
        <time>2019-10-16T11:46:40Z</time>
      </trkpt>
      <trkpt lat="-22.122423" lon="-45.515910">
        <ele>887.322</ele>
        <time>2019-10-16T11:46:43Z</time>
      </trkpt>
      <trkpt lat="-22.122470" lon="-45.515960">
        <ele>887.636</ele>
        <time>2019-10-16T11:46:46Z</time>
      </trkpt>
      <trkpt lat="-22.122508" lon="-45.515996">
        <ele>887.817</ele>
        <time>2019-10-16T11:46:48Z</time>
      </trkpt>
      <trkpt lat="-22.122550" lon="-45.516047">
        <ele>888.818</ele>
        <time>2019-10-16T11:46:51Z</time>
      </trkpt>
      <trkpt lat="-22.122587" lon="-45.516085">
        <ele>889.508</ele>
        <time>2019-10-16T11:46:53Z</time>
      </trkpt>
      <trkpt lat="-22.122639" lon="-45.516131">
        <ele>890.367</ele>
        <time>2019-10-16T11:46:56Z</time>
      </trkpt>
      <trkpt lat="-22.122679" lon="-45.516168">
        <ele>890.885</ele>
        <time>2019-10-16T11:46:58Z</time>
      </trkpt>
      <trkpt lat="-22.122738" lon="-45.516213">
        <ele>891.328</ele>
        <time>2019-10-16T11:47:01Z</time>
      </trkpt>
      <trkpt lat="-22.122797" lon="-45.516253">
        <ele>891.816</ele>
        <time>2019-10-16T11:47:04Z</time>
      </trkpt>
      <trkpt lat="-22.122837" lon="-45.516290">
        <ele>892.026</ele>
        <time>2019-10-16T11:47:06Z</time>
      </trkpt>
      <trkpt lat="-22.122916" lon="-45.516356">
        <ele>892.228</ele>
        <time>2019-10-16T11:47:10Z</time>
      </trkpt>
      <trkpt lat="-22.123015" lon="-45.516423">
        <ele>892.132</ele>
        <time>2019-10-16T11:47:15Z</time>
      </trkpt>
      <trkpt lat="-22.123060" lon="-45.516441">
        <ele>892.079</ele>
        <time>2019-10-16T11:47:17Z</time>
      </trkpt>
      <trkpt lat="-22.123116" lon="-45.516463">
        <ele>891.898</ele>
        <time>2019-10-16T11:47:20Z</time>
      </trkpt>
      <trkpt lat="-22.123169" lon="-45.516480">
        <ele>891.615</ele>
        <time>2019-10-16T11:47:21Z</time>
      </trkpt>
      <trkpt lat="-22.123213" lon="-45.516495">
        <ele>891.426</ele>
        <time>2019-10-16T11:47:23Z</time>
      </trkpt>
      <trkpt lat="-22.123268" lon="-45.516525">
        <ele>890.908</ele>
        <time>2019-10-16T11:47:26Z</time>
      </trkpt>
      <trkpt lat="-22.123328" lon="-45.516547">
        <ele>890.533</ele>
        <time>2019-10-16T11:47:28Z</time>
      </trkpt>
      <trkpt lat="-22.123384" lon="-45.516572">
        <ele>890.311</ele>
        <time>2019-10-16T11:47:30Z</time>
      </trkpt>
      <trkpt lat="-22.123445" lon="-45.516601">
        <ele>890.114</ele>
        <time>2019-10-16T11:47:33Z</time>
      </trkpt>
      <trkpt lat="-22.123500" lon="-45.516629">
        <ele>889.942</ele>
        <time>2019-10-16T11:47:35Z</time>
      </trkpt>
      <trkpt lat="-22.123581" lon="-45.516669">
        <ele>889.652</ele>
        <time>2019-10-16T11:47:38Z</time>
      </trkpt>
      <trkpt lat="-22.123650" lon="-45.516698">
        <ele>890.384</ele>
        <time>2019-10-16T11:47:41Z</time>
      </trkpt>
      <trkpt lat="-22.123702" lon="-45.516723">
        <ele>890.858</ele>
        <time>2019-10-16T11:47:44Z</time>
      </trkpt>
      <trkpt lat="-22.123765" lon="-45.516743">
        <ele>891.175</ele>
        <time>2019-10-16T11:47:47Z</time>
      </trkpt>
      <trkpt lat="-22.123830" lon="-45.516774">
        <ele>891.693</ele>
        <time>2019-10-16T11:47:49Z</time>
      </trkpt>
      <trkpt lat="-22.123883" lon="-45.516800">
        <ele>891.965</ele>
        <time>2019-10-16T11:47:51Z</time>
      </trkpt>
      <trkpt lat="-22.123959" lon="-45.516832">
        <ele>892.221</ele>
        <time>2019-10-16T11:47:55Z</time>
      </trkpt>
      <trkpt lat="-22.124005" lon="-45.516853">
        <ele>892.308</ele>
        <time>2019-10-16T11:47:57Z</time>
      </trkpt>
      <trkpt lat="-22.124055" lon="-45.516871">
        <ele>892.443</ele>
        <time>2019-10-16T11:47:59Z</time>
      </trkpt>
      <trkpt lat="-22.124105" lon="-45.516891">
        <ele>892.571</ele>
        <time>2019-10-16T11:48:02Z</time>
      </trkpt>
      <trkpt lat="-22.124155" lon="-45.516917">
        <ele>892.564</ele>
        <time>2019-10-16T11:48:04Z</time>
      </trkpt>
      <trkpt lat="-22.124216" lon="-45.516940">
        <ele>892.852</ele>
        <time>2019-10-16T11:48:07Z</time>
      </trkpt>
      <trkpt lat="-22.124274" lon="-45.516974">
        <ele>893.192</ele>
        <time>2019-10-16T11:48:10Z</time>
      </trkpt>
      <trkpt lat="-22.124319" lon="-45.516989">
        <ele>893.374</ele>
        <time>2019-10-16T11:48:13Z</time>
      </trkpt>
      <trkpt lat="-22.124372" lon="-45.517009">
        <ele>893.518</ele>
        <time>2019-10-16T11:48:16Z</time>
      </trkpt>
      <trkpt lat="-22.124430" lon="-45.517025">
        <ele>893.635</ele>
        <time>2019-10-16T11:48:19Z</time>
      </trkpt>
      <trkpt lat="-22.124482" lon="-45.517045">
        <ele>893.879</ele>
        <time>2019-10-16T11:48:21Z</time>
      </trkpt>
      <trkpt lat="-22.124533" lon="-45.517064">
        <ele>893.905</ele>
        <time>2019-10-16T11:48:24Z</time>
      </trkpt>
      <trkpt lat="-22.124586" lon="-45.517094">
        <ele>894.025</ele>
        <time>2019-10-16T11:48:27Z</time>
      </trkpt>
      <trkpt lat="-22.124682" lon="-45.517135">
        <ele>894.108</ele>
        <time>2019-10-16T11:48:33Z</time>
      </trkpt>
      <trkpt lat="-22.124748" lon="-45.517157">
        <ele>894.121</ele>
        <time>2019-10-16T11:48:36Z</time>
      </trkpt>
      <trkpt lat="-22.124799" lon="-45.517178">
        <ele>894.129</ele>
        <time>2019-10-16T11:48:40Z</time>
      </trkpt>
      <trkpt lat="-22.124845" lon="-45.517194">
        <ele>894.192</ele>
        <time>2019-10-16T11:48:43Z</time>
      </trkpt>
      <trkpt lat="-22.124892" lon="-45.517211">
        <ele>894.110</ele>
        <time>2019-10-16T11:48:45Z</time>
      </trkpt>
      <trkpt lat="-22.124943" lon="-45.517226">
        <ele>894.030</ele>
        <time>2019-10-16T11:48:48Z</time>
      </trkpt>
      <trkpt lat="-22.124996" lon="-45.517236">
        <ele>894.092</ele>
        <time>2019-10-16T11:48:51Z</time>
      </trkpt>
      <trkpt lat="-22.125047" lon="-45.517246">
        <ele>894.896</ele>
        <time>2019-10-16T11:48:55Z</time>
      </trkpt>
      <trkpt lat="-22.125125" lon="-45.517266">
        <ele>896.263</ele>
        <time>2019-10-16T11:49:00Z</time>
      </trkpt>
      <trkpt lat="-22.125188" lon="-45.517284">
        <ele>897.382</ele>
        <time>2019-10-16T11:49:05Z</time>
      </trkpt>
      <trkpt lat="-22.125238" lon="-45.517301">
        <ele>898.243</ele>
        <time>2019-10-16T11:49:09Z</time>
      </trkpt>
      <trkpt lat="-22.125286" lon="-45.517305">
        <ele>899.117</ele>
        <time>2019-10-16T11:49:12Z</time>
      </trkpt>
      <trkpt lat="-22.125331" lon="-45.517320">
        <ele>899.908</ele>
        <time>2019-10-16T11:49:16Z</time>
      </trkpt>
      <trkpt lat="-22.125378" lon="-45.517345">
        <ele>900.642</ele>
        <time>2019-10-16T11:49:20Z</time>
      </trkpt>
      <trkpt lat="-22.125427" lon="-45.517367">
        <ele>901.450</ele>
        <time>2019-10-16T11:49:23Z</time>
      </trkpt>
      <trkpt lat="-22.125482" lon="-45.517383">
        <ele>902.313</ele>
        <time>2019-10-16T11:49:29Z</time>
      </trkpt>
      <trkpt lat="-22.125529" lon="-45.517409">
        <ele>903.131</ele>
        <time>2019-10-16T11:49:36Z</time>
      </trkpt>
      <trkpt lat="-22.125595" lon="-45.517436">
        <ele>904.111</ele>
        <time>2019-10-16T11:49:39Z</time>
      </trkpt>
      <trkpt lat="-22.125638" lon="-45.517457">
        <ele>904.853</ele>
        <time>2019-10-16T11:49:41Z</time>
      </trkpt>
      <trkpt lat="-22.125687" lon="-45.517487">
        <ele>905.537</ele>
        <time>2019-10-16T11:49:47Z</time>
      </trkpt>
      <trkpt lat="-22.125750" lon="-45.517529">
        <ele>906.384</ele>
        <time>2019-10-16T11:49:52Z</time>
      </trkpt>
      <trkpt lat="-22.125799" lon="-45.517549">
        <ele>906.953</ele>
        <time>2019-10-16T11:49:56Z</time>
      </trkpt>
      <trkpt lat="-22.125843" lon="-45.517570">
        <ele>907.604</ele>
        <time>2019-10-16T11:50:01Z</time>
      </trkpt>
      <trkpt lat="-22.125893" lon="-45.517594">
        <ele>908.614</ele>
        <time>2019-10-16T11:50:04Z</time>
      </trkpt>
      <trkpt lat="-22.125942" lon="-45.517617">
        <ele>909.508</ele>
        <time>2019-10-16T11:50:10Z</time>
      </trkpt>
      <trkpt lat="-22.125989" lon="-45.517638">
        <ele>910.449</ele>
        <time>2019-10-16T11:50:13Z</time>
      </trkpt>
      <trkpt lat="-22.126036" lon="-45.517656">
        <ele>911.497</ele>
        <time>2019-10-16T11:50:17Z</time>
      </trkpt>
      <trkpt lat="-22.126088" lon="-45.517680">
        <ele>912.390</ele>
        <time>2019-10-16T11:50:22Z</time>
      </trkpt>
      <trkpt lat="-22.126136" lon="-45.517702">
        <ele>913.158</ele>
        <time>2019-10-16T11:50:25Z</time>
      </trkpt>
      <trkpt lat="-22.126177" lon="-45.517730">
        <ele>913.628</ele>
        <time>2019-10-16T11:50:29Z</time>
      </trkpt>
      <trkpt lat="-22.126220" lon="-45.517750">
        <ele>914.390</ele>
        <time>2019-10-16T11:50:33Z</time>
      </trkpt>
      <trkpt lat="-22.126273" lon="-45.517780">
        <ele>915.054</ele>
        <time>2019-10-16T11:50:37Z</time>
      </trkpt>
      <trkpt lat="-22.126346" lon="-45.517818">
        <ele>915.911</ele>
        <time>2019-10-16T11:50:43Z</time>
      </trkpt>
      <trkpt lat="-22.126405" lon="-45.517840">
        <ele>916.772</ele>
        <time>2019-10-16T11:50:46Z</time>
      </trkpt>
      <trkpt lat="-22.126456" lon="-45.517863">
        <ele>917.413</ele>
        <time>2019-10-16T11:50:50Z</time>
      </trkpt>
      <trkpt lat="-22.126510" lon="-45.517888">
        <ele>918.014</ele>
        <time>2019-10-16T11:50:54Z</time>
      </trkpt>
      <trkpt lat="-22.126565" lon="-45.517905">
        <ele>918.708</ele>
        <time>2019-10-16T11:50:57Z</time>
      </trkpt>
      <trkpt lat="-22.126617" lon="-45.517929">
        <ele>919.261</ele>
        <time>2019-10-16T11:51:01Z</time>
      </trkpt>
      <trkpt lat="-22.126662" lon="-45.517951">
        <ele>919.649</ele>
        <time>2019-10-16T11:51:04Z</time>
      </trkpt>
      <trkpt lat="-22.126703" lon="-45.517972">
        <ele>919.922</ele>
        <time>2019-10-16T11:51:07Z</time>
      </trkpt>
      <trkpt lat="-22.126765" lon="-45.518005">
        <ele>920.350</ele>
        <time>2019-10-16T11:51:11Z</time>
      </trkpt>
      <trkpt lat="-22.126807" lon="-45.518027">
        <ele>920.570</ele>
        <time>2019-10-16T11:51:14Z</time>
      </trkpt>
      <trkpt lat="-22.126859" lon="-45.518054">
        <ele>920.882</ele>
        <time>2019-10-16T11:51:18Z</time>
      </trkpt>
      <trkpt lat="-22.126935" lon="-45.518086">
        <ele>921.426</ele>
        <time>2019-10-16T11:51:25Z</time>
      </trkpt>
      <trkpt lat="-22.126979" lon="-45.518109">
        <ele>921.773</ele>
        <time>2019-10-16T11:51:27Z</time>
      </trkpt>
      <trkpt lat="-22.127025" lon="-45.518126">
        <ele>922.168</ele>
        <time>2019-10-16T11:51:30Z</time>
      </trkpt>
      <trkpt lat="-22.127082" lon="-45.518153">
        <ele>922.442</ele>
        <time>2019-10-16T11:51:34Z</time>
      </trkpt>
      <trkpt lat="-22.127143" lon="-45.518185">
        <ele>922.726</ele>
        <time>2019-10-16T11:51:38Z</time>
      </trkpt>
      <trkpt lat="-22.127188" lon="-45.518207">
        <ele>922.908</ele>
        <time>2019-10-16T11:51:41Z</time>
      </trkpt>
      <trkpt lat="-22.127244" lon="-45.518234">
        <ele>923.270</ele>
        <time>2019-10-16T11:51:46Z</time>
      </trkpt>
      <trkpt lat="-22.127295" lon="-45.518245">
        <ele>923.838</ele>
        <time>2019-10-16T11:51:48Z</time>
      </trkpt>
      <trkpt lat="-22.127348" lon="-45.518255">
        <ele>924.571</ele>
        <time>2019-10-16T11:51:52Z</time>
      </trkpt>
      <trkpt lat="-22.127385" lon="-45.518288">
        <ele>924.249</ele>
        <time>2019-10-16T11:51:55Z</time>
      </trkpt>
      <trkpt lat="-22.127425" lon="-45.518313">
        <ele>924.369</ele>
        <time>2019-10-16T11:52:00Z</time>
      </trkpt>
      <trkpt lat="-22.127465" lon="-45.518338">
        <ele>924.481</ele>
        <time>2019-10-16T11:52:05Z</time>
      </trkpt>
      <trkpt lat="-22.127514" lon="-45.518365">
        <ele>925.215</ele>
        <time>2019-10-16T11:52:12Z</time>
      </trkpt>
      <trkpt lat="-22.127558" lon="-45.518382">
        <ele>926.432</ele>
        <time>2019-10-16T11:52:17Z</time>
      </trkpt>
      <trkpt lat="-22.127605" lon="-45.518405">
        <ele>927.616</ele>
        <time>2019-10-16T11:52:23Z</time>
      </trkpt>
      <trkpt lat="-22.127656" lon="-45.518426">
        <ele>928.976</ele>
        <time>2019-10-16T11:52:30Z</time>
      </trkpt>
      <trkpt lat="-22.127715" lon="-45.518455">
        <ele>930.413</ele>
        <time>2019-10-16T11:52:37Z</time>
      </trkpt>
      <trkpt lat="-22.127762" lon="-45.518475">
        <ele>931.608</ele>
        <time>2019-10-16T11:52:42Z</time>
      </trkpt>
      <trkpt lat="-22.127822" lon="-45.518503">
        <ele>933.115</ele>
        <time>2019-10-16T11:52:49Z</time>
      </trkpt>
      <trkpt lat="-22.127875" lon="-45.518529">
        <ele>934.313</ele>
        <time>2019-10-16T11:52:55Z</time>
      </trkpt>
      <trkpt lat="-22.127935" lon="-45.518571">
        <ele>935.576</ele>
        <time>2019-10-16T11:53:03Z</time>
      </trkpt>
      <trkpt lat="-22.127997" lon="-45.518621">
        <ele>936.674</ele>
        <time>2019-10-16T11:53:12Z</time>
      </trkpt>
      <trkpt lat="-22.128042" lon="-45.518651">
        <ele>937.554</ele>
        <time>2019-10-16T11:53:18Z</time>
      </trkpt>
      <trkpt lat="-22.128081" lon="-45.518679">
        <ele>938.296</ele>
        <time>2019-10-16T11:53:24Z</time>
      </trkpt>
      <trkpt lat="-22.128126" lon="-45.518709">
        <ele>939.080</ele>
        <time>2019-10-16T11:53:29Z</time>
      </trkpt>
      <trkpt lat="-22.128173" lon="-45.518731">
        <ele>940.037</ele>
        <time>2019-10-16T11:53:35Z</time>
      </trkpt>
      <trkpt lat="-22.128232" lon="-45.518774">
        <ele>940.991</ele>
        <time>2019-10-16T11:53:42Z</time>
      </trkpt>
      <trkpt lat="-22.128278" lon="-45.518800">
        <ele>941.781</ele>
        <time>2019-10-16T11:53:48Z</time>
      </trkpt>
      <trkpt lat="-22.128349" lon="-45.518843">
        <ele>943.119</ele>
        <time>2019-10-16T11:53:58Z</time>
      </trkpt>
      <trkpt lat="-22.128389" lon="-45.518873">
        <ele>944.308</ele>
        <time>2019-10-16T11:54:05Z</time>
      </trkpt>
      <trkpt lat="-22.128439" lon="-45.518905">
        <ele>945.873</ele>
        <time>2019-10-16T11:54:11Z</time>
      </trkpt>
      <trkpt lat="-22.128500" lon="-45.518943">
        <ele>947.651</ele>
        <time>2019-10-16T11:54:18Z</time>
      </trkpt>
      <trkpt lat="-22.128544" lon="-45.518966">
        <ele>949.044</ele>
        <time>2019-10-16T11:54:24Z</time>
      </trkpt>
      <trkpt lat="-22.128587" lon="-45.518993">
        <ele>950.352</ele>
        <time>2019-10-16T11:54:29Z</time>
      </trkpt>
      <trkpt lat="-22.128634" lon="-45.519022">
        <ele>951.612</ele>
        <time>2019-10-16T11:54:34Z</time>
      </trkpt>
      <trkpt lat="-22.128696" lon="-45.519040">
        <ele>953.864</ele>
        <time>2019-10-16T11:54:41Z</time>
      </trkpt>
      <trkpt lat="-22.128765" lon="-45.519073">
        <ele>956.018</ele>
        <time>2019-10-16T11:54:50Z</time>
      </trkpt>
      <trkpt lat="-22.128805" lon="-45.519104">
        <ele>956.915</ele>
        <time>2019-10-16T11:54:56Z</time>
      </trkpt>
      <trkpt lat="-22.128840" lon="-45.519144">
        <ele>957.543</ele>
        <time>2019-10-16T11:55:02Z</time>
      </trkpt>
      <trkpt lat="-22.128882" lon="-45.519183">
        <ele>958.864</ele>
        <time>2019-10-16T11:55:08Z</time>
      </trkpt>
      <trkpt lat="-22.128924" lon="-45.519218">
        <ele>960.710</ele>
        <time>2019-10-16T11:55:13Z</time>
      </trkpt>
      <trkpt lat="-22.128961" lon="-45.519247">
        <ele>962.308</ele>
        <time>2019-10-16T11:55:18Z</time>
      </trkpt>
      <trkpt lat="-22.128999" lon="-45.519274">
        <ele>963.988</ele>
        <time>2019-10-16T11:55:22Z</time>
      </trkpt>
      <trkpt lat="-22.129041" lon="-45.519293">
        <ele>965.666</ele>
        <time>2019-10-16T11:55:26Z</time>
      </trkpt>
      <trkpt lat="-22.129075" lon="-45.519348">
        <ele>967.099</ele>
        <time>2019-10-16T11:55:32Z</time>
      </trkpt>
      <trkpt lat="-22.129107" lon="-45.519394">
        <ele>968.417</ele>
        <time>2019-10-16T11:55:39Z</time>
      </trkpt>
      <trkpt lat="-22.129155" lon="-45.519423">
        <ele>970.297</ele>
        <time>2019-10-16T11:55:46Z</time>
      </trkpt>
      <trkpt lat="-22.129178" lon="-45.519478">
        <ele>971.119</ele>
        <time>2019-10-16T11:55:51Z</time>
      </trkpt>
      <trkpt lat="-22.129196" lon="-45.519524">
        <ele>971.733</ele>
        <time>2019-10-16T11:55:56Z</time>
      </trkpt>
      <trkpt lat="-22.129224" lon="-45.519563">
        <ele>972.640</ele>
        <time>2019-10-16T11:56:02Z</time>
      </trkpt>
      <trkpt lat="-22.129244" lon="-45.519606">
        <ele>973.325</ele>
        <time>2019-10-16T11:56:07Z</time>
      </trkpt>
      <trkpt lat="-22.129279" lon="-45.519657">
        <ele>974.326</ele>
        <time>2019-10-16T11:56:13Z</time>
      </trkpt>
      <trkpt lat="-22.129321" lon="-45.519700">
        <ele>975.508</ele>
        <time>2019-10-16T11:56:19Z</time>
      </trkpt>
      <trkpt lat="-22.129339" lon="-45.519748">
        <ele>976.008</ele>
        <time>2019-10-16T11:56:23Z</time>
      </trkpt>
      <trkpt lat="-22.129351" lon="-45.519801">
        <ele>976.346</ele>
        <time>2019-10-16T11:56:26Z</time>
      </trkpt>
      <trkpt lat="-22.129387" lon="-45.519855">
        <ele>977.144</ele>
        <time>2019-10-16T11:56:34Z</time>
      </trkpt>
      <trkpt lat="-22.129416" lon="-45.519897">
        <ele>977.847</ele>
        <time>2019-10-16T11:56:39Z</time>
      </trkpt>
      <trkpt lat="-22.129446" lon="-45.519934">
        <ele>978.565</ele>
        <time>2019-10-16T11:56:43Z</time>
      </trkpt>
      <trkpt lat="-22.129491" lon="-45.519976">
        <ele>979.465</ele>
        <time>2019-10-16T11:56:46Z</time>
      </trkpt>
      <trkpt lat="-22.129534" lon="-45.520001">
        <ele>980.487</ele>
        <time>2019-10-16T11:56:49Z</time>
      </trkpt>
      <trkpt lat="-22.129576" lon="-45.520021">
        <ele>981.621</ele>
        <time>2019-10-16T11:56:54Z</time>
      </trkpt>
      <trkpt lat="-22.129626" lon="-45.520053">
        <ele>983.058</ele>
        <time>2019-10-16T11:57:01Z</time>
      </trkpt>
      <trkpt lat="-22.129674" lon="-45.520078">
        <ele>984.234</ele>
        <time>2019-10-16T11:57:07Z</time>
      </trkpt>
      <trkpt lat="-22.129715" lon="-45.520104">
        <ele>985.255</ele>
        <time>2019-10-16T11:57:11Z</time>
      </trkpt>
      <trkpt lat="-22.129761" lon="-45.520131">
        <ele>986.210</ele>
        <time>2019-10-16T11:57:15Z</time>
      </trkpt>
      <trkpt lat="-22.129808" lon="-45.520149">
        <ele>987.108</ele>
        <time>2019-10-16T11:57:20Z</time>
      </trkpt>
      <trkpt lat="-22.129866" lon="-45.520170">
        <ele>988.067</ele>
        <time>2019-10-16T11:57:25Z</time>
      </trkpt>
      <trkpt lat="-22.129910" lon="-45.520193">
        <ele>988.715</ele>
        <time>2019-10-16T11:57:30Z</time>
      </trkpt>
      <trkpt lat="-22.129978" lon="-45.520221">
        <ele>989.678</ele>
        <time>2019-10-16T11:57:35Z</time>
      </trkpt>
      <trkpt lat="-22.130050" lon="-45.520245">
        <ele>989.536</ele>
        <time>2019-10-16T11:57:39Z</time>
      </trkpt>
      <trkpt lat="-22.130092" lon="-45.520291">
        <ele>988.896</ele>
        <time>2019-10-16T11:57:42Z</time>
      </trkpt>
      <trkpt lat="-22.130136" lon="-45.520335">
        <ele>988.088</ele>
        <time>2019-10-16T11:57:44Z</time>
      </trkpt>
      <trkpt lat="-22.130211" lon="-45.520405">
        <ele>986.512</ele>
        <time>2019-10-16T11:57:47Z</time>
      </trkpt>
      <trkpt lat="-22.130257" lon="-45.520450">
        <ele>985.389</ele>
        <time>2019-10-16T11:57:48Z</time>
      </trkpt>
      <trkpt lat="-22.130302" lon="-45.520488">
        <ele>984.154</ele>
        <time>2019-10-16T11:57:50Z</time>
      </trkpt>
      <trkpt lat="-22.130349" lon="-45.520522">
        <ele>982.956</ele>
        <time>2019-10-16T11:57:52Z</time>
      </trkpt>
      <trkpt lat="-22.130386" lon="-45.520556">
        <ele>981.711</ele>
        <time>2019-10-16T12:00:12Z</time>
      </trkpt>
      <trkpt lat="-22.130697" lon="-45.520744">
        <ele>971.108</ele>
        <time>2019-10-16T12:00:20Z</time>
      </trkpt>
      <trkpt lat="-22.130928" lon="-45.520814">
        <ele>964.689</ele>
        <time>2019-10-16T12:00:26Z</time>
      </trkpt>
      <trkpt lat="-22.136887" lon="-45.520444">
        <ele>869.337</ele>
        <time>2019-10-16T12:02:09Z</time>
      </trkpt>
      <trkpt lat="-22.136927" lon="-45.520419">
        <ele>869.480</ele>
        <time>2019-10-16T12:02:11Z</time>
      </trkpt>
      <trkpt lat="-22.136970" lon="-45.520392">
        <ele>869.468</ele>
        <time>2019-10-16T12:02:13Z</time>
      </trkpt>
      <trkpt lat="-22.137015" lon="-45.520357">
        <ele>869.548</ele>
        <time>2019-10-16T12:02:16Z</time>
      </trkpt>
      <trkpt lat="-22.137082" lon="-45.520312">
        <ele>869.550</ele>
        <time>2019-10-16T12:02:19Z</time>
      </trkpt>
      <trkpt lat="-22.137131" lon="-45.520286">
        <ele>869.524</ele>
        <time>2019-10-16T12:02:21Z</time>
      </trkpt>
      <trkpt lat="-22.137172" lon="-45.520258">
        <ele>869.591</ele>
        <time>2019-10-16T12:02:22Z</time>
      </trkpt>
      <trkpt lat="-22.137216" lon="-45.520226">
        <ele>869.543</ele>
        <time>2019-10-16T12:02:24Z</time>
      </trkpt>
      <trkpt lat="-22.137264" lon="-45.520188">
        <ele>869.464</ele>
        <time>2019-10-16T12:02:25Z</time>
      </trkpt>
      <trkpt lat="-22.137321" lon="-45.520140">
        <ele>869.410</ele>
        <time>2019-10-16T12:02:28Z</time>
      </trkpt>
      <trkpt lat="-22.137362" lon="-45.520111">
        <ele>869.308</ele>
        <time>2019-10-16T12:02:29Z</time>
      </trkpt>
      <trkpt lat="-22.137404" lon="-45.520075">
        <ele>869.258</ele>
        <time>2019-10-16T12:02:31Z</time>
      </trkpt>
      <trkpt lat="-22.137471" lon="-45.520013">
        <ele>869.166</ele>
        <time>2019-10-16T12:02:34Z</time>
      </trkpt>
      <trkpt lat="-22.137509" lon="-45.519976">
        <ele>869.179</ele>
        <time>2019-10-16T12:02:35Z</time>
      </trkpt>
      <trkpt lat="-22.137559" lon="-45.519943">
        <ele>869.517</ele>
        <time>2019-10-16T12:02:37Z</time>
      </trkpt>
      <trkpt lat="-22.137615" lon="-45.519906">
        <ele>870.047</ele>
        <time>2019-10-16T12:02:39Z</time>
      </trkpt>
      <trkpt lat="-22.137690" lon="-45.519876">
        <ele>870.679</ele>
        <time>2019-10-16T12:02:41Z</time>
      </trkpt>
      <trkpt lat="-22.137752" lon="-45.519864">
        <ele>871.033</ele>
        <time>2019-10-16T12:02:43Z</time>
      </trkpt>
      <trkpt lat="-22.137804" lon="-45.519874">
        <ele>871.390</ele>
        <time>2019-10-16T12:02:45Z</time>
      </trkpt>
      <trkpt lat="-22.137865" lon="-45.519904">
        <ele>871.575</ele>
        <time>2019-10-16T12:02:48Z</time>
      </trkpt>
      <trkpt lat="-22.137905" lon="-45.519928">
        <ele>871.528</ele>
        <time>2019-10-16T12:02:50Z</time>
      </trkpt>
      <trkpt lat="-22.137974" lon="-45.519966">
        <ele>871.620</ele>
        <time>2019-10-16T12:02:54Z</time>
      </trkpt>
      <trkpt lat="-22.138022" lon="-45.519985">
        <ele>871.608</ele>
        <time>2019-10-16T12:02:57Z</time>
      </trkpt>
      <trkpt lat="-22.138065" lon="-45.520005">
        <ele>871.791</ele>
        <time>2019-10-16T12:03:00Z</time>
      </trkpt>
      <trkpt lat="-22.138121" lon="-45.520042">
        <ele>871.779</ele>
        <time>2019-10-16T12:03:03Z</time>
      </trkpt>
      <trkpt lat="-22.138171" lon="-45.520074">
        <ele>871.882</ele>
        <time>2019-10-16T12:03:06Z</time>
      </trkpt>
      <trkpt lat="-22.138217" lon="-45.520101">
        <ele>871.880</ele>
        <time>2019-10-16T12:03:10Z</time>
      </trkpt>
      <trkpt lat="-22.138260" lon="-45.520166">
        <ele>871.570</ele>
        <time>2019-10-16T12:03:12Z</time>
      </trkpt>
      <trkpt lat="-22.138308" lon="-45.520164">
        <ele>871.762</ele>
        <time>2019-10-16T12:04:04Z</time>
      </trkpt>
      <trkpt lat="-22.138355" lon="-45.520195">
        <ele>871.796</ele>
        <time>2019-10-16T12:09:47Z</time>
      </trkpt>
      <trkpt lat="-22.138421" lon="-45.520219">
        <ele>871.843</ele>
        <time>2019-10-16T12:09:51Z</time>
      </trkpt>
      <trkpt lat="-22.138470" lon="-45.520238">
        <ele>871.928</ele>
        <time>2019-10-16T12:09:55Z</time>
      </trkpt>
      <trkpt lat="-22.138533" lon="-45.520262">
        <ele>871.989</ele>
        <time>2019-10-16T12:09:59Z</time>
      </trkpt>
      <trkpt lat="-22.138595" lon="-45.520271">
        <ele>872.117</ele>
        <time>2019-10-16T12:10:02Z</time>
      </trkpt>
      <trkpt lat="-22.138644" lon="-45.520289">
        <ele>872.108</ele>
        <time>2019-10-16T12:10:05Z</time>
      </trkpt>
      <trkpt lat="-22.138696" lon="-45.520304">
        <ele>872.276</ele>
        <time>2019-10-16T12:10:07Z</time>
      </trkpt>
      <trkpt lat="-22.138749" lon="-45.520300">
        <ele>872.424</ele>
        <time>2019-10-16T12:10:10Z</time>
      </trkpt>
      <trkpt lat="-22.138794" lon="-45.520301">
        <ele>872.627</ele>
        <time>2019-10-16T12:10:13Z</time>
      </trkpt>
      <trkpt lat="-22.138852" lon="-45.520308">
        <ele>872.755</ele>
        <time>2019-10-16T12:10:16Z</time>
      </trkpt>
      <trkpt lat="-22.138907" lon="-45.520305">
        <ele>873.085</ele>
        <time>2019-10-16T12:10:18Z</time>
      </trkpt>
      <trkpt lat="-22.138964" lon="-45.520291">
        <ele>873.497</ele>
        <time>2019-10-16T12:10:22Z</time>
      </trkpt>
      <trkpt lat="-22.139052" lon="-45.520269">
        <ele>874.061</ele>
        <time>2019-10-16T12:10:26Z</time>
      </trkpt>
      <trkpt lat="-22.139096" lon="-45.520252">
        <ele>874.438</ele>
        <time>2019-10-16T12:10:28Z</time>
      </trkpt>
      <trkpt lat="-22.139150" lon="-45.520225">
        <ele>875.078</ele>
        <time>2019-10-16T12:10:30Z</time>
      </trkpt>
      <trkpt lat="-22.139196" lon="-45.520201">
        <ele>875.033</ele>
        <time>2019-10-16T12:10:31Z</time>
      </trkpt>
      <trkpt lat="-22.139256" lon="-45.520156">
        <ele>874.926</ele>
        <time>2019-10-16T12:10:34Z</time>
      </trkpt>
      <trkpt lat="-22.139293" lon="-45.520119">
        <ele>874.908</ele>
        <time>2019-10-16T12:10:36Z</time>
      </trkpt>
      <trkpt lat="-22.139341" lon="-45.520081">
        <ele>874.721</ele>
        <time>2019-10-16T12:10:38Z</time>
      </trkpt>
      <trkpt lat="-22.139376" lon="-45.520046">
        <ele>874.639</ele>
        <time>2019-10-16T12:10:39Z</time>
      </trkpt>
      <trkpt lat="-22.139409" lon="-45.519999">
        <ele>874.582</ele>
        <time>2019-10-16T12:10:41Z</time>
      </trkpt>
      <trkpt lat="-22.139452" lon="-45.519935">
        <ele>874.730</ele>
        <time>2019-10-16T12:10:42Z</time>
      </trkpt>
      <trkpt lat="-22.140365" lon="-45.518982">
        <ele>876.970</ele>
        <time>2019-10-16T12:11:12Z</time>
      </trkpt>
      <trkpt lat="-22.140432" lon="-45.518958">
        <ele>876.852</ele>
        <time>2019-10-16T12:11:14Z</time>
      </trkpt>
      <trkpt lat="-22.140495" lon="-45.518941">
        <ele>876.666</ele>
        <time>2019-10-16T12:11:16Z</time>
      </trkpt>
      <trkpt lat="-22.140578" lon="-45.518909">
        <ele>876.613</ele>
        <time>2019-10-16T12:11:19Z</time>
      </trkpt>
      <trkpt lat="-22.140622" lon="-45.518886">
        <ele>876.742</ele>
        <time>2019-10-16T12:11:20Z</time>
      </trkpt>
      <trkpt lat="-22.140680" lon="-45.518859">
        <ele>876.822</ele>
        <time>2019-10-16T12:11:23Z</time>
      </trkpt>
      <trkpt lat="-22.140735" lon="-45.518834">
        <ele>876.814</ele>
        <time>2019-10-16T12:11:25Z</time>
      </trkpt>
      <trkpt lat="-22.140786" lon="-45.518816">
        <ele>876.808</ele>
        <time>2019-10-16T12:11:27Z</time>
      </trkpt>
      <trkpt lat="-22.140831" lon="-45.518803">
        <ele>876.638</ele>
        <time>2019-10-16T12:11:29Z</time>
      </trkpt>
      <trkpt lat="-22.140876" lon="-45.518779">
        <ele>877.036</ele>
        <time>2019-10-16T12:11:30Z</time>
      </trkpt>
      <trkpt lat="-22.140926" lon="-45.518745">
        <ele>877.529</ele>
        <time>2019-10-16T12:11:32Z</time>
      </trkpt>
      <trkpt lat="-22.140981" lon="-45.518705">
        <ele>878.187</ele>
        <time>2019-10-16T12:11:35Z</time>
      </trkpt>
      <trkpt lat="-22.141025" lon="-45.518674">
        <ele>878.427</ele>
        <time>2019-10-16T12:11:37Z</time>
      </trkpt>
      <trkpt lat="-22.141070" lon="-45.518639">
        <ele>878.789</ele>
        <time>2019-10-16T12:11:39Z</time>
      </trkpt>
      <trkpt lat="-22.141136" lon="-45.518592">
        <ele>879.053</ele>
        <time>2019-10-16T12:11:42Z</time>
      </trkpt>
      <trkpt lat="-22.141193" lon="-45.518545">
        <ele>879.290</ele>
        <time>2019-10-16T12:11:45Z</time>
      </trkpt>
      <trkpt lat="-22.141248" lon="-45.518495">
        <ele>879.464</ele>
        <time>2019-10-16T12:11:48Z</time>
      </trkpt>
      <trkpt lat="-22.141291" lon="-45.518450">
        <ele>879.506</ele>
        <time>2019-10-16T12:11:50Z</time>
      </trkpt>
      <trkpt lat="-22.141328" lon="-45.518410">
        <ele>879.616</ele>
        <time>2019-10-16T12:11:51Z</time>
      </trkpt>
      <trkpt lat="-22.141374" lon="-45.518333">
        <ele>879.908</ele>
        <time>2019-10-16T12:11:54Z</time>
      </trkpt>
      <trkpt lat="-22.143630" lon="-45.517177">
        <ele>876.160</ele>
        <time>2019-10-16T12:12:48Z</time>
      </trkpt>
      <trkpt lat="-22.143680" lon="-45.517022">
        <ele>877.258</ele>
        <time>2019-10-16T12:12:54Z</time>
      </trkpt>
      <trkpt lat="-22.143696" lon="-45.516967">
        <ele>877.661</ele>
        <time>2019-10-16T12:12:55Z</time>
      </trkpt>
      <trkpt lat="-22.143720" lon="-45.516902">
        <ele>877.969</ele>
        <time>2019-10-16T12:12:57Z</time>
      </trkpt>
      <trkpt lat="-22.143752" lon="-45.516811">
        <ele>878.359</ele>
        <time>2019-10-16T12:13:01Z</time>
      </trkpt>
      <trkpt lat="-22.143764" lon="-45.516763">
        <ele>878.651</ele>
        <time>2019-10-16T12:13:02Z</time>
      </trkpt>
      <trkpt lat="-22.143779" lon="-45.516717">
        <ele>878.855</ele>
        <time>2019-10-16T12:13:04Z</time>
      </trkpt>
      <trkpt lat="-22.143795" lon="-45.516658">
        <ele>878.912</ele>
        <time>2019-10-16T12:13:06Z</time>
      </trkpt>
      <trkpt lat="-22.143808" lon="-45.516590">
        <ele>878.327</ele>
        <time>2019-10-16T12:13:09Z</time>
      </trkpt>
      <trkpt lat="-22.143815" lon="-45.516541">
        <ele>878.068</ele>
        <time>2019-10-16T12:13:11Z</time>
      </trkpt>
      <trkpt lat="-22.143823" lon="-45.516484">
        <ele>877.614</ele>
        <time>2019-10-16T12:13:12Z</time>
      </trkpt>
      <trkpt lat="-22.143823" lon="-45.516430">
        <ele>877.408</ele>
        <time>2019-10-16T12:13:14Z</time>
      </trkpt>
      <trkpt lat="-22.143820" lon="-45.516370">
        <ele>877.336</ele>
        <time>2019-10-16T12:13:16Z</time>
      </trkpt>
      <trkpt lat="-22.143817" lon="-45.516297">
        <ele>877.114</ele>
        <time>2019-10-16T12:13:18Z</time>
      </trkpt>
      <trkpt lat="-22.143810" lon="-45.516226">
        <ele>877.047</ele>
        <time>2019-10-16T12:13:20Z</time>
      </trkpt>
      <trkpt lat="-22.143799" lon="-45.516139">
        <ele>876.955</ele>
        <time>2019-10-16T12:13:22Z</time>
      </trkpt>
      <trkpt lat="-22.143339" lon="-45.514958">
        <ele>875.795</ele>
        <time>2019-10-16T12:13:47Z</time>
      </trkpt>
      <trkpt lat="-22.143321" lon="-45.514906">
        <ele>875.987</ele>
        <time>2019-10-16T12:13:48Z</time>
      </trkpt>
      <trkpt lat="-22.143295" lon="-45.514838">
        <ele>876.481</ele>
        <time>2019-10-16T12:13:51Z</time>
      </trkpt>
      <trkpt lat="-22.143269" lon="-45.514768">
        <ele>876.818</ele>
        <time>2019-10-16T12:13:54Z</time>
      </trkpt>
      <trkpt lat="-22.143248" lon="-45.514720">
        <ele>877.132</ele>
        <time>2019-10-16T12:13:57Z</time>
      </trkpt>
      <trkpt lat="-22.143230" lon="-45.514665">
        <ele>877.392</ele>
        <time>2019-10-16T12:13:59Z</time>
      </trkpt>
      <trkpt lat="-22.143206" lon="-45.514585">
        <ele>877.511</ele>
        <time>2019-10-16T12:14:01Z</time>
      </trkpt>
      <trkpt lat="-22.143187" lon="-45.514518">
        <ele>877.508</ele>
        <time>2019-10-16T12:14:04Z</time>
      </trkpt>
      <trkpt lat="-22.143172" lon="-45.514465">
        <ele>877.517</ele>
        <time>2019-10-16T12:14:06Z</time>
      </trkpt>
      <trkpt lat="-22.143155" lon="-45.514418">
        <ele>877.675</ele>
        <time>2019-10-16T12:14:08Z</time>
      </trkpt>
      <trkpt lat="-22.143140" lon="-45.514351">
        <ele>877.578</ele>
        <time>2019-10-16T12:14:10Z</time>
      </trkpt>
      <trkpt lat="-22.143126" lon="-45.514299">
        <ele>877.456</ele>
        <time>2019-10-16T12:14:12Z</time>
      </trkpt>
      <trkpt lat="-22.143105" lon="-45.514225">
        <ele>877.346</ele>
        <time>2019-10-16T12:14:14Z</time>
      </trkpt>
      <trkpt lat="-22.142601" lon="-45.512385">
        <ele>874.438</ele>
        <time>2019-10-16T12:14:54Z</time>
      </trkpt>
      <trkpt lat="-22.142580" lon="-45.512308">
        <ele>874.992</ele>
        <time>2019-10-16T12:14:56Z</time>
      </trkpt>
      <trkpt lat="-22.142571" lon="-45.512217">
        <ele>875.349</ele>
        <time>2019-10-16T12:14:59Z</time>
      </trkpt>
      <trkpt lat="-22.142561" lon="-45.512148">
        <ele>875.649</ele>
        <time>2019-10-16T12:15:00Z</time>
      </trkpt>
      <trkpt lat="-22.142555" lon="-45.512061">
        <ele>876.002</ele>
        <time>2019-10-16T12:15:02Z</time>
      </trkpt>
      <trkpt lat="-22.142548" lon="-45.511982">
        <ele>876.322</ele>
        <time>2019-10-16T12:15:04Z</time>
      </trkpt>
      <trkpt lat="-22.142545" lon="-45.511913">
        <ele>876.608</ele>
        <time>2019-10-16T12:15:06Z</time>
      </trkpt>
      <trkpt lat="-22.142539" lon="-45.511838">
        <ele>876.958</ele>
        <time>2019-10-16T12:15:08Z</time>
      </trkpt>
      <trkpt lat="-22.142534" lon="-45.511761">
        <ele>877.316</ele>
        <time>2019-10-16T12:15:10Z</time>
      </trkpt>
      <trkpt lat="-22.142532" lon="-45.511685">
        <ele>877.629</ele>
        <time>2019-10-16T12:15:12Z</time>
      </trkpt>
      <trkpt lat="-22.142530" lon="-45.511635">
        <ele>877.557</ele>
        <time>2019-10-16T12:15:14Z</time>
      </trkpt>
      <trkpt lat="-22.142531" lon="-45.511580">
        <ele>877.277</ele>
        <time>2019-10-16T12:15:16Z</time>
      </trkpt>
      <trkpt lat="-22.142533" lon="-45.511518">
        <ele>876.929</ele>
        <time>2019-10-16T12:15:18Z</time>
      </trkpt>
      <trkpt lat="-22.142530" lon="-45.511443">
        <ele>876.613</ele>
        <time>2019-10-16T12:15:20Z</time>
      </trkpt>
      <trkpt lat="-22.142526" lon="-45.511394">
        <ele>876.440</ele>
        <time>2019-10-16T12:15:22Z</time>
      </trkpt>
      <trkpt lat="-22.142521" lon="-45.511313">
        <ele>876.122</ele>
        <time>2019-10-16T12:15:25Z</time>
      </trkpt>
      <trkpt lat="-22.142518" lon="-45.511253">
        <ele>875.862</ele>
        <time>2019-10-16T12:15:26Z</time>
      </trkpt>
      <trkpt lat="-22.142507" lon="-45.511169">
        <ele>875.508</ele>
        <time>2019-10-16T12:15:28Z</time>
      </trkpt>
      <trkpt lat="-22.142503" lon="-45.511098">
        <ele>875.208</ele>
        <time>2019-10-16T12:15:30Z</time>
      </trkpt>
      <trkpt lat="-22.142496" lon="-45.511014">
        <ele>875.036</ele>
        <time>2019-10-16T12:15:32Z</time>
      </trkpt>
      <trkpt lat="-22.142485" lon="-45.510928">
        <ele>874.924</ele>
        <time>2019-10-16T12:15:34Z</time>
      </trkpt>
      <trkpt lat="-22.142480" lon="-45.510867">
        <ele>874.877</ele>
        <time>2019-10-16T12:15:36Z</time>
      </trkpt>
      <trkpt lat="-22.142473" lon="-45.510794">
        <ele>874.765</ele>
        <time>2019-10-16T12:15:38Z</time>
      </trkpt>
      <trkpt lat="-22.142463" lon="-45.510700">
        <ele>874.755</ele>
        <time>2019-10-16T12:15:40Z</time>
      </trkpt>
      <trkpt lat="-22.142454" lon="-45.510616">
        <ele>874.637</ele>
        <time>2019-10-16T12:15:42Z</time>
      </trkpt>
      <trkpt lat="-22.142443" lon="-45.510527">
        <ele>874.621</ele>
        <time>2019-10-16T12:15:44Z</time>
      </trkpt>
      <trkpt lat="-22.142427" lon="-45.510392">
        <ele>874.668</ele>
        <time>2019-10-16T12:15:48Z</time>
      </trkpt>
      <trkpt lat="-22.142421" lon="-45.510328">
        <ele>874.526</ele>
        <time>2019-10-16T12:15:49Z</time>
      </trkpt>
      <trkpt lat="-22.142413" lon="-45.510279">
        <ele>874.547</ele>
        <time>2019-10-16T12:15:50Z</time>
      </trkpt>
      <trkpt lat="-22.142403" lon="-45.510221">
        <ele>874.611</ele>
        <time>2019-10-16T12:15:52Z</time>
      </trkpt>
      <trkpt lat="-22.142382" lon="-45.510124">
        <ele>874.808</ele>
        <time>2019-10-16T12:15:55Z</time>
      </trkpt>
      <trkpt lat="-22.142365" lon="-45.510078">
        <ele>875.116</ele>
        <time>2019-10-16T12:15:56Z</time>
      </trkpt>
      <trkpt lat="-22.142341" lon="-45.510021">
        <ele>875.544</ele>
        <time>2019-10-16T12:15:58Z</time>
      </trkpt>
      <trkpt lat="-22.142313" lon="-45.509972">
        <ele>876.097</ele>
        <time>2019-10-16T12:16:00Z</time>
      </trkpt>
      <trkpt lat="-22.142263" lon="-45.509892">
        <ele>876.845</ele>
        <time>2019-10-16T12:16:02Z</time>
      </trkpt>
      <trkpt lat="-22.141682" lon="-45.508581">
        <ele>876.215</ele>
        <time>2019-10-16T12:16:32Z</time>
      </trkpt>
      <trkpt lat="-22.141650" lon="-45.508511">
        <ele>876.297</ele>
        <time>2019-10-16T12:16:35Z</time>
      </trkpt>
      <trkpt lat="-22.141626" lon="-45.508459">
        <ele>876.311</ele>
        <time>2019-10-16T12:16:36Z</time>
      </trkpt>
      <trkpt lat="-22.141594" lon="-45.508388">
        <ele>876.658</ele>
        <time>2019-10-16T12:16:38Z</time>
      </trkpt>
      <trkpt lat="-22.141570" lon="-45.508331">
        <ele>876.823</ele>
        <time>2019-10-16T12:16:40Z</time>
      </trkpt>
      <trkpt lat="-22.141535" lon="-45.508247">
        <ele>877.683</ele>
        <time>2019-10-16T12:16:43Z</time>
      </trkpt>
      <trkpt lat="-22.141504" lon="-45.508183">
        <ele>878.311</ele>
        <time>2019-10-16T12:16:45Z</time>
      </trkpt>
      <trkpt lat="-22.141479" lon="-45.508140">
        <ele>878.808</ele>
        <time>2019-10-16T12:16:46Z</time>
      </trkpt>
      <trkpt lat="-22.141454" lon="-45.508088">
        <ele>879.216</ele>
        <time>2019-10-16T12:16:49Z</time>
      </trkpt>
      <trkpt lat="-22.141426" lon="-45.508022">
        <ele>879.674</ele>
        <time>2019-10-16T12:16:51Z</time>
      </trkpt>
      <trkpt lat="-22.141393" lon="-45.507953">
        <ele>880.127</ele>
        <time>2019-10-16T12:16:54Z</time>
      </trkpt>
      <trkpt lat="-22.141374" lon="-45.507900">
        <ele>880.215</ele>
        <time>2019-10-16T12:16:56Z</time>
      </trkpt>
      <trkpt lat="-22.141342" lon="-45.507833">
        <ele>880.575</ele>
        <time>2019-10-16T12:16:59Z</time>
      </trkpt>
      <trkpt lat="-22.141313" lon="-45.507760">
        <ele>880.737</ele>
        <time>2019-10-16T12:17:03Z</time>
      </trkpt>
      <trkpt lat="-22.141303" lon="-45.507705">
        <ele>880.511</ele>
        <time>2019-10-16T12:17:05Z</time>
      </trkpt>
      <trkpt lat="-22.141279" lon="-45.507634">
        <ele>880.528</ele>
        <time>2019-10-16T12:17:08Z</time>
      </trkpt>
      <trkpt lat="-22.141252" lon="-45.507562">
        <ele>880.446</ele>
        <time>2019-10-16T12:17:11Z</time>
      </trkpt>
      <trkpt lat="-22.141224" lon="-45.507493">
        <ele>880.388</ele>
        <time>2019-10-16T12:17:14Z</time>
      </trkpt>
      <trkpt lat="-22.141199" lon="-45.507430">
        <ele>880.416</ele>
        <time>2019-10-16T12:17:16Z</time>
      </trkpt>
      <trkpt lat="-22.141164" lon="-45.507355">
        <ele>880.408</ele>
        <time>2019-10-16T12:17:20Z</time>
      </trkpt>
      <trkpt lat="-22.141135" lon="-45.507294">
        <ele>880.398</ele>
        <time>2019-10-16T12:17:22Z</time>
      </trkpt>
      <trkpt lat="-22.141103" lon="-45.507252">
        <ele>880.456</ele>
        <time>2019-10-16T12:17:24Z</time>
      </trkpt>
      <trkpt lat="-22.141072" lon="-45.507209">
        <ele>880.429</ele>
        <time>2019-10-16T12:17:26Z</time>
      </trkpt>
      <trkpt lat="-22.141040" lon="-45.507171">
        <ele>880.387</ele>
        <time>2019-10-16T12:17:27Z</time>
      </trkpt>
      <trkpt lat="-22.140999" lon="-45.507130">
        <ele>880.347</ele>
        <time>2019-10-16T12:17:29Z</time>
      </trkpt>
      <trkpt lat="-22.140953" lon="-45.507083">
        <ele>880.239</ele>
        <time>2019-10-16T12:17:31Z</time>
      </trkpt>
      <trkpt lat="-22.140915" lon="-45.507042">
        <ele>880.073</ele>
        <time>2019-10-16T12:17:33Z</time>
      </trkpt>
      <trkpt lat="-22.140583" lon="-45.506473">
        <ele>882.360</ele>
        <time>2019-10-16T12:17:44Z</time>
      </trkpt>
      <trkpt lat="-22.140555" lon="-45.506396">
        <ele>882.758</ele>
        <time>2019-10-16T12:17:46Z</time>
      </trkpt>
      <trkpt lat="-22.140527" lon="-45.506325">
        <ele>883.052</ele>
        <time>2019-10-16T12:17:48Z</time>
      </trkpt>
      <trkpt lat="-22.140513" lon="-45.506271">
        <ele>883.117</ele>
        <time>2019-10-16T12:17:50Z</time>
      </trkpt>
      <trkpt lat="-22.140490" lon="-45.506216">
        <ele>883.208</ele>
        <time>2019-10-16T12:17:52Z</time>
      </trkpt>
      <trkpt lat="-22.140456" lon="-45.506141">
        <ele>883.439</ele>
        <time>2019-10-16T12:17:55Z</time>
      </trkpt>
      <trkpt lat="-22.140433" lon="-45.506089">
        <ele>883.457</ele>
        <time>2019-10-16T12:17:57Z</time>
      </trkpt>
      <trkpt lat="-22.140409" lon="-45.506041">
        <ele>883.540</ele>
        <time>2019-10-16T12:17:59Z</time>
      </trkpt>
      <trkpt lat="-22.140383" lon="-45.505983">
        <ele>883.448</ele>
        <time>2019-10-16T12:18:01Z</time>
      </trkpt>
      <trkpt lat="-22.140349" lon="-45.505931">
        <ele>883.438</ele>
        <time>2019-10-16T12:18:03Z</time>
      </trkpt>
      <trkpt lat="-22.140323" lon="-45.505885">
        <ele>883.330</ele>
        <time>2019-10-16T12:18:05Z</time>
      </trkpt>
      <trkpt lat="-22.140302" lon="-45.505839">
        <ele>883.224</ele>
        <time>2019-10-16T12:18:07Z</time>
      </trkpt>
      <trkpt lat="-22.140263" lon="-45.505764">
        <ele>882.991</ele>
        <time>2019-10-16T12:18:10Z</time>
      </trkpt>
      <trkpt lat="-22.140223" lon="-45.505717">
        <ele>882.826</ele>
        <time>2019-10-16T12:18:12Z</time>
      </trkpt>
      <trkpt lat="-22.139690" lon="-45.503966">
        <ele>879.847</ele>
        <time>2019-10-16T12:18:47Z</time>
      </trkpt>
      <trkpt lat="-22.139707" lon="-45.503917">
        <ele>880.411</ele>
        <time>2019-10-16T12:18:49Z</time>
      </trkpt>
      <trkpt lat="-22.139727" lon="-45.503872">
        <ele>880.908</ele>
        <time>2019-10-16T12:18:51Z</time>
      </trkpt>
      <trkpt lat="-22.139755" lon="-45.503824">
        <ele>881.356</ele>
        <time>2019-10-16T12:18:52Z</time>
      </trkpt>
      <trkpt lat="-22.139781" lon="-45.503784">
        <ele>881.524</ele>
        <time>2019-10-16T12:18:53Z</time>
      </trkpt>
      <trkpt lat="-22.139806" lon="-45.503719">
        <ele>882.117</ele>
        <time>2019-10-16T12:18:56Z</time>
      </trkpt>
      <trkpt lat="-22.139848" lon="-45.503661">
        <ele>882.385</ele>
        <time>2019-10-16T12:18:58Z</time>
      </trkpt>
      <trkpt lat="-22.139890" lon="-45.503606">
        <ele>882.435</ele>
        <time>2019-10-16T12:19:00Z</time>
      </trkpt>
      <trkpt lat="-22.139934" lon="-45.503536">
        <ele>882.627</ele>
        <time>2019-10-16T12:19:03Z</time>
      </trkpt>
      <trkpt lat="-22.139976" lon="-45.503487">
        <ele>882.421</ele>
        <time>2019-10-16T12:19:05Z</time>
      </trkpt>
      <trkpt lat="-22.140022" lon="-45.503435">
        <ele>882.528</ele>
        <time>2019-10-16T12:19:08Z</time>
      </trkpt>
      <trkpt lat="-22.140083" lon="-45.503375">
        <ele>882.521</ele>
        <time>2019-10-16T12:19:11Z</time>
      </trkpt>
      <trkpt lat="-22.140132" lon="-45.503344">
        <ele>882.341</ele>
        <time>2019-10-16T12:19:14Z</time>
      </trkpt>
      <trkpt lat="-22.140200" lon="-45.503317">
        <ele>881.605</ele>
        <time>2019-10-16T12:19:17Z</time>
      </trkpt>
      <trkpt lat="-22.140270" lon="-45.503297">
        <ele>880.808</ele>
        <time>2019-10-16T12:19:19Z</time>
      </trkpt>
      <trkpt lat="-22.140326" lon="-45.503283">
        <ele>880.196</ele>
        <time>2019-10-16T12:19:21Z</time>
      </trkpt>
      <trkpt lat="-22.140390" lon="-45.503268">
        <ele>879.434</ele>
        <time>2019-10-16T12:19:24Z</time>
      </trkpt>
      <trkpt lat="-22.140455" lon="-45.503249">
        <ele>878.677</ele>
        <time>2019-10-16T12:19:26Z</time>
      </trkpt>
      <trkpt lat="-22.140526" lon="-45.503229">
        <ele>877.855</ele>
        <time>2019-10-16T12:19:29Z</time>
      </trkpt>
      <trkpt lat="-22.140578" lon="-45.503218">
        <ele>877.215</ele>
        <time>2019-10-16T12:19:30Z</time>
      </trkpt>
      <trkpt lat="-22.140626" lon="-45.503210">
        <ele>876.687</ele>
        <time>2019-10-16T12:19:32Z</time>
      </trkpt>
      <trkpt lat="-22.140743" lon="-45.503207">
        <ele>875.221</ele>
        <time>2019-10-16T12:19:35Z</time>
      </trkpt>
      <trkpt lat="-22.140813" lon="-45.503218">
        <ele>874.428</ele>
        <time>2019-10-16T12:19:37Z</time>
      </trkpt>
      <trkpt lat="-22.140860" lon="-45.503234">
        <ele>874.264</ele>
        <time>2019-10-16T12:19:38Z</time>
      </trkpt>
      <trkpt lat="-22.140917" lon="-45.503263">
        <ele>874.206</ele>
        <time>2019-10-16T12:19:40Z</time>
      </trkpt>
      <trkpt lat="-22.140979" lon="-45.503298">
        <ele>874.216</ele>
        <time>2019-10-16T12:19:42Z</time>
      </trkpt>
      <trkpt lat="-22.141034" lon="-45.503330">
        <ele>874.208</ele>
        <time>2019-10-16T12:19:44Z</time>
      </trkpt>
      <trkpt lat="-22.141099" lon="-45.503373">
        <ele>874.710</ele>
        <time>2019-10-16T12:19:47Z</time>
      </trkpt>
      <trkpt lat="-22.141160" lon="-45.503367">
        <ele>874.798</ele>
        <time>2019-10-16T12:19:49Z</time>
      </trkpt>
      <trkpt lat="-22.141433" lon="-45.503252">
        <ele>875.011</ele>
        <time>2019-10-16T12:19:57Z</time>
      </trkpt>
      <trkpt lat="-22.141501" lon="-45.503227">
        <ele>875.129</ele>
        <time>2019-10-16T12:19:59Z</time>
      </trkpt>
      <trkpt lat="-22.141593" lon="-45.503172">
        <ele>875.539</ele>
        <time>2019-10-16T12:20:02Z</time>
      </trkpt>
      <trkpt lat="-22.141652" lon="-45.503123">
        <ele>875.721</ele>
        <time>2019-10-16T12:20:04Z</time>
      </trkpt>
      <trkpt lat="-22.141684" lon="-45.503083">
        <ele>876.365</ele>
        <time>2019-10-16T12:20:07Z</time>
      </trkpt>
      <trkpt lat="-22.141713" lon="-45.503040">
        <ele>877.182</ele>
        <time>2019-10-16T12:20:10Z</time>
      </trkpt>
      <trkpt lat="-22.141740" lon="-45.503000">
        <ele>877.711</ele>
        <time>2019-10-16T12:20:12Z</time>
      </trkpt>
      <trkpt lat="-22.141780" lon="-45.502946">
        <ele>878.621</ele>
        <time>2019-10-16T12:20:19Z</time>
      </trkpt>
      <trkpt lat="-22.141819" lon="-45.502898">
        <ele>879.403</ele>
        <time>2019-10-16T12:20:26Z</time>
      </trkpt>
      <trkpt lat="-22.141848" lon="-45.502851">
        <ele>880.008</ele>
        <time>2019-10-16T12:20:31Z</time>
      </trkpt>
      <trkpt lat="-22.141881" lon="-45.502792">
        <ele>880.525</ele>
        <time>2019-10-16T12:20:36Z</time>
      </trkpt>
      <trkpt lat="-22.141910" lon="-45.502727">
        <ele>880.983</ele>
        <time>2019-10-16T12:20:41Z</time>
      </trkpt>
      <trkpt lat="-22.141942" lon="-45.502685">
        <ele>881.316</ele>
        <time>2019-10-16T12:20:43Z</time>
      </trkpt>
      <trkpt lat="-22.141978" lon="-45.502647">
        <ele>881.824</ele>
        <time>2019-10-16T12:20:45Z</time>
      </trkpt>
      <trkpt lat="-22.142025" lon="-45.502605">
        <ele>882.374</ele>
        <time>2019-10-16T12:20:47Z</time>
      </trkpt>
      <trkpt lat="-22.142056" lon="-45.502562">
        <ele>882.576</ele>
        <time>2019-10-16T12:20:50Z</time>
      </trkpt>
      <trkpt lat="-22.142097" lon="-45.502498">
        <ele>882.720</ele>
        <time>2019-10-16T12:20:55Z</time>
      </trkpt>
      <trkpt lat="-22.142135" lon="-45.502472">
        <ele>883.287</ele>
        <time>2019-10-16T12:20:59Z</time>
      </trkpt>
      <trkpt lat="-22.142181" lon="-45.502452">
        <ele>883.914</ele>
        <time>2019-10-16T12:21:02Z</time>
      </trkpt>
      <trkpt lat="-22.142245" lon="-45.502431">
        <ele>884.754</ele>
        <time>2019-10-16T12:21:07Z</time>
      </trkpt>
      <trkpt lat="-22.142292" lon="-45.502427">
        <ele>885.209</ele>
        <time>2019-10-16T12:21:10Z</time>
      </trkpt>
      <trkpt lat="-22.142351" lon="-45.502423">
        <ele>885.808</ele>
        <time>2019-10-16T12:21:13Z</time>
      </trkpt>
      <trkpt lat="-22.142420" lon="-45.502432">
        <ele>886.565</ele>
        <time>2019-10-16T12:21:18Z</time>
      </trkpt>
      <trkpt lat="-22.142478" lon="-45.502451">
        <ele>887.053</ele>
        <time>2019-10-16T12:21:21Z</time>
      </trkpt>
      <trkpt lat="-22.142550" lon="-45.502462">
        <ele>888.836</ele>
        <time>2019-10-16T12:21:25Z</time>
      </trkpt>
      <trkpt lat="-22.142624" lon="-45.502464">
        <ele>891.124</ele>
        <time>2019-10-16T12:21:29Z</time>
      </trkpt>
      <trkpt lat="-22.142672" lon="-45.502459">
        <ele>892.634</ele>
        <time>2019-10-16T12:21:31Z</time>
      </trkpt>
      <trkpt lat="-22.142727" lon="-45.502446">
        <ele>894.376</ele>
        <time>2019-10-16T12:21:34Z</time>
      </trkpt>
      <trkpt lat="-22.142773" lon="-45.502410">
        <ele>895.650</ele>
        <time>2019-10-16T12:21:36Z</time>
      </trkpt>
      <trkpt lat="-22.142809" lon="-45.502379">
        <ele>896.677</ele>
        <time>2019-10-16T12:21:38Z</time>
      </trkpt>
      <trkpt lat="-22.142843" lon="-45.502332">
        <ele>897.437</ele>
        <time>2019-10-16T12:21:41Z</time>
      </trkpt>
      <trkpt lat="-22.142873" lon="-45.502275">
        <ele>898.049</ele>
        <time>2019-10-16T12:21:45Z</time>
      </trkpt>
      <trkpt lat="-22.142888" lon="-45.502221">
        <ele>898.113</ele>
        <time>2019-10-16T12:21:48Z</time>
      </trkpt>
      <trkpt lat="-22.142896" lon="-45.502173">
        <ele>898.008</ele>
        <time>2019-10-16T12:21:51Z</time>
      </trkpt>
      <trkpt lat="-22.142913" lon="-45.502126">
        <ele>898.227</ele>
        <time>2019-10-16T12:21:54Z</time>
      </trkpt>
      <trkpt lat="-22.142927" lon="-45.502078">
        <ele>898.255</ele>
        <time>2019-10-16T12:21:57Z</time>
      </trkpt>
      <trkpt lat="-22.142940" lon="-45.502021">
        <ele>898.158</ele>
        <time>2019-10-16T12:22:00Z</time>
      </trkpt>
      <trkpt lat="-22.142959" lon="-45.501973">
        <ele>898.166</ele>
        <time>2019-10-16T12:22:03Z</time>
      </trkpt>
      <trkpt lat="-22.142976" lon="-45.501927">
        <ele>898.136</ele>
        <time>2019-10-16T12:22:06Z</time>
      </trkpt>
      <trkpt lat="-22.142997" lon="-45.501874">
        <ele>898.048</ele>
        <time>2019-10-16T12:22:09Z</time>
      </trkpt>
      <trkpt lat="-22.143025" lon="-45.501836">
        <ele>898.272</ele>
        <time>2019-10-16T12:22:12Z</time>
      </trkpt>
      <trkpt lat="-22.143081" lon="-45.501789">
        <ele>898.519</ele>
        <time>2019-10-16T12:22:16Z</time>
      </trkpt>
      <trkpt lat="-22.143126" lon="-45.501754">
        <ele>898.865</ele>
        <time>2019-10-16T12:22:21Z</time>
      </trkpt>
      <trkpt lat="-22.143171" lon="-45.501719">
        <ele>898.968</ele>
        <time>2019-10-16T12:22:27Z</time>
      </trkpt>
      <trkpt lat="-22.143228" lon="-45.501688">
        <ele>899.214</ele>
        <time>2019-10-16T12:22:30Z</time>
      </trkpt>
      <trkpt lat="-22.143281" lon="-45.501659">
        <ele>899.408</ele>
        <time>2019-10-16T12:22:33Z</time>
      </trkpt>
      <trkpt lat="-22.143319" lon="-45.501631">
        <ele>899.950</ele>
        <time>2019-10-16T12:22:36Z</time>
      </trkpt>
      <trkpt lat="-22.143371" lon="-45.501613">
        <ele>900.558</ele>
        <time>2019-10-16T12:22:39Z</time>
      </trkpt>
      <trkpt lat="-22.143423" lon="-45.501570">
        <ele>901.011</ele>
        <time>2019-10-16T12:22:43Z</time>
      </trkpt>
      <trkpt lat="-22.143488" lon="-45.501498">
        <ele>901.459</ele>
        <time>2019-10-16T12:22:48Z</time>
      </trkpt>
      <trkpt lat="-22.143519" lon="-45.501458">
        <ele>901.649</ele>
        <time>2019-10-16T12:22:51Z</time>
      </trkpt>
      <trkpt lat="-22.143542" lon="-45.501413">
        <ele>901.541</ele>
        <time>2019-10-16T12:22:54Z</time>
      </trkpt>
      <trkpt lat="-22.143568" lon="-45.501364">
        <ele>901.585</ele>
        <time>2019-10-16T12:22:57Z</time>
      </trkpt>
      <trkpt lat="-22.143594" lon="-45.501307">
        <ele>901.312</ele>
        <time>2019-10-16T12:23:00Z</time>
      </trkpt>
      <trkpt lat="-22.143611" lon="-45.501260">
        <ele>901.172</ele>
        <time>2019-10-16T12:23:02Z</time>
      </trkpt>
      <trkpt lat="-22.143633" lon="-45.501195">
        <ele>900.713</ele>
        <time>2019-10-16T12:23:05Z</time>
      </trkpt>
      <trkpt lat="-22.143644" lon="-45.501135">
        <ele>900.314</ele>
        <time>2019-10-16T12:23:08Z</time>
      </trkpt>
      <trkpt lat="-22.143652" lon="-45.501086">
        <ele>899.908</ele>
        <time>2019-10-16T12:23:10Z</time>
      </trkpt>
      <trkpt lat="-22.143659" lon="-45.501029">
        <ele>899.521</ele>
        <time>2019-10-16T12:23:12Z</time>
      </trkpt>
      <trkpt lat="-22.143680" lon="-45.500961">
        <ele>898.999</ele>
        <time>2019-10-16T12:23:15Z</time>
      </trkpt>
      <trkpt lat="-22.143704" lon="-45.500917">
        <ele>898.572</ele>
        <time>2019-10-16T12:23:17Z</time>
      </trkpt>
      <trkpt lat="-22.143722" lon="-45.500856">
        <ele>897.920</ele>
        <time>2019-10-16T12:23:20Z</time>
      </trkpt>
      <trkpt lat="-22.143748" lon="-45.500804">
        <ele>897.650</ele>
        <time>2019-10-16T12:23:23Z</time>
      </trkpt>
      <trkpt lat="-22.143769" lon="-45.500751">
        <ele>897.772</ele>
        <time>2019-10-16T12:23:25Z</time>
      </trkpt>
      <trkpt lat="-22.143793" lon="-45.500707">
        <ele>897.746</ele>
        <time>2019-10-16T12:23:27Z</time>
      </trkpt>
      <trkpt lat="-22.143819" lon="-45.500658">
        <ele>897.693</ele>
        <time>2019-10-16T12:23:29Z</time>
      </trkpt>
      <trkpt lat="-22.143847" lon="-45.500605">
        <ele>897.468</ele>
        <time>2019-10-16T12:23:31Z</time>
      </trkpt>
      <trkpt lat="-22.143869" lon="-45.500560">
        <ele>897.242</ele>
        <time>2019-10-16T12:23:32Z</time>
      </trkpt>
      <trkpt lat="-22.143891" lon="-45.500517">
        <ele>897.026</ele>
        <time>2019-10-16T12:23:34Z</time>
      </trkpt>
      <trkpt lat="-22.143929" lon="-45.500463">
        <ele>896.508</ele>
        <time>2019-10-16T12:23:36Z</time>
      </trkpt>
      <trkpt lat="-22.143980" lon="-45.500407">
        <ele>895.830</ele>
        <time>2019-10-16T12:23:39Z</time>
      </trkpt>
      <trkpt lat="-22.144050" lon="-45.500359">
        <ele>894.698</ele>
        <time>2019-10-16T12:23:41Z</time>
      </trkpt>
      <trkpt lat="-22.145328" lon="-45.499783">
        <ele>889.151</ele>
        <time>2019-10-16T12:24:09Z</time>
      </trkpt>
      <trkpt lat="-22.145376" lon="-45.499762">
        <ele>889.279</ele>
        <time>2019-10-16T12:24:10Z</time>
      </trkpt>
      <trkpt lat="-22.145428" lon="-45.499748">
        <ele>889.279</ele>
        <time>2019-10-16T12:24:12Z</time>
      </trkpt>
      <trkpt lat="-22.145474" lon="-45.499733">
        <ele>889.241</ele>
        <time>2019-10-16T12:24:13Z</time>
      </trkpt>
      <trkpt lat="-22.145523" lon="-45.499709">
        <ele>889.325</ele>
        <time>2019-10-16T12:24:15Z</time>
      </trkpt>
      <trkpt lat="-22.145594" lon="-45.499680">
        <ele>889.372</ele>
        <time>2019-10-16T12:24:18Z</time>
      </trkpt>
      <trkpt lat="-22.145646" lon="-45.499666">
        <ele>889.471</ele>
        <time>2019-10-16T12:24:19Z</time>
      </trkpt>
      <trkpt lat="-22.145702" lon="-45.499638">
        <ele>889.441</ele>
        <time>2019-10-16T12:24:22Z</time>
      </trkpt>
      <trkpt lat="-22.145752" lon="-45.499619">
        <ele>889.415</ele>
        <time>2019-10-16T12:24:23Z</time>
      </trkpt>
      <trkpt lat="-22.145814" lon="-45.499594">
        <ele>889.508</ele>
        <time>2019-10-16T12:24:25Z</time>
      </trkpt>
      <trkpt lat="-22.145880" lon="-45.499569">
        <ele>889.931</ele>
        <time>2019-10-16T12:24:27Z</time>
      </trkpt>
      <trkpt lat="-22.145930" lon="-45.499550">
        <ele>890.379</ele>
        <time>2019-10-16T12:24:29Z</time>
      </trkpt>
      <trkpt lat="-22.145975" lon="-45.499529">
        <ele>890.652</ele>
        <time>2019-10-16T12:24:30Z</time>
      </trkpt>
      <trkpt lat="-22.146028" lon="-45.499505">
        <ele>891.010</ele>
        <time>2019-10-16T12:24:33Z</time>
      </trkpt>
      <trkpt lat="-22.146073" lon="-45.499485">
        <ele>891.380</ele>
        <time>2019-10-16T12:24:34Z</time>
      </trkpt>
      <trkpt lat="-22.146134" lon="-45.499462">
        <ele>891.822</ele>
        <time>2019-10-16T12:24:36Z</time>
      </trkpt>
      <trkpt lat="-22.146179" lon="-45.499441">
        <ele>892.136</ele>
        <time>2019-10-16T12:24:38Z</time>
      </trkpt>
      <trkpt lat="-22.146230" lon="-45.499415">
        <ele>892.413</ele>
        <time>2019-10-16T12:24:40Z</time>
      </trkpt>
      <trkpt lat="-22.146277" lon="-45.499388">
        <ele>892.713</ele>
        <time>2019-10-16T12:24:42Z</time>
      </trkpt>
      <trkpt lat="-22.146348" lon="-45.499341">
        <ele>893.243</ele>
        <time>2019-10-16T12:24:45Z</time>
      </trkpt>
      <trkpt lat="-22.146400" lon="-45.499307">
        <ele>893.507</ele>
        <time>2019-10-16T12:24:47Z</time>
      </trkpt>
      <trkpt lat="-22.146461" lon="-45.499251">
        <ele>893.808</ele>
        <time>2019-10-16T12:24:49Z</time>
      </trkpt>
      <trkpt lat="-22.146503" lon="-45.499223">
        <ele>894.045</ele>
        <time>2019-10-16T12:24:52Z</time>
      </trkpt>
      <trkpt lat="-22.146539" lon="-45.499179">
        <ele>894.133</ele>
        <time>2019-10-16T12:24:54Z</time>
      </trkpt>
      <trkpt lat="-22.146598" lon="-45.499101">
        <ele>894.096</ele>
        <time>2019-10-16T12:24:58Z</time>
      </trkpt>
      <trkpt lat="-22.146647" lon="-45.499065">
        <ele>894.044</ele>
        <time>2019-10-16T12:25:00Z</time>
      </trkpt>
      <trkpt lat="-22.146688" lon="-45.499024">
        <ele>894.084</ele>
        <time>2019-10-16T12:25:02Z</time>
      </trkpt>
      <trkpt lat="-22.146731" lon="-45.498982">
        <ele>894.166</ele>
        <time>2019-10-16T12:25:04Z</time>
      </trkpt>
      <trkpt lat="-22.146771" lon="-45.498943">
        <ele>894.250</ele>
        <time>2019-10-16T12:25:06Z</time>
      </trkpt>
      <trkpt lat="-22.146808" lon="-45.498903">
        <ele>894.217</ele>
        <time>2019-10-16T12:25:08Z</time>
      </trkpt>
      <trkpt lat="-22.146843" lon="-45.498869">
        <ele>894.323</ele>
        <time>2019-10-16T12:25:09Z</time>
      </trkpt>
      <trkpt lat="-22.146891" lon="-45.498820">
        <ele>894.383</ele>
        <time>2019-10-16T12:25:11Z</time>
      </trkpt>
      <trkpt lat="-22.146939" lon="-45.498775">
        <ele>894.311</ele>
        <time>2019-10-16T12:25:13Z</time>
      </trkpt>
      <trkpt lat="-22.146993" lon="-45.498725">
        <ele>894.408</ele>
        <time>2019-10-16T12:25:15Z</time>
      </trkpt>
      <trkpt lat="-22.147047" lon="-45.498666">
        <ele>894.446</ele>
        <time>2019-10-16T12:25:18Z</time>
      </trkpt>
      <trkpt lat="-22.147095" lon="-45.498617">
        <ele>894.364</ele>
        <time>2019-10-16T12:25:20Z</time>
      </trkpt>
      <trkpt lat="-22.147132" lon="-45.498578">
        <ele>894.387</ele>
        <time>2019-10-16T12:25:21Z</time>
      </trkpt>
      <trkpt lat="-22.147173" lon="-45.498539">
        <ele>894.365</ele>
        <time>2019-10-16T12:25:23Z</time>
      </trkpt>
      <trkpt lat="-22.147221" lon="-45.498489">
        <ele>894.275</ele>
        <time>2019-10-16T12:25:25Z</time>
      </trkpt>
      <trkpt lat="-22.147266" lon="-45.498441">
        <ele>894.137</ele>
        <time>2019-10-16T12:25:27Z</time>
      </trkpt>
      <trkpt lat="-22.147381" lon="-45.498313">
        <ele>894.121</ele>
        <time>2019-10-16T12:25:31Z</time>
      </trkpt>
      <trkpt lat="-22.147430" lon="-45.498253">
        <ele>894.528</ele>
        <time>2019-10-16T12:25:33Z</time>
      </trkpt>
      <trkpt lat="-22.147473" lon="-45.498191">
        <ele>894.961</ele>
        <time>2019-10-16T12:25:35Z</time>
      </trkpt>
      <trkpt lat="-22.147507" lon="-45.498142">
        <ele>895.021</ele>
        <time>2019-10-16T12:25:37Z</time>
      </trkpt>
      <trkpt lat="-22.147537" lon="-45.498093">
        <ele>895.113</ele>
        <time>2019-10-16T12:25:39Z</time>
      </trkpt>
      <trkpt lat="-22.147563" lon="-45.498045">
        <ele>895.108</ele>
        <time>2019-10-16T12:25:40Z</time>
      </trkpt>
      <trkpt lat="-22.147587" lon="-45.497990">
        <ele>895.210</ele>
        <time>2019-10-16T12:25:42Z</time>
      </trkpt>
      <trkpt lat="-22.147608" lon="-45.497944">
        <ele>895.258</ele>
        <time>2019-10-16T12:25:43Z</time>
      </trkpt>
      <trkpt lat="-22.147651" lon="-45.497871">
        <ele>895.221</ele>
        <time>2019-10-16T12:25:47Z</time>
      </trkpt>
      <trkpt lat="-22.147676" lon="-45.497823">
        <ele>895.289</ele>
        <time>2019-10-16T12:25:48Z</time>
      </trkpt>
      <trkpt lat="-22.147703" lon="-45.497754">
        <ele>895.279</ele>
        <time>2019-10-16T12:25:51Z</time>
      </trkpt>
      <trkpt lat="-22.147722" lon="-45.497708">
        <ele>895.211</ele>
        <time>2019-10-16T12:25:53Z</time>
      </trkpt>
      <trkpt lat="-22.147759" lon="-45.497644">
        <ele>895.285</ele>
        <time>2019-10-16T12:25:56Z</time>
      </trkpt>
      <trkpt lat="-22.147782" lon="-45.497596">
        <ele>895.122</ele>
        <time>2019-10-16T12:25:58Z</time>
      </trkpt>
      <trkpt lat="-22.147804" lon="-45.497550">
        <ele>895.135</ele>
        <time>2019-10-16T12:26:00Z</time>
      </trkpt>
      <trkpt lat="-22.147817" lon="-45.497503">
        <ele>895.086</ele>
        <time>2019-10-16T12:26:03Z</time>
      </trkpt>
      <trkpt lat="-22.147835" lon="-45.497416">
        <ele>895.814</ele>
        <time>2019-10-16T12:26:07Z</time>
      </trkpt>
      <trkpt lat="-22.147839" lon="-45.497362">
        <ele>896.308</ele>
        <time>2019-10-16T12:26:09Z</time>
      </trkpt>
      <trkpt lat="-22.147840" lon="-45.497297">
        <ele>896.927</ele>
        <time>2019-10-16T12:26:13Z</time>
      </trkpt>
      <trkpt lat="-22.147801" lon="-45.497237">
        <ele>897.565</ele>
        <time>2019-10-16T12:26:18Z</time>
      </trkpt>
      <trkpt lat="-22.147792" lon="-45.497180">
        <ele>898.118</ele>
        <time>2019-10-16T12:26:21Z</time>
      </trkpt>
      <trkpt lat="-22.147768" lon="-45.497124">
        <ele>898.646</ele>
        <time>2019-10-16T12:26:25Z</time>
      </trkpt>
      <trkpt lat="-22.147727" lon="-45.497089">
        <ele>899.016</ele>
        <time>2019-10-16T12:26:29Z</time>
      </trkpt>
      <trkpt lat="-22.147695" lon="-45.497055">
        <ele>899.418</ele>
        <time>2019-10-16T12:26:32Z</time>
      </trkpt>
      <trkpt lat="-22.147655" lon="-45.497021">
        <ele>899.972</ele>
        <time>2019-10-16T12:26:36Z</time>
      </trkpt>
      <trkpt lat="-22.147603" lon="-45.496961">
        <ele>900.699</ele>
        <time>2019-10-16T12:26:41Z</time>
      </trkpt>
      <trkpt lat="-22.147575" lon="-45.496911">
        <ele>901.235</ele>
        <time>2019-10-16T12:26:45Z</time>
      </trkpt>
      <trkpt lat="-22.147534" lon="-45.496865">
        <ele>901.886</ele>
        <time>2019-10-16T12:26:58Z</time>
      </trkpt>
      <trkpt lat="-22.147500" lon="-45.496827">
        <ele>902.314</ele>
        <time>2019-10-16T12:27:04Z</time>
      </trkpt>
      <trkpt lat="-22.147462" lon="-45.496791">
        <ele>903.308</ele>
        <time>2019-10-16T12:27:12Z</time>
      </trkpt>
      <trkpt lat="-22.147421" lon="-45.496759">
        <ele>904.437</ele>
        <time>2019-10-16T12:27:19Z</time>
      </trkpt>
      <trkpt lat="-22.147336" lon="-45.496728">
        <ele>906.225</ele>
        <time>2019-10-16T12:27:29Z</time>
      </trkpt>
      <trkpt lat="-22.147283" lon="-45.496724">
        <ele>907.278</ele>
        <time>2019-10-16T12:27:35Z</time>
      </trkpt>
      <trkpt lat="-22.147214" lon="-45.496733">
        <ele>908.236</ele>
        <time>2019-10-16T12:27:41Z</time>
      </trkpt>
      <trkpt lat="-22.147169" lon="-45.496746">
        <ele>908.856</ele>
        <time>2019-10-16T12:27:44Z</time>
      </trkpt>
      <trkpt lat="-22.147119" lon="-45.496755">
        <ele>909.618</ele>
        <time>2019-10-16T12:27:48Z</time>
      </trkpt>
      <trkpt lat="-22.147049" lon="-45.496769">
        <ele>910.592</ele>
        <time>2019-10-16T12:27:55Z</time>
      </trkpt>
      <trkpt lat="-22.147002" lon="-45.496783">
        <ele>911.159</ele>
        <time>2019-10-16T12:28:00Z</time>
      </trkpt>
      <trkpt lat="-22.146955" lon="-45.496792">
        <ele>911.831</ele>
        <time>2019-10-16T12:28:04Z</time>
      </trkpt>
      <trkpt lat="-22.146887" lon="-45.496802">
        <ele>912.761</ele>
        <time>2019-10-16T12:28:10Z</time>
      </trkpt>
      <trkpt lat="-22.146831" lon="-45.496806">
        <ele>913.607</ele>
        <time>2019-10-16T12:28:16Z</time>
      </trkpt>
      <trkpt lat="-22.146778" lon="-45.496800">
        <ele>914.608</ele>
        <time>2019-10-16T12:28:22Z</time>
      </trkpt>
      <trkpt lat="-22.146710" lon="-45.496789">
        <ele>915.917</ele>
        <time>2019-10-16T12:28:30Z</time>
      </trkpt>
      <trkpt lat="-22.146660" lon="-45.496780">
        <ele>916.845</ele>
        <time>2019-10-16T12:28:34Z</time>
      </trkpt>
      <trkpt lat="-22.146593" lon="-45.496776">
        <ele>917.028</ele>
        <time>2019-10-16T12:28:39Z</time>
      </trkpt>
      <trkpt lat="-22.146541" lon="-45.496772">
        <ele>917.276</ele>
        <time>2019-10-16T12:28:46Z</time>
      </trkpt>
      <trkpt lat="-22.146487" lon="-45.496748">
        <ele>917.896</ele>
        <time>2019-10-16T12:28:50Z</time>
      </trkpt>
      <trkpt lat="-22.146437" lon="-45.496722">
        <ele>918.418</ele>
        <time>2019-10-16T12:28:58Z</time>
      </trkpt>
      <trkpt lat="-22.146395" lon="-45.496692">
        <ele>919.182</ele>
        <time>2019-10-16T12:29:04Z</time>
      </trkpt>
      <trkpt lat="-22.146341" lon="-45.496658">
        <ele>920.079</ele>
        <time>2019-10-16T12:29:11Z</time>
      </trkpt>
      <trkpt lat="-22.146295" lon="-45.496620">
        <ele>921.325</ele>
        <time>2019-10-16T12:29:17Z</time>
      </trkpt>
      <trkpt lat="-22.146170" lon="-45.496526">
        <ele>924.826</ele>
        <time>2019-10-16T12:29:33Z</time>
      </trkpt>
      <trkpt lat="-22.146118" lon="-45.496503">
        <ele>925.808</ele>
        <time>2019-10-16T12:29:40Z</time>
      </trkpt>
      <trkpt lat="-22.146064" lon="-45.496471">
        <ele>927.108</ele>
        <time>2019-10-16T12:29:47Z</time>
      </trkpt>
      <trkpt lat="-22.146016" lon="-45.496437">
        <ele>928.686</ele>
        <time>2019-10-16T12:29:54Z</time>
      </trkpt>
      <trkpt lat="-22.145967" lon="-45.496407">
        <ele>929.994</ele>
        <time>2019-10-16T12:30:00Z</time>
      </trkpt>
      <trkpt lat="-22.145884" lon="-45.496359">
        <ele>932.117</ele>
        <time>2019-10-16T12:30:09Z</time>
      </trkpt>
      <trkpt lat="-22.145821" lon="-45.496327">
        <ele>933.775</ele>
        <time>2019-10-16T12:30:16Z</time>
      </trkpt>
      <trkpt lat="-22.145777" lon="-45.496296">
        <ele>935.045</ele>
        <time>2019-10-16T12:30:20Z</time>
      </trkpt>
      <trkpt lat="-22.145714" lon="-45.496234">
        <ele>937.557</ele>
        <time>2019-10-16T12:30:26Z</time>
      </trkpt>
      <trkpt lat="-22.145692" lon="-45.496179">
        <ele>939.741</ele>
        <time>2019-10-16T12:30:34Z</time>
      </trkpt>
      <trkpt lat="-22.145711" lon="-45.496107">
        <ele>942.388</ele>
        <time>2019-10-16T12:30:41Z</time>
      </trkpt>
      <trkpt lat="-22.145779" lon="-45.496057">
        <ele>943.911</ele>
        <time>2019-10-16T12:30:51Z</time>
      </trkpt>
      <trkpt lat="-22.145830" lon="-45.496033">
        <ele>944.621</ele>
        <time>2019-10-16T12:30:57Z</time>
      </trkpt>
      <trkpt lat="-22.145902" lon="-45.496012">
        <ele>944.603</ele>
        <time>2019-10-16T12:31:03Z</time>
      </trkpt>
      <trkpt lat="-22.145961" lon="-45.495996">
        <ele>944.508</ele>
        <time>2019-10-16T12:31:08Z</time>
      </trkpt>
      <trkpt lat="-22.146028" lon="-45.495968">
        <ele>944.825</ele>
        <time>2019-10-16T12:31:16Z</time>
      </trkpt>
      <trkpt lat="-22.146067" lon="-45.495925">
        <ele>945.813</ele>
        <time>2019-10-16T12:31:22Z</time>
      </trkpt>
      <trkpt lat="-22.146102" lon="-45.495892">
        <ele>946.576</ele>
        <time>2019-10-16T12:31:26Z</time>
      </trkpt>
      <trkpt lat="-22.146138" lon="-45.495863">
        <ele>947.064</ele>
        <time>2019-10-16T12:31:30Z</time>
      </trkpt>
      <trkpt lat="-22.146174" lon="-45.495828">
        <ele>947.874</ele>
        <time>2019-10-16T12:31:36Z</time>
      </trkpt>
      <trkpt lat="-22.146217" lon="-45.495791">
        <ele>948.956</ele>
        <time>2019-10-16T12:31:43Z</time>
      </trkpt>
      <trkpt lat="-22.146288" lon="-45.495744">
        <ele>950.190</ele>
        <time>2019-10-16T12:31:51Z</time>
      </trkpt>
      <trkpt lat="-22.146336" lon="-45.495726">
        <ele>950.277</ele>
        <time>2019-10-16T12:31:56Z</time>
      </trkpt>
      <trkpt lat="-22.146384" lon="-45.495712">
        <ele>950.131</ele>
        <time>2019-10-16T12:32:00Z</time>
      </trkpt>
      <trkpt lat="-22.146510" lon="-45.495697">
        <ele>948.861</ele>
        <time>2019-10-16T12:32:06Z</time>
      </trkpt>
      <trkpt lat="-22.146558" lon="-45.495695">
        <ele>948.207</ele>
        <time>2019-10-16T12:32:08Z</time>
      </trkpt>
      <trkpt lat="-22.146653" lon="-45.495667">
        <ele>947.808</ele>
        <time>2019-10-16T12:32:14Z</time>
      </trkpt>
      <trkpt lat="-22.146699" lon="-45.495634">
        <ele>948.357</ele>
        <time>2019-10-16T12:32:22Z</time>
      </trkpt>
      <trkpt lat="-22.146736" lon="-45.495594">
        <ele>949.215</ele>
        <time>2019-10-16T12:32:24Z</time>
      </trkpt>
      <trkpt lat="-22.146776" lon="-45.495548">
        <ele>950.148</ele>
        <time>2019-10-16T12:32:27Z</time>
      </trkpt>
      <trkpt lat="-22.146808" lon="-45.495481">
        <ele>952.046</ele>
        <time>2019-10-16T12:32:30Z</time>
      </trkpt>
      <trkpt lat="-22.146832" lon="-45.495401">
        <ele>954.566</ele>
        <time>2019-10-16T12:32:36Z</time>
      </trkpt>
      <trkpt lat="-22.146855" lon="-45.495350">
        <ele>955.968</ele>
        <time>2019-10-16T12:32:40Z</time>
      </trkpt>
      <trkpt lat="-22.146869" lon="-45.495297">
        <ele>957.532</ele>
        <time>2019-10-16T12:32:44Z</time>
      </trkpt>
      <trkpt lat="-22.146896" lon="-45.495245">
        <ele>958.859</ele>
        <time>2019-10-16T12:32:48Z</time>
      </trkpt>
      <trkpt lat="-22.146919" lon="-45.495203">
        <ele>959.766</ele>
        <time>2019-10-16T12:32:51Z</time>
      </trkpt>
      <trkpt lat="-22.146946" lon="-45.495159">
        <ele>960.629</ele>
        <time>2019-10-16T12:32:56Z</time>
      </trkpt>
      <trkpt lat="-22.146981" lon="-45.495125">
        <ele>960.921</ele>
        <time>2019-10-16T12:33:17Z</time>
      </trkpt>
      <trkpt lat="-22.147002" lon="-45.495069">
        <ele>962.308</ele>
        <time>2019-10-16T12:34:50Z</time>
      </trkpt>
      <trkpt lat="-22.147027" lon="-45.495015">
        <ele>963.550</ele>
        <time>2019-10-16T12:34:56Z</time>
      </trkpt>
      <trkpt lat="-22.147064" lon="-45.494961">
        <ele>964.098</ele>
        <time>2019-10-16T12:34:59Z</time>
      </trkpt>
      <trkpt lat="-22.147088" lon="-45.494908">
        <ele>964.761</ele>
        <time>2019-10-16T12:35:02Z</time>
      </trkpt>
      <trkpt lat="-22.147103" lon="-45.494854">
        <ele>965.649</ele>
        <time>2019-10-16T12:35:05Z</time>
      </trkpt>
      <trkpt lat="-22.147134" lon="-45.494774">
        <ele>966.869</ele>
        <time>2019-10-16T12:35:09Z</time>
      </trkpt>
      <trkpt lat="-22.147154" lon="-45.494726">
        <ele>967.411</ele>
        <time>2019-10-16T12:35:20Z</time>
      </trkpt>
      <trkpt lat="-22.147153" lon="-45.494669">
        <ele>968.955</ele>
        <time>2019-10-16T12:35:23Z</time>
      </trkpt>
      <trkpt lat="-22.147150" lon="-45.494621">
        <ele>970.122</ele>
        <time>2019-10-16T12:35:26Z</time>
      </trkpt>
      <trkpt lat="-22.147161" lon="-45.494555">
        <ele>971.562</ele>
        <time>2019-10-16T12:35:30Z</time>
      </trkpt>
      <trkpt lat="-22.147178" lon="-45.494504">
        <ele>972.383</ele>
        <time>2019-10-16T12:35:32Z</time>
      </trkpt>
      <trkpt lat="-22.147179" lon="-45.494453">
        <ele>973.511</ele>
        <time>2019-10-16T12:35:35Z</time>
      </trkpt>
      <trkpt lat="-22.147186" lon="-45.494393">
        <ele>974.808</ele>
        <time>2019-10-16T12:35:39Z</time>
      </trkpt>
      <trkpt lat="-22.147200" lon="-45.494337">
        <ele>975.870</ele>
        <time>2019-10-16T12:35:42Z</time>
      </trkpt>
      <trkpt lat="-22.147216" lon="-45.494287">
        <ele>976.578</ele>
        <time>2019-10-16T12:35:46Z</time>
      </trkpt>
      <trkpt lat="-22.147252" lon="-45.494226">
        <ele>977.091</ele>
        <time>2019-10-16T12:35:49Z</time>
      </trkpt>
      <trkpt lat="-22.147269" lon="-45.494168">
        <ele>977.959</ele>
        <time>2019-10-16T12:35:53Z</time>
      </trkpt>
      <trkpt lat="-22.147313" lon="-45.494070">
        <ele>980.099</ele>
        <time>2019-10-16T12:35:57Z</time>
      </trkpt>
      <trkpt lat="-22.147336" lon="-45.494025">
        <ele>980.991</ele>
        <time>2019-10-16T12:35:59Z</time>
      </trkpt>
      <trkpt lat="-22.147369" lon="-45.493989">
        <ele>981.285</ele>
        <time>2019-10-16T12:36:02Z</time>
      </trkpt>
      <trkpt lat="-22.147418" lon="-45.493946">
        <ele>981.252</ele>
        <time>2019-10-16T12:36:05Z</time>
      </trkpt>
      <trkpt lat="-22.147459" lon="-45.493920">
        <ele>980.871</ele>
        <time>2019-10-16T12:36:08Z</time>
      </trkpt>
      <trkpt lat="-22.147508" lon="-45.493878">
        <ele>981.141</ele>
        <time>2019-10-16T12:36:12Z</time>
      </trkpt>
      <trkpt lat="-22.147551" lon="-45.493864">
        <ele>982.015</ele>
        <time>2019-10-16T12:36:15Z</time>
      </trkpt>
      <trkpt lat="-22.147605" lon="-45.493841">
        <ele>983.208</ele>
        <time>2019-10-16T12:36:19Z</time>
      </trkpt>
      <trkpt lat="-22.147657" lon="-45.493810">
        <ele>984.841</ele>
        <time>2019-10-16T12:36:22Z</time>
      </trkpt>
      <trkpt lat="-22.147699" lon="-45.493787">
        <ele>986.039</ele>
        <time>2019-10-16T12:36:25Z</time>
      </trkpt>
      <trkpt lat="-22.147761" lon="-45.493754">
        <ele>987.772</ele>
        <time>2019-10-16T12:36:29Z</time>
      </trkpt>
      <trkpt lat="-22.147806" lon="-45.493737">
        <ele>988.730</ele>
        <time>2019-10-16T12:36:32Z</time>
      </trkpt>
      <trkpt lat="-22.147853" lon="-45.493699">
        <ele>990.650</ele>
        <time>2019-10-16T12:36:36Z</time>
      </trkpt>
      <trkpt lat="-22.147896" lon="-45.493680">
        <ele>991.742</ele>
        <time>2019-10-16T12:36:39Z</time>
      </trkpt>
      <trkpt lat="-22.147941" lon="-45.493665">
        <ele>992.736</ele>
        <time>2019-10-16T12:36:43Z</time>
      </trkpt>
      <trkpt lat="-22.147993" lon="-45.493661">
        <ele>993.433</ele>
        <time>2019-10-16T12:36:46Z</time>
      </trkpt>
      <trkpt lat="-22.148047" lon="-45.493675">
        <ele>993.321</ele>
        <time>2019-10-16T12:36:50Z</time>
      </trkpt>
      <trkpt lat="-22.148095" lon="-45.493692">
        <ele>993.141</ele>
        <time>2019-10-16T12:36:53Z</time>
      </trkpt>
      <trkpt lat="-22.148147" lon="-45.493717">
        <ele>992.605</ele>
        <time>2019-10-16T12:36:57Z</time>
      </trkpt>
      <trkpt lat="-22.148198" lon="-45.493766">
        <ele>991.108</ele>
        <time>2019-10-16T12:37:02Z</time>
      </trkpt>
      <trkpt lat="-22.148235" lon="-45.493796">
        <ele>990.366</ele>
        <time>2019-10-16T12:37:08Z</time>
      </trkpt>
      <trkpt lat="-22.148281" lon="-45.493819">
        <ele>989.744</ele>
        <time>2019-10-16T12:37:12Z</time>
      </trkpt>
      <trkpt lat="-22.148322" lon="-45.493844">
        <ele>989.197</ele>
        <time>2019-10-16T12:37:16Z</time>
      </trkpt>
      <trkpt lat="-22.148360" lon="-45.493886">
        <ele>987.775</ele>
        <time>2019-10-16T12:37:19Z</time>
      </trkpt>
      <trkpt lat="-22.148395" lon="-45.493921">
        <ele>986.755</ele>
        <time>2019-10-16T12:37:22Z</time>
      </trkpt>
      <trkpt lat="-22.148431" lon="-45.493953">
        <ele>985.817</ele>
        <time>2019-10-16T12:37:26Z</time>
      </trkpt>
      <trkpt lat="-22.148494" lon="-45.493986">
        <ele>985.441</ele>
        <time>2019-10-16T12:37:31Z</time>
      </trkpt>
      <trkpt lat="-22.148529" lon="-45.494026">
        <ele>984.418</ele>
        <time>2019-10-16T12:37:34Z</time>
      </trkpt>
      <trkpt lat="-22.148572" lon="-45.494059">
        <ele>983.947</ele>
        <time>2019-10-16T12:37:38Z</time>
      </trkpt>
      <trkpt lat="-22.148626" lon="-45.494101">
        <ele>983.429</ele>
        <time>2019-10-16T12:37:42Z</time>
      </trkpt>
      <trkpt lat="-22.148667" lon="-45.494127">
        <ele>983.221</ele>
        <time>2019-10-16T12:37:45Z</time>
      </trkpt>
      <trkpt lat="-22.148716" lon="-45.494133">
        <ele>983.908</ele>
        <time>2019-10-16T12:37:49Z</time>
      </trkpt>
      <trkpt lat="-22.148763" lon="-45.494147">
        <ele>984.378</ele>
        <time>2019-10-16T12:37:51Z</time>
      </trkpt>
      <trkpt lat="-22.148818" lon="-45.494157">
        <ele>985.066</ele>
        <time>2019-10-16T12:37:55Z</time>
      </trkpt>
      <trkpt lat="-22.148881" lon="-45.494163">
        <ele>985.939</ele>
        <time>2019-10-16T12:37:58Z</time>
      </trkpt>
      <trkpt lat="-22.148930" lon="-45.494165">
        <ele>986.857</ele>
        <time>2019-10-16T12:38:01Z</time>
      </trkpt>
      <trkpt lat="-22.148974" lon="-45.494154">
        <ele>987.847</ele>
        <time>2019-10-16T12:38:04Z</time>
      </trkpt>
      <trkpt lat="-22.149034" lon="-45.494158">
        <ele>988.879</ele>
        <time>2019-10-16T12:38:08Z</time>
      </trkpt>
      <trkpt lat="-22.149085" lon="-45.494145">
        <ele>989.943</ele>
        <time>2019-10-16T12:38:11Z</time>
      </trkpt>
      <trkpt lat="-22.149132" lon="-45.494134">
        <ele>990.940</ele>
        <time>2019-10-16T12:38:14Z</time>
      </trkpt>
      <trkpt lat="-22.149180" lon="-45.494129">
        <ele>991.693</ele>
        <time>2019-10-16T12:38:17Z</time>
      </trkpt>
      <trkpt lat="-22.149233" lon="-45.494131">
        <ele>991.465</ele>
        <time>2019-10-16T12:38:21Z</time>
      </trkpt>
      <trkpt lat="-22.149280" lon="-45.494120">
        <ele>991.421</ele>
        <time>2019-10-16T12:38:27Z</time>
      </trkpt>
      <trkpt lat="-22.149324" lon="-45.494093">
        <ele>991.608</ele>
        <time>2019-10-16T12:38:33Z</time>
      </trkpt>
      <trkpt lat="-22.149375" lon="-45.494066">
        <ele>991.773</ele>
        <time>2019-10-16T12:38:37Z</time>
      </trkpt>
      <trkpt lat="-22.149415" lon="-45.494027">
        <ele>991.991</ele>
        <time>2019-10-16T12:38:39Z</time>
      </trkpt>
      <trkpt lat="-22.149456" lon="-45.493977">
        <ele>992.014</ele>
        <time>2019-10-16T12:38:40Z</time>
      </trkpt>
      <trkpt lat="-22.150515" lon="-45.491742">
        <ele>981.422</ele>
        <time>2019-10-16T12:39:18Z</time>
      </trkpt>
      <trkpt lat="-22.150571" lon="-45.491713">
        <ele>981.832</ele>
        <time>2019-10-16T12:39:22Z</time>
      </trkpt>
      <trkpt lat="-22.150638" lon="-45.491674">
        <ele>982.494</ele>
        <time>2019-10-16T12:39:25Z</time>
      </trkpt>
      <trkpt lat="-22.150682" lon="-45.491657">
        <ele>982.888</ele>
        <time>2019-10-16T12:39:27Z</time>
      </trkpt>
      <trkpt lat="-22.150728" lon="-45.491634">
        <ele>983.415</ele>
        <time>2019-10-16T12:39:30Z</time>
      </trkpt>
      <trkpt lat="-22.150778" lon="-45.491610">
        <ele>984.133</ele>
        <time>2019-10-16T12:39:31Z</time>
      </trkpt>
      <trkpt lat="-22.150821" lon="-45.491585">
        <ele>984.723</ele>
        <time>2019-10-16T12:39:33Z</time>
      </trkpt>
      <trkpt lat="-22.150866" lon="-45.491560">
        <ele>984.815</ele>
        <time>2019-10-16T12:39:35Z</time>
      </trkpt>
      <trkpt lat="-22.150912" lon="-45.491532">
        <ele>984.808</ele>
        <time>2019-10-16T12:39:38Z</time>
      </trkpt>
      <trkpt lat="-22.150964" lon="-45.491488">
        <ele>984.937</ele>
        <time>2019-10-16T12:39:42Z</time>
      </trkpt>
      <trkpt lat="-22.150998" lon="-45.491450">
        <ele>985.135</ele>
        <time>2019-10-16T12:39:44Z</time>
      </trkpt>
      <trkpt lat="-22.151030" lon="-45.491408">
        <ele>985.548</ele>
        <time>2019-10-16T12:39:48Z</time>
      </trkpt>
      <trkpt lat="-22.151057" lon="-45.491367">
        <ele>985.836</ele>
        <time>2019-10-16T12:39:51Z</time>
      </trkpt>
      <trkpt lat="-22.151084" lon="-45.491319">
        <ele>986.316</ele>
        <time>2019-10-16T12:39:56Z</time>
      </trkpt>
      <trkpt lat="-22.151108" lon="-45.491267">
        <ele>986.968</ele>
        <time>2019-10-16T12:40:01Z</time>
      </trkpt>
      <trkpt lat="-22.151146" lon="-45.491206">
        <ele>987.462</ele>
        <time>2019-10-16T12:40:04Z</time>
      </trkpt>
      <trkpt lat="-22.151177" lon="-45.491156">
        <ele>987.719</ele>
        <time>2019-10-16T12:40:06Z</time>
      </trkpt>
      <trkpt lat="-22.151216" lon="-45.491101">
        <ele>988.065</ele>
        <time>2019-10-16T12:40:09Z</time>
      </trkpt>
      <trkpt lat="-22.151238" lon="-45.491052">
        <ele>988.468</ele>
        <time>2019-10-16T12:40:12Z</time>
      </trkpt>
      <trkpt lat="-22.151270" lon="-45.490991">
        <ele>988.914</ele>
        <time>2019-10-16T12:40:15Z</time>
      </trkpt>
      <trkpt lat="-22.151300" lon="-45.490944">
        <ele>989.008</ele>
        <time>2019-10-16T12:40:18Z</time>
      </trkpt>
      <trkpt lat="-22.151323" lon="-45.490900">
        <ele>989.370</ele>
        <time>2019-10-16T12:40:20Z</time>
      </trkpt>
      <trkpt lat="-22.151344" lon="-45.490852">
        <ele>989.778</ele>
        <time>2019-10-16T12:40:22Z</time>
      </trkpt>
      <trkpt lat="-22.151380" lon="-45.490799">
        <ele>989.171</ele>
        <time>2019-10-16T12:40:25Z</time>
      </trkpt>
      <trkpt lat="-22.151411" lon="-45.490753">
        <ele>988.299</ele>
        <time>2019-10-16T12:40:28Z</time>
      </trkpt>
      <trkpt lat="-22.151437" lon="-45.490696">
        <ele>987.489</ele>
        <time>2019-10-16T12:40:32Z</time>
      </trkpt>
      <trkpt lat="-22.151465" lon="-45.490628">
        <ele>986.551</ele>
        <time>2019-10-16T12:40:35Z</time>
      </trkpt>
      <trkpt lat="-22.151482" lon="-45.490571">
        <ele>985.955</ele>
        <time>2019-10-16T12:41:14Z</time>
      </trkpt>
      <trkpt lat="-22.151500" lon="-45.490520">
        <ele>985.332</ele>
        <time>2019-10-16T12:42:06Z</time>
      </trkpt>
      <trkpt lat="-22.151487" lon="-45.490472">
        <ele>985.469</ele>
        <time>2019-10-16T12:42:10Z</time>
      </trkpt>
      <trkpt lat="-22.151471" lon="-45.490421">
        <ele>985.604</ele>
        <time>2019-10-16T12:42:13Z</time>
      </trkpt>
      <trkpt lat="-22.151454" lon="-45.490368">
        <ele>985.824</ele>
        <time>2019-10-16T12:42:14Z</time>
      </trkpt>
      <trkpt lat="-22.151423" lon="-45.490306">
        <ele>986.308</ele>
        <time>2019-10-16T12:42:16Z</time>
      </trkpt>
      <trkpt lat="-22.151389" lon="-45.490242">
        <ele>986.940</ele>
        <time>2019-10-16T12:42:18Z</time>
      </trkpt>
      <trkpt lat="-22.151351" lon="-45.490199">
        <ele>987.678</ele>
        <time>2019-10-16T12:42:20Z</time>
      </trkpt>
      <trkpt lat="-22.151295" lon="-45.490134">
        <ele>988.831</ele>
        <time>2019-10-16T12:42:23Z</time>
      </trkpt>
      <trkpt lat="-22.151266" lon="-45.490074">
        <ele>989.349</ele>
        <time>2019-10-16T12:42:25Z</time>
      </trkpt>
      <trkpt lat="-22.151245" lon="-45.490022">
        <ele>989.729</ele>
        <time>2019-10-16T12:42:27Z</time>
      </trkpt>
      <trkpt lat="-22.151221" lon="-45.489965">
        <ele>989.861</ele>
        <time>2019-10-16T12:42:29Z</time>
      </trkpt>
      <trkpt lat="-22.151201" lon="-45.489906">
        <ele>989.765</ele>
        <time>2019-10-16T12:42:31Z</time>
      </trkpt>
      <trkpt lat="-22.151177" lon="-45.489855">
        <ele>989.752</ele>
        <time>2019-10-16T12:42:34Z</time>
      </trkpt>
      <trkpt lat="-22.151139" lon="-45.489803">
        <ele>989.934</ele>
        <time>2019-10-16T12:42:37Z</time>
      </trkpt>
      <trkpt lat="-22.151093" lon="-45.489755">
        <ele>990.455</ele>
        <time>2019-10-16T12:42:39Z</time>
      </trkpt>
      <trkpt lat="-22.151049" lon="-45.489702">
        <ele>990.710</ele>
        <time>2019-10-16T12:42:41Z</time>
      </trkpt>
      <trkpt lat="-22.151140" lon="-45.488705">
        <ele>988.508</ele>
        <time>2019-10-16T12:43:06Z</time>
      </trkpt>
      <trkpt lat="-22.151190" lon="-45.488686">
        <ele>987.927</ele>
        <time>2019-10-16T12:43:09Z</time>
      </trkpt>
      <trkpt lat="-22.151236" lon="-45.488661">
        <ele>987.455</ele>
        <time>2019-10-16T12:43:12Z</time>
      </trkpt>
      <trkpt lat="-22.151299" lon="-45.488630">
        <ele>986.768</ele>
        <time>2019-10-16T12:43:14Z</time>
      </trkpt>
      <trkpt lat="-22.151348" lon="-45.488593">
        <ele>986.466</ele>
        <time>2019-10-16T12:43:15Z</time>
      </trkpt>
      <trkpt lat="-22.151397" lon="-45.488560">
        <ele>986.046</ele>
        <time>2019-10-16T12:43:17Z</time>
      </trkpt>
      <trkpt lat="-22.153582" lon="-45.488133">
        <ele>976.588</ele>
        <time>2019-10-16T12:43:58Z</time>
      </trkpt>
      <trkpt lat="-22.153618" lon="-45.488078">
        <ele>976.972</ele>
        <time>2019-10-16T12:44:00Z</time>
      </trkpt>
      <trkpt lat="-22.153648" lon="-45.488037">
        <ele>977.269</ele>
        <time>2019-10-16T12:44:02Z</time>
      </trkpt>
      <trkpt lat="-22.153684" lon="-45.487996">
        <ele>977.554</ele>
        <time>2019-10-16T12:44:03Z</time>
      </trkpt>
      <trkpt lat="-22.153716" lon="-45.487958">
        <ele>977.856</ele>
        <time>2019-10-16T12:44:05Z</time>
      </trkpt>
      <trkpt lat="-22.153752" lon="-45.487925">
        <ele>977.911</ele>
        <time>2019-10-16T12:44:07Z</time>
      </trkpt>
      <trkpt lat="-22.153820" lon="-45.487855">
        <ele>978.208</ele>
        <time>2019-10-16T12:44:10Z</time>
      </trkpt>
      <trkpt lat="-22.153870" lon="-45.487803">
        <ele>978.489</ele>
        <time>2019-10-16T12:44:13Z</time>
      </trkpt>
      <trkpt lat="-22.153908" lon="-45.487764">
        <ele>978.617</ele>
        <time>2019-10-16T12:44:15Z</time>
      </trkpt>
      <trkpt lat="-22.153946" lon="-45.487730">
        <ele>978.610</ele>
        <time>2019-10-16T12:44:18Z</time>
      </trkpt>
      <trkpt lat="-22.153976" lon="-45.487691">
        <ele>978.818</ele>
        <time>2019-10-16T12:44:19Z</time>
      </trkpt>
      <trkpt lat="-22.154008" lon="-45.487652">
        <ele>978.988</ele>
        <time>2019-10-16T12:44:22Z</time>
      </trkpt>
      <trkpt lat="-22.154053" lon="-45.487584">
        <ele>979.240</ele>
        <time>2019-10-16T12:44:26Z</time>
      </trkpt>
      <trkpt lat="-22.154083" lon="-45.487540">
        <ele>979.394</ele>
        <time>2019-10-16T12:44:28Z</time>
      </trkpt>
      <trkpt lat="-22.154113" lon="-45.487490">
        <ele>979.741</ele>
        <time>2019-10-16T12:44:30Z</time>
      </trkpt>
      <trkpt lat="-22.154135" lon="-45.487442">
        <ele>980.549</ele>
        <time>2019-10-16T12:44:33Z</time>
      </trkpt>
      <trkpt lat="-22.154150" lon="-45.487388">
        <ele>981.402</ele>
        <time>2019-10-16T12:44:34Z</time>
      </trkpt>
      <trkpt lat="-22.154164" lon="-45.487337">
        <ele>982.422</ele>
        <time>2019-10-16T12:44:37Z</time>
      </trkpt>
      <trkpt lat="-22.154216" lon="-45.487262">
        <ele>983.408</ele>
        <time>2019-10-16T12:44:40Z</time>
      </trkpt>
      <trkpt lat="-22.154257" lon="-45.487197">
        <ele>984.238</ele>
        <time>2019-10-16T12:44:43Z</time>
      </trkpt>
      <trkpt lat="-22.154285" lon="-45.487148">
        <ele>984.956</ele>
        <time>2019-10-16T12:44:45Z</time>
      </trkpt>
      <trkpt lat="-22.154310" lon="-45.487103">
        <ele>985.449</ele>
        <time>2019-10-16T12:44:47Z</time>
      </trkpt>
      <trkpt lat="-22.154348" lon="-45.487042">
        <ele>986.177</ele>
        <time>2019-10-16T12:44:49Z</time>
      </trkpt>
      <trkpt lat="-22.154402" lon="-45.486963">
        <ele>986.797</ele>
        <time>2019-10-16T12:44:52Z</time>
      </trkpt>
      <trkpt lat="-22.154435" lon="-45.486921">
        <ele>987.019</ele>
        <time>2019-10-16T12:44:54Z</time>
      </trkpt>
      <trkpt lat="-22.154460" lon="-45.486880">
        <ele>987.363</ele>
        <time>2019-10-16T12:44:56Z</time>
      </trkpt>
      <trkpt lat="-22.154479" lon="-45.486830">
        <ele>987.840</ele>
        <time>2019-10-16T12:44:58Z</time>
      </trkpt>
      <trkpt lat="-22.154502" lon="-45.486786">
        <ele>988.134</ele>
        <time>2019-10-16T12:44:59Z</time>
      </trkpt>
      <trkpt lat="-22.154522" lon="-45.486725">
        <ele>988.755</ele>
        <time>2019-10-16T12:45:02Z</time>
      </trkpt>
      <trkpt lat="-22.154543" lon="-45.486666">
        <ele>989.210</ele>
        <time>2019-10-16T12:45:04Z</time>
      </trkpt>
      <trkpt lat="-22.154573" lon="-45.486603">
        <ele>990.308</ele>
        <time>2019-10-16T12:45:07Z</time>
      </trkpt>
      <trkpt lat="-22.154607" lon="-45.486549">
        <ele>991.177</ele>
        <time>2019-10-16T12:45:08Z</time>
      </trkpt>
      <trkpt lat="-22.154653" lon="-45.486518">
        <ele>991.115</ele>
        <time>2019-10-16T12:45:10Z</time>
      </trkpt>
      <trkpt lat="-22.154750" lon="-45.486479">
        <ele>990.438</ele>
        <time>2019-10-16T12:45:13Z</time>
      </trkpt>
      <trkpt lat="-22.154854" lon="-45.486454">
        <ele>989.286</ele>
        <time>2019-10-16T12:45:16Z</time>
      </trkpt>
      <trkpt lat="-22.154913" lon="-45.486445">
        <ele>988.466</ele>
        <time>2019-10-16T12:45:18Z</time>
      </trkpt>
      <trkpt lat="-22.154974" lon="-45.486435">
        <ele>987.698</ele>
        <time>2019-10-16T12:45:20Z</time>
      </trkpt>
      <trkpt lat="-22.155044" lon="-45.486421">
        <ele>987.262</ele>
        <time>2019-10-16T12:45:23Z</time>
      </trkpt>
      <trkpt lat="-22.155114" lon="-45.486398">
        <ele>987.489</ele>
        <time>2019-10-16T12:45:24Z</time>
      </trkpt>
      <trkpt lat="-22.155165" lon="-45.486383">
        <ele>987.477</ele>
        <time>2019-10-16T12:45:26Z</time>
      </trkpt>
      <trkpt lat="-22.155235" lon="-45.486353">
        <ele>987.661</ele>
        <time>2019-10-16T12:45:28Z</time>
      </trkpt>
      <trkpt lat="-22.155311" lon="-45.486320">
        <ele>987.727</ele>
        <time>2019-10-16T12:45:31Z</time>
      </trkpt>
      <trkpt lat="-22.155375" lon="-45.486295">
        <ele>987.608</ele>
        <time>2019-10-16T12:45:33Z</time>
      </trkpt>
      <trkpt lat="-22.155432" lon="-45.486267">
        <ele>987.681</ele>
        <time>2019-10-16T12:45:35Z</time>
      </trkpt>
      <trkpt lat="-22.155486" lon="-45.486235">
        <ele>987.619</ele>
        <time>2019-10-16T12:45:37Z</time>
      </trkpt>
      <trkpt lat="-22.155528" lon="-45.486204">
        <ele>987.632</ele>
        <time>2019-10-16T12:45:38Z</time>
      </trkpt>
      <trkpt lat="-22.155569" lon="-45.486172">
        <ele>987.620</ele>
        <time>2019-10-16T12:45:39Z</time>
      </trkpt>
      <trkpt lat="-22.155621" lon="-45.486139">
        <ele>987.490</ele>
        <time>2019-10-16T12:45:41Z</time>
      </trkpt>
      <trkpt lat="-22.155726" lon="-45.486058">
        <ele>986.982</ele>
        <time>2019-10-16T12:45:45Z</time>
      </trkpt>
      <trkpt lat="-22.155776" lon="-45.486011">
        <ele>986.646</ele>
        <time>2019-10-16T12:45:48Z</time>
      </trkpt>
      <trkpt lat="-22.155810" lon="-45.485967">
        <ele>986.483</ele>
        <time>2019-10-16T12:45:51Z</time>
      </trkpt>
      <trkpt lat="-22.155835" lon="-45.485920">
        <ele>986.424</ele>
        <time>2019-10-16T12:45:53Z</time>
      </trkpt>
      <trkpt lat="-22.155851" lon="-45.485870">
        <ele>986.604</ele>
        <time>2019-10-16T12:45:56Z</time>
      </trkpt>
      <trkpt lat="-22.155862" lon="-45.485803">
        <ele>986.914</ele>
        <time>2019-10-16T12:45:58Z</time>
      </trkpt>
      <trkpt lat="-22.155866" lon="-45.485735">
        <ele>987.208</ele>
        <time>2019-10-16T12:46:01Z</time>
      </trkpt>
      <trkpt lat="-22.155862" lon="-45.485653">
        <ele>987.666</ele>
        <time>2019-10-16T12:46:05Z</time>
      </trkpt>
      <trkpt lat="-22.155859" lon="-45.485600">
        <ele>987.944</ele>
        <time>2019-10-16T12:46:07Z</time>
      </trkpt>
      <trkpt lat="-22.155842" lon="-45.485544">
        <ele>988.317</ele>
        <time>2019-10-16T12:46:09Z</time>
      </trkpt>
      <trkpt lat="-22.155827" lon="-45.485484">
        <ele>988.845</ele>
        <time>2019-10-16T12:46:11Z</time>
      </trkpt>
      <trkpt lat="-22.155820" lon="-45.485423">
        <ele>989.395</ele>
        <time>2019-10-16T12:46:14Z</time>
      </trkpt>
      <trkpt lat="-22.155802" lon="-45.485346">
        <ele>990.167</ele>
        <time>2019-10-16T12:46:16Z</time>
      </trkpt>
      <trkpt lat="-22.155793" lon="-45.485295">
        <ele>990.621</ele>
        <time>2019-10-16T12:46:18Z</time>
      </trkpt>
      <trkpt lat="-22.155778" lon="-45.485233">
        <ele>991.398</ele>
        <time>2019-10-16T12:46:20Z</time>
      </trkpt>
      <trkpt lat="-22.155764" lon="-45.485173">
        <ele>992.074</ele>
        <time>2019-10-16T12:46:22Z</time>
      </trkpt>
      <trkpt lat="-22.155748" lon="-45.485102">
        <ele>992.856</ele>
        <time>2019-10-16T12:46:25Z</time>
      </trkpt>
      <trkpt lat="-22.155734" lon="-45.485055">
        <ele>993.421</ele>
        <time>2019-10-16T12:46:26Z</time>
      </trkpt>
      <trkpt lat="-22.155707" lon="-45.484969">
        <ele>994.108</ele>
        <time>2019-10-16T12:46:29Z</time>
      </trkpt>
      <trkpt lat="-22.155693" lon="-45.484921">
        <ele>993.871</ele>
        <time>2019-10-16T12:46:31Z</time>
      </trkpt>
      <trkpt lat="-22.155687" lon="-45.484870">
        <ele>993.279</ele>
        <time>2019-10-16T12:46:33Z</time>
      </trkpt>
      <trkpt lat="-22.155680" lon="-45.484794">
        <ele>992.322</ele>
        <time>2019-10-16T12:46:35Z</time>
      </trkpt>
      <trkpt lat="-22.155671" lon="-45.484725">
        <ele>991.540</ele>
        <time>2019-10-16T12:46:38Z</time>
      </trkpt>
      <trkpt lat="-22.155653" lon="-45.484675">
        <ele>991.290</ele>
        <time>2019-10-16T12:46:39Z</time>
      </trkpt>
      <trkpt lat="-22.155623" lon="-45.484606">
        <ele>990.862</ele>
        <time>2019-10-16T12:46:42Z</time>
      </trkpt>
      <trkpt lat="-22.155598" lon="-45.484560">
        <ele>990.576</ele>
        <time>2019-10-16T12:46:43Z</time>
      </trkpt>
      <trkpt lat="-22.154513" lon="-45.482610">
        <ele>984.523</ele>
        <time>2019-10-16T12:47:23Z</time>
      </trkpt>
      <trkpt lat="-22.154492" lon="-45.482558">
        <ele>984.465</ele>
        <time>2019-10-16T12:47:26Z</time>
      </trkpt>
      <trkpt lat="-22.154463" lon="-45.482511">
        <ele>984.268</ele>
        <time>2019-10-16T12:47:29Z</time>
      </trkpt>
      <trkpt lat="-22.154446" lon="-45.482432">
        <ele>985.014</ele>
        <time>2019-10-16T12:47:34Z</time>
      </trkpt>
      <trkpt lat="-22.154432" lon="-45.482379">
        <ele>985.608</ele>
        <time>2019-10-16T12:47:38Z</time>
      </trkpt>
      <trkpt lat="-22.154424" lon="-45.482327">
        <ele>986.290</ele>
        <time>2019-10-16T12:47:43Z</time>
      </trkpt>
      <trkpt lat="-22.154416" lon="-45.482276">
        <ele>986.828</ele>
        <time>2019-10-16T12:47:48Z</time>
      </trkpt>
      <trkpt lat="-22.154426" lon="-45.482228">
        <ele>987.751</ele>
        <time>2019-10-16T12:47:50Z</time>
      </trkpt>
      <trkpt lat="-22.154453" lon="-45.482178">
        <ele>988.829</ele>
        <time>2019-10-16T12:47:54Z</time>
      </trkpt>
      <trkpt lat="-22.154493" lon="-45.482145">
        <ele>989.829</ele>
        <time>2019-10-16T12:47:57Z</time>
      </trkpt>
      <trkpt lat="-22.154558" lon="-45.482161">
        <ele>990.591</ele>
        <time>2019-10-16T12:48:01Z</time>
      </trkpt>
      <trkpt lat="-22.154616" lon="-45.482152">
        <ele>991.525</ele>
        <time>2019-10-16T12:48:03Z</time>
      </trkpt>
      <trkpt lat="-22.154666" lon="-45.482154">
        <ele>992.292</ele>
        <time>2019-10-16T12:48:07Z</time>
      </trkpt>
      <trkpt lat="-22.154741" lon="-45.482176">
        <ele>992.927</ele>
        <time>2019-10-16T12:48:17Z</time>
      </trkpt>
      <trkpt lat="-22.154788" lon="-45.482195">
        <ele>993.368</ele>
        <time>2019-10-16T12:48:27Z</time>
      </trkpt>
      <trkpt lat="-22.154835" lon="-45.482216">
        <ele>993.714</ele>
        <time>2019-10-16T12:48:32Z</time>
      </trkpt>
      <trkpt lat="-22.154874" lon="-45.482253">
        <ele>993.708</ele>
        <time>2019-10-16T12:48:35Z</time>
      </trkpt>
      <trkpt lat="-22.154913" lon="-45.482285">
        <ele>993.836</ele>
        <time>2019-10-16T12:48:39Z</time>
      </trkpt>
      <trkpt lat="-22.154962" lon="-45.482307">
        <ele>994.264</ele>
        <time>2019-10-16T12:48:45Z</time>
      </trkpt>
      <trkpt lat="-22.155009" lon="-45.482331">
        <ele>994.587</ele>
        <time>2019-10-16T12:48:51Z</time>
      </trkpt>
      <trkpt lat="-22.155053" lon="-45.482354">
        <ele>994.385</ele>
        <time>2019-10-16T12:48:56Z</time>
      </trkpt>
      <trkpt lat="-22.155104" lon="-45.482373">
        <ele>994.275</ele>
        <time>2019-10-16T12:49:01Z</time>
      </trkpt>
      <trkpt lat="-22.155151" lon="-45.482390">
        <ele>994.117</ele>
        <time>2019-10-16T12:49:10Z</time>
      </trkpt>
      <trkpt lat="-22.155203" lon="-45.482405">
        <ele>994.071</ele>
        <time>2019-10-16T12:49:14Z</time>
      </trkpt>
      <trkpt lat="-22.155282" lon="-45.482412">
        <ele>994.138</ele>
        <time>2019-10-16T12:49:20Z</time>
      </trkpt>
      <trkpt lat="-22.155327" lon="-45.482408">
        <ele>994.334</ele>
        <time>2019-10-16T12:49:24Z</time>
      </trkpt>
      <trkpt lat="-22.155390" lon="-45.482405">
        <ele>994.655</ele>
        <time>2019-10-16T12:49:31Z</time>
      </trkpt>
      <trkpt lat="-22.155435" lon="-45.482402">
        <ele>994.810</ele>
        <time>2019-10-16T12:49:34Z</time>
      </trkpt>
      <trkpt lat="-22.155481" lon="-45.482398">
        <ele>995.008</ele>
        <time>2019-10-16T12:49:37Z</time>
      </trkpt>
      <trkpt lat="-22.155565" lon="-45.482377">
        <ele>995.667</ele>
        <time>2019-10-16T12:49:40Z</time>
      </trkpt>
      <trkpt lat="-22.155616" lon="-45.482356">
        <ele>996.215</ele>
        <time>2019-10-16T12:49:43Z</time>
      </trkpt>
      <trkpt lat="-22.155664" lon="-45.482329">
        <ele>996.958</ele>
        <time>2019-10-16T12:49:46Z</time>
      </trkpt>
      <trkpt lat="-22.155708" lon="-45.482293">
        <ele>997.746</ele>
        <time>2019-10-16T12:49:49Z</time>
      </trkpt>
      <trkpt lat="-22.155737" lon="-45.482253">
        <ele>998.626</ele>
        <time>2019-10-16T12:49:52Z</time>
      </trkpt>
      <trkpt lat="-22.155775" lon="-45.482221">
        <ele>999.418</ele>
        <time>2019-10-16T12:49:57Z</time>
      </trkpt>
      <trkpt lat="-22.155819" lon="-45.482183">
        <ele>1000.492</ele>
        <time>2019-10-16T12:50:04Z</time>
      </trkpt>
      <trkpt lat="-22.155865" lon="-45.482154">
        <ele>1000.649</ele>
        <time>2019-10-16T12:50:08Z</time>
      </trkpt>
      <trkpt lat="-22.155914" lon="-45.482123">
        <ele>1000.596</ele>
        <time>2019-10-16T12:50:14Z</time>
      </trkpt>
      <trkpt lat="-22.155955" lon="-45.482089">
        <ele>1000.631</ele>
        <time>2019-10-16T12:50:18Z</time>
      </trkpt>
      <trkpt lat="-22.155991" lon="-45.482054">
        <ele>1000.724</ele>
        <time>2019-10-16T12:50:24Z</time>
      </trkpt>
      <trkpt lat="-22.156053" lon="-45.482000">
        <ele>1000.808</ele>
        <time>2019-10-16T12:50:27Z</time>
      </trkpt>
      <trkpt lat="-22.156094" lon="-45.481966">
        <ele>1000.833</ele>
        <time>2019-10-16T12:50:29Z</time>
      </trkpt>
      <trkpt lat="-22.156138" lon="-45.481936">
        <ele>1000.611</ele>
        <time>2019-10-16T12:50:31Z</time>
      </trkpt>
      <trkpt lat="-22.156193" lon="-45.481896">
        <ele>1000.494</ele>
        <time>2019-10-16T12:50:35Z</time>
      </trkpt>
      <trkpt lat="-22.156236" lon="-45.481855">
        <ele>1000.522</ele>
        <time>2019-10-16T12:50:37Z</time>
      </trkpt>
      <trkpt lat="-22.156264" lon="-45.481798">
        <ele>1001.062</ele>
        <time>2019-10-16T12:50:40Z</time>
      </trkpt>
      <trkpt lat="-22.156287" lon="-45.481721">
        <ele>1001.974</ele>
        <time>2019-10-16T12:50:45Z</time>
      </trkpt>
      <trkpt lat="-22.156308" lon="-45.481662">
        <ele>1002.478</ele>
        <time>2019-10-16T12:50:47Z</time>
      </trkpt>
      <trkpt lat="-22.157349" lon="-45.477544">
        <ele>997.875</ele>
        <time>2019-10-16T12:51:54Z</time>
      </trkpt>
      <trkpt lat="-22.157365" lon="-45.477498">
        <ele>998.216</ele>
        <time>2019-10-16T12:51:57Z</time>
      </trkpt>
      <trkpt lat="-22.157391" lon="-45.477452">
        <ele>998.776</ele>
        <time>2019-10-16T12:52:02Z</time>
      </trkpt>
      <trkpt lat="-22.157411" lon="-45.477405">
        <ele>999.213</ele>
        <time>2019-10-16T12:52:08Z</time>
      </trkpt>
      <trkpt lat="-22.157429" lon="-45.477356">
        <ele>999.908</ele>
        <time>2019-10-16T12:52:12Z</time>
      </trkpt>
      <trkpt lat="-22.157458" lon="-45.477307">
        <ele>1000.555</ele>
        <time>2019-10-16T12:52:17Z</time>
      </trkpt>
      <trkpt lat="-22.157497" lon="-45.477261">
        <ele>1001.043</ele>
        <time>2019-10-16T12:52:21Z</time>
      </trkpt>
      <trkpt lat="-22.157531" lon="-45.477223">
        <ele>1001.786</ele>
        <time>2019-10-16T12:52:26Z</time>
      </trkpt>
      <trkpt lat="-22.157579" lon="-45.477188">
        <ele>1002.314</ele>
        <time>2019-10-16T12:52:28Z</time>
      </trkpt>
      <trkpt lat="-22.157686" lon="-45.477142">
        <ele>1003.284</ele>
        <time>2019-10-16T12:52:34Z</time>
      </trkpt>
      <trkpt lat="-22.157739" lon="-45.477133">
        <ele>1003.476</ele>
        <time>2019-10-16T12:52:37Z</time>
      </trkpt>
      <trkpt lat="-22.157788" lon="-45.477122">
        <ele>1003.640</ele>
        <time>2019-10-16T12:52:41Z</time>
      </trkpt>
      <trkpt lat="-22.157863" lon="-45.477110">
        <ele>1003.947</ele>
        <time>2019-10-16T12:52:45Z</time>
      </trkpt>
      <trkpt lat="-22.157926" lon="-45.477100">
        <ele>1004.292</ele>
        <time>2019-10-16T12:52:49Z</time>
      </trkpt>
      <trkpt lat="-22.157973" lon="-45.477089">
        <ele>1004.573</ele>
        <time>2019-10-16T12:52:52Z</time>
      </trkpt>
      <trkpt lat="-22.158023" lon="-45.477081">
        <ele>1004.720</ele>
        <time>2019-10-16T12:52:55Z</time>
      </trkpt>
      <trkpt lat="-22.158084" lon="-45.477068">
        <ele>1005.008</ele>
        <time>2019-10-16T12:52:58Z</time>
      </trkpt>
      <trkpt lat="-22.158135" lon="-45.477078">
        <ele>1004.973</ele>
        <time>2019-10-16T12:53:01Z</time>
      </trkpt>
      <trkpt lat="-22.158190" lon="-45.477086">
        <ele>1004.881</ele>
        <time>2019-10-16T12:53:04Z</time>
      </trkpt>
      <trkpt lat="-22.158268" lon="-45.477093">
        <ele>1004.714</ele>
        <time>2019-10-16T12:53:08Z</time>
      </trkpt>
      <trkpt lat="-22.158313" lon="-45.477104">
        <ele>1004.592</ele>
        <time>2019-10-16T12:53:10Z</time>
      </trkpt>
      <trkpt lat="-22.158369" lon="-45.477106">
        <ele>1004.742</ele>
        <time>2019-10-16T12:53:14Z</time>
      </trkpt>
      <trkpt lat="-22.158442" lon="-45.477092">
        <ele>1005.324</ele>
        <time>2019-10-16T12:53:17Z</time>
      </trkpt>
      <trkpt lat="-22.158493" lon="-45.477062">
        <ele>1006.218</ele>
        <time>2019-10-16T12:53:21Z</time>
      </trkpt>
      <trkpt lat="-22.158538" lon="-45.477020">
        <ele>1007.415</ele>
        <time>2019-10-16T12:53:24Z</time>
      </trkpt>
      <trkpt lat="-22.158560" lon="-45.476963">
        <ele>1008.831</ele>
        <time>2019-10-16T12:53:28Z</time>
      </trkpt>
      <trkpt lat="-22.158561" lon="-45.476907">
        <ele>1010.261</ele>
        <time>2019-10-16T12:53:33Z</time>
      </trkpt>
      <trkpt lat="-22.158546" lon="-45.476851">
        <ele>1011.407</ele>
        <time>2019-10-16T12:53:36Z</time>
      </trkpt>
      <trkpt lat="-22.158531" lon="-45.476804">
        <ele>1012.408</ele>
        <time>2019-10-16T12:53:40Z</time>
      </trkpt>
      <trkpt lat="-22.158498" lon="-45.476757">
        <ele>1013.367</ele>
        <time>2019-10-16T12:53:47Z</time>
      </trkpt>
      <trkpt lat="-22.158463" lon="-45.476726">
        <ele>1013.785</ele>
        <time>2019-10-16T12:53:55Z</time>
      </trkpt>
      <trkpt lat="-22.158418" lon="-45.476705">
        <ele>1013.958</ele>
        <time>2019-10-16T12:54:03Z</time>
      </trkpt>
      <trkpt lat="-22.158364" lon="-45.476682">
        <ele>1013.986</ele>
        <time>2019-10-16T12:54:11Z</time>
      </trkpt>
      <trkpt lat="-22.158316" lon="-45.476664">
        <ele>1014.046</ele>
        <time>2019-10-16T12:54:19Z</time>
      </trkpt>
      <trkpt lat="-22.158271" lon="-45.476656">
        <ele>1014.138</ele>
        <time>2019-10-16T12:54:23Z</time>
      </trkpt>
      <trkpt lat="-22.158227" lon="-45.476637">
        <ele>1014.632</ele>
        <time>2019-10-16T12:54:27Z</time>
      </trkpt>
      <trkpt lat="-22.158169" lon="-45.476604">
        <ele>1015.549</ele>
        <time>2019-10-16T12:54:35Z</time>
      </trkpt>
      <trkpt lat="-22.158129" lon="-45.476580">
        <ele>1016.167</ele>
        <time>2019-10-16T12:54:41Z</time>
      </trkpt>
      <trkpt lat="-22.158081" lon="-45.476551">
        <ele>1016.881</ele>
        <time>2019-10-16T12:54:48Z</time>
      </trkpt>
      <trkpt lat="-22.158028" lon="-45.476506">
        <ele>1017.919</ele>
        <time>2019-10-16T12:54:55Z</time>
      </trkpt>
      <trkpt lat="-22.157993" lon="-45.476474">
        <ele>1018.708</ele>
        <time>2019-10-16T12:55:00Z</time>
      </trkpt>
      <trkpt lat="-22.157960" lon="-45.476434">
        <ele>1019.850</ele>
        <time>2019-10-16T12:55:05Z</time>
      </trkpt>
      <trkpt lat="-22.157933" lon="-45.476389">
        <ele>1020.928</ele>
        <time>2019-10-16T12:55:08Z</time>
      </trkpt>
      <trkpt lat="-22.157904" lon="-45.476348">
        <ele>1022.061</ele>
        <time>2019-10-16T12:55:13Z</time>
      </trkpt>
      <trkpt lat="-22.157878" lon="-45.476300">
        <ele>1023.229</ele>
        <time>2019-10-16T12:55:19Z</time>
      </trkpt>
      <trkpt lat="-22.157847" lon="-45.476249">
        <ele>1024.439</ele>
        <time>2019-10-16T12:55:24Z</time>
      </trkpt>
      <trkpt lat="-22.157817" lon="-45.476196">
        <ele>1025.771</ele>
        <time>2019-10-16T12:55:31Z</time>
      </trkpt>
      <trkpt lat="-22.157791" lon="-45.476153">
        <ele>1026.715</ele>
        <time>2019-10-16T12:55:35Z</time>
      </trkpt>
      <trkpt lat="-22.157769" lon="-45.476108">
        <ele>1027.862</ele>
        <time>2019-10-16T12:55:40Z</time>
      </trkpt>
      <trkpt lat="-22.157744" lon="-45.476063">
        <ele>1028.862</ele>
        <time>2019-10-16T12:55:46Z</time>
      </trkpt>
      <trkpt lat="-22.157709" lon="-45.476017">
        <ele>1029.783</ele>
        <time>2019-10-16T12:55:51Z</time>
      </trkpt>
      <trkpt lat="-22.157678" lon="-45.475980">
        <ele>1030.411</ele>
        <time>2019-10-16T12:55:57Z</time>
      </trkpt>
      <trkpt lat="-22.157644" lon="-45.475948">
        <ele>1030.808</ele>
        <time>2019-10-16T12:56:00Z</time>
      </trkpt>
      <trkpt lat="-22.157602" lon="-45.475918">
        <ele>1031.130</ele>
        <time>2019-10-16T12:56:04Z</time>
      </trkpt>
      <trkpt lat="-22.157561" lon="-45.475892">
        <ele>1031.348</ele>
        <time>2019-10-16T12:56:10Z</time>
      </trkpt>
      <trkpt lat="-22.157515" lon="-45.475866">
        <ele>1031.481</ele>
        <time>2019-10-16T12:56:14Z</time>
      </trkpt>
      <trkpt lat="-22.157468" lon="-45.475844">
        <ele>1031.479</ele>
        <time>2019-10-16T12:56:19Z</time>
      </trkpt>
      <trkpt lat="-22.157424" lon="-45.475828">
        <ele>1031.389</ele>
        <time>2019-10-16T12:56:24Z</time>
      </trkpt>
      <trkpt lat="-22.157351" lon="-45.475804">
        <ele>1031.161</ele>
        <time>2019-10-16T12:56:33Z</time>
      </trkpt>
      <trkpt lat="-22.157299" lon="-45.475782">
        <ele>1031.295</ele>
        <time>2019-10-16T12:56:38Z</time>
      </trkpt>
      <trkpt lat="-22.157213" lon="-45.475724">
        <ele>1031.992</ele>
        <time>2019-10-16T12:56:53Z</time>
      </trkpt>
      <trkpt lat="-22.157174" lon="-45.475694">
        <ele>1032.495</ele>
        <time>2019-10-16T12:56:57Z</time>
      </trkpt>
      <trkpt lat="-22.157133" lon="-45.475661">
        <ele>1032.949</ele>
        <time>2019-10-16T12:57:02Z</time>
      </trkpt>
      <trkpt lat="-22.157095" lon="-45.475628">
        <ele>1033.423</ele>
        <time>2019-10-16T12:57:05Z</time>
      </trkpt>
      <trkpt lat="-22.157058" lon="-45.475586">
        <ele>1034.308</ele>
        <time>2019-10-16T12:57:10Z</time>
      </trkpt>
      <trkpt lat="-22.157022" lon="-45.475548">
        <ele>1035.023</ele>
        <time>2019-10-16T12:57:15Z</time>
      </trkpt>
      <trkpt lat="-22.156983" lon="-45.475511">
        <ele>1035.661</ele>
        <time>2019-10-16T12:57:19Z</time>
      </trkpt>
      <trkpt lat="-22.156941" lon="-45.475478">
        <ele>1036.154</ele>
        <time>2019-10-16T12:57:25Z</time>
      </trkpt>
      <trkpt lat="-22.156908" lon="-45.475444">
        <ele>1036.762</ele>
        <time>2019-10-16T12:57:30Z</time>
      </trkpt>
      <trkpt lat="-22.156873" lon="-45.475412">
        <ele>1037.292</ele>
        <time>2019-10-16T12:57:35Z</time>
      </trkpt>
      <trkpt lat="-22.156832" lon="-45.475373">
        <ele>1037.964</ele>
        <time>2019-10-16T12:57:40Z</time>
      </trkpt>
      <trkpt lat="-22.156800" lon="-45.475337">
        <ele>1038.618</ele>
        <time>2019-10-16T12:57:44Z</time>
      </trkpt>
      <trkpt lat="-22.156765" lon="-45.475294">
        <ele>1039.495</ele>
        <time>2019-10-16T12:57:48Z</time>
      </trkpt>
      <trkpt lat="-22.156723" lon="-45.475249">
        <ele>1040.362</ele>
        <time>2019-10-16T12:57:52Z</time>
      </trkpt>
      <trkpt lat="-22.156663" lon="-45.475174">
        <ele>1041.883</ele>
        <time>2019-10-16T12:57:56Z</time>
      </trkpt>
      <trkpt lat="-22.156625" lon="-45.475126">
        <ele>1042.911</ele>
        <time>2019-10-16T12:57:58Z</time>
      </trkpt>
      <trkpt lat="-22.156608" lon="-45.475081">
        <ele>1044.108</ele>
        <time>2019-10-16T12:58:01Z</time>
      </trkpt>
      <trkpt lat="-22.156577" lon="-45.475023">
        <ele>1045.550</ele>
        <time>2019-10-16T12:58:06Z</time>
      </trkpt>
      <trkpt lat="-22.156557" lon="-45.474971">
        <ele>1046.598</ele>
        <time>2019-10-16T12:58:09Z</time>
      </trkpt>
      <trkpt lat="-22.156552" lon="-45.474912">
        <ele>1047.521</ele>
        <time>2019-10-16T12:58:12Z</time>
      </trkpt>
      <trkpt lat="-22.156539" lon="-45.474847">
        <ele>1048.519</ele>
        <time>2019-10-16T12:58:16Z</time>
      </trkpt>
      <trkpt lat="-22.156513" lon="-45.474793">
        <ele>1049.219</ele>
        <time>2019-10-16T12:58:20Z</time>
      </trkpt>
      <trkpt lat="-22.156506" lon="-45.474736">
        <ele>1050.151</ele>
        <time>2019-10-16T12:58:23Z</time>
      </trkpt>
      <trkpt lat="-22.156494" lon="-45.474689">
        <ele>1050.985</ele>
        <time>2019-10-16T12:58:26Z</time>
      </trkpt>
      <trkpt lat="-22.156484" lon="-45.474637">
        <ele>1051.752</ele>
        <time>2019-10-16T12:58:29Z</time>
      </trkpt>
      <trkpt lat="-22.156480" lon="-45.474587">
        <ele>1052.556</ele>
        <time>2019-10-16T12:58:32Z</time>
      </trkpt>
      <trkpt lat="-22.156472" lon="-45.474536">
        <ele>1053.459</ele>
        <time>2019-10-16T12:58:36Z</time>
      </trkpt>
      <trkpt lat="-22.156462" lon="-45.474475">
        <ele>1054.314</ele>
        <time>2019-10-16T12:58:41Z</time>
      </trkpt>
      <trkpt lat="-22.156448" lon="-45.474427">
        <ele>1055.008</ele>
        <time>2019-10-16T12:58:44Z</time>
      </trkpt>
      <trkpt lat="-22.156458" lon="-45.474371">
        <ele>1056.189</ele>
        <time>2019-10-16T12:58:47Z</time>
      </trkpt>
      <trkpt lat="-22.156448" lon="-45.474313">
        <ele>1057.087</ele>
        <time>2019-10-16T12:58:50Z</time>
      </trkpt>
      <trkpt lat="-22.156425" lon="-45.474241">
        <ele>1058.110</ele>
        <time>2019-10-16T12:58:54Z</time>
      </trkpt>
      <trkpt lat="-22.156402" lon="-45.474184">
        <ele>1058.868</ele>
        <time>2019-10-16T12:58:59Z</time>
      </trkpt>
      <trkpt lat="-22.156368" lon="-45.474111">
        <ele>1059.458</ele>
        <time>2019-10-16T12:59:06Z</time>
      </trkpt>
      <trkpt lat="-22.156348" lon="-45.474055">
        <ele>1059.730</ele>
        <time>2019-10-16T12:59:08Z</time>
      </trkpt>
      <trkpt lat="-22.156328" lon="-45.474002">
        <ele>1060.014</ele>
        <time>2019-10-16T12:59:11Z</time>
      </trkpt>
      <trkpt lat="-22.156306" lon="-45.473948">
        <ele>1060.381</ele>
        <time>2019-10-16T12:59:14Z</time>
      </trkpt>
      <trkpt lat="-22.156285" lon="-45.473902">
        <ele>1060.514</ele>
        <time>2019-10-16T12:59:18Z</time>
      </trkpt>
      <trkpt lat="-22.156267" lon="-45.473847">
        <ele>1060.854</ele>
        <time>2019-10-16T12:59:22Z</time>
      </trkpt>
      <trkpt lat="-22.156250" lon="-45.473780">
        <ele>1061.209</ele>
        <time>2019-10-16T12:59:27Z</time>
      </trkpt>
      <trkpt lat="-22.156236" lon="-45.473719">
        <ele>1061.608</ele>
        <time>2019-10-16T12:59:31Z</time>
      </trkpt>
      <trkpt lat="-22.156223" lon="-45.473667">
        <ele>1061.915</ele>
        <time>2019-10-16T12:59:34Z</time>
      </trkpt>
      <trkpt lat="-22.156214" lon="-45.473615">
        <ele>1062.293</ele>
        <time>2019-10-16T12:59:37Z</time>
      </trkpt>
      <trkpt lat="-22.156209" lon="-45.473566">
        <ele>1062.676</ele>
        <time>2019-10-16T12:59:41Z</time>
      </trkpt>
      <trkpt lat="-22.156202" lon="-45.473515">
        <ele>1063.074</ele>
        <time>2019-10-16T12:59:44Z</time>
      </trkpt>
      <trkpt lat="-22.156195" lon="-45.473467">
        <ele>1063.394</ele>
        <time>2019-10-16T12:59:47Z</time>
      </trkpt>
      <trkpt lat="-22.156192" lon="-45.473417">
        <ele>1063.786</ele>
        <time>2019-10-16T12:59:50Z</time>
      </trkpt>
      <trkpt lat="-22.156186" lon="-45.473364">
        <ele>1064.140</ele>
        <time>2019-10-16T12:59:53Z</time>
      </trkpt>
      <trkpt lat="-22.156178" lon="-45.473314">
        <ele>1064.557</ele>
        <time>2019-10-16T12:59:57Z</time>
      </trkpt>
      <trkpt lat="-22.156160" lon="-45.473267">
        <ele>1064.746</ele>
        <time>2019-10-16T13:00:00Z</time>
      </trkpt>
      <trkpt lat="-22.156141" lon="-45.473203">
        <ele>1065.288</ele>
        <time>2019-10-16T13:00:03Z</time>
      </trkpt>
      <trkpt lat="-22.156134" lon="-45.473147">
        <ele>1065.716</ele>
        <time>2019-10-16T13:00:06Z</time>
      </trkpt>
      <trkpt lat="-22.156130" lon="-45.473089">
        <ele>1066.408</ele>
        <time>2019-10-16T13:00:09Z</time>
      </trkpt>
      <trkpt lat="-22.156122" lon="-45.473037">
        <ele>1066.918</ele>
        <time>2019-10-16T13:00:12Z</time>
      </trkpt>
      <trkpt lat="-22.156119" lon="-45.472975">
        <ele>1067.616</ele>
        <time>2019-10-16T13:00:15Z</time>
      </trkpt>
      <trkpt lat="-22.156113" lon="-45.472926">
        <ele>1068.159</ele>
        <time>2019-10-16T13:00:18Z</time>
      </trkpt>
      <trkpt lat="-22.156100" lon="-45.472879">
        <ele>1068.477</ele>
        <time>2019-10-16T13:00:21Z</time>
      </trkpt>
      <trkpt lat="-22.156108" lon="-45.472830">
        <ele>1069.217</ele>
        <time>2019-10-16T13:00:24Z</time>
      </trkpt>
      <trkpt lat="-22.156102" lon="-45.472769">
        <ele>1069.899</ele>
        <time>2019-10-16T13:00:27Z</time>
      </trkpt>
      <trkpt lat="-22.156085" lon="-45.472701">
        <ele>1070.333</ele>
        <time>2019-10-16T13:00:31Z</time>
      </trkpt>
      <trkpt lat="-22.156067" lon="-45.472649">
        <ele>1070.550</ele>
        <time>2019-10-16T13:00:34Z</time>
      </trkpt>
      <trkpt lat="-22.156058" lon="-45.472589">
        <ele>1071.033</ele>
        <time>2019-10-16T13:00:37Z</time>
      </trkpt>
      <trkpt lat="-22.156054" lon="-45.472532">
        <ele>1071.623</ele>
        <time>2019-10-16T13:00:43Z</time>
      </trkpt>
      <trkpt lat="-22.156048" lon="-45.472472">
        <ele>1072.115</ele>
        <time>2019-10-16T13:00:47Z</time>
      </trkpt>
      <trkpt lat="-22.156036" lon="-45.472418">
        <ele>1072.108</ele>
        <time>2019-10-16T13:00:51Z</time>
      </trkpt>
      <trkpt lat="-22.156024" lon="-45.472370">
        <ele>1072.187</ele>
        <time>2019-10-16T13:00:54Z</time>
      </trkpt>
      <trkpt lat="-22.156027" lon="-45.472322">
        <ele>1072.525</ele>
        <time>2019-10-16T13:00:57Z</time>
      </trkpt>
      <trkpt lat="-22.156033" lon="-45.472260">
        <ele>1073.038</ele>
        <time>2019-10-16T13:01:01Z</time>
      </trkpt>
      <trkpt lat="-22.156038" lon="-45.472199">
        <ele>1073.556</ele>
        <time>2019-10-16T13:01:05Z</time>
      </trkpt>
      <trkpt lat="-22.156043" lon="-45.472132">
        <ele>1074.076</ele>
        <time>2019-10-16T13:01:10Z</time>
      </trkpt>
      <trkpt lat="-22.156049" lon="-45.472082">
        <ele>1074.448</ele>
        <time>2019-10-16T13:01:13Z</time>
      </trkpt>
      <trkpt lat="-22.156053" lon="-45.472029">
        <ele>1074.982</ele>
        <time>2019-10-16T13:01:17Z</time>
      </trkpt>
      <trkpt lat="-22.156057" lon="-45.471978">
        <ele>1075.389</ele>
        <time>2019-10-16T13:01:21Z</time>
      </trkpt>
      <trkpt lat="-22.156061" lon="-45.471917">
        <ele>1075.831</ele>
        <time>2019-10-16T13:01:26Z</time>
      </trkpt>
      <trkpt lat="-22.156073" lon="-45.471856">
        <ele>1076.461</ele>
        <time>2019-10-16T13:01:31Z</time>
      </trkpt>
      <trkpt lat="-22.156091" lon="-45.471805">
        <ele>1077.207</ele>
        <time>2019-10-16T13:01:34Z</time>
      </trkpt>
      <trkpt lat="-22.156102" lon="-45.471748">
        <ele>1077.908</ele>
        <time>2019-10-16T13:01:39Z</time>
      </trkpt>
      <trkpt lat="-22.156123" lon="-45.471688">
        <ele>1078.957</ele>
        <time>2019-10-16T13:01:44Z</time>
      </trkpt>
      <trkpt lat="-22.156139" lon="-45.471638">
        <ele>1079.545</ele>
        <time>2019-10-16T13:01:46Z</time>
      </trkpt>
      <trkpt lat="-22.156153" lon="-45.471590">
        <ele>1080.088</ele>
        <time>2019-10-16T13:01:50Z</time>
      </trkpt>
      <trkpt lat="-22.156179" lon="-45.471519">
        <ele>1081.046</ele>
        <time>2019-10-16T13:01:54Z</time>
      </trkpt>
      <trkpt lat="-22.156193" lon="-45.471466">
        <ele>1081.586</ele>
        <time>2019-10-16T13:01:58Z</time>
      </trkpt>
      <trkpt lat="-22.156215" lon="-45.471423">
        <ele>1082.228</ele>
        <time>2019-10-16T13:02:03Z</time>
      </trkpt>
      <trkpt lat="-22.156248" lon="-45.471372">
        <ele>1083.232</ele>
        <time>2019-10-16T13:02:06Z</time>
      </trkpt>
      <trkpt lat="-22.156269" lon="-45.471326">
        <ele>1083.899</ele>
        <time>2019-10-16T13:02:09Z</time>
      </trkpt>
      <trkpt lat="-22.156279" lon="-45.471275">
        <ele>1084.266</ele>
        <time>2019-10-16T13:02:12Z</time>
      </trkpt>
      <trkpt lat="-22.156280" lon="-45.471225">
        <ele>1084.329</ele>
        <time>2019-10-16T13:02:15Z</time>
      </trkpt>
      <trkpt lat="-22.156301" lon="-45.471176">
        <ele>1084.921</ele>
        <time>2019-10-16T13:02:18Z</time>
      </trkpt>
      <trkpt lat="-22.156322" lon="-45.471132">
        <ele>1085.508</ele>
        <time>2019-10-16T13:02:21Z</time>
      </trkpt>
      <trkpt lat="-22.156356" lon="-45.471059">
        <ele>1086.520</ele>
        <time>2019-10-16T13:02:25Z</time>
      </trkpt>
      <trkpt lat="-22.156381" lon="-45.471010">
        <ele>1087.248</ele>
        <time>2019-10-16T13:02:28Z</time>
      </trkpt>
      <trkpt lat="-22.156392" lon="-45.470939">
        <ele>1087.661</ele>
        <time>2019-10-16T13:02:33Z</time>
      </trkpt>
      <trkpt lat="-22.156404" lon="-45.470884">
        <ele>1087.949</ele>
        <time>2019-10-16T13:02:37Z</time>
      </trkpt>
      <trkpt lat="-22.156415" lon="-45.470830">
        <ele>1088.399</ele>
        <time>2019-10-16T13:02:40Z</time>
      </trkpt>
      <trkpt lat="-22.156431" lon="-45.470778">
        <ele>1088.991</ele>
        <time>2019-10-16T13:02:43Z</time>
      </trkpt>
      <trkpt lat="-22.156454" lon="-45.470719">
        <ele>1089.645</ele>
        <time>2019-10-16T13:02:48Z</time>
      </trkpt>
      <trkpt lat="-22.156471" lon="-45.470668">
        <ele>1090.162</ele>
        <time>2019-10-16T13:02:52Z</time>
      </trkpt>
      <trkpt lat="-22.156488" lon="-45.470618">
        <ele>1090.676</ele>
        <time>2019-10-16T13:02:54Z</time>
      </trkpt>
      <trkpt lat="-22.156503" lon="-45.470572">
        <ele>1091.190</ele>
        <time>2019-10-16T13:02:57Z</time>
      </trkpt>
      <trkpt lat="-22.156522" lon="-45.470524">
        <ele>1091.519</ele>
        <time>2019-10-16T13:03:00Z</time>
      </trkpt>
      <trkpt lat="-22.156540" lon="-45.470452">
        <ele>1092.008</ele>
        <time>2019-10-16T13:03:06Z</time>
      </trkpt>
      <trkpt lat="-22.156561" lon="-45.470405">
        <ele>1092.431</ele>
        <time>2019-10-16T13:03:08Z</time>
      </trkpt>
      <trkpt lat="-22.156575" lon="-45.470356">
        <ele>1092.759</ele>
        <time>2019-10-16T13:03:12Z</time>
      </trkpt>
      <trkpt lat="-22.156586" lon="-45.470305">
        <ele>1093.042</ele>
        <time>2019-10-16T13:03:15Z</time>
      </trkpt>
      <trkpt lat="-22.156608" lon="-45.470258">
        <ele>1093.370</ele>
        <time>2019-10-16T13:03:18Z</time>
      </trkpt>
      <trkpt lat="-22.156633" lon="-45.470212">
        <ele>1093.630</ele>
        <time>2019-10-16T13:03:21Z</time>
      </trkpt>
      <trkpt lat="-22.156651" lon="-45.470156">
        <ele>1093.892</ele>
        <time>2019-10-16T13:03:25Z</time>
      </trkpt>
      <trkpt lat="-22.156668" lon="-45.470110">
        <ele>1094.046</ele>
        <time>2019-10-16T13:03:28Z</time>
      </trkpt>
      <trkpt lat="-22.156680" lon="-45.470055">
        <ele>1093.723</ele>
        <time>2019-10-16T13:03:31Z</time>
      </trkpt>
      <trkpt lat="-22.156688" lon="-45.470000">
        <ele>1093.593</ele>
        <time>2019-10-16T13:03:33Z</time>
      </trkpt>
      <trkpt lat="-22.156706" lon="-45.469928">
        <ele>1093.365</ele>
        <time>2019-10-16T13:03:36Z</time>
      </trkpt>
      <trkpt lat="-22.159598" lon="-45.464461">
        <ele>1052.521</ele>
        <time>2019-10-16T13:05:24Z</time>
      </trkpt>
      <trkpt lat="-22.159580" lon="-45.464391">
        <ele>1052.708</ele>
        <time>2019-10-16T13:05:29Z</time>
      </trkpt>
      <trkpt lat="-22.159564" lon="-45.464328">
        <ele>1052.843</ele>
        <time>2019-10-16T13:05:32Z</time>
      </trkpt>
      <trkpt lat="-22.159554" lon="-45.464276">
        <ele>1052.961</ele>
        <time>2019-10-16T13:05:34Z</time>
      </trkpt>
      <trkpt lat="-22.159535" lon="-45.464214">
        <ele>1053.194</ele>
        <time>2019-10-16T13:05:36Z</time>
      </trkpt>
      <trkpt lat="-22.159511" lon="-45.464141">
        <ele>1053.232</ele>
        <time>2019-10-16T13:05:38Z</time>
      </trkpt>
      <trkpt lat="-22.159479" lon="-45.464053">
        <ele>1053.122</ele>
        <time>2019-10-16T13:05:40Z</time>
      </trkpt>
      <trkpt lat="-22.159463" lon="-45.464004">
        <ele>1053.144</ele>
        <time>2019-10-16T13:05:41Z</time>
      </trkpt>
      <trkpt lat="-22.159433" lon="-45.463702">
        <ele>1051.898</ele>
        <time>2019-10-16T13:05:47Z</time>
      </trkpt>
      <trkpt lat="-22.159420" lon="-45.463650">
        <ele>1051.695</ele>
        <time>2019-10-16T13:05:49Z</time>
      </trkpt>
      <trkpt lat="-22.159423" lon="-45.463576">
        <ele>1051.262</ele>
        <time>2019-10-16T13:05:51Z</time>
      </trkpt>
      <trkpt lat="-22.159430" lon="-45.463497">
        <ele>1050.883</ele>
        <time>2019-10-16T13:05:53Z</time>
      </trkpt>
      <trkpt lat="-22.159431" lon="-45.463445">
        <ele>1050.511</ele>
        <time>2019-10-16T13:05:55Z</time>
      </trkpt>
      <trkpt lat="-22.159430" lon="-45.463368">
        <ele>1050.108</ele>
        <time>2019-10-16T13:05:57Z</time>
      </trkpt>
      <trkpt lat="-22.159428" lon="-45.463295">
        <ele>1049.960</ele>
        <time>2019-10-16T13:05:59Z</time>
      </trkpt>
      <trkpt lat="-22.159430" lon="-45.463224">
        <ele>1049.898</ele>
        <time>2019-10-16T13:06:01Z</time>
      </trkpt>
      <trkpt lat="-22.159429" lon="-45.463163">
        <ele>1049.711</ele>
        <time>2019-10-16T13:06:03Z</time>
      </trkpt>
      <trkpt lat="-22.159434" lon="-45.463110">
        <ele>1049.799</ele>
        <time>2019-10-16T13:06:04Z</time>
      </trkpt>
      <trkpt lat="-22.159438" lon="-45.463053">
        <ele>1049.699</ele>
        <time>2019-10-16T13:06:06Z</time>
      </trkpt>
      <trkpt lat="-22.159439" lon="-45.463000">
        <ele>1049.651</ele>
        <time>2019-10-16T13:06:08Z</time>
      </trkpt>
      <trkpt lat="-22.159444" lon="-45.462939">
        <ele>1049.595</ele>
        <time>2019-10-16T13:06:10Z</time>
      </trkpt>
      <trkpt lat="-22.159447" lon="-45.462890">
        <ele>1049.542</ele>
        <time>2019-10-16T13:06:12Z</time>
      </trkpt>
      <trkpt lat="-22.159449" lon="-45.462840">
        <ele>1049.431</ele>
        <time>2019-10-16T13:06:14Z</time>
      </trkpt>
      <trkpt lat="-22.159454" lon="-45.462787">
        <ele>1049.461</ele>
        <time>2019-10-16T13:06:17Z</time>
      </trkpt>
      <trkpt lat="-22.159453" lon="-45.462718">
        <ele>1049.307</ele>
        <time>2019-10-16T13:06:19Z</time>
      </trkpt>
      <trkpt lat="-22.159468" lon="-45.462671">
        <ele>1049.308</ele>
        <time>2019-10-16T13:06:22Z</time>
      </trkpt>
      <trkpt lat="-22.159517" lon="-45.462655">
        <ele>1049.417</ele>
        <time>2019-10-16T13:07:22Z</time>
      </trkpt>
      <trkpt lat="-22.159484" lon="-45.462621">
        <ele>1049.355</ele>
        <time>2019-10-16T13:07:25Z</time>
      </trkpt>
      <trkpt lat="-22.159463" lon="-45.462673">
        <ele>1049.348</ele>
        <time>2019-10-16T13:07:39Z</time>
      </trkpt>
      <trkpt lat="-22.159496" lon="-45.462636">
        <ele>1049.346</ele>
        <time>2019-10-16T13:07:45Z</time>
      </trkpt>
      <trkpt lat="-22.159488" lon="-45.462574">
        <ele>1049.266</ele>
        <time>2019-10-16T13:07:49Z</time>
      </trkpt>
      <trkpt lat="-22.159488" lon="-45.462516">
        <ele>1049.278</ele>
        <time>2019-10-16T13:07:52Z</time>
      </trkpt>
      <trkpt lat="-22.159494" lon="-45.462465">
        <ele>1049.292</ele>
        <time>2019-10-16T13:07:55Z</time>
      </trkpt>
      <trkpt lat="-22.159506" lon="-45.462412">
        <ele>1049.379</ele>
        <time>2019-10-16T13:07:57Z</time>
      </trkpt>
      <trkpt lat="-22.159510" lon="-45.462345">
        <ele>1049.418</ele>
        <time>2019-10-16T13:08:01Z</time>
      </trkpt>
      <trkpt lat="-22.159525" lon="-45.462281">
        <ele>1049.698</ele>
        <time>2019-10-16T13:08:03Z</time>
      </trkpt>
      <trkpt lat="-22.159533" lon="-45.462224">
        <ele>1049.717</ele>
        <time>2019-10-16T13:08:06Z</time>
      </trkpt>
      <trkpt lat="-22.159550" lon="-45.462088">
        <ele>1050.008</ele>
        <time>2019-10-16T13:09:44Z</time>
      </trkpt>
      <trkpt lat="-22.159552" lon="-45.462037">
        <ele>1050.145</ele>
        <time>2019-10-16T13:09:47Z</time>
      </trkpt>
      <trkpt lat="-22.159556" lon="-45.461977">
        <ele>1050.273</ele>
        <time>2019-10-16T13:09:51Z</time>
      </trkpt>
      <trkpt lat="-22.159557" lon="-45.461925">
        <ele>1050.376</ele>
        <time>2019-10-16T13:09:54Z</time>
      </trkpt>
      <trkpt lat="-22.159573" lon="-45.461876">
        <ele>1050.554</ele>
        <time>2019-10-16T13:09:57Z</time>
      </trkpt>
      <trkpt lat="-22.159583" lon="-45.461810">
        <ele>1050.794</ele>
        <time>2019-10-16T13:10:01Z</time>
      </trkpt>
      <trkpt lat="-22.159592" lon="-45.461755">
        <ele>1050.976</ele>
        <time>2019-10-16T13:10:04Z</time>
      </trkpt>
      <trkpt lat="-22.159599" lon="-45.461699">
        <ele>1051.180</ele>
        <time>2019-10-16T13:10:07Z</time>
      </trkpt>
      <trkpt lat="-22.159605" lon="-45.461645">
        <ele>1051.237</ele>
        <time>2019-10-16T13:10:10Z</time>
      </trkpt>
      <trkpt lat="-22.159627" lon="-45.461593">
        <ele>1051.666</ele>
        <time>2019-10-16T13:10:13Z</time>
      </trkpt>
      <trkpt lat="-22.159641" lon="-45.461528">
        <ele>1051.829</ele>
        <time>2019-10-16T13:10:17Z</time>
      </trkpt>
      <trkpt lat="-22.159650" lon="-45.461474">
        <ele>1052.021</ele>
        <time>2019-10-16T13:10:21Z</time>
      </trkpt>
      <trkpt lat="-22.159664" lon="-45.461411">
        <ele>1052.308</ele>
        <time>2019-10-16T13:10:24Z</time>
      </trkpt>
      <trkpt lat="-22.159669" lon="-45.461355">
        <ele>1052.560</ele>
        <time>2019-10-16T13:10:28Z</time>
      </trkpt>
      <trkpt lat="-22.159687" lon="-45.461310">
        <ele>1052.838</ele>
        <time>2019-10-16T13:10:31Z</time>
      </trkpt>
      <trkpt lat="-22.159699" lon="-45.461255">
        <ele>1053.191</ele>
        <time>2019-10-16T13:10:35Z</time>
      </trkpt>
      <trkpt lat="-22.159720" lon="-45.461202">
        <ele>1053.449</ele>
        <time>2019-10-16T13:10:39Z</time>
      </trkpt>
      <trkpt lat="-22.159741" lon="-45.461154">
        <ele>1053.839</ele>
        <time>2019-10-16T13:10:43Z</time>
      </trkpt>
      <trkpt lat="-22.159763" lon="-45.461098">
        <ele>1054.291</ele>
        <time>2019-10-16T13:10:47Z</time>
      </trkpt>
      <trkpt lat="-22.159779" lon="-45.461053">
        <ele>1054.525</ele>
        <time>2019-10-16T13:10:51Z</time>
      </trkpt>
      <trkpt lat="-22.159792" lon="-45.461005">
        <ele>1054.852</ele>
        <time>2019-10-16T13:10:54Z</time>
      </trkpt>
      <trkpt lat="-22.159812" lon="-45.460959">
        <ele>1055.271</ele>
        <time>2019-10-16T13:10:57Z</time>
      </trkpt>
      <trkpt lat="-22.159836" lon="-45.460907">
        <ele>1055.641</ele>
        <time>2019-10-16T13:11:00Z</time>
      </trkpt>
      <trkpt lat="-22.159873" lon="-45.460859">
        <ele>1056.215</ele>
        <time>2019-10-16T13:11:04Z</time>
      </trkpt>
      <trkpt lat="-22.159887" lon="-45.460807">
        <ele>1056.508</ele>
        <time>2019-10-16T13:11:09Z</time>
      </trkpt>
      <trkpt lat="-22.159886" lon="-45.460757">
        <ele>1056.311</ele>
        <time>2019-10-16T13:11:13Z</time>
      </trkpt>
      <trkpt lat="-22.159931" lon="-45.460713">
        <ele>1056.899</ele>
        <time>2019-10-16T13:11:16Z</time>
      </trkpt>
      <trkpt lat="-22.159968" lon="-45.460671">
        <ele>1057.232</ele>
        <time>2019-10-16T13:11:19Z</time>
      </trkpt>
      <trkpt lat="-22.159987" lon="-45.460619">
        <ele>1057.360</ele>
        <time>2019-10-16T13:11:23Z</time>
      </trkpt>
      <trkpt lat="-22.160000" lon="-45.460555">
        <ele>1057.310</ele>
        <time>2019-10-16T13:11:47Z</time>
      </trkpt>
      <trkpt lat="-22.160024" lon="-45.460478">
        <ele>1057.782</ele>
        <time>2019-10-16T13:11:52Z</time>
      </trkpt>
      <trkpt lat="-22.160035" lon="-45.460413">
        <ele>1057.876</ele>
        <time>2019-10-16T13:11:56Z</time>
      </trkpt>
      <trkpt lat="-22.160043" lon="-45.460349">
        <ele>1057.933</ele>
        <time>2019-10-16T13:12:00Z</time>
      </trkpt>
      <trkpt lat="-22.160057" lon="-45.460284">
        <ele>1058.188</ele>
        <time>2019-10-16T13:12:04Z</time>
      </trkpt>
      <trkpt lat="-22.160066" lon="-45.460226">
        <ele>1058.224</ele>
        <time>2019-10-16T13:12:07Z</time>
      </trkpt>
      <trkpt lat="-22.160069" lon="-45.460169">
        <ele>1058.226</ele>
        <time>2019-10-16T13:12:10Z</time>
      </trkpt>
      <trkpt lat="-22.160081" lon="-45.460109">
        <ele>1058.408</ele>
        <time>2019-10-16T13:12:13Z</time>
      </trkpt>
      <trkpt lat="-22.160097" lon="-45.460056">
        <ele>1058.822</ele>
        <time>2019-10-16T13:12:16Z</time>
      </trkpt>
      <trkpt lat="-22.160096" lon="-45.459990">
        <ele>1058.790</ele>
        <time>2019-10-16T13:12:19Z</time>
      </trkpt>
      <trkpt lat="-22.160099" lon="-45.459939">
        <ele>1058.923</ele>
        <time>2019-10-16T13:12:21Z</time>
      </trkpt>
      <trkpt lat="-22.160106" lon="-45.459880">
        <ele>1059.281</ele>
        <time>2019-10-16T13:12:24Z</time>
      </trkpt>
      <trkpt lat="-22.160121" lon="-45.459807">
        <ele>1059.811</ele>
        <time>2019-10-16T13:12:27Z</time>
      </trkpt>
      <trkpt lat="-22.160125" lon="-45.459746">
        <ele>1060.073</ele>
        <time>2019-10-16T13:12:29Z</time>
      </trkpt>
      <trkpt lat="-22.160121" lon="-45.459670">
        <ele>1060.137</ele>
        <time>2019-10-16T13:12:32Z</time>
      </trkpt>
      <trkpt lat="-22.160124" lon="-45.459619">
        <ele>1060.394</ele>
        <time>2019-10-16T13:12:35Z</time>
      </trkpt>
      <trkpt lat="-22.160121" lon="-45.459566">
        <ele>1060.358</ele>
        <time>2019-10-16T13:12:36Z</time>
      </trkpt>
      <trkpt lat="-22.160109" lon="-45.459487">
        <ele>1060.252</ele>
        <time>2019-10-16T13:12:40Z</time>
      </trkpt>
      <trkpt lat="-22.160103" lon="-45.459437">
        <ele>1060.117</ele>
        <time>2019-10-16T13:12:41Z</time>
      </trkpt>
      <trkpt lat="-22.160094" lon="-45.459369">
        <ele>1060.008</ele>
        <time>2019-10-16T13:12:43Z</time>
      </trkpt>
      <trkpt lat="-22.160081" lon="-45.459270">
        <ele>1059.939</ele>
        <time>2019-10-16T13:12:46Z</time>
      </trkpt>
      <trkpt lat="-22.160072" lon="-45.459212">
        <ele>1059.877</ele>
        <time>2019-10-16T13:12:48Z</time>
      </trkpt>
      <trkpt lat="-22.160062" lon="-45.459159">
        <ele>1059.650</ele>
        <time>2019-10-16T13:12:50Z</time>
      </trkpt>
      <trkpt lat="-22.160050" lon="-45.459089">
        <ele>1059.468</ele>
        <time>2019-10-16T13:12:52Z</time>
      </trkpt>
      <trkpt lat="-22.160034" lon="-45.459031">
        <ele>1059.188</ele>
        <time>2019-10-16T13:12:53Z</time>
      </trkpt>
      <trkpt lat="-22.160019" lon="-45.458964">
        <ele>1058.880</ele>
        <time>2019-10-16T13:12:55Z</time>
      </trkpt>
      <trkpt lat="-22.160000" lon="-45.458909">
        <ele>1058.314</ele>
        <time>2019-10-16T13:12:57Z</time>
      </trkpt>
      <trkpt lat="-22.159975" lon="-45.458820">
        <ele>1058.161</ele>
        <time>2019-10-16T13:12:59Z</time>
      </trkpt>
      <trkpt lat="-22.159966" lon="-45.458725">
        <ele>1058.184</ele>
        <time>2019-10-16T13:13:02Z</time>
      </trkpt>
      <trkpt lat="-22.159959" lon="-45.458653">
        <ele>1058.207</ele>
        <time>2019-10-16T13:13:04Z</time>
      </trkpt>
      <trkpt lat="-22.159945" lon="-45.458583">
        <ele>1058.117</ele>
        <time>2019-10-16T13:13:07Z</time>
      </trkpt>
      <trkpt lat="-22.159951" lon="-45.458524">
        <ele>1058.208</ele>
        <time>2019-10-16T13:13:10Z</time>
      </trkpt>
      <trkpt lat="-22.159948" lon="-45.458473">
        <ele>1058.382</ele>
        <time>2019-10-16T13:13:11Z</time>
      </trkpt>
      <trkpt lat="-22.159941" lon="-45.458401">
        <ele>1058.340</ele>
        <time>2019-10-16T13:13:14Z</time>
      </trkpt>
      <trkpt lat="-22.159935" lon="-45.458341">
        <ele>1058.343</ele>
        <time>2019-10-16T13:13:17Z</time>
      </trkpt>
      <trkpt lat="-22.159927" lon="-45.458245">
        <ele>1058.941</ele>
        <time>2019-10-16T13:13:20Z</time>
      </trkpt>
      <trkpt lat="-22.159923" lon="-45.458186">
        <ele>1059.361</ele>
        <time>2019-10-16T13:13:22Z</time>
      </trkpt>
      <trkpt lat="-22.159915" lon="-45.458132">
        <ele>1059.643</ele>
        <time>2019-10-16T13:13:24Z</time>
      </trkpt>
      <trkpt lat="-22.159903" lon="-45.458070">
        <ele>1060.047</ele>
        <time>2019-10-16T13:13:27Z</time>
      </trkpt>
      <trkpt lat="-22.159897" lon="-45.458021">
        <ele>1060.344</ele>
        <time>2019-10-16T13:13:28Z</time>
      </trkpt>
      <trkpt lat="-22.159894" lon="-45.457970">
        <ele>1060.633</ele>
        <time>2019-10-16T13:13:30Z</time>
      </trkpt>
      <trkpt lat="-22.159890" lon="-45.457907">
        <ele>1061.123</ele>
        <time>2019-10-16T13:13:32Z</time>
      </trkpt>
      <trkpt lat="-22.159883" lon="-45.457845">
        <ele>1061.515</ele>
        <time>2019-10-16T13:13:34Z</time>
      </trkpt>
      <trkpt lat="-22.159871" lon="-45.457771">
        <ele>1062.008</ele>
        <time>2019-10-16T13:13:37Z</time>
      </trkpt>
      <trkpt lat="-22.159855" lon="-45.457713">
        <ele>1062.347</ele>
        <time>2019-10-16T13:13:38Z</time>
      </trkpt>
      <trkpt lat="-22.159842" lon="-45.457651">
        <ele>1062.735</ele>
        <time>2019-10-16T13:13:40Z</time>
      </trkpt>
      <trkpt lat="-22.159835" lon="-45.457584">
        <ele>1063.138</ele>
        <time>2019-10-16T13:13:42Z</time>
      </trkpt>
      <trkpt lat="-22.159825" lon="-45.457536">
        <ele>1063.586</ele>
        <time>2019-10-16T13:13:44Z</time>
      </trkpt>
      <trkpt lat="-22.159816" lon="-45.457481">
        <ele>1063.896</ele>
        <time>2019-10-16T13:13:46Z</time>
      </trkpt>
      <trkpt lat="-22.159800" lon="-45.457417">
        <ele>1064.048</ele>
        <time>2019-10-16T13:13:49Z</time>
      </trkpt>
      <trkpt lat="-22.159786" lon="-45.457354">
        <ele>1064.222</ele>
        <time>2019-10-16T13:13:51Z</time>
      </trkpt>
      <trkpt lat="-22.159777" lon="-45.457299">
        <ele>1064.499</ele>
        <time>2019-10-16T13:13:52Z</time>
      </trkpt>
      <trkpt lat="-22.159771" lon="-45.457243">
        <ele>1064.662</ele>
        <time>2019-10-16T13:13:54Z</time>
      </trkpt>
      <trkpt lat="-22.159761" lon="-45.457183">
        <ele>1064.883</ele>
        <time>2019-10-16T13:13:56Z</time>
      </trkpt>
      <trkpt lat="-22.159750" lon="-45.457129">
        <ele>1064.911</ele>
        <time>2019-10-16T13:13:58Z</time>
      </trkpt>
      <trkpt lat="-22.159739" lon="-45.457068">
        <ele>1065.108</ele>
        <time>2019-10-16T13:14:00Z</time>
      </trkpt>
      <trkpt lat="-22.159727" lon="-45.457007">
        <ele>1065.240</ele>
        <time>2019-10-16T13:14:02Z</time>
      </trkpt>
      <trkpt lat="-22.159716" lon="-45.456955">
        <ele>1065.318</ele>
        <time>2019-10-16T13:14:04Z</time>
      </trkpt>
      <trkpt lat="-22.159700" lon="-45.456899">
        <ele>1065.331</ele>
        <time>2019-10-16T13:14:06Z</time>
      </trkpt>
      <trkpt lat="-22.159686" lon="-45.456843">
        <ele>1065.469</ele>
        <time>2019-10-16T13:14:08Z</time>
      </trkpt>
      <trkpt lat="-22.159676" lon="-45.456788">
        <ele>1065.589</ele>
        <time>2019-10-16T13:14:10Z</time>
      </trkpt>
      <trkpt lat="-22.159664" lon="-45.456735">
        <ele>1065.551</ele>
        <time>2019-10-16T13:14:12Z</time>
      </trkpt>
      <trkpt lat="-22.159639" lon="-45.456615">
        <ele>1065.415</ele>
        <time>2019-10-16T13:14:16Z</time>
      </trkpt>
      <trkpt lat="-22.159623" lon="-45.456542">
        <ele>1065.392</ele>
        <time>2019-10-16T13:14:19Z</time>
      </trkpt>
      <trkpt lat="-22.159609" lon="-45.456489">
        <ele>1065.181</ele>
        <time>2019-10-16T13:14:21Z</time>
      </trkpt>
      <trkpt lat="-22.159588" lon="-45.456429">
        <ele>1064.961</ele>
        <time>2019-10-16T13:14:23Z</time>
      </trkpt>
      <trkpt lat="-22.159561" lon="-45.456364">
        <ele>1064.517</ele>
        <time>2019-10-16T13:14:25Z</time>
      </trkpt>
      <trkpt lat="-22.159527" lon="-45.456272">
        <ele>1064.008</ele>
        <time>2019-10-16T13:14:28Z</time>
      </trkpt>
      <trkpt lat="-22.159505" lon="-45.456217">
        <ele>1063.712</ele>
        <time>2019-10-16T13:14:30Z</time>
      </trkpt>
      <trkpt lat="-22.159483" lon="-45.456169">
        <ele>1063.420</ele>
        <time>2019-10-16T13:14:32Z</time>
      </trkpt>
      <trkpt lat="-22.159464" lon="-45.456122">
        <ele>1063.183</ele>
        <time>2019-10-16T13:14:34Z</time>
      </trkpt>
      <trkpt lat="-22.159449" lon="-45.456071">
        <ele>1062.931</ele>
        <time>2019-10-16T13:14:36Z</time>
      </trkpt>
      <trkpt lat="-22.159446" lon="-45.456008">
        <ele>1062.971</ele>
        <time>2019-10-16T13:14:38Z</time>
      </trkpt>
      <trkpt lat="-22.159443" lon="-45.455959">
        <ele>1062.923</ele>
        <time>2019-10-16T13:14:40Z</time>
      </trkpt>
      <trkpt lat="-22.159443" lon="-45.455897">
        <ele>1062.997</ele>
        <time>2019-10-16T13:14:43Z</time>
      </trkpt>
      <trkpt lat="-22.159465" lon="-45.455825">
        <ele>1063.444</ele>
        <time>2019-10-16T13:14:49Z</time>
      </trkpt>
      <trkpt lat="-22.159486" lon="-45.455769">
        <ele>1063.811</ele>
        <time>2019-10-16T13:14:55Z</time>
      </trkpt>
      <trkpt lat="-22.159506" lon="-45.455701">
        <ele>1064.221</ele>
        <time>2019-10-16T13:15:00Z</time>
      </trkpt>
      <trkpt lat="-22.159526" lon="-45.455622">
        <ele>1064.603</ele>
        <time>2019-10-16T13:15:03Z</time>
      </trkpt>
      <trkpt lat="-22.159538" lon="-45.455571">
        <ele>1064.808</ele>
        <time>2019-10-16T13:15:08Z</time>
      </trkpt>
      <trkpt lat="-22.159550" lon="-45.455512">
        <ele>1065.035</ele>
        <time>2019-10-16T13:15:11Z</time>
      </trkpt>
      <trkpt lat="-22.159591" lon="-45.455433">
        <ele>1065.643</ele>
        <time>2019-10-16T13:15:17Z</time>
      </trkpt>
      <trkpt lat="-22.159616" lon="-45.455380">
        <ele>1066.096</ele>
        <time>2019-10-16T13:15:21Z</time>
      </trkpt>
      <trkpt lat="-22.159636" lon="-45.455327">
        <ele>1066.284</ele>
        <time>2019-10-16T13:15:25Z</time>
      </trkpt>
      <trkpt lat="-22.159651" lon="-45.455267">
        <ele>1066.474</ele>
        <time>2019-10-16T13:15:29Z</time>
      </trkpt>
      <trkpt lat="-22.159653" lon="-45.455215">
        <ele>1066.496</ele>
        <time>2019-10-16T13:15:32Z</time>
      </trkpt>
      <trkpt lat="-22.159724" lon="-45.455124">
        <ele>1067.220</ele>
        <time>2019-10-16T13:15:40Z</time>
      </trkpt>
      <trkpt lat="-22.159707" lon="-45.455069">
        <ele>1066.997</ele>
        <time>2019-10-16T13:15:44Z</time>
      </trkpt>
      <trkpt lat="-22.159652" lon="-45.455083">
        <ele>1066.319</ele>
        <time>2019-10-16T13:15:47Z</time>
      </trkpt>
      <trkpt lat="-22.159611" lon="-45.455115">
        <ele>1065.809</ele>
        <time>2019-10-16T13:15:51Z</time>
      </trkpt>
      <trkpt lat="-22.159611" lon="-45.455115">
        <ele>1065.819</ele>
        <time>2019-10-16T13:15:51Z</time>
      </trkpt>
      <trkpt lat="-22.159611" lon="-45.455056">
        <ele>1065.808</ele>
        <time>2019-10-16T13:15:59Z</time>
      </trkpt>
      <trkpt lat="-22.159659" lon="-45.455061">
        <ele>1066.495</ele>
        <time>2019-10-16T13:24:21Z</time>
      </trkpt>
      <trkpt lat="-22.159687" lon="-45.455011">
        <ele>1066.693</ele>
        <time>2019-10-16T13:24:37Z</time>
      </trkpt>
      <trkpt lat="-22.159710" lon="-45.454965">
        <ele>1066.786</ele>
        <time>2019-10-16T13:29:37Z</time>
      </trkpt>
      <trkpt lat="-22.159762" lon="-45.454940">
        <ele>1067.134</ele>
        <time>2019-10-16T13:29:40Z</time>
      </trkpt>
      <trkpt lat="-22.159785" lon="-45.454891">
        <ele>1067.154</ele>
        <time>2019-10-16T13:29:42Z</time>
      </trkpt>
      <trkpt lat="-22.159813" lon="-45.454816">
        <ele>1067.016</ele>
        <time>2019-10-16T13:29:45Z</time>
      </trkpt>
      <trkpt lat="-22.159852" lon="-45.454736">
        <ele>1066.930</ele>
        <time>2019-10-16T13:29:48Z</time>
      </trkpt>
      <trkpt lat="-22.159892" lon="-45.454681">
        <ele>1067.067</ele>
        <time>2019-10-16T13:29:50Z</time>
      </trkpt>
      <trkpt lat="-22.162486" lon="-45.450825">
        <ele>1055.098</ele>
        <time>2019-10-16T13:31:18Z</time>
      </trkpt>
      <trkpt lat="-22.162492" lon="-45.450776">
        <ele>1055.115</ele>
        <time>2019-10-16T13:31:19Z</time>
      </trkpt>
      <trkpt lat="-22.162487" lon="-45.450718">
        <ele>1055.126</ele>
        <time>2019-10-16T13:31:21Z</time>
      </trkpt>
      <trkpt lat="-22.162489" lon="-45.450660">
        <ele>1055.208</ele>
        <time>2019-10-16T13:31:22Z</time>
      </trkpt>
      <trkpt lat="-22.162494" lon="-45.450592">
        <ele>1055.393</ele>
        <time>2019-10-16T13:31:24Z</time>
      </trkpt>
      <trkpt lat="-22.162512" lon="-45.450454">
        <ele>1055.671</ele>
        <time>2019-10-16T13:31:28Z</time>
      </trkpt>
      <trkpt lat="-22.162521" lon="-45.450398">
        <ele>1055.894</ele>
        <time>2019-10-16T13:31:30Z</time>
      </trkpt>
      <trkpt lat="-22.162523" lon="-45.450334">
        <ele>1056.022</ele>
        <time>2019-10-16T13:31:32Z</time>
      </trkpt>
      <trkpt lat="-22.162523" lon="-45.450254">
        <ele>1056.142</ele>
        <time>2019-10-16T13:31:33Z</time>
      </trkpt>
      <trkpt lat="-22.162533" lon="-45.450161">
        <ele>1056.374</ele>
        <time>2019-10-16T13:31:36Z</time>
      </trkpt>
      <trkpt lat="-22.162541" lon="-45.450051">
        <ele>1056.658</ele>
        <time>2019-10-16T13:31:39Z</time>
      </trkpt>
      <trkpt lat="-22.162548" lon="-45.450000">
        <ele>1056.765</ele>
        <time>2019-10-16T13:31:41Z</time>
      </trkpt>
      <trkpt lat="-22.162557" lon="-45.449930">
        <ele>1056.831</ele>
        <time>2019-10-16T13:31:43Z</time>
      </trkpt>
      <trkpt lat="-22.162568" lon="-45.449854">
        <ele>1056.961</ele>
        <time>2019-10-16T13:31:45Z</time>
      </trkpt>
      <trkpt lat="-22.162582" lon="-45.449786">
        <ele>1057.107</ele>
        <time>2019-10-16T13:31:47Z</time>
      </trkpt>
      <trkpt lat="-22.162595" lon="-45.449717">
        <ele>1057.208</ele>
        <time>2019-10-16T13:31:49Z</time>
      </trkpt>
      <trkpt lat="-22.162612" lon="-45.449601">
        <ele>1057.287</ele>
        <time>2019-10-16T13:31:53Z</time>
      </trkpt>
      <trkpt lat="-22.162629" lon="-45.449544">
        <ele>1057.375</ele>
        <time>2019-10-16T13:31:54Z</time>
      </trkpt>
      <trkpt lat="-22.162647" lon="-45.449466">
        <ele>1057.418</ele>
        <time>2019-10-16T13:31:56Z</time>
      </trkpt>
      <trkpt lat="-22.162665" lon="-45.449398">
        <ele>1057.486</ele>
        <time>2019-10-16T13:31:58Z</time>
      </trkpt>
      <trkpt lat="-22.162678" lon="-45.449344">
        <ele>1057.466</ele>
        <time>2019-10-16T13:32:00Z</time>
      </trkpt>
      <trkpt lat="-22.162701" lon="-45.449277">
        <ele>1057.538</ele>
        <time>2019-10-16T13:32:01Z</time>
      </trkpt>
      <trkpt lat="-22.162718" lon="-45.449218">
        <ele>1057.482</ele>
        <time>2019-10-16T13:32:03Z</time>
      </trkpt>
      <trkpt lat="-22.162733" lon="-45.449163">
        <ele>1057.459</ele>
        <time>2019-10-16T13:32:05Z</time>
      </trkpt>
      <trkpt lat="-22.162744" lon="-45.449105">
        <ele>1057.475</ele>
        <time>2019-10-16T13:32:06Z</time>
      </trkpt>
      <trkpt lat="-22.162764" lon="-45.449036">
        <ele>1057.428</ele>
        <time>2019-10-16T13:32:08Z</time>
      </trkpt>
      <trkpt lat="-22.162788" lon="-45.448982">
        <ele>1057.420</ele>
        <time>2019-10-16T13:32:10Z</time>
      </trkpt>
      <trkpt lat="-22.162809" lon="-45.448927">
        <ele>1057.508</ele>
        <time>2019-10-16T13:32:11Z</time>
      </trkpt>
      <trkpt lat="-22.162846" lon="-45.448846">
        <ele>1057.561</ele>
        <time>2019-10-16T13:32:14Z</time>
      </trkpt>
      <trkpt lat="-22.162887" lon="-45.448745">
        <ele>1057.619</ele>
        <time>2019-10-16T13:32:16Z</time>
      </trkpt>
      <trkpt lat="-22.162971" lon="-45.448509">
        <ele>1057.642</ele>
        <time>2019-10-16T13:32:22Z</time>
      </trkpt>
      <trkpt lat="-22.162996" lon="-45.448458">
        <ele>1057.610</ele>
        <time>2019-10-16T13:32:23Z</time>
      </trkpt>
      <trkpt lat="-22.163082" lon="-45.448419">
        <ele>1058.050</ele>
        <time>2019-10-16T13:32:26Z</time>
      </trkpt>
      <trkpt lat="-22.163130" lon="-45.448406">
        <ele>1058.292</ele>
        <time>2019-10-16T13:32:29Z</time>
      </trkpt>
      <trkpt lat="-22.163185" lon="-45.448396">
        <ele>1058.466</ele>
        <time>2019-10-16T13:32:31Z</time>
      </trkpt>
      <trkpt lat="-22.163230" lon="-45.448386">
        <ele>1058.683</ele>
        <time>2019-10-16T13:32:33Z</time>
      </trkpt>
      <trkpt lat="-22.163265" lon="-45.448354">
        <ele>1058.773</ele>
        <time>2019-10-16T13:32:42Z</time>
      </trkpt>
      <trkpt lat="-22.163256" lon="-45.448183">
        <ele>1059.485</ele>
        <time>2019-10-16T13:33:30Z</time>
      </trkpt>
      <trkpt lat="-22.163253" lon="-45.448100">
        <ele>1059.813</ele>
        <time>2019-10-16T13:33:33Z</time>
      </trkpt>
      <trkpt lat="-22.163293" lon="-45.448064">
        <ele>1060.308</ele>
        <time>2019-10-16T13:33:35Z</time>
      </trkpt>
      <trkpt lat="-22.163346" lon="-45.448103">
        <ele>1060.571</ele>
        <time>2019-10-16T13:33:39Z</time>
      </trkpt>
      <trkpt lat="-22.163378" lon="-45.448145">
        <ele>1060.689</ele>
        <time>2019-10-16T13:33:41Z</time>
      </trkpt>
      <trkpt lat="-22.163418" lon="-45.448186">
        <ele>1060.832</ele>
        <time>2019-10-16T13:33:43Z</time>
      </trkpt>
      <trkpt lat="-22.163453" lon="-45.448219">
        <ele>1061.060</ele>
        <time>2019-10-16T13:33:44Z</time>
      </trkpt>
      <trkpt lat="-22.163484" lon="-45.448280">
        <ele>1060.890</ele>
        <time>2019-10-16T13:33:47Z</time>
      </trkpt>
      <trkpt lat="-22.163478" lon="-45.448337">
        <ele>1060.412</ele>
        <time>2019-10-16T13:33:51Z</time>
      </trkpt>
      <trkpt lat="-22.163479" lon="-45.448392">
        <ele>1060.536</ele>
        <time>2019-10-16T13:33:54Z</time>
      </trkpt>
      <trkpt lat="-22.163457" lon="-45.448348">
        <ele>1060.213</ele>
        <time>2019-10-16T13:39:00Z</time>
      </trkpt>
      <trkpt lat="-22.163464" lon="-45.448295">
        <ele>1060.554</ele>
        <time>2019-10-16T13:39:04Z</time>
      </trkpt>
      <trkpt lat="-22.163467" lon="-45.448238">
        <ele>1061.056</ele>
        <time>2019-10-16T13:39:07Z</time>
      </trkpt>
      <trkpt lat="-22.163441" lon="-45.448196">
        <ele>1061.011</ele>
        <time>2019-10-16T13:39:09Z</time>
      </trkpt>
      <trkpt lat="-22.163396" lon="-45.448166">
        <ele>1060.708</ele>
        <time>2019-10-16T13:39:12Z</time>
      </trkpt>
      <trkpt lat="-22.163359" lon="-45.448135">
        <ele>1060.569</ele>
        <time>2019-10-16T13:39:13Z</time>
      </trkpt>
      <trkpt lat="-22.163322" lon="-45.448102">
        <ele>1060.377</ele>
        <time>2019-10-16T13:39:14Z</time>
      </trkpt>
      <trkpt lat="-22.163279" lon="-45.448057">
        <ele>1060.290</ele>
        <time>2019-10-16T13:39:16Z</time>
      </trkpt>
      <trkpt lat="-22.163140" lon="-45.447845">
        <ele>1059.958</ele>
        <time>2019-10-16T13:39:21Z</time>
      </trkpt>
      <trkpt lat="-22.163140" lon="-45.447793">
        <ele>1060.168</ele>
        <time>2019-10-16T13:39:23Z</time>
      </trkpt>
      <trkpt lat="-22.163154" lon="-45.447738">
        <ele>1060.550</ele>
        <time>2019-10-16T13:39:25Z</time>
      </trkpt>
      <trkpt lat="-22.163165" lon="-45.447668">
        <ele>1060.954</ele>
        <time>2019-10-16T13:39:28Z</time>
      </trkpt>
      <trkpt lat="-22.163167" lon="-45.447593">
        <ele>1061.291</ele>
        <time>2019-10-16T13:39:30Z</time>
      </trkpt>
      <trkpt lat="-22.163173" lon="-45.447538">
        <ele>1061.539</ele>
        <time>2019-10-16T13:39:32Z</time>
      </trkpt>
      <trkpt lat="-22.163177" lon="-45.447489">
        <ele>1061.801</ele>
        <time>2019-10-16T13:39:34Z</time>
      </trkpt>
      <trkpt lat="-22.163177" lon="-45.447436">
        <ele>1061.821</ele>
        <time>2019-10-16T13:39:36Z</time>
      </trkpt>
      <trkpt lat="-22.163178" lon="-45.447387">
        <ele>1061.908</ele>
        <time>2019-10-16T13:39:39Z</time>
      </trkpt>
      <trkpt lat="-22.163170" lon="-45.447332">
        <ele>1061.977</ele>
        <time>2019-10-16T13:39:41Z</time>
      </trkpt>
      <trkpt lat="-22.163171" lon="-45.447275">
        <ele>1062.055</ele>
        <time>2019-10-16T13:39:43Z</time>
      </trkpt>
      <trkpt lat="-22.163172" lon="-45.447226">
        <ele>1062.168</ele>
        <time>2019-10-16T13:39:45Z</time>
      </trkpt>
      <trkpt lat="-22.163166" lon="-45.447167">
        <ele>1062.126</ele>
        <time>2019-10-16T13:39:47Z</time>
      </trkpt>
      <trkpt lat="-22.163171" lon="-45.447103">
        <ele>1062.286</ele>
        <time>2019-10-16T13:39:49Z</time>
      </trkpt>
      <trkpt lat="-22.163170" lon="-45.447046">
        <ele>1062.378</ele>
        <time>2019-10-16T13:39:51Z</time>
      </trkpt>
      <trkpt lat="-22.163167" lon="-45.446968">
        <ele>1062.482</ele>
        <time>2019-10-16T13:39:54Z</time>
      </trkpt>
      <trkpt lat="-22.163165" lon="-45.446909">
        <ele>1062.439</ele>
        <time>2019-10-16T13:39:56Z</time>
      </trkpt>
      <trkpt lat="-22.163166" lon="-45.446858">
        <ele>1062.559</ele>
        <time>2019-10-16T13:39:58Z</time>
      </trkpt>
      <trkpt lat="-22.163172" lon="-45.446787">
        <ele>1062.703</ele>
        <time>2019-10-16T13:40:01Z</time>
      </trkpt>
      <trkpt lat="-22.163169" lon="-45.446720">
        <ele>1062.823</ele>
        <time>2019-10-16T13:40:03Z</time>
      </trkpt>
      <trkpt lat="-22.163165" lon="-45.446651">
        <ele>1062.808</ele>
        <time>2019-10-16T13:40:05Z</time>
      </trkpt>
      <trkpt lat="-22.163159" lon="-45.446524">
        <ele>1062.889</ele>
        <time>2019-10-16T13:40:09Z</time>
      </trkpt>
      <trkpt lat="-22.163164" lon="-45.446469">
        <ele>1063.057</ele>
        <time>2019-10-16T13:40:11Z</time>
      </trkpt>
      <trkpt lat="-22.163165" lon="-45.446416">
        <ele>1063.070</ele>
        <time>2019-10-16T13:40:12Z</time>
      </trkpt>
      <trkpt lat="-22.163161" lon="-45.446359">
        <ele>1063.058</ele>
        <time>2019-10-16T13:40:14Z</time>
      </trkpt>
      <trkpt lat="-22.163164" lon="-45.446281">
        <ele>1063.138</ele>
        <time>2019-10-16T13:40:16Z</time>
      </trkpt>
      <trkpt lat="-22.163170" lon="-45.446199">
        <ele>1063.320</ele>
        <time>2019-10-16T13:40:18Z</time>
      </trkpt>
      <trkpt lat="-22.163172" lon="-45.446140">
        <ele>1063.434</ele>
        <time>2019-10-16T13:40:20Z</time>
      </trkpt>
      <trkpt lat="-22.163174" lon="-45.446086">
        <ele>1063.521</ele>
        <time>2019-10-16T13:40:22Z</time>
      </trkpt>
      <trkpt lat="-22.163178" lon="-45.446011">
        <ele>1063.668</ele>
        <time>2019-10-16T13:40:24Z</time>
      </trkpt>
      <trkpt lat="-22.163180" lon="-45.445903">
        <ele>1063.742</ele>
        <time>2019-10-16T13:40:27Z</time>
      </trkpt>
      <trkpt lat="-22.163180" lon="-45.445846">
        <ele>1063.826</ele>
        <time>2019-10-16T13:40:29Z</time>
      </trkpt>
      <trkpt lat="-22.163184" lon="-45.445773">
        <ele>1063.808</ele>
        <time>2019-10-16T13:40:31Z</time>
      </trkpt>
      <trkpt lat="-22.163192" lon="-45.445719">
        <ele>1063.980</ele>
        <time>2019-10-16T13:40:33Z</time>
      </trkpt>
      <trkpt lat="-22.163200" lon="-45.445664">
        <ele>1064.048</ele>
        <time>2019-10-16T13:40:35Z</time>
      </trkpt>
      <trkpt lat="-22.163207" lon="-45.445614">
        <ele>1064.171</ele>
        <time>2019-10-16T13:40:36Z</time>
      </trkpt>
      <trkpt lat="-22.163212" lon="-45.445551">
        <ele>1064.199</ele>
        <time>2019-10-16T13:40:38Z</time>
      </trkpt>
      <trkpt lat="-22.163212" lon="-45.445498">
        <ele>1064.119</ele>
        <time>2019-10-16T13:40:39Z</time>
      </trkpt>
      <trkpt lat="-22.163216" lon="-45.445442">
        <ele>1064.141</ele>
        <time>2019-10-16T13:40:41Z</time>
      </trkpt>
      <trkpt lat="-22.163231" lon="-45.445359">
        <ele>1064.245</ele>
        <time>2019-10-16T13:40:43Z</time>
      </trkpt>
      <trkpt lat="-22.163235" lon="-45.445296">
        <ele>1064.242</ele>
        <time>2019-10-16T13:40:45Z</time>
      </trkpt>
      <trkpt lat="-22.163237" lon="-45.445241">
        <ele>1064.211</ele>
        <time>2019-10-16T13:40:46Z</time>
      </trkpt>
      <trkpt lat="-22.163244" lon="-45.445121">
        <ele>1064.221</ele>
        <time>2019-10-16T13:40:50Z</time>
      </trkpt>
      <trkpt lat="-22.163244" lon="-45.445048">
        <ele>1064.203</ele>
        <time>2019-10-16T13:40:52Z</time>
      </trkpt>
      <trkpt lat="-22.163243" lon="-45.444988">
        <ele>1064.108</ele>
        <time>2019-10-16T13:40:54Z</time>
      </trkpt>
      <trkpt lat="-22.163253" lon="-45.444889">
        <ele>1064.245</ele>
        <time>2019-10-16T13:40:57Z</time>
      </trkpt>
      <trkpt lat="-22.163260" lon="-45.444822">
        <ele>1064.333</ele>
        <time>2019-10-16T13:40:59Z</time>
      </trkpt>
      <trkpt lat="-22.163263" lon="-45.444768">
        <ele>1064.366</ele>
        <time>2019-10-16T13:41:00Z</time>
      </trkpt>
      <trkpt lat="-22.163265" lon="-45.444717">
        <ele>1064.344</ele>
        <time>2019-10-16T13:41:02Z</time>
      </trkpt>
      <trkpt lat="-22.163271" lon="-45.444663">
        <ele>1064.324</ele>
        <time>2019-10-16T13:41:03Z</time>
      </trkpt>
      <trkpt lat="-22.163276" lon="-45.444612">
        <ele>1064.476</ele>
        <time>2019-10-16T13:41:05Z</time>
      </trkpt>
      <trkpt lat="-22.163282" lon="-45.444543">
        <ele>1064.460</ele>
        <time>2019-10-16T13:41:07Z</time>
      </trkpt>
      <trkpt lat="-22.163289" lon="-45.444484">
        <ele>1064.527</ele>
        <time>2019-10-16T13:41:09Z</time>
      </trkpt>
      <trkpt lat="-22.163290" lon="-45.444428">
        <ele>1064.542</ele>
        <time>2019-10-16T13:41:10Z</time>
      </trkpt>
      <trkpt lat="-22.163292" lon="-45.444366">
        <ele>1064.522</ele>
        <time>2019-10-16T13:41:12Z</time>
      </trkpt>
      <trkpt lat="-22.163297" lon="-45.444307">
        <ele>1064.614</ele>
        <time>2019-10-16T13:41:14Z</time>
      </trkpt>
      <trkpt lat="-22.163303" lon="-45.444258">
        <ele>1064.608</ele>
        <time>2019-10-16T13:41:16Z</time>
      </trkpt>
      <trkpt lat="-22.163312" lon="-45.444204">
        <ele>1064.738</ele>
        <time>2019-10-16T13:41:17Z</time>
      </trkpt>
      <trkpt lat="-22.163319" lon="-45.444144">
        <ele>1064.826</ele>
        <time>2019-10-16T13:41:19Z</time>
      </trkpt>
      <trkpt lat="-22.163325" lon="-45.444089">
        <ele>1064.969</ele>
        <time>2019-10-16T13:41:20Z</time>
      </trkpt>
      <trkpt lat="-22.163329" lon="-45.444023">
        <ele>1064.987</ele>
        <time>2019-10-16T13:41:23Z</time>
      </trkpt>
      <trkpt lat="-22.163330" lon="-45.443944">
        <ele>1065.097</ele>
        <time>2019-10-16T13:41:25Z</time>
      </trkpt>
      <trkpt lat="-22.163331" lon="-45.443890">
        <ele>1065.049</ele>
        <time>2019-10-16T13:41:27Z</time>
      </trkpt>
      <trkpt lat="-22.163342" lon="-45.443813">
        <ele>1065.283</ele>
        <time>2019-10-16T13:41:30Z</time>
      </trkpt>
      <trkpt lat="-22.163342" lon="-45.443716">
        <ele>1065.230</ele>
        <time>2019-10-16T13:41:33Z</time>
      </trkpt>
      <trkpt lat="-22.163355" lon="-45.443618">
        <ele>1065.573</ele>
        <time>2019-10-16T13:41:37Z</time>
      </trkpt>
      <trkpt lat="-22.163355" lon="-45.443538">
        <ele>1065.485</ele>
        <time>2019-10-16T13:41:39Z</time>
      </trkpt>
      <trkpt lat="-22.163359" lon="-45.443484">
        <ele>1065.513</ele>
        <time>2019-10-16T13:41:41Z</time>
      </trkpt>
      <trkpt lat="-22.163365" lon="-45.443420">
        <ele>1065.608</ele>
        <time>2019-10-16T13:41:43Z</time>
      </trkpt>
      <trkpt lat="-22.163364" lon="-45.443365">
        <ele>1065.611</ele>
        <time>2019-10-16T13:41:45Z</time>
      </trkpt>
      <trkpt lat="-22.163368" lon="-45.443316">
        <ele>1065.799</ele>
        <time>2019-10-16T13:41:47Z</time>
      </trkpt>
      <trkpt lat="-22.163367" lon="-45.443252">
        <ele>1066.092</ele>
        <time>2019-10-16T13:41:49Z</time>
      </trkpt>
      <trkpt lat="-22.163368" lon="-45.443197">
        <ele>1066.390</ele>
        <time>2019-10-16T13:41:51Z</time>
      </trkpt>
      <trkpt lat="-22.163363" lon="-45.443148">
        <ele>1066.450</ele>
        <time>2019-10-16T13:41:52Z</time>
      </trkpt>
      <trkpt lat="-22.163358" lon="-45.443084">
        <ele>1066.672</ele>
        <time>2019-10-16T13:41:55Z</time>
      </trkpt>
      <trkpt lat="-22.163362" lon="-45.442979">
        <ele>1067.196</ele>
        <time>2019-10-16T13:41:59Z</time>
      </trkpt>
      <trkpt lat="-22.163366" lon="-45.442920">
        <ele>1067.533</ele>
        <time>2019-10-16T13:42:00Z</time>
      </trkpt>
      <trkpt lat="-22.163367" lon="-45.442850">
        <ele>1067.877</ele>
        <time>2019-10-16T13:42:02Z</time>
      </trkpt>
      <trkpt lat="-22.163368" lon="-45.442790">
        <ele>1068.161</ele>
        <time>2019-10-16T13:42:05Z</time>
      </trkpt>
      <trkpt lat="-22.163369" lon="-45.442736">
        <ele>1068.327</ele>
        <time>2019-10-16T13:42:06Z</time>
      </trkpt>
      <trkpt lat="-22.163366" lon="-45.442666">
        <ele>1068.608</ele>
        <time>2019-10-16T13:42:08Z</time>
      </trkpt>
      <trkpt lat="-22.163367" lon="-45.442598">
        <ele>1068.941</ele>
        <time>2019-10-16T13:42:10Z</time>
      </trkpt>
      <trkpt lat="-22.163366" lon="-45.442541">
        <ele>1069.219</ele>
        <time>2019-10-16T13:42:12Z</time>
      </trkpt>
      <trkpt lat="-22.163366" lon="-45.442489">
        <ele>1069.342</ele>
        <time>2019-10-16T13:42:14Z</time>
      </trkpt>
      <trkpt lat="-22.163362" lon="-45.442440">
        <ele>1068.950</ele>
        <time>2019-10-16T13:42:15Z</time>
      </trkpt>
      <trkpt lat="-22.163358" lon="-45.442384">
        <ele>1068.470</ele>
        <time>2019-10-16T13:42:17Z</time>
      </trkpt>
      <trkpt lat="-22.163357" lon="-45.442304">
        <ele>1067.972</ele>
        <time>2019-10-16T13:42:20Z</time>
      </trkpt>
      <trkpt lat="-22.163360" lon="-45.442224">
        <ele>1067.346</ele>
        <time>2019-10-16T13:42:22Z</time>
      </trkpt>
      <trkpt lat="-22.163363" lon="-45.442164">
        <ele>1066.953</ele>
        <time>2019-10-16T13:42:24Z</time>
      </trkpt>
      <trkpt lat="-22.163371" lon="-45.442097">
        <ele>1066.582</ele>
        <time>2019-10-16T13:42:25Z</time>
      </trkpt>
      <trkpt lat="-22.163377" lon="-45.442038">
        <ele>1066.243</ele>
        <time>2019-10-16T13:42:27Z</time>
      </trkpt>
      <trkpt lat="-22.163396" lon="-45.441935">
        <ele>1065.717</ele>
        <time>2019-10-16T13:42:29Z</time>
      </trkpt>
      <trkpt lat="-22.163414" lon="-45.441882">
        <ele>1065.508</ele>
        <time>2019-10-16T13:42:31Z</time>
      </trkpt>
      <trkpt lat="-22.163442" lon="-45.441822">
        <ele>1065.472</ele>
        <time>2019-10-16T13:42:33Z</time>
      </trkpt>
      <trkpt lat="-22.164631" lon="-45.439556">
        <ele>1060.520</ele>
        <time>2019-10-16T13:43:20Z</time>
      </trkpt>
      <trkpt lat="-22.164610" lon="-45.439487">
        <ele>1060.733</ele>
        <time>2019-10-16T13:43:22Z</time>
      </trkpt>
      <trkpt lat="-22.164582" lon="-45.439445">
        <ele>1060.771</ele>
        <time>2019-10-16T13:43:24Z</time>
      </trkpt>
      <trkpt lat="-22.164549" lon="-45.439380">
        <ele>1060.711</ele>
        <time>2019-10-16T13:43:25Z</time>
      </trkpt>
      <trkpt lat="-22.164513" lon="-45.439308">
        <ele>1060.723</ele>
        <time>2019-10-16T13:43:27Z</time>
      </trkpt>
      <trkpt lat="-22.164486" lon="-45.439250">
        <ele>1060.747</ele>
        <time>2019-10-16T13:43:29Z</time>
      </trkpt>
      <trkpt lat="-22.164448" lon="-45.439177">
        <ele>1060.794</ele>
        <time>2019-10-16T13:43:32Z</time>
      </trkpt>
      <trkpt lat="-22.164418" lon="-45.439076">
        <ele>1060.538</ele>
        <time>2019-10-16T13:43:35Z</time>
      </trkpt>
      <trkpt lat="-22.164408" lon="-45.439018">
        <ele>1060.570</ele>
        <time>2019-10-16T13:43:36Z</time>
      </trkpt>
      <trkpt lat="-22.164409" lon="-45.438941">
        <ele>1060.617</ele>
        <time>2019-10-16T13:43:38Z</time>
      </trkpt>
      <trkpt lat="-22.164422" lon="-45.438882">
        <ele>1060.808</ele>
        <time>2019-10-16T13:43:40Z</time>
      </trkpt>
      <trkpt lat="-22.164444" lon="-45.438814">
        <ele>1061.177</ele>
        <time>2019-10-16T13:43:43Z</time>
      </trkpt>
      <trkpt lat="-22.164468" lon="-45.438767">
        <ele>1061.485</ele>
        <time>2019-10-16T13:43:45Z</time>
      </trkpt>
      <trkpt lat="-22.164496" lon="-45.438700">
        <ele>1061.828</ele>
        <time>2019-10-16T13:43:49Z</time>
      </trkpt>
      <trkpt lat="-22.164528" lon="-45.438643">
        <ele>1062.376</ele>
        <time>2019-10-16T13:43:51Z</time>
      </trkpt>
      <trkpt lat="-22.164557" lon="-45.438578">
        <ele>1062.786</ele>
        <time>2019-10-16T13:43:54Z</time>
      </trkpt>
      <trkpt lat="-22.164572" lon="-45.438530">
        <ele>1063.068</ele>
        <time>2019-10-16T13:43:56Z</time>
      </trkpt>
      <trkpt lat="-22.164591" lon="-45.438483">
        <ele>1063.372</ele>
        <time>2019-10-16T13:43:59Z</time>
      </trkpt>
      <trkpt lat="-22.164621" lon="-45.438441">
        <ele>1063.829</ele>
        <time>2019-10-16T13:44:00Z</time>
      </trkpt>
      <trkpt lat="-22.164655" lon="-45.438383">
        <ele>1064.372</ele>
        <time>2019-10-16T13:44:04Z</time>
      </trkpt>
      <trkpt lat="-22.164679" lon="-45.438313">
        <ele>1064.813</ele>
        <time>2019-10-16T13:44:06Z</time>
      </trkpt>
      <trkpt lat="-22.164701" lon="-45.438259">
        <ele>1065.014</ele>
        <time>2019-10-16T13:44:08Z</time>
      </trkpt>
      <trkpt lat="-22.164716" lon="-45.438204">
        <ele>1065.208</ele>
        <time>2019-10-16T13:44:11Z</time>
      </trkpt>
      <trkpt lat="-22.164736" lon="-45.438149">
        <ele>1065.461</ele>
        <time>2019-10-16T13:44:12Z</time>
      </trkpt>
      <trkpt lat="-22.164749" lon="-45.438093">
        <ele>1065.669</ele>
        <time>2019-10-16T13:44:15Z</time>
      </trkpt>
      <trkpt lat="-22.164767" lon="-45.437995">
        <ele>1065.792</ele>
        <time>2019-10-16T13:44:18Z</time>
      </trkpt>
      <trkpt lat="-22.164779" lon="-45.437937">
        <ele>1065.930</ele>
        <time>2019-10-16T13:44:20Z</time>
      </trkpt>
      <trkpt lat="-22.164795" lon="-45.437873">
        <ele>1066.010</ele>
        <time>2019-10-16T13:44:23Z</time>
      </trkpt>
      <trkpt lat="-22.164805" lon="-45.437821">
        <ele>1066.182</ele>
        <time>2019-10-16T13:44:24Z</time>
      </trkpt>
      <trkpt lat="-22.164818" lon="-45.437759">
        <ele>1066.276</ele>
        <time>2019-10-16T13:44:26Z</time>
      </trkpt>
      <trkpt lat="-22.164826" lon="-45.437700">
        <ele>1066.333</ele>
        <time>2019-10-16T13:44:29Z</time>
      </trkpt>
      <trkpt lat="-22.164839" lon="-45.437635">
        <ele>1066.433</ele>
        <time>2019-10-16T13:44:31Z</time>
      </trkpt>
      <trkpt lat="-22.164850" lon="-45.437562">
        <ele>1066.423</ele>
        <time>2019-10-16T13:44:34Z</time>
      </trkpt>
      <trkpt lat="-22.164873" lon="-45.437477">
        <ele>1066.615</ele>
        <time>2019-10-16T13:44:36Z</time>
      </trkpt>
      <trkpt lat="-22.164886" lon="-45.437424">
        <ele>1066.808</ele>
        <time>2019-10-16T13:44:38Z</time>
      </trkpt>
      <trkpt lat="-22.164894" lon="-45.437376">
        <ele>1066.967</ele>
        <time>2019-10-16T13:44:40Z</time>
      </trkpt>
      <trkpt lat="-22.164903" lon="-45.437311">
        <ele>1067.025</ele>
        <time>2019-10-16T13:44:42Z</time>
      </trkpt>
      <trkpt lat="-22.164905" lon="-45.437255">
        <ele>1067.168</ele>
        <time>2019-10-16T13:44:43Z</time>
      </trkpt>
      <trkpt lat="-22.164912" lon="-45.437197">
        <ele>1067.256</ele>
        <time>2019-10-16T13:44:45Z</time>
      </trkpt>
      <trkpt lat="-22.164919" lon="-45.437134">
        <ele>1067.346</ele>
        <time>2019-10-16T13:44:47Z</time>
      </trkpt>
      <trkpt lat="-22.164927" lon="-45.437072">
        <ele>1067.328</ele>
        <time>2019-10-16T13:44:49Z</time>
      </trkpt>
      <trkpt lat="-22.164933" lon="-45.437020">
        <ele>1067.482</ele>
        <time>2019-10-16T13:44:51Z</time>
      </trkpt>
      <trkpt lat="-22.164942" lon="-45.436954">
        <ele>1067.569</ele>
        <time>2019-10-16T13:44:53Z</time>
      </trkpt>
      <trkpt lat="-22.164944" lon="-45.436892">
        <ele>1067.519</ele>
        <time>2019-10-16T13:44:55Z</time>
      </trkpt>
      <trkpt lat="-22.164951" lon="-45.436836">
        <ele>1067.609</ele>
        <time>2019-10-16T13:44:57Z</time>
      </trkpt>
      <trkpt lat="-22.164959" lon="-45.436775">
        <ele>1067.719</ele>
        <time>2019-10-16T13:44:59Z</time>
      </trkpt>
      <trkpt lat="-22.164966" lon="-45.436681">
        <ele>1067.808</ele>
        <time>2019-10-16T13:45:02Z</time>
      </trkpt>
      <trkpt lat="-22.164974" lon="-45.436615">
        <ele>1067.795</ele>
        <time>2019-10-16T13:45:05Z</time>
      </trkpt>
      <trkpt lat="-22.164978" lon="-45.436565">
        <ele>1067.693</ele>
        <time>2019-10-16T13:45:07Z</time>
      </trkpt>
      <trkpt lat="-22.164985" lon="-45.436482">
        <ele>1067.516</ele>
        <time>2019-10-16T13:45:11Z</time>
      </trkpt>
      <trkpt lat="-22.164990" lon="-45.436418">
        <ele>1067.394</ele>
        <time>2019-10-16T13:45:13Z</time>
      </trkpt>
      <trkpt lat="-22.164993" lon="-45.436366">
        <ele>1067.214</ele>
        <time>2019-10-16T13:45:16Z</time>
      </trkpt>
      <trkpt lat="-22.164992" lon="-45.436310">
        <ele>1067.186</ele>
        <time>2019-10-16T13:45:18Z</time>
      </trkpt>
      <trkpt lat="-22.164998" lon="-45.436232">
        <ele>1066.960</ele>
        <time>2019-10-16T13:45:20Z</time>
      </trkpt>
      <trkpt lat="-22.165001" lon="-45.436180">
        <ele>1066.877</ele>
        <time>2019-10-16T13:45:22Z</time>
      </trkpt>
      <trkpt lat="-22.165002" lon="-45.436114">
        <ele>1066.736</ele>
        <time>2019-10-16T13:45:24Z</time>
      </trkpt>
      <trkpt lat="-22.165007" lon="-45.436062">
        <ele>1066.617</ele>
        <time>2019-10-16T13:45:26Z</time>
      </trkpt>
      <trkpt lat="-22.165016" lon="-45.436008">
        <ele>1066.618</ele>
        <time>2019-10-16T13:45:28Z</time>
      </trkpt>
      <trkpt lat="-22.165026" lon="-45.435954">
        <ele>1066.508</ele>
        <time>2019-10-16T13:45:29Z</time>
      </trkpt>
      <trkpt lat="-22.165042" lon="-45.435872">
        <ele>1066.447</ele>
        <time>2019-10-16T13:45:31Z</time>
      </trkpt>
      <trkpt lat="-22.164510" lon="-45.434057">
        <ele>1064.025</ele>
        <time>2019-10-16T13:46:04Z</time>
      </trkpt>
      <trkpt lat="-22.164466" lon="-45.434005">
        <ele>1064.428</ele>
        <time>2019-10-16T13:46:06Z</time>
      </trkpt>
      <trkpt lat="-22.164434" lon="-45.433967">
        <ele>1064.736</ele>
        <time>2019-10-16T13:46:08Z</time>
      </trkpt>
      <trkpt lat="-22.164391" lon="-45.433923">
        <ele>1065.026</ele>
        <time>2019-10-16T13:46:10Z</time>
      </trkpt>
      <trkpt lat="-22.164352" lon="-45.433879">
        <ele>1065.488</ele>
        <time>2019-10-16T13:46:12Z</time>
      </trkpt>
      <trkpt lat="-22.164314" lon="-45.433838">
        <ele>1065.612</ele>
        <time>2019-10-16T13:46:14Z</time>
      </trkpt>
      <trkpt lat="-22.164277" lon="-45.433804">
        <ele>1065.979</ele>
        <time>2019-10-16T13:46:17Z</time>
      </trkpt>
      <trkpt lat="-22.164236" lon="-45.433765">
        <ele>1066.157</ele>
        <time>2019-10-16T13:46:18Z</time>
      </trkpt>
      <trkpt lat="-22.164188" lon="-45.433727">
        <ele>1066.300</ele>
        <time>2019-10-16T13:46:21Z</time>
      </trkpt>
      <trkpt lat="-22.164147" lon="-45.433683">
        <ele>1066.620</ele>
        <time>2019-10-16T13:46:24Z</time>
      </trkpt>
      <trkpt lat="-22.164102" lon="-45.433647">
        <ele>1066.708</ele>
        <time>2019-10-16T13:46:27Z</time>
      </trkpt>
      <trkpt lat="-22.164062" lon="-45.433622">
        <ele>1066.889</ele>
        <time>2019-10-16T13:46:29Z</time>
      </trkpt>
      <trkpt lat="-22.163990" lon="-45.433580">
        <ele>1066.957</ele>
        <time>2019-10-16T13:46:34Z</time>
      </trkpt>
      <trkpt lat="-22.163942" lon="-45.433550">
        <ele>1067.080</ele>
        <time>2019-10-16T13:46:36Z</time>
      </trkpt>
      <trkpt lat="-22.163867" lon="-45.433503">
        <ele>1067.188</ele>
        <time>2019-10-16T13:46:41Z</time>
      </trkpt>
      <trkpt lat="-22.163803" lon="-45.433462">
        <ele>1067.218</ele>
        <time>2019-10-16T13:46:43Z</time>
      </trkpt>
      <trkpt lat="-22.163730" lon="-45.433421">
        <ele>1067.290</ele>
        <time>2019-10-16T13:46:47Z</time>
      </trkpt>
      <trkpt lat="-22.163686" lon="-45.433398">
        <ele>1067.234</ele>
        <time>2019-10-16T13:46:50Z</time>
      </trkpt>
      <trkpt lat="-22.163638" lon="-45.433368">
        <ele>1067.231</ele>
        <time>2019-10-16T13:46:52Z</time>
      </trkpt>
      <trkpt lat="-22.163587" lon="-45.433339">
        <ele>1067.225</ele>
        <time>2019-10-16T13:46:54Z</time>
      </trkpt>
      <trkpt lat="-22.163526" lon="-45.433306">
        <ele>1067.526</ele>
        <time>2019-10-16T13:46:58Z</time>
      </trkpt>
      <trkpt lat="-22.163478" lon="-45.433275">
        <ele>1067.808</ele>
        <time>2019-10-16T13:46:59Z</time>
      </trkpt>
      <trkpt lat="-22.163429" lon="-45.433252">
        <ele>1068.108</ele>
        <time>2019-10-16T13:47:02Z</time>
      </trkpt>
      <trkpt lat="-22.163368" lon="-45.433211">
        <ele>1068.626</ele>
        <time>2019-10-16T13:47:04Z</time>
      </trkpt>
      <trkpt lat="-22.163318" lon="-45.433180">
        <ele>1069.144</ele>
        <time>2019-10-16T13:47:06Z</time>
      </trkpt>
      <trkpt lat="-22.163259" lon="-45.433144">
        <ele>1069.517</ele>
        <time>2019-10-16T13:47:09Z</time>
      </trkpt>
      <trkpt lat="-22.163213" lon="-45.433115">
        <ele>1069.745</ele>
        <time>2019-10-16T13:47:11Z</time>
      </trkpt>
      <trkpt lat="-22.163132" lon="-45.433067">
        <ele>1070.175</ele>
        <time>2019-10-16T13:47:15Z</time>
      </trkpt>
      <trkpt lat="-22.163076" lon="-45.433039">
        <ele>1070.267</ele>
        <time>2019-10-16T13:47:17Z</time>
      </trkpt>
      <trkpt lat="-22.163025" lon="-45.433006">
        <ele>1070.341</ele>
        <time>2019-10-16T13:47:20Z</time>
      </trkpt>
      <trkpt lat="-22.162959" lon="-45.432958">
        <ele>1070.548</ele>
        <time>2019-10-16T13:47:23Z</time>
      </trkpt>
      <trkpt lat="-22.162914" lon="-45.432923">
        <ele>1070.696</ele>
        <time>2019-10-16T13:47:26Z</time>
      </trkpt>
      <trkpt lat="-22.162869" lon="-45.432896">
        <ele>1070.631</ele>
        <time>2019-10-16T13:47:28Z</time>
      </trkpt>
      <trkpt lat="-22.162818" lon="-45.432854">
        <ele>1070.624</ele>
        <time>2019-10-16T13:47:31Z</time>
      </trkpt>
      <trkpt lat="-22.162765" lon="-45.432808">
        <ele>1070.608</ele>
        <time>2019-10-16T13:47:34Z</time>
      </trkpt>
      <trkpt lat="-22.162706" lon="-45.432762">
        <ele>1070.523</ele>
        <time>2019-10-16T13:47:37Z</time>
      </trkpt>
      <trkpt lat="-22.162662" lon="-45.432726">
        <ele>1070.361</ele>
        <time>2019-10-16T13:47:38Z</time>
      </trkpt>
      <trkpt lat="-22.162000" lon="-45.432205">
        <ele>1071.034</ele>
        <time>2019-10-16T13:47:58Z</time>
      </trkpt>
      <trkpt lat="-22.161954" lon="-45.432173">
        <ele>1071.372</ele>
        <time>2019-10-16T13:48:00Z</time>
      </trkpt>
      <trkpt lat="-22.161881" lon="-45.432134">
        <ele>1071.792</ele>
        <time>2019-10-16T13:48:02Z</time>
      </trkpt>
      <trkpt lat="-22.161801" lon="-45.432083">
        <ele>1072.354</ele>
        <time>2019-10-16T13:48:06Z</time>
      </trkpt>
      <trkpt lat="-22.161747" lon="-45.432052">
        <ele>1072.888</ele>
        <time>2019-10-16T13:48:07Z</time>
      </trkpt>
      <trkpt lat="-22.161661" lon="-45.431999">
        <ele>1073.615</ele>
        <time>2019-10-16T13:48:11Z</time>
      </trkpt>
      <trkpt lat="-22.161596" lon="-45.431962">
        <ele>1074.221</ele>
        <time>2019-10-16T13:48:15Z</time>
      </trkpt>
      <trkpt lat="-22.161544" lon="-45.431933">
        <ele>1074.641</ele>
        <time>2019-10-16T13:48:18Z</time>
      </trkpt>
      <trkpt lat="-22.161481" lon="-45.431908">
        <ele>1075.005</ele>
        <time>2019-10-16T13:48:21Z</time>
      </trkpt>
      <trkpt lat="-22.161432" lon="-45.431898">
        <ele>1075.208</ele>
        <time>2019-10-16T13:48:23Z</time>
      </trkpt>
      <trkpt lat="-22.161377" lon="-45.431888">
        <ele>1075.436</ele>
        <time>2019-10-16T13:48:26Z</time>
      </trkpt>
      <trkpt lat="-22.161329" lon="-45.431882">
        <ele>1075.554</ele>
        <time>2019-10-16T13:48:28Z</time>
      </trkpt>
      <trkpt lat="-22.161284" lon="-45.431872">
        <ele>1075.657</ele>
        <time>2019-10-16T13:48:30Z</time>
      </trkpt>
      <trkpt lat="-22.161229" lon="-45.431865">
        <ele>1075.855</ele>
        <time>2019-10-16T13:48:33Z</time>
      </trkpt>
      <trkpt lat="-22.161180" lon="-45.431860">
        <ele>1075.965</ele>
        <time>2019-10-16T13:48:35Z</time>
      </trkpt>
      <trkpt lat="-22.161130" lon="-45.431851">
        <ele>1076.017</ele>
        <time>2019-10-16T13:48:38Z</time>
      </trkpt>
      <trkpt lat="-22.161071" lon="-45.431847">
        <ele>1076.151</ele>
        <time>2019-10-16T13:48:41Z</time>
      </trkpt>
      <trkpt lat="-22.161020" lon="-45.431838">
        <ele>1076.258</ele>
        <time>2019-10-16T13:48:44Z</time>
      </trkpt>
      <trkpt lat="-22.160964" lon="-45.431837">
        <ele>1076.332</ele>
        <time>2019-10-16T13:48:47Z</time>
      </trkpt>
      <trkpt lat="-22.160906" lon="-45.431830">
        <ele>1076.492</ele>
        <time>2019-10-16T13:48:51Z</time>
      </trkpt>
      <trkpt lat="-22.160857" lon="-45.431817">
        <ele>1076.511</ele>
        <time>2019-10-16T13:48:54Z</time>
      </trkpt>
      <trkpt lat="-22.160798" lon="-45.431797">
        <ele>1076.508</ele>
        <time>2019-10-16T13:48:59Z</time>
      </trkpt>
      <trkpt lat="-22.160753" lon="-45.431790">
        <ele>1076.247</ele>
        <time>2019-10-16T13:49:02Z</time>
      </trkpt>
      <trkpt lat="-22.160701" lon="-45.431771">
        <ele>1075.965</ele>
        <time>2019-10-16T13:49:06Z</time>
      </trkpt>
      <trkpt lat="-22.160631" lon="-45.431745">
        <ele>1075.668</ele>
        <time>2019-10-16T13:49:10Z</time>
      </trkpt>
      <trkpt lat="-22.160591" lon="-45.431718">
        <ele>1075.526</ele>
        <time>2019-10-16T13:49:14Z</time>
      </trkpt>
      <trkpt lat="-22.160550" lon="-45.431684">
        <ele>1075.556</ele>
        <time>2019-10-16T13:49:16Z</time>
      </trkpt>
      <trkpt lat="-22.160503" lon="-45.431636">
        <ele>1076.118</ele>
        <time>2019-10-16T13:49:19Z</time>
      </trkpt>
      <trkpt lat="-22.160459" lon="-45.431592">
        <ele>1077.042</ele>
        <time>2019-10-16T13:49:22Z</time>
      </trkpt>
      <trkpt lat="-22.160419" lon="-45.431548">
        <ele>1077.919</ele>
        <time>2019-10-16T13:49:25Z</time>
      </trkpt>
      <trkpt lat="-22.160385" lon="-45.431511">
        <ele>1078.766</ele>
        <time>2019-10-16T13:49:26Z</time>
      </trkpt>
      <trkpt lat="-22.160351" lon="-45.431475">
        <ele>1079.329</ele>
        <time>2019-10-16T13:49:28Z</time>
      </trkpt>
      <trkpt lat="-22.160301" lon="-45.431437">
        <ele>1079.821</ele>
        <time>2019-10-16T13:49:31Z</time>
      </trkpt>
      <trkpt lat="-22.160262" lon="-45.431399">
        <ele>1080.408</ele>
        <time>2019-10-16T13:49:33Z</time>
      </trkpt>
      <trkpt lat="-22.160218" lon="-45.431362">
        <ele>1080.950</ele>
        <time>2019-10-16T13:49:35Z</time>
      </trkpt>
      <trkpt lat="-22.160174" lon="-45.431331">
        <ele>1081.228</ele>
        <time>2019-10-16T13:49:38Z</time>
      </trkpt>
      <trkpt lat="-22.160134" lon="-45.431294">
        <ele>1081.621</ele>
        <time>2019-10-16T13:49:40Z</time>
      </trkpt>
      <trkpt lat="-22.160060" lon="-45.431235">
        <ele>1082.249</ele>
        <time>2019-10-16T13:49:43Z</time>
      </trkpt>
      <trkpt lat="-22.160021" lon="-45.431191">
        <ele>1082.779</ele>
        <time>2019-10-16T13:49:46Z</time>
      </trkpt>
      <trkpt lat="-22.159981" lon="-45.431160">
        <ele>1082.971</ele>
        <time>2019-10-16T13:49:48Z</time>
      </trkpt>
      <trkpt lat="-22.159938" lon="-45.431122">
        <ele>1083.325</ele>
        <time>2019-10-16T13:49:51Z</time>
      </trkpt>
      <trkpt lat="-22.159897" lon="-45.431083">
        <ele>1083.712</ele>
        <time>2019-10-16T13:49:52Z</time>
      </trkpt>
      <trkpt lat="-22.159731" lon="-45.430918">
        <ele>1085.092</ele>
        <time>2019-10-16T13:49:58Z</time>
      </trkpt>
      <trkpt lat="-22.159669" lon="-45.430878">
        <ele>1084.973</ele>
        <time>2019-10-16T13:49:59Z</time>
      </trkpt>
      <trkpt lat="-22.159616" lon="-45.430859">
        <ele>1084.520</ele>
        <time>2019-10-16T13:50:01Z</time>
      </trkpt>
      <trkpt lat="-22.159571" lon="-45.430828">
        <ele>1084.408</ele>
        <time>2019-10-16T13:50:02Z</time>
      </trkpt>
      <trkpt lat="-22.159476" lon="-45.430782">
        <ele>1083.933</ele>
        <time>2019-10-16T13:50:05Z</time>
      </trkpt>
      <trkpt lat="-22.159415" lon="-45.430770">
        <ele>1083.281</ele>
        <time>2019-10-16T13:50:06Z</time>
      </trkpt>
      <trkpt lat="-22.159363" lon="-45.430761">
        <ele>1082.534</ele>
        <time>2019-10-16T13:50:08Z</time>
      </trkpt>
      <trkpt lat="-22.159315" lon="-45.430754">
        <ele>1081.932</ele>
        <time>2019-10-16T13:50:09Z</time>
      </trkpt>
      <trkpt lat="-22.159236" lon="-45.430738">
        <ele>1081.092</ele>
        <time>2019-10-16T13:50:12Z</time>
      </trkpt>
      <trkpt lat="-22.159169" lon="-45.430727">
        <ele>1080.174</ele>
        <time>2019-10-16T13:50:14Z</time>
      </trkpt>
      <trkpt lat="-22.159117" lon="-45.430720">
        <ele>1080.278</ele>
        <time>2019-10-16T13:50:16Z</time>
      </trkpt>
      <trkpt lat="-22.159054" lon="-45.430716">
        <ele>1080.345</ele>
        <time>2019-10-16T13:50:18Z</time>
      </trkpt>
      <trkpt lat="-22.159003" lon="-45.430709">
        <ele>1080.451</ele>
        <time>2019-10-16T13:50:20Z</time>
      </trkpt>
      <trkpt lat="-22.158956" lon="-45.430705">
        <ele>1080.501</ele>
        <time>2019-10-16T13:50:22Z</time>
      </trkpt>
      <trkpt lat="-22.158896" lon="-45.430703">
        <ele>1080.611</ele>
        <time>2019-10-16T13:50:24Z</time>
      </trkpt>
      <trkpt lat="-22.158845" lon="-45.430700">
        <ele>1080.608</ele>
        <time>2019-10-16T13:50:26Z</time>
      </trkpt>
      <trkpt lat="-22.158795" lon="-45.430697">
        <ele>1080.759</ele>
        <time>2019-10-16T13:50:29Z</time>
      </trkpt>
      <trkpt lat="-22.158748" lon="-45.430692">
        <ele>1080.847</ele>
        <time>2019-10-16T13:50:31Z</time>
      </trkpt>
      <trkpt lat="-22.158696" lon="-45.430691">
        <ele>1080.830</ele>
        <time>2019-10-16T13:50:33Z</time>
      </trkpt>
      <trkpt lat="-22.158651" lon="-45.430683">
        <ele>1080.948</ele>
        <time>2019-10-16T13:50:35Z</time>
      </trkpt>
      <trkpt lat="-22.158593" lon="-45.430680">
        <ele>1081.078</ele>
        <time>2019-10-16T13:50:38Z</time>
      </trkpt>
      <trkpt lat="-22.158534" lon="-45.430679">
        <ele>1081.010</ele>
        <time>2019-10-16T13:50:41Z</time>
      </trkpt>
      <trkpt lat="-22.158490" lon="-45.430666">
        <ele>1081.224</ele>
        <time>2019-10-16T13:50:43Z</time>
      </trkpt>
      <trkpt lat="-22.158442" lon="-45.430654">
        <ele>1081.491</ele>
        <time>2019-10-16T13:50:46Z</time>
      </trkpt>
      <trkpt lat="-22.158371" lon="-45.430637">
        <ele>1081.639</ele>
        <time>2019-10-16T13:50:50Z</time>
      </trkpt>
      <trkpt lat="-22.158263" lon="-45.430588">
        <ele>1081.801</ele>
        <time>2019-10-16T13:50:54Z</time>
      </trkpt>
      <trkpt lat="-22.158211" lon="-45.430564">
        <ele>1081.821</ele>
        <time>2019-10-16T13:50:56Z</time>
      </trkpt>
      <trkpt lat="-22.158167" lon="-45.430544">
        <ele>1081.808</ele>
        <time>2019-10-16T13:50:58Z</time>
      </trkpt>
      <trkpt lat="-22.158126" lon="-45.430521">
        <ele>1081.897</ele>
        <time>2019-10-16T13:50:59Z</time>
      </trkpt>
      <trkpt lat="-22.158080" lon="-45.430502">
        <ele>1081.745</ele>
        <time>2019-10-16T13:51:01Z</time>
      </trkpt>
      <trkpt lat="-22.158039" lon="-45.430479">
        <ele>1081.888</ele>
        <time>2019-10-16T13:51:03Z</time>
      </trkpt>
      <trkpt lat="-22.157993" lon="-45.430456">
        <ele>1081.846</ele>
        <time>2019-10-16T13:51:05Z</time>
      </trkpt>
      <trkpt lat="-22.157927" lon="-45.430425">
        <ele>1081.746</ele>
        <time>2019-10-16T13:51:07Z</time>
      </trkpt>
      <trkpt lat="-22.157860" lon="-45.430390">
        <ele>1081.778</ele>
        <time>2019-10-16T13:51:10Z</time>
      </trkpt>
      <trkpt lat="-22.157807" lon="-45.430367">
        <ele>1081.672</ele>
        <time>2019-10-16T13:51:12Z</time>
      </trkpt>
      <trkpt lat="-22.157751" lon="-45.430335">
        <ele>1081.759</ele>
        <time>2019-10-16T13:51:14Z</time>
      </trkpt>
      <trkpt lat="-22.157712" lon="-45.430304">
        <ele>1081.819</ele>
        <time>2019-10-16T13:51:16Z</time>
      </trkpt>
      <trkpt lat="-22.157668" lon="-45.430271">
        <ele>1081.909</ele>
        <time>2019-10-16T13:51:18Z</time>
      </trkpt>
      <trkpt lat="-22.157630" lon="-45.430239">
        <ele>1082.019</ele>
        <time>2019-10-16T13:51:19Z</time>
      </trkpt>
      <trkpt lat="-22.157595" lon="-45.430207">
        <ele>1082.208</ele>
        <time>2019-10-16T13:51:21Z</time>
      </trkpt>
      <trkpt lat="-22.157559" lon="-45.430164">
        <ele>1082.485</ele>
        <time>2019-10-16T13:51:23Z</time>
      </trkpt>
      <trkpt lat="-22.157507" lon="-45.430111">
        <ele>1082.723</ele>
        <time>2019-10-16T13:51:25Z</time>
      </trkpt>
      <trkpt lat="-22.156473" lon="-45.428589">
        <ele>1082.936</ele>
        <time>2019-10-16T13:51:57Z</time>
      </trkpt>
      <trkpt lat="-22.156441" lon="-45.428548">
        <ele>1083.564</ele>
        <time>2019-10-16T13:52:00Z</time>
      </trkpt>
      <trkpt lat="-22.156402" lon="-45.428495">
        <ele>1084.434</ele>
        <time>2019-10-16T13:52:03Z</time>
      </trkpt>
      <trkpt lat="-22.156380" lon="-45.428438">
        <ele>1085.056</ele>
        <time>2019-10-16T13:52:06Z</time>
      </trkpt>
      <trkpt lat="-22.156361" lon="-45.428384">
        <ele>1085.530</ele>
        <time>2019-10-16T13:52:10Z</time>
      </trkpt>
      <trkpt lat="-22.156337" lon="-45.428342">
        <ele>1086.167</ele>
        <time>2019-10-16T13:52:13Z</time>
      </trkpt>
      <trkpt lat="-22.156313" lon="-45.428285">
        <ele>1086.595</ele>
        <time>2019-10-16T13:52:16Z</time>
      </trkpt>
      <trkpt lat="-22.156287" lon="-45.428227">
        <ele>1086.849</ele>
        <time>2019-10-16T13:52:20Z</time>
      </trkpt>
      <trkpt lat="-22.156257" lon="-45.428176">
        <ele>1087.223</ele>
        <time>2019-10-16T13:52:24Z</time>
      </trkpt>
      <trkpt lat="-22.156234" lon="-45.428119">
        <ele>1087.508</ele>
        <time>2019-10-16T13:52:28Z</time>
      </trkpt>
      <trkpt lat="-22.156214" lon="-45.428074">
        <ele>1087.753</ele>
        <time>2019-10-16T13:52:31Z</time>
      </trkpt>
      <trkpt lat="-22.156194" lon="-45.428020">
        <ele>1087.871</ele>
        <time>2019-10-16T13:52:35Z</time>
      </trkpt>
      <trkpt lat="-22.156167" lon="-45.427966">
        <ele>1088.154</ele>
        <time>2019-10-16T13:52:39Z</time>
      </trkpt>
      <trkpt lat="-22.156140" lon="-45.427915">
        <ele>1088.392</ele>
        <time>2019-10-16T13:52:42Z</time>
      </trkpt>
      <trkpt lat="-22.156122" lon="-45.427866">
        <ele>1088.442</ele>
        <time>2019-10-16T13:52:46Z</time>
      </trkpt>
      <trkpt lat="-22.156093" lon="-45.427820">
        <ele>1088.614</ele>
        <time>2019-10-16T13:52:49Z</time>
      </trkpt>
      <trkpt lat="-22.156055" lon="-45.427768">
        <ele>1088.958</ele>
        <time>2019-10-16T13:52:53Z</time>
      </trkpt>
      <trkpt lat="-22.156026" lon="-45.427727">
        <ele>1089.135</ele>
        <time>2019-10-16T13:52:57Z</time>
      </trkpt>
      <trkpt lat="-22.155989" lon="-45.427677">
        <ele>1089.388</ele>
        <time>2019-10-16T13:53:01Z</time>
      </trkpt>
      <trkpt lat="-22.155939" lon="-45.427625">
        <ele>1089.624</ele>
        <time>2019-10-16T13:53:05Z</time>
      </trkpt>
      <trkpt lat="-22.155898" lon="-45.427573">
        <ele>1089.826</ele>
        <time>2019-10-16T13:53:09Z</time>
      </trkpt>
      <trkpt lat="-22.155867" lon="-45.427533">
        <ele>1089.908</ele>
        <time>2019-10-16T13:53:12Z</time>
      </trkpt>
      <trkpt lat="-22.155825" lon="-45.427492">
        <ele>1090.082</ele>
        <time>2019-10-16T13:53:16Z</time>
      </trkpt>
      <trkpt lat="-22.155789" lon="-45.427453">
        <ele>1090.380</ele>
        <time>2019-10-16T13:53:18Z</time>
      </trkpt>
      <trkpt lat="-22.155756" lon="-45.427420">
        <ele>1090.443</ele>
        <time>2019-10-16T13:53:20Z</time>
      </trkpt>
      <trkpt lat="-22.155713" lon="-45.427379">
        <ele>1090.691</ele>
        <time>2019-10-16T13:53:23Z</time>
      </trkpt>
      <trkpt lat="-22.155666" lon="-45.427337">
        <ele>1090.791</ele>
        <time>2019-10-16T13:53:26Z</time>
      </trkpt>
      <trkpt lat="-22.155616" lon="-45.427290">
        <ele>1090.913</ele>
        <time>2019-10-16T13:53:30Z</time>
      </trkpt>
      <trkpt lat="-22.155575" lon="-45.427249">
        <ele>1090.957</ele>
        <time>2019-10-16T13:53:33Z</time>
      </trkpt>
      <trkpt lat="-22.155535" lon="-45.427223">
        <ele>1090.914</ele>
        <time>2019-10-16T13:53:36Z</time>
      </trkpt>
      <trkpt lat="-22.155455" lon="-45.427177">
        <ele>1090.813</ele>
        <time>2019-10-16T13:53:40Z</time>
      </trkpt>
      <trkpt lat="-22.155399" lon="-45.427141">
        <ele>1090.743</ele>
        <time>2019-10-16T13:53:42Z</time>
      </trkpt>
      <trkpt lat="-22.155350" lon="-45.427114">
        <ele>1090.607</ele>
        <time>2019-10-16T13:53:44Z</time>
      </trkpt>
      <trkpt lat="-22.155292" lon="-45.427080">
        <ele>1090.408</ele>
        <time>2019-10-16T13:53:45Z</time>
      </trkpt>
      <trkpt lat="-22.152759" lon="-45.424729">
        <ele>1081.045</ele>
        <time>2019-10-16T13:54:35Z</time>
      </trkpt>
      <trkpt lat="-22.152692" lon="-45.424699">
        <ele>1080.753</ele>
        <time>2019-10-16T13:54:37Z</time>
      </trkpt>
      <trkpt lat="-22.152604" lon="-45.424631">
        <ele>1080.686</ele>
        <time>2019-10-16T13:54:39Z</time>
      </trkpt>
      <trkpt lat="-22.152560" lon="-45.424602">
        <ele>1080.514</ele>
        <time>2019-10-16T13:54:40Z</time>
      </trkpt>
      <trkpt lat="-22.152503" lon="-45.424570">
        <ele>1080.224</ele>
        <time>2019-10-16T13:54:42Z</time>
      </trkpt>
      <trkpt lat="-22.152461" lon="-45.424539">
        <ele>1080.326</ele>
        <time>2019-10-16T13:54:43Z</time>
      </trkpt>
      <trkpt lat="-22.152419" lon="-45.424508">
        <ele>1080.330</ele>
        <time>2019-10-16T13:54:45Z</time>
      </trkpt>
      <trkpt lat="-22.152356" lon="-45.424460">
        <ele>1080.467</ele>
        <time>2019-10-16T13:54:47Z</time>
      </trkpt>
      <trkpt lat="-22.152312" lon="-45.424412">
        <ele>1080.611</ele>
        <time>2019-10-16T13:54:49Z</time>
      </trkpt>
      <trkpt lat="-22.152230" lon="-45.424332">
        <ele>1080.621</ele>
        <time>2019-10-16T13:54:52Z</time>
      </trkpt>
      <trkpt lat="-22.152149" lon="-45.424246">
        <ele>1080.603</ele>
        <time>2019-10-16T13:54:55Z</time>
      </trkpt>
      <trkpt lat="-22.152104" lon="-45.424194">
        <ele>1080.508</ele>
        <time>2019-10-16T13:54:57Z</time>
      </trkpt>
      <trkpt lat="-22.152063" lon="-45.424148">
        <ele>1080.595</ele>
        <time>2019-10-16T13:54:58Z</time>
      </trkpt>
      <trkpt lat="-22.151500" lon="-45.423556">
        <ele>1081.043</ele>
        <time>2019-10-16T13:55:16Z</time>
      </trkpt>
      <trkpt lat="-22.151462" lon="-45.423520">
        <ele>1081.126</ele>
        <time>2019-10-16T13:55:18Z</time>
      </trkpt>
      <trkpt lat="-22.151408" lon="-45.423475">
        <ele>1081.294</ele>
        <time>2019-10-16T13:55:21Z</time>
      </trkpt>
      <trkpt lat="-22.151368" lon="-45.423439">
        <ele>1081.394</ele>
        <time>2019-10-16T13:55:24Z</time>
      </trkpt>
      <trkpt lat="-22.151320" lon="-45.423392">
        <ele>1081.466</ele>
        <time>2019-10-16T13:55:27Z</time>
      </trkpt>
      <trkpt lat="-22.151280" lon="-45.423351">
        <ele>1081.520</ele>
        <time>2019-10-16T13:55:30Z</time>
      </trkpt>
      <trkpt lat="-22.151249" lon="-45.423311">
        <ele>1081.937</ele>
        <time>2019-10-16T13:55:32Z</time>
      </trkpt>
      <trkpt lat="-22.151209" lon="-45.423268">
        <ele>1082.342</ele>
        <time>2019-10-16T13:55:34Z</time>
      </trkpt>
      <trkpt lat="-22.151169" lon="-45.423228">
        <ele>1082.822</ele>
        <time>2019-10-16T13:55:36Z</time>
      </trkpt>
      <trkpt lat="-22.151136" lon="-45.423192">
        <ele>1083.214</ele>
        <time>2019-10-16T13:55:38Z</time>
      </trkpt>
      <trkpt lat="-22.151092" lon="-45.423137">
        <ele>1083.908</ele>
        <time>2019-10-16T13:55:41Z</time>
      </trkpt>
      <trkpt lat="-22.151047" lon="-45.423083">
        <ele>1084.638</ele>
        <time>2019-10-16T13:55:44Z</time>
      </trkpt>
      <trkpt lat="-22.151015" lon="-45.423042">
        <ele>1085.116</ele>
        <time>2019-10-16T13:55:47Z</time>
      </trkpt>
      <trkpt lat="-22.150968" lon="-45.422997">
        <ele>1085.739</ele>
        <time>2019-10-16T13:55:49Z</time>
      </trkpt>
      <trkpt lat="-22.150936" lon="-45.422961">
        <ele>1086.287</ele>
        <time>2019-10-16T13:55:51Z</time>
      </trkpt>
      <trkpt lat="-22.150896" lon="-45.422924">
        <ele>1086.687</ele>
        <time>2019-10-16T13:55:54Z</time>
      </trkpt>
      <trkpt lat="-22.150863" lon="-45.422890">
        <ele>1087.119</ele>
        <time>2019-10-16T13:55:56Z</time>
      </trkpt>
      <trkpt lat="-22.150825" lon="-45.422864">
        <ele>1087.423</ele>
        <time>2019-10-16T13:55:59Z</time>
      </trkpt>
      <trkpt lat="-22.150776" lon="-45.422841">
        <ele>1087.550</ele>
        <time>2019-10-16T13:56:01Z</time>
      </trkpt>
      <trkpt lat="-22.150734" lon="-45.422819">
        <ele>1087.656</ele>
        <time>2019-10-16T13:56:03Z</time>
      </trkpt>
      <trkpt lat="-22.150673" lon="-45.422796">
        <ele>1087.659</ele>
        <time>2019-10-16T13:56:06Z</time>
      </trkpt>
      <trkpt lat="-22.150617" lon="-45.422773">
        <ele>1087.514</ele>
        <time>2019-10-16T13:56:08Z</time>
      </trkpt>
      <trkpt lat="-22.150571" lon="-45.422747">
        <ele>1087.608</ele>
        <time>2019-10-16T13:56:11Z</time>
      </trkpt>
      <trkpt lat="-22.150532" lon="-45.422720">
        <ele>1087.669</ele>
        <time>2019-10-16T13:56:13Z</time>
      </trkpt>
      <trkpt lat="-22.150486" lon="-45.422689">
        <ele>1087.787</ele>
        <time>2019-10-16T13:56:14Z</time>
      </trkpt>
      <trkpt lat="-22.150439" lon="-45.422644">
        <ele>1087.980</ele>
        <time>2019-10-16T13:56:17Z</time>
      </trkpt>
      <trkpt lat="-22.150403" lon="-45.422607">
        <ele>1088.028</ele>
        <time>2019-10-16T13:56:18Z</time>
      </trkpt>
      <trkpt lat="-22.150366" lon="-45.422564">
        <ele>1088.218</ele>
        <time>2019-10-16T13:56:20Z</time>
      </trkpt>
      <trkpt lat="-22.150326" lon="-45.422523">
        <ele>1088.380</ele>
        <time>2019-10-16T13:56:22Z</time>
      </trkpt>
      <trkpt lat="-22.150282" lon="-45.422480">
        <ele>1088.494</ele>
        <time>2019-10-16T13:56:24Z</time>
      </trkpt>
      <trkpt lat="-22.150240" lon="-45.422430">
        <ele>1088.771</ele>
        <time>2019-10-16T13:56:26Z</time>
      </trkpt>
      <trkpt lat="-22.150199" lon="-45.422382">
        <ele>1089.184</ele>
        <time>2019-10-16T13:56:28Z</time>
      </trkpt>
      <trkpt lat="-22.150155" lon="-45.422337">
        <ele>1089.207</ele>
        <time>2019-10-16T13:56:30Z</time>
      </trkpt>
      <trkpt lat="-22.150101" lon="-45.422276">
        <ele>1089.517</ele>
        <time>2019-10-16T13:56:32Z</time>
      </trkpt>
      <trkpt lat="-22.150047" lon="-45.422216">
        <ele>1089.708</ele>
        <time>2019-10-16T13:56:34Z</time>
      </trkpt>
      <trkpt lat="-22.150001" lon="-45.422159">
        <ele>1089.992</ele>
        <time>2019-10-16T13:56:37Z</time>
      </trkpt>
      <trkpt lat="-22.149952" lon="-45.422101">
        <ele>1090.920</ele>
        <time>2019-10-16T13:56:39Z</time>
      </trkpt>
      <trkpt lat="-22.149911" lon="-45.422058">
        <ele>1091.643</ele>
        <time>2019-10-16T13:56:42Z</time>
      </trkpt>
      <trkpt lat="-22.149879" lon="-45.422015">
        <ele>1092.361</ele>
        <time>2019-10-16T13:56:43Z</time>
      </trkpt>
      <trkpt lat="-22.149836" lon="-45.421962">
        <ele>1092.921</ele>
        <time>2019-10-16T13:56:45Z</time>
      </trkpt>
      <trkpt lat="-22.149796" lon="-45.421907">
        <ele>1093.543</ele>
        <time>2019-10-16T13:56:47Z</time>
      </trkpt>
      <trkpt lat="-22.149750" lon="-45.421841">
        <ele>1094.237</ele>
        <time>2019-10-16T13:56:49Z</time>
      </trkpt>
      <trkpt lat="-22.149719" lon="-45.421791">
        <ele>1094.684</ele>
        <time>2019-10-16T13:56:51Z</time>
      </trkpt>
      <trkpt lat="-22.149671" lon="-45.421720">
        <ele>1095.089</ele>
        <time>2019-10-16T13:56:53Z</time>
      </trkpt>
      <trkpt lat="-22.149632" lon="-45.421656">
        <ele>1095.306</ele>
        <time>2019-10-16T13:56:56Z</time>
      </trkpt>
      <trkpt lat="-22.149606" lon="-45.421612">
        <ele>1095.226</ele>
        <time>2019-10-16T13:56:57Z</time>
      </trkpt>
      <trkpt lat="-22.149581" lon="-45.421561">
        <ele>1095.208</ele>
        <time>2019-10-16T13:56:59Z</time>
      </trkpt>
      <trkpt lat="-22.149558" lon="-45.421511">
        <ele>1095.192</ele>
        <time>2019-10-16T13:57:00Z</time>
      </trkpt>
      <trkpt lat="-22.149524" lon="-45.421402">
        <ele>1095.020</ele>
        <time>2019-10-16T13:57:04Z</time>
      </trkpt>
      <trkpt lat="-22.149500" lon="-45.421349">
        <ele>1094.943</ele>
        <time>2019-10-16T13:57:06Z</time>
      </trkpt>
      <trkpt lat="-22.149478" lon="-45.421295">
        <ele>1094.891</ele>
        <time>2019-10-16T13:57:07Z</time>
      </trkpt>
      <trkpt lat="-22.149450" lon="-45.421224">
        <ele>1094.671</ele>
        <time>2019-10-16T13:57:09Z</time>
      </trkpt>
      <trkpt lat="-22.149423" lon="-45.421152">
        <ele>1094.323</ele>
        <time>2019-10-16T13:57:11Z</time>
      </trkpt>
      <trkpt lat="-22.149403" lon="-45.421091">
        <ele>1094.157</ele>
        <time>2019-10-16T13:57:13Z</time>
      </trkpt>
      <trkpt lat="-22.149381" lon="-45.421009">
        <ele>1093.994</ele>
        <time>2019-10-16T13:57:16Z</time>
      </trkpt>
      <trkpt lat="-22.149364" lon="-45.420921">
        <ele>1093.611</ele>
        <time>2019-10-16T13:57:17Z</time>
      </trkpt>
      <trkpt lat="-22.149361" lon="-45.420842">
        <ele>1093.621</ele>
        <time>2019-10-16T13:57:19Z</time>
      </trkpt>
      <trkpt lat="-22.149369" lon="-45.420780">
        <ele>1093.603</ele>
        <time>2019-10-16T13:57:21Z</time>
      </trkpt>
      <trkpt lat="-22.149380" lon="-45.420694">
        <ele>1093.708</ele>
        <time>2019-10-16T13:57:23Z</time>
      </trkpt>
      <trkpt lat="-22.149384" lon="-45.420632">
        <ele>1093.795</ele>
        <time>2019-10-16T13:57:24Z</time>
      </trkpt>
      <trkpt lat="-22.149191" lon="-45.420177">
        <ele>1092.063</ele>
        <time>2019-10-16T13:57:36Z</time>
      </trkpt>
      <trkpt lat="-22.149150" lon="-45.420156">
        <ele>1091.976</ele>
        <time>2019-10-16T13:57:37Z</time>
      </trkpt>
      <trkpt lat="-22.149086" lon="-45.420142">
        <ele>1092.194</ele>
        <time>2019-10-16T13:57:40Z</time>
      </trkpt>
      <trkpt lat="-22.149037" lon="-45.420140">
        <ele>1092.214</ele>
        <time>2019-10-16T13:57:42Z</time>
      </trkpt>
      <trkpt lat="-22.148985" lon="-45.420109">
        <ele>1092.416</ele>
        <time>2019-10-16T13:57:45Z</time>
      </trkpt>
      <trkpt lat="-22.148930" lon="-45.420076">
        <ele>1092.640</ele>
        <time>2019-10-16T13:57:48Z</time>
      </trkpt>
      <trkpt lat="-22.148882" lon="-45.420040">
        <ele>1092.737</ele>
        <time>2019-10-16T13:57:51Z</time>
      </trkpt>
      <trkpt lat="-22.148833" lon="-45.420014">
        <ele>1092.835</ele>
        <time>2019-10-16T13:57:54Z</time>
      </trkpt>
      <trkpt lat="-22.148783" lon="-45.419989">
        <ele>1093.186</ele>
        <time>2019-10-16T13:57:57Z</time>
      </trkpt>
      <trkpt lat="-22.148738" lon="-45.419964">
        <ele>1093.614</ele>
        <time>2019-10-16T13:57:59Z</time>
      </trkpt>
      <trkpt lat="-22.148675" lon="-45.419943">
        <ele>1094.008</ele>
        <time>2019-10-16T13:58:02Z</time>
      </trkpt>
      <trkpt lat="-22.148619" lon="-45.419927">
        <ele>1094.497</ele>
        <time>2019-10-16T13:58:05Z</time>
      </trkpt>
      <trkpt lat="-22.148567" lon="-45.419891">
        <ele>1095.015</ele>
        <time>2019-10-16T13:58:08Z</time>
      </trkpt>
      <trkpt lat="-22.148526" lon="-45.419864">
        <ele>1095.548</ele>
        <time>2019-10-16T13:58:11Z</time>
      </trkpt>
      <trkpt lat="-22.148485" lon="-45.419839">
        <ele>1096.076</ele>
        <time>2019-10-16T13:58:14Z</time>
      </trkpt>
      <trkpt lat="-22.148444" lon="-45.419816">
        <ele>1096.496</ele>
        <time>2019-10-16T13:58:17Z</time>
      </trkpt>
      <trkpt lat="-22.148388" lon="-45.419776">
        <ele>1097.188</ele>
        <time>2019-10-16T13:58:21Z</time>
      </trkpt>
      <trkpt lat="-22.148345" lon="-45.419747">
        <ele>1097.642</ele>
        <time>2019-10-16T13:58:24Z</time>
      </trkpt>
      <trkpt lat="-22.148294" lon="-45.419705">
        <ele>1098.249</ele>
        <time>2019-10-16T13:58:28Z</time>
      </trkpt>
      <trkpt lat="-22.148244" lon="-45.419680">
        <ele>1098.544</ele>
        <time>2019-10-16T13:58:31Z</time>
      </trkpt>
      <trkpt lat="-22.148205" lon="-45.419643">
        <ele>1098.905</ele>
        <time>2019-10-16T13:58:34Z</time>
      </trkpt>
      <trkpt lat="-22.148164" lon="-45.419602">
        <ele>1099.415</ele>
        <time>2019-10-16T13:58:37Z</time>
      </trkpt>
      <trkpt lat="-22.148122" lon="-45.419567">
        <ele>1099.708</ele>
        <time>2019-10-16T13:58:40Z</time>
      </trkpt>
      <trkpt lat="-22.148079" lon="-45.419522">
        <ele>1100.048</ele>
        <time>2019-10-16T13:58:44Z</time>
      </trkpt>
      <trkpt lat="-22.148067" lon="-45.419466">
        <ele>1100.656</ele>
        <time>2019-10-16T13:58:47Z</time>
      </trkpt>
      <trkpt lat="-22.148038" lon="-45.419409">
        <ele>1101.139</ele>
        <time>2019-10-16T13:58:51Z</time>
      </trkpt>
      <trkpt lat="-22.148017" lon="-45.419357">
        <ele>1101.547</ele>
        <time>2019-10-16T13:58:53Z</time>
      </trkpt>
      <trkpt lat="-22.147998" lon="-45.419308">
        <ele>1101.817</ele>
        <time>2019-10-16T13:58:56Z</time>
      </trkpt>
      <trkpt lat="-22.147971" lon="-45.419249">
        <ele>1102.249</ele>
        <time>2019-10-16T13:58:59Z</time>
      </trkpt>
      <trkpt lat="-22.147963" lon="-45.419200">
        <ele>1102.623</ele>
        <time>2019-10-16T13:59:01Z</time>
      </trkpt>
      <trkpt lat="-22.147948" lon="-45.419142">
        <ele>1103.030</ele>
        <time>2019-10-16T13:59:04Z</time>
      </trkpt>
      <trkpt lat="-22.147933" lon="-45.419079">
        <ele>1103.627</ele>
        <time>2019-10-16T13:59:07Z</time>
      </trkpt>
      <trkpt lat="-22.147925" lon="-45.419010">
        <ele>1104.368</ele>
        <time>2019-10-16T13:59:11Z</time>
      </trkpt>
      <trkpt lat="-22.147915" lon="-45.418953">
        <ele>1104.814</ele>
        <time>2019-10-16T13:59:13Z</time>
      </trkpt>
      <trkpt lat="-22.147909" lon="-45.418903">
        <ele>1105.208</ele>
        <time>2019-10-16T13:59:15Z</time>
      </trkpt>
      <trkpt lat="-22.147899" lon="-45.418838">
        <ele>1105.826</ele>
        <time>2019-10-16T13:59:18Z</time>
      </trkpt>
      <trkpt lat="-22.147866" lon="-45.418788">
        <ele>1105.794</ele>
        <time>2019-10-16T13:59:21Z</time>
      </trkpt>
      <trkpt lat="-22.147842" lon="-45.418726">
        <ele>1105.927</ele>
        <time>2019-10-16T13:59:24Z</time>
      </trkpt>
      <trkpt lat="-22.147841" lon="-45.418673">
        <ele>1106.395</ele>
        <time>2019-10-16T13:59:27Z</time>
      </trkpt>
      <trkpt lat="-22.147838" lon="-45.418609">
        <ele>1106.975</ele>
        <time>2019-10-16T13:59:29Z</time>
      </trkpt>
      <trkpt lat="-22.147823" lon="-45.418550">
        <ele>1107.087</ele>
        <time>2019-10-16T13:59:31Z</time>
      </trkpt>
      <trkpt lat="-22.147807" lon="-45.418475">
        <ele>1107.381</ele>
        <time>2019-10-16T13:59:34Z</time>
      </trkpt>
      <trkpt lat="-22.147796" lon="-45.418414">
        <ele>1107.538</ele>
        <time>2019-10-16T13:59:36Z</time>
      </trkpt>
      <trkpt lat="-22.147778" lon="-45.418344">
        <ele>1107.679</ele>
        <time>2019-10-16T13:59:39Z</time>
      </trkpt>
      <trkpt lat="-22.147750" lon="-45.418272">
        <ele>1107.805</ele>
        <time>2019-10-16T13:59:42Z</time>
      </trkpt>
      <trkpt lat="-22.147724" lon="-45.418209">
        <ele>1108.125</ele>
        <time>2019-10-16T13:59:44Z</time>
      </trkpt>
      <trkpt lat="-22.147697" lon="-45.418142">
        <ele>1108.308</ele>
        <time>2019-10-16T13:59:46Z</time>
      </trkpt>
      <trkpt lat="-22.147674" lon="-45.418099">
        <ele>1108.311</ele>
        <time>2019-10-16T13:59:48Z</time>
      </trkpt>
      <trkpt lat="-22.147644" lon="-45.418046">
        <ele>1108.259</ele>
        <time>2019-10-16T13:59:50Z</time>
      </trkpt>
      <trkpt lat="-22.147624" lon="-45.417989">
        <ele>1108.572</ele>
        <time>2019-10-16T13:59:52Z</time>
      </trkpt>
      <trkpt lat="-22.147588" lon="-45.417928">
        <ele>1108.420</ele>
        <time>2019-10-16T13:59:55Z</time>
      </trkpt>
      <trkpt lat="-22.147554" lon="-45.417894">
        <ele>1107.980</ele>
        <time>2019-10-16T13:59:57Z</time>
      </trkpt>
      <trkpt lat="-22.147512" lon="-45.417848">
        <ele>1107.352</ele>
        <time>2019-10-16T13:59:59Z</time>
      </trkpt>
      <trkpt lat="-22.147475" lon="-45.417816">
        <ele>1107.076</ele>
        <time>2019-10-16T14:00:01Z</time>
      </trkpt>
      <trkpt lat="-22.147440" lon="-45.417785">
        <ele>1106.853</ele>
        <time>2019-10-16T14:00:02Z</time>
      </trkpt>
      <trkpt lat="-22.147396" lon="-45.417737">
        <ele>1106.655</ele>
        <time>2019-10-16T14:00:04Z</time>
      </trkpt>
      <trkpt lat="-22.147365" lon="-45.417700">
        <ele>1106.407</ele>
        <time>2019-10-16T14:00:06Z</time>
      </trkpt>
      <trkpt lat="-22.147325" lon="-45.417639">
        <ele>1106.317</ele>
        <time>2019-10-16T14:00:09Z</time>
      </trkpt>
      <trkpt lat="-22.147288" lon="-45.417604">
        <ele>1105.808</ele>
        <time>2019-10-16T14:00:11Z</time>
      </trkpt>
      <trkpt lat="-22.147268" lon="-45.417555">
        <ele>1105.929</ele>
        <time>2019-10-16T14:00:14Z</time>
      </trkpt>
      <trkpt lat="-22.147242" lon="-45.417508">
        <ele>1105.787</ele>
        <time>2019-10-16T14:00:16Z</time>
      </trkpt>
      <trkpt lat="-22.147212" lon="-45.417455">
        <ele>1105.450</ele>
        <time>2019-10-16T14:00:19Z</time>
      </trkpt>
      <trkpt lat="-22.147173" lon="-45.417392">
        <ele>1105.098</ele>
        <time>2019-10-16T14:00:20Z</time>
      </trkpt>
      <trkpt lat="-22.146253" lon="-45.416439">
        <ele>1098.498</ele>
        <time>2019-10-16T14:00:45Z</time>
      </trkpt>
      <trkpt lat="-22.146201" lon="-45.416406">
        <ele>1098.610</ele>
        <time>2019-10-16T14:00:48Z</time>
      </trkpt>
      <trkpt lat="-22.146159" lon="-45.416372">
        <ele>1098.974</ele>
        <time>2019-10-16T14:00:50Z</time>
      </trkpt>
      <trkpt lat="-22.146122" lon="-45.416334">
        <ele>1099.351</ele>
        <time>2019-10-16T14:00:53Z</time>
      </trkpt>
      <trkpt lat="-22.146077" lon="-45.416296">
        <ele>1099.762</ele>
        <time>2019-10-16T14:00:56Z</time>
      </trkpt>
      <trkpt lat="-22.146030" lon="-45.416252">
        <ele>1100.183</ele>
        <time>2019-10-16T14:00:59Z</time>
      </trkpt>
      <trkpt lat="-22.145986" lon="-45.416234">
        <ele>1100.111</ele>
        <time>2019-10-16T14:01:01Z</time>
      </trkpt>
      <trkpt lat="-22.145924" lon="-45.416211">
        <ele>1100.008</ele>
        <time>2019-10-16T14:01:04Z</time>
      </trkpt>
      <trkpt lat="-22.145877" lon="-45.416183">
        <ele>1100.150</ele>
        <time>2019-10-16T14:01:06Z</time>
      </trkpt>
      <trkpt lat="-22.145814" lon="-45.416140">
        <ele>1100.328</ele>
        <time>2019-10-16T14:01:09Z</time>
      </trkpt>
      <trkpt lat="-22.145775" lon="-45.416113">
        <ele>1100.451</ele>
        <time>2019-10-16T14:01:11Z</time>
      </trkpt>
      <trkpt lat="-22.145731" lon="-45.416087">
        <ele>1100.399</ele>
        <time>2019-10-16T14:01:13Z</time>
      </trkpt>
      <trkpt lat="-22.145676" lon="-45.416054">
        <ele>1100.339</ele>
        <time>2019-10-16T14:01:15Z</time>
      </trkpt>
      <trkpt lat="-22.145604" lon="-45.415999">
        <ele>1100.431</ele>
        <time>2019-10-16T14:01:19Z</time>
      </trkpt>
      <trkpt lat="-22.145553" lon="-45.415959">
        <ele>1100.435</ele>
        <time>2019-10-16T14:01:21Z</time>
      </trkpt>
      <trkpt lat="-22.145509" lon="-45.415922">
        <ele>1100.432</ele>
        <time>2019-10-16T14:01:23Z</time>
      </trkpt>
      <trkpt lat="-22.145430" lon="-45.415852">
        <ele>1100.465</ele>
        <time>2019-10-16T14:01:26Z</time>
      </trkpt>
      <trkpt lat="-22.145389" lon="-45.415825">
        <ele>1100.268</ele>
        <time>2019-10-16T14:01:28Z</time>
      </trkpt>
      <trkpt lat="-22.145348" lon="-45.415792">
        <ele>1100.114</ele>
        <time>2019-10-16T14:01:30Z</time>
      </trkpt>
      <trkpt lat="-22.145290" lon="-45.415743">
        <ele>1100.008</ele>
        <time>2019-10-16T14:01:33Z</time>
      </trkpt>
      <trkpt lat="-22.145207" lon="-45.415677">
        <ele>1099.790</ele>
        <time>2019-10-16T14:01:36Z</time>
      </trkpt>
      <trkpt lat="-22.145154" lon="-45.415638">
        <ele>1099.428</ele>
        <time>2019-10-16T14:01:38Z</time>
      </trkpt>
      <trkpt lat="-22.144982" lon="-45.415490">
        <ele>1099.091</ele>
        <time>2019-10-16T14:01:43Z</time>
      </trkpt>
      <trkpt lat="-22.144940" lon="-45.415453">
        <ele>1099.149</ele>
        <time>2019-10-16T14:01:44Z</time>
      </trkpt>
      <trkpt lat="-22.144902" lon="-45.415417">
        <ele>1099.389</ele>
        <time>2019-10-16T14:01:46Z</time>
      </trkpt>
      <trkpt lat="-22.144855" lon="-45.415374">
        <ele>1099.561</ele>
        <time>2019-10-16T14:01:48Z</time>
      </trkpt>
      <trkpt lat="-22.144814" lon="-45.415342">
        <ele>1099.515</ele>
        <time>2019-10-16T14:01:50Z</time>
      </trkpt>
      <trkpt lat="-22.144762" lon="-45.415306">
        <ele>1099.522</ele>
        <time>2019-10-16T14:01:52Z</time>
      </trkpt>
      <trkpt lat="-22.144716" lon="-45.415276">
        <ele>1099.588</ele>
        <time>2019-10-16T14:01:54Z</time>
      </trkpt>
      <trkpt lat="-22.144656" lon="-45.415241">
        <ele>1099.524</ele>
        <time>2019-10-16T14:01:56Z</time>
      </trkpt>
      <trkpt lat="-22.144588" lon="-45.415199">
        <ele>1099.426</ele>
        <time>2019-10-16T14:01:59Z</time>
      </trkpt>
      <trkpt lat="-22.144525" lon="-45.415163">
        <ele>1099.308</ele>
        <time>2019-10-16T14:02:02Z</time>
      </trkpt>
      <trkpt lat="-22.144466" lon="-45.415134">
        <ele>1099.132</ele>
        <time>2019-10-16T14:02:04Z</time>
      </trkpt>
      <trkpt lat="-22.144413" lon="-45.415110">
        <ele>1098.920</ele>
        <time>2019-10-16T14:02:06Z</time>
      </trkpt>
      <trkpt lat="-22.144352" lon="-45.415082">
        <ele>1098.743</ele>
        <time>2019-10-16T14:02:09Z</time>
      </trkpt>
      <trkpt lat="-22.144301" lon="-45.415058">
        <ele>1098.591</ele>
        <time>2019-10-16T14:02:11Z</time>
      </trkpt>
      <trkpt lat="-22.144231" lon="-45.415028">
        <ele>1098.381</ele>
        <time>2019-10-16T14:02:14Z</time>
      </trkpt>
      <trkpt lat="-22.144174" lon="-45.414998">
        <ele>1098.143</ele>
        <time>2019-10-16T14:02:16Z</time>
      </trkpt>
      <trkpt lat="-22.144126" lon="-45.414971">
        <ele>1098.367</ele>
        <time>2019-10-16T14:02:18Z</time>
      </trkpt>
      <trkpt lat="-22.144040" lon="-45.414927">
        <ele>1098.814</ele>
        <time>2019-10-16T14:02:21Z</time>
      </trkpt>
      <trkpt lat="-22.143991" lon="-45.414903">
        <ele>1099.015</ele>
        <time>2019-10-16T14:02:22Z</time>
      </trkpt>
      <trkpt lat="-22.143939" lon="-45.414877">
        <ele>1099.265</ele>
        <time>2019-10-16T14:02:24Z</time>
      </trkpt>
      <trkpt lat="-22.143845" lon="-45.414840">
        <ele>1099.511</ele>
        <time>2019-10-16T14:02:26Z</time>
      </trkpt>
      <trkpt lat="-22.143787" lon="-45.414815">
        <ele>1099.708</ele>
        <time>2019-10-16T14:02:28Z</time>
      </trkpt>
      <trkpt lat="-22.143735" lon="-45.414788">
        <ele>1099.985</ele>
        <time>2019-10-16T14:02:30Z</time>
      </trkpt>
      <trkpt lat="-22.143680" lon="-45.414762">
        <ele>1100.143</ele>
        <time>2019-10-16T14:02:32Z</time>
      </trkpt>
      <trkpt lat="-22.143513" lon="-45.414680">
        <ele>1100.596</ele>
        <time>2019-10-16T14:02:37Z</time>
      </trkpt>
      <trkpt lat="-22.143465" lon="-45.414657">
        <ele>1100.624</ele>
        <time>2019-10-16T14:02:39Z</time>
      </trkpt>
      <trkpt lat="-22.143401" lon="-45.414633">
        <ele>1100.734</ele>
        <time>2019-10-16T14:02:41Z</time>
      </trkpt>
      <trkpt lat="-22.143349" lon="-45.414615">
        <ele>1100.766</ele>
        <time>2019-10-16T14:02:43Z</time>
      </trkpt>
      <trkpt lat="-22.143288" lon="-45.414586">
        <ele>1100.860</ele>
        <time>2019-10-16T14:02:45Z</time>
      </trkpt>
      <trkpt lat="-22.143241" lon="-45.414566">
        <ele>1100.957</ele>
        <time>2019-10-16T14:02:47Z</time>
      </trkpt>
      <trkpt lat="-22.143175" lon="-45.414526">
        <ele>1101.011</ele>
        <time>2019-10-16T14:02:50Z</time>
      </trkpt>
      <trkpt lat="-22.143122" lon="-45.414503">
        <ele>1101.021</ele>
        <time>2019-10-16T14:02:53Z</time>
      </trkpt>
      <trkpt lat="-22.143072" lon="-45.414477">
        <ele>1101.003</ele>
        <time>2019-10-16T14:02:55Z</time>
      </trkpt>
      <trkpt lat="-22.143016" lon="-45.414456">
        <ele>1101.008</ele>
        <time>2019-10-16T14:02:57Z</time>
      </trkpt>
      <trkpt lat="-22.142968" lon="-45.414439">
        <ele>1100.925</ele>
        <time>2019-10-16T14:03:00Z</time>
      </trkpt>
      <trkpt lat="-22.142916" lon="-45.414424">
        <ele>1100.823</ele>
        <time>2019-10-16T14:03:04Z</time>
      </trkpt>
      <trkpt lat="-22.142872" lon="-45.414378">
        <ele>1100.996</ele>
        <time>2019-10-16T14:03:08Z</time>
      </trkpt>
      <trkpt lat="-22.142846" lon="-45.414338">
        <ele>1101.034</ele>
        <time>2019-10-16T14:03:10Z</time>
      </trkpt>
      <trkpt lat="-22.142801" lon="-45.414300">
        <ele>1101.074</ele>
        <time>2019-10-16T14:03:13Z</time>
      </trkpt>
      <trkpt lat="-22.142744" lon="-45.414276">
        <ele>1100.926</ele>
        <time>2019-10-16T14:03:16Z</time>
      </trkpt>
      <trkpt lat="-22.142705" lon="-45.414251">
        <ele>1100.820</ele>
        <time>2019-10-16T14:03:18Z</time>
      </trkpt>
      <trkpt lat="-22.142641" lon="-45.414195">
        <ele>1100.747</ele>
        <time>2019-10-16T14:03:22Z</time>
      </trkpt>
      <trkpt lat="-22.142588" lon="-45.414175">
        <ele>1100.518</ele>
        <time>2019-10-16T14:03:24Z</time>
      </trkpt>
      <trkpt lat="-22.142554" lon="-45.414142">
        <ele>1100.498</ele>
        <time>2019-10-16T14:03:26Z</time>
      </trkpt>
      <trkpt lat="-22.142532" lon="-45.414089">
        <ele>1100.517</ele>
        <time>2019-10-16T14:03:28Z</time>
      </trkpt>
      <trkpt lat="-22.142408" lon="-45.413947">
        <ele>1100.608</ele>
        <time>2019-10-16T14:03:33Z</time>
      </trkpt>
      <trkpt lat="-22.142381" lon="-45.413906">
        <ele>1100.795</ele>
        <time>2019-10-16T14:03:34Z</time>
      </trkpt>
      <trkpt lat="-22.142342" lon="-45.413852">
        <ele>1100.833</ele>
        <time>2019-10-16T14:03:36Z</time>
      </trkpt>
      <trkpt lat="-22.142293" lon="-45.413785">
        <ele>1100.926</ele>
        <time>2019-10-16T14:03:39Z</time>
      </trkpt>
      <trkpt lat="-22.142272" lon="-45.413737">
        <ele>1101.034</ele>
        <time>2019-10-16T14:03:40Z</time>
      </trkpt>
      <trkpt lat="-22.142236" lon="-45.413674">
        <ele>1101.174</ele>
        <time>2019-10-16T14:03:42Z</time>
      </trkpt>
      <trkpt lat="-22.142205" lon="-45.413616">
        <ele>1101.346</ele>
        <time>2019-10-16T14:03:44Z</time>
      </trkpt>
      <trkpt lat="-22.142177" lon="-45.413568">
        <ele>1101.460</ele>
        <time>2019-10-16T14:03:46Z</time>
      </trkpt>
      <trkpt lat="-22.142150" lon="-45.413523">
        <ele>1101.517</ele>
        <time>2019-10-16T14:03:48Z</time>
      </trkpt>
      <trkpt lat="-22.142122" lon="-45.413480">
        <ele>1101.645</ele>
        <time>2019-10-16T14:03:50Z</time>
      </trkpt>
      <trkpt lat="-22.142083" lon="-45.413428">
        <ele>1101.747</ele>
        <time>2019-10-16T14:03:54Z</time>
      </trkpt>
      <trkpt lat="-22.142033" lon="-45.413369">
        <ele>1101.811</ele>
        <time>2019-10-16T14:03:58Z</time>
      </trkpt>
      <trkpt lat="-22.141976" lon="-45.413314">
        <ele>1101.908</ele>
        <time>2019-10-16T14:04:02Z</time>
      </trkpt>
      <trkpt lat="-22.141943" lon="-45.413271">
        <ele>1102.228</ele>
        <time>2019-10-16T14:04:05Z</time>
      </trkpt>
      <trkpt lat="-22.141912" lon="-45.413232">
        <ele>1102.486</ele>
        <time>2019-10-16T14:04:07Z</time>
      </trkpt>
      <trkpt lat="-22.141876" lon="-45.413192">
        <ele>1102.579</ele>
        <time>2019-10-16T14:04:09Z</time>
      </trkpt>
      <trkpt lat="-22.141823" lon="-45.413144">
        <ele>1102.677</ele>
        <time>2019-10-16T14:04:13Z</time>
      </trkpt>
      <trkpt lat="-22.141783" lon="-45.413113">
        <ele>1102.677</ele>
        <time>2019-10-16T14:04:17Z</time>
      </trkpt>
      <trkpt lat="-22.141753" lon="-45.413072">
        <ele>1102.759</ele>
        <time>2019-10-16T14:04:20Z</time>
      </trkpt>
      <trkpt lat="-22.141720" lon="-45.413037">
        <ele>1102.793</ele>
        <time>2019-10-16T14:04:23Z</time>
      </trkpt>
      <trkpt lat="-22.141682" lon="-45.413005">
        <ele>1102.790</ele>
        <time>2019-10-16T14:04:28Z</time>
      </trkpt>
      <trkpt lat="-22.141640" lon="-45.412968">
        <ele>1103.036</ele>
        <time>2019-10-16T14:04:33Z</time>
      </trkpt>
      <trkpt lat="-22.141597" lon="-45.412937">
        <ele>1103.517</ele>
        <time>2019-10-16T14:04:38Z</time>
      </trkpt>
      <trkpt lat="-22.141561" lon="-45.412905">
        <ele>1104.018</ele>
        <time>2019-10-16T14:04:42Z</time>
      </trkpt>
      <trkpt lat="-22.141527" lon="-45.412859">
        <ele>1104.508</ele>
        <time>2019-10-16T14:04:46Z</time>
      </trkpt>
      <trkpt lat="-22.141496" lon="-45.412823">
        <ele>1105.017</ele>
        <time>2019-10-16T14:04:51Z</time>
      </trkpt>
      <trkpt lat="-22.141457" lon="-45.412786">
        <ele>1105.615</ele>
        <time>2019-10-16T14:04:58Z</time>
      </trkpt>
      <trkpt lat="-22.141414" lon="-45.412740">
        <ele>1106.418</ele>
        <time>2019-10-16T14:05:04Z</time>
      </trkpt>
      <trkpt lat="-22.141374" lon="-45.412705">
        <ele>1107.066</ele>
        <time>2019-10-16T14:05:11Z</time>
      </trkpt>
      <trkpt lat="-22.141336" lon="-45.412677">
        <ele>1107.636</ele>
        <time>2019-10-16T14:05:17Z</time>
      </trkpt>
      <trkpt lat="-22.141294" lon="-45.412640">
        <ele>1108.368</ele>
        <time>2019-10-16T14:05:23Z</time>
      </trkpt>
      <trkpt lat="-22.141246" lon="-45.412604">
        <ele>1109.212</ele>
        <time>2019-10-16T14:05:29Z</time>
      </trkpt>
      <trkpt lat="-22.141211" lon="-45.412571">
        <ele>1109.839</ele>
        <time>2019-10-16T14:05:33Z</time>
      </trkpt>
      <trkpt lat="-22.141168" lon="-45.412538">
        <ele>1110.657</ele>
        <time>2019-10-16T14:05:37Z</time>
      </trkpt>
      <trkpt lat="-22.141137" lon="-45.412501">
        <ele>1111.300</ele>
        <time>2019-10-16T14:05:42Z</time>
      </trkpt>
      <trkpt lat="-22.141104" lon="-45.412462">
        <ele>1111.820</ele>
        <time>2019-10-16T14:05:46Z</time>
      </trkpt>
      <trkpt lat="-22.141068" lon="-45.412431">
        <ele>1112.208</ele>
        <time>2019-10-16T14:05:50Z</time>
      </trkpt>
      <trkpt lat="-22.141026" lon="-45.412401">
        <ele>1112.769</ele>
        <time>2019-10-16T14:05:54Z</time>
      </trkpt>
      <trkpt lat="-22.140980" lon="-45.412365">
        <ele>1113.277</ele>
        <time>2019-10-16T14:05:58Z</time>
      </trkpt>
      <trkpt lat="-22.140939" lon="-45.412328">
        <ele>1113.640</ele>
        <time>2019-10-16T14:06:01Z</time>
      </trkpt>
      <trkpt lat="-22.140899" lon="-45.412294">
        <ele>1114.078</ele>
        <time>2019-10-16T14:06:03Z</time>
      </trkpt>
      <trkpt lat="-22.140860" lon="-45.412267">
        <ele>1114.438</ele>
        <time>2019-10-16T14:06:06Z</time>
      </trkpt>
      <trkpt lat="-22.140821" lon="-45.412237">
        <ele>1114.790</ele>
        <time>2019-10-16T14:06:10Z</time>
      </trkpt>
      <trkpt lat="-22.140796" lon="-45.412194">
        <ele>1114.624</ele>
        <time>2019-10-16T14:06:14Z</time>
      </trkpt>
      <trkpt lat="-22.140764" lon="-45.412146">
        <ele>1114.511</ele>
        <time>2019-10-16T14:06:18Z</time>
      </trkpt>
      <trkpt lat="-22.140734" lon="-45.412108">
        <ele>1114.543</ele>
        <time>2019-10-16T14:06:21Z</time>
      </trkpt>
      <trkpt lat="-22.140694" lon="-45.412075">
        <ele>1114.564</ele>
        <time>2019-10-16T14:06:24Z</time>
      </trkpt>
      <trkpt lat="-22.140654" lon="-45.412041">
        <ele>1114.510</ele>
        <time>2019-10-16T14:06:27Z</time>
      </trkpt>
      <trkpt lat="-22.140606" lon="-45.412004">
        <ele>1114.608</ele>
        <time>2019-10-16T14:06:31Z</time>
      </trkpt>
      <trkpt lat="-22.140570" lon="-45.411974">
        <ele>1114.668</ele>
        <time>2019-10-16T14:06:35Z</time>
      </trkpt>
      <trkpt lat="-22.140532" lon="-45.411940">
        <ele>1114.746</ele>
        <time>2019-10-16T14:06:38Z</time>
      </trkpt>
      <trkpt lat="-22.140503" lon="-45.411887">
        <ele>1114.859</ele>
        <time>2019-10-16T14:06:41Z</time>
      </trkpt>
      <trkpt lat="-22.140471" lon="-45.411843">
        <ele>1115.087</ele>
        <time>2019-10-16T14:06:43Z</time>
      </trkpt>
      <trkpt lat="-22.140431" lon="-45.411787">
        <ele>1115.297</ele>
        <time>2019-10-16T14:06:47Z</time>
      </trkpt>
      <trkpt lat="-22.140403" lon="-45.411729">
        <ele>1115.479</ele>
        <time>2019-10-16T14:06:50Z</time>
      </trkpt>
      <trkpt lat="-22.140385" lon="-45.411671">
        <ele>1115.623</ele>
        <time>2019-10-16T14:06:53Z</time>
      </trkpt>
      <trkpt lat="-22.140365" lon="-45.411623">
        <ele>1115.960</ele>
        <time>2019-10-16T14:06:55Z</time>
      </trkpt>
      <trkpt lat="-22.140336" lon="-45.411581">
        <ele>1116.246</ele>
        <time>2019-10-16T14:06:57Z</time>
      </trkpt>
      <trkpt lat="-22.140310" lon="-45.411533">
        <ele>1116.588</ele>
        <time>2019-10-16T14:07:01Z</time>
      </trkpt>
      <trkpt lat="-22.140280" lon="-45.411461">
        <ele>1117.016</ele>
        <time>2019-10-16T14:07:04Z</time>
      </trkpt>
      <trkpt lat="-22.140261" lon="-45.411410">
        <ele>1117.308</ele>
        <time>2019-10-16T14:07:07Z</time>
      </trkpt>
      <trkpt lat="-22.140237" lon="-45.411368">
        <ele>1117.658</ele>
        <time>2019-10-16T14:07:09Z</time>
      </trkpt>
      <trkpt lat="-22.140205" lon="-45.411307">
        <ele>1118.116</ele>
        <time>2019-10-16T14:07:12Z</time>
      </trkpt>
      <trkpt lat="-22.140186" lon="-45.411253">
        <ele>1118.519</ele>
        <time>2019-10-16T14:07:15Z</time>
      </trkpt>
      <trkpt lat="-22.140165" lon="-45.411201">
        <ele>1118.957</ele>
        <time>2019-10-16T14:07:18Z</time>
      </trkpt>
      <trkpt lat="-22.140139" lon="-45.411154">
        <ele>1119.327</ele>
        <time>2019-10-16T14:07:21Z</time>
      </trkpt>
      <trkpt lat="-22.140124" lon="-45.411100">
        <ele>1119.769</ele>
        <time>2019-10-16T14:07:23Z</time>
      </trkpt>
      <trkpt lat="-22.140107" lon="-45.411042">
        <ele>1120.133</ele>
        <time>2019-10-16T14:07:26Z</time>
      </trkpt>
      <trkpt lat="-22.140062" lon="-45.410955">
        <ele>1120.980</ele>
        <time>2019-10-16T14:07:30Z</time>
      </trkpt>
      <trkpt lat="-22.140045" lon="-45.410910">
        <ele>1121.228</ele>
        <time>2019-10-16T14:07:32Z</time>
      </trkpt>
      <trkpt lat="-22.140021" lon="-45.410837">
        <ele>1121.889</ele>
        <time>2019-10-16T14:07:35Z</time>
      </trkpt>
      <trkpt lat="-22.140006" lon="-45.410789">
        <ele>1122.417</ele>
        <time>2019-10-16T14:07:37Z</time>
      </trkpt>
      <trkpt lat="-22.139993" lon="-45.410737">
        <ele>1123.008</ele>
        <time>2019-10-16T14:07:39Z</time>
      </trkpt>
      <trkpt lat="-22.139980" lon="-45.410689">
        <ele>1123.586</ele>
        <time>2019-10-16T14:07:41Z</time>
      </trkpt>
      <trkpt lat="-22.139959" lon="-45.410629">
        <ele>1124.074</ele>
        <time>2019-10-16T14:07:44Z</time>
      </trkpt>
      <trkpt lat="-22.139949" lon="-45.410567">
        <ele>1124.727</ele>
        <time>2019-10-16T14:07:47Z</time>
      </trkpt>
      <trkpt lat="-22.139933" lon="-45.410512">
        <ele>1125.355</ele>
        <time>2019-10-16T14:07:50Z</time>
      </trkpt>
      <trkpt lat="-22.139911" lon="-45.410430">
        <ele>1126.125</ele>
        <time>2019-10-16T14:07:53Z</time>
      </trkpt>
      <trkpt lat="-22.139875" lon="-45.410369">
        <ele>1126.887</ele>
        <time>2019-10-16T14:07:57Z</time>
      </trkpt>
      <trkpt lat="-22.139855" lon="-45.410320">
        <ele>1127.371</ele>
        <time>2019-10-16T14:08:00Z</time>
      </trkpt>
      <trkpt lat="-22.139838" lon="-45.410256">
        <ele>1128.158</ele>
        <time>2019-10-16T14:08:03Z</time>
      </trkpt>
      <trkpt lat="-22.139817" lon="-45.410198">
        <ele>1128.878</ele>
        <time>2019-10-16T14:08:07Z</time>
      </trkpt>
      <trkpt lat="-22.139793" lon="-45.410139">
        <ele>1129.533</ele>
        <time>2019-10-16T14:08:11Z</time>
      </trkpt>
      <trkpt lat="-22.139761" lon="-45.410102">
        <ele>1130.026</ele>
        <time>2019-10-16T14:08:15Z</time>
      </trkpt>
      <trkpt lat="-22.139716" lon="-45.410055">
        <ele>1130.608</ele>
        <time>2019-10-16T14:08:23Z</time>
      </trkpt>
      <trkpt lat="-22.139673" lon="-45.410019">
        <ele>1131.131</ele>
        <time>2019-10-16T14:08:28Z</time>
      </trkpt>
      <trkpt lat="-22.139633" lon="-45.409990">
        <ele>1131.729</ele>
        <time>2019-10-16T14:08:34Z</time>
      </trkpt>
      <trkpt lat="-22.139716" lon="-45.409985">
        <ele>1131.792</ele>
        <time>2019-10-16T14:08:39Z</time>
      </trkpt>
      <trkpt lat="-22.139730" lon="-45.409927">
        <ele>1132.860</ele>
        <time>2019-10-16T14:08:42Z</time>
      </trkpt>
      <trkpt lat="-22.139715" lon="-45.409875">
        <ele>1134.070</ele>
        <time>2019-10-16T14:08:46Z</time>
      </trkpt>
      <trkpt lat="-22.139705" lon="-45.409816">
        <ele>1135.262</ele>
        <time>2019-10-16T14:08:51Z</time>
      </trkpt>
      <trkpt lat="-22.139700" lon="-45.409763">
        <ele>1136.346</ele>
        <time>2019-10-16T14:08:55Z</time>
      </trkpt>
      <trkpt lat="-22.139703" lon="-45.409703">
        <ele>1137.693</ele>
        <time>2019-10-16T14:09:00Z</time>
      </trkpt>
      <trkpt lat="-22.139726" lon="-45.409635">
        <ele>1138.976</ele>
        <time>2019-10-16T14:09:02Z</time>
      </trkpt>
      <trkpt lat="-22.139787" lon="-45.409574">
        <ele>1139.890</ele>
        <time>2019-10-16T14:10:14Z</time>
      </trkpt>
      <trkpt lat="-22.139799" lon="-45.409525">
        <ele>1140.819</ele>
        <time>2019-10-16T14:10:24Z</time>
      </trkpt>
      <trkpt lat="-22.139805" lon="-45.409466">
        <ele>1141.908</ele>
        <time>2019-10-16T14:10:29Z</time>
      </trkpt>
      <trkpt lat="-22.139825" lon="-45.409416">
        <ele>1142.861</ele>
        <time>2019-10-16T14:10:33Z</time>
      </trkpt>
      <trkpt lat="-22.139935" lon="-45.409333">
        <ele>1143.579</ele>
        <time>2019-10-16T14:11:48Z</time>
      </trkpt>
      <trkpt lat="-22.139981" lon="-45.409314">
        <ele>1143.512</ele>
        <time>2019-10-16T14:11:58Z</time>
      </trkpt>
      <trkpt lat="-22.140026" lon="-45.409290">
        <ele>1143.820</ele>
        <time>2019-10-16T14:12:03Z</time>
      </trkpt>
      <trkpt lat="-22.140064" lon="-45.409264">
        <ele>1144.370</ele>
        <time>2019-10-16T14:12:07Z</time>
      </trkpt>
      <trkpt lat="-22.140111" lon="-45.409245">
        <ele>1144.862</ele>
        <time>2019-10-16T14:12:09Z</time>
      </trkpt>
      <trkpt lat="-22.140158" lon="-45.409222">
        <ele>1145.356</ele>
        <time>2019-10-16T14:12:13Z</time>
      </trkpt>
      <trkpt lat="-22.140198" lon="-45.409186">
        <ele>1146.133</ele>
        <time>2019-10-16T14:12:19Z</time>
      </trkpt>
      <trkpt lat="-22.140236" lon="-45.409153">
        <ele>1146.961</ele>
        <time>2019-10-16T14:12:24Z</time>
      </trkpt>
      <trkpt lat="-22.140275" lon="-45.409125">
        <ele>1147.621</ele>
        <time>2019-10-16T14:12:28Z</time>
      </trkpt>
      <trkpt lat="-22.140328" lon="-45.409092">
        <ele>1148.513</ele>
        <time>2019-10-16T14:12:32Z</time>
      </trkpt>
      <trkpt lat="-22.140390" lon="-45.409067">
        <ele>1149.108</ele>
        <time>2019-10-16T14:12:35Z</time>
      </trkpt>
      <trkpt lat="-22.140433" lon="-45.409040">
        <ele>1149.870</ele>
        <time>2019-10-16T14:12:39Z</time>
      </trkpt>
      <trkpt lat="-22.140483" lon="-45.409023">
        <ele>1150.238</ele>
        <time>2019-10-16T14:12:43Z</time>
      </trkpt>
      <trkpt lat="-22.140530" lon="-45.409002">
        <ele>1150.741</ele>
        <time>2019-10-16T14:12:47Z</time>
      </trkpt>
      <trkpt lat="-22.140582" lon="-45.408985">
        <ele>1151.199</ele>
        <time>2019-10-16T14:12:51Z</time>
      </trkpt>
      <trkpt lat="-22.140625" lon="-45.408963">
        <ele>1151.539</ele>
        <time>2019-10-16T14:12:53Z</time>
      </trkpt>
      <trkpt lat="-22.140668" lon="-45.408945">
        <ele>1151.981</ele>
        <time>2019-10-16T14:12:58Z</time>
      </trkpt>
      <trkpt lat="-22.140729" lon="-45.408920">
        <ele>1152.455</ele>
        <time>2019-10-16T14:13:02Z</time>
      </trkpt>
      <trkpt lat="-22.140784" lon="-45.408904">
        <ele>1152.772</ele>
        <time>2019-10-16T14:13:06Z</time>
      </trkpt>
      <trkpt lat="-22.140839" lon="-45.408899">
        <ele>1152.961</ele>
        <time>2019-10-16T14:13:10Z</time>
      </trkpt>
      <trkpt lat="-22.140887" lon="-45.408891">
        <ele>1153.321</ele>
        <time>2019-10-16T14:13:14Z</time>
      </trkpt>
      <trkpt lat="-22.140942" lon="-45.408876">
        <ele>1154.013</ele>
        <time>2019-10-16T14:13:18Z</time>
      </trkpt>
      <trkpt lat="-22.140987" lon="-45.408875">
        <ele>1154.408</ele>
        <time>2019-10-16T14:13:21Z</time>
      </trkpt>
      <trkpt lat="-22.141044" lon="-45.408868">
        <ele>1154.940</ele>
        <time>2019-10-16T14:13:26Z</time>
      </trkpt>
      <trkpt lat="-22.141105" lon="-45.408869">
        <ele>1155.378</ele>
        <time>2019-10-16T14:13:32Z</time>
      </trkpt>
      <trkpt lat="-22.141178" lon="-45.408870">
        <ele>1155.891</ele>
        <time>2019-10-16T14:13:40Z</time>
      </trkpt>
      <trkpt lat="-22.141241" lon="-45.408865">
        <ele>1156.419</ele>
        <time>2019-10-16T14:13:45Z</time>
      </trkpt>
      <trkpt lat="-22.141294" lon="-45.408852">
        <ele>1157.129</ele>
        <time>2019-10-16T14:13:47Z</time>
      </trkpt>
      <trkpt lat="-22.141345" lon="-45.408842">
        <ele>1157.691</ele>
        <time>2019-10-16T14:13:52Z</time>
      </trkpt>
      <trkpt lat="-22.141393" lon="-45.408831">
        <ele>1158.255</ele>
        <time>2019-10-16T14:13:57Z</time>
      </trkpt>
      <trkpt lat="-22.141438" lon="-45.408824">
        <ele>1158.782</ele>
        <time>2019-10-16T14:14:01Z</time>
      </trkpt>
      <trkpt lat="-22.141495" lon="-45.408822">
        <ele>1159.287</ele>
        <time>2019-10-16T14:14:06Z</time>
      </trkpt>
      <trkpt lat="-22.141552" lon="-45.408819">
        <ele>1159.642</ele>
        <time>2019-10-16T14:14:11Z</time>
      </trkpt>
      <trkpt lat="-22.141603" lon="-45.408806">
        <ele>1160.326</ele>
        <time>2019-10-16T14:14:15Z</time>
      </trkpt>
      <trkpt lat="-22.141664" lon="-45.408782">
        <ele>1161.308</ele>
        <time>2019-10-16T14:14:22Z</time>
      </trkpt>
      <trkpt lat="-22.141720" lon="-45.408753">
        <ele>1161.532</ele>
        <time>2019-10-16T14:14:29Z</time>
      </trkpt>
      <trkpt lat="-22.141762" lon="-45.408722">
        <ele>1161.870</ele>
        <time>2019-10-16T14:14:34Z</time>
      </trkpt>
      <trkpt lat="-22.141811" lon="-45.408683">
        <ele>1162.343</ele>
        <time>2019-10-16T14:14:40Z</time>
      </trkpt>
      <trkpt lat="-22.141848" lon="-45.408652">
        <ele>1162.661</ele>
        <time>2019-10-16T14:14:45Z</time>
      </trkpt>
      <trkpt lat="-22.141882" lon="-45.408618">
        <ele>1163.061</ele>
        <time>2019-10-16T14:14:48Z</time>
      </trkpt>
      <trkpt lat="-22.141926" lon="-45.408561">
        <ele>1163.763</ele>
        <time>2019-10-16T14:14:56Z</time>
      </trkpt>
      <trkpt lat="-22.141968" lon="-45.408501">
        <ele>1164.577</ele>
        <time>2019-10-16T14:15:03Z</time>
      </trkpt>
      <trkpt lat="-22.141998" lon="-45.408461">
        <ele>1165.054</ele>
        <time>2019-10-16T14:15:06Z</time>
      </trkpt>
      <trkpt lat="-22.142041" lon="-45.408407">
        <ele>1165.698</ele>
        <time>2019-10-16T14:15:08Z</time>
      </trkpt>
      <trkpt lat="-22.142073" lon="-45.408370">
        <ele>1165.915</ele>
        <time>2019-10-16T14:15:13Z</time>
      </trkpt>
      <trkpt lat="-22.142121" lon="-45.408315">
        <ele>1166.326</ele>
        <time>2019-10-16T14:15:19Z</time>
      </trkpt>
      <trkpt lat="-22.142145" lon="-45.408273">
        <ele>1166.508</ele>
        <time>2019-10-16T14:15:23Z</time>
      </trkpt>
      <trkpt lat="-22.142170" lon="-45.408214">
        <ele>1166.993</ele>
        <time>2019-10-16T14:15:28Z</time>
      </trkpt>
      <trkpt lat="-22.142181" lon="-45.408150">
        <ele>1167.661</ele>
        <time>2019-10-16T14:15:30Z</time>
      </trkpt>
      <trkpt lat="-22.142193" lon="-45.408100">
        <ele>1168.064</ele>
        <time>2019-10-16T14:15:34Z</time>
      </trkpt>
      <trkpt lat="-22.142207" lon="-45.408035">
        <ele>1168.612</ele>
        <time>2019-10-16T14:15:40Z</time>
      </trkpt>
      <trkpt lat="-22.142217" lon="-45.407983">
        <ele>1169.132</ele>
        <time>2019-10-16T14:15:44Z</time>
      </trkpt>
      <trkpt lat="-22.142214" lon="-45.407934">
        <ele>1169.724</ele>
        <time>2019-10-16T14:15:49Z</time>
      </trkpt>
      <trkpt lat="-22.142202" lon="-45.407879">
        <ele>1170.528</ele>
        <time>2019-10-16T14:15:53Z</time>
      </trkpt>
      <trkpt lat="-22.142189" lon="-45.407822">
        <ele>1171.315</ele>
        <time>2019-10-16T14:15:55Z</time>
      </trkpt>
      <trkpt lat="-22.142183" lon="-45.407767">
        <ele>1172.073</ele>
        <time>2019-10-16T14:15:59Z</time>
      </trkpt>
      <trkpt lat="-22.142128" lon="-45.407720">
        <ele>1173.085</ele>
        <time>2019-10-16T14:16:03Z</time>
      </trkpt>
      <trkpt lat="-22.142082" lon="-45.407694">
        <ele>1173.813</ele>
        <time>2019-10-16T14:16:07Z</time>
      </trkpt>
      <trkpt lat="-22.142022" lon="-45.407639">
        <ele>1175.008</ele>
        <time>2019-10-16T14:16:12Z</time>
      </trkpt>
      <trkpt lat="-22.141983" lon="-45.407609">
        <ele>1175.721</ele>
        <time>2019-10-16T14:16:16Z</time>
      </trkpt>
      <trkpt lat="-22.141933" lon="-45.407582">
        <ele>1176.529</ele>
        <time>2019-10-16T14:16:19Z</time>
      </trkpt>
      <trkpt lat="-22.141896" lon="-45.407531">
        <ele>1177.542</ele>
        <time>2019-10-16T14:16:23Z</time>
      </trkpt>
      <trkpt lat="-22.141866" lon="-45.407489">
        <ele>1178.430</ele>
        <time>2019-10-16T14:16:26Z</time>
      </trkpt>
      <trkpt lat="-22.141850" lon="-45.407437">
        <ele>1179.880</ele>
        <time>2019-10-16T14:16:29Z</time>
      </trkpt>
      <trkpt lat="-22.141841" lon="-45.407387">
        <ele>1181.132</ele>
        <time>2019-10-16T14:16:33Z</time>
      </trkpt>
      <trkpt lat="-22.141834" lon="-45.407336">
        <ele>1182.436</ele>
        <time>2019-10-16T14:16:36Z</time>
      </trkpt>
      <trkpt lat="-22.141851" lon="-45.407271">
        <ele>1183.833</ele>
        <time>2019-10-16T14:16:40Z</time>
      </trkpt>
      <trkpt lat="-22.141862" lon="-45.407221">
        <ele>1184.918</ele>
        <time>2019-10-16T14:16:46Z</time>
      </trkpt>
      <trkpt lat="-22.141890" lon="-45.407167">
        <ele>1186.098</ele>
        <time>2019-10-16T14:16:51Z</time>
      </trkpt>
      <trkpt lat="-22.141920" lon="-45.407126">
        <ele>1186.717</ele>
        <time>2019-10-16T14:16:57Z</time>
      </trkpt>
      <trkpt lat="-22.141955" lon="-45.407084">
        <ele>1187.408</ele>
        <time>2019-10-16T14:17:01Z</time>
      </trkpt>
      <trkpt lat="-22.141990" lon="-45.407047">
        <ele>1188.055</ele>
        <time>2019-10-16T14:17:04Z</time>
      </trkpt>
      <trkpt lat="-22.142027" lon="-45.407011">
        <ele>1188.513</ele>
        <time>2019-10-16T14:17:08Z</time>
      </trkpt>
      <trkpt lat="-22.142059" lon="-45.406974">
        <ele>1189.286</ele>
        <time>2019-10-16T14:17:12Z</time>
      </trkpt>
      <trkpt lat="-22.142087" lon="-45.406935">
        <ele>1189.984</ele>
        <time>2019-10-16T14:17:15Z</time>
      </trkpt>
      <trkpt lat="-22.142118" lon="-45.406890">
        <ele>1190.764</ele>
        <time>2019-10-16T14:17:20Z</time>
      </trkpt>
      <trkpt lat="-22.142146" lon="-45.406850">
        <ele>1191.496</ele>
        <time>2019-10-16T14:17:24Z</time>
      </trkpt>
      <trkpt lat="-22.142173" lon="-45.406803">
        <ele>1192.430</ele>
        <time>2019-10-16T14:17:28Z</time>
      </trkpt>
      <trkpt lat="-22.142202" lon="-45.406750">
        <ele>1193.427</ele>
        <time>2019-10-16T14:17:32Z</time>
      </trkpt>
      <trkpt lat="-22.142236" lon="-45.406702">
        <ele>1194.374</ele>
        <time>2019-10-16T14:17:37Z</time>
      </trkpt>
      <trkpt lat="-22.142266" lon="-45.406647">
        <ele>1195.656</ele>
        <time>2019-10-16T14:17:42Z</time>
      </trkpt>
      <trkpt lat="-22.142290" lon="-45.406603">
        <ele>1196.721</ele>
        <time>2019-10-16T14:17:45Z</time>
      </trkpt>
      <trkpt lat="-22.142327" lon="-45.406541">
        <ele>1198.208</ele>
        <time>2019-10-16T14:17:51Z</time>
      </trkpt>
      <trkpt lat="-22.142362" lon="-45.406494">
        <ele>1199.211</ele>
        <time>2019-10-16T14:17:55Z</time>
      </trkpt>
      <trkpt lat="-22.142400" lon="-45.406443">
        <ele>1200.479</ele>
        <time>2019-10-16T14:18:00Z</time>
      </trkpt>
      <trkpt lat="-22.142435" lon="-45.406399">
        <ele>1201.322</ele>
        <time>2019-10-16T14:18:05Z</time>
      </trkpt>
      <trkpt lat="-22.142471" lon="-45.406364">
        <ele>1202.030</ele>
        <time>2019-10-16T14:18:09Z</time>
      </trkpt>
      <trkpt lat="-22.142516" lon="-45.406326">
        <ele>1202.880</ele>
        <time>2019-10-16T14:18:13Z</time>
      </trkpt>
      <trkpt lat="-22.142562" lon="-45.406299">
        <ele>1203.672</ele>
        <time>2019-10-16T14:18:17Z</time>
      </trkpt>
      <trkpt lat="-22.142605" lon="-45.406282">
        <ele>1204.046</ele>
        <time>2019-10-16T14:18:21Z</time>
      </trkpt>
      <trkpt lat="-22.142653" lon="-45.406275">
        <ele>1204.243</ele>
        <time>2019-10-16T14:18:24Z</time>
      </trkpt>
      <trkpt lat="-22.142700" lon="-45.406280">
        <ele>1204.066</ele>
        <time>2019-10-16T14:18:27Z</time>
      </trkpt>
      <trkpt lat="-22.142746" lon="-45.406284">
        <ele>1203.929</ele>
        <time>2019-10-16T14:18:30Z</time>
      </trkpt>
      <trkpt lat="-22.142811" lon="-45.406307">
        <ele>1203.221</ele>
        <time>2019-10-16T14:18:36Z</time>
      </trkpt>
      <trkpt lat="-22.142863" lon="-45.406333">
        <ele>1202.408</ele>
        <time>2019-10-16T14:18:39Z</time>
      </trkpt>
      <trkpt lat="-22.142917" lon="-45.406372">
        <ele>1201.370</ele>
        <time>2019-10-16T14:18:42Z</time>
      </trkpt>
      <trkpt lat="-22.142979" lon="-45.406394">
        <ele>1200.768</ele>
        <time>2019-10-16T14:18:46Z</time>
      </trkpt>
      <trkpt lat="-22.143035" lon="-45.406411">
        <ele>1200.271</ele>
        <time>2019-10-16T14:18:51Z</time>
      </trkpt>
      <trkpt lat="-22.143094" lon="-45.406420">
        <ele>1199.919</ele>
        <time>2019-10-16T14:18:56Z</time>
      </trkpt>
      <trkpt lat="-22.143139" lon="-45.406426">
        <ele>1199.779</ele>
        <time>2019-10-16T14:19:01Z</time>
      </trkpt>
      <trkpt lat="-22.143185" lon="-45.406424">
        <ele>1199.771</ele>
        <time>2019-10-16T14:19:06Z</time>
      </trkpt>
      <trkpt lat="-22.143237" lon="-45.406422">
        <ele>1199.855</ele>
        <time>2019-10-16T14:19:13Z</time>
      </trkpt>
      <trkpt lat="-22.143285" lon="-45.406410">
        <ele>1200.112</ele>
        <time>2019-10-16T14:19:17Z</time>
      </trkpt>
      <trkpt lat="-22.143338" lon="-45.406392">
        <ele>1200.591</ele>
        <time>2019-10-16T14:19:22Z</time>
      </trkpt>
      <trkpt lat="-22.143378" lon="-45.406370">
        <ele>1200.481</ele>
        <time>2019-10-16T14:19:26Z</time>
      </trkpt>
      <trkpt lat="-22.143421" lon="-45.406316">
        <ele>1201.219</ele>
        <time>2019-10-16T14:19:29Z</time>
      </trkpt>
      <trkpt lat="-22.143441" lon="-45.406228">
        <ele>1203.108</ele>
        <time>2019-10-16T14:19:33Z</time>
      </trkpt>
      <trkpt lat="-22.143441" lon="-45.406177">
        <ele>1204.523</ele>
        <time>2019-10-16T14:19:36Z</time>
      </trkpt>
      <trkpt lat="-22.143445" lon="-45.406123">
        <ele>1205.861</ele>
        <time>2019-10-16T14:19:39Z</time>
      </trkpt>
      <trkpt lat="-22.143435" lon="-45.406044">
        <ele>1208.144</ele>
        <time>2019-10-16T14:19:44Z</time>
      </trkpt>
      <trkpt lat="-22.143440" lon="-45.405979">
        <ele>1209.722</ele>
        <time>2019-10-16T14:19:47Z</time>
      </trkpt>
      <trkpt lat="-22.143458" lon="-45.405927">
        <ele>1210.722</ele>
        <time>2019-10-16T14:19:51Z</time>
      </trkpt>
      <trkpt lat="-22.143483" lon="-45.405884">
        <ele>1211.364</ele>
        <time>2019-10-16T14:19:55Z</time>
      </trkpt>
      <trkpt lat="-22.143509" lon="-45.405837">
        <ele>1211.938</ele>
        <time>2019-10-16T14:19:59Z</time>
      </trkpt>
      <trkpt lat="-22.143536" lon="-45.405797">
        <ele>1212.565</ele>
        <time>2019-10-16T14:20:03Z</time>
      </trkpt>
      <trkpt lat="-22.143571" lon="-45.405751">
        <ele>1213.024</ele>
        <time>2019-10-16T14:20:07Z</time>
      </trkpt>
      <trkpt lat="-22.143613" lon="-45.405702">
        <ele>1213.304</ele>
        <time>2019-10-16T14:20:11Z</time>
      </trkpt>
      <trkpt lat="-22.143645" lon="-45.405660">
        <ele>1213.714</ele>
        <time>2019-10-16T14:20:16Z</time>
      </trkpt>
      <trkpt lat="-22.143673" lon="-45.405619">
        <ele>1214.108</ele>
        <time>2019-10-16T14:20:20Z</time>
      </trkpt>
      <trkpt lat="-22.143725" lon="-45.405571">
        <ele>1214.066</ele>
        <time>2019-10-16T14:20:26Z</time>
      </trkpt>
      <trkpt lat="-22.143765" lon="-45.405540">
        <ele>1213.684</ele>
        <time>2019-10-16T14:20:29Z</time>
      </trkpt>
      <trkpt lat="-22.143800" lon="-45.405510">
        <ele>1213.457</ele>
        <time>2019-10-16T14:20:33Z</time>
      </trkpt>
      <trkpt lat="-22.143836" lon="-45.405475">
        <ele>1213.275</ele>
        <time>2019-10-16T14:20:39Z</time>
      </trkpt>
      <trkpt lat="-22.143872" lon="-45.405427">
        <ele>1213.315</ele>
        <time>2019-10-16T14:20:45Z</time>
      </trkpt>
      <trkpt lat="-22.143905" lon="-45.405377">
        <ele>1213.497</ele>
        <time>2019-10-16T14:20:51Z</time>
      </trkpt>
      <trkpt lat="-22.143938" lon="-45.405333">
        <ele>1213.471</ele>
        <time>2019-10-16T14:20:55Z</time>
      </trkpt>
      <trkpt lat="-22.143972" lon="-45.405286">
        <ele>1213.388</ele>
        <time>2019-10-16T14:21:00Z</time>
      </trkpt>
      <trkpt lat="-22.144002" lon="-45.405242">
        <ele>1213.218</ele>
        <time>2019-10-16T14:21:04Z</time>
      </trkpt>
      <trkpt lat="-22.144026" lon="-45.405192">
        <ele>1213.498</ele>
        <time>2019-10-16T14:21:08Z</time>
      </trkpt>
      <trkpt lat="-22.144048" lon="-45.405145">
        <ele>1213.617</ele>
        <time>2019-10-16T14:21:12Z</time>
      </trkpt>
      <trkpt lat="-22.144070" lon="-45.405101">
        <ele>1213.708</ele>
        <time>2019-10-16T14:21:16Z</time>
      </trkpt>
      <trkpt lat="-22.144086" lon="-45.405054">
        <ele>1214.025</ele>
        <time>2019-10-16T14:21:20Z</time>
      </trkpt>
      <trkpt lat="-22.144099" lon="-45.405005">
        <ele>1214.543</ele>
        <time>2019-10-16T14:21:24Z</time>
      </trkpt>
      <trkpt lat="-22.144112" lon="-45.404952">
        <ele>1214.626</ele>
        <time>2019-10-16T14:21:28Z</time>
      </trkpt>
      <trkpt lat="-22.144116" lon="-45.404900">
        <ele>1215.194</ele>
        <time>2019-10-16T14:21:33Z</time>
      </trkpt>
      <trkpt lat="-22.144123" lon="-45.404844">
        <ele>1215.574</ele>
        <time>2019-10-16T14:21:38Z</time>
      </trkpt>
      <trkpt lat="-22.144129" lon="-45.404790">
        <ele>1215.986</ele>
        <time>2019-10-16T14:21:42Z</time>
      </trkpt>
      <trkpt lat="-22.144132" lon="-45.404737">
        <ele>1216.450</ele>
        <time>2019-10-16T14:21:46Z</time>
      </trkpt>
      <trkpt lat="-22.144131" lon="-45.404686">
        <ele>1217.037</ele>
        <time>2019-10-16T14:21:51Z</time>
      </trkpt>
      <trkpt lat="-22.144127" lon="-45.404629">
        <ele>1217.887</ele>
        <time>2019-10-16T14:21:56Z</time>
      </trkpt>
      <trkpt lat="-22.144107" lon="-45.404578">
        <ele>1219.042</ele>
        <time>2019-10-16T14:22:00Z</time>
      </trkpt>
      <trkpt lat="-22.144073" lon="-45.404542">
        <ele>1220.526</ele>
        <time>2019-10-16T14:22:04Z</time>
      </trkpt>
      <trkpt lat="-22.144026" lon="-45.404506">
        <ele>1222.408</ele>
        <time>2019-10-16T14:22:09Z</time>
      </trkpt>
      <trkpt lat="-22.143961" lon="-45.404484">
        <ele>1224.742</ele>
        <time>2019-10-16T14:22:12Z</time>
      </trkpt>
      <trkpt lat="-22.143916" lon="-45.404476">
        <ele>1226.230</ele>
        <time>2019-10-16T14:22:14Z</time>
      </trkpt>
      <trkpt lat="-22.143867" lon="-45.404452">
        <ele>1228.043</ele>
        <time>2019-10-16T14:22:18Z</time>
      </trkpt>
      <trkpt lat="-22.143823" lon="-45.404411">
        <ele>1229.671</ele>
        <time>2019-10-16T14:22:23Z</time>
      </trkpt>
      <trkpt lat="-22.143778" lon="-45.404376">
        <ele>1231.381</ele>
        <time>2019-10-16T14:22:28Z</time>
      </trkpt>
      <trkpt lat="-22.143736" lon="-45.404332">
        <ele>1232.853</ele>
        <time>2019-10-16T14:22:31Z</time>
      </trkpt>
      <trkpt lat="-22.143696" lon="-45.404293">
        <ele>1234.257</ele>
        <time>2019-10-16T14:22:35Z</time>
      </trkpt>
      <trkpt lat="-22.143664" lon="-45.404255">
        <ele>1235.494</ele>
        <time>2019-10-16T14:22:40Z</time>
      </trkpt>
      <trkpt lat="-22.143641" lon="-45.404202">
        <ele>1236.383</ele>
        <time>2019-10-16T14:22:45Z</time>
      </trkpt>
      <trkpt lat="-22.143635" lon="-45.404148">
        <ele>1236.725</ele>
        <time>2019-10-16T14:22:49Z</time>
      </trkpt>
      <trkpt lat="-22.143634" lon="-45.404098">
        <ele>1236.817</ele>
        <time>2019-10-16T14:22:54Z</time>
      </trkpt>
      <trkpt lat="-22.143621" lon="-45.404047">
        <ele>1237.208</ele>
        <time>2019-10-16T14:23:00Z</time>
      </trkpt>
      <trkpt lat="-22.143596" lon="-45.403997">
        <ele>1237.952</ele>
        <time>2019-10-16T14:23:06Z</time>
      </trkpt>
      <trkpt lat="-22.143576" lon="-45.403952">
        <ele>1238.420</ele>
        <time>2019-10-16T14:23:09Z</time>
      </trkpt>
      <trkpt lat="-22.143550" lon="-45.403910">
        <ele>1239.183</ele>
        <time>2019-10-16T14:23:14Z</time>
      </trkpt>
      <trkpt lat="-22.143511" lon="-45.403868">
        <ele>1240.141</ele>
        <time>2019-10-16T14:23:19Z</time>
      </trkpt>
      <trkpt lat="-22.143467" lon="-45.403835">
        <ele>1241.241</ele>
        <time>2019-10-16T14:23:23Z</time>
      </trkpt>
      <trkpt lat="-22.143414" lon="-45.403792">
        <ele>1242.573</ele>
        <time>2019-10-16T14:23:29Z</time>
      </trkpt>
      <trkpt lat="-22.143375" lon="-45.403749">
        <ele>1243.517</ele>
        <time>2019-10-16T14:23:34Z</time>
      </trkpt>
      <trkpt lat="-22.143334" lon="-45.403688">
        <ele>1244.474</ele>
        <time>2019-10-16T14:23:40Z</time>
      </trkpt>
      <trkpt lat="-22.143314" lon="-45.403644">
        <ele>1245.132</ele>
        <time>2019-10-16T14:23:46Z</time>
      </trkpt>
      <trkpt lat="-22.143297" lon="-45.403593">
        <ele>1245.792</ele>
        <time>2019-10-16T14:23:50Z</time>
      </trkpt>
      <trkpt lat="-22.143288" lon="-45.403540">
        <ele>1246.011</ele>
        <time>2019-10-16T14:23:55Z</time>
      </trkpt>
      <trkpt lat="-22.143277" lon="-45.403473">
        <ele>1246.408</ele>
        <time>2019-10-16T14:24:02Z</time>
      </trkpt>
      <trkpt lat="-22.143271" lon="-45.403411">
        <ele>1246.557</ele>
        <time>2019-10-16T14:24:09Z</time>
      </trkpt>
      <trkpt lat="-22.143272" lon="-45.403357">
        <ele>1246.495</ele>
        <time>2019-10-16T14:24:14Z</time>
      </trkpt>
      <trkpt lat="-22.143277" lon="-45.403297">
        <ele>1246.568</ele>
        <time>2019-10-16T14:24:20Z</time>
      </trkpt>
      <trkpt lat="-22.143280" lon="-45.403245">
        <ele>1246.926</ele>
        <time>2019-10-16T14:24:25Z</time>
      </trkpt>
      <trkpt lat="-22.143275" lon="-45.403176">
        <ele>1247.776</ele>
        <time>2019-10-16T14:24:30Z</time>
      </trkpt>
      <trkpt lat="-22.143272" lon="-45.403124">
        <ele>1248.258</ele>
        <time>2019-10-16T14:24:34Z</time>
      </trkpt>
      <trkpt lat="-22.143265" lon="-45.403075">
        <ele>1248.972</ele>
        <time>2019-10-16T14:24:38Z</time>
      </trkpt>
      <trkpt lat="-22.143255" lon="-45.403019">
        <ele>1249.769</ele>
        <time>2019-10-16T14:24:43Z</time>
      </trkpt>
      <trkpt lat="-22.143248" lon="-45.402968">
        <ele>1250.349</ele>
        <time>2019-10-16T14:24:47Z</time>
      </trkpt>
      <trkpt lat="-22.143243" lon="-45.402916">
        <ele>1250.902</ele>
        <time>2019-10-16T14:24:52Z</time>
      </trkpt>
      <trkpt lat="-22.143233" lon="-45.402818">
        <ele>1251.922</ele>
        <time>2019-10-16T14:24:59Z</time>
      </trkpt>
      <trkpt lat="-22.143219" lon="-45.402762">
        <ele>1252.708</ele>
        <time>2019-10-16T14:25:01Z</time>
      </trkpt>
      <trkpt lat="-22.143203" lon="-45.402711">
        <ele>1253.448</ele>
        <time>2019-10-16T14:25:05Z</time>
      </trkpt>
      <trkpt lat="-22.143183" lon="-45.402646">
        <ele>1254.216</ele>
        <time>2019-10-16T14:25:11Z</time>
      </trkpt>
      <trkpt lat="-22.143163" lon="-45.402601">
        <ele>1254.949</ele>
        <time>2019-10-16T14:25:16Z</time>
      </trkpt>
      <trkpt lat="-22.143135" lon="-45.402551">
        <ele>1255.667</ele>
        <time>2019-10-16T14:25:21Z</time>
      </trkpt>
      <trkpt lat="-22.143107" lon="-45.402511">
        <ele>1256.217</ele>
        <time>2019-10-16T14:25:26Z</time>
      </trkpt>
      <trkpt lat="-22.143079" lon="-45.402472">
        <ele>1256.929</ele>
        <time>2019-10-16T14:25:30Z</time>
      </trkpt>
      <trkpt lat="-22.143050" lon="-45.402425">
        <ele>1257.713</ele>
        <time>2019-10-16T14:25:34Z</time>
      </trkpt>
      <trkpt lat="-22.143024" lon="-45.402384">
        <ele>1258.440</ele>
        <time>2019-10-16T14:25:37Z</time>
      </trkpt>
      <trkpt lat="-22.142983" lon="-45.402327">
        <ele>1259.479</ele>
        <time>2019-10-16T14:25:43Z</time>
      </trkpt>
      <trkpt lat="-22.142958" lon="-45.402286">
        <ele>1260.005</ele>
        <time>2019-10-16T14:25:47Z</time>
      </trkpt>
      <trkpt lat="-22.142934" lon="-45.402235">
        <ele>1260.725</ele>
        <time>2019-10-16T14:25:51Z</time>
      </trkpt>
      <trkpt lat="-22.142929" lon="-45.402182">
        <ele>1261.108</ele>
        <time>2019-10-16T14:25:55Z</time>
      </trkpt>
      <trkpt lat="-22.142944" lon="-45.402107">
        <ele>1261.591</ele>
        <time>2019-10-16T14:26:00Z</time>
      </trkpt>
      <trkpt lat="-22.142995" lon="-45.402046">
        <ele>1261.469</ele>
        <time>2019-10-16T14:26:03Z</time>
      </trkpt>
      <trkpt lat="-22.143021" lon="-45.402005">
        <ele>1261.552</ele>
        <time>2019-10-16T14:26:06Z</time>
      </trkpt>
      <trkpt lat="-22.143048" lon="-45.401953">
        <ele>1261.730</ele>
        <time>2019-10-16T14:26:10Z</time>
      </trkpt>
      <trkpt lat="-22.143068" lon="-45.401901">
        <ele>1261.910</ele>
        <time>2019-10-16T14:26:14Z</time>
      </trkpt>
      <trkpt lat="-22.143083" lon="-45.401846">
        <ele>1262.372</ele>
        <time>2019-10-16T14:26:20Z</time>
      </trkpt>
      <trkpt lat="-22.143100" lon="-45.401797">
        <ele>1262.576</ele>
        <time>2019-10-16T14:26:25Z</time>
      </trkpt>
      <trkpt lat="-22.143122" lon="-45.401744">
        <ele>1262.833</ele>
        <time>2019-10-16T14:26:33Z</time>
      </trkpt>
      <trkpt lat="-22.143141" lon="-45.401691">
        <ele>1263.213</ele>
        <time>2019-10-16T14:26:38Z</time>
      </trkpt>
      <trkpt lat="-22.143169" lon="-45.401624">
        <ele>1263.943</ele>
        <time>2019-10-16T14:26:45Z</time>
      </trkpt>
      <trkpt lat="-22.143195" lon="-45.401570">
        <ele>1264.507</ele>
        <time>2019-10-16T14:26:52Z</time>
      </trkpt>
      <trkpt lat="-22.143221" lon="-45.401512">
        <ele>1265.208</ele>
        <time>2019-10-16T14:26:59Z</time>
      </trkpt>
      <trkpt lat="-22.143252" lon="-45.401457">
        <ele>1265.895</ele>
        <time>2019-10-16T14:27:06Z</time>
      </trkpt>
      <trkpt lat="-22.143267" lon="-45.401408">
        <ele>1266.483</ele>
        <time>2019-10-16T14:27:12Z</time>
      </trkpt>
      <trkpt lat="-22.143279" lon="-45.401356">
        <ele>1267.096</ele>
        <time>2019-10-16T14:27:18Z</time>
      </trkpt>
      <trkpt lat="-22.143283" lon="-45.401304">
        <ele>1267.734</ele>
        <time>2019-10-16T14:27:24Z</time>
      </trkpt>
      <trkpt lat="-22.143275" lon="-45.401251">
        <ele>1268.684</ele>
        <time>2019-10-16T14:27:31Z</time>
      </trkpt>
      <trkpt lat="-22.143259" lon="-45.401201">
        <ele>1269.526</ele>
        <time>2019-10-16T14:27:36Z</time>
      </trkpt>
      <trkpt lat="-22.143236" lon="-45.401157">
        <ele>1270.550</ele>
        <time>2019-10-16T14:27:40Z</time>
      </trkpt>
      <trkpt lat="-22.143206" lon="-45.401104">
        <ele>1271.657</ele>
        <time>2019-10-16T14:27:44Z</time>
      </trkpt>
      <trkpt lat="-22.143184" lon="-45.401048">
        <ele>1272.882</ele>
        <time>2019-10-16T14:27:49Z</time>
      </trkpt>
      <trkpt lat="-22.143172" lon="-45.400987">
        <ele>1273.943</ele>
        <time>2019-10-16T14:27:54Z</time>
      </trkpt>
      <trkpt lat="-22.143169" lon="-45.400931">
        <ele>1274.817</ele>
        <time>2019-10-16T14:27:59Z</time>
      </trkpt>
      <trkpt lat="-22.143176" lon="-45.400882">
        <ele>1275.508</ele>
        <time>2019-10-16T14:28:04Z</time>
      </trkpt>
      <trkpt lat="-22.143188" lon="-45.400835">
        <ele>1276.132</ele>
        <time>2019-10-16T14:28:08Z</time>
      </trkpt>
      <trkpt lat="-22.143207" lon="-45.400775">
        <ele>1276.780</ele>
        <time>2019-10-16T14:28:15Z</time>
      </trkpt>
      <trkpt lat="-22.143216" lon="-45.400726">
        <ele>1277.263</ele>
        <time>2019-10-16T14:28:19Z</time>
      </trkpt>
      <trkpt lat="-22.143223" lon="-45.400673">
        <ele>1277.961</ele>
        <time>2019-10-16T14:28:24Z</time>
      </trkpt>
      <trkpt lat="-22.143224" lon="-45.400624">
        <ele>1278.621</ele>
        <time>2019-10-16T14:28:28Z</time>
      </trkpt>
      <trkpt lat="-22.143222" lon="-45.400569">
        <ele>1279.463</ele>
        <time>2019-10-16T14:28:34Z</time>
      </trkpt>
      <trkpt lat="-22.143222" lon="-45.400517">
        <ele>1280.147</ele>
        <time>2019-10-16T14:28:40Z</time>
      </trkpt>
      <trkpt lat="-22.143225" lon="-45.400459">
        <ele>1280.944</ele>
        <time>2019-10-16T14:28:46Z</time>
      </trkpt>
      <trkpt lat="-22.143231" lon="-45.400389">
        <ele>1281.853</ele>
        <time>2019-10-16T14:28:53Z</time>
      </trkpt>
      <trkpt lat="-22.143244" lon="-45.400340">
        <ele>1282.204</ele>
        <time>2019-10-16T14:28:58Z</time>
      </trkpt>
      <trkpt lat="-22.143247" lon="-45.400289">
        <ele>1282.914</ele>
        <time>2019-10-16T14:29:02Z</time>
      </trkpt>
      <trkpt lat="-22.143250" lon="-45.400235">
        <ele>1283.608</ele>
        <time>2019-10-16T14:29:07Z</time>
      </trkpt>
      <trkpt lat="-22.143254" lon="-45.400182">
        <ele>1284.349</ele>
        <time>2019-10-16T14:29:12Z</time>
      </trkpt>
      <trkpt lat="-22.143258" lon="-45.400127">
        <ele>1284.977</ele>
        <time>2019-10-16T14:29:16Z</time>
      </trkpt>
      <trkpt lat="-22.143253" lon="-45.400066">
        <ele>1285.940</ele>
        <time>2019-10-16T14:29:19Z</time>
      </trkpt>
      <trkpt lat="-22.143248" lon="-45.400017">
        <ele>1286.748</ele>
        <time>2019-10-16T14:29:21Z</time>
      </trkpt>
      <trkpt lat="-22.143248" lon="-45.399962">
        <ele>1287.618</ele>
        <time>2019-10-16T14:29:25Z</time>
      </trkpt>
      <trkpt lat="-22.143253" lon="-45.399908">
        <ele>1288.550</ele>
        <time>2019-10-16T14:29:28Z</time>
      </trkpt>
      <trkpt lat="-22.143268" lon="-45.399857">
        <ele>1289.194</ele>
        <time>2019-10-16T14:29:31Z</time>
      </trkpt>
      <trkpt lat="-22.143283" lon="-45.399791">
        <ele>1290.151</ele>
        <time>2019-10-16T14:29:35Z</time>
      </trkpt>
      <trkpt lat="-22.143292" lon="-45.399743">
        <ele>1290.888</ele>
        <time>2019-10-16T14:29:38Z</time>
      </trkpt>
      <trkpt lat="-22.143315" lon="-45.399689">
        <ele>1291.324</ele>
        <time>2019-10-16T14:29:41Z</time>
      </trkpt>
      <trkpt lat="-22.143341" lon="-45.399637">
        <ele>1291.926</ele>
        <time>2019-10-16T14:29:44Z</time>
      </trkpt>
      <trkpt lat="-22.143367" lon="-45.399594">
        <ele>1292.508</ele>
        <time>2019-10-16T14:29:47Z</time>
      </trkpt>
      <trkpt lat="-22.143399" lon="-45.399541">
        <ele>1293.262</ele>
        <time>2019-10-16T14:29:51Z</time>
      </trkpt>
      <trkpt lat="-22.143427" lon="-45.399500">
        <ele>1293.850</ele>
        <time>2019-10-16T14:29:56Z</time>
      </trkpt>
      <trkpt lat="-22.143467" lon="-45.399453">
        <ele>1294.433</ele>
        <time>2019-10-16T14:30:01Z</time>
      </trkpt>
      <trkpt lat="-22.143513" lon="-45.399422">
        <ele>1294.771</ele>
        <time>2019-10-16T14:30:03Z</time>
      </trkpt>
      <trkpt lat="-22.143553" lon="-45.399384">
        <ele>1295.221</ele>
        <time>2019-10-16T14:30:07Z</time>
      </trkpt>
      <trkpt lat="-22.143566" lon="-45.399331">
        <ele>1296.353</ele>
        <time>2019-10-16T14:30:10Z</time>
      </trkpt>
      <trkpt lat="-22.143609" lon="-45.399287">
        <ele>1297.047</ele>
        <time>2019-10-16T14:30:14Z</time>
      </trkpt>
      <trkpt lat="-22.143652" lon="-45.399248">
        <ele>1297.664</ele>
        <time>2019-10-16T14:30:18Z</time>
      </trkpt>
      <trkpt lat="-22.143695" lon="-45.399225">
        <ele>1297.944</ele>
        <time>2019-10-16T14:30:21Z</time>
      </trkpt>
      <trkpt lat="-22.143739" lon="-45.399211">
        <ele>1298.005</ele>
        <time>2019-10-16T14:30:24Z</time>
      </trkpt>
      <trkpt lat="-22.143792" lon="-45.399209">
        <ele>1297.815</ele>
        <time>2019-10-16T14:30:27Z</time>
      </trkpt>
      <trkpt lat="-22.143844" lon="-45.399207">
        <ele>1297.508</ele>
        <time>2019-10-16T14:30:30Z</time>
      </trkpt>
      <trkpt lat="-22.143891" lon="-45.399212">
        <ele>1297.248</ele>
        <time>2019-10-16T14:30:32Z</time>
      </trkpt>
      <trkpt lat="-22.143942" lon="-45.399215">
        <ele>1296.876</ele>
        <time>2019-10-16T14:30:33Z</time>
      </trkpt>
      <trkpt lat="-22.143995" lon="-45.399219">
        <ele>1296.439</ele>
        <time>2019-10-16T14:30:35Z</time>
      </trkpt>
      <trkpt lat="-22.144045" lon="-45.399225">
        <ele>1296.027</ele>
        <time>2019-10-16T14:30:36Z</time>
      </trkpt>
      <trkpt lat="-22.144091" lon="-45.399226">
        <ele>1295.757</ele>
        <time>2019-10-16T14:30:38Z</time>
      </trkpt>
      <trkpt lat="-22.144145" lon="-45.399230">
        <ele>1295.379</ele>
        <time>2019-10-16T14:30:40Z</time>
      </trkpt>
      <trkpt lat="-22.144196" lon="-45.399236">
        <ele>1294.883</ele>
        <time>2019-10-16T14:30:42Z</time>
      </trkpt>
      <trkpt lat="-22.144254" lon="-45.399235">
        <ele>1294.350</ele>
        <time>2019-10-16T14:30:45Z</time>
      </trkpt>
      <trkpt lat="-22.144305" lon="-45.399234">
        <ele>1294.013</ele>
        <time>2019-10-16T14:30:47Z</time>
      </trkpt>
      <trkpt lat="-22.144358" lon="-45.399221">
        <ele>1293.943</ele>
        <time>2019-10-16T14:30:50Z</time>
      </trkpt>
      <trkpt lat="-22.144401" lon="-45.399201">
        <ele>1294.107</ele>
        <time>2019-10-16T14:30:52Z</time>
      </trkpt>
      <trkpt lat="-22.144446" lon="-45.399173">
        <ele>1294.508</ele>
        <time>2019-10-16T14:30:54Z</time>
      </trkpt>
      <trkpt lat="-22.144478" lon="-45.399130">
        <ele>1295.645</ele>
        <time>2019-10-16T14:30:59Z</time>
      </trkpt>
      <trkpt lat="-22.144510" lon="-45.399091">
        <ele>1296.623</ele>
        <time>2019-10-16T14:31:04Z</time>
      </trkpt>
      <trkpt lat="-22.144545" lon="-45.399055">
        <ele>1297.516</ele>
        <time>2019-10-16T14:31:09Z</time>
      </trkpt>
      <trkpt lat="-22.144573" lon="-45.399009">
        <ele>1298.714</ele>
        <time>2019-10-16T14:31:14Z</time>
      </trkpt>
      <trkpt lat="-22.144607" lon="-45.398956">
        <ele>1300.114</ele>
        <time>2019-10-16T14:31:19Z</time>
      </trkpt>
      <trkpt lat="-22.144641" lon="-45.398917">
        <ele>1300.996</ele>
        <time>2019-10-16T14:31:24Z</time>
      </trkpt>
      <trkpt lat="-22.144687" lon="-45.398886">
        <ele>1301.340</ele>
        <time>2019-10-16T14:31:29Z</time>
      </trkpt>
      <trkpt lat="-22.144725" lon="-45.398859">
        <ele>1301.747</ele>
        <time>2019-10-16T14:31:34Z</time>
      </trkpt>
      <trkpt lat="-22.144766" lon="-45.398833">
        <ele>1301.999</ele>
        <time>2019-10-16T14:31:40Z</time>
      </trkpt>
      <trkpt lat="-22.144809" lon="-45.398787">
        <ele>1302.707</ele>
        <time>2019-10-16T14:31:46Z</time>
      </trkpt>
      <trkpt lat="-22.144850" lon="-45.398757">
        <ele>1303.027</ele>
        <time>2019-10-16T14:31:52Z</time>
      </trkpt>
      <trkpt lat="-22.144885" lon="-45.398725">
        <ele>1303.408</ele>
        <time>2019-10-16T14:31:56Z</time>
      </trkpt>
      <trkpt lat="-22.144928" lon="-45.398689">
        <ele>1303.733</ele>
        <time>2019-10-16T14:32:02Z</time>
      </trkpt>
      <trkpt lat="-22.144973" lon="-45.398651">
        <ele>1304.041</ele>
        <time>2019-10-16T14:32:06Z</time>
      </trkpt>
      <trkpt lat="-22.145009" lon="-45.398615">
        <ele>1304.344</ele>
        <time>2019-10-16T14:32:10Z</time>
      </trkpt>
      <trkpt lat="-22.145047" lon="-45.398557">
        <ele>1304.812</ele>
        <time>2019-10-16T14:32:16Z</time>
      </trkpt>
      <trkpt lat="-22.145066" lon="-45.398508">
        <ele>1305.692</ele>
        <time>2019-10-16T14:32:20Z</time>
      </trkpt>
      <trkpt lat="-22.145079" lon="-45.398461">
        <ele>1306.464</ele>
        <time>2019-10-16T14:32:24Z</time>
      </trkpt>
      <trkpt lat="-22.145096" lon="-45.398412">
        <ele>1307.178</ele>
        <time>2019-10-16T14:32:28Z</time>
      </trkpt>
      <trkpt lat="-22.145103" lon="-45.398361">
        <ele>1308.285</ele>
        <time>2019-10-16T14:32:31Z</time>
      </trkpt>
      <trkpt lat="-22.145094" lon="-45.398311">
        <ele>1309.163</ele>
        <time>2019-10-16T14:32:35Z</time>
      </trkpt>
      <trkpt lat="-22.145080" lon="-45.398262">
        <ele>1309.444</ele>
        <time>2019-10-16T14:32:39Z</time>
      </trkpt>
      <trkpt lat="-22.145059" lon="-45.398211">
        <ele>1309.818</ele>
        <time>2019-10-16T14:32:43Z</time>
      </trkpt>
      <trkpt lat="-22.145026" lon="-45.398169">
        <ele>1310.508</ele>
        <time>2019-10-16T14:32:45Z</time>
      </trkpt>
      <trkpt lat="-22.144981" lon="-45.398125">
        <ele>1311.490</ele>
        <time>2019-10-16T14:32:48Z</time>
      </trkpt>
      <trkpt lat="-22.144961" lon="-45.398067">
        <ele>1311.718</ele>
        <time>2019-10-16T14:32:51Z</time>
      </trkpt>
      <trkpt lat="-22.144945" lon="-45.398020">
        <ele>1311.871</ele>
        <time>2019-10-16T14:32:54Z</time>
      </trkpt>
      <trkpt lat="-22.144914" lon="-45.397960">
        <ele>1312.429</ele>
        <time>2019-10-16T14:32:57Z</time>
      </trkpt>
      <trkpt lat="-22.144889" lon="-45.397919">
        <ele>1312.989</ele>
        <time>2019-10-16T14:33:00Z</time>
      </trkpt>
      <trkpt lat="-22.144857" lon="-45.397874">
        <ele>1313.611</ele>
        <time>2019-10-16T14:33:03Z</time>
      </trkpt>
      <trkpt lat="-22.144822" lon="-45.397838">
        <ele>1314.445</ele>
        <time>2019-10-16T14:33:08Z</time>
      </trkpt>
      <trkpt lat="-22.144787" lon="-45.397797">
        <ele>1315.392</ele>
        <time>2019-10-16T14:33:13Z</time>
      </trkpt>
      <trkpt lat="-22.144759" lon="-45.397756">
        <ele>1315.988</ele>
        <time>2019-10-16T14:33:16Z</time>
      </trkpt>
      <trkpt lat="-22.144725" lon="-45.397715">
        <ele>1316.824</ele>
        <time>2019-10-16T14:33:20Z</time>
      </trkpt>
      <trkpt lat="-22.144695" lon="-45.397671">
        <ele>1317.726</ele>
        <time>2019-10-16T14:33:21Z</time>
      </trkpt>
      <trkpt lat="-22.144647" lon="-45.397604">
        <ele>1319.008</ele>
        <time>2019-10-16T14:33:24Z</time>
      </trkpt>
      <trkpt lat="-22.144589" lon="-45.397520">
        <ele>1320.852</ele>
        <time>2019-10-16T14:33:28Z</time>
      </trkpt>
      <trkpt lat="-22.144557" lon="-45.397469">
        <ele>1322.190</ele>
        <time>2019-10-16T14:33:31Z</time>
      </trkpt>
      <trkpt lat="-22.144541" lon="-45.397417">
        <ele>1323.113</ele>
        <time>2019-10-16T14:33:33Z</time>
      </trkpt>
      <trkpt lat="-22.144528" lon="-45.397364">
        <ele>1324.061</ele>
        <time>2019-10-16T14:33:35Z</time>
      </trkpt>
      <trkpt lat="-22.144520" lon="-45.397312">
        <ele>1324.851</ele>
        <time>2019-10-16T14:33:37Z</time>
      </trkpt>
      <trkpt lat="-22.144528" lon="-45.397234">
        <ele>1325.253</ele>
        <time>2019-10-16T14:33:40Z</time>
      </trkpt>
      <trkpt lat="-22.144540" lon="-45.397178">
        <ele>1325.397</ele>
        <time>2019-10-16T14:33:43Z</time>
      </trkpt>
      <trkpt lat="-22.144551" lon="-45.397118">
        <ele>1325.544</ele>
        <time>2019-10-16T14:33:56Z</time>
      </trkpt>
      <trkpt lat="-22.144544" lon="-45.397067">
        <ele>1326.266</ele>
        <time>2019-10-16T14:34:26Z</time>
      </trkpt>
      <trkpt lat="-22.144545" lon="-45.397005">
        <ele>1326.829</ele>
        <time>2019-10-16T14:34:32Z</time>
      </trkpt>
      <trkpt lat="-22.144557" lon="-45.396943">
        <ele>1326.921</ele>
        <time>2019-10-16T14:34:35Z</time>
      </trkpt>
      <trkpt lat="-22.144575" lon="-45.396878">
        <ele>1326.908</ele>
        <time>2019-10-16T14:34:36Z</time>
      </trkpt>
      <trkpt lat="-22.144606" lon="-45.396810">
        <ele>1326.490</ele>
        <time>2019-10-16T14:34:38Z</time>
      </trkpt>
      <trkpt lat="-22.144632" lon="-45.396737">
        <ele>1326.188</ele>
        <time>2019-10-16T14:34:41Z</time>
      </trkpt>
      <trkpt lat="-22.144627" lon="-45.396684">
        <ele>1326.761</ele>
        <time>2019-10-16T14:34:44Z</time>
      </trkpt>
      <trkpt lat="-22.144634" lon="-45.396617">
        <ele>1327.319</ele>
        <time>2019-10-16T14:34:46Z</time>
      </trkpt>
      <trkpt lat="-22.144647" lon="-45.396569">
        <ele>1327.549</ele>
        <time>2019-10-16T14:34:48Z</time>
      </trkpt>
      <trkpt lat="-22.144664" lon="-45.396503">
        <ele>1327.731</ele>
        <time>2019-10-16T14:34:50Z</time>
      </trkpt>
      <trkpt lat="-22.144691" lon="-45.396460">
        <ele>1327.285</ele>
        <time>2019-10-16T14:34:52Z</time>
      </trkpt>
      <trkpt lat="-22.144720" lon="-45.396406">
        <ele>1326.812</ele>
        <time>2019-10-16T14:34:54Z</time>
      </trkpt>
      <trkpt lat="-22.144748" lon="-45.396360">
        <ele>1326.234</ele>
        <time>2019-10-16T14:34:56Z</time>
      </trkpt>
      <trkpt lat="-22.144761" lon="-45.396306">
        <ele>1326.355</ele>
        <time>2019-10-16T14:34:58Z</time>
      </trkpt>
      <trkpt lat="-22.144789" lon="-45.396249">
        <ele>1325.910</ele>
        <time>2019-10-16T14:35:01Z</time>
      </trkpt>
      <trkpt lat="-22.144831" lon="-45.396167">
        <ele>1325.108</ele>
        <time>2019-10-16T14:35:05Z</time>
      </trkpt>
      <trkpt lat="-22.144810" lon="-45.396117">
        <ele>1326.587</ele>
        <time>2019-10-16T14:35:08Z</time>
      </trkpt>
      <trkpt lat="-22.144793" lon="-45.396063">
        <ele>1327.975</ele>
        <time>2019-10-16T14:35:11Z</time>
      </trkpt>
      <trkpt lat="-22.144784" lon="-45.396003">
        <ele>1329.188</ele>
        <time>2019-10-16T14:35:15Z</time>
      </trkpt>
      <trkpt lat="-22.144778" lon="-45.395949">
        <ele>1330.016</ele>
        <time>2019-10-16T14:35:18Z</time>
      </trkpt>
      <trkpt lat="-22.144778" lon="-45.395898">
        <ele>1330.666</ele>
        <time>2019-10-16T14:35:20Z</time>
      </trkpt>
      <trkpt lat="-22.144802" lon="-45.395832">
        <ele>1330.328</ele>
        <time>2019-10-16T14:35:23Z</time>
      </trkpt>
      <trkpt lat="-22.144810" lon="-45.395776">
        <ele>1330.022</ele>
        <time>2019-10-16T14:35:25Z</time>
      </trkpt>
      <trkpt lat="-22.144811" lon="-45.395694">
        <ele>1330.249</ele>
        <time>2019-10-16T14:35:29Z</time>
      </trkpt>
      <trkpt lat="-22.144808" lon="-45.395633">
        <ele>1330.516</ele>
        <time>2019-10-16T14:35:31Z</time>
      </trkpt>
      <trkpt lat="-22.144814" lon="-45.395582">
        <ele>1330.476</ele>
        <time>2019-10-16T14:35:33Z</time>
      </trkpt>
      <trkpt lat="-22.144830" lon="-45.395517">
        <ele>1329.913</ele>
        <time>2019-10-16T14:35:35Z</time>
      </trkpt>
      <trkpt lat="-22.144839" lon="-45.395459">
        <ele>1329.808</ele>
        <time>2019-10-16T14:35:38Z</time>
      </trkpt>
      <trkpt lat="-22.144837" lon="-45.395407">
        <ele>1330.015</ele>
        <time>2019-10-16T14:35:40Z</time>
      </trkpt>
      <trkpt lat="-22.144825" lon="-45.395327">
        <ele>1330.723</ele>
        <time>2019-10-16T14:35:42Z</time>
      </trkpt>
      <trkpt lat="-22.144813" lon="-45.395209">
        <ele>1331.456</ele>
        <time>2019-10-16T14:35:44Z</time>
      </trkpt>
      <trkpt lat="-22.144795" lon="-45.395121">
        <ele>1332.194</ele>
        <time>2019-10-16T14:35:47Z</time>
      </trkpt>
      <trkpt lat="-22.144767" lon="-45.395055">
        <ele>1333.144</ele>
        <time>2019-10-16T14:35:48Z</time>
      </trkpt>
      <trkpt lat="-22.144576" lon="-45.394458">
        <ele>1335.596</ele>
        <time>2019-10-16T14:35:59Z</time>
      </trkpt>
      <trkpt lat="-22.144554" lon="-45.394396">
        <ele>1335.320</ele>
        <time>2019-10-16T14:36:02Z</time>
      </trkpt>
      <trkpt lat="-22.144546" lon="-45.394324">
        <ele>1334.957</ele>
        <time>2019-10-16T14:36:05Z</time>
      </trkpt>
      <trkpt lat="-22.144540" lon="-45.394270">
        <ele>1334.557</ele>
        <time>2019-10-16T14:36:12Z</time>
      </trkpt>
      <trkpt lat="-22.144527" lon="-45.394217">
        <ele>1334.200</ele>
        <time>2019-10-16T14:36:18Z</time>
      </trkpt>
      <trkpt lat="-22.144515" lon="-45.394167">
        <ele>1333.820</ele>
        <time>2019-10-16T14:36:26Z</time>
      </trkpt>
      <trkpt lat="-22.144505" lon="-45.394117">
        <ele>1334.008</ele>
        <time>2019-10-16T14:36:34Z</time>
      </trkpt>
      <trkpt lat="-22.144495" lon="-45.394068">
        <ele>1334.299</ele>
        <time>2019-10-16T14:36:44Z</time>
      </trkpt>
      <trkpt lat="-22.144487" lon="-45.394020">
        <ele>1334.487</ele>
        <time>2019-10-16T14:36:55Z</time>
      </trkpt>
      <trkpt lat="-22.144494" lon="-45.393970">
        <ele>1334.740</ele>
        <time>2019-10-16T14:37:15Z</time>
      </trkpt>
      <trkpt lat="-22.144501" lon="-45.393901">
        <ele>1335.028</ele>
        <time>2019-10-16T14:37:19Z</time>
      </trkpt>
      <trkpt lat="-22.144514" lon="-45.393817">
        <ele>1335.528</ele>
        <time>2019-10-16T14:37:23Z</time>
      </trkpt>
      <trkpt lat="-22.144519" lon="-45.393743">
        <ele>1335.940</ele>
        <time>2019-10-16T14:37:27Z</time>
      </trkpt>
      <trkpt lat="-22.144521" lon="-45.393671">
        <ele>1336.384</ele>
        <time>2019-10-16T14:37:28Z</time>
      </trkpt>
      <trkpt lat="-22.144526" lon="-45.393585">
        <ele>1336.841</ele>
        <time>2019-10-16T14:37:29Z</time>
      </trkpt>
      <trkpt lat="-22.144529" lon="-45.393488">
        <ele>1337.384</ele>
        <time>2019-10-16T14:37:31Z</time>
      </trkpt>
      <trkpt lat="-22.144531" lon="-45.393435">
        <ele>1337.607</ele>
        <time>2019-10-16T14:37:32Z</time>
      </trkpt>
      <trkpt lat="-22.144530" lon="-45.393356">
        <ele>1338.017</ele>
        <time>2019-10-16T14:37:36Z</time>
      </trkpt>
      <trkpt lat="-22.144537" lon="-45.393291">
        <ele>1338.708</ele>
        <time>2019-10-16T14:37:42Z</time>
      </trkpt>
      <trkpt lat="-22.144547" lon="-45.393231">
        <ele>1339.612</ele>
        <time>2019-10-16T14:37:48Z</time>
      </trkpt>
      <trkpt lat="-22.144583" lon="-45.393180">
        <ele>1340.840</ele>
        <time>2019-10-16T14:37:54Z</time>
      </trkpt>
      <trkpt lat="-22.144642" lon="-45.393161">
        <ele>1342.073</ele>
        <time>2019-10-16T14:38:00Z</time>
      </trkpt>
      <trkpt lat="-22.144690" lon="-45.393170">
        <ele>1342.761</ele>
        <time>2019-10-16T14:38:07Z</time>
      </trkpt>
      <trkpt lat="-22.144725" lon="-45.393203">
        <ele>1342.951</ele>
        <time>2019-10-16T14:38:13Z</time>
      </trkpt>
      <trkpt lat="-22.144763" lon="-45.393248">
        <ele>1343.013</ele>
        <time>2019-10-16T14:38:18Z</time>
      </trkpt>
      <trkpt lat="-22.144803" lon="-45.393304">
        <ele>1343.047</ele>
        <time>2019-10-16T14:38:23Z</time>
      </trkpt>
      <trkpt lat="-22.144842" lon="-45.393338">
        <ele>1343.344</ele>
        <time>2019-10-16T14:38:28Z</time>
      </trkpt>
      <trkpt lat="-22.144888" lon="-45.393377">
        <ele>1343.686</ele>
        <time>2019-10-16T14:38:34Z</time>
      </trkpt>
      <trkpt lat="-22.144938" lon="-45.393392">
        <ele>1344.260</ele>
        <time>2019-10-16T14:38:40Z</time>
      </trkpt>
      <trkpt lat="-22.144986" lon="-45.393395">
        <ele>1345.026</ele>
        <time>2019-10-16T14:38:44Z</time>
      </trkpt>
      <trkpt lat="-22.145034" lon="-45.393389">
        <ele>1345.608</ele>
        <time>2019-10-16T14:38:48Z</time>
      </trkpt>
      <trkpt lat="-22.145084" lon="-45.393380">
        <ele>1346.372</ele>
        <time>2019-10-16T14:38:53Z</time>
      </trkpt>
      <trkpt lat="-22.145130" lon="-45.393375">
        <ele>1346.940</ele>
        <time>2019-10-16T14:38:57Z</time>
      </trkpt>
      <trkpt lat="-22.145179" lon="-45.393358">
        <ele>1347.613</ele>
        <time>2019-10-16T14:39:05Z</time>
      </trkpt>
      <trkpt lat="-22.145244" lon="-45.393338">
        <ele>1348.651</ele>
        <time>2019-10-16T14:39:11Z</time>
      </trkpt>
      <trkpt lat="-22.145296" lon="-45.393320">
        <ele>1349.361</ele>
        <time>2019-10-16T14:39:15Z</time>
      </trkpt>
      <trkpt lat="-22.145339" lon="-45.393298">
        <ele>1350.023</ele>
        <time>2019-10-16T14:39:18Z</time>
      </trkpt>
      <trkpt lat="-22.145404" lon="-45.393269">
        <ele>1351.017</ele>
        <time>2019-10-16T14:39:23Z</time>
      </trkpt>
      <trkpt lat="-22.145446" lon="-45.393243">
        <ele>1351.754</ele>
        <time>2019-10-16T14:39:27Z</time>
      </trkpt>
      <trkpt lat="-22.145494" lon="-45.393225">
        <ele>1352.455</ele>
        <time>2019-10-16T14:39:35Z</time>
      </trkpt>
      <trkpt lat="-22.145547" lon="-45.393207">
        <ele>1353.207</ele>
        <time>2019-10-16T14:39:39Z</time>
      </trkpt>
      <trkpt lat="-22.145596" lon="-45.393189">
        <ele>1353.917</ele>
        <time>2019-10-16T14:39:45Z</time>
      </trkpt>
      <trkpt lat="-22.145652" lon="-45.393163">
        <ele>1354.708</ele>
        <time>2019-10-16T14:39:51Z</time>
      </trkpt>
      <trkpt lat="-22.145701" lon="-45.393137">
        <ele>1355.539</ele>
        <time>2019-10-16T14:39:56Z</time>
      </trkpt>
      <trkpt lat="-22.145751" lon="-45.393117">
        <ele>1356.217</ele>
        <time>2019-10-16T14:40:02Z</time>
      </trkpt>
      <trkpt lat="-22.145798" lon="-45.393100">
        <ele>1356.950</ele>
        <time>2019-10-16T14:40:06Z</time>
      </trkpt>
      <trkpt lat="-22.145856" lon="-45.393064">
        <ele>1357.738</ele>
        <time>2019-10-16T14:40:13Z</time>
      </trkpt>
      <trkpt lat="-22.145931" lon="-45.393022">
        <ele>1358.488</ele>
        <time>2019-10-16T14:40:23Z</time>
      </trkpt>
      <trkpt lat="-22.145973" lon="-45.392992">
        <ele>1359.090</ele>
        <time>2019-10-16T14:40:28Z</time>
      </trkpt>
      <trkpt lat="-22.146033" lon="-45.392963">
        <ele>1359.624</ele>
        <time>2019-10-16T14:40:34Z</time>
      </trkpt>
      <trkpt lat="-22.146077" lon="-45.392932">
        <ele>1360.141</ele>
        <time>2019-10-16T14:40:39Z</time>
      </trkpt>
      <trkpt lat="-22.146125" lon="-45.392904">
        <ele>1360.762</ele>
        <time>2019-10-16T14:40:43Z</time>
      </trkpt>
      <trkpt lat="-22.146179" lon="-45.392872">
        <ele>1361.483</ele>
        <time>2019-10-16T14:40:48Z</time>
      </trkpt>
      <trkpt lat="-22.146231" lon="-45.392833">
        <ele>1362.211</ele>
        <time>2019-10-16T14:40:50Z</time>
      </trkpt>
      <trkpt lat="-22.146281" lon="-45.392795">
        <ele>1363.008</ele>
        <time>2019-10-16T14:40:54Z</time>
      </trkpt>
      <trkpt lat="-22.146320" lon="-45.392767">
        <ele>1363.690</ele>
        <time>2019-10-16T14:40:59Z</time>
      </trkpt>
      <trkpt lat="-22.146366" lon="-45.392731">
        <ele>1364.428</ele>
        <time>2019-10-16T14:41:04Z</time>
      </trkpt>
      <trkpt lat="-22.146408" lon="-45.392708">
        <ele>1365.071</ele>
        <time>2019-10-16T14:41:08Z</time>
      </trkpt>
      <trkpt lat="-22.146451" lon="-45.392661">
        <ele>1365.999</ele>
        <time>2019-10-16T14:41:13Z</time>
      </trkpt>
      <trkpt lat="-22.146493" lon="-45.392619">
        <ele>1366.889</ele>
        <time>2019-10-16T14:41:18Z</time>
      </trkpt>
      <trkpt lat="-22.146529" lon="-45.392577">
        <ele>1367.741</ele>
        <time>2019-10-16T14:41:24Z</time>
      </trkpt>
      <trkpt lat="-22.146552" lon="-45.392520">
        <ele>1368.745</ele>
        <time>2019-10-16T14:41:29Z</time>
      </trkpt>
      <trkpt lat="-22.146557" lon="-45.392468">
        <ele>1370.062</ele>
        <time>2019-10-16T14:41:34Z</time>
      </trkpt>
      <trkpt lat="-22.146546" lon="-45.392417">
        <ele>1371.489</ele>
        <time>2019-10-16T14:41:39Z</time>
      </trkpt>
      <trkpt lat="-22.146536" lon="-45.392365">
        <ele>1372.906</ele>
        <time>2019-10-16T14:41:44Z</time>
      </trkpt>
      <trkpt lat="-22.146529" lon="-45.392284">
        <ele>1375.226</ele>
        <time>2019-10-16T14:42:15Z</time>
      </trkpt>
      <trkpt lat="-22.146497" lon="-45.392249">
        <ele>1376.008</ele>
        <time>2019-10-16T14:43:17Z</time>
      </trkpt>
      <trkpt lat="-22.146486" lon="-45.392202">
        <ele>1377.362</ele>
        <time>2019-10-16T14:43:22Z</time>
      </trkpt>
      <trkpt lat="-22.146469" lon="-45.392156">
        <ele>1378.590</ele>
        <time>2019-10-16T14:43:27Z</time>
      </trkpt>
      <trkpt lat="-22.146444" lon="-45.392104">
        <ele>1379.833</ele>
        <time>2019-10-16T14:43:33Z</time>
      </trkpt>
      <trkpt lat="-22.146421" lon="-45.392051">
        <ele>1381.121</ele>
        <time>2019-10-16T14:43:38Z</time>
      </trkpt>
      <trkpt lat="-22.146399" lon="-45.392000">
        <ele>1382.441</ele>
        <time>2019-10-16T14:43:43Z</time>
      </trkpt>
      <trkpt lat="-22.146378" lon="-45.391954">
        <ele>1383.553</ele>
        <time>2019-10-16T14:43:48Z</time>
      </trkpt>
      <trkpt lat="-22.146351" lon="-45.391909">
        <ele>1384.587</ele>
        <time>2019-10-16T14:43:52Z</time>
      </trkpt>
      <trkpt lat="-22.146327" lon="-45.391854">
        <ele>1385.964</ele>
        <time>2019-10-16T14:43:56Z</time>
      </trkpt>
      <trkpt lat="-22.146306" lon="-45.391799">
        <ele>1387.398</ele>
        <time>2019-10-16T14:44:02Z</time>
      </trkpt>
      <trkpt lat="-22.146276" lon="-45.391749">
        <ele>1388.415</ele>
        <time>2019-10-16T14:44:09Z</time>
      </trkpt>
      <trkpt lat="-22.146240" lon="-45.391719">
        <ele>1388.926</ele>
        <time>2019-10-16T14:44:15Z</time>
      </trkpt>
      <trkpt lat="-22.146196" lon="-45.391687">
        <ele>1389.308</ele>
        <time>2019-10-16T14:44:20Z</time>
      </trkpt>
      <trkpt lat="-22.146150" lon="-45.391645">
        <ele>1390.523</ele>
        <time>2019-10-16T14:44:27Z</time>
      </trkpt>
      <trkpt lat="-22.146116" lon="-45.391612">
        <ele>1391.971</ele>
        <time>2019-10-16T14:44:32Z</time>
      </trkpt>
      <trkpt lat="-22.146086" lon="-45.391576">
        <ele>1393.394</ele>
        <time>2019-10-16T14:44:38Z</time>
      </trkpt>
      <trkpt lat="-22.146016" lon="-45.391531">
        <ele>1394.772</ele>
        <time>2019-10-16T14:45:02Z</time>
      </trkpt>
      <trkpt lat="-22.145978" lon="-45.391500">
        <ele>1395.622</ele>
        <time>2019-10-16T14:45:11Z</time>
      </trkpt>
      <trkpt lat="-22.145927" lon="-45.391456">
        <ele>1397.044</ele>
        <time>2019-10-16T14:45:16Z</time>
      </trkpt>
      <trkpt lat="-22.145891" lon="-45.391419">
        <ele>1398.238</ele>
        <time>2019-10-16T14:45:21Z</time>
      </trkpt>
      <trkpt lat="-22.145851" lon="-45.391384">
        <ele>1399.215</ele>
        <time>2019-10-16T14:45:26Z</time>
      </trkpt>
      <trkpt lat="-22.145809" lon="-45.391361">
        <ele>1399.746</ele>
        <time>2019-10-16T14:45:32Z</time>
      </trkpt>
      <trkpt lat="-22.145768" lon="-45.391340">
        <ele>1400.188</ele>
        <time>2019-10-16T14:45:38Z</time>
      </trkpt>
      <trkpt lat="-22.145724" lon="-45.391315">
        <ele>1400.716</ele>
        <time>2019-10-16T14:45:43Z</time>
      </trkpt>
      <trkpt lat="-22.145686" lon="-45.391290">
        <ele>1401.308</ele>
        <time>2019-10-16T14:45:47Z</time>
      </trkpt>
      <trkpt lat="-22.145641" lon="-45.391253">
        <ele>1402.348</ele>
        <time>2019-10-16T14:45:52Z</time>
      </trkpt>
      <trkpt lat="-22.145606" lon="-45.391222">
        <ele>1403.256</ele>
        <time>2019-10-16T14:45:56Z</time>
      </trkpt>
      <trkpt lat="-22.145558" lon="-45.391188">
        <ele>1403.999</ele>
        <time>2019-10-16T14:46:00Z</time>
      </trkpt>
      <trkpt lat="-22.145493" lon="-45.391146">
        <ele>1404.787</ele>
        <time>2019-10-16T14:46:20Z</time>
      </trkpt>
      <trkpt lat="-22.145430" lon="-45.391088">
        <ele>1406.197</ele>
        <time>2019-10-16T14:46:31Z</time>
      </trkpt>
      <trkpt lat="-22.145391" lon="-45.391060">
        <ele>1406.689</ele>
        <time>2019-10-16T14:46:36Z</time>
      </trkpt>
      <trkpt lat="-22.145351" lon="-45.391035">
        <ele>1406.913</ele>
        <time>2019-10-16T14:46:40Z</time>
      </trkpt>
      <trkpt lat="-22.145302" lon="-45.390983">
        <ele>1408.140</ele>
        <time>2019-10-16T14:46:49Z</time>
      </trkpt>
      <trkpt lat="-22.145274" lon="-45.390944">
        <ele>1409.181</ele>
        <time>2019-10-16T14:46:54Z</time>
      </trkpt>
      <trkpt lat="-22.145247" lon="-45.390897">
        <ele>1410.461</ele>
        <time>2019-10-16T14:46:59Z</time>
      </trkpt>
      <trkpt lat="-22.145205" lon="-45.390850">
        <ele>1411.317</ele>
        <time>2019-10-16T14:47:07Z</time>
      </trkpt>
      <trkpt lat="-22.145173" lon="-45.390816">
        <ele>1412.108</ele>
        <time>2019-10-16T14:47:11Z</time>
      </trkpt>
      <trkpt lat="-22.145112" lon="-45.390743">
        <ele>1414.342</ele>
        <time>2019-10-16T14:47:22Z</time>
      </trkpt>
      <trkpt lat="-22.145065" lon="-45.390722">
        <ele>1414.390</ele>
        <time>2019-10-16T14:47:28Z</time>
      </trkpt>
      <trkpt lat="-22.145021" lon="-45.390689">
        <ele>1414.993</ele>
        <time>2019-10-16T14:47:33Z</time>
      </trkpt>
      <trkpt lat="-22.144973" lon="-45.390652">
        <ele>1415.141</ele>
        <time>2019-10-16T14:47:37Z</time>
      </trkpt>
      <trkpt lat="-22.144936" lon="-45.390612">
        <ele>1415.631</ele>
        <time>2019-10-16T14:47:42Z</time>
      </trkpt>
      <trkpt lat="-22.144899" lon="-45.390576">
        <ele>1415.993</ele>
        <time>2019-10-16T14:47:46Z</time>
      </trkpt>
      <trkpt lat="-22.144868" lon="-45.390541">
        <ele>1416.427</ele>
        <time>2019-10-16T14:47:50Z</time>
      </trkpt>
      <trkpt lat="-22.144832" lon="-45.390496">
        <ele>1417.024</ele>
        <time>2019-10-16T14:47:57Z</time>
      </trkpt>
      <trkpt lat="-22.144790" lon="-45.390441">
        <ele>1417.883</ele>
        <time>2019-10-16T14:48:05Z</time>
      </trkpt>
      <trkpt lat="-22.144756" lon="-45.390404">
        <ele>1418.125</ele>
        <time>2019-10-16T14:48:08Z</time>
      </trkpt>
      <trkpt lat="-22.144719" lon="-45.390372">
        <ele>1418.017</ele>
        <time>2019-10-16T14:48:13Z</time>
      </trkpt>
      <trkpt lat="-22.144681" lon="-45.390341">
        <ele>1417.908</ele>
        <time>2019-10-16T14:48:18Z</time>
      </trkpt>
      <trkpt lat="-22.144641" lon="-45.390309">
        <ele>1417.622</ele>
        <time>2019-10-16T14:48:23Z</time>
      </trkpt>
      <trkpt lat="-22.144599" lon="-45.390272">
        <ele>1417.570</ele>
        <time>2019-10-16T14:48:30Z</time>
      </trkpt>
      <trkpt lat="-22.144562" lon="-45.390228">
        <ele>1417.893</ele>
        <time>2019-10-16T14:48:36Z</time>
      </trkpt>
      <trkpt lat="-22.144521" lon="-45.390184">
        <ele>1417.991</ele>
        <time>2019-10-16T14:48:50Z</time>
      </trkpt>
      <trkpt lat="-22.144495" lon="-45.390141">
        <ele>1418.531</ele>
        <time>2019-10-16T14:48:56Z</time>
      </trkpt>
      <trkpt lat="-22.144465" lon="-45.390089">
        <ele>1419.293</ele>
        <time>2019-10-16T14:49:03Z</time>
      </trkpt>
      <trkpt lat="-22.144448" lon="-45.390029">
        <ele>1420.737</ele>
        <time>2019-10-16T14:49:09Z</time>
      </trkpt>
      <trkpt lat="-22.144436" lon="-45.389978">
        <ele>1421.964</ele>
        <time>2019-10-16T14:49:13Z</time>
      </trkpt>
      <trkpt lat="-22.144432" lon="-45.389924">
        <ele>1423.321</ele>
        <time>2019-10-16T14:49:19Z</time>
      </trkpt>
      <trkpt lat="-22.144425" lon="-45.389867">
        <ele>1424.641</ele>
        <time>2019-10-16T14:49:24Z</time>
      </trkpt>
      <trkpt lat="-22.144414" lon="-45.389811">
        <ele>1425.705</ele>
        <time>2019-10-16T14:49:32Z</time>
      </trkpt>
      <trkpt lat="-22.144403" lon="-45.389760">
        <ele>1426.608</ele>
        <time>2019-10-16T14:49:37Z</time>
      </trkpt>
      <trkpt lat="-22.144389" lon="-45.389697">
        <ele>1427.796</ele>
        <time>2019-10-16T14:49:42Z</time>
      </trkpt>
      <trkpt lat="-22.144382" lon="-45.389648">
        <ele>1428.754</ele>
        <time>2019-10-16T14:49:47Z</time>
      </trkpt>
      <trkpt lat="-22.144372" lon="-45.389599">
        <ele>1429.627</ele>
        <time>2019-10-16T14:49:53Z</time>
      </trkpt>
      <trkpt lat="-22.144365" lon="-45.389550">
        <ele>1430.555</ele>
        <time>2019-10-16T14:49:58Z</time>
      </trkpt>
      <trkpt lat="-22.144353" lon="-45.389499">
        <ele>1431.365</ele>
        <time>2019-10-16T14:50:02Z</time>
      </trkpt>
      <trkpt lat="-22.144338" lon="-45.389448">
        <ele>1431.987</ele>
        <time>2019-10-16T14:50:06Z</time>
      </trkpt>
      <trkpt lat="-22.144326" lon="-45.389397">
        <ele>1432.781</ele>
        <time>2019-10-16T14:50:10Z</time>
      </trkpt>
      <trkpt lat="-22.144324" lon="-45.389342">
        <ele>1434.078</ele>
        <time>2019-10-16T14:50:17Z</time>
      </trkpt>
      <trkpt lat="-22.144328" lon="-45.389287">
        <ele>1435.755</ele>
        <time>2019-10-16T14:50:20Z</time>
      </trkpt>
      <trkpt lat="-22.144301" lon="-45.389123">
        <ele>1437.707</ele>
        <time>2019-10-16T14:51:07Z</time>
      </trkpt>
      <trkpt lat="-22.144295" lon="-45.389067">
        <ele>1437.717</ele>
        <time>2019-10-16T14:51:15Z</time>
      </trkpt>
      <trkpt lat="-22.144288" lon="-45.389009">
        <ele>1437.708</ele>
        <time>2019-10-16T14:51:20Z</time>
      </trkpt>
      <trkpt lat="-22.144284" lon="-45.388929">
        <ele>1438.089</ele>
        <time>2019-10-16T14:51:28Z</time>
      </trkpt>
      <trkpt lat="-22.144275" lon="-45.388873">
        <ele>1437.937</ele>
        <time>2019-10-16T14:51:33Z</time>
      </trkpt>
      <trkpt lat="-22.144267" lon="-45.388824">
        <ele>1437.880</ele>
        <time>2019-10-16T14:51:38Z</time>
      </trkpt>
      <trkpt lat="-22.144259" lon="-45.388773">
        <ele>1437.718</ele>
        <time>2019-10-16T14:51:43Z</time>
      </trkpt>
      <trkpt lat="-22.144248" lon="-45.388723">
        <ele>1437.578</ele>
        <time>2019-10-16T14:51:49Z</time>
      </trkpt>
      <trkpt lat="-22.144236" lon="-45.388673">
        <ele>1437.260</ele>
        <time>2019-10-16T14:51:54Z</time>
      </trkpt>
      <trkpt lat="-22.144225" lon="-45.388625">
        <ele>1436.924</ele>
        <time>2019-10-16T14:51:58Z</time>
      </trkpt>
      <trkpt lat="-22.144210" lon="-45.388578">
        <ele>1436.541</ele>
        <time>2019-10-16T14:52:02Z</time>
      </trkpt>
      <trkpt lat="-22.144197" lon="-45.388526">
        <ele>1436.212</ele>
        <time>2019-10-16T14:52:06Z</time>
      </trkpt>
      <trkpt lat="-22.144192" lon="-45.388475">
        <ele>1436.332</ele>
        <time>2019-10-16T14:52:09Z</time>
      </trkpt>
      <trkpt lat="-22.144201" lon="-45.388413">
        <ele>1437.205</ele>
        <time>2019-10-16T14:52:15Z</time>
      </trkpt>
      <trkpt lat="-22.144222" lon="-45.388365">
        <ele>1438.608</ele>
        <time>2019-10-16T14:52:20Z</time>
      </trkpt>
      <trkpt lat="-22.144257" lon="-45.388322">
        <ele>1440.465</ele>
        <time>2019-10-16T14:52:25Z</time>
      </trkpt>
      <trkpt lat="-22.144330" lon="-45.388274">
        <ele>1443.233</ele>
        <time>2019-10-16T14:52:28Z</time>
      </trkpt>
      <trkpt lat="-22.144396" lon="-45.388236">
        <ele>1445.866</ele>
        <time>2019-10-16T14:52:30Z</time>
      </trkpt>
      <trkpt lat="-22.144442" lon="-45.388216">
        <ele>1447.744</ele>
        <time>2019-10-16T14:52:34Z</time>
      </trkpt>
      <trkpt lat="-22.144482" lon="-45.388191">
        <ele>1449.284</ele>
        <time>2019-10-16T14:52:37Z</time>
      </trkpt>
      <trkpt lat="-22.144533" lon="-45.388164">
        <ele>1451.256</ele>
        <time>2019-10-16T14:52:41Z</time>
      </trkpt>
      <trkpt lat="-22.144598" lon="-45.388127">
        <ele>1453.630</ele>
        <time>2019-10-16T14:54:43Z</time>
      </trkpt>
      <trkpt lat="-22.144648" lon="-45.388083">
        <ele>1455.177</ele>
        <time>2019-10-16T14:54:46Z</time>
      </trkpt>
      <trkpt lat="-22.144702" lon="-45.388045">
        <ele>1456.913</ele>
        <time>2019-10-16T14:54:49Z</time>
      </trkpt>
      <trkpt lat="-22.144745" lon="-45.388013">
        <ele>1458.343</ele>
        <time>2019-10-16T14:54:52Z</time>
      </trkpt>
      <trkpt lat="-22.144783" lon="-45.387979">
        <ele>1459.307</ele>
        <time>2019-10-16T14:54:55Z</time>
      </trkpt>
      <trkpt lat="-22.144817" lon="-45.387942">
        <ele>1460.108</ele>
        <time>2019-10-16T14:55:00Z</time>
      </trkpt>
      <trkpt lat="-22.144851" lon="-45.387910">
        <ele>1461.095</ele>
        <time>2019-10-16T14:55:06Z</time>
      </trkpt>
      <trkpt lat="-22.144895" lon="-45.387877">
        <ele>1462.283</ele>
        <time>2019-10-16T14:55:12Z</time>
      </trkpt>
      <trkpt lat="-22.144934" lon="-45.387852">
        <ele>1463.416</ele>
        <time>2019-10-16T14:55:17Z</time>
      </trkpt>
      <trkpt lat="-22.144984" lon="-45.387819">
        <ele>1464.954</ele>
        <time>2019-10-16T14:55:24Z</time>
      </trkpt>
      <trkpt lat="-22.145035" lon="-45.387779">
        <ele>1465.834</ele>
        <time>2019-10-16T14:55:30Z</time>
      </trkpt>
      <trkpt lat="-22.145071" lon="-45.387739">
        <ele>1466.126</ele>
        <time>2019-10-16T14:55:35Z</time>
      </trkpt>
      <trkpt lat="-22.145104" lon="-45.387690">
        <ele>1466.120</ele>
        <time>2019-10-16T14:55:40Z</time>
      </trkpt>
      <trkpt lat="-22.145137" lon="-45.387643">
        <ele>1466.157</ele>
        <time>2019-10-16T14:55:44Z</time>
      </trkpt>
      <trkpt lat="-22.145176" lon="-45.387596">
        <ele>1466.445</ele>
        <time>2019-10-16T14:55:50Z</time>
      </trkpt>
      <trkpt lat="-22.145221" lon="-45.387514">
        <ele>1466.347</ele>
        <time>2019-10-16T14:56:00Z</time>
      </trkpt>
      <trkpt lat="-22.145249" lon="-45.387468">
        <ele>1466.811</ele>
        <time>2019-10-16T14:56:05Z</time>
      </trkpt>
      <trkpt lat="-22.145274" lon="-45.387423">
        <ele>1467.608</ele>
        <time>2019-10-16T14:56:10Z</time>
      </trkpt>
      <trkpt lat="-22.145297" lon="-45.387378">
        <ele>1468.298</ele>
        <time>2019-10-16T14:56:13Z</time>
      </trkpt>
      <trkpt lat="-22.145318" lon="-45.387327">
        <ele>1468.716</ele>
        <time>2019-10-16T14:56:18Z</time>
      </trkpt>
      <trkpt lat="-22.145344" lon="-45.387272">
        <ele>1469.389</ele>
        <time>2019-10-16T14:56:23Z</time>
      </trkpt>
      <trkpt lat="-22.145373" lon="-45.387223">
        <ele>1469.957</ele>
        <time>2019-10-16T14:56:29Z</time>
      </trkpt>
      <trkpt lat="-22.145406" lon="-45.387180">
        <ele>1470.727</ele>
        <time>2019-10-16T14:56:33Z</time>
      </trkpt>
      <trkpt lat="-22.145451" lon="-45.387129">
        <ele>1471.899</ele>
        <time>2019-10-16T14:56:40Z</time>
      </trkpt>
      <trkpt lat="-22.145501" lon="-45.387101">
        <ele>1473.263</ele>
        <time>2019-10-16T14:56:46Z</time>
      </trkpt>
      <trkpt lat="-22.145543" lon="-45.387081">
        <ele>1474.390</ele>
        <time>2019-10-16T14:56:50Z</time>
      </trkpt>
      <trkpt lat="-22.145592" lon="-45.387061">
        <ele>1475.658</ele>
        <time>2019-10-16T14:56:53Z</time>
      </trkpt>
      <trkpt lat="-22.145642" lon="-45.387048">
        <ele>1476.952</ele>
        <time>2019-10-16T14:56:55Z</time>
      </trkpt>
      <trkpt lat="-22.145695" lon="-45.387030">
        <ele>1478.317</ele>
        <time>2019-10-16T14:56:58Z</time>
      </trkpt>
      <trkpt lat="-22.145760" lon="-45.387007">
        <ele>1480.008</ele>
        <time>2019-10-16T14:57:01Z</time>
      </trkpt>
      <trkpt lat="-22.145805" lon="-45.386975">
        <ele>1480.959</ele>
        <time>2019-10-16T14:57:04Z</time>
      </trkpt>
      <trkpt lat="-22.145841" lon="-45.386941">
        <ele>1481.577</ele>
        <time>2019-10-16T14:57:06Z</time>
      </trkpt>
      <trkpt lat="-22.145880" lon="-45.386900">
        <ele>1481.720</ele>
        <time>2019-10-16T14:57:10Z</time>
      </trkpt>
      <trkpt lat="-22.145915" lon="-45.386839">
        <ele>1481.658</ele>
        <time>2019-10-16T14:57:15Z</time>
      </trkpt>
      <trkpt lat="-22.145937" lon="-45.386786">
        <ele>1481.488</ele>
        <time>2019-10-16T14:57:17Z</time>
      </trkpt>
      <trkpt lat="-22.145959" lon="-45.386738">
        <ele>1481.190</ele>
        <time>2019-10-16T14:57:20Z</time>
      </trkpt>
      <trkpt lat="-22.145983" lon="-45.386696">
        <ele>1480.914</ele>
        <time>2019-10-16T14:57:23Z</time>
      </trkpt>
      <trkpt lat="-22.146003" lon="-45.386648">
        <ele>1480.711</ele>
        <time>2019-10-16T14:57:26Z</time>
      </trkpt>
      <trkpt lat="-22.146027" lon="-45.386603">
        <ele>1480.714</ele>
        <time>2019-10-16T14:57:28Z</time>
      </trkpt>
      <trkpt lat="-22.146071" lon="-45.386540">
        <ele>1480.754</ele>
        <time>2019-10-16T14:57:32Z</time>
      </trkpt>
      <trkpt lat="-22.146107" lon="-45.386481">
        <ele>1480.709</ele>
        <time>2019-10-16T14:57:34Z</time>
      </trkpt>
      <trkpt lat="-22.146130" lon="-45.386437">
        <ele>1480.508</ele>
        <time>2019-10-16T14:57:37Z</time>
      </trkpt>
      <trkpt lat="-22.146153" lon="-45.386383">
        <ele>1480.345</ele>
        <time>2019-10-16T14:57:40Z</time>
      </trkpt>
      <trkpt lat="-22.146179" lon="-45.386338">
        <ele>1480.183</ele>
        <time>2019-10-16T14:57:42Z</time>
      </trkpt>
      <trkpt lat="-22.146209" lon="-45.386291">
        <ele>1480.096</ele>
        <time>2019-10-16T14:57:44Z</time>
      </trkpt>
      <trkpt lat="-22.146239" lon="-45.386251">
        <ele>1479.994</ele>
        <time>2019-10-16T14:57:46Z</time>
      </trkpt>
      <trkpt lat="-22.146471" lon="-45.385269">
        <ele>1480.214</ele>
        <time>2019-10-16T14:58:10Z</time>
      </trkpt>
      <trkpt lat="-22.146452" lon="-45.385206">
        <ele>1480.426</ele>
        <time>2019-10-16T14:58:14Z</time>
      </trkpt>
      <trkpt lat="-22.146445" lon="-45.385137">
        <ele>1480.810</ele>
        <time>2019-10-16T14:58:17Z</time>
      </trkpt>
      <trkpt lat="-22.146436" lon="-45.385084">
        <ele>1481.017</ele>
        <time>2019-10-16T14:58:20Z</time>
      </trkpt>
      <trkpt lat="-22.146435" lon="-45.385029">
        <ele>1481.336</ele>
        <time>2019-10-16T14:58:23Z</time>
      </trkpt>
      <trkpt lat="-22.146432" lon="-45.384966">
        <ele>1481.617</ele>
        <time>2019-10-16T14:58:26Z</time>
      </trkpt>
      <trkpt lat="-22.146440" lon="-45.384909">
        <ele>1481.818</ele>
        <time>2019-10-16T14:58:28Z</time>
      </trkpt>
      <trkpt lat="-22.146444" lon="-45.384852">
        <ele>1482.008</ele>
        <time>2019-10-16T14:58:32Z</time>
      </trkpt>
      <trkpt lat="-22.146455" lon="-45.384801">
        <ele>1482.387</ele>
        <time>2019-10-16T14:58:35Z</time>
      </trkpt>
      <trkpt lat="-22.146459" lon="-45.384749">
        <ele>1482.535</ele>
        <time>2019-10-16T14:58:37Z</time>
      </trkpt>
      <trkpt lat="-22.146461" lon="-45.384699">
        <ele>1482.788</ele>
        <time>2019-10-16T14:58:40Z</time>
      </trkpt>
      <trkpt lat="-22.146462" lon="-45.384643">
        <ele>1482.966</ele>
        <time>2019-10-16T14:58:42Z</time>
      </trkpt>
      <trkpt lat="-22.146467" lon="-45.384592">
        <ele>1483.166</ele>
        <time>2019-10-16T14:58:44Z</time>
      </trkpt>
      <trkpt lat="-22.146471" lon="-45.384536">
        <ele>1483.358</ele>
        <time>2019-10-16T14:58:47Z</time>
      </trkpt>
      <trkpt lat="-22.146475" lon="-45.384482">
        <ele>1483.652</ele>
        <time>2019-10-16T14:58:50Z</time>
      </trkpt>
      <trkpt lat="-22.146481" lon="-45.384427">
        <ele>1483.819</ele>
        <time>2019-10-16T14:58:53Z</time>
      </trkpt>
      <trkpt lat="-22.146483" lon="-45.384363">
        <ele>1484.151</ele>
        <time>2019-10-16T14:58:57Z</time>
      </trkpt>
      <trkpt lat="-22.146494" lon="-45.384295">
        <ele>1484.501</ele>
        <time>2019-10-16T14:59:01Z</time>
      </trkpt>
      <trkpt lat="-22.146500" lon="-45.384230">
        <ele>1484.811</ele>
        <time>2019-10-16T14:59:06Z</time>
      </trkpt>
      <trkpt lat="-22.146424" lon="-45.384038">
        <ele>1482.608</ele>
        <time>2019-10-16T15:01:00Z</time>
      </trkpt>
      <trkpt lat="-22.146421" lon="-45.383972">
        <ele>1482.179</ele>
        <time>2019-10-16T15:01:03Z</time>
      </trkpt>
      <trkpt lat="-22.146427" lon="-45.383921">
        <ele>1481.837</ele>
        <time>2019-10-16T15:01:04Z</time>
      </trkpt>
      <trkpt lat="-22.146280" lon="-45.383123">
        <ele>1479.410</ele>
        <time>2019-10-16T15:01:24Z</time>
      </trkpt>
      <trkpt lat="-22.146224" lon="-45.383098">
        <ele>1479.598</ele>
        <time>2019-10-16T15:01:39Z</time>
      </trkpt>
      <trkpt lat="-22.146182" lon="-45.383070">
        <ele>1479.828</ele>
        <time>2019-10-16T15:01:46Z</time>
      </trkpt>
      <trkpt lat="-22.146132" lon="-45.383033">
        <ele>1480.120</ele>
        <time>2019-10-16T15:01:49Z</time>
      </trkpt>
      <trkpt lat="-22.146080" lon="-45.382991">
        <ele>1480.614</ele>
        <time>2019-10-16T15:01:59Z</time>
      </trkpt>
      <trkpt lat="-22.146042" lon="-45.382964">
        <ele>1480.941</ele>
        <time>2019-10-16T15:02:03Z</time>
      </trkpt>
      <trkpt lat="-22.146003" lon="-45.382930">
        <ele>1481.432</ele>
        <time>2019-10-16T15:02:13Z</time>
      </trkpt>
      <trkpt lat="-22.145958" lon="-45.382888">
        <ele>1482.092</ele>
        <time>2019-10-16T15:02:24Z</time>
      </trkpt>
      <trkpt lat="-22.145926" lon="-45.382854">
        <ele>1482.511</ele>
        <time>2019-10-16T15:02:28Z</time>
      </trkpt>
      <trkpt lat="-22.145889" lon="-45.382816">
        <ele>1483.108</ele>
        <time>2019-10-16T15:02:36Z</time>
      </trkpt>
      <trkpt lat="-22.145844" lon="-45.382763">
        <ele>1484.097</ele>
        <time>2019-10-16T15:02:42Z</time>
      </trkpt>
      <trkpt lat="-22.145810" lon="-45.382721">
        <ele>1484.845</ele>
        <time>2019-10-16T15:02:44Z</time>
      </trkpt>
      <trkpt lat="-22.145773" lon="-45.382669">
        <ele>1485.928</ele>
        <time>2019-10-16T15:02:48Z</time>
      </trkpt>
      <trkpt lat="-22.145748" lon="-45.382629">
        <ele>1486.676</ele>
        <time>2019-10-16T15:02:49Z</time>
      </trkpt>
      <trkpt lat="-22.145717" lon="-45.382582">
        <ele>1487.566</ele>
        <time>2019-10-16T15:02:53Z</time>
      </trkpt>
      <trkpt lat="-22.145662" lon="-45.382514">
        <ele>1488.638</ele>
        <time>2019-10-16T15:02:57Z</time>
      </trkpt>
      <trkpt lat="-22.145636" lon="-45.382474">
        <ele>1489.352</ele>
        <time>2019-10-16T15:03:01Z</time>
      </trkpt>
      <trkpt lat="-22.145602" lon="-45.382427">
        <ele>1490.179</ele>
        <time>2019-10-16T15:03:03Z</time>
      </trkpt>
      <trkpt lat="-22.145568" lon="-45.382384">
        <ele>1490.797</ele>
        <time>2019-10-16T15:03:05Z</time>
      </trkpt>
      <trkpt lat="-22.145532" lon="-45.382327">
        <ele>1491.523</ele>
        <time>2019-10-16T15:03:09Z</time>
      </trkpt>
      <trkpt lat="-22.145504" lon="-45.382262">
        <ele>1492.425</ele>
        <time>2019-10-16T15:03:13Z</time>
      </trkpt>
      <trkpt lat="-22.145487" lon="-45.382212">
        <ele>1493.108</ele>
        <time>2019-10-16T15:03:15Z</time>
      </trkpt>
      <trkpt lat="-22.145470" lon="-45.382156">
        <ele>1493.873</ele>
        <time>2019-10-16T15:03:18Z</time>
      </trkpt>
      <trkpt lat="-22.145454" lon="-45.382102">
        <ele>1494.481</ele>
        <time>2019-10-16T15:03:21Z</time>
      </trkpt>
      <trkpt lat="-22.145442" lon="-45.382041">
        <ele>1495.184</ele>
        <time>2019-10-16T15:03:23Z</time>
      </trkpt>
      <trkpt lat="-22.145426" lon="-45.381983">
        <ele>1495.842</ele>
        <time>2019-10-16T15:03:25Z</time>
      </trkpt>
      <trkpt lat="-22.145408" lon="-45.381925">
        <ele>1496.392</ele>
        <time>2019-10-16T15:03:28Z</time>
      </trkpt>
      <trkpt lat="-22.145395" lon="-45.381865">
        <ele>1496.954</ele>
        <time>2019-10-16T15:03:32Z</time>
      </trkpt>
      <trkpt lat="-22.145380" lon="-45.381818">
        <ele>1497.388</ele>
        <time>2019-10-16T15:03:35Z</time>
      </trkpt>
      <trkpt lat="-22.145361" lon="-45.381766">
        <ele>1497.695</ele>
        <time>2019-10-16T15:03:38Z</time>
      </trkpt>
      <trkpt lat="-22.145348" lon="-45.381719">
        <ele>1497.968</ele>
        <time>2019-10-16T15:03:43Z</time>
      </trkpt>
      <trkpt lat="-22.145329" lon="-45.381666">
        <ele>1498.142</ele>
        <time>2019-10-16T15:03:48Z</time>
      </trkpt>
      <trkpt lat="-22.145311" lon="-45.381616">
        <ele>1499.126</ele>
        <time>2019-10-16T15:03:53Z</time>
      </trkpt>
      <trkpt lat="-22.145288" lon="-45.381573">
        <ele>1499.708</ele>
        <time>2019-10-16T15:04:00Z</time>
      </trkpt>
      <trkpt lat="-22.145267" lon="-45.381526">
        <ele>1500.530</ele>
        <time>2019-10-16T15:04:04Z</time>
      </trkpt>
      <trkpt lat="-22.145232" lon="-45.381492">
        <ele>1500.578</ele>
        <time>2019-10-16T15:04:09Z</time>
      </trkpt>
      <trkpt lat="-22.145196" lon="-45.381447">
        <ele>1500.821</ele>
        <time>2019-10-16T15:04:16Z</time>
      </trkpt>
      <trkpt lat="-22.145157" lon="-45.381396">
        <ele>1501.099</ele>
        <time>2019-10-16T15:04:24Z</time>
      </trkpt>
      <trkpt lat="-22.145121" lon="-45.381351">
        <ele>1501.129</ele>
        <time>2019-10-16T15:04:28Z</time>
      </trkpt>
      <trkpt lat="-22.145090" lon="-45.381293">
        <ele>1501.641</ele>
        <time>2019-10-16T15:04:34Z</time>
      </trkpt>
      <trkpt lat="-22.145064" lon="-45.381241">
        <ele>1502.155</ele>
        <time>2019-10-16T15:04:40Z</time>
      </trkpt>
      <trkpt lat="-22.145014" lon="-45.381182">
        <ele>1501.962</ele>
        <time>2019-10-16T15:04:45Z</time>
      </trkpt>
      <trkpt lat="-22.144979" lon="-45.381131">
        <ele>1502.335</ele>
        <time>2019-10-16T15:04:46Z</time>
      </trkpt>
      <trkpt lat="-22.144948" lon="-45.381085">
        <ele>1502.886</ele>
        <time>2019-10-16T15:04:48Z</time>
      </trkpt>
      <trkpt lat="-22.144505" lon="-45.380236">
        <ele>1499.414</ele>
        <time>2019-10-16T15:05:09Z</time>
      </trkpt>
      <trkpt lat="-22.144510" lon="-45.380179">
        <ele>1499.808</ele>
        <time>2019-10-16T15:05:12Z</time>
      </trkpt>
      <trkpt lat="-22.144511" lon="-45.380107">
        <ele>1500.247</ele>
        <time>2019-10-16T15:05:16Z</time>
      </trkpt>
      <trkpt lat="-22.144514" lon="-45.380058">
        <ele>1500.665</ele>
        <time>2019-10-16T15:05:20Z</time>
      </trkpt>
      <trkpt lat="-22.144511" lon="-45.380005">
        <ele>1500.768</ele>
        <time>2019-10-16T15:05:26Z</time>
      </trkpt>
      <trkpt lat="-22.144522" lon="-45.379957">
        <ele>1501.116</ele>
        <time>2019-10-16T15:05:33Z</time>
      </trkpt>
      <trkpt lat="-22.144533" lon="-45.379904">
        <ele>1501.566</ele>
        <time>2019-10-16T15:05:39Z</time>
      </trkpt>
      <trkpt lat="-22.144551" lon="-45.379854">
        <ele>1502.198</ele>
        <time>2019-10-16T15:05:43Z</time>
      </trkpt>
      <trkpt lat="-22.144578" lon="-45.379806">
        <ele>1503.022</ele>
        <time>2019-10-16T15:05:48Z</time>
      </trkpt>
      <trkpt lat="-22.144606" lon="-45.379732">
        <ele>1503.889</ele>
        <time>2019-10-16T15:05:58Z</time>
      </trkpt>
      <trkpt lat="-22.144623" lon="-45.379681">
        <ele>1504.383</ele>
        <time>2019-10-16T15:06:02Z</time>
      </trkpt>
      <trkpt lat="-22.144640" lon="-45.379630">
        <ele>1504.725</ele>
        <time>2019-10-16T15:06:08Z</time>
      </trkpt>
      <trkpt lat="-22.144655" lon="-45.379578">
        <ele>1505.117</ele>
        <time>2019-10-16T15:06:13Z</time>
      </trkpt>
      <trkpt lat="-22.144685" lon="-45.379521">
        <ele>1505.808</ele>
        <time>2019-10-16T15:06:19Z</time>
      </trkpt>
      <trkpt lat="-22.144715" lon="-45.379475">
        <ele>1506.542</ele>
        <time>2019-10-16T15:06:25Z</time>
      </trkpt>
      <trkpt lat="-22.144749" lon="-45.379434">
        <ele>1507.330</ele>
        <time>2019-10-16T15:06:31Z</time>
      </trkpt>
      <trkpt lat="-22.144789" lon="-45.379398">
        <ele>1508.233</ele>
        <time>2019-10-16T15:06:36Z</time>
      </trkpt>
      <trkpt lat="-22.144830" lon="-45.379371">
        <ele>1509.171</ele>
        <time>2019-10-16T15:06:40Z</time>
      </trkpt>
      <trkpt lat="-22.144873" lon="-45.379335">
        <ele>1509.931</ele>
        <time>2019-10-16T15:06:42Z</time>
      </trkpt>
      <trkpt lat="-22.144931" lon="-45.379272">
        <ele>1511.083</ele>
        <time>2019-10-16T15:06:45Z</time>
      </trkpt>
      <trkpt lat="-22.144975" lon="-45.379227">
        <ele>1511.887</ele>
        <time>2019-10-16T15:06:47Z</time>
      </trkpt>
      <trkpt lat="-22.145016" lon="-45.379190">
        <ele>1512.624</ele>
        <time>2019-10-16T15:06:50Z</time>
      </trkpt>
      <trkpt lat="-22.145054" lon="-45.379152">
        <ele>1513.683</ele>
        <time>2019-10-16T15:06:53Z</time>
      </trkpt>
      <trkpt lat="-22.145089" lon="-45.379096">
        <ele>1514.225</ele>
        <time>2019-10-16T15:06:56Z</time>
      </trkpt>
      <trkpt lat="-22.145108" lon="-45.379051">
        <ele>1514.417</ele>
        <time>2019-10-16T15:06:59Z</time>
      </trkpt>
      <trkpt lat="-22.145131" lon="-45.378990">
        <ele>1514.508</ele>
        <time>2019-10-16T15:07:01Z</time>
      </trkpt>
      <trkpt lat="-22.145155" lon="-45.378943">
        <ele>1514.882</ele>
        <time>2019-10-16T15:07:04Z</time>
      </trkpt>
      <trkpt lat="-22.145172" lon="-45.378892">
        <ele>1514.880</ele>
        <time>2019-10-16T15:07:06Z</time>
      </trkpt>
      <trkpt lat="-22.145185" lon="-45.378833">
        <ele>1514.613</ele>
        <time>2019-10-16T15:07:09Z</time>
      </trkpt>
      <trkpt lat="-22.145197" lon="-45.378779">
        <ele>1514.411</ele>
        <time>2019-10-16T15:07:13Z</time>
      </trkpt>
      <trkpt lat="-22.145206" lon="-45.378697">
        <ele>1513.851</ele>
        <time>2019-10-16T15:07:16Z</time>
      </trkpt>
      <trkpt lat="-22.145205" lon="-45.378643">
        <ele>1513.273</ele>
        <time>2019-10-16T15:07:18Z</time>
      </trkpt>
      <trkpt lat="-22.145218" lon="-45.378559">
        <ele>1512.747</ele>
        <time>2019-10-16T15:07:21Z</time>
      </trkpt>
      <trkpt lat="-22.145231" lon="-45.378496">
        <ele>1512.484</ele>
        <time>2019-10-16T15:07:25Z</time>
      </trkpt>
      <trkpt lat="-22.145247" lon="-45.378414">
        <ele>1511.935</ele>
        <time>2019-10-16T15:07:30Z</time>
      </trkpt>
      <trkpt lat="-22.145252" lon="-45.378354">
        <ele>1511.486</ele>
        <time>2019-10-16T15:07:32Z</time>
      </trkpt>
      <trkpt lat="-22.145258" lon="-45.378301">
        <ele>1511.414</ele>
        <time>2019-10-16T15:07:35Z</time>
      </trkpt>
      <trkpt lat="-22.145262" lon="-45.378239">
        <ele>1511.708</ele>
        <time>2019-10-16T15:07:39Z</time>
      </trkpt>
      <trkpt lat="-22.145268" lon="-45.378169">
        <ele>1512.027</ele>
        <time>2019-10-16T15:07:42Z</time>
      </trkpt>
      <trkpt lat="-22.145278" lon="-45.378114">
        <ele>1512.425</ele>
        <time>2019-10-16T15:07:45Z</time>
      </trkpt>
      <trkpt lat="-22.145282" lon="-45.378064">
        <ele>1512.698</ele>
        <time>2019-10-16T15:07:49Z</time>
      </trkpt>
      <trkpt lat="-22.145301" lon="-45.378013">
        <ele>1513.196</ele>
        <time>2019-10-16T15:07:52Z</time>
      </trkpt>
      <trkpt lat="-22.145311" lon="-45.377964">
        <ele>1513.576</ele>
        <time>2019-10-16T15:07:54Z</time>
      </trkpt>
      <trkpt lat="-22.145318" lon="-45.377913">
        <ele>1513.768</ele>
        <time>2019-10-16T15:07:56Z</time>
      </trkpt>
      <trkpt lat="-22.145331" lon="-45.377862">
        <ele>1514.122</ele>
        <time>2019-10-16T15:07:59Z</time>
      </trkpt>
      <trkpt lat="-22.145344" lon="-45.377800">
        <ele>1514.569</ele>
        <time>2019-10-16T15:08:01Z</time>
      </trkpt>
      <trkpt lat="-22.145348" lon="-45.377744">
        <ele>1514.776</ele>
        <time>2019-10-16T15:08:04Z</time>
      </trkpt>
      <trkpt lat="-22.145348" lon="-45.377694">
        <ele>1514.990</ele>
        <time>2019-10-16T15:08:06Z</time>
      </trkpt>
      <trkpt lat="-22.145349" lon="-45.377634">
        <ele>1515.119</ele>
        <time>2019-10-16T15:08:09Z</time>
      </trkpt>
      <trkpt lat="-22.145349" lon="-45.377563">
        <ele>1515.308</ele>
        <time>2019-10-16T15:08:11Z</time>
      </trkpt>
      <trkpt lat="-22.145340" lon="-45.377504">
        <ele>1515.341</ele>
        <time>2019-10-16T15:08:14Z</time>
      </trkpt>
      <trkpt lat="-22.145319" lon="-45.377415">
        <ele>1515.419</ele>
        <time>2019-10-16T15:08:19Z</time>
      </trkpt>
      <trkpt lat="-22.145314" lon="-45.377355">
        <ele>1515.522</ele>
        <time>2019-10-16T15:08:20Z</time>
      </trkpt>
      <trkpt lat="-22.145299" lon="-45.377291">
        <ele>1515.670</ele>
        <time>2019-10-16T15:08:22Z</time>
      </trkpt>
      <trkpt lat="-22.145275" lon="-45.377241">
        <ele>1515.570</ele>
        <time>2019-10-16T15:08:24Z</time>
      </trkpt>
      <trkpt lat="-22.145250" lon="-45.377200">
        <ele>1515.452</ele>
        <time>2019-10-16T15:08:27Z</time>
      </trkpt>
      <trkpt lat="-22.145233" lon="-45.377153">
        <ele>1515.436</ele>
        <time>2019-10-16T15:08:29Z</time>
      </trkpt>
      <trkpt lat="-22.145203" lon="-45.377097">
        <ele>1515.483</ele>
        <time>2019-10-16T15:08:32Z</time>
      </trkpt>
      <trkpt lat="-22.145178" lon="-45.377055">
        <ele>1515.369</ele>
        <time>2019-10-16T15:08:35Z</time>
      </trkpt>
      <trkpt lat="-22.145158" lon="-45.377011">
        <ele>1515.304</ele>
        <time>2019-10-16T15:08:37Z</time>
      </trkpt>
      <trkpt lat="-22.145134" lon="-45.376959">
        <ele>1515.424</ele>
        <time>2019-10-16T15:08:39Z</time>
      </trkpt>
      <trkpt lat="-22.145111" lon="-45.376913">
        <ele>1515.408</ele>
        <time>2019-10-16T15:08:41Z</time>
      </trkpt>
      <trkpt lat="-22.145094" lon="-45.376867">
        <ele>1515.570</ele>
        <time>2019-10-16T15:08:43Z</time>
      </trkpt>
      <trkpt lat="-22.145064" lon="-45.376814">
        <ele>1515.668</ele>
        <time>2019-10-16T15:08:45Z</time>
      </trkpt>
      <trkpt lat="-22.145038" lon="-45.376765">
        <ele>1515.661</ele>
        <time>2019-10-16T15:08:48Z</time>
      </trkpt>
      <trkpt lat="-22.145016" lon="-45.376721">
        <ele>1515.889</ele>
        <time>2019-10-16T15:08:49Z</time>
      </trkpt>
      <trkpt lat="-22.144995" lon="-45.376673">
        <ele>1516.049</ele>
        <time>2019-10-16T15:08:52Z</time>
      </trkpt>
      <trkpt lat="-22.144956" lon="-45.376600">
        <ele>1516.411</ele>
        <time>2019-10-16T15:08:56Z</time>
      </trkpt>
      <trkpt lat="-22.144937" lon="-45.376551">
        <ele>1516.855</ele>
        <time>2019-10-16T15:08:58Z</time>
      </trkpt>
      <trkpt lat="-22.144920" lon="-45.376505">
        <ele>1517.112</ele>
        <time>2019-10-16T15:09:01Z</time>
      </trkpt>
      <trkpt lat="-22.144895" lon="-45.376454">
        <ele>1517.453</ele>
        <time>2019-10-16T15:09:04Z</time>
      </trkpt>
      <trkpt lat="-22.144861" lon="-45.376413">
        <ele>1517.804</ele>
        <time>2019-10-16T15:09:07Z</time>
      </trkpt>
      <trkpt lat="-22.144831" lon="-45.376365">
        <ele>1518.214</ele>
        <time>2019-10-16T15:09:11Z</time>
      </trkpt>
      <trkpt lat="-22.144793" lon="-45.376296">
        <ele>1518.808</ele>
        <time>2019-10-16T15:09:15Z</time>
      </trkpt>
      <trkpt lat="-22.144761" lon="-45.376253">
        <ele>1519.369</ele>
        <time>2019-10-16T15:09:18Z</time>
      </trkpt>
      <trkpt lat="-22.144729" lon="-45.376207">
        <ele>1519.897</ele>
        <time>2019-10-16T15:09:22Z</time>
      </trkpt>
      <trkpt lat="-22.144695" lon="-45.376163">
        <ele>1520.370</ele>
        <time>2019-10-16T15:09:26Z</time>
      </trkpt>
      <trkpt lat="-22.144670" lon="-45.376121">
        <ele>1520.728</ele>
        <time>2019-10-16T15:09:28Z</time>
      </trkpt>
      <trkpt lat="-22.144645" lon="-45.376077">
        <ele>1521.258</ele>
        <time>2019-10-16T15:09:32Z</time>
      </trkpt>
      <trkpt lat="-22.144594" lon="-45.376020">
        <ele>1522.040</ele>
        <time>2019-10-16T15:09:35Z</time>
      </trkpt>
      <trkpt lat="-22.144556" lon="-45.375977">
        <ele>1522.614</ele>
        <time>2019-10-16T15:09:38Z</time>
      </trkpt>
      <trkpt lat="-22.144508" lon="-45.375920">
        <ele>1523.441</ele>
        <time>2019-10-16T15:09:42Z</time>
      </trkpt>
      <trkpt lat="-22.144478" lon="-45.375875">
        <ele>1524.083</ele>
        <time>2019-10-16T15:09:44Z</time>
      </trkpt>
      <trkpt lat="-22.144444" lon="-45.375804">
        <ele>1524.925</ele>
        <time>2019-10-16T15:09:48Z</time>
      </trkpt>
      <trkpt lat="-22.144423" lon="-45.375757">
        <ele>1525.317</ele>
        <time>2019-10-16T15:09:50Z</time>
      </trkpt>
      <trkpt lat="-22.144413" lon="-45.375702">
        <ele>1525.708</ele>
        <time>2019-10-16T15:09:52Z</time>
      </trkpt>
      <trkpt lat="-22.144401" lon="-45.375638">
        <ele>1526.222</ele>
        <time>2019-10-16T15:09:55Z</time>
      </trkpt>
      <trkpt lat="-22.144392" lon="-45.375565">
        <ele>1526.760</ele>
        <time>2019-10-16T15:09:59Z</time>
      </trkpt>
      <trkpt lat="-22.144385" lon="-45.375513">
        <ele>1527.113</ele>
        <time>2019-10-16T15:10:02Z</time>
      </trkpt>
      <trkpt lat="-22.144394" lon="-45.375453">
        <ele>1527.411</ele>
        <time>2019-10-16T15:10:06Z</time>
      </trkpt>
      <trkpt lat="-22.144386" lon="-45.375399">
        <ele>1527.871</ele>
        <time>2019-10-16T15:10:09Z</time>
      </trkpt>
      <trkpt lat="-22.144402" lon="-45.375332">
        <ele>1528.183</ele>
        <time>2019-10-16T15:10:12Z</time>
      </trkpt>
      <trkpt lat="-22.144410" lon="-45.375272">
        <ele>1528.497</ele>
        <time>2019-10-16T15:10:16Z</time>
      </trkpt>
      <trkpt lat="-22.144407" lon="-45.375216">
        <ele>1528.834</ele>
        <time>2019-10-16T15:10:18Z</time>
      </trkpt>
      <trkpt lat="-22.144424" lon="-45.375168">
        <ele>1529.038</ele>
        <time>2019-10-16T15:10:21Z</time>
      </trkpt>
      <trkpt lat="-22.144434" lon="-45.375119">
        <ele>1529.370</ele>
        <time>2019-10-16T15:10:24Z</time>
      </trkpt>
      <trkpt lat="-22.144449" lon="-45.375069">
        <ele>1529.517</ele>
        <time>2019-10-16T15:10:27Z</time>
      </trkpt>
      <trkpt lat="-22.144460" lon="-45.375017">
        <ele>1529.808</ele>
        <time>2019-10-16T15:10:30Z</time>
      </trkpt>
      <trkpt lat="-22.144474" lon="-45.374967">
        <ele>1529.897</ele>
        <time>2019-10-16T15:10:33Z</time>
      </trkpt>
      <trkpt lat="-22.144484" lon="-45.374919">
        <ele>1529.775</ele>
        <time>2019-10-16T15:10:36Z</time>
      </trkpt>
      <trkpt lat="-22.144498" lon="-45.374840">
        <ele>1529.658</ele>
        <time>2019-10-16T15:10:39Z</time>
      </trkpt>
      <trkpt lat="-22.144511" lon="-45.374762">
        <ele>1529.456</ele>
        <time>2019-10-16T15:10:42Z</time>
      </trkpt>
      <trkpt lat="-22.144517" lon="-45.374700">
        <ele>1529.466</ele>
        <time>2019-10-16T15:10:45Z</time>
      </trkpt>
      <trkpt lat="-22.144527" lon="-45.374626">
        <ele>1529.338</ele>
        <time>2019-10-16T15:10:47Z</time>
      </trkpt>
      <trkpt lat="-22.144545" lon="-45.374496">
        <ele>1529.142</ele>
        <time>2019-10-16T15:10:53Z</time>
      </trkpt>
      <trkpt lat="-22.144544" lon="-45.374391">
        <ele>1529.049</ele>
        <time>2019-10-16T15:10:57Z</time>
      </trkpt>
      <trkpt lat="-22.144548" lon="-45.374318">
        <ele>1529.069</ele>
        <time>2019-10-16T15:10:59Z</time>
      </trkpt>
      <trkpt lat="-22.144544" lon="-45.374258">
        <ele>1528.904</ele>
        <time>2019-10-16T15:11:02Z</time>
      </trkpt>
      <trkpt lat="-22.144545" lon="-45.374208">
        <ele>1528.924</ele>
        <time>2019-10-16T15:11:06Z</time>
      </trkpt>
      <trkpt lat="-22.144535" lon="-45.374129">
        <ele>1528.608</ele>
        <time>2019-10-16T15:11:12Z</time>
      </trkpt>
      <trkpt lat="-22.144538" lon="-45.374068">
        <ele>1528.580</ele>
        <time>2019-10-16T15:13:47Z</time>
      </trkpt>
      <trkpt lat="-22.144528" lon="-45.374018">
        <ele>1528.228</ele>
        <time>2019-10-16T15:13:49Z</time>
      </trkpt>
      <trkpt lat="-22.144518" lon="-45.373958">
        <ele>1528.011</ele>
        <time>2019-10-16T15:18:44Z</time>
      </trkpt>
      <trkpt lat="-22.144510" lon="-45.373892">
        <ele>1527.799</ele>
        <time>2019-10-16T15:18:46Z</time>
      </trkpt>
      <trkpt lat="-22.144057" lon="-45.362474">
        <ele>1414.779</ele>
        <time>2019-10-16T15:21:11Z</time>
      </trkpt>
      <trkpt lat="-22.144011" lon="-45.362428">
        <ele>1414.661</ele>
        <time>2019-10-16T15:21:14Z</time>
      </trkpt>
      <trkpt lat="-22.143977" lon="-45.362386">
        <ele>1414.665</ele>
        <time>2019-10-16T15:21:17Z</time>
      </trkpt>
      <trkpt lat="-22.143926" lon="-45.362326">
        <ele>1414.562</ele>
        <time>2019-10-16T15:21:20Z</time>
      </trkpt>
      <trkpt lat="-22.143886" lon="-45.362289">
        <ele>1414.286</ele>
        <time>2019-10-16T15:21:23Z</time>
      </trkpt>
      <trkpt lat="-22.143833" lon="-45.362217">
        <ele>1414.160</ele>
        <time>2019-10-16T15:21:26Z</time>
      </trkpt>
      <trkpt lat="-22.143800" lon="-45.362183">
        <ele>1413.926</ele>
        <time>2019-10-16T15:21:28Z</time>
      </trkpt>
      <trkpt lat="-22.143772" lon="-45.362118">
        <ele>1414.108</ele>
        <time>2019-10-16T15:21:30Z</time>
      </trkpt>
      <trkpt lat="-22.143749" lon="-45.362057">
        <ele>1414.392</ele>
        <time>2019-10-16T15:21:34Z</time>
      </trkpt>
      <trkpt lat="-22.143731" lon="-45.362002">
        <ele>1414.580</ele>
        <time>2019-10-16T15:21:36Z</time>
      </trkpt>
      <trkpt lat="-22.143712" lon="-45.361954">
        <ele>1414.613</ele>
        <time>2019-10-16T15:21:39Z</time>
      </trkpt>
      <trkpt lat="-22.143693" lon="-45.361909">
        <ele>1414.651</ele>
        <time>2019-10-16T15:21:42Z</time>
      </trkpt>
      <trkpt lat="-22.143671" lon="-45.361863">
        <ele>1414.641</ele>
        <time>2019-10-16T15:21:44Z</time>
      </trkpt>
      <trkpt lat="-22.143649" lon="-45.361808">
        <ele>1414.623</ele>
        <time>2019-10-16T15:21:46Z</time>
      </trkpt>
      <trkpt lat="-22.143624" lon="-45.361755">
        <ele>1414.587</ele>
        <time>2019-10-16T15:21:48Z</time>
      </trkpt>
      <trkpt lat="-22.143610" lon="-45.361700">
        <ele>1414.754</ele>
        <time>2019-10-16T15:21:50Z</time>
      </trkpt>
      <trkpt lat="-22.143594" lon="-45.361640">
        <ele>1414.772</ele>
        <time>2019-10-16T15:21:52Z</time>
      </trkpt>
      <trkpt lat="-22.143576" lon="-45.361587">
        <ele>1414.513</ele>
        <time>2019-10-16T15:21:55Z</time>
      </trkpt>
      <trkpt lat="-22.143556" lon="-45.361536">
        <ele>1414.214</ele>
        <time>2019-10-16T15:21:57Z</time>
      </trkpt>
      <trkpt lat="-22.143535" lon="-45.361492">
        <ele>1413.808</ele>
        <time>2019-10-16T15:21:59Z</time>
      </trkpt>
      <trkpt lat="-22.143518" lon="-45.361422">
        <ele>1413.661</ele>
        <time>2019-10-16T15:22:01Z</time>
      </trkpt>
      <trkpt lat="-22.143497" lon="-45.361367">
        <ele>1413.249</ele>
        <time>2019-10-16T15:22:03Z</time>
      </trkpt>
      <trkpt lat="-22.142169" lon="-45.358314">
        <ele>1409.472</ele>
        <time>2019-10-16T15:22:58Z</time>
      </trkpt>
      <trkpt lat="-22.142159" lon="-45.358219">
        <ele>1408.050</ele>
        <time>2019-10-16T15:23:00Z</time>
      </trkpt>
      <trkpt lat="-22.142146" lon="-45.358140">
        <ele>1406.720</ele>
        <time>2019-10-16T15:23:02Z</time>
      </trkpt>
      <trkpt lat="-22.142143" lon="-45.358090">
        <ele>1406.052</ele>
        <time>2019-10-16T15:23:03Z</time>
      </trkpt>
      <trkpt lat="-22.142130" lon="-45.358020">
        <ele>1404.816</ele>
        <time>2019-10-16T15:23:04Z</time>
      </trkpt>
      <trkpt lat="-22.142100" lon="-45.357931">
        <ele>1403.143</ele>
        <time>2019-10-16T15:23:07Z</time>
      </trkpt>
      <trkpt lat="-22.141754" lon="-45.355117">
        <ele>1354.765</ele>
        <time>2019-10-16T15:23:51Z</time>
      </trkpt>
      <trkpt lat="-22.141772" lon="-45.355055">
        <ele>1353.868</ele>
        <time>2019-10-16T15:23:53Z</time>
      </trkpt>
      <trkpt lat="-22.141791" lon="-45.355002">
        <ele>1353.214</ele>
        <time>2019-10-16T15:23:55Z</time>
      </trkpt>
      <trkpt lat="-22.141808" lon="-45.354951">
        <ele>1352.008</ele>
        <time>2019-10-16T15:23:56Z</time>
      </trkpt>
      <trkpt lat="-22.141823" lon="-45.354893">
        <ele>1350.520</ele>
        <time>2019-10-16T15:23:58Z</time>
      </trkpt>
      <trkpt lat="-22.141876" lon="-45.354733">
        <ele>1346.918</ele>
        <time>2019-10-16T15:24:01Z</time>
      </trkpt>
      <trkpt lat="-22.141914" lon="-45.354676">
        <ele>1346.181</ele>
        <time>2019-10-16T15:24:02Z</time>
      </trkpt>
      <trkpt lat="-22.141930" lon="-45.354631">
        <ele>1345.119</ele>
        <time>2019-10-16T15:24:03Z</time>
      </trkpt>
      <trkpt lat="-22.141987" lon="-45.354366">
        <ele>1338.499</ele>
        <time>2019-10-16T15:24:08Z</time>
      </trkpt>
      <trkpt lat="-22.142008" lon="-45.354300">
        <ele>1337.081</ele>
        <time>2019-10-16T15:24:10Z</time>
      </trkpt>
      <trkpt lat="-22.142048" lon="-45.354205">
        <ele>1335.225</ele>
        <time>2019-10-16T15:24:13Z</time>
      </trkpt>
      <trkpt lat="-22.142061" lon="-45.354158">
        <ele>1334.122</ele>
        <time>2019-10-16T15:24:20Z</time>
      </trkpt>
      <trkpt lat="-22.142073" lon="-45.354105">
        <ele>1332.913</ele>
        <time>2019-10-16T15:25:11Z</time>
      </trkpt>
      <trkpt lat="-22.142259" lon="-45.353460">
        <ele>1317.043</ele>
        <time>2019-10-16T15:25:23Z</time>
      </trkpt>
      <trkpt lat="-22.142278" lon="-45.353407">
        <ele>1315.507</ele>
        <time>2019-10-16T15:25:25Z</time>
      </trkpt>
      <trkpt lat="-22.142301" lon="-45.353361">
        <ele>1314.308</ele>
        <time>2019-10-16T15:25:26Z</time>
      </trkpt>
      <trkpt lat="-22.142327" lon="-45.353321">
        <ele>1313.295</ele>
        <time>2019-10-16T15:25:28Z</time>
      </trkpt>
      <trkpt lat="-22.142370" lon="-45.353267">
        <ele>1311.453</ele>
        <time>2019-10-16T15:25:30Z</time>
      </trkpt>
      <trkpt lat="-22.142430" lon="-45.353229">
        <ele>1310.376</ele>
        <time>2019-10-16T15:25:45Z</time>
      </trkpt>
      <trkpt lat="-22.142649" lon="-45.353097">
        <ele>1305.514</ele>
        <time>2019-10-16T15:25:50Z</time>
      </trkpt>
      <trkpt lat="-22.142690" lon="-45.353068">
        <ele>1304.334</ele>
        <time>2019-10-16T15:25:59Z</time>
      </trkpt>
      <trkpt lat="-22.142759" lon="-45.353081">
        <ele>1305.316</ele>
        <time>2019-10-16T15:27:16Z</time>
      </trkpt>
      <trkpt lat="-22.142998" lon="-45.353188">
        <ele>1311.970</ele>
        <time>2019-10-16T15:27:22Z</time>
      </trkpt>
      <trkpt lat="-22.143427" lon="-45.352719">
        <ele>1292.287</ele>
        <time>2019-10-16T15:27:36Z</time>
      </trkpt>
      <trkpt lat="-22.143496" lon="-45.352677">
        <ele>1291.222</ele>
        <time>2019-10-16T15:27:37Z</time>
      </trkpt>
      <trkpt lat="-22.143553" lon="-45.352645">
        <ele>1290.562</ele>
        <time>2019-10-16T15:27:38Z</time>
      </trkpt>
      <trkpt lat="-22.143600" lon="-45.352616">
        <ele>1289.808</ele>
        <time>2019-10-16T15:27:40Z</time>
      </trkpt>
      <trkpt lat="-22.143662" lon="-45.352568">
        <ele>1288.408</ele>
        <time>2019-10-16T15:28:37Z</time>
      </trkpt>
      <trkpt lat="-22.143732" lon="-45.352528">
        <ele>1287.696</ele>
        <time>2019-10-16T15:28:40Z</time>
      </trkpt>
      <trkpt lat="-22.143783" lon="-45.352503">
        <ele>1287.254</ele>
        <time>2019-10-16T15:28:42Z</time>
      </trkpt>
      <trkpt lat="-22.143828" lon="-45.352485">
        <ele>1287.037</ele>
        <time>2019-10-16T15:28:43Z</time>
      </trkpt>
      <trkpt lat="-22.143899" lon="-45.352474">
        <ele>1287.695</ele>
        <time>2019-10-16T15:28:45Z</time>
      </trkpt>
      <trkpt lat="-22.144075" lon="-45.352434">
        <ele>1288.555</ele>
        <time>2019-10-16T15:28:50Z</time>
      </trkpt>
      <trkpt lat="-22.144117" lon="-45.352403">
        <ele>1287.717</ele>
        <time>2019-10-16T15:28:52Z</time>
      </trkpt>
      <trkpt lat="-22.144230" lon="-45.352259">
        <ele>1284.141</ele>
        <time>2019-10-16T15:28:56Z</time>
      </trkpt>
      <trkpt lat="-22.144262" lon="-45.352206">
        <ele>1282.858</ele>
        <time>2019-10-16T15:28:59Z</time>
      </trkpt>
      <trkpt lat="-22.144308" lon="-45.352186">
        <ele>1283.667</ele>
        <time>2019-10-16T15:29:01Z</time>
      </trkpt>
      <trkpt lat="-22.144367" lon="-45.352190">
        <ele>1286.081</ele>
        <time>2019-10-16T15:29:04Z</time>
      </trkpt>
      <trkpt lat="-22.144432" lon="-45.352155">
        <ele>1286.819</ele>
        <time>2019-10-16T15:29:08Z</time>
      </trkpt>
      <trkpt lat="-22.144476" lon="-45.352111">
        <ele>1286.508</ele>
        <time>2019-10-16T15:29:10Z</time>
      </trkpt>
      <trkpt lat="-22.144502" lon="-45.352070">
        <ele>1285.650</ele>
        <time>2019-10-16T15:29:11Z</time>
      </trkpt>
      <trkpt lat="-22.144529" lon="-45.352021">
        <ele>1284.428</ele>
        <time>2019-10-16T15:29:13Z</time>
      </trkpt>
      <trkpt lat="-22.144554" lon="-45.351960">
        <ele>1282.621</ele>
        <time>2019-10-16T15:29:16Z</time>
      </trkpt>
      <trkpt lat="-22.144576" lon="-45.351910">
        <ele>1281.219</ele>
        <time>2019-10-16T15:29:18Z</time>
      </trkpt>
      <trkpt lat="-22.144592" lon="-45.351853">
        <ele>1279.239</ele>
        <time>2019-10-16T15:29:21Z</time>
      </trkpt>
      <trkpt lat="-22.144600" lon="-45.351799">
        <ele>1277.141</ele>
        <time>2019-10-16T15:29:23Z</time>
      </trkpt>
      <trkpt lat="-22.144615" lon="-45.351723">
        <ele>1274.395</ele>
        <time>2019-10-16T15:29:26Z</time>
      </trkpt>
      <trkpt lat="-22.144709" lon="-45.351445">
        <ele>1270.762</ele>
        <time>2019-10-16T15:29:33Z</time>
      </trkpt>
      <trkpt lat="-22.144749" lon="-45.351393">
        <ele>1271.173</ele>
        <time>2019-10-16T15:29:35Z</time>
      </trkpt>
      <trkpt lat="-22.144761" lon="-45.351342">
        <ele>1270.585</ele>
        <time>2019-10-16T15:29:36Z</time>
      </trkpt>
      <trkpt lat="-22.144753" lon="-45.351290">
        <ele>1269.013</ele>
        <time>2019-10-16T15:29:39Z</time>
      </trkpt>
      <trkpt lat="-22.144705" lon="-45.351221">
        <ele>1265.708</ele>
        <time>2019-10-16T15:29:42Z</time>
      </trkpt>
      <trkpt lat="-22.144664" lon="-45.351155">
        <ele>1262.821</ele>
        <time>2019-10-16T15:29:45Z</time>
      </trkpt>
      <trkpt lat="-22.144641" lon="-45.351110">
        <ele>1261.029</ele>
        <time>2019-10-16T15:29:47Z</time>
      </trkpt>
      <trkpt lat="-22.144565" lon="-45.351013">
        <ele>1256.122</ele>
        <time>2019-10-16T15:29:50Z</time>
      </trkpt>
      <trkpt lat="-22.144426" lon="-45.350872">
        <ele>1248.140</ele>
        <time>2019-10-16T15:29:55Z</time>
      </trkpt>
      <trkpt lat="-22.144192" lon="-45.350660">
        <ele>1236.930</ele>
        <time>2019-10-16T15:30:02Z</time>
      </trkpt>
      <trkpt lat="-22.144149" lon="-45.350636">
        <ele>1235.322</ele>
        <time>2019-10-16T15:30:04Z</time>
      </trkpt>
      <trkpt lat="-22.144110" lon="-45.350597">
        <ele>1234.156</ele>
        <time>2019-10-16T15:30:05Z</time>
      </trkpt>
      <trkpt lat="-22.144067" lon="-45.350546">
        <ele>1232.783</ele>
        <time>2019-10-16T15:30:06Z</time>
      </trkpt>
      <trkpt lat="-22.144032" lon="-45.350510">
        <ele>1231.658</ele>
        <time>2019-10-16T15:30:08Z</time>
      </trkpt>
      <trkpt lat="-22.143986" lon="-45.350471">
        <ele>1230.352</ele>
        <time>2019-10-16T15:30:10Z</time>
      </trkpt>
      <trkpt lat="-22.143950" lon="-45.350440">
        <ele>1229.317</ele>
        <time>2019-10-16T15:30:12Z</time>
      </trkpt>
      <trkpt lat="-22.143904" lon="-45.350396">
        <ele>1227.908</ele>
        <time>2019-10-16T15:30:13Z</time>
      </trkpt>
      <trkpt lat="-22.143881" lon="-45.350340">
        <ele>1226.739</ele>
        <time>2019-10-16T15:30:15Z</time>
      </trkpt>
      <trkpt lat="-22.143870" lon="-45.350279">
        <ele>1225.887</ele>
        <time>2019-10-16T15:30:17Z</time>
      </trkpt>
      <trkpt lat="-22.143880" lon="-45.350223">
        <ele>1225.360</ele>
        <time>2019-10-16T15:30:19Z</time>
      </trkpt>
      <trkpt lat="-22.144066" lon="-45.349858">
        <ele>1223.688</ele>
        <time>2019-10-16T15:30:28Z</time>
      </trkpt>
      <trkpt lat="-22.144081" lon="-45.349804">
        <ele>1222.968</ele>
        <time>2019-10-16T15:30:30Z</time>
      </trkpt>
      <trkpt lat="-22.144071" lon="-45.349754">
        <ele>1221.910</ele>
        <time>2019-10-16T15:30:33Z</time>
      </trkpt>
      <trkpt lat="-22.144067" lon="-45.349700">
        <ele>1220.974</ele>
        <time>2019-10-16T15:30:35Z</time>
      </trkpt>
      <trkpt lat="-22.144060" lon="-45.349651">
        <ele>1219.991</ele>
        <time>2019-10-16T15:30:36Z</time>
      </trkpt>
      <trkpt lat="-22.143996" lon="-45.349427">
        <ele>1215.045</ele>
        <time>2019-10-16T15:30:40Z</time>
      </trkpt>
      <trkpt lat="-22.144293" lon="-45.348668">
        <ele>1208.447</ele>
        <time>2019-10-16T15:30:54Z</time>
      </trkpt>
      <trkpt lat="-22.144307" lon="-45.348621">
        <ele>1208.111</ele>
        <time>2019-10-16T15:30:56Z</time>
      </trkpt>
      <trkpt lat="-22.144339" lon="-45.348585">
        <ele>1208.808</ele>
        <time>2019-10-16T15:30:58Z</time>
      </trkpt>
      <trkpt lat="-22.144369" lon="-45.348511">
        <ele>1208.868</ele>
        <time>2019-10-16T15:31:00Z</time>
      </trkpt>
      <trkpt lat="-22.144370" lon="-45.348455">
        <ele>1207.826</ele>
        <time>2019-10-16T15:31:02Z</time>
      </trkpt>
      <trkpt lat="-22.144366" lon="-45.348393">
        <ele>1206.449</ele>
        <time>2019-10-16T15:31:03Z</time>
      </trkpt>
      <trkpt lat="-22.144352" lon="-45.348339">
        <ele>1204.867</ele>
        <time>2019-10-16T15:31:05Z</time>
      </trkpt>
      <trkpt lat="-22.144337" lon="-45.348269">
        <ele>1203.227</ele>
        <time>2019-10-16T15:31:08Z</time>
      </trkpt>
      <trkpt lat="-22.144311" lon="-45.348230">
        <ele>1201.559</ele>
        <time>2019-10-16T15:31:10Z</time>
      </trkpt>
      <trkpt lat="-22.144262" lon="-45.348164">
        <ele>1198.353</ele>
        <time>2019-10-16T15:31:12Z</time>
      </trkpt>
      <trkpt lat="-22.144222" lon="-45.348088">
        <ele>1195.380</ele>
        <time>2019-10-16T15:31:15Z</time>
      </trkpt>
      <trkpt lat="-22.144185" lon="-45.348025">
        <ele>1192.517</ele>
        <time>2019-10-16T15:31:17Z</time>
      </trkpt>
      <trkpt lat="-22.144152" lon="-45.347990">
        <ele>1190.987</ele>
        <time>2019-10-16T15:31:19Z</time>
      </trkpt>
      <trkpt lat="-22.144111" lon="-45.347930">
        <ele>1189.515</ele>
        <time>2019-10-16T15:31:22Z</time>
      </trkpt>
      <trkpt lat="-22.144086" lon="-45.347877">
        <ele>1188.408</ele>
        <time>2019-10-16T15:31:23Z</time>
      </trkpt>
      <trkpt lat="-22.144058" lon="-45.347809">
        <ele>1187.185</ele>
        <time>2019-10-16T15:31:25Z</time>
      </trkpt>
      <trkpt lat="-22.144022" lon="-45.347725">
        <ele>1185.393</ele>
        <time>2019-10-16T15:31:28Z</time>
      </trkpt>
      <trkpt lat="-22.143997" lon="-45.347663">
        <ele>1184.146</ele>
        <time>2019-10-16T15:31:30Z</time>
      </trkpt>
      <trkpt lat="-22.143982" lon="-45.347586">
        <ele>1182.734</ele>
        <time>2019-10-16T15:31:33Z</time>
      </trkpt>
      <trkpt lat="-22.143979" lon="-45.347532">
        <ele>1181.824</ele>
        <time>2019-10-16T15:31:34Z</time>
      </trkpt>
      <trkpt lat="-22.143975" lon="-45.347474">
        <ele>1180.896</ele>
        <time>2019-10-16T15:31:36Z</time>
      </trkpt>
      <trkpt lat="-22.143969" lon="-45.347418">
        <ele>1179.930</ele>
        <time>2019-10-16T15:31:37Z</time>
      </trkpt>
      <trkpt lat="-22.143961" lon="-45.347367">
        <ele>1179.037</ele>
        <time>2019-10-16T15:31:39Z</time>
      </trkpt>
      <trkpt lat="-22.143957" lon="-45.347311">
        <ele>1178.059</ele>
        <time>2019-10-16T15:31:41Z</time>
      </trkpt>
      <trkpt lat="-22.143955" lon="-45.347247">
        <ele>1177.003</ele>
        <time>2019-10-16T15:31:42Z</time>
      </trkpt>
      <trkpt lat="-22.143946" lon="-45.347187">
        <ele>1175.923</ele>
        <time>2019-10-16T15:31:44Z</time>
      </trkpt>
      <trkpt lat="-22.143945" lon="-45.347129">
        <ele>1174.908</ele>
        <time>2019-10-16T15:31:45Z</time>
      </trkpt>
      <trkpt lat="-22.143943" lon="-45.347079">
        <ele>1174.199</ele>
        <time>2019-10-16T15:31:47Z</time>
      </trkpt>
      <trkpt lat="-22.143938" lon="-45.347019">
        <ele>1173.077</ele>
        <time>2019-10-16T15:31:49Z</time>
      </trkpt>
      <trkpt lat="-22.143934" lon="-45.346887">
        <ele>1170.880</ele>
        <time>2019-10-16T15:31:51Z</time>
      </trkpt>
      <trkpt lat="-22.143930" lon="-45.346826">
        <ele>1169.718</ele>
        <time>2019-10-16T15:31:53Z</time>
      </trkpt>
      <trkpt lat="-22.143943" lon="-45.346742">
        <ele>1168.868</ele>
        <time>2019-10-16T15:31:55Z</time>
      </trkpt>
      <trkpt lat="-22.143916" lon="-45.345518">
        <ele>1157.190</ele>
        <time>2019-10-16T15:32:19Z</time>
      </trkpt>
      <trkpt lat="-22.143766" lon="-45.345149">
        <ele>1149.364</ele>
        <time>2019-10-16T15:32:28Z</time>
      </trkpt>
      <trkpt lat="-22.143713" lon="-45.345097">
        <ele>1146.731</ele>
        <time>2019-10-16T15:32:30Z</time>
      </trkpt>
      <trkpt lat="-22.143683" lon="-45.345047">
        <ele>1145.242</ele>
        <time>2019-10-16T15:32:32Z</time>
      </trkpt>
      <trkpt lat="-22.143668" lon="-45.344993">
        <ele>1144.322</ele>
        <time>2019-10-16T15:32:34Z</time>
      </trkpt>
      <trkpt lat="-22.143658" lon="-45.344944">
        <ele>1144.114</ele>
        <time>2019-10-16T15:32:35Z</time>
      </trkpt>
      <trkpt lat="-22.143646" lon="-45.344876">
        <ele>1143.808</ele>
        <time>2019-10-16T15:32:37Z</time>
      </trkpt>
      <trkpt lat="-22.143638" lon="-45.344826">
        <ele>1143.748</ele>
        <time>2019-10-16T15:32:38Z</time>
      </trkpt>
      <trkpt lat="-22.143618" lon="-45.344744">
        <ele>1143.186</ele>
        <time>2019-10-16T15:32:40Z</time>
      </trkpt>
      <trkpt lat="-22.143593" lon="-45.344699">
        <ele>1142.149</ele>
        <time>2019-10-16T15:32:42Z</time>
      </trkpt>
      <trkpt lat="-22.143538" lon="-45.344566">
        <ele>1140.097</ele>
        <time>2019-10-16T15:32:45Z</time>
      </trkpt>
      <trkpt lat="-22.143509" lon="-45.344528">
        <ele>1138.727</ele>
        <time>2019-10-16T15:32:47Z</time>
      </trkpt>
      <trkpt lat="-22.143490" lon="-45.344475">
        <ele>1138.089</ele>
        <time>2019-10-16T15:32:48Z</time>
      </trkpt>
      <trkpt lat="-22.143467" lon="-45.344398">
        <ele>1137.123</ele>
        <time>2019-10-16T15:32:51Z</time>
      </trkpt>
      <trkpt lat="-22.143420" lon="-45.344333">
        <ele>1135.020</ele>
        <time>2019-10-16T15:32:55Z</time>
      </trkpt>
      <trkpt lat="-22.143392" lon="-45.344293">
        <ele>1133.758</ele>
        <time>2019-10-16T15:32:57Z</time>
      </trkpt>
      <trkpt lat="-22.143355" lon="-45.344225">
        <ele>1132.052</ele>
        <time>2019-10-16T15:33:00Z</time>
      </trkpt>
      <trkpt lat="-22.143297" lon="-45.344188">
        <ele>1129.717</ele>
        <time>2019-10-16T15:33:03Z</time>
      </trkpt>
      <trkpt lat="-22.143251" lon="-45.344209">
        <ele>1128.008</ele>
        <time>2019-10-16T15:33:07Z</time>
      </trkpt>
      <trkpt lat="-22.143260" lon="-45.344268">
        <ele>1128.279</ele>
        <time>2019-10-16T15:33:10Z</time>
      </trkpt>
      <trkpt lat="-22.143263" lon="-45.344352">
        <ele>1128.287</ele>
        <time>2019-10-16T15:33:13Z</time>
      </trkpt>
      <trkpt lat="-22.143249" lon="-45.344409">
        <ele>1127.780</ele>
        <time>2019-10-16T15:33:14Z</time>
      </trkpt>
      <trkpt lat="-22.143204" lon="-45.344544">
        <ele>1126.318</ele>
        <time>2019-10-16T15:33:17Z</time>
      </trkpt>
      <trkpt lat="-22.143175" lon="-45.344583">
        <ele>1125.478</ele>
        <time>2019-10-16T15:33:19Z</time>
      </trkpt>
      <trkpt lat="-22.143140" lon="-45.344619">
        <ele>1124.570</ele>
        <time>2019-10-16T15:33:21Z</time>
      </trkpt>
      <trkpt lat="-22.143096" lon="-45.344653">
        <ele>1123.334</ele>
        <time>2019-10-16T15:33:23Z</time>
      </trkpt>
      <trkpt lat="-22.143051" lon="-45.344674">
        <ele>1122.111</ele>
        <time>2019-10-16T15:33:25Z</time>
      </trkpt>
      <trkpt lat="-22.143005" lon="-45.344685">
        <ele>1120.994</ele>
        <time>2019-10-16T15:33:27Z</time>
      </trkpt>
      <trkpt lat="-22.142954" lon="-45.344697">
        <ele>1119.557</ele>
        <time>2019-10-16T15:33:28Z</time>
      </trkpt>
      <trkpt lat="-22.142900" lon="-45.344705">
        <ele>1118.122</ele>
        <time>2019-10-16T15:33:30Z</time>
      </trkpt>
      <trkpt lat="-22.142830" lon="-45.344721">
        <ele>1116.408</ele>
        <time>2019-10-16T15:33:32Z</time>
      </trkpt>
      <trkpt lat="-22.142740" lon="-45.344738">
        <ele>1114.183</ele>
        <time>2019-10-16T15:33:35Z</time>
      </trkpt>
      <trkpt lat="-22.142695" lon="-45.344738">
        <ele>1113.051</ele>
        <time>2019-10-16T15:33:36Z</time>
      </trkpt>
      <trkpt lat="-22.142620" lon="-45.344735">
        <ele>1111.094</ele>
        <time>2019-10-16T15:33:39Z</time>
      </trkpt>
      <trkpt lat="-22.142573" lon="-45.344709">
        <ele>1109.522</ele>
        <time>2019-10-16T15:33:41Z</time>
      </trkpt>
      <trkpt lat="-22.142533" lon="-45.344640">
        <ele>1107.652</ele>
        <time>2019-10-16T15:33:44Z</time>
      </trkpt>
      <trkpt lat="-22.142529" lon="-45.344553">
        <ele>1106.554</ele>
        <time>2019-10-16T15:33:47Z</time>
      </trkpt>
      <trkpt lat="-22.142558" lon="-45.344497">
        <ele>1106.738</ele>
        <time>2019-10-16T15:33:49Z</time>
      </trkpt>
      <trkpt lat="-22.142595" lon="-45.344442">
        <ele>1107.365</ele>
        <time>2019-10-16T15:33:50Z</time>
      </trkpt>
      <trkpt lat="-22.142632" lon="-45.344398">
        <ele>1108.056</ele>
        <time>2019-10-16T15:33:52Z</time>
      </trkpt>
      <trkpt lat="-22.142657" lon="-45.344326">
        <ele>1108.159</ele>
        <time>2019-10-16T15:33:54Z</time>
      </trkpt>
      <trkpt lat="-22.142663" lon="-45.344242">
        <ele>1107.614</ele>
        <time>2019-10-16T15:33:56Z</time>
      </trkpt>
      <trkpt lat="-22.142683" lon="-45.344078">
        <ele>1109.008</ele>
        <time>2019-10-16T15:33:59Z</time>
      </trkpt>
      <trkpt lat="-22.142672" lon="-45.344026">
        <ele>1109.449</ele>
        <time>2019-10-16T15:34:01Z</time>
      </trkpt>
      <trkpt lat="-22.142675" lon="-45.343969">
        <ele>1110.537</ele>
        <time>2019-10-16T15:34:02Z</time>
      </trkpt>
      <trkpt lat="-22.142673" lon="-45.343911">
        <ele>1111.330</ele>
        <time>2019-10-16T15:34:04Z</time>
      </trkpt>
      <trkpt lat="-22.142671" lon="-45.343832">
        <ele>1112.558</ele>
        <time>2019-10-16T15:34:07Z</time>
      </trkpt>
      <trkpt lat="-22.142661" lon="-45.343773">
        <ele>1113.058</ele>
        <time>2019-10-16T15:34:09Z</time>
      </trkpt>
      <trkpt lat="-22.142636" lon="-45.343728">
        <ele>1112.580</ele>
        <time>2019-10-16T15:34:11Z</time>
      </trkpt>
      <trkpt lat="-22.142577" lon="-45.343692">
        <ele>1110.394</ele>
        <time>2019-10-16T15:34:14Z</time>
      </trkpt>
      <trkpt lat="-22.142503" lon="-45.343658">
        <ele>1107.281</ele>
        <time>2019-10-16T15:34:17Z</time>
      </trkpt>
      <trkpt lat="-22.142441" lon="-45.343654">
        <ele>1104.884</ele>
        <time>2019-10-16T15:34:19Z</time>
      </trkpt>
      <trkpt lat="-22.142396" lon="-45.343659">
        <ele>1102.907</ele>
        <time>2019-10-16T15:34:20Z</time>
      </trkpt>
      <trkpt lat="-22.142350" lon="-45.343659">
        <ele>1101.117</ele>
        <time>2019-10-16T15:34:22Z</time>
      </trkpt>
      <trkpt lat="-22.142303" lon="-45.343676">
        <ele>1099.008</ele>
        <time>2019-10-16T15:34:25Z</time>
      </trkpt>
      <trkpt lat="-22.142271" lon="-45.343717">
        <ele>1097.592</ele>
        <time>2019-10-16T15:34:27Z</time>
      </trkpt>
      <trkpt lat="-22.142238" lon="-45.343771">
        <ele>1095.880</ele>
        <time>2019-10-16T15:34:30Z</time>
      </trkpt>
      <trkpt lat="-22.142196" lon="-45.343814">
        <ele>1094.083</ele>
        <time>2019-10-16T15:34:33Z</time>
      </trkpt>
      <trkpt lat="-22.142121" lon="-45.343824">
        <ele>1091.191</ele>
        <time>2019-10-16T15:34:36Z</time>
      </trkpt>
      <trkpt lat="-22.142076" lon="-45.343822">
        <ele>1089.511</ele>
        <time>2019-10-16T15:34:38Z</time>
      </trkpt>
      <trkpt lat="-22.142020" lon="-45.343821">
        <ele>1087.493</ele>
        <time>2019-10-16T15:34:40Z</time>
      </trkpt>
      <trkpt lat="-22.141962" lon="-45.343809">
        <ele>1085.377</ele>
        <time>2019-10-16T15:34:43Z</time>
      </trkpt>
      <trkpt lat="-22.141909" lon="-45.343740">
        <ele>1083.324</ele>
        <time>2019-10-16T15:34:45Z</time>
      </trkpt>
      <trkpt lat="-22.141863" lon="-45.343663">
        <ele>1081.585</ele>
        <time>2019-10-16T15:34:47Z</time>
      </trkpt>
      <trkpt lat="-22.141812" lon="-45.343609">
        <ele>1079.389</ele>
        <time>2019-10-16T15:34:49Z</time>
      </trkpt>
      <trkpt lat="-22.141781" lon="-45.343571">
        <ele>1077.917</ele>
        <time>2019-10-16T15:34:51Z</time>
      </trkpt>
      <trkpt lat="-22.141742" lon="-45.343529">
        <ele>1076.208</ele>
        <time>2019-10-16T15:34:53Z</time>
      </trkpt>
      <trkpt lat="-22.141701" lon="-45.343498">
        <ele>1074.332</ele>
        <time>2019-10-16T15:34:55Z</time>
      </trkpt>
      <trkpt lat="-22.141656" lon="-45.343474">
        <ele>1072.340</ele>
        <time>2019-10-16T15:34:57Z</time>
      </trkpt>
      <trkpt lat="-22.141594" lon="-45.343422">
        <ele>1070.143</ele>
        <time>2019-10-16T15:35:00Z</time>
      </trkpt>
      <trkpt lat="-22.141522" lon="-45.343354">
        <ele>1067.431</ele>
        <time>2019-10-16T15:35:03Z</time>
      </trkpt>
      <trkpt lat="-22.141413" lon="-45.343131">
        <ele>1070.021</ele>
        <time>2019-10-16T15:36:43Z</time>
      </trkpt>
      <trkpt lat="-22.141379" lon="-45.343079">
        <ele>1070.493</ele>
        <time>2019-10-16T15:36:45Z</time>
      </trkpt>
      <trkpt lat="-22.141320" lon="-45.343030">
        <ele>1069.647</ele>
        <time>2019-10-16T15:36:47Z</time>
      </trkpt>
      <trkpt lat="-22.141274" lon="-45.343015">
        <ele>1068.264</ele>
        <time>2019-10-16T15:36:49Z</time>
      </trkpt>
      <trkpt lat="-22.141225" lon="-45.342990">
        <ele>1067.052</ele>
        <time>2019-10-16T15:36:51Z</time>
      </trkpt>
      <trkpt lat="-22.141170" lon="-45.342952">
        <ele>1065.853</ele>
        <time>2019-10-16T15:36:53Z</time>
      </trkpt>
      <trkpt lat="-22.141133" lon="-45.342924">
        <ele>1065.008</ele>
        <time>2019-10-16T15:36:55Z</time>
      </trkpt>
      <trkpt lat="-22.141081" lon="-45.342897">
        <ele>1063.608</ele>
        <time>2019-10-16T15:36:56Z</time>
      </trkpt>
      <trkpt lat="-22.140983" lon="-45.342845">
        <ele>1060.729</ele>
        <time>2019-10-16T15:37:00Z</time>
      </trkpt>
      <trkpt lat="-22.140925" lon="-45.342823">
        <ele>1058.787</ele>
        <time>2019-10-16T15:37:01Z</time>
      </trkpt>
      <trkpt lat="-22.140844" lon="-45.342783">
        <ele>1056.020</ele>
        <time>2019-10-16T15:37:04Z</time>
      </trkpt>
      <trkpt lat="-22.140783" lon="-45.342752">
        <ele>1055.078</ele>
        <time>2019-10-16T15:37:06Z</time>
      </trkpt>
      <trkpt lat="-22.140725" lon="-45.342723">
        <ele>1054.158</ele>
        <time>2019-10-16T15:37:08Z</time>
      </trkpt>
      <trkpt lat="-22.140665" lon="-45.342706">
        <ele>1053.050</ele>
        <time>2019-10-16T15:37:10Z</time>
      </trkpt>
      <trkpt lat="-22.140603" lon="-45.342709">
        <ele>1051.594</ele>
        <time>2019-10-16T15:37:12Z</time>
      </trkpt>
      <trkpt lat="-22.140558" lon="-45.342706">
        <ele>1050.421</ele>
        <time>2019-10-16T15:37:14Z</time>
      </trkpt>
      <trkpt lat="-22.140503" lon="-45.342713">
        <ele>1049.041</ele>
        <time>2019-10-16T15:37:15Z</time>
      </trkpt>
      <trkpt lat="-22.140446" lon="-45.342723">
        <ele>1047.581</ele>
        <time>2019-10-16T15:37:17Z</time>
      </trkpt>
      <trkpt lat="-22.140376" lon="-45.342733">
        <ele>1045.709</ele>
        <time>2019-10-16T15:37:19Z</time>
      </trkpt>
      <trkpt lat="-22.140304" lon="-45.342738">
        <ele>1043.908</ele>
        <time>2019-10-16T15:37:21Z</time>
      </trkpt>
      <trkpt lat="-22.140259" lon="-45.342736">
        <ele>1042.958</ele>
        <time>2019-10-16T15:37:22Z</time>
      </trkpt>
      <trkpt lat="-22.140206" lon="-45.342723">
        <ele>1041.856</ele>
        <time>2019-10-16T15:37:23Z</time>
      </trkpt>
      <trkpt lat="-22.140145" lon="-45.342710">
        <ele>1040.579</ele>
        <time>2019-10-16T15:37:25Z</time>
      </trkpt>
      <trkpt lat="-22.140042" lon="-45.342695">
        <ele>1038.177</ele>
        <time>2019-10-16T15:37:28Z</time>
      </trkpt>
      <trkpt lat="-22.139987" lon="-45.342676">
        <ele>1037.157</ele>
        <time>2019-10-16T15:37:29Z</time>
      </trkpt>
      <trkpt lat="-22.139936" lon="-45.342663">
        <ele>1036.529</ele>
        <time>2019-10-16T15:37:31Z</time>
      </trkpt>
      <trkpt lat="-22.139885" lon="-45.342650">
        <ele>1035.823</ele>
        <time>2019-10-16T15:37:32Z</time>
      </trkpt>
      <trkpt lat="-22.139828" lon="-45.342651">
        <ele>1035.070</ele>
        <time>2019-10-16T15:37:34Z</time>
      </trkpt>
      <trkpt lat="-22.139771" lon="-45.342669">
        <ele>1034.014</ele>
        <time>2019-10-16T15:37:35Z</time>
      </trkpt>
      <trkpt lat="-22.139721" lon="-45.342686">
        <ele>1033.354</ele>
        <time>2019-10-16T15:37:36Z</time>
      </trkpt>
      <trkpt lat="-22.139646" lon="-45.342706">
        <ele>1032.209</ele>
        <time>2019-10-16T15:37:38Z</time>
      </trkpt>
      <trkpt lat="-22.139544" lon="-45.342704">
        <ele>1030.808</ele>
        <time>2019-10-16T15:37:40Z</time>
      </trkpt>
      <trkpt lat="-22.139487" lon="-45.342675">
        <ele>1029.995</ele>
        <time>2019-10-16T15:37:42Z</time>
      </trkpt>
      <trkpt lat="-22.139435" lon="-45.342633">
        <ele>1028.973</ele>
        <time>2019-10-16T15:37:44Z</time>
      </trkpt>
      <trkpt lat="-22.139399" lon="-45.342589">
        <ele>1028.186</ele>
        <time>2019-10-16T15:37:45Z</time>
      </trkpt>
      <trkpt lat="-22.138826" lon="-45.341471">
        <ele>1021.034</ele>
        <time>2019-10-16T15:38:09Z</time>
      </trkpt>
      <trkpt lat="-22.138788" lon="-45.341438">
        <ele>1021.494</ele>
        <time>2019-10-16T15:38:11Z</time>
      </trkpt>
      <trkpt lat="-22.138752" lon="-45.341380">
        <ele>1021.816</ele>
        <time>2019-10-16T15:38:15Z</time>
      </trkpt>
      <trkpt lat="-22.138732" lon="-45.341333">
        <ele>1022.150</ele>
        <time>2019-10-16T15:38:17Z</time>
      </trkpt>
      <trkpt lat="-22.138712" lon="-45.341289">
        <ele>1022.367</ele>
        <time>2019-10-16T15:38:18Z</time>
      </trkpt>
      <trkpt lat="-22.138695" lon="-45.341229">
        <ele>1022.515</ele>
        <time>2019-10-16T15:38:20Z</time>
      </trkpt>
      <trkpt lat="-22.138838" lon="-45.339223">
        <ele>1009.865</ele>
        <time>2019-10-16T15:40:13Z</time>
      </trkpt>
      <trkpt lat="-22.138842" lon="-45.339170">
        <ele>1009.511</ele>
        <time>2019-10-16T15:40:15Z</time>
      </trkpt>
      <trkpt lat="-22.138869" lon="-45.339116">
        <ele>1009.508</ele>
        <time>2019-10-16T15:40:18Z</time>
      </trkpt>
      <trkpt lat="-22.138879" lon="-45.339043">
        <ele>1009.555</ele>
        <time>2019-10-16T15:40:21Z</time>
      </trkpt>
      <trkpt lat="-22.138884" lon="-45.338984">
        <ele>1009.573</ele>
        <time>2019-10-16T15:40:23Z</time>
      </trkpt>
      <trkpt lat="-22.138896" lon="-45.338919">
        <ele>1009.556</ele>
        <time>2019-10-16T15:40:25Z</time>
      </trkpt>
      <trkpt lat="-22.139015" lon="-45.338056">
        <ele>1006.184</ele>
        <time>2019-10-16T15:40:44Z</time>
      </trkpt>
      <trkpt lat="-22.139014" lon="-45.337985">
        <ele>1005.414</ele>
        <time>2019-10-16T15:40:47Z</time>
      </trkpt>
      <trkpt lat="-22.139006" lon="-45.337883">
        <ele>1004.376</ele>
        <time>2019-10-16T15:40:50Z</time>
      </trkpt>
      <trkpt lat="-22.138987" lon="-45.337825">
        <ele>1003.810</ele>
        <time>2019-10-16T15:40:51Z</time>
      </trkpt>
      <trkpt lat="-22.138706" lon="-45.336399">
        <ele>996.727</ele>
        <time>2019-10-16T15:41:21Z</time>
      </trkpt>
      <trkpt lat="-22.138695" lon="-45.336336">
        <ele>996.338</ele>
        <time>2019-10-16T15:41:23Z</time>
      </trkpt>
      <trkpt lat="-22.137589" lon="-45.331665">
        <ele>972.670</ele>
        <time>2019-10-16T15:42:48Z</time>
      </trkpt>
      <trkpt lat="-22.137589" lon="-45.331612">
        <ele>973.317</ele>
        <time>2019-10-16T15:42:51Z</time>
      </trkpt>
      <trkpt lat="-22.137582" lon="-45.331559">
        <ele>973.908</ele>
        <time>2019-10-16T15:42:52Z</time>
      </trkpt>
      <trkpt lat="-22.137552" lon="-45.331497">
        <ele>974.157</ele>
        <time>2019-10-16T15:42:55Z</time>
      </trkpt>
      <trkpt lat="-22.137508" lon="-45.331442">
        <ele>973.965</ele>
        <time>2019-10-16T15:42:57Z</time>
      </trkpt>
      <trkpt lat="-22.137466" lon="-45.331403">
        <ele>974.388</ele>
        <time>2019-10-16T15:43:00Z</time>
      </trkpt>
      <trkpt lat="-22.137416" lon="-45.331368">
        <ele>974.976</ele>
        <time>2019-10-16T15:43:03Z</time>
      </trkpt>
      <trkpt lat="-22.137379" lon="-45.331333">
        <ele>975.356</ele>
        <time>2019-10-16T15:43:06Z</time>
      </trkpt>
      <trkpt lat="-22.137338" lon="-45.331288">
        <ele>975.618</ele>
        <time>2019-10-16T15:43:09Z</time>
      </trkpt>
      <trkpt lat="-22.137299" lon="-45.331231">
        <ele>975.882</ele>
        <time>2019-10-16T15:43:12Z</time>
      </trkpt>
      <trkpt lat="-22.137257" lon="-45.331182">
        <ele>975.979</ele>
        <time>2019-10-16T15:43:15Z</time>
      </trkpt>
      <trkpt lat="-22.137228" lon="-45.331129">
        <ele>975.867</ele>
        <time>2019-10-16T15:43:18Z</time>
      </trkpt>
      <trkpt lat="-22.137205" lon="-45.331073">
        <ele>975.781</ele>
        <time>2019-10-16T15:43:21Z</time>
      </trkpt>
      <trkpt lat="-22.137181" lon="-45.331023">
        <ele>975.419</ele>
        <time>2019-10-16T15:43:24Z</time>
      </trkpt>
      <trkpt lat="-22.137159" lon="-45.330977">
        <ele>975.108</ele>
        <time>2019-10-16T15:43:26Z</time>
      </trkpt>
      <trkpt lat="-22.137135" lon="-45.330927">
        <ele>974.770</ele>
        <time>2019-10-16T15:43:28Z</time>
      </trkpt>
      <trkpt lat="-22.137107" lon="-45.330882">
        <ele>974.188</ele>
        <time>2019-10-16T15:43:30Z</time>
      </trkpt>
      <trkpt lat="-22.137083" lon="-45.330834">
        <ele>973.511</ele>
        <time>2019-10-16T15:43:32Z</time>
      </trkpt>
      <trkpt lat="-22.137063" lon="-45.330784">
        <ele>973.059</ele>
        <time>2019-10-16T15:43:34Z</time>
      </trkpt>
      <trkpt lat="-22.137032" lon="-45.330716">
        <ele>972.379</ele>
        <time>2019-10-16T15:43:37Z</time>
      </trkpt>
      <trkpt lat="-22.137018" lon="-45.330668">
        <ele>972.081</ele>
        <time>2019-10-16T15:43:39Z</time>
      </trkpt>
      <trkpt lat="-22.137007" lon="-45.330612">
        <ele>971.775</ele>
        <time>2019-10-16T15:43:41Z</time>
      </trkpt>
      <trkpt lat="-22.136999" lon="-45.330559">
        <ele>971.482</ele>
        <time>2019-10-16T15:43:42Z</time>
      </trkpt>
      <trkpt lat="-22.137009" lon="-45.330319">
        <ele>971.157</ele>
        <time>2019-10-16T15:43:48Z</time>
      </trkpt>
      <trkpt lat="-22.137013" lon="-45.330251">
        <ele>971.000</ele>
        <time>2019-10-16T15:43:49Z</time>
      </trkpt>
      <trkpt lat="-22.135479" lon="-45.323551">
        <ele>919.420</ele>
        <time>2019-10-16T15:45:32Z</time>
      </trkpt>
      <trkpt lat="-22.135465" lon="-45.323493">
        <ele>919.508</ele>
        <time>2019-10-16T15:45:33Z</time>
      </trkpt>
      <trkpt lat="-22.135457" lon="-45.323436">
        <ele>919.619</ele>
        <time>2019-10-16T15:45:35Z</time>
      </trkpt>
      <trkpt lat="-22.135447" lon="-45.323359">
        <ele>919.617</ele>
        <time>2019-10-16T15:45:37Z</time>
      </trkpt>
      <trkpt lat="-22.135444" lon="-45.323297">
        <ele>919.710</ele>
        <time>2019-10-16T15:45:39Z</time>
      </trkpt>
      <trkpt lat="-22.135441" lon="-45.323246">
        <ele>919.828</ele>
        <time>2019-10-16T15:45:42Z</time>
      </trkpt>
      <trkpt lat="-22.135444" lon="-45.323170">
        <ele>919.818</ele>
        <time>2019-10-16T15:45:45Z</time>
      </trkpt>
      <trkpt lat="-22.135424" lon="-45.323118">
        <ele>920.030</ele>
        <time>2019-10-16T15:45:48Z</time>
      </trkpt>
      <trkpt lat="-22.135411" lon="-45.323049">
        <ele>920.284</ele>
        <time>2019-10-16T15:45:53Z</time>
      </trkpt>
      <trkpt lat="-22.135411" lon="-45.322993">
        <ele>920.311</ele>
        <time>2019-10-16T15:45:56Z</time>
      </trkpt>
      <trkpt lat="-22.135410" lon="-45.322931">
        <ele>920.341</ele>
        <time>2019-10-16T15:45:59Z</time>
      </trkpt>
      <trkpt lat="-22.135409" lon="-45.322873">
        <ele>920.481</ele>
        <time>2019-10-16T15:46:03Z</time>
      </trkpt>
      <trkpt lat="-22.135407" lon="-45.322823">
        <ele>920.409</ele>
        <time>2019-10-16T15:46:04Z</time>
      </trkpt>
      <trkpt lat="-22.135403" lon="-45.322750">
        <ele>920.508</ele>
        <time>2019-10-16T15:46:07Z</time>
      </trkpt>
      <trkpt lat="-22.135403" lon="-45.322696">
        <ele>920.658</ele>
        <time>2019-10-16T15:46:10Z</time>
      </trkpt>
      <trkpt lat="-22.135399" lon="-45.322632">
        <ele>920.716</ele>
        <time>2019-10-16T15:46:12Z</time>
      </trkpt>
      <trkpt lat="-22.135384" lon="-45.322578">
        <ele>921.079</ele>
        <time>2019-10-16T15:46:15Z</time>
      </trkpt>
      <trkpt lat="-22.135365" lon="-45.322525">
        <ele>921.357</ele>
        <time>2019-10-16T15:46:17Z</time>
      </trkpt>
      <trkpt lat="-22.135351" lon="-45.322473">
        <ele>921.387</ele>
        <time>2019-10-16T15:46:19Z</time>
      </trkpt>
      <trkpt lat="-22.135336" lon="-45.322419">
        <ele>921.079</ele>
        <time>2019-10-16T15:46:22Z</time>
      </trkpt>
      <trkpt lat="-22.135319" lon="-45.322361">
        <ele>920.793</ele>
        <time>2019-10-16T15:46:25Z</time>
      </trkpt>
      <trkpt lat="-22.135298" lon="-45.322302">
        <ele>920.560</ele>
        <time>2019-10-16T15:46:28Z</time>
      </trkpt>
      <trkpt lat="-22.135279" lon="-45.322249">
        <ele>920.248</ele>
        <time>2019-10-16T15:46:30Z</time>
      </trkpt>
      <trkpt lat="-22.135260" lon="-45.322186">
        <ele>919.961</ele>
        <time>2019-10-16T15:46:32Z</time>
      </trkpt>
      <trkpt lat="-22.135237" lon="-45.322119">
        <ele>919.517</ele>
        <time>2019-10-16T15:46:34Z</time>
      </trkpt>
      <trkpt lat="-22.136097" lon="-45.318746">
        <ele>918.908</ele>
        <time>2019-10-16T15:47:39Z</time>
      </trkpt>
      <trkpt lat="-22.136125" lon="-45.318704">
        <ele>919.278</ele>
        <time>2019-10-16T15:47:41Z</time>
      </trkpt>
      <trkpt lat="-22.136162" lon="-45.318650">
        <ele>919.636</ele>
        <time>2019-10-16T15:47:43Z</time>
      </trkpt>
      <trkpt lat="-22.136195" lon="-45.318607">
        <ele>919.859</ele>
        <time>2019-10-16T15:47:46Z</time>
      </trkpt>
      <trkpt lat="-22.136233" lon="-45.318561">
        <ele>919.977</ele>
        <time>2019-10-16T15:47:49Z</time>
      </trkpt>
      <trkpt lat="-22.136273" lon="-45.318509">
        <ele>920.057</ele>
        <time>2019-10-16T15:47:52Z</time>
      </trkpt>
      <trkpt lat="-22.136303" lon="-45.318464">
        <ele>920.159</ele>
        <time>2019-10-16T15:47:55Z</time>
      </trkpt>
      <trkpt lat="-22.136351" lon="-45.318419">
        <ele>919.853</ele>
        <time>2019-10-16T15:47:57Z</time>
      </trkpt>
      <trkpt lat="-22.136389" lon="-45.318380">
        <ele>919.530</ele>
        <time>2019-10-16T15:48:00Z</time>
      </trkpt>
      <trkpt lat="-22.136423" lon="-45.318343">
        <ele>919.376</ele>
        <time>2019-10-16T15:48:02Z</time>
      </trkpt>
      <trkpt lat="-22.136555" lon="-45.318236">
        <ele>916.890</ele>
        <time>2019-10-16T15:48:06Z</time>
      </trkpt>
      <trkpt lat="-22.136620" lon="-45.318200">
        <ele>915.519</ele>
        <time>2019-10-16T15:48:09Z</time>
      </trkpt>
      <trkpt lat="-22.136672" lon="-45.318161">
        <ele>914.608</ele>
        <time>2019-10-16T15:48:10Z</time>
      </trkpt>
      <trkpt lat="-22.138967" lon="-45.316655">
        <ele>894.031</ele>
        <time>2019-10-16T15:48:51Z</time>
      </trkpt>
      <trkpt lat="-22.138989" lon="-45.316707">
        <ele>894.159</ele>
        <time>2019-10-16T16:05:31Z</time>
      </trkpt>
      <trkpt lat="-22.139045" lon="-45.316702">
        <ele>894.152</ele>
        <time>2019-10-16T16:05:33Z</time>
      </trkpt>
      <trkpt lat="-22.139084" lon="-45.316672">
        <ele>894.090</ele>
        <time>2019-10-16T16:10:28Z</time>
      </trkpt>
      <trkpt lat="-22.139126" lon="-45.316637">
        <ele>894.080</ele>
        <time>2019-10-16T16:10:30Z</time>
      </trkpt>
      <trkpt lat="-22.139176" lon="-45.316595">
        <ele>893.922</ele>
        <time>2019-10-16T16:10:33Z</time>
      </trkpt>
      <trkpt lat="-22.139212" lon="-45.316559">
        <ele>893.996</ele>
        <time>2019-10-16T16:10:35Z</time>
      </trkpt>
      <trkpt lat="-22.139243" lon="-45.316520">
        <ele>893.833</ele>
        <time>2019-10-16T16:10:37Z</time>
      </trkpt>
      <trkpt lat="-22.139306" lon="-45.316476">
        <ele>893.793</ele>
        <time>2019-10-16T16:10:39Z</time>
      </trkpt>
      <trkpt lat="-22.139344" lon="-45.316442">
        <ele>893.765</ele>
        <time>2019-10-16T16:10:40Z</time>
      </trkpt>
      <trkpt lat="-22.139377" lon="-45.316401">
        <ele>893.621</ele>
        <time>2019-10-16T16:10:42Z</time>
      </trkpt>
      <trkpt lat="-22.139414" lon="-45.316367">
        <ele>893.508</ele>
        <time>2019-10-16T16:10:44Z</time>
      </trkpt>
      <trkpt lat="-22.139461" lon="-45.316326">
        <ele>893.433</ele>
        <time>2019-10-16T16:10:45Z</time>
      </trkpt>
      <trkpt lat="-22.139511" lon="-45.316286">
        <ele>893.431</ele>
        <time>2019-10-16T16:10:47Z</time>
      </trkpt>
      <trkpt lat="-22.139569" lon="-45.316231">
        <ele>893.284</ele>
        <time>2019-10-16T16:10:49Z</time>
      </trkpt>
      <trkpt lat="-22.139620" lon="-45.316173">
        <ele>893.122</ele>
        <time>2019-10-16T16:10:52Z</time>
      </trkpt>
      <trkpt lat="-22.139677" lon="-45.316120">
        <ele>892.912</ele>
        <time>2019-10-16T16:10:53Z</time>
      </trkpt>
      <trkpt lat="-22.139723" lon="-45.316083">
        <ele>892.814</ele>
        <time>2019-10-16T16:10:55Z</time>
      </trkpt>
      <trkpt lat="-22.139769" lon="-45.316043">
        <ele>892.798</ele>
        <time>2019-10-16T16:10:57Z</time>
      </trkpt>
      <trkpt lat="-22.139826" lon="-45.315973">
        <ele>892.595</ele>
        <time>2019-10-16T16:10:59Z</time>
      </trkpt>
      <trkpt lat="-22.139886" lon="-45.315920">
        <ele>892.366</ele>
        <time>2019-10-16T16:11:01Z</time>
      </trkpt>
      <trkpt lat="-22.139938" lon="-45.315874">
        <ele>892.229</ele>
        <time>2019-10-16T16:11:03Z</time>
      </trkpt>
      <trkpt lat="-22.139973" lon="-45.315842">
        <ele>892.121</ele>
        <time>2019-10-16T16:11:04Z</time>
      </trkpt>
      <trkpt lat="-22.140059" lon="-45.315776">
        <ele>891.908</ele>
        <time>2019-10-16T16:11:07Z</time>
      </trkpt>
      <trkpt lat="-22.140105" lon="-45.315735">
        <ele>891.940</ele>
        <time>2019-10-16T16:11:09Z</time>
      </trkpt>
      <trkpt lat="-22.140152" lon="-45.315693">
        <ele>891.868</ele>
        <time>2019-10-16T16:11:10Z</time>
      </trkpt>
      <trkpt lat="-22.140220" lon="-45.315640">
        <ele>891.811</ele>
        <time>2019-10-16T16:11:12Z</time>
      </trkpt>
      <trkpt lat="-22.140265" lon="-45.315606">
        <ele>891.829</ele>
        <time>2019-10-16T16:11:14Z</time>
      </trkpt>
      <trkpt lat="-22.140340" lon="-45.315541">
        <ele>891.739</ele>
        <time>2019-10-16T16:11:17Z</time>
      </trkpt>
      <trkpt lat="-22.140378" lon="-45.315494">
        <ele>891.731</ele>
        <time>2019-10-16T16:11:19Z</time>
      </trkpt>
      <trkpt lat="-22.140422" lon="-45.315454">
        <ele>891.765</ele>
        <time>2019-10-16T16:11:20Z</time>
      </trkpt>
      <trkpt lat="-22.140791" lon="-45.315120">
        <ele>891.972</ele>
        <time>2019-10-16T16:11:31Z</time>
      </trkpt>
      <trkpt lat="-22.140831" lon="-45.315086">
        <ele>891.977</ele>
        <time>2019-10-16T16:11:33Z</time>
      </trkpt>
      <trkpt lat="-22.140957" lon="-45.314985">
        <ele>891.561</ele>
        <time>2019-10-16T16:11:38Z</time>
      </trkpt>
      <trkpt lat="-22.141010" lon="-45.314948">
        <ele>891.327</ele>
        <time>2019-10-16T16:11:39Z</time>
      </trkpt>
      <trkpt lat="-22.141053" lon="-45.314911">
        <ele>891.108</ele>
        <time>2019-10-16T16:11:41Z</time>
      </trkpt>
      <trkpt lat="-22.141127" lon="-45.314853">
        <ele>890.851</ele>
        <time>2019-10-16T16:11:44Z</time>
      </trkpt>
      <trkpt lat="-22.141180" lon="-45.314814">
        <ele>890.749</ele>
        <time>2019-10-16T16:11:45Z</time>
      </trkpt>
      <trkpt lat="-22.141247" lon="-45.314762">
        <ele>890.572</ele>
        <time>2019-10-16T16:11:47Z</time>
      </trkpt>
      <trkpt lat="-22.141295" lon="-45.314725">
        <ele>890.410</ele>
        <time>2019-10-16T16:11:49Z</time>
      </trkpt>
      <trkpt lat="-22.141512" lon="-45.314512">
        <ele>890.370</ele>
        <time>2019-10-16T16:11:55Z</time>
      </trkpt>
      <trkpt lat="-22.141556" lon="-45.314475">
        <ele>890.392</ele>
        <time>2019-10-16T16:11:57Z</time>
      </trkpt>
      <trkpt lat="-22.141591" lon="-45.314443">
        <ele>890.496</ele>
        <time>2019-10-16T16:11:58Z</time>
      </trkpt>
      <trkpt lat="-22.141615" lon="-45.314396">
        <ele>890.513</ele>
        <time>2019-10-16T16:12:00Z</time>
      </trkpt>
      <trkpt lat="-22.141653" lon="-45.314251">
        <ele>890.831</ele>
        <time>2019-10-16T16:12:04Z</time>
      </trkpt>
      <trkpt lat="-22.141677" lon="-45.314208">
        <ele>890.961</ele>
        <time>2019-10-16T16:12:05Z</time>
      </trkpt>
      <trkpt lat="-22.141672" lon="-45.314141">
        <ele>891.007</ele>
        <time>2019-10-16T16:12:07Z</time>
      </trkpt>
      <trkpt lat="-22.141666" lon="-45.314076">
        <ele>890.908</ele>
        <time>2019-10-16T16:12:09Z</time>
      </trkpt>
      <trkpt lat="-22.141663" lon="-45.314004">
        <ele>890.897</ele>
        <time>2019-10-16T16:12:10Z</time>
      </trkpt>
      <trkpt lat="-22.141663" lon="-45.313944">
        <ele>890.755</ele>
        <time>2019-10-16T16:12:12Z</time>
      </trkpt>
      <trkpt lat="-22.141658" lon="-45.313881">
        <ele>890.678</ele>
        <time>2019-10-16T16:12:13Z</time>
      </trkpt>
      <trkpt lat="-22.141658" lon="-45.313744">
        <ele>890.526</ele>
        <time>2019-10-16T16:12:16Z</time>
      </trkpt>
      <trkpt lat="-22.141677" lon="-45.313424">
        <ele>890.166</ele>
        <time>2019-10-16T16:12:24Z</time>
      </trkpt>
      <trkpt lat="-22.141686" lon="-45.313334">
        <ele>890.058</ele>
        <time>2019-10-16T16:12:26Z</time>
      </trkpt>
      <trkpt lat="-22.141683" lon="-45.313227">
        <ele>889.952</ele>
        <time>2019-10-16T16:12:29Z</time>
      </trkpt>
      <trkpt lat="-22.141655" lon="-45.312959">
        <ele>889.539</ele>
        <time>2019-10-16T16:12:34Z</time>
      </trkpt>
      <trkpt lat="-22.141638" lon="-45.312901">
        <ele>889.435</ele>
        <time>2019-10-16T16:12:36Z</time>
      </trkpt>
      <trkpt lat="-22.141632" lon="-45.312842">
        <ele>889.486</ele>
        <time>2019-10-16T16:12:38Z</time>
      </trkpt>
      <trkpt lat="-22.141624" lon="-45.312785">
        <ele>889.314</ele>
        <time>2019-10-16T16:12:39Z</time>
      </trkpt>
      <trkpt lat="-22.141626" lon="-45.312732">
        <ele>889.208</ele>
        <time>2019-10-16T16:13:35Z</time>
      </trkpt>
      <trkpt lat="-22.141618" lon="-45.312670">
        <ele>889.117</ele>
        <time>2019-10-16T16:13:37Z</time>
      </trkpt>
      <trkpt lat="-22.141606" lon="-45.312613">
        <ele>889.175</ele>
        <time>2019-10-16T16:13:39Z</time>
      </trkpt>
      <trkpt lat="-22.141604" lon="-45.312552">
        <ele>889.028</ele>
        <time>2019-10-16T16:13:42Z</time>
      </trkpt>
      <trkpt lat="-22.141600" lon="-45.312498">
        <ele>888.926</ele>
        <time>2019-10-16T16:13:45Z</time>
      </trkpt>
      <trkpt lat="-22.141593" lon="-45.312449">
        <ele>888.986</ele>
        <time>2019-10-16T16:13:48Z</time>
      </trkpt>
      <trkpt lat="-22.141568" lon="-45.312395">
        <ele>888.948</ele>
        <time>2019-10-16T16:13:51Z</time>
      </trkpt>
      <trkpt lat="-22.141558" lon="-45.312343">
        <ele>888.972</ele>
        <time>2019-10-16T16:13:53Z</time>
      </trkpt>
      <trkpt lat="-22.141544" lon="-45.312261">
        <ele>888.959</ele>
        <time>2019-10-16T16:13:57Z</time>
      </trkpt>
      <trkpt lat="-22.141527" lon="-45.312205">
        <ele>888.915</ele>
        <time>2019-10-16T16:13:58Z</time>
      </trkpt>
      <trkpt lat="-22.141512" lon="-45.312157">
        <ele>888.965</ele>
        <time>2019-10-16T16:14:00Z</time>
      </trkpt>
      <trkpt lat="-22.141489" lon="-45.312078">
        <ele>888.911</ele>
        <time>2019-10-16T16:14:02Z</time>
      </trkpt>
      <trkpt lat="-22.141474" lon="-45.312018">
        <ele>888.908</ele>
        <time>2019-10-16T16:14:04Z</time>
      </trkpt>
      <trkpt lat="-22.141456" lon="-45.311945">
        <ele>888.915</ele>
        <time>2019-10-16T16:14:06Z</time>
      </trkpt>
      <trkpt lat="-22.141441" lon="-45.311877">
        <ele>888.933</ele>
        <time>2019-10-16T16:14:08Z</time>
      </trkpt>
      <trkpt lat="-22.141435" lon="-45.311813">
        <ele>889.056</ele>
        <time>2019-10-16T16:14:09Z</time>
      </trkpt>
      <trkpt lat="-22.141434" lon="-45.311744">
        <ele>889.034</ele>
        <time>2019-10-16T16:14:11Z</time>
      </trkpt>
      <trkpt lat="-22.141438" lon="-45.311658">
        <ele>889.024</ele>
        <time>2019-10-16T16:14:14Z</time>
      </trkpt>
      <trkpt lat="-22.141473" lon="-45.311529">
        <ele>889.176</ele>
        <time>2019-10-16T16:14:17Z</time>
      </trkpt>
      <trkpt lat="-22.141546" lon="-45.311413">
        <ele>889.340</ele>
        <time>2019-10-16T16:14:20Z</time>
      </trkpt>
      <trkpt lat="-22.141652" lon="-45.311319">
        <ele>889.447</ele>
        <time>2019-10-16T16:14:24Z</time>
      </trkpt>
      <trkpt lat="-22.141702" lon="-45.311289">
        <ele>889.576</ele>
        <time>2019-10-16T16:14:26Z</time>
      </trkpt>
      <trkpt lat="-22.141771" lon="-45.311262">
        <ele>889.590</ele>
        <time>2019-10-16T16:14:28Z</time>
      </trkpt>
      <trkpt lat="-22.141829" lon="-45.311252">
        <ele>889.519</ele>
        <time>2019-10-16T16:14:30Z</time>
      </trkpt>
      <trkpt lat="-22.141881" lon="-45.311239">
        <ele>889.508</ele>
        <time>2019-10-16T16:14:32Z</time>
      </trkpt>
      <trkpt lat="-22.141941" lon="-45.311227">
        <ele>889.531</ele>
        <time>2019-10-16T16:14:33Z</time>
      </trkpt>
      <trkpt lat="-22.142030" lon="-45.311223">
        <ele>889.539</ele>
        <time>2019-10-16T16:14:36Z</time>
      </trkpt>
      <trkpt lat="-22.142086" lon="-45.311224">
        <ele>889.592</ele>
        <time>2019-10-16T16:14:38Z</time>
      </trkpt>
      <trkpt lat="-22.142142" lon="-45.311230">
        <ele>889.510</ele>
        <time>2019-10-16T16:14:39Z</time>
      </trkpt>
      <trkpt lat="-22.142193" lon="-45.311230">
        <ele>889.530</ele>
        <time>2019-10-16T16:14:40Z</time>
      </trkpt>
      <trkpt lat="-22.142240" lon="-45.311233">
        <ele>889.542</ele>
        <time>2019-10-16T16:14:42Z</time>
      </trkpt>
      <trkpt lat="-22.142320" lon="-45.311233">
        <ele>889.586</ele>
        <time>2019-10-16T16:14:45Z</time>
      </trkpt>
      <trkpt lat="-22.142386" lon="-45.311236">
        <ele>889.543</ele>
        <time>2019-10-16T16:14:47Z</time>
      </trkpt>
      <trkpt lat="-22.142480" lon="-45.311275">
        <ele>889.556</ele>
        <time>2019-10-16T16:14:50Z</time>
      </trkpt>
      <trkpt lat="-22.142545" lon="-45.311290">
        <ele>889.559</ele>
        <time>2019-10-16T16:14:52Z</time>
      </trkpt>
      <trkpt lat="-22.142622" lon="-45.311297">
        <ele>889.514</ele>
        <time>2019-10-16T16:14:54Z</time>
      </trkpt>
      <trkpt lat="-22.142698" lon="-45.311292">
        <ele>889.608</ele>
        <time>2019-10-16T16:14:56Z</time>
      </trkpt>
      <trkpt lat="-22.142780" lon="-45.311279">
        <ele>889.639</ele>
        <time>2019-10-16T16:14:58Z</time>
      </trkpt>
      <trkpt lat="-22.143074" lon="-45.311197">
        <ele>889.997</ele>
        <time>2019-10-16T16:15:05Z</time>
      </trkpt>
      <trkpt lat="-22.143126" lon="-45.311172">
        <ele>889.930</ele>
        <time>2019-10-16T16:15:07Z</time>
      </trkpt>
      <trkpt lat="-22.143181" lon="-45.311141">
        <ele>889.988</ele>
        <time>2019-10-16T16:15:09Z</time>
      </trkpt>
      <trkpt lat="-22.143245" lon="-45.311118">
        <ele>890.058</ele>
        <time>2019-10-16T16:15:12Z</time>
      </trkpt>
      <trkpt lat="-22.143311" lon="-45.311097">
        <ele>890.020</ele>
        <time>2019-10-16T16:15:13Z</time>
      </trkpt>
      <trkpt lat="-22.143371" lon="-45.311072">
        <ele>890.074</ele>
        <time>2019-10-16T16:15:15Z</time>
      </trkpt>
      <trkpt lat="-22.143440" lon="-45.311036">
        <ele>890.021</ele>
        <time>2019-10-16T16:15:17Z</time>
      </trkpt>
      <trkpt lat="-22.143526" lon="-45.311005">
        <ele>890.096</ele>
        <time>2019-10-16T16:15:19Z</time>
      </trkpt>
      <trkpt lat="-22.143683" lon="-45.310939">
        <ele>890.031</ele>
        <time>2019-10-16T16:15:23Z</time>
      </trkpt>
      <trkpt lat="-22.143736" lon="-45.310918">
        <ele>890.024</ele>
        <time>2019-10-16T16:15:25Z</time>
      </trkpt>
      <trkpt lat="-22.143802" lon="-45.310860">
        <ele>890.008</ele>
        <time>2019-10-16T16:15:28Z</time>
      </trkpt>
      <trkpt lat="-22.143872" lon="-45.310781">
        <ele>890.023</ele>
        <time>2019-10-16T16:15:30Z</time>
      </trkpt>
      <trkpt lat="-22.143924" lon="-45.310713">
        <ele>890.051</ele>
        <time>2019-10-16T16:15:32Z</time>
      </trkpt>
      <trkpt lat="-22.143956" lon="-45.310668">
        <ele>890.064</ele>
        <time>2019-10-16T16:15:34Z</time>
      </trkpt>
      <trkpt lat="-22.144024" lon="-45.310554">
        <ele>889.942</ele>
        <time>2019-10-16T16:15:37Z</time>
      </trkpt>
      <trkpt lat="-22.144074" lon="-45.310463">
        <ele>890.062</ele>
        <time>2019-10-16T16:15:39Z</time>
      </trkpt>
      <trkpt lat="-22.144107" lon="-45.310413">
        <ele>890.014</ele>
        <time>2019-10-16T16:15:41Z</time>
      </trkpt>
      <trkpt lat="-22.144150" lon="-45.310344">
        <ele>890.058</ele>
        <time>2019-10-16T16:15:43Z</time>
      </trkpt>
      <trkpt lat="-22.144188" lon="-45.310276">
        <ele>890.075</ele>
        <time>2019-10-16T16:15:45Z</time>
      </trkpt>
      <trkpt lat="-22.144220" lon="-45.310221">
        <ele>890.057</ele>
        <time>2019-10-16T16:15:47Z</time>
      </trkpt>
      <trkpt lat="-22.144259" lon="-45.310146">
        <ele>890.000</ele>
        <time>2019-10-16T16:15:49Z</time>
      </trkpt>
      <trkpt lat="-22.144293" lon="-45.310089">
        <ele>890.020</ele>
        <time>2019-10-16T16:15:51Z</time>
      </trkpt>
      <trkpt lat="-22.144333" lon="-45.310019">
        <ele>890.008</ele>
        <time>2019-10-16T16:15:53Z</time>
      </trkpt>
      <trkpt lat="-22.144378" lon="-45.309944">
        <ele>890.149</ele>
        <time>2019-10-16T16:15:55Z</time>
      </trkpt>
      <trkpt lat="-22.144408" lon="-45.309893">
        <ele>890.287</ele>
        <time>2019-10-16T16:15:57Z</time>
      </trkpt>
      <trkpt lat="-22.144454" lon="-45.309807">
        <ele>890.330</ele>
        <time>2019-10-16T16:16:00Z</time>
      </trkpt>
      <trkpt lat="-22.144483" lon="-45.309755">
        <ele>890.418</ele>
        <time>2019-10-16T16:16:01Z</time>
      </trkpt>
      <trkpt lat="-22.144535" lon="-45.309667">
        <ele>890.428</ele>
        <time>2019-10-16T16:16:03Z</time>
      </trkpt>
      <trkpt lat="-22.144577" lon="-45.309607">
        <ele>890.540</ele>
        <time>2019-10-16T16:16:05Z</time>
      </trkpt>
      <trkpt lat="-22.144608" lon="-45.309535">
        <ele>890.544</ele>
        <time>2019-10-16T16:16:07Z</time>
      </trkpt>
      <trkpt lat="-22.144725" lon="-45.309320">
        <ele>890.591</ele>
        <time>2019-10-16T16:16:12Z</time>
      </trkpt>
      <trkpt lat="-22.144787" lon="-45.309217">
        <ele>890.515</ele>
        <time>2019-10-16T16:16:16Z</time>
      </trkpt>
      <trkpt lat="-22.144876" lon="-45.309067">
        <ele>890.565</ele>
        <time>2019-10-16T16:16:20Z</time>
      </trkpt>
      <trkpt lat="-22.144964" lon="-45.308933">
        <ele>890.211</ele>
        <time>2019-10-16T16:16:24Z</time>
      </trkpt>
      <trkpt lat="-22.144985" lon="-45.308888">
        <ele>890.108</ele>
        <time>2019-10-16T16:16:25Z</time>
      </trkpt>
      <trkpt lat="-22.145052" lon="-45.308808">
        <ele>890.035</ele>
        <time>2019-10-16T16:16:28Z</time>
      </trkpt>
      <trkpt lat="-22.145106" lon="-45.308744">
        <ele>889.943</ele>
        <time>2019-10-16T16:16:30Z</time>
      </trkpt>
      <trkpt lat="-22.145144" lon="-45.308713">
        <ele>889.936</ele>
        <time>2019-10-16T16:16:31Z</time>
      </trkpt>
      <trkpt lat="-22.145191" lon="-45.308672">
        <ele>889.924</ele>
        <time>2019-10-16T16:16:33Z</time>
      </trkpt>
      <trkpt lat="-22.145228" lon="-45.308633">
        <ele>889.844</ele>
        <time>2019-10-16T16:16:35Z</time>
      </trkpt>
      <trkpt lat="-22.145277" lon="-45.308589">
        <ele>889.886</ele>
        <time>2019-10-16T16:16:36Z</time>
      </trkpt>
      <trkpt lat="-22.145319" lon="-45.308546">
        <ele>889.790</ele>
        <time>2019-10-16T16:16:38Z</time>
      </trkpt>
      <trkpt lat="-22.145364" lon="-45.308510">
        <ele>889.757</ele>
        <time>2019-10-16T16:16:39Z</time>
      </trkpt>
      <trkpt lat="-22.145413" lon="-45.308470">
        <ele>889.623</ele>
        <time>2019-10-16T16:16:42Z</time>
      </trkpt>
      <trkpt lat="-22.145485" lon="-45.308407">
        <ele>889.583</ele>
        <time>2019-10-16T16:16:43Z</time>
      </trkpt>
      <trkpt lat="-22.145528" lon="-45.308366">
        <ele>889.411</ele>
        <time>2019-10-16T16:16:45Z</time>
      </trkpt>
      <trkpt lat="-22.145581" lon="-45.308316">
        <ele>889.308</ele>
        <time>2019-10-16T16:16:47Z</time>
      </trkpt>
      <trkpt lat="-22.145632" lon="-45.308269">
        <ele>889.366</ele>
        <time>2019-10-16T16:16:49Z</time>
      </trkpt>
      <trkpt lat="-22.145676" lon="-45.308227">
        <ele>889.334</ele>
        <time>2019-10-16T16:16:51Z</time>
      </trkpt>
      <trkpt lat="-22.145721" lon="-45.308187">
        <ele>889.387</ele>
        <time>2019-10-16T16:16:53Z</time>
      </trkpt>
      <trkpt lat="-22.145763" lon="-45.308150">
        <ele>889.365</ele>
        <time>2019-10-16T16:16:54Z</time>
      </trkpt>
      <trkpt lat="-22.146027" lon="-45.307914">
        <ele>889.745</ele>
        <time>2019-10-16T16:17:02Z</time>
      </trkpt>
      <trkpt lat="-22.146070" lon="-45.307885">
        <ele>889.837</ele>
        <time>2019-10-16T16:17:04Z</time>
      </trkpt>
      <trkpt lat="-22.146127" lon="-45.307822">
        <ele>890.071</ele>
        <time>2019-10-16T16:17:06Z</time>
      </trkpt>
      <trkpt lat="-22.146181" lon="-45.307771">
        <ele>890.188</ele>
        <time>2019-10-16T16:17:08Z</time>
      </trkpt>
      <trkpt lat="-22.146259" lon="-45.307702">
        <ele>890.353</ele>
        <time>2019-10-16T16:17:11Z</time>
      </trkpt>
      <trkpt lat="-22.146325" lon="-45.307645">
        <ele>890.404</ele>
        <time>2019-10-16T16:17:13Z</time>
      </trkpt>
      <trkpt lat="-22.146388" lon="-45.307588">
        <ele>890.614</ele>
        <time>2019-10-16T16:17:15Z</time>
      </trkpt>
      <trkpt lat="-22.146435" lon="-45.307541">
        <ele>890.708</ele>
        <time>2019-10-16T16:17:17Z</time>
      </trkpt>
      <trkpt lat="-22.146477" lon="-45.307498">
        <ele>890.859</ele>
        <time>2019-10-16T16:17:19Z</time>
      </trkpt>
      <trkpt lat="-22.146522" lon="-45.307456">
        <ele>890.997</ele>
        <time>2019-10-16T16:17:20Z</time>
      </trkpt>
      <trkpt lat="-22.146611" lon="-45.307382">
        <ele>891.110</ele>
        <time>2019-10-16T16:17:23Z</time>
      </trkpt>
      <trkpt lat="-22.146672" lon="-45.307327">
        <ele>891.298</ele>
        <time>2019-10-16T16:17:25Z</time>
      </trkpt>
      <trkpt lat="-22.146736" lon="-45.307269">
        <ele>891.388</ele>
        <time>2019-10-16T16:17:27Z</time>
      </trkpt>
      <trkpt lat="-22.146798" lon="-45.307219">
        <ele>891.330</ele>
        <time>2019-10-16T16:17:29Z</time>
      </trkpt>
      <trkpt lat="-22.146852" lon="-45.307171">
        <ele>891.334</ele>
        <time>2019-10-16T16:17:31Z</time>
      </trkpt>
      <trkpt lat="-22.146896" lon="-45.307131">
        <ele>891.311</ele>
        <time>2019-10-16T16:17:33Z</time>
      </trkpt>
      <trkpt lat="-22.146948" lon="-45.307083">
        <ele>891.359</ele>
        <time>2019-10-16T16:17:34Z</time>
      </trkpt>
      <trkpt lat="-22.146984" lon="-45.307048">
        <ele>891.303</ele>
        <time>2019-10-16T16:17:36Z</time>
      </trkpt>
      <trkpt lat="-22.147032" lon="-45.307011">
        <ele>891.323</ele>
        <time>2019-10-16T16:17:38Z</time>
      </trkpt>
      <trkpt lat="-22.147078" lon="-45.306970">
        <ele>891.308</ele>
        <time>2019-10-16T16:17:40Z</time>
      </trkpt>
      <trkpt lat="-22.147152" lon="-45.306903">
        <ele>891.369</ele>
        <time>2019-10-16T16:17:42Z</time>
      </trkpt>
      <trkpt lat="-22.147215" lon="-45.306841">
        <ele>891.367</ele>
        <time>2019-10-16T16:17:44Z</time>
      </trkpt>
      <trkpt lat="-22.147271" lon="-45.306789">
        <ele>891.240</ele>
        <time>2019-10-16T16:17:47Z</time>
      </trkpt>
      <trkpt lat="-22.147327" lon="-45.306739">
        <ele>891.268</ele>
        <time>2019-10-16T16:17:49Z</time>
      </trkpt>
      <trkpt lat="-22.147368" lon="-45.306700">
        <ele>891.248</ele>
        <time>2019-10-16T16:17:50Z</time>
      </trkpt>
      <trkpt lat="-22.147410" lon="-45.306659">
        <ele>891.190</ele>
        <time>2019-10-16T16:17:52Z</time>
      </trkpt>
      <trkpt lat="-22.147450" lon="-45.306621">
        <ele>891.134</ele>
        <time>2019-10-16T16:17:53Z</time>
      </trkpt>
      <trkpt lat="-22.147491" lon="-45.306582">
        <ele>891.021</ele>
        <time>2019-10-16T16:17:55Z</time>
      </trkpt>
      <trkpt lat="-22.147531" lon="-45.306544">
        <ele>891.031</ele>
        <time>2019-10-16T16:17:57Z</time>
      </trkpt>
      <trkpt lat="-22.147575" lon="-45.306501">
        <ele>890.961</ele>
        <time>2019-10-16T16:17:58Z</time>
      </trkpt>
      <trkpt lat="-22.147612" lon="-45.306460">
        <ele>890.907</ele>
        <time>2019-10-16T16:18:00Z</time>
      </trkpt>
      <trkpt lat="-22.147650" lon="-45.306422">
        <ele>890.908</ele>
        <time>2019-10-16T16:18:01Z</time>
      </trkpt>
      <trkpt lat="-22.147696" lon="-45.306378">
        <ele>890.867</ele>
        <time>2019-10-16T16:18:03Z</time>
      </trkpt>
      <trkpt lat="-22.147781" lon="-45.306304">
        <ele>890.875</ele>
        <time>2019-10-16T16:18:06Z</time>
      </trkpt>
      <trkpt lat="-22.147828" lon="-45.306264">
        <ele>890.848</ele>
        <time>2019-10-16T16:18:08Z</time>
      </trkpt>
      <trkpt lat="-22.147880" lon="-45.306217">
        <ele>890.856</ele>
        <time>2019-10-16T16:18:10Z</time>
      </trkpt>
      <trkpt lat="-22.147921" lon="-45.306177">
        <ele>890.866</ele>
        <time>2019-10-16T16:18:12Z</time>
      </trkpt>
      <trkpt lat="-22.147962" lon="-45.306138">
        <ele>890.858</ele>
        <time>2019-10-16T16:18:13Z</time>
      </trkpt>
      <trkpt lat="-22.148006" lon="-45.306098">
        <ele>890.842</ele>
        <time>2019-10-16T16:18:15Z</time>
      </trkpt>
      <trkpt lat="-22.148065" lon="-45.306047">
        <ele>890.899</ele>
        <time>2019-10-16T16:18:17Z</time>
      </trkpt>
      <trkpt lat="-22.148110" lon="-45.305997">
        <ele>890.982</ele>
        <time>2019-10-16T16:18:19Z</time>
      </trkpt>
      <trkpt lat="-22.148152" lon="-45.305949">
        <ele>890.943</ele>
        <time>2019-10-16T16:18:21Z</time>
      </trkpt>
      <trkpt lat="-22.148220" lon="-45.305876">
        <ele>891.017</ele>
        <time>2019-10-16T16:18:23Z</time>
      </trkpt>
      <trkpt lat="-22.148282" lon="-45.305819">
        <ele>891.008</ele>
        <time>2019-10-16T16:18:25Z</time>
      </trkpt>
      <trkpt lat="-22.148315" lon="-45.305782">
        <ele>891.132</ele>
        <time>2019-10-16T16:18:26Z</time>
      </trkpt>
      <trkpt lat="-22.148354" lon="-45.305739">
        <ele>891.120</ele>
        <time>2019-10-16T16:18:28Z</time>
      </trkpt>
      <trkpt lat="-22.148396" lon="-45.305690">
        <ele>891.253</ele>
        <time>2019-10-16T16:18:29Z</time>
      </trkpt>
      <trkpt lat="-22.148436" lon="-45.305642">
        <ele>891.251</ele>
        <time>2019-10-16T16:18:31Z</time>
      </trkpt>
      <trkpt lat="-22.148478" lon="-45.305588">
        <ele>891.371</ele>
        <time>2019-10-16T16:18:34Z</time>
      </trkpt>
      <trkpt lat="-22.148515" lon="-45.305540">
        <ele>891.453</ele>
        <time>2019-10-16T16:18:35Z</time>
      </trkpt>
      <trkpt lat="-22.148550" lon="-45.305493">
        <ele>891.417</ele>
        <time>2019-10-16T16:18:37Z</time>
      </trkpt>
      <trkpt lat="-22.148585" lon="-45.305442">
        <ele>891.534</ele>
        <time>2019-10-16T16:18:39Z</time>
      </trkpt>
      <trkpt lat="-22.148611" lon="-45.305386">
        <ele>891.578</ele>
        <time>2019-10-16T16:18:41Z</time>
      </trkpt>
      <trkpt lat="-22.148660" lon="-45.305311">
        <ele>891.633</ele>
        <time>2019-10-16T16:18:43Z</time>
      </trkpt>
      <trkpt lat="-22.148694" lon="-45.305248">
        <ele>891.726</ele>
        <time>2019-10-16T16:18:45Z</time>
      </trkpt>
      <trkpt lat="-22.148739" lon="-45.305165">
        <ele>891.808</ele>
        <time>2019-10-16T16:18:48Z</time>
      </trkpt>
      <trkpt lat="-22.148771" lon="-45.305112">
        <ele>891.981</ele>
        <time>2019-10-16T16:18:49Z</time>
      </trkpt>
      <trkpt lat="-22.148796" lon="-45.305068">
        <ele>891.969</ele>
        <time>2019-10-16T16:18:51Z</time>
      </trkpt>
      <trkpt lat="-22.148845" lon="-45.304987">
        <ele>892.042</ele>
        <time>2019-10-16T16:18:53Z</time>
      </trkpt>
      <trkpt lat="-22.148903" lon="-45.304880">
        <ele>892.030</ele>
        <time>2019-10-16T16:18:55Z</time>
      </trkpt>
      <trkpt lat="-22.149102" lon="-45.304530">
        <ele>892.080</ele>
        <time>2019-10-16T16:19:04Z</time>
      </trkpt>
      <trkpt lat="-22.149169" lon="-45.304422">
        <ele>892.032</ele>
        <time>2019-10-16T16:19:08Z</time>
      </trkpt>
      <trkpt lat="-22.149199" lon="-45.304371">
        <ele>891.986</ele>
        <time>2019-10-16T16:19:10Z</time>
      </trkpt>
      <trkpt lat="-22.149233" lon="-45.304316">
        <ele>891.923</ele>
        <time>2019-10-16T16:19:12Z</time>
      </trkpt>
      <trkpt lat="-22.149277" lon="-45.304251">
        <ele>891.763</ele>
        <time>2019-10-16T16:19:14Z</time>
      </trkpt>
      <trkpt lat="-22.149305" lon="-45.304198">
        <ele>891.744</ele>
        <time>2019-10-16T16:19:16Z</time>
      </trkpt>
      <trkpt lat="-22.149345" lon="-45.304131">
        <ele>891.618</ele>
        <time>2019-10-16T16:19:18Z</time>
      </trkpt>
      <trkpt lat="-22.149373" lon="-45.304074">
        <ele>891.508</ele>
        <time>2019-10-16T16:19:20Z</time>
      </trkpt>
      <trkpt lat="-22.149423" lon="-45.303988">
        <ele>891.550</ele>
        <time>2019-10-16T16:19:23Z</time>
      </trkpt>
      <trkpt lat="-22.149456" lon="-45.303933">
        <ele>891.468</ele>
        <time>2019-10-16T16:19:24Z</time>
      </trkpt>
      <trkpt lat="-22.149500" lon="-45.303855">
        <ele>891.471</ele>
        <time>2019-10-16T16:19:26Z</time>
      </trkpt>
      <trkpt lat="-22.149529" lon="-45.303801">
        <ele>891.379</ele>
        <time>2019-10-16T16:19:28Z</time>
      </trkpt>
      <trkpt lat="-22.149555" lon="-45.303752">
        <ele>891.349</ele>
        <time>2019-10-16T16:19:30Z</time>
      </trkpt>
      <trkpt lat="-22.149585" lon="-45.303697">
        <ele>891.311</ele>
        <time>2019-10-16T16:19:31Z</time>
      </trkpt>
      <trkpt lat="-22.149627" lon="-45.303623">
        <ele>891.335</ele>
        <time>2019-10-16T16:19:34Z</time>
      </trkpt>
      <trkpt lat="-22.149657" lon="-45.303565">
        <ele>891.292</ele>
        <time>2019-10-16T16:19:35Z</time>
      </trkpt>
      <trkpt lat="-22.149686" lon="-45.303516">
        <ele>891.214</ele>
        <time>2019-10-16T16:19:37Z</time>
      </trkpt>
      <trkpt lat="-22.149729" lon="-45.303443">
        <ele>891.254</ele>
        <time>2019-10-16T16:19:39Z</time>
      </trkpt>
      <trkpt lat="-22.149775" lon="-45.303370">
        <ele>891.209</ele>
        <time>2019-10-16T16:19:41Z</time>
      </trkpt>
      <trkpt lat="-22.149800" lon="-45.303319">
        <ele>891.308</ele>
        <time>2019-10-16T16:19:43Z</time>
      </trkpt>
      <trkpt lat="-22.149823" lon="-45.303271">
        <ele>891.455</ele>
        <time>2019-10-16T16:19:44Z</time>
      </trkpt>
      <trkpt lat="-22.149864" lon="-45.303202">
        <ele>891.643</ele>
        <time>2019-10-16T16:19:46Z</time>
      </trkpt>
      <trkpt lat="-22.149902" lon="-45.303130">
        <ele>891.876</ele>
        <time>2019-10-16T16:19:49Z</time>
      </trkpt>
      <trkpt lat="-22.149935" lon="-45.303074">
        <ele>891.934</ele>
        <time>2019-10-16T16:19:50Z</time>
      </trkpt>
      <trkpt lat="-22.149959" lon="-45.303032">
        <ele>892.184</ele>
        <time>2019-10-16T16:19:52Z</time>
      </trkpt>
      <trkpt lat="-22.149985" lon="-45.302985">
        <ele>892.286</ele>
        <time>2019-10-16T16:19:53Z</time>
      </trkpt>
      <trkpt lat="-22.150004" lon="-45.302940">
        <ele>892.590</ele>
        <time>2019-10-16T16:19:55Z</time>
      </trkpt>
      <trkpt lat="-22.150032" lon="-45.302885">
        <ele>893.127</ele>
        <time>2019-10-16T16:19:56Z</time>
      </trkpt>
      <trkpt lat="-22.150087" lon="-45.302785">
        <ele>894.172</ele>
        <time>2019-10-16T16:20:00Z</time>
      </trkpt>
      <trkpt lat="-22.150115" lon="-45.302742">
        <ele>894.613</ele>
        <time>2019-10-16T16:20:01Z</time>
      </trkpt>
      <trkpt lat="-22.150149" lon="-45.302689">
        <ele>895.114</ele>
        <time>2019-10-16T16:20:03Z</time>
      </trkpt>
      <trkpt lat="-22.150183" lon="-45.302636">
        <ele>895.608</ele>
        <time>2019-10-16T16:20:05Z</time>
      </trkpt>
      <trkpt lat="-22.150219" lon="-45.302585">
        <ele>896.021</ele>
        <time>2019-10-16T16:20:07Z</time>
      </trkpt>
      <trkpt lat="-22.150252" lon="-45.302541">
        <ele>896.459</ele>
        <time>2019-10-16T16:20:09Z</time>
      </trkpt>
      <trkpt lat="-22.150296" lon="-45.302496">
        <ele>896.862</ele>
        <time>2019-10-16T16:20:12Z</time>
      </trkpt>
      <trkpt lat="-22.150344" lon="-45.302465">
        <ele>897.080</ele>
        <time>2019-10-16T16:20:14Z</time>
      </trkpt>
      <trkpt lat="-22.150391" lon="-45.302445">
        <ele>897.310</ele>
        <time>2019-10-16T16:20:16Z</time>
      </trkpt>
      <trkpt lat="-22.150442" lon="-45.302430">
        <ele>897.692</ele>
        <time>2019-10-16T16:20:18Z</time>
      </trkpt>
      <trkpt lat="-22.150508" lon="-45.302407">
        <ele>898.086</ele>
        <time>2019-10-16T16:20:21Z</time>
      </trkpt>
      <trkpt lat="-22.150573" lon="-45.302400">
        <ele>898.413</ele>
        <time>2019-10-16T16:20:25Z</time>
      </trkpt>
      <trkpt lat="-22.150638" lon="-45.302412">
        <ele>899.178</ele>
        <time>2019-10-16T16:20:28Z</time>
      </trkpt>
      <trkpt lat="-22.150710" lon="-45.302417">
        <ele>899.833</ele>
        <time>2019-10-16T16:20:31Z</time>
      </trkpt>
      <trkpt lat="-22.150756" lon="-45.302424">
        <ele>900.226</ele>
        <time>2019-10-16T16:20:33Z</time>
      </trkpt>
      <trkpt lat="-22.150808" lon="-45.302430">
        <ele>900.808</ele>
        <time>2019-10-16T16:20:35Z</time>
      </trkpt>
      <trkpt lat="-22.150874" lon="-45.302419">
        <ele>900.461</ele>
        <time>2019-10-16T16:20:38Z</time>
      </trkpt>
      <trkpt lat="-22.150937" lon="-45.302408">
        <ele>899.799</ele>
        <time>2019-10-16T16:20:39Z</time>
      </trkpt>
      <trkpt lat="-22.151011" lon="-45.302392">
        <ele>898.832</ele>
        <time>2019-10-16T16:20:42Z</time>
      </trkpt>
      <trkpt lat="-22.151059" lon="-45.302385">
        <ele>898.370</ele>
        <time>2019-10-16T16:20:43Z</time>
      </trkpt>
      <trkpt lat="-22.151119" lon="-45.302371">
        <ele>897.650</ele>
        <time>2019-10-16T16:20:46Z</time>
      </trkpt>
      <trkpt lat="-22.151182" lon="-45.302370">
        <ele>897.172</ele>
        <time>2019-10-16T16:20:48Z</time>
      </trkpt>
      <trkpt lat="-22.151255" lon="-45.302358">
        <ele>896.436</ele>
        <time>2019-10-16T16:20:50Z</time>
      </trkpt>
      <trkpt lat="-22.152378" lon="-45.302247">
        <ele>891.873</ele>
        <time>2019-10-16T16:21:17Z</time>
      </trkpt>
      <trkpt lat="-22.152433" lon="-45.302231">
        <ele>891.759</ele>
        <time>2019-10-16T16:21:19Z</time>
      </trkpt>
      <trkpt lat="-22.152520" lon="-45.302200">
        <ele>891.703</ele>
        <time>2019-10-16T16:21:21Z</time>
      </trkpt>
      <trkpt lat="-22.152565" lon="-45.302181">
        <ele>891.723</ele>
        <time>2019-10-16T16:21:22Z</time>
      </trkpt>
      <trkpt lat="-22.152857" lon="-45.302017">
        <ele>891.908</ele>
        <time>2019-10-16T16:21:30Z</time>
      </trkpt>
      <trkpt lat="-22.152918" lon="-45.301985">
        <ele>891.929</ele>
        <time>2019-10-16T16:21:32Z</time>
      </trkpt>
      <trkpt lat="-22.152978" lon="-45.301949">
        <ele>891.967</ele>
        <time>2019-10-16T16:21:34Z</time>
      </trkpt>
      <trkpt lat="-22.153027" lon="-45.301919">
        <ele>892.090</ele>
        <time>2019-10-16T16:21:35Z</time>
      </trkpt>
      <trkpt lat="-22.153077" lon="-45.301885">
        <ele>892.018</ele>
        <time>2019-10-16T16:21:37Z</time>
      </trkpt>
      <trkpt lat="-22.153156" lon="-45.301828">
        <ele>892.088</ele>
        <time>2019-10-16T16:21:40Z</time>
      </trkpt>
      <trkpt lat="-22.153235" lon="-45.301767">
        <ele>892.060</ele>
        <time>2019-10-16T16:21:42Z</time>
      </trkpt>
      <trkpt lat="-22.153305" lon="-45.301714">
        <ele>892.014</ele>
        <time>2019-10-16T16:21:44Z</time>
      </trkpt>
      <trkpt lat="-22.153487" lon="-45.301586">
        <ele>892.251</ele>
        <time>2019-10-16T16:21:49Z</time>
      </trkpt>
      <trkpt lat="-22.153545" lon="-45.301548">
        <ele>892.338</ele>
        <time>2019-10-16T16:21:51Z</time>
      </trkpt>
      <trkpt lat="-22.153590" lon="-45.301508">
        <ele>892.370</ele>
        <time>2019-10-16T16:21:53Z</time>
      </trkpt>
      <trkpt lat="-22.153649" lon="-45.301466">
        <ele>892.417</ele>
        <time>2019-10-16T16:21:55Z</time>
      </trkpt>
      <trkpt lat="-22.153716" lon="-45.301413">
        <ele>892.508</ele>
        <time>2019-10-16T16:21:57Z</time>
      </trkpt>
      <trkpt lat="-22.153755" lon="-45.301372">
        <ele>892.547</ele>
        <time>2019-10-16T16:21:59Z</time>
      </trkpt>
      <trkpt lat="-22.153811" lon="-45.301315">
        <ele>892.655</ele>
        <time>2019-10-16T16:22:01Z</time>
      </trkpt>
      <trkpt lat="-22.153849" lon="-45.301268">
        <ele>892.658</ele>
        <time>2019-10-16T16:22:03Z</time>
      </trkpt>
      <trkpt lat="-22.153893" lon="-45.301201">
        <ele>892.736</ele>
        <time>2019-10-16T16:22:06Z</time>
      </trkpt>
      <trkpt lat="-22.153935" lon="-45.301126">
        <ele>892.746</ele>
        <time>2019-10-16T16:22:07Z</time>
      </trkpt>
      <trkpt lat="-22.153959" lon="-45.301066">
        <ele>892.888</ele>
        <time>2019-10-16T16:22:09Z</time>
      </trkpt>
      <trkpt lat="-22.153987" lon="-45.301002">
        <ele>892.812</ele>
        <time>2019-10-16T16:22:11Z</time>
      </trkpt>
      <trkpt lat="-22.154010" lon="-45.300933">
        <ele>892.869</ele>
        <time>2019-10-16T16:22:13Z</time>
      </trkpt>
      <trkpt lat="-22.154037" lon="-45.300875">
        <ele>892.855</ele>
        <time>2019-10-16T16:22:15Z</time>
      </trkpt>
      <trkpt lat="-22.154085" lon="-45.300748">
        <ele>892.807</ele>
        <time>2019-10-16T16:22:19Z</time>
      </trkpt>
      <trkpt lat="-22.154112" lon="-45.300689">
        <ele>892.717</ele>
        <time>2019-10-16T16:22:20Z</time>
      </trkpt>
      <trkpt lat="-22.154149" lon="-45.300614">
        <ele>892.508</ele>
        <time>2019-10-16T16:22:22Z</time>
      </trkpt>
      <trkpt lat="-22.154178" lon="-45.300568">
        <ele>892.419</ele>
        <time>2019-10-16T16:22:24Z</time>
      </trkpt>
      <trkpt lat="-22.154207" lon="-45.300524">
        <ele>892.317</ele>
        <time>2019-10-16T16:22:25Z</time>
      </trkpt>
      <trkpt lat="-22.154241" lon="-45.300479">
        <ele>892.110</ele>
        <time>2019-10-16T16:22:26Z</time>
      </trkpt>
      <trkpt lat="-22.154272" lon="-45.300438">
        <ele>892.198</ele>
        <time>2019-10-16T16:22:28Z</time>
      </trkpt>
      <trkpt lat="-22.154331" lon="-45.300365">
        <ele>891.958</ele>
        <time>2019-10-16T16:22:31Z</time>
      </trkpt>
      <trkpt lat="-22.154397" lon="-45.300294">
        <ele>891.740</ele>
        <time>2019-10-16T16:22:34Z</time>
      </trkpt>
      <trkpt lat="-22.154471" lon="-45.300236">
        <ele>891.684</ele>
        <time>2019-10-16T16:22:37Z</time>
      </trkpt>
      <trkpt lat="-22.154523" lon="-45.300203">
        <ele>891.561</ele>
        <time>2019-10-16T16:22:38Z</time>
      </trkpt>
      <trkpt lat="-22.154577" lon="-45.300168">
        <ele>891.411</ele>
        <time>2019-10-16T16:22:40Z</time>
      </trkpt>
      <trkpt lat="-22.154623" lon="-45.300139">
        <ele>891.321</ele>
        <time>2019-10-16T16:22:42Z</time>
      </trkpt>
      <trkpt lat="-22.154691" lon="-45.300104">
        <ele>891.203</ele>
        <time>2019-10-16T16:22:44Z</time>
      </trkpt>
      <trkpt lat="-22.154734" lon="-45.300072">
        <ele>891.208</ele>
        <time>2019-10-16T16:22:46Z</time>
      </trkpt>
      <trkpt lat="-22.154799" lon="-45.300037">
        <ele>891.175</ele>
        <time>2019-10-16T16:22:49Z</time>
      </trkpt>
      <trkpt lat="-22.154853" lon="-45.300009">
        <ele>891.053</ele>
        <time>2019-10-16T16:22:50Z</time>
      </trkpt>
      <trkpt lat="-22.154924" lon="-45.299975">
        <ele>891.196</ele>
        <time>2019-10-16T16:22:52Z</time>
      </trkpt>
      <trkpt lat="-22.154967" lon="-45.299954">
        <ele>891.134</ele>
        <time>2019-10-16T16:22:54Z</time>
      </trkpt>
      <trkpt lat="-22.155015" lon="-45.299927">
        <ele>891.254</ele>
        <time>2019-10-16T16:22:55Z</time>
      </trkpt>
      <trkpt lat="-22.155076" lon="-45.299890">
        <ele>891.386</ele>
        <time>2019-10-16T16:22:58Z</time>
      </trkpt>
      <trkpt lat="-22.155124" lon="-45.299866">
        <ele>891.390</ele>
        <time>2019-10-16T16:22:59Z</time>
      </trkpt>
      <trkpt lat="-22.155200" lon="-45.299830">
        <ele>891.437</ele>
        <time>2019-10-16T16:23:02Z</time>
      </trkpt>
      <trkpt lat="-22.155252" lon="-45.299801">
        <ele>891.582</ele>
        <time>2019-10-16T16:23:03Z</time>
      </trkpt>
      <trkpt lat="-22.155305" lon="-45.299770">
        <ele>891.643</ele>
        <time>2019-10-16T16:23:05Z</time>
      </trkpt>
      <trkpt lat="-22.155353" lon="-45.299746">
        <ele>891.617</ele>
        <time>2019-10-16T16:23:07Z</time>
      </trkpt>
      <trkpt lat="-22.155431" lon="-45.299706">
        <ele>891.708</ele>
        <time>2019-10-16T16:23:09Z</time>
      </trkpt>
      <trkpt lat="-22.155476" lon="-45.299680">
        <ele>891.812</ele>
        <time>2019-10-16T16:23:11Z</time>
      </trkpt>
      <trkpt lat="-22.155543" lon="-45.299646">
        <ele>891.960</ele>
        <time>2019-10-16T16:23:13Z</time>
      </trkpt>
      <trkpt lat="-22.155640" lon="-45.299595">
        <ele>892.053</ele>
        <time>2019-10-16T16:23:16Z</time>
      </trkpt>
      <trkpt lat="-22.155724" lon="-45.299547">
        <ele>892.151</ele>
        <time>2019-10-16T16:23:19Z</time>
      </trkpt>
      <trkpt lat="-22.155767" lon="-45.299521">
        <ele>892.181</ele>
        <time>2019-10-16T16:23:20Z</time>
      </trkpt>
      <trkpt lat="-22.155811" lon="-45.299501">
        <ele>892.233</ele>
        <time>2019-10-16T16:23:23Z</time>
      </trkpt>
      <trkpt lat="-22.155871" lon="-45.299461">
        <ele>892.267</ele>
        <time>2019-10-16T16:23:25Z</time>
      </trkpt>
      <trkpt lat="-22.155923" lon="-45.299434">
        <ele>892.154</ele>
        <time>2019-10-16T16:23:26Z</time>
      </trkpt>
      <trkpt lat="-22.155983" lon="-45.299401">
        <ele>892.197</ele>
        <time>2019-10-16T16:23:28Z</time>
      </trkpt>
      <trkpt lat="-22.156023" lon="-45.299378">
        <ele>892.023</ele>
        <time>2019-10-16T16:23:30Z</time>
      </trkpt>
      <trkpt lat="-22.156073" lon="-45.299353">
        <ele>892.025</ele>
        <time>2019-10-16T16:23:31Z</time>
      </trkpt>
      <trkpt lat="-22.156122" lon="-45.299328">
        <ele>891.908</ele>
        <time>2019-10-16T16:23:33Z</time>
      </trkpt>
      <trkpt lat="-22.156163" lon="-45.299308">
        <ele>891.973</ele>
        <time>2019-10-16T16:23:34Z</time>
      </trkpt>
      <trkpt lat="-22.156236" lon="-45.299281">
        <ele>891.871</ele>
        <time>2019-10-16T16:23:36Z</time>
      </trkpt>
      <trkpt lat="-22.156302" lon="-45.299251">
        <ele>891.784</ele>
        <time>2019-10-16T16:23:38Z</time>
      </trkpt>
      <trkpt lat="-22.156370" lon="-45.299231">
        <ele>891.672</ele>
        <time>2019-10-16T16:23:40Z</time>
      </trkpt>
      <trkpt lat="-22.156443" lon="-45.299212">
        <ele>891.472</ele>
        <time>2019-10-16T16:23:43Z</time>
      </trkpt>
      <trkpt lat="-22.156496" lon="-45.299199">
        <ele>891.334</ele>
        <time>2019-10-16T16:23:44Z</time>
      </trkpt>
      <trkpt lat="-22.156570" lon="-45.299179">
        <ele>891.278</ele>
        <time>2019-10-16T16:23:46Z</time>
      </trkpt>
      <trkpt lat="-22.156624" lon="-45.299170">
        <ele>891.145</ele>
        <time>2019-10-16T16:23:48Z</time>
      </trkpt>
      <trkpt lat="-22.156699" lon="-45.299160">
        <ele>891.028</ele>
        <time>2019-10-16T16:23:51Z</time>
      </trkpt>
      <trkpt lat="-22.156749" lon="-45.299148">
        <ele>891.089</ele>
        <time>2019-10-16T16:23:53Z</time>
      </trkpt>
      <trkpt lat="-22.156814" lon="-45.299137">
        <ele>891.017</ele>
        <time>2019-10-16T16:23:54Z</time>
      </trkpt>
      <trkpt lat="-22.156903" lon="-45.299120">
        <ele>891.108</ele>
        <time>2019-10-16T16:23:57Z</time>
      </trkpt>
      <trkpt lat="-22.156962" lon="-45.299106">
        <ele>891.166</ele>
        <time>2019-10-16T16:23:58Z</time>
      </trkpt>
      <trkpt lat="-22.157022" lon="-45.299093">
        <ele>891.194</ele>
        <time>2019-10-16T16:24:00Z</time>
      </trkpt>
      <trkpt lat="-22.157072" lon="-45.299083">
        <ele>891.197</ele>
        <time>2019-10-16T16:24:02Z</time>
      </trkpt>
      <trkpt lat="-22.157145" lon="-45.299076">
        <ele>891.285</ele>
        <time>2019-10-16T16:24:04Z</time>
      </trkpt>
      <trkpt lat="-22.157222" lon="-45.299067">
        <ele>891.255</ele>
        <time>2019-10-16T16:24:06Z</time>
      </trkpt>
      <trkpt lat="-22.157277" lon="-45.299057">
        <ele>891.277</ele>
        <time>2019-10-16T16:24:08Z</time>
      </trkpt>
      <trkpt lat="-22.157332" lon="-45.299050">
        <ele>891.331</ele>
        <time>2019-10-16T16:24:09Z</time>
      </trkpt>
      <trkpt lat="-22.157386" lon="-45.299043">
        <ele>891.368</ele>
        <time>2019-10-16T16:24:11Z</time>
      </trkpt>
      <trkpt lat="-22.157450" lon="-45.299028">
        <ele>891.396</ele>
        <time>2019-10-16T16:24:12Z</time>
      </trkpt>
      <trkpt lat="-22.157506" lon="-45.299016">
        <ele>891.431</ele>
        <time>2019-10-16T16:24:14Z</time>
      </trkpt>
      <trkpt lat="-22.157574" lon="-45.299003">
        <ele>891.524</ele>
        <time>2019-10-16T16:24:16Z</time>
      </trkpt>
      <trkpt lat="-22.157633" lon="-45.298990">
        <ele>891.708</ele>
        <time>2019-10-16T16:24:18Z</time>
      </trkpt>
      <trkpt lat="-22.157683" lon="-45.298982">
        <ele>891.883</ele>
        <time>2019-10-16T16:24:20Z</time>
      </trkpt>
      <trkpt lat="-22.157755" lon="-45.298967">
        <ele>891.971</ele>
        <time>2019-10-16T16:24:22Z</time>
      </trkpt>
      <trkpt lat="-22.157807" lon="-45.298954">
        <ele>892.124</ele>
        <time>2019-10-16T16:24:24Z</time>
      </trkpt>
      <trkpt lat="-22.157861" lon="-45.298940">
        <ele>892.292</ele>
        <time>2019-10-16T16:24:26Z</time>
      </trkpt>
      <trkpt lat="-22.157914" lon="-45.298926">
        <ele>892.382</ele>
        <time>2019-10-16T16:24:27Z</time>
      </trkpt>
      <trkpt lat="-22.157995" lon="-45.298900">
        <ele>892.424</ele>
        <time>2019-10-16T16:24:30Z</time>
      </trkpt>
      <trkpt lat="-22.158051" lon="-45.298883">
        <ele>892.648</ele>
        <time>2019-10-16T16:24:31Z</time>
      </trkpt>
      <trkpt lat="-22.158121" lon="-45.298856">
        <ele>892.745</ele>
        <time>2019-10-16T16:24:34Z</time>
      </trkpt>
      <trkpt lat="-22.158180" lon="-45.298836">
        <ele>892.866</ele>
        <time>2019-10-16T16:24:35Z</time>
      </trkpt>
      <trkpt lat="-22.158228" lon="-45.298817">
        <ele>892.929</ele>
        <time>2019-10-16T16:24:37Z</time>
      </trkpt>
      <trkpt lat="-22.158277" lon="-45.298795">
        <ele>892.921</ele>
        <time>2019-10-16T16:24:38Z</time>
      </trkpt>
      <trkpt lat="-22.158322" lon="-45.298776">
        <ele>893.008</ele>
        <time>2019-10-16T16:24:39Z</time>
      </trkpt>
      <trkpt lat="-22.158384" lon="-45.298752">
        <ele>893.090</ele>
        <time>2019-10-16T16:24:41Z</time>
      </trkpt>
      <trkpt lat="-22.158455" lon="-45.298721">
        <ele>893.098</ele>
        <time>2019-10-16T16:24:43Z</time>
      </trkpt>
      <trkpt lat="-22.158515" lon="-45.298686">
        <ele>893.071</ele>
        <time>2019-10-16T16:24:45Z</time>
      </trkpt>
      <trkpt lat="-22.158595" lon="-45.298644">
        <ele>893.079</ele>
        <time>2019-10-16T16:24:48Z</time>
      </trkpt>
      <trkpt lat="-22.158658" lon="-45.298608">
        <ele>893.099</ele>
        <time>2019-10-16T16:24:49Z</time>
      </trkpt>
      <trkpt lat="-22.158724" lon="-45.298576">
        <ele>893.051</ele>
        <time>2019-10-16T16:24:51Z</time>
      </trkpt>
      <trkpt lat="-22.158766" lon="-45.298551">
        <ele>893.065</ele>
        <time>2019-10-16T16:24:52Z</time>
      </trkpt>
      <trkpt lat="-22.158812" lon="-45.298524">
        <ele>893.022</ele>
        <time>2019-10-16T16:24:54Z</time>
      </trkpt>
      <trkpt lat="-22.158875" lon="-45.298488">
        <ele>893.099</ele>
        <time>2019-10-16T16:24:56Z</time>
      </trkpt>
      <trkpt lat="-22.158937" lon="-45.298451">
        <ele>893.007</ele>
        <time>2019-10-16T16:24:58Z</time>
      </trkpt>
      <trkpt lat="-22.159386" lon="-45.298158">
        <ele>893.327</ele>
        <time>2019-10-16T16:25:11Z</time>
      </trkpt>
      <trkpt lat="-22.159464" lon="-45.298113">
        <ele>893.408</ele>
        <time>2019-10-16T16:25:13Z</time>
      </trkpt>
      <trkpt lat="-22.159528" lon="-45.298058">
        <ele>893.573</ele>
        <time>2019-10-16T16:25:15Z</time>
      </trkpt>
      <trkpt lat="-22.159575" lon="-45.298023">
        <ele>893.671</ele>
        <time>2019-10-16T16:25:17Z</time>
      </trkpt>
      <trkpt lat="-22.159629" lon="-45.297990">
        <ele>893.634</ele>
        <time>2019-10-16T16:25:18Z</time>
      </trkpt>
      <trkpt lat="-22.159670" lon="-45.297968">
        <ele>893.762</ele>
        <time>2019-10-16T16:25:19Z</time>
      </trkpt>
      <trkpt lat="-22.159925" lon="-45.297798">
        <ele>894.252</ele>
        <time>2019-10-16T16:25:27Z</time>
      </trkpt>
      <trkpt lat="-22.159958" lon="-45.297764">
        <ele>894.394</ele>
        <time>2019-10-16T16:25:28Z</time>
      </trkpt>
      <trkpt lat="-22.160035" lon="-45.297722">
        <ele>894.438</ele>
        <time>2019-10-16T16:25:30Z</time>
      </trkpt>
      <trkpt lat="-22.160103" lon="-45.297685">
        <ele>894.525</ele>
        <time>2019-10-16T16:25:32Z</time>
      </trkpt>
      <trkpt lat="-22.160439" lon="-45.297456">
        <ele>894.573</ele>
        <time>2019-10-16T16:25:42Z</time>
      </trkpt>
      <trkpt lat="-22.160485" lon="-45.297443">
        <ele>894.485</ele>
        <time>2019-10-16T16:25:43Z</time>
      </trkpt>
      <trkpt lat="-22.160536" lon="-45.297397">
        <ele>894.413</ele>
        <time>2019-10-16T16:25:45Z</time>
      </trkpt>
      <trkpt lat="-22.160584" lon="-45.297356">
        <ele>894.308</ele>
        <time>2019-10-16T16:25:47Z</time>
      </trkpt>
      <trkpt lat="-22.160651" lon="-45.297313">
        <ele>894.231</ele>
        <time>2019-10-16T16:25:48Z</time>
      </trkpt>
      <trkpt lat="-22.161162" lon="-45.296974">
        <ele>893.559</ele>
        <time>2019-10-16T16:26:02Z</time>
      </trkpt>
      <trkpt lat="-22.161226" lon="-45.296929">
        <ele>893.432</ele>
        <time>2019-10-16T16:26:05Z</time>
      </trkpt>
      <trkpt lat="-22.161270" lon="-45.296901">
        <ele>893.380</ele>
        <time>2019-10-16T16:26:07Z</time>
      </trkpt>
      <trkpt lat="-22.161918" lon="-45.296414">
        <ele>893.970</ele>
        <time>2019-10-16T16:26:25Z</time>
      </trkpt>
      <trkpt lat="-22.162259" lon="-45.296151">
        <ele>894.922</ele>
        <time>2019-10-16T16:26:35Z</time>
      </trkpt>
      <trkpt lat="-22.162300" lon="-45.296110">
        <ele>895.046</ele>
        <time>2019-10-16T16:26:36Z</time>
      </trkpt>
      <trkpt lat="-22.162349" lon="-45.296065">
        <ele>895.253</ele>
        <time>2019-10-16T16:26:38Z</time>
      </trkpt>
      <trkpt lat="-22.163120" lon="-45.295406">
        <ele>895.746</ele>
        <time>2019-10-16T16:27:02Z</time>
      </trkpt>
      <trkpt lat="-22.163881" lon="-45.294666">
        <ele>896.688</ele>
        <time>2019-10-16T16:27:25Z</time>
      </trkpt>
      <trkpt lat="-22.163912" lon="-45.294621">
        <ele>896.616</ele>
        <time>2019-10-16T16:27:26Z</time>
      </trkpt>
      <trkpt lat="-22.163978" lon="-45.294409">
        <ele>896.808</ele>
        <time>2019-10-16T16:27:32Z</time>
      </trkpt>
      <trkpt lat="-22.164002" lon="-45.294317">
        <ele>896.918</ele>
        <time>2019-10-16T16:27:35Z</time>
      </trkpt>
      <trkpt lat="-22.164018" lon="-45.294231">
        <ele>896.976</ele>
        <time>2019-10-16T16:27:36Z</time>
      </trkpt>
      <trkpt lat="-22.164033" lon="-45.294166">
        <ele>897.059</ele>
        <time>2019-10-16T16:27:38Z</time>
      </trkpt>
      <trkpt lat="-22.164059" lon="-45.294096">
        <ele>897.087</ele>
        <time>2019-10-16T16:27:40Z</time>
      </trkpt>
      <trkpt lat="-22.164096" lon="-45.294048">
        <ele>897.037</ele>
        <time>2019-10-16T16:27:42Z</time>
      </trkpt>
      <trkpt lat="-22.164168" lon="-45.293999">
        <ele>897.039</ele>
        <time>2019-10-16T16:27:44Z</time>
      </trkpt>
      <trkpt lat="-22.164253" lon="-45.293993">
        <ele>899.333</ele>
        <time>2019-10-16T16:27:47Z</time>
      </trkpt>
      <trkpt lat="-22.164307" lon="-45.294006">
        <ele>900.740</ele>
        <time>2019-10-16T16:27:48Z</time>
      </trkpt>
      <trkpt lat="-22.164358" lon="-45.294033">
        <ele>902.099</ele>
        <time>2019-10-16T16:27:50Z</time>
      </trkpt>
      <trkpt lat="-22.164409" lon="-45.294067">
        <ele>903.307</ele>
        <time>2019-10-16T16:27:51Z</time>
      </trkpt>
      <trkpt lat="-22.164460" lon="-45.294112">
        <ele>904.527</ele>
        <time>2019-10-16T16:27:54Z</time>
      </trkpt>
      <trkpt lat="-22.164496" lon="-45.294152">
        <ele>905.308</ele>
        <time>2019-10-16T16:27:56Z</time>
      </trkpt>
      <trkpt lat="-22.164547" lon="-45.294204">
        <ele>906.323</ele>
        <time>2019-10-16T16:27:58Z</time>
      </trkpt>
      <trkpt lat="-22.164589" lon="-45.294263">
        <ele>906.971</ele>
        <time>2019-10-16T16:28:02Z</time>
      </trkpt>
      <trkpt lat="-22.164629" lon="-45.294312">
        <ele>907.464</ele>
        <time>2019-10-16T16:28:05Z</time>
      </trkpt>
      <trkpt lat="-22.164658" lon="-45.294358">
        <ele>907.762</ele>
        <time>2019-10-16T16:28:09Z</time>
      </trkpt>
      <trkpt lat="-22.164682" lon="-45.294402">
        <ele>907.882</ele>
        <time>2019-10-16T16:28:15Z</time>
      </trkpt>
      <trkpt lat="-22.164714" lon="-45.294440">
        <ele>908.194</ele>
        <time>2019-10-16T16:28:17Z</time>
      </trkpt>
      <trkpt lat="-22.164755" lon="-45.294476">
        <ele>908.678</ele>
        <time>2019-10-16T16:28:20Z</time>
      </trkpt>
      <trkpt lat="-22.164799" lon="-45.294500">
        <ele>909.275</ele>
        <time>2019-10-16T16:28:25Z</time>
      </trkpt>
      <trkpt lat="-22.164838" lon="-45.294523">
        <ele>909.766</ele>
        <time>2019-10-16T16:28:30Z</time>
      </trkpt>
      <trkpt lat="-22.164888" lon="-45.294564">
        <ele>910.229</ele>
        <time>2019-10-16T16:28:34Z</time>
      </trkpt>
      <trkpt lat="-22.164925" lon="-45.294608">
        <ele>910.321</ele>
        <time>2019-10-16T16:28:40Z</time>
      </trkpt>
      <trkpt lat="-22.164964" lon="-45.294658">
        <ele>910.308</ele>
        <time>2019-10-16T16:28:43Z</time>
      </trkpt>
      <trkpt lat="-22.164991" lon="-45.294700">
        <ele>910.210</ele>
        <time>2019-10-16T16:28:46Z</time>
      </trkpt>
      <trkpt lat="-22.165011" lon="-45.294746">
        <ele>909.978</ele>
        <time>2019-10-16T16:28:52Z</time>
      </trkpt>
      <trkpt lat="-22.165022" lon="-45.294795">
        <ele>909.481</ele>
        <time>2019-10-16T16:28:57Z</time>
      </trkpt>
      <trkpt lat="-22.165028" lon="-45.294851">
        <ele>908.699</ele>
        <time>2019-10-16T16:29:03Z</time>
      </trkpt>
      <trkpt lat="-22.165042" lon="-45.294928">
        <ele>907.739</ele>
        <time>2019-10-16T16:29:10Z</time>
      </trkpt>
      <trkpt lat="-22.165062" lon="-45.294990">
        <ele>907.021</ele>
        <time>2019-10-16T16:29:15Z</time>
      </trkpt>
      <trkpt lat="-22.165093" lon="-45.295044">
        <ele>907.045</ele>
        <time>2019-10-16T16:29:23Z</time>
      </trkpt>
      <trkpt lat="-22.165133" lon="-45.295081">
        <ele>907.362</ele>
        <time>2019-10-16T16:29:29Z</time>
      </trkpt>
      <trkpt lat="-22.165201" lon="-45.295119">
        <ele>907.985</ele>
        <time>2019-10-16T16:29:35Z</time>
      </trkpt>
      <trkpt lat="-22.165271" lon="-45.295131">
        <ele>908.789</ele>
        <time>2019-10-16T16:29:37Z</time>
      </trkpt>
      <trkpt lat="-22.165314" lon="-45.295151">
        <ele>909.117</ele>
        <time>2019-10-16T16:29:39Z</time>
      </trkpt>
      <trkpt lat="-22.165358" lon="-45.295181">
        <ele>909.308</ele>
        <time>2019-10-16T16:29:43Z</time>
      </trkpt>
      <trkpt lat="-22.165367" lon="-45.295237">
        <ele>908.992</ele>
        <time>2019-10-16T16:29:47Z</time>
      </trkpt>
      <trkpt lat="-22.165354" lon="-45.295284">
        <ele>908.260</ele>
        <time>2019-10-16T16:29:49Z</time>
      </trkpt>
      <trkpt lat="-22.165341" lon="-45.295347">
        <ele>907.513</ele>
        <time>2019-10-16T16:29:51Z</time>
      </trkpt>
      <trkpt lat="-22.165346" lon="-45.295402">
        <ele>907.011</ele>
        <time>2019-10-16T16:29:53Z</time>
      </trkpt>
      <trkpt lat="-22.165358" lon="-45.295457">
        <ele>906.591</ele>
        <time>2019-10-16T16:29:54Z</time>
      </trkpt>
      <trkpt lat="-22.165764" lon="-45.297055">
        <ele>909.883</ele>
        <time>2019-10-16T16:30:30Z</time>
      </trkpt>
      <trkpt lat="-22.165770" lon="-45.297113">
        <ele>910.137</ele>
        <time>2019-10-16T16:30:32Z</time>
      </trkpt>
      <trkpt lat="-22.165790" lon="-45.297168">
        <ele>910.344</ele>
        <time>2019-10-16T16:30:33Z</time>
      </trkpt>
      <trkpt lat="-22.165805" lon="-45.297221">
        <ele>910.419</ele>
        <time>2019-10-16T16:30:35Z</time>
      </trkpt>
      <trkpt lat="-22.165833" lon="-45.297318">
        <ele>910.709</ele>
        <time>2019-10-16T16:30:37Z</time>
      </trkpt>
      <trkpt lat="-22.165848" lon="-45.297375">
        <ele>911.219</ele>
        <time>2019-10-16T16:30:39Z</time>
      </trkpt>
      <trkpt lat="-22.165858" lon="-45.297433">
        <ele>911.608</ele>
        <time>2019-10-16T16:30:41Z</time>
      </trkpt>
      <trkpt lat="-22.165873" lon="-45.297496">
        <ele>912.245</ele>
        <time>2019-10-16T16:30:42Z</time>
      </trkpt>
      <trkpt lat="-22.165889" lon="-45.297556">
        <ele>912.723</ele>
        <time>2019-10-16T16:30:44Z</time>
      </trkpt>
      <trkpt lat="-22.165902" lon="-45.297609">
        <ele>913.246</ele>
        <time>2019-10-16T16:30:46Z</time>
      </trkpt>
      <trkpt lat="-22.165914" lon="-45.297663">
        <ele>913.664</ele>
        <time>2019-10-16T16:30:48Z</time>
      </trkpt>
      <trkpt lat="-22.165931" lon="-45.297722">
        <ele>914.274</ele>
        <time>2019-10-16T16:30:49Z</time>
      </trkpt>
      <trkpt lat="-22.165951" lon="-45.297800">
        <ele>914.926</ele>
        <time>2019-10-16T16:30:51Z</time>
      </trkpt>
      <trkpt lat="-22.165966" lon="-45.297847">
        <ele>915.430</ele>
        <time>2019-10-16T16:30:53Z</time>
      </trkpt>
      <trkpt lat="-22.165980" lon="-45.297896">
        <ele>915.957</ele>
        <time>2019-10-16T16:30:54Z</time>
      </trkpt>
      <trkpt lat="-22.165993" lon="-45.297970">
        <ele>916.669</ele>
        <time>2019-10-16T16:30:56Z</time>
      </trkpt>
      <trkpt lat="-22.166007" lon="-45.298022">
        <ele>917.104</ele>
        <time>2019-10-16T16:30:58Z</time>
      </trkpt>
      <trkpt lat="-22.166026" lon="-45.298086">
        <ele>917.824</ele>
        <time>2019-10-16T16:31:00Z</time>
      </trkpt>
      <trkpt lat="-22.166038" lon="-45.298135">
        <ele>918.308</ele>
        <time>2019-10-16T16:31:02Z</time>
      </trkpt>
      <trkpt lat="-22.166055" lon="-45.298186">
        <ele>918.980</ele>
        <time>2019-10-16T16:31:04Z</time>
      </trkpt>
      <trkpt lat="-22.166068" lon="-45.298239">
        <ele>919.468</ele>
        <time>2019-10-16T16:31:05Z</time>
      </trkpt>
      <trkpt lat="-22.166088" lon="-45.298307">
        <ele>920.221</ele>
        <time>2019-10-16T16:31:07Z</time>
      </trkpt>
      <trkpt lat="-22.166109" lon="-45.298398">
        <ele>920.089</ele>
        <time>2019-10-16T16:31:10Z</time>
      </trkpt>
      <trkpt lat="-22.166123" lon="-45.298450">
        <ele>919.629</ele>
        <time>2019-10-16T16:31:12Z</time>
      </trkpt>
      <trkpt lat="-22.166137" lon="-45.298504">
        <ele>919.221</ele>
        <time>2019-10-16T16:31:13Z</time>
      </trkpt>
      <trkpt lat="-22.166158" lon="-45.298582">
        <ele>918.635</ele>
        <time>2019-10-16T16:31:16Z</time>
      </trkpt>
      <trkpt lat="-22.166174" lon="-45.298640">
        <ele>918.382</ele>
        <time>2019-10-16T16:31:17Z</time>
      </trkpt>
      <trkpt lat="-22.166192" lon="-45.298728">
        <ele>917.772</ele>
        <time>2019-10-16T16:31:20Z</time>
      </trkpt>
      <trkpt lat="-22.166204" lon="-45.298792">
        <ele>917.213</ele>
        <time>2019-10-16T16:31:22Z</time>
      </trkpt>
      <trkpt lat="-22.166226" lon="-45.298871">
        <ele>916.814</ele>
        <time>2019-10-16T16:31:23Z</time>
      </trkpt>
      <trkpt lat="-22.166243" lon="-45.298952">
        <ele>916.308</ele>
        <time>2019-10-16T16:31:26Z</time>
      </trkpt>
      <trkpt lat="-22.178423" lon="-45.307096">
        <ele>916.381</ele>
        <time>2019-10-16T16:35:54Z</time>
      </trkpt>
      <trkpt lat="-22.178472" lon="-45.307106">
        <ele>916.869</ele>
        <time>2019-10-16T16:35:55Z</time>
      </trkpt>
      <trkpt lat="-22.178549" lon="-45.307129">
        <ele>917.482</ele>
        <time>2019-10-16T16:35:58Z</time>
      </trkpt>
      <trkpt lat="-22.178613" lon="-45.307142">
        <ele>918.070</ele>
        <time>2019-10-16T16:35:59Z</time>
      </trkpt>
      <trkpt lat="-22.178665" lon="-45.307148">
        <ele>918.770</ele>
        <time>2019-10-16T16:36:01Z</time>
      </trkpt>
      <trkpt lat="-22.178749" lon="-45.307169">
        <ele>919.292</ele>
        <time>2019-10-16T16:36:03Z</time>
      </trkpt>
      <trkpt lat="-22.178794" lon="-45.307184">
        <ele>919.316</ele>
        <time>2019-10-16T16:36:05Z</time>
      </trkpt>
      <trkpt lat="-22.184329" lon="-45.310587">
        <ele>905.683</ele>
        <time>2019-10-16T16:33:22Z</time>
      </trkpt>
      <trkpt lat="-22.184393" lon="-45.310600">
        <ele>906.468</ele>
        <time>2019-10-16T16:33:24Z</time>
      </trkpt>
      <trkpt lat="-22.184460" lon="-45.310610">
        <ele>907.342</ele>
        <time>2019-10-16T16:38:20Z</time>
      </trkpt>
      <trkpt lat="-22.184505" lon="-45.310634">
        <ele>907.726</ele>
        <time>2019-10-16T16:38:22Z</time>
      </trkpt>
      <trkpt lat="-22.184571" lon="-45.310660">
        <ele>908.308</ele>
        <time>2019-10-16T16:38:24Z</time>
      </trkpt>
      <trkpt lat="-22.184623" lon="-45.310685">
        <ele>908.780</ele>
        <time>2019-10-16T16:38:27Z</time>
      </trkpt>
      <trkpt lat="-22.184669" lon="-45.310701">
        <ele>909.198</ele>
        <time>2019-10-16T16:38:29Z</time>
      </trkpt>
      <trkpt lat="-22.184724" lon="-45.310734">
        <ele>909.381</ele>
        <time>2019-10-16T16:38:32Z</time>
      </trkpt>
      <trkpt lat="-22.184795" lon="-45.310772">
        <ele>909.689</ele>
        <time>2019-10-16T16:38:35Z</time>
      </trkpt>
      <trkpt lat="-22.184851" lon="-45.310803">
        <ele>909.839</ele>
        <time>2019-10-16T16:38:37Z</time>
      </trkpt>
      <trkpt lat="-22.184898" lon="-45.310828">
        <ele>909.951</ele>
        <time>2019-10-16T16:38:40Z</time>
      </trkpt>
      <trkpt lat="-22.184940" lon="-45.310855">
        <ele>910.185</ele>
        <time>2019-10-16T16:38:42Z</time>
      </trkpt>
      <trkpt lat="-22.185009" lon="-45.310888">
        <ele>910.842</ele>
        <time>2019-10-16T16:38:45Z</time>
      </trkpt>
      <trkpt lat="-22.185073" lon="-45.310932">
        <ele>912.616</ele>
        <time>2019-10-16T16:38:48Z</time>
      </trkpt>
      <trkpt lat="-22.185122" lon="-45.310970">
        <ele>913.876</ele>
        <time>2019-10-16T16:38:51Z</time>
      </trkpt>
      <trkpt lat="-22.185168" lon="-45.311011">
        <ele>914.813</ele>
        <time>2019-10-16T16:38:54Z</time>
      </trkpt>
      <trkpt lat="-22.185206" lon="-45.311043">
        <ele>915.508</ele>
        <time>2019-10-16T16:38:58Z</time>
      </trkpt>
      <trkpt lat="-22.185247" lon="-45.311073">
        <ele>916.335</ele>
        <time>2019-10-16T16:39:01Z</time>
      </trkpt>
      <trkpt lat="-22.185282" lon="-45.311109">
        <ele>916.733</ele>
        <time>2019-10-16T16:39:05Z</time>
      </trkpt>
      <trkpt lat="-22.185320" lon="-45.311137">
        <ele>917.336</ele>
        <time>2019-10-16T16:39:08Z</time>
      </trkpt>
      <trkpt lat="-22.185373" lon="-45.311181">
        <ele>917.974</ele>
        <time>2019-10-16T16:39:12Z</time>
      </trkpt>
      <trkpt lat="-22.185419" lon="-45.311208">
        <ele>918.514</ele>
        <time>2019-10-16T16:39:15Z</time>
      </trkpt>
      <trkpt lat="-22.185467" lon="-45.311249">
        <ele>918.886</ele>
        <time>2019-10-16T16:39:18Z</time>
      </trkpt>
      <trkpt lat="-22.185523" lon="-45.311279">
        <ele>919.420</ele>
        <time>2019-10-16T16:39:22Z</time>
      </trkpt>
      <trkpt lat="-22.185574" lon="-45.311305">
        <ele>919.947</ele>
        <time>2019-10-16T16:39:25Z</time>
      </trkpt>
      <trkpt lat="-22.185627" lon="-45.311339">
        <ele>920.266</ele>
        <time>2019-10-16T16:39:29Z</time>
      </trkpt>
      <trkpt lat="-22.185669" lon="-45.311362">
        <ele>920.429</ele>
        <time>2019-10-16T16:39:32Z</time>
      </trkpt>
      <trkpt lat="-22.185767" lon="-45.311399">
        <ele>921.321</ele>
        <time>2019-10-16T16:39:39Z</time>
      </trkpt>
      <trkpt lat="-22.185825" lon="-45.311425">
        <ele>921.508</ele>
        <time>2019-10-16T16:39:43Z</time>
      </trkpt>
      <trkpt lat="-22.185866" lon="-45.311448">
        <ele>921.530</ele>
        <time>2019-10-16T16:39:47Z</time>
      </trkpt>
      <trkpt lat="-22.185912" lon="-45.311470">
        <ele>921.628</ele>
        <time>2019-10-16T16:39:51Z</time>
      </trkpt>
      <trkpt lat="-22.185961" lon="-45.311494">
        <ele>921.651</ele>
        <time>2019-10-16T16:39:58Z</time>
      </trkpt>
      <trkpt lat="-22.186009" lon="-45.311511">
        <ele>921.869</ele>
        <time>2019-10-16T16:40:00Z</time>
      </trkpt>
      <trkpt lat="-22.186053" lon="-45.311531">
        <ele>921.839</ele>
        <time>2019-10-16T16:40:04Z</time>
      </trkpt>
      <trkpt lat="-22.186091" lon="-45.311557">
        <ele>921.421</ele>
        <time>2019-10-16T16:40:08Z</time>
      </trkpt>
      <trkpt lat="-22.186136" lon="-45.311581">
        <ele>921.165</ele>
        <time>2019-10-16T16:40:11Z</time>
      </trkpt>
      <trkpt lat="-22.186210" lon="-45.311594">
        <ele>921.772</ele>
        <time>2019-10-16T16:40:16Z</time>
      </trkpt>
      <trkpt lat="-22.186267" lon="-45.311598">
        <ele>922.446</ele>
        <time>2019-10-16T16:40:20Z</time>
      </trkpt>
      <trkpt lat="-22.186322" lon="-45.311602">
        <ele>923.188</ele>
        <time>2019-10-16T16:40:26Z</time>
      </trkpt>
      <trkpt lat="-22.186368" lon="-45.311608">
        <ele>923.616</ele>
        <time>2019-10-16T16:40:30Z</time>
      </trkpt>
      <trkpt lat="-22.186421" lon="-45.311615">
        <ele>924.108</ele>
        <time>2019-10-16T16:40:36Z</time>
      </trkpt>
      <trkpt lat="-22.186467" lon="-45.311614">
        <ele>924.838</ele>
        <time>2019-10-16T16:40:41Z</time>
      </trkpt>
      <trkpt lat="-22.186545" lon="-45.311603">
        <ele>926.666</ele>
        <time>2019-10-16T16:40:44Z</time>
      </trkpt>
      <trkpt lat="-22.186591" lon="-45.311586">
        <ele>928.319</ele>
        <time>2019-10-16T16:40:46Z</time>
      </trkpt>
      <trkpt lat="-22.186672" lon="-45.311563">
        <ele>930.947</ele>
        <time>2019-10-16T16:40:50Z</time>
      </trkpt>
      <trkpt lat="-22.186724" lon="-45.311551">
        <ele>931.867</ele>
        <time>2019-10-16T16:40:54Z</time>
      </trkpt>
      <trkpt lat="-22.186780" lon="-45.311543">
        <ele>932.659</ele>
        <time>2019-10-16T16:40:58Z</time>
      </trkpt>
      <trkpt lat="-22.186830" lon="-45.311535">
        <ele>933.383</ele>
        <time>2019-10-16T16:41:01Z</time>
      </trkpt>
      <trkpt lat="-22.186890" lon="-45.311527">
        <ele>934.070</ele>
        <time>2019-10-16T16:41:06Z</time>
      </trkpt>
      <trkpt lat="-22.186936" lon="-45.311511">
        <ele>935.176</ele>
        <time>2019-10-16T16:41:08Z</time>
      </trkpt>
      <trkpt lat="-22.186984" lon="-45.311498">
        <ele>936.090</ele>
        <time>2019-10-16T16:41:14Z</time>
      </trkpt>
      <trkpt lat="-22.187032" lon="-45.311496">
        <ele>936.419</ele>
        <time>2019-10-16T16:41:20Z</time>
      </trkpt>
      <trkpt lat="-22.187080" lon="-45.311499">
        <ele>936.408</ele>
        <time>2019-10-16T16:41:23Z</time>
      </trkpt>
      <trkpt lat="-22.187129" lon="-45.311494">
        <ele>936.961</ele>
        <time>2019-10-16T16:41:28Z</time>
      </trkpt>
      <trkpt lat="-22.187194" lon="-45.311485">
        <ele>937.719</ele>
        <time>2019-10-16T16:41:32Z</time>
      </trkpt>
      <trkpt lat="-22.187240" lon="-45.311479">
        <ele>938.252</ele>
        <time>2019-10-16T16:41:36Z</time>
      </trkpt>
      <trkpt lat="-22.187291" lon="-45.311482">
        <ele>938.380</ele>
        <time>2019-10-16T16:41:40Z</time>
      </trkpt>
      <trkpt lat="-22.187357" lon="-45.311493">
        <ele>938.110</ele>
        <time>2019-10-16T16:41:42Z</time>
      </trkpt>
      <trkpt lat="-22.187409" lon="-45.311497">
        <ele>938.172</ele>
        <time>2019-10-16T16:41:43Z</time>
      </trkpt>
      <trkpt lat="-22.187459" lon="-45.311500">
        <ele>938.256</ele>
        <time>2019-10-16T16:41:45Z</time>
      </trkpt>
      <trkpt lat="-22.187511" lon="-45.311504">
        <ele>938.533</ele>
        <time>2019-10-16T16:41:47Z</time>
      </trkpt>
      <trkpt lat="-22.187560" lon="-45.311511">
        <ele>939.438</ele>
        <time>2019-10-16T16:41:51Z</time>
      </trkpt>
      <trkpt lat="-22.187612" lon="-45.311520">
        <ele>940.270</ele>
        <time>2019-10-16T16:41:56Z</time>
      </trkpt>
      <trkpt lat="-22.187672" lon="-45.311534">
        <ele>941.117</ele>
        <time>2019-10-16T16:42:03Z</time>
      </trkpt>
      <trkpt lat="-22.187726" lon="-45.311555">
        <ele>941.608</ele>
        <time>2019-10-16T16:42:07Z</time>
      </trkpt>
      <trkpt lat="-22.187766" lon="-45.311584">
        <ele>941.547</ele>
        <time>2019-10-16T16:42:11Z</time>
      </trkpt>
      <trkpt lat="-22.187802" lon="-45.311620">
        <ele>941.085</ele>
        <time>2019-10-16T16:42:15Z</time>
      </trkpt>
      <trkpt lat="-22.187849" lon="-45.311664">
        <ele>940.628</ele>
        <time>2019-10-16T16:42:19Z</time>
      </trkpt>
      <trkpt lat="-22.187893" lon="-45.311699">
        <ele>940.966</ele>
        <time>2019-10-16T16:42:21Z</time>
      </trkpt>
      <trkpt lat="-22.187943" lon="-45.311735">
        <ele>941.496</ele>
        <time>2019-10-16T16:42:23Z</time>
      </trkpt>
      <trkpt lat="-22.187990" lon="-45.311761">
        <ele>942.198</ele>
        <time>2019-10-16T16:42:26Z</time>
      </trkpt>
      <trkpt lat="-22.188027" lon="-45.311790">
        <ele>942.442</ele>
        <time>2019-10-16T16:42:30Z</time>
      </trkpt>
      <trkpt lat="-22.188059" lon="-45.311831">
        <ele>942.399</ele>
        <time>2019-10-16T16:42:33Z</time>
      </trkpt>
      <trkpt lat="-22.188103" lon="-45.311877">
        <ele>942.441</ele>
        <time>2019-10-16T16:42:36Z</time>
      </trkpt>
      <trkpt lat="-22.188161" lon="-45.311918">
        <ele>943.181</ele>
        <time>2019-10-16T16:42:40Z</time>
      </trkpt>
      <trkpt lat="-22.188197" lon="-45.311949">
        <ele>943.309</ele>
        <time>2019-10-16T16:39:21Z</time>
      </trkpt>
      <trkpt lat="-22.188232" lon="-45.311982">
        <ele>943.508</ele>
        <time>2019-10-16T16:44:28Z</time>
      </trkpt>
      <trkpt lat="-22.188273" lon="-45.312020">
        <ele>943.838</ele>
        <time>2019-10-16T16:44:29Z</time>
      </trkpt>
      <trkpt lat="-22.188326" lon="-45.312066">
        <ele>944.276</ele>
        <time>2019-10-16T16:44:31Z</time>
      </trkpt>
      <trkpt lat="-22.188361" lon="-45.312102">
        <ele>944.269</ele>
        <time>2019-10-16T16:44:36Z</time>
      </trkpt>
      <trkpt lat="-22.188401" lon="-45.312127">
        <ele>944.547</ele>
        <time>2019-10-16T16:44:41Z</time>
      </trkpt>
      <trkpt lat="-22.188461" lon="-45.312182">
        <ele>944.367</ele>
        <time>2019-10-16T16:44:47Z</time>
      </trkpt>
      <trkpt lat="-22.188497" lon="-45.312221">
        <ele>944.059</ele>
        <time>2019-10-16T16:44:50Z</time>
      </trkpt>
      <trkpt lat="-22.188535" lon="-45.312259">
        <ele>943.873</ele>
        <time>2019-10-16T16:44:54Z</time>
      </trkpt>
      <trkpt lat="-22.188597" lon="-45.312302">
        <ele>943.820</ele>
        <time>2019-10-16T16:44:59Z</time>
      </trkpt>
      <trkpt lat="-22.188652" lon="-45.312335">
        <ele>943.978</ele>
        <time>2019-10-16T16:45:02Z</time>
      </trkpt>
      <trkpt lat="-22.188699" lon="-45.312360">
        <ele>944.133</ele>
        <time>2019-10-16T16:45:06Z</time>
      </trkpt>
      <trkpt lat="-22.188748" lon="-45.312383">
        <ele>944.326</ele>
        <time>2019-10-16T16:45:09Z</time>
      </trkpt>
      <trkpt lat="-22.188802" lon="-45.312408">
        <ele>944.508</ele>
        <time>2019-10-16T16:45:14Z</time>
      </trkpt>
      <trkpt lat="-22.188853" lon="-45.312421">
        <ele>945.171</ele>
        <time>2019-10-16T16:45:16Z</time>
      </trkpt>
      <trkpt lat="-22.188905" lon="-45.312424">
        <ele>946.059</ele>
        <time>2019-10-16T16:45:19Z</time>
      </trkpt>
      <trkpt lat="-22.188961" lon="-45.312433">
        <ele>946.752</ele>
        <time>2019-10-16T16:45:23Z</time>
      </trkpt>
      <trkpt lat="-22.189029" lon="-45.312439">
        <ele>947.810</ele>
        <time>2019-10-16T16:45:28Z</time>
      </trkpt>
      <trkpt lat="-22.189090" lon="-45.312434">
        <ele>949.280</ele>
        <time>2019-10-16T16:45:31Z</time>
      </trkpt>
      <trkpt lat="-22.189145" lon="-45.312433">
        <ele>950.252</ele>
        <time>2019-10-16T16:45:34Z</time>
      </trkpt>
      <trkpt lat="-22.189204" lon="-45.312416">
        <ele>951.186</ele>
        <time>2019-10-16T16:45:39Z</time>
      </trkpt>
      <trkpt lat="-22.189260" lon="-45.312406">
        <ele>951.233</ele>
        <time>2019-10-16T16:45:42Z</time>
      </trkpt>
      <trkpt lat="-22.189311" lon="-45.312394">
        <ele>951.372</ele>
        <time>2019-10-16T16:45:45Z</time>
      </trkpt>
      <trkpt lat="-22.189364" lon="-45.312373">
        <ele>951.813</ele>
        <time>2019-10-16T16:45:48Z</time>
      </trkpt>
      <trkpt lat="-22.189429" lon="-45.312367">
        <ele>951.714</ele>
        <time>2019-10-16T16:45:51Z</time>
      </trkpt>
      <trkpt lat="-22.189480" lon="-45.312351">
        <ele>952.008</ele>
        <time>2019-10-16T16:45:55Z</time>
      </trkpt>
      <trkpt lat="-22.189541" lon="-45.312334">
        <ele>952.371</ele>
        <time>2019-10-16T16:45:59Z</time>
      </trkpt>
      <trkpt lat="-22.189593" lon="-45.312311">
        <ele>952.969</ele>
        <time>2019-10-16T16:46:01Z</time>
      </trkpt>
      <trkpt lat="-22.189655" lon="-45.312292">
        <ele>953.392</ele>
        <time>2019-10-16T16:46:04Z</time>
      </trkpt>
      <trkpt lat="-22.189714" lon="-45.312270">
        <ele>953.870</ele>
        <time>2019-10-16T16:46:08Z</time>
      </trkpt>
      <trkpt lat="-22.189760" lon="-45.312241">
        <ele>954.780</ele>
        <time>2019-10-16T16:46:10Z</time>
      </trkpt>
      <trkpt lat="-22.189801" lon="-45.312217">
        <ele>955.432</ele>
        <time>2019-10-16T16:46:13Z</time>
      </trkpt>
      <trkpt lat="-22.189850" lon="-45.312198">
        <ele>955.946</ele>
        <time>2019-10-16T16:46:16Z</time>
      </trkpt>
      <trkpt lat="-22.189896" lon="-45.312176">
        <ele>956.553</ele>
        <time>2019-10-16T16:46:20Z</time>
      </trkpt>
      <trkpt lat="-22.189946" lon="-45.312158">
        <ele>956.962</ele>
        <time>2019-10-16T16:46:22Z</time>
      </trkpt>
      <trkpt lat="-22.189992" lon="-45.312139">
        <ele>957.383</ele>
        <time>2019-10-16T16:46:24Z</time>
      </trkpt>
      <trkpt lat="-22.190038" lon="-45.312104">
        <ele>958.611</ele>
        <time>2019-10-16T16:46:28Z</time>
      </trkpt>
      <trkpt lat="-22.190076" lon="-45.312075">
        <ele>959.708</ele>
        <time>2019-10-16T16:46:31Z</time>
      </trkpt>
      <trkpt lat="-22.190124" lon="-45.312057">
        <ele>960.260</ele>
        <time>2019-10-16T16:46:34Z</time>
      </trkpt>
      <trkpt lat="-22.190195" lon="-45.312048">
        <ele>960.338</ele>
        <time>2019-10-16T16:46:38Z</time>
      </trkpt>
      <trkpt lat="-22.190253" lon="-45.312033">
        <ele>960.751</ele>
        <time>2019-10-16T16:46:43Z</time>
      </trkpt>
      <trkpt lat="-22.190301" lon="-45.312039">
        <ele>960.339</ele>
        <time>2019-10-16T16:46:45Z</time>
      </trkpt>
      <trkpt lat="-22.190371" lon="-45.312048">
        <ele>959.819</ele>
        <time>2019-10-16T16:46:49Z</time>
      </trkpt>
      <trkpt lat="-22.190418" lon="-45.312048">
        <ele>959.781</ele>
        <time>2019-10-16T16:46:52Z</time>
      </trkpt>
      <trkpt lat="-22.190465" lon="-45.312060">
        <ele>959.355</ele>
        <time>2019-10-16T16:46:55Z</time>
      </trkpt>
      <trkpt lat="-22.190543" lon="-45.312092">
        <ele>958.342</ele>
        <time>2019-10-16T16:47:00Z</time>
      </trkpt>
      <trkpt lat="-22.190589" lon="-45.312106">
        <ele>957.975</ele>
        <time>2019-10-16T16:47:03Z</time>
      </trkpt>
      <trkpt lat="-22.190633" lon="-45.312125">
        <ele>957.528</ele>
        <time>2019-10-16T16:47:07Z</time>
      </trkpt>
      <trkpt lat="-22.190703" lon="-45.312121">
        <ele>957.520</ele>
        <time>2019-10-16T16:47:12Z</time>
      </trkpt>
      <trkpt lat="-22.190750" lon="-45.312118">
        <ele>957.608</ele>
        <time>2019-10-16T16:47:14Z</time>
      </trkpt>
      <trkpt lat="-22.190809" lon="-45.312121">
        <ele>957.531</ele>
        <time>2019-10-16T16:47:19Z</time>
      </trkpt>
      <trkpt lat="-22.190866" lon="-45.312129">
        <ele>958.089</ele>
        <time>2019-10-16T16:47:23Z</time>
      </trkpt>
      <trkpt lat="-22.190917" lon="-45.312133">
        <ele>958.912</ele>
        <time>2019-10-16T16:47:26Z</time>
      </trkpt>
      <trkpt lat="-22.190965" lon="-45.312139">
        <ele>959.780</ele>
        <time>2019-10-16T16:47:30Z</time>
      </trkpt>
      <trkpt lat="-22.191011" lon="-45.312155">
        <ele>960.290</ele>
        <time>2019-10-16T16:47:33Z</time>
      </trkpt>
      <trkpt lat="-22.191058" lon="-45.312160">
        <ele>961.032</ele>
        <time>2019-10-16T16:47:35Z</time>
      </trkpt>
      <trkpt lat="-22.191103" lon="-45.312171">
        <ele>961.616</ele>
        <time>2019-10-16T16:47:38Z</time>
      </trkpt>
      <trkpt lat="-22.191160" lon="-45.312182">
        <ele>962.463</ele>
        <time>2019-10-16T16:47:42Z</time>
      </trkpt>
      <trkpt lat="-22.191206" lon="-45.312192">
        <ele>963.115</ele>
        <time>2019-10-16T16:47:46Z</time>
      </trkpt>
      <trkpt lat="-22.191249" lon="-45.312205">
        <ele>963.565</ele>
        <time>2019-10-16T16:47:50Z</time>
      </trkpt>
      <trkpt lat="-22.191295" lon="-45.312229">
        <ele>963.811</ele>
        <time>2019-10-16T16:47:56Z</time>
      </trkpt>
      <trkpt lat="-22.191344" lon="-45.312253">
        <ele>964.008</ele>
        <time>2019-10-16T16:48:02Z</time>
      </trkpt>
      <trkpt lat="-22.191386" lon="-45.312273">
        <ele>964.215</ele>
        <time>2019-10-16T16:48:05Z</time>
      </trkpt>
      <trkpt lat="-22.191450" lon="-45.312302">
        <ele>964.593</ele>
        <time>2019-10-16T16:48:07Z</time>
      </trkpt>
      <trkpt lat="-22.191534" lon="-45.312346">
        <ele>964.626</ele>
        <time>2019-10-16T16:48:13Z</time>
      </trkpt>
      <trkpt lat="-22.191640" lon="-45.312408">
        <ele>964.484</ele>
        <time>2019-10-16T16:48:19Z</time>
      </trkpt>
      <trkpt lat="-22.191704" lon="-45.312452">
        <ele>964.014</ele>
        <time>2019-10-16T16:48:22Z</time>
      </trkpt>
      <trkpt lat="-22.191753" lon="-45.312479">
        <ele>963.916</ele>
        <time>2019-10-16T16:48:25Z</time>
      </trkpt>
      <trkpt lat="-22.191809" lon="-45.312499">
        <ele>964.110</ele>
        <time>2019-10-16T16:48:26Z</time>
      </trkpt>
      <trkpt lat="-22.191859" lon="-45.312519">
        <ele>964.297</ele>
        <time>2019-10-16T16:48:28Z</time>
      </trkpt>
      <trkpt lat="-22.192046" lon="-45.312652">
        <ele>963.552</ele>
        <time>2019-10-16T16:48:33Z</time>
      </trkpt>
      <trkpt lat="-22.192064" lon="-45.312702">
        <ele>962.553</ele>
        <time>2019-10-16T16:49:19Z</time>
      </trkpt>
      <trkpt lat="-22.192105" lon="-45.312723">
        <ele>962.608</ele>
        <time>2019-10-16T16:49:22Z</time>
      </trkpt>
      <trkpt lat="-22.192153" lon="-45.312747">
        <ele>962.908</ele>
        <time>2019-10-16T16:54:18Z</time>
      </trkpt>
      <trkpt lat="-22.192213" lon="-45.312786">
        <ele>963.049</ele>
        <time>2019-10-16T16:54:23Z</time>
      </trkpt>
      <trkpt lat="-22.192268" lon="-45.312833">
        <ele>962.967</ele>
        <time>2019-10-16T16:54:26Z</time>
      </trkpt>
      <trkpt lat="-22.192321" lon="-45.312866">
        <ele>963.130</ele>
        <time>2019-10-16T16:54:28Z</time>
      </trkpt>
      <trkpt lat="-22.192359" lon="-45.312897">
        <ele>963.138</ele>
        <time>2019-10-16T16:54:30Z</time>
      </trkpt>
      <trkpt lat="-22.192420" lon="-45.312941">
        <ele>963.498</ele>
        <time>2019-10-16T16:54:34Z</time>
      </trkpt>
      <trkpt lat="-22.192467" lon="-45.312977">
        <ele>963.660</ele>
        <time>2019-10-16T16:54:37Z</time>
      </trkpt>
      <trkpt lat="-22.192545" lon="-45.313025">
        <ele>964.984</ele>
        <time>2019-10-16T16:54:40Z</time>
      </trkpt>
      <trkpt lat="-22.192598" lon="-45.313058">
        <ele>966.041</ele>
        <time>2019-10-16T16:54:43Z</time>
      </trkpt>
      <trkpt lat="-22.192638" lon="-45.313088">
        <ele>966.786</ele>
        <time>2019-10-16T16:54:45Z</time>
      </trkpt>
      <trkpt lat="-22.192728" lon="-45.313167">
        <ele>967.960</ele>
        <time>2019-10-16T16:54:51Z</time>
      </trkpt>
      <trkpt lat="-22.192770" lon="-45.313200">
        <ele>968.626</ele>
        <time>2019-10-16T16:54:53Z</time>
      </trkpt>
      <trkpt lat="-22.192805" lon="-45.313243">
        <ele>968.708</ele>
        <time>2019-10-16T16:54:54Z</time>
      </trkpt>
      <trkpt lat="-22.192835" lon="-45.313280">
        <ele>968.782</ele>
        <time>2019-10-16T16:54:56Z</time>
      </trkpt>
      <trkpt lat="-22.192877" lon="-45.313336">
        <ele>968.760</ele>
        <time>2019-10-16T16:54:58Z</time>
      </trkpt>
      <trkpt lat="-22.192917" lon="-45.313397">
        <ele>968.573</ele>
        <time>2019-10-16T16:55:00Z</time>
      </trkpt>
      <trkpt lat="-22.192941" lon="-45.313450">
        <ele>968.081</ele>
        <time>2019-10-16T16:55:02Z</time>
      </trkpt>
      <trkpt lat="-22.192964" lon="-45.313504">
        <ele>967.481</ele>
        <time>2019-10-16T16:55:04Z</time>
      </trkpt>
      <trkpt lat="-22.192981" lon="-45.313552">
        <ele>966.893</ele>
        <time>2019-10-16T16:55:06Z</time>
      </trkpt>
      <trkpt lat="-22.193008" lon="-45.313623">
        <ele>966.097</ele>
        <time>2019-10-16T16:55:09Z</time>
      </trkpt>
      <trkpt lat="-22.193031" lon="-45.313694">
        <ele>965.074</ele>
        <time>2019-10-16T16:55:12Z</time>
      </trkpt>
      <trkpt lat="-22.193053" lon="-45.313771">
        <ele>963.934</ele>
        <time>2019-10-16T16:55:15Z</time>
      </trkpt>
      <trkpt lat="-22.193075" lon="-45.313823">
        <ele>963.455</ele>
        <time>2019-10-16T16:55:17Z</time>
      </trkpt>
      <trkpt lat="-22.193084" lon="-45.313872">
        <ele>962.610</ele>
        <time>2019-10-16T16:55:19Z</time>
      </trkpt>
      <trkpt lat="-22.193106" lon="-45.313961">
        <ele>961.208</ele>
        <time>2019-10-16T16:55:22Z</time>
      </trkpt>
      <trkpt lat="-22.193133" lon="-45.314031">
        <ele>960.487</ele>
        <time>2019-10-16T16:55:25Z</time>
      </trkpt>
      <trkpt lat="-22.193163" lon="-45.314095">
        <ele>959.975</ele>
        <time>2019-10-16T16:55:29Z</time>
      </trkpt>
      <trkpt lat="-22.193191" lon="-45.314140">
        <ele>959.848</ele>
        <time>2019-10-16T16:55:31Z</time>
      </trkpt>
      <trkpt lat="-22.193225" lon="-45.314200">
        <ele>959.536</ele>
        <time>2019-10-16T16:55:34Z</time>
      </trkpt>
      <trkpt lat="-22.193252" lon="-45.314241">
        <ele>959.326</ele>
        <time>2019-10-16T16:55:36Z</time>
      </trkpt>
      <trkpt lat="-22.193284" lon="-45.314279">
        <ele>959.318</ele>
        <time>2019-10-16T16:55:38Z</time>
      </trkpt>
      <trkpt lat="-22.193337" lon="-45.314342">
        <ele>959.332</ele>
        <time>2019-10-16T16:55:42Z</time>
      </trkpt>
      <trkpt lat="-22.193374" lon="-45.314379">
        <ele>959.349</ele>
        <time>2019-10-16T16:55:44Z</time>
      </trkpt>
      <trkpt lat="-22.193425" lon="-45.314417">
        <ele>959.875</ele>
        <time>2019-10-16T16:55:48Z</time>
      </trkpt>
      <trkpt lat="-22.193465" lon="-45.314454">
        <ele>959.828</ele>
        <time>2019-10-16T16:55:50Z</time>
      </trkpt>
      <trkpt lat="-22.193514" lon="-45.314495">
        <ele>960.020</ele>
        <time>2019-10-16T16:55:53Z</time>
      </trkpt>
      <trkpt lat="-22.193572" lon="-45.314526">
        <ele>960.708</ele>
        <time>2019-10-16T16:55:57Z</time>
      </trkpt>
      <trkpt lat="-22.193617" lon="-45.314544">
        <ele>961.461</ele>
        <time>2019-10-16T16:55:59Z</time>
      </trkpt>
      <trkpt lat="-22.193667" lon="-45.314561">
        <ele>962.279</ele>
        <time>2019-10-16T16:56:03Z</time>
      </trkpt>
      <trkpt lat="-22.193726" lon="-45.314587">
        <ele>963.032</ele>
        <time>2019-10-16T16:56:10Z</time>
      </trkpt>
      <trkpt lat="-22.193840" lon="-45.314616">
        <ele>965.110</ele>
        <time>2019-10-16T16:56:19Z</time>
      </trkpt>
      <trkpt lat="-22.193886" lon="-45.314618">
        <ele>966.260</ele>
        <time>2019-10-16T16:56:21Z</time>
      </trkpt>
      <trkpt lat="-22.193993" lon="-45.314615">
        <ele>969.282</ele>
        <time>2019-10-16T16:56:29Z</time>
      </trkpt>
      <trkpt lat="-22.194063" lon="-45.314610">
        <ele>971.236</ele>
        <time>2019-10-16T16:56:34Z</time>
      </trkpt>
      <trkpt lat="-22.194156" lon="-45.314606">
        <ele>973.853</ele>
        <time>2019-10-16T16:56:42Z</time>
      </trkpt>
      <trkpt lat="-22.194203" lon="-45.314598">
        <ele>974.034</ele>
        <time>2019-10-16T16:56:49Z</time>
      </trkpt>
      <trkpt lat="-22.194280" lon="-45.314583">
        <ele>973.855</ele>
        <time>2019-10-16T16:57:00Z</time>
      </trkpt>
      <trkpt lat="-22.194335" lon="-45.314564">
        <ele>973.910</ele>
        <time>2019-10-16T16:57:06Z</time>
      </trkpt>
      <trkpt lat="-22.194388" lon="-45.314540">
        <ele>974.308</ele>
        <time>2019-10-16T16:57:10Z</time>
      </trkpt>
      <trkpt lat="-22.194441" lon="-45.314521">
        <ele>974.557</ele>
        <time>2019-10-16T16:57:13Z</time>
      </trkpt>
      <trkpt lat="-22.194520" lon="-45.314494">
        <ele>974.775</ele>
        <time>2019-10-16T16:57:15Z</time>
      </trkpt>
      <trkpt lat="-22.194572" lon="-45.314474">
        <ele>974.948</ele>
        <time>2019-10-16T16:57:20Z</time>
      </trkpt>
      <trkpt lat="-22.194616" lon="-45.314440">
        <ele>975.846</ele>
        <time>2019-10-16T16:57:23Z</time>
      </trkpt>
      <trkpt lat="-22.194653" lon="-45.314407">
        <ele>976.866</ele>
        <time>2019-10-16T16:57:26Z</time>
      </trkpt>
      <trkpt lat="-22.194700" lon="-45.314374">
        <ele>977.628</ele>
        <time>2019-10-16T16:57:32Z</time>
      </trkpt>
      <trkpt lat="-22.194760" lon="-45.314344">
        <ele>978.292</ele>
        <time>2019-10-16T16:57:40Z</time>
      </trkpt>
      <trkpt lat="-22.194872" lon="-45.314281">
        <ele>979.629</ele>
        <time>2019-10-16T16:57:47Z</time>
      </trkpt>
      <trkpt lat="-22.194914" lon="-45.314263">
        <ele>979.924</ele>
        <time>2019-10-16T16:57:49Z</time>
      </trkpt>
      <trkpt lat="-22.194958" lon="-45.314250">
        <ele>980.004</ele>
        <time>2019-10-16T16:57:53Z</time>
      </trkpt>
      <trkpt lat="-22.195002" lon="-45.314236">
        <ele>980.214</ele>
        <time>2019-10-16T16:57:58Z</time>
      </trkpt>
      <trkpt lat="-22.195046" lon="-45.314216">
        <ele>980.708</ele>
        <time>2019-10-16T16:58:03Z</time>
      </trkpt>
      <trkpt lat="-22.195085" lon="-45.314191">
        <ele>981.416</ele>
        <time>2019-10-16T16:58:06Z</time>
      </trkpt>
      <trkpt lat="-22.195152" lon="-45.314158">
        <ele>982.384</ele>
        <time>2019-10-16T16:58:09Z</time>
      </trkpt>
      <trkpt lat="-22.195200" lon="-45.314143">
        <ele>982.617</ele>
        <time>2019-10-16T16:58:12Z</time>
      </trkpt>
      <trkpt lat="-22.195249" lon="-45.314119">
        <ele>983.325</ele>
        <time>2019-10-16T16:58:15Z</time>
      </trkpt>
      <trkpt lat="-22.195314" lon="-45.314102">
        <ele>983.555</ele>
        <time>2019-10-16T16:58:19Z</time>
      </trkpt>
      <trkpt lat="-22.195368" lon="-45.314090">
        <ele>983.637</ele>
        <time>2019-10-16T16:58:22Z</time>
      </trkpt>
      <trkpt lat="-22.195421" lon="-45.314077">
        <ele>983.831</ele>
        <time>2019-10-16T16:58:25Z</time>
      </trkpt>
      <trkpt lat="-22.195492" lon="-45.314060">
        <ele>983.948</ele>
        <time>2019-10-16T16:58:29Z</time>
      </trkpt>
      <trkpt lat="-22.195537" lon="-45.314046">
        <ele>984.262</ele>
        <time>2019-10-16T16:58:32Z</time>
      </trkpt>
      <trkpt lat="-22.195634" lon="-45.314014">
        <ele>984.783</ele>
        <time>2019-10-16T16:58:38Z</time>
      </trkpt>
      <trkpt lat="-22.195717" lon="-45.313976">
        <ele>985.511</ele>
        <time>2019-10-16T16:58:43Z</time>
      </trkpt>
      <trkpt lat="-22.195775" lon="-45.313961">
        <ele>985.708</ele>
        <time>2019-10-16T16:58:46Z</time>
      </trkpt>
      <trkpt lat="-22.195823" lon="-45.313952">
        <ele>985.690</ele>
        <time>2019-10-16T16:58:49Z</time>
      </trkpt>
      <trkpt lat="-22.195867" lon="-45.313938">
        <ele>986.258</ele>
        <time>2019-10-16T16:58:53Z</time>
      </trkpt>
      <trkpt lat="-22.195929" lon="-45.313922">
        <ele>987.131</ele>
        <time>2019-10-16T16:58:57Z</time>
      </trkpt>
      <trkpt lat="-22.195984" lon="-45.313898">
        <ele>988.389</ele>
        <time>2019-10-16T16:59:01Z</time>
      </trkpt>
      <trkpt lat="-22.196031" lon="-45.313876">
        <ele>989.369</ele>
        <time>2019-10-16T16:59:04Z</time>
      </trkpt>
      <trkpt lat="-22.196077" lon="-45.313857">
        <ele>990.231</ele>
        <time>2019-10-16T16:59:08Z</time>
      </trkpt>
      <trkpt lat="-22.196132" lon="-45.313847">
        <ele>990.825</ele>
        <time>2019-10-16T16:59:12Z</time>
      </trkpt>
      <trkpt lat="-22.196197" lon="-45.313811">
        <ele>992.352</ele>
        <time>2019-10-16T16:59:18Z</time>
      </trkpt>
      <trkpt lat="-22.196250" lon="-45.313790">
        <ele>993.375</ele>
        <time>2019-10-16T16:59:21Z</time>
      </trkpt>
      <trkpt lat="-22.196315" lon="-45.313756">
        <ele>994.728</ele>
        <time>2019-10-16T16:59:26Z</time>
      </trkpt>
      <trkpt lat="-22.196382" lon="-45.313722">
        <ele>996.120</ele>
        <time>2019-10-16T16:59:32Z</time>
      </trkpt>
      <trkpt lat="-22.196430" lon="-45.313696">
        <ele>997.208</ele>
        <time>2019-10-16T16:59:40Z</time>
      </trkpt>
      <trkpt lat="-22.196490" lon="-45.313651">
        <ele>998.981</ele>
        <time>2019-10-16T16:59:49Z</time>
      </trkpt>
      <trkpt lat="-22.196541" lon="-45.313609">
        <ele>1000.599</ele>
        <time>2019-10-16T16:59:55Z</time>
      </trkpt>
      <trkpt lat="-22.196597" lon="-45.313563">
        <ele>1002.232</ele>
        <time>2019-10-16T17:00:01Z</time>
      </trkpt>
      <trkpt lat="-22.196684" lon="-45.313498">
        <ele>1004.230</ele>
        <time>2019-10-16T17:00:12Z</time>
      </trkpt>
      <trkpt lat="-22.196737" lon="-45.313461">
        <ele>1004.590</ele>
        <time>2019-10-16T17:00:18Z</time>
      </trkpt>
      <trkpt lat="-22.196774" lon="-45.313428">
        <ele>1004.992</ele>
        <time>2019-10-16T17:00:23Z</time>
      </trkpt>
      <trkpt lat="-22.196814" lon="-45.313385">
        <ele>1005.596</ele>
        <time>2019-10-16T17:00:27Z</time>
      </trkpt>
      <trkpt lat="-22.196848" lon="-45.313331">
        <ele>1006.653</ele>
        <time>2019-10-16T17:00:33Z</time>
      </trkpt>
      <trkpt lat="-22.196899" lon="-45.313262">
        <ele>1007.166</ele>
        <time>2019-10-16T17:00:41Z</time>
      </trkpt>
      <trkpt lat="-22.196936" lon="-45.313217">
        <ele>1007.429</ele>
        <time>2019-10-16T17:00:47Z</time>
      </trkpt>
      <trkpt lat="-22.196962" lon="-45.313175">
        <ele>1007.921</ele>
        <time>2019-10-16T17:00:51Z</time>
      </trkpt>
      <trkpt lat="-22.197000" lon="-45.313117">
        <ele>1008.508</ele>
        <time>2019-10-16T17:00:57Z</time>
      </trkpt>
      <trkpt lat="-22.197027" lon="-45.313076">
        <ele>1008.910</ele>
        <time>2019-10-16T17:01:00Z</time>
      </trkpt>
      <trkpt lat="-22.197059" lon="-45.313032">
        <ele>1009.338</ele>
        <time>2019-10-16T17:01:04Z</time>
      </trkpt>
      <trkpt lat="-22.197118" lon="-45.312936">
        <ele>1010.491</ele>
        <time>2019-10-16T17:01:15Z</time>
      </trkpt>
      <trkpt lat="-22.197147" lon="-45.312884">
        <ele>1011.119</ele>
        <time>2019-10-16T17:01:19Z</time>
      </trkpt>
      <trkpt lat="-22.197177" lon="-45.312827">
        <ele>1011.959</ele>
        <time>2019-10-16T17:01:24Z</time>
      </trkpt>
      <trkpt lat="-22.197190" lon="-45.312780">
        <ele>1012.711</ele>
        <time>2019-10-16T17:01:27Z</time>
      </trkpt>
      <trkpt lat="-22.197209" lon="-45.312733">
        <ele>1013.515</ele>
        <time>2019-10-16T17:01:31Z</time>
      </trkpt>
      <trkpt lat="-22.197224" lon="-45.312674">
        <ele>1014.612</ele>
        <time>2019-10-16T17:01:35Z</time>
      </trkpt>
      <trkpt lat="-22.197247" lon="-45.312612">
        <ele>1015.694</ele>
        <time>2019-10-16T17:01:40Z</time>
      </trkpt>
      <trkpt lat="-22.197275" lon="-45.312495">
        <ele>1017.857</ele>
        <time>2019-10-16T17:01:43Z</time>
      </trkpt>
      <trkpt lat="-22.197294" lon="-45.312427">
        <ele>1017.422</ele>
        <time>2019-10-16T17:01:46Z</time>
      </trkpt>
      <trkpt lat="-22.197309" lon="-45.312375">
        <ele>1017.208</ele>
        <time>2019-10-16T17:01:47Z</time>
      </trkpt>
      <trkpt lat="-22.197353" lon="-45.312289">
        <ele>1016.553</ele>
        <time>2019-10-16T17:01:51Z</time>
      </trkpt>
      <trkpt lat="-22.197375" lon="-45.312243">
        <ele>1016.191</ele>
        <time>2019-10-16T17:01:53Z</time>
      </trkpt>
      <trkpt lat="-22.197427" lon="-45.312184">
        <ele>1015.484</ele>
        <time>2019-10-16T17:01:58Z</time>
      </trkpt>
      <trkpt lat="-22.197460" lon="-45.312105">
        <ele>1015.072</ele>
        <time>2019-10-16T17:02:02Z</time>
      </trkpt>
      <trkpt lat="-22.197485" lon="-45.312059">
        <ele>1014.712</ele>
        <time>2019-10-16T17:02:05Z</time>
      </trkpt>
      <trkpt lat="-22.197515" lon="-45.312015">
        <ele>1015.024</ele>
        <time>2019-10-16T17:02:09Z</time>
      </trkpt>
      <trkpt lat="-22.197551" lon="-45.311964">
        <ele>1016.028</ele>
        <time>2019-10-16T17:02:15Z</time>
      </trkpt>
      <trkpt lat="-22.197576" lon="-45.311914">
        <ele>1016.875</ele>
        <time>2019-10-16T17:02:18Z</time>
      </trkpt>
      <trkpt lat="-22.197606" lon="-45.311844">
        <ele>1017.931</ele>
        <time>2019-10-16T17:02:20Z</time>
      </trkpt>
      <trkpt lat="-22.197633" lon="-45.311764">
        <ele>1019.061</ele>
        <time>2019-10-16T17:02:24Z</time>
      </trkpt>
      <trkpt lat="-22.197663" lon="-45.311707">
        <ele>1020.107</ele>
        <time>2019-10-16T17:02:27Z</time>
      </trkpt>
      <trkpt lat="-22.197697" lon="-45.311617">
        <ele>1021.208</ele>
        <time>2019-10-16T17:02:31Z</time>
      </trkpt>
      <trkpt lat="-22.197755" lon="-45.311503">
        <ele>1022.417</ele>
        <time>2019-10-16T17:02:39Z</time>
      </trkpt>
      <trkpt lat="-22.197790" lon="-45.311432">
        <ele>1023.045</ele>
        <time>2019-10-16T17:02:42Z</time>
      </trkpt>
      <trkpt lat="-22.197824" lon="-45.311367">
        <ele>1023.718</ele>
        <time>2019-10-16T17:02:47Z</time>
      </trkpt>
      <trkpt lat="-22.197856" lon="-45.311321">
        <ele>1024.326</ele>
        <time>2019-10-16T17:02:49Z</time>
      </trkpt>
      <trkpt lat="-22.197916" lon="-45.311213">
        <ele>1025.276</ele>
        <time>2019-10-16T17:02:57Z</time>
      </trkpt>
      <trkpt lat="-22.197947" lon="-45.311171">
        <ele>1025.778</ele>
        <time>2019-10-16T17:03:02Z</time>
      </trkpt>
      <trkpt lat="-22.197977" lon="-45.311134">
        <ele>1026.282</ele>
        <time>2019-10-16T17:03:04Z</time>
      </trkpt>
      <trkpt lat="-22.198019" lon="-45.311066">
        <ele>1026.899</ele>
        <time>2019-10-16T17:03:08Z</time>
      </trkpt>
      <trkpt lat="-22.198046" lon="-45.311004">
        <ele>1026.999</ele>
        <time>2019-10-16T17:03:12Z</time>
      </trkpt>
      <trkpt lat="-22.198069" lon="-45.310961">
        <ele>1027.107</ele>
        <time>2019-10-16T17:03:14Z</time>
      </trkpt>
      <trkpt lat="-22.198113" lon="-45.310901">
        <ele>1027.627</ele>
        <time>2019-10-16T17:03:17Z</time>
      </trkpt>
      <trkpt lat="-22.198142" lon="-45.310856">
        <ele>1027.908</ele>
        <time>2019-10-16T17:03:20Z</time>
      </trkpt>
      <trkpt lat="-22.198163" lon="-45.310812">
        <ele>1027.843</ele>
        <time>2019-10-16T17:03:23Z</time>
      </trkpt>
      <trkpt lat="-22.198203" lon="-45.310744">
        <ele>1027.831</ele>
        <time>2019-10-16T17:03:27Z</time>
      </trkpt>
      <trkpt lat="-22.198261" lon="-45.310673">
        <ele>1028.054</ele>
        <time>2019-10-16T17:03:32Z</time>
      </trkpt>
      <trkpt lat="-22.198301" lon="-45.310616">
        <ele>1028.062</ele>
        <time>2019-10-16T17:03:37Z</time>
      </trkpt>
      <trkpt lat="-22.198327" lon="-45.310550">
        <ele>1027.522</ele>
        <time>2019-10-16T17:03:40Z</time>
      </trkpt>
      <trkpt lat="-22.198353" lon="-45.310500">
        <ele>1027.174</ele>
        <time>2019-10-16T17:03:42Z</time>
      </trkpt>
      <trkpt lat="-22.198374" lon="-45.310447">
        <ele>1026.688</ele>
        <time>2019-10-16T17:03:46Z</time>
      </trkpt>
      <trkpt lat="-22.198405" lon="-45.310401">
        <ele>1026.415</ele>
        <time>2019-10-16T17:03:51Z</time>
      </trkpt>
      <trkpt lat="-22.198436" lon="-45.310349">
        <ele>1026.147</ele>
        <time>2019-10-16T17:03:56Z</time>
      </trkpt>
      <trkpt lat="-22.198463" lon="-45.310278">
        <ele>1025.329</ele>
        <time>2019-10-16T17:03:58Z</time>
      </trkpt>
      <trkpt lat="-22.198483" lon="-45.310226">
        <ele>1024.721</ele>
        <time>2019-10-16T17:04:01Z</time>
      </trkpt>
      <trkpt lat="-22.198498" lon="-45.310164">
        <ele>1023.908</ele>
        <time>2019-10-16T17:04:04Z</time>
      </trkpt>
      <trkpt lat="-22.198513" lon="-45.310096">
        <ele>1023.028</ele>
        <time>2019-10-16T17:04:07Z</time>
      </trkpt>
      <trkpt lat="-22.198520" lon="-45.309998">
        <ele>1021.586</ele>
        <time>2019-10-16T17:04:11Z</time>
      </trkpt>
      <trkpt lat="-22.198523" lon="-45.309944">
        <ele>1022.479</ele>
        <time>2019-10-16T17:04:14Z</time>
      </trkpt>
      <trkpt lat="-22.198528" lon="-45.309890">
        <ele>1023.397</ele>
        <time>2019-10-16T17:04:18Z</time>
      </trkpt>
      <trkpt lat="-22.198530" lon="-45.309824">
        <ele>1024.457</ele>
        <time>2019-10-16T17:04:23Z</time>
      </trkpt>
      <trkpt lat="-22.198529" lon="-45.309767">
        <ele>1025.319</ele>
        <time>2019-10-16T17:04:27Z</time>
      </trkpt>
      <trkpt lat="-22.198517" lon="-45.309706">
        <ele>1026.113</ele>
        <time>2019-10-16T17:04:31Z</time>
      </trkpt>
      <trkpt lat="-22.198504" lon="-45.309634">
        <ele>1027.050</ele>
        <time>2019-10-16T17:04:33Z</time>
      </trkpt>
      <trkpt lat="-22.198496" lon="-45.309583">
        <ele>1027.641</ele>
        <time>2019-10-16T17:04:35Z</time>
      </trkpt>
      <trkpt lat="-22.198490" lon="-45.309532">
        <ele>1028.381</ele>
        <time>2019-10-16T17:04:39Z</time>
      </trkpt>
      <trkpt lat="-22.198474" lon="-45.309476">
        <ele>1028.809</ele>
        <time>2019-10-16T17:04:42Z</time>
      </trkpt>
      <trkpt lat="-22.198464" lon="-45.309427">
        <ele>1029.408</ele>
        <time>2019-10-16T17:04:47Z</time>
      </trkpt>
      <trkpt lat="-22.198444" lon="-45.309367">
        <ele>1029.838</ele>
        <time>2019-10-16T17:04:55Z</time>
      </trkpt>
      <trkpt lat="-22.198424" lon="-45.309314">
        <ele>1030.176</ele>
        <time>2019-10-16T17:05:01Z</time>
      </trkpt>
      <trkpt lat="-22.198400" lon="-45.309255">
        <ele>1030.469</ele>
        <time>2019-10-16T17:05:06Z</time>
      </trkpt>
      <trkpt lat="-22.198376" lon="-45.309212">
        <ele>1030.477</ele>
        <time>2019-10-16T17:05:10Z</time>
      </trkpt>
      <trkpt lat="-22.198357" lon="-45.309167">
        <ele>1030.687</ele>
        <time>2019-10-16T17:05:14Z</time>
      </trkpt>
      <trkpt lat="-22.198325" lon="-45.309087">
        <ele>1031.529</ele>
        <time>2019-10-16T17:05:18Z</time>
      </trkpt>
      <trkpt lat="-22.198282" lon="-45.308997">
        <ele>1032.613</ele>
        <time>2019-10-16T17:05:21Z</time>
      </trkpt>
      <trkpt lat="-22.198258" lon="-45.308947">
        <ele>1033.110</ele>
        <time>2019-10-16T17:05:25Z</time>
      </trkpt>
      <trkpt lat="-22.198224" lon="-45.308910">
        <ele>1033.297</ele>
        <time>2019-10-16T17:05:27Z</time>
      </trkpt>
      <trkpt lat="-22.198191" lon="-45.308855">
        <ele>1033.623</ele>
        <time>2019-10-16T17:05:31Z</time>
      </trkpt>
      <trkpt lat="-22.198167" lon="-45.308809">
        <ele>1034.025</ele>
        <time>2019-10-16T17:05:34Z</time>
      </trkpt>
      <trkpt lat="-22.198127" lon="-45.308754">
        <ele>1034.208</ele>
        <time>2019-10-16T17:05:38Z</time>
      </trkpt>
      <trkpt lat="-22.198096" lon="-45.308705">
        <ele>1034.583</ele>
        <time>2019-10-16T17:05:41Z</time>
      </trkpt>
      <trkpt lat="-22.198060" lon="-45.308651">
        <ele>1034.611</ele>
        <time>2019-10-16T17:05:45Z</time>
      </trkpt>
      <trkpt lat="-22.198028" lon="-45.308596">
        <ele>1034.924</ele>
        <time>2019-10-16T17:05:48Z</time>
      </trkpt>
      <trkpt lat="-22.198000" lon="-45.308545">
        <ele>1035.172</ele>
        <time>2019-10-16T17:05:51Z</time>
      </trkpt>
      <trkpt lat="-22.197964" lon="-45.308480">
        <ele>1035.342</ele>
        <time>2019-10-16T17:05:55Z</time>
      </trkpt>
      <trkpt lat="-22.197936" lon="-45.308434">
        <ele>1035.414</ele>
        <time>2019-10-16T17:05:57Z</time>
      </trkpt>
      <trkpt lat="-22.197897" lon="-45.308373">
        <ele>1035.488</ele>
        <time>2019-10-16T17:06:02Z</time>
      </trkpt>
      <trkpt lat="-22.197871" lon="-45.308327">
        <ele>1035.435</ele>
        <time>2019-10-16T17:06:05Z</time>
      </trkpt>
      <trkpt lat="-22.197844" lon="-45.308277">
        <ele>1035.248</ele>
        <time>2019-10-16T17:06:08Z</time>
      </trkpt>
      <trkpt lat="-22.197821" lon="-45.308223">
        <ele>1035.161</ele>
        <time>2019-10-16T17:06:13Z</time>
      </trkpt>
      <trkpt lat="-22.197803" lon="-45.308170">
        <ele>1035.217</ele>
        <time>2019-10-16T17:06:17Z</time>
      </trkpt>
      <trkpt lat="-22.197794" lon="-45.308117">
        <ele>1035.408</ele>
        <time>2019-10-16T17:06:21Z</time>
      </trkpt>
      <trkpt lat="-22.197782" lon="-45.308052">
        <ele>1035.738</ele>
        <time>2019-10-16T17:06:23Z</time>
      </trkpt>
      <trkpt lat="-22.197765" lon="-45.307992">
        <ele>1035.886</ele>
        <time>2019-10-16T17:06:26Z</time>
      </trkpt>
      <trkpt lat="-22.197755" lon="-45.307925">
        <ele>1036.179</ele>
        <time>2019-10-16T17:06:29Z</time>
      </trkpt>
      <trkpt lat="-22.197745" lon="-45.307859">
        <ele>1036.497</ele>
        <time>2019-10-16T17:06:33Z</time>
      </trkpt>
      <trkpt lat="-22.197737" lon="-45.307799">
        <ele>1036.797</ele>
        <time>2019-10-16T17:06:37Z</time>
      </trkpt>
      <trkpt lat="-22.197731" lon="-45.307743">
        <ele>1037.199</ele>
        <time>2019-10-16T17:06:40Z</time>
      </trkpt>
      <trkpt lat="-22.197727" lon="-45.307678">
        <ele>1037.563</ele>
        <time>2019-10-16T17:06:45Z</time>
      </trkpt>
      <trkpt lat="-22.197729" lon="-45.307626">
        <ele>1038.010</ele>
        <time>2019-10-16T17:06:49Z</time>
      </trkpt>
      <trkpt lat="-22.197738" lon="-45.307575">
        <ele>1038.827</ele>
        <time>2019-10-16T17:06:52Z</time>
      </trkpt>
      <trkpt lat="-22.197752" lon="-45.307526">
        <ele>1039.668</ele>
        <time>2019-10-16T17:06:55Z</time>
      </trkpt>
      <trkpt lat="-22.197760" lon="-45.307459">
        <ele>1040.314</ele>
        <time>2019-10-16T17:07:01Z</time>
      </trkpt>
      <trkpt lat="-22.197756" lon="-45.307401">
        <ele>1040.408</ele>
        <time>2019-10-16T17:07:05Z</time>
      </trkpt>
      <trkpt lat="-22.197767" lon="-45.307346">
        <ele>1040.936</ele>
        <time>2019-10-16T17:07:07Z</time>
      </trkpt>
      <trkpt lat="-22.197785" lon="-45.307283">
        <ele>1041.854</ele>
        <time>2019-10-16T17:07:15Z</time>
      </trkpt>
      <trkpt lat="-22.197800" lon="-45.307230">
        <ele>1042.427</ele>
        <time>2019-10-16T17:07:20Z</time>
      </trkpt>
      <trkpt lat="-22.197819" lon="-45.307160">
        <ele>1043.315</ele>
        <time>2019-10-16T17:07:23Z</time>
      </trkpt>
      <trkpt lat="-22.197839" lon="-45.307112">
        <ele>1044.215</ele>
        <time>2019-10-16T17:07:27Z</time>
      </trkpt>
      <trkpt lat="-22.197862" lon="-45.307068">
        <ele>1045.197</ele>
        <time>2019-10-16T17:07:32Z</time>
      </trkpt>
      <trkpt lat="-22.197884" lon="-45.307022">
        <ele>1046.071</ele>
        <time>2019-10-16T17:07:37Z</time>
      </trkpt>
      <trkpt lat="-22.197909" lon="-45.306975">
        <ele>1047.088</ele>
        <time>2019-10-16T17:07:42Z</time>
      </trkpt>
      <trkpt lat="-22.197941" lon="-45.306918">
        <ele>1048.293</ele>
        <time>2019-10-16T17:07:48Z</time>
      </trkpt>
      <trkpt lat="-22.197986" lon="-45.306858">
        <ele>1049.965</ele>
        <time>2019-10-16T17:07:51Z</time>
      </trkpt>
      <trkpt lat="-22.198021" lon="-45.306814">
        <ele>1051.221</ele>
        <time>2019-10-16T17:07:53Z</time>
      </trkpt>
      <trkpt lat="-22.198062" lon="-45.306760">
        <ele>1052.808</ele>
        <time>2019-10-16T17:07:58Z</time>
      </trkpt>
      <trkpt lat="-22.198113" lon="-45.306698">
        <ele>1054.713</ele>
        <time>2019-10-16T17:08:02Z</time>
      </trkpt>
      <trkpt lat="-22.198140" lon="-45.306656">
        <ele>1055.691</ele>
        <time>2019-10-16T17:08:05Z</time>
      </trkpt>
      <trkpt lat="-22.198200" lon="-45.306552">
        <ele>1056.314</ele>
        <time>2019-10-16T17:08:13Z</time>
      </trkpt>
      <trkpt lat="-22.198229" lon="-45.306510">
        <ele>1056.732</ele>
        <time>2019-10-16T17:08:16Z</time>
      </trkpt>
      <trkpt lat="-22.198267" lon="-45.306457">
        <ele>1057.242</ele>
        <time>2019-10-16T17:08:20Z</time>
      </trkpt>
      <trkpt lat="-22.198322" lon="-45.306386">
        <ele>1058.084</ele>
        <time>2019-10-16T17:08:25Z</time>
      </trkpt>
      <trkpt lat="-22.198352" lon="-45.306347">
        <ele>1058.528</ele>
        <time>2019-10-16T17:08:28Z</time>
      </trkpt>
      <trkpt lat="-22.198380" lon="-45.306304">
        <ele>1059.015</ele>
        <time>2019-10-16T17:08:31Z</time>
      </trkpt>
      <trkpt lat="-22.198430" lon="-45.306244">
        <ele>1060.119</ele>
        <time>2019-10-16T17:08:36Z</time>
      </trkpt>
      <trkpt lat="-22.198473" lon="-45.306185">
        <ele>1061.009</ele>
        <time>2019-10-16T17:08:40Z</time>
      </trkpt>
      <trkpt lat="-22.198514" lon="-45.306131">
        <ele>1061.919</ele>
        <time>2019-10-16T17:08:43Z</time>
      </trkpt>
      <trkpt lat="-22.198542" lon="-45.306087">
        <ele>1062.508</ele>
        <time>2019-10-16T17:08:46Z</time>
      </trkpt>
      <trkpt lat="-22.198579" lon="-45.306037">
        <ele>1063.465</ele>
        <time>2019-10-16T17:08:50Z</time>
      </trkpt>
      <trkpt lat="-22.198598" lon="-45.305991">
        <ele>1063.683</ele>
        <time>2019-10-16T17:08:52Z</time>
      </trkpt>
      <trkpt lat="-22.198633" lon="-45.305942">
        <ele>1064.446</ele>
        <time>2019-10-16T17:08:57Z</time>
      </trkpt>
      <trkpt lat="-22.198650" lon="-45.305894">
        <ele>1064.674</ele>
        <time>2019-10-16T17:09:00Z</time>
      </trkpt>
      <trkpt lat="-22.198685" lon="-45.305842">
        <ele>1065.454</ele>
        <time>2019-10-16T17:09:04Z</time>
      </trkpt>
      <trkpt lat="-22.198711" lon="-45.305790">
        <ele>1066.266</ele>
        <time>2019-10-16T17:09:08Z</time>
      </trkpt>
      <trkpt lat="-22.198735" lon="-45.305727">
        <ele>1066.760</ele>
        <time>2019-10-16T17:09:12Z</time>
      </trkpt>
      <trkpt lat="-22.198753" lon="-45.305678">
        <ele>1067.197</ele>
        <time>2019-10-16T17:09:15Z</time>
      </trkpt>
      <trkpt lat="-22.198763" lon="-45.305629">
        <ele>1067.194</ele>
        <time>2019-10-16T17:09:18Z</time>
      </trkpt>
      <trkpt lat="-22.198783" lon="-45.305580">
        <ele>1067.557</ele>
        <time>2019-10-16T17:09:22Z</time>
      </trkpt>
      <trkpt lat="-22.198801" lon="-45.305519">
        <ele>1067.822</ele>
        <time>2019-10-16T17:09:25Z</time>
      </trkpt>
      <trkpt lat="-22.198815" lon="-45.305461">
        <ele>1067.808</ele>
        <time>2019-10-16T17:09:28Z</time>
      </trkpt>
      <trkpt lat="-22.198842" lon="-45.305405">
        <ele>1068.393</ele>
        <time>2019-10-16T17:09:32Z</time>
      </trkpt>
      <trkpt lat="-22.198862" lon="-45.305345">
        <ele>1068.571</ele>
        <time>2019-10-16T17:09:35Z</time>
      </trkpt>
      <trkpt lat="-22.198874" lon="-45.305297">
        <ele>1068.544</ele>
        <time>2019-10-16T17:09:38Z</time>
      </trkpt>
      <trkpt lat="-22.198889" lon="-45.305246">
        <ele>1068.532</ele>
        <time>2019-10-16T17:09:41Z</time>
      </trkpt>
      <trkpt lat="-22.198905" lon="-45.305194">
        <ele>1068.572</ele>
        <time>2019-10-16T17:09:45Z</time>
      </trkpt>
      <trkpt lat="-22.198921" lon="-45.305141">
        <ele>1068.554</ele>
        <time>2019-10-16T17:09:47Z</time>
      </trkpt>
      <trkpt lat="-22.198943" lon="-45.305098">
        <ele>1068.818</ele>
        <time>2019-10-16T17:09:50Z</time>
      </trkpt>
      <trkpt lat="-22.198970" lon="-45.305034">
        <ele>1068.995</ele>
        <time>2019-10-16T17:09:54Z</time>
      </trkpt>
      <trkpt lat="-22.198999" lon="-45.304982">
        <ele>1069.354</ele>
        <time>2019-10-16T17:09:57Z</time>
      </trkpt>
      <trkpt lat="-22.199021" lon="-45.304929">
        <ele>1069.556</ele>
        <time>2019-10-16T17:10:00Z</time>
      </trkpt>
      <trkpt lat="-22.199043" lon="-45.304876">
        <ele>1069.811</ele>
        <time>2019-10-16T17:10:03Z</time>
      </trkpt>
      <trkpt lat="-22.199071" lon="-45.304833">
        <ele>1070.308</ele>
        <time>2019-10-16T17:10:06Z</time>
      </trkpt>
      <trkpt lat="-22.199104" lon="-45.304762">
        <ele>1070.789</ele>
        <time>2019-10-16T17:10:11Z</time>
      </trkpt>
      <trkpt lat="-22.199136" lon="-45.304711">
        <ele>1071.127</ele>
        <time>2019-10-16T17:10:14Z</time>
      </trkpt>
      <trkpt lat="-22.199169" lon="-45.304663">
        <ele>1071.610</ele>
        <time>2019-10-16T17:10:17Z</time>
      </trkpt>
      <trkpt lat="-22.199202" lon="-45.304604">
        <ele>1072.118</ele>
        <time>2019-10-16T17:10:21Z</time>
      </trkpt>
      <trkpt lat="-22.199237" lon="-45.304549">
        <ele>1072.738</ele>
        <time>2019-10-16T17:10:25Z</time>
      </trkpt>
      <trkpt lat="-22.199266" lon="-45.304503">
        <ele>1073.030</ele>
        <time>2019-10-16T17:10:28Z</time>
      </trkpt>
      <trkpt lat="-22.199313" lon="-45.304454">
        <ele>1073.894</ele>
        <time>2019-10-16T17:10:33Z</time>
      </trkpt>
      <trkpt lat="-22.199337" lon="-45.304412">
        <ele>1074.041</ele>
        <time>2019-10-16T17:10:35Z</time>
      </trkpt>
      <trkpt lat="-22.199365" lon="-45.304362">
        <ele>1074.229</ele>
        <time>2019-10-16T17:10:39Z</time>
      </trkpt>
      <trkpt lat="-22.199390" lon="-45.304313">
        <ele>1074.300</ele>
        <time>2019-10-16T17:10:42Z</time>
      </trkpt>
      <trkpt lat="-22.199415" lon="-45.304263">
        <ele>1074.420</ele>
        <time>2019-10-16T17:10:45Z</time>
      </trkpt>
      <trkpt lat="-22.199447" lon="-45.304209">
        <ele>1074.508</ele>
        <time>2019-10-16T17:10:48Z</time>
      </trkpt>
      <trkpt lat="-22.199475" lon="-45.304171">
        <ele>1074.716</ele>
        <time>2019-10-16T17:10:52Z</time>
      </trkpt>
      <trkpt lat="-22.199486" lon="-45.304118">
        <ele>1075.024</ele>
        <time>2019-10-16T17:10:54Z</time>
      </trkpt>
      <trkpt lat="-22.199519" lon="-45.304053">
        <ele>1075.997</ele>
        <time>2019-10-16T17:10:59Z</time>
      </trkpt>
      <trkpt lat="-22.199541" lon="-45.303994">
        <ele>1076.535</ele>
        <time>2019-10-16T17:11:03Z</time>
      </trkpt>
      <trkpt lat="-22.199561" lon="-45.303941">
        <ele>1077.135</ele>
        <time>2019-10-16T17:11:07Z</time>
      </trkpt>
      <trkpt lat="-22.199581" lon="-45.303894">
        <ele>1077.667</ele>
        <time>2019-10-16T17:11:10Z</time>
      </trkpt>
      <trkpt lat="-22.199589" lon="-45.303839">
        <ele>1077.931</ele>
        <time>2019-10-16T17:11:12Z</time>
      </trkpt>
      <trkpt lat="-22.199602" lon="-45.303784">
        <ele>1078.328</ele>
        <time>2019-10-16T17:11:15Z</time>
      </trkpt>
      <trkpt lat="-22.199609" lon="-45.303709">
        <ele>1078.655</ele>
        <time>2019-10-16T17:11:20Z</time>
      </trkpt>
      <trkpt lat="-22.199610" lon="-45.303636">
        <ele>1078.807</ele>
        <time>2019-10-16T17:11:25Z</time>
      </trkpt>
      <trkpt lat="-22.199611" lon="-45.303567">
        <ele>1078.917</ele>
        <time>2019-10-16T17:11:29Z</time>
      </trkpt>
      <trkpt lat="-22.199603" lon="-45.303512">
        <ele>1078.908</ele>
        <time>2019-10-16T17:11:32Z</time>
      </trkpt>
      <trkpt lat="-22.199591" lon="-45.303454">
        <ele>1078.819</ele>
        <time>2019-10-16T17:11:36Z</time>
      </trkpt>
      <trkpt lat="-22.199576" lon="-45.303404">
        <ele>1078.777</ele>
        <time>2019-10-16T17:11:40Z</time>
      </trkpt>
      <trkpt lat="-22.199567" lon="-45.303342">
        <ele>1078.720</ele>
        <time>2019-10-16T17:11:44Z</time>
      </trkpt>
      <trkpt lat="-22.199545" lon="-45.303292">
        <ele>1079.218</ele>
        <time>2019-10-16T17:11:48Z</time>
      </trkpt>
      <trkpt lat="-22.199528" lon="-45.303247">
        <ele>1079.758</ele>
        <time>2019-10-16T17:11:50Z</time>
      </trkpt>
      <trkpt lat="-22.199493" lon="-45.303178">
        <ele>1080.540</ele>
        <time>2019-10-16T17:11:55Z</time>
      </trkpt>
      <trkpt lat="-22.199466" lon="-45.303128">
        <ele>1081.034</ele>
        <time>2019-10-16T17:11:58Z</time>
      </trkpt>
      <trkpt lat="-22.199439" lon="-45.303083">
        <ele>1081.581</ele>
        <time>2019-10-16T17:12:01Z</time>
      </trkpt>
      <trkpt lat="-22.199404" lon="-45.303030">
        <ele>1082.075</ele>
        <time>2019-10-16T17:12:05Z</time>
      </trkpt>
      <trkpt lat="-22.199366" lon="-45.302978">
        <ele>1082.428</ele>
        <time>2019-10-16T17:12:09Z</time>
      </trkpt>
      <trkpt lat="-22.199338" lon="-45.302938">
        <ele>1082.720</ele>
        <time>2019-10-16T17:12:12Z</time>
      </trkpt>
      <trkpt lat="-22.199309" lon="-45.302897">
        <ele>1083.108</ele>
        <time>2019-10-16T17:12:16Z</time>
      </trkpt>
      <trkpt lat="-22.199235" lon="-45.302800">
        <ele>1083.961</ele>
        <time>2019-10-16T17:12:24Z</time>
      </trkpt>
      <trkpt lat="-22.199186" lon="-45.302730">
        <ele>1084.699</ele>
        <time>2019-10-16T17:12:30Z</time>
      </trkpt>
      <trkpt lat="-22.199150" lon="-45.302655">
        <ele>1085.552</ele>
        <time>2019-10-16T17:12:34Z</time>
      </trkpt>
      <trkpt lat="-22.199115" lon="-45.302593">
        <ele>1086.170</ele>
        <time>2019-10-16T17:12:39Z</time>
      </trkpt>
      <trkpt lat="-22.199093" lon="-45.302550">
        <ele>1086.640</ele>
        <time>2019-10-16T17:12:42Z</time>
      </trkpt>
      <trkpt lat="-22.199075" lon="-45.302505">
        <ele>1087.112</ele>
        <time>2019-10-16T17:12:45Z</time>
      </trkpt>
      <trkpt lat="-22.199046" lon="-45.302441">
        <ele>1087.446</ele>
        <time>2019-10-16T17:12:49Z</time>
      </trkpt>
      <trkpt lat="-22.199039" lon="-45.302392">
        <ele>1087.823</ele>
        <time>2019-10-16T17:12:53Z</time>
      </trkpt>
      <trkpt lat="-22.199022" lon="-45.302345">
        <ele>1088.031</ele>
        <time>2019-10-16T17:12:58Z</time>
      </trkpt>
      <trkpt lat="-22.199010" lon="-45.302286">
        <ele>1088.561</ele>
        <time>2019-10-16T17:13:01Z</time>
      </trkpt>
      <trkpt lat="-22.199004" lon="-45.302233">
        <ele>1089.107</ele>
        <time>2019-10-16T17:13:04Z</time>
      </trkpt>
      <trkpt lat="-22.199005" lon="-45.302166">
        <ele>1089.908</ele>
        <time>2019-10-16T17:13:08Z</time>
      </trkpt>
      <trkpt lat="-22.199003" lon="-45.302105">
        <ele>1090.687</ele>
        <time>2019-10-16T17:13:12Z</time>
      </trkpt>
      <trkpt lat="-22.199011" lon="-45.302039">
        <ele>1091.565</ele>
        <time>2019-10-16T17:13:16Z</time>
      </trkpt>
      <trkpt lat="-22.199013" lon="-45.301990">
        <ele>1092.168</ele>
        <time>2019-10-16T17:13:19Z</time>
      </trkpt>
      <trkpt lat="-22.199026" lon="-45.301925">
        <ele>1093.036</ele>
        <time>2019-10-16T17:13:22Z</time>
      </trkpt>
      <trkpt lat="-22.199041" lon="-45.301856">
        <ele>1093.956</ele>
        <time>2019-10-16T17:13:26Z</time>
      </trkpt>
      <trkpt lat="-22.199055" lon="-45.301806">
        <ele>1094.658</ele>
        <time>2019-10-16T17:13:29Z</time>
      </trkpt>
      <trkpt lat="-22.199062" lon="-45.301737">
        <ele>1095.572</ele>
        <time>2019-10-16T17:13:34Z</time>
      </trkpt>
      <trkpt lat="-22.199065" lon="-45.301686">
        <ele>1096.199</ele>
        <time>2019-10-16T17:13:36Z</time>
      </trkpt>
      <trkpt lat="-22.199073" lon="-45.301615">
        <ele>1096.368</ele>
        <time>2019-10-16T17:13:40Z</time>
      </trkpt>
      <trkpt lat="-22.199079" lon="-45.301562">
        <ele>1096.342</ele>
        <time>2019-10-16T17:13:43Z</time>
      </trkpt>
      <trkpt lat="-22.199079" lon="-45.301510">
        <ele>1096.326</ele>
        <time>2019-10-16T17:13:46Z</time>
      </trkpt>
      <trkpt lat="-22.199078" lon="-45.301456">
        <ele>1096.308</ele>
        <time>2019-10-16T17:13:49Z</time>
      </trkpt>
      <trkpt lat="-22.199084" lon="-45.301406">
        <ele>1096.260</ele>
        <time>2019-10-16T17:13:52Z</time>
      </trkpt>
      <trkpt lat="-22.199098" lon="-45.301328">
        <ele>1096.218</ele>
        <time>2019-10-16T17:13:56Z</time>
      </trkpt>
      <trkpt lat="-22.199108" lon="-45.301271">
        <ele>1096.141</ele>
        <time>2019-10-16T17:14:00Z</time>
      </trkpt>
      <trkpt lat="-22.199120" lon="-45.301218">
        <ele>1096.079</ele>
        <time>2019-10-16T17:14:03Z</time>
      </trkpt>
      <trkpt lat="-22.199125" lon="-45.301161">
        <ele>1095.979</ele>
        <time>2019-10-16T17:14:06Z</time>
      </trkpt>
      <trkpt lat="-22.199132" lon="-45.301109">
        <ele>1095.831</ele>
        <time>2019-10-16T17:14:09Z</time>
      </trkpt>
      <trkpt lat="-22.199136" lon="-45.301046">
        <ele>1095.755</ele>
        <time>2019-10-16T17:14:13Z</time>
      </trkpt>
      <trkpt lat="-22.199155" lon="-45.300991">
        <ele>1095.542</ele>
        <time>2019-10-16T17:14:15Z</time>
      </trkpt>
      <trkpt lat="-22.199174" lon="-45.300945">
        <ele>1095.473</ele>
        <time>2019-10-16T17:14:18Z</time>
      </trkpt>
      <trkpt lat="-22.199190" lon="-45.300898">
        <ele>1095.585</ele>
        <time>2019-10-16T17:14:22Z</time>
      </trkpt>
      <trkpt lat="-22.199213" lon="-45.300843">
        <ele>1095.613</ele>
        <time>2019-10-16T17:14:25Z</time>
      </trkpt>
      <trkpt lat="-22.199235" lon="-45.300787">
        <ele>1096.008</ele>
        <time>2019-10-16T17:14:28Z</time>
      </trkpt>
      <trkpt lat="-22.199265" lon="-45.300727">
        <ele>1096.521</ele>
        <time>2019-10-16T17:14:32Z</time>
      </trkpt>
      <trkpt lat="-22.199295" lon="-45.300670">
        <ele>1096.989</ele>
        <time>2019-10-16T17:14:35Z</time>
      </trkpt>
      <trkpt lat="-22.199317" lon="-45.300619">
        <ele>1097.222</ele>
        <time>2019-10-16T17:14:39Z</time>
      </trkpt>
      <trkpt lat="-22.199353" lon="-45.300559">
        <ele>1097.750</ele>
        <time>2019-10-16T17:14:43Z</time>
      </trkpt>
      <trkpt lat="-22.199378" lon="-45.300511">
        <ele>1098.040</ele>
        <time>2019-10-16T17:14:46Z</time>
      </trkpt>
      <trkpt lat="-22.199402" lon="-45.300466">
        <ele>1098.292</ele>
        <time>2019-10-16T17:14:49Z</time>
      </trkpt>
      <trkpt lat="-22.199427" lon="-45.300419">
        <ele>1098.536</ele>
        <time>2019-10-16T17:14:52Z</time>
      </trkpt>
      <trkpt lat="-22.199456" lon="-45.300362">
        <ele>1098.833</ele>
        <time>2019-10-16T17:14:56Z</time>
      </trkpt>
      <trkpt lat="-22.199485" lon="-45.300309">
        <ele>1099.094</ele>
        <time>2019-10-16T17:14:59Z</time>
      </trkpt>
      <trkpt lat="-22.199509" lon="-45.300255">
        <ele>1099.257</ele>
        <time>2019-10-16T17:15:02Z</time>
      </trkpt>
      <trkpt lat="-22.199535" lon="-45.300204">
        <ele>1099.422</ele>
        <time>2019-10-16T17:15:06Z</time>
      </trkpt>
      <trkpt lat="-22.199565" lon="-45.300150">
        <ele>1099.508</ele>
        <time>2019-10-16T17:15:09Z</time>
      </trkpt>
      <trkpt lat="-22.199603" lon="-45.300075">
        <ele>1099.793</ele>
        <time>2019-10-16T17:15:14Z</time>
      </trkpt>
      <trkpt lat="-22.199623" lon="-45.300025">
        <ele>1099.841</ele>
        <time>2019-10-16T17:15:17Z</time>
      </trkpt>
      <trkpt lat="-22.199652" lon="-45.299982">
        <ele>1100.214</ele>
        <time>2019-10-16T17:15:20Z</time>
      </trkpt>
      <trkpt lat="-22.199673" lon="-45.299933">
        <ele>1101.122</ele>
        <time>2019-10-16T17:15:23Z</time>
      </trkpt>
      <trkpt lat="-22.199698" lon="-45.299878">
        <ele>1102.152</ele>
        <time>2019-10-16T17:15:27Z</time>
      </trkpt>
      <trkpt lat="-22.199725" lon="-45.299830">
        <ele>1102.944</ele>
        <time>2019-10-16T17:15:30Z</time>
      </trkpt>
      <trkpt lat="-22.199750" lon="-45.299777">
        <ele>1103.788</ele>
        <time>2019-10-16T17:15:33Z</time>
      </trkpt>
      <trkpt lat="-22.199775" lon="-45.299733">
        <ele>1104.345</ele>
        <time>2019-10-16T17:15:36Z</time>
      </trkpt>
      <trkpt lat="-22.199803" lon="-45.299687">
        <ele>1104.981</ele>
        <time>2019-10-16T17:15:40Z</time>
      </trkpt>
      <trkpt lat="-22.199828" lon="-45.299629">
        <ele>1105.661</ele>
        <time>2019-10-16T17:15:43Z</time>
      </trkpt>
      <trkpt lat="-22.199853" lon="-45.299579">
        <ele>1106.117</ele>
        <time>2019-10-16T17:15:46Z</time>
      </trkpt>
      <trkpt lat="-22.199883" lon="-45.299537">
        <ele>1106.408</ele>
        <time>2019-10-16T17:15:49Z</time>
      </trkpt>
      <trkpt lat="-22.199897" lon="-45.299482">
        <ele>1107.072</ele>
        <time>2019-10-16T17:15:52Z</time>
      </trkpt>
      <trkpt lat="-22.199927" lon="-45.299423">
        <ele>1107.450</ele>
        <time>2019-10-16T17:15:58Z</time>
      </trkpt>
      <trkpt lat="-22.199956" lon="-45.299384">
        <ele>1107.533</ele>
        <time>2019-10-16T17:16:00Z</time>
      </trkpt>
      <trkpt lat="-22.199984" lon="-45.299339">
        <ele>1107.761</ele>
        <time>2019-10-16T17:16:04Z</time>
      </trkpt>
      <trkpt lat="-22.200015" lon="-45.299283">
        <ele>1108.291</ele>
        <time>2019-10-16T17:16:09Z</time>
      </trkpt>
      <trkpt lat="-22.200041" lon="-45.299232">
        <ele>1109.013</ele>
        <time>2019-10-16T17:16:13Z</time>
      </trkpt>
      <trkpt lat="-22.200078" lon="-45.299178">
        <ele>1109.847</ele>
        <time>2019-10-16T17:16:16Z</time>
      </trkpt>
      <trkpt lat="-22.200106" lon="-45.299137">
        <ele>1110.864</ele>
        <time>2019-10-16T17:16:20Z</time>
      </trkpt>
      <trkpt lat="-22.200140" lon="-45.299088">
        <ele>1112.082</ele>
        <time>2019-10-16T17:16:22Z</time>
      </trkpt>
      <trkpt lat="-22.200172" lon="-45.299041">
        <ele>1113.043</ele>
        <time>2019-10-16T17:16:26Z</time>
      </trkpt>
      <trkpt lat="-22.200204" lon="-45.298989">
        <ele>1114.117</ele>
        <time>2019-10-16T17:16:30Z</time>
      </trkpt>
      <trkpt lat="-22.200233" lon="-45.298945">
        <ele>1114.908</ele>
        <time>2019-10-16T17:16:33Z</time>
      </trkpt>
      <trkpt lat="-22.200272" lon="-45.298919">
        <ele>1115.522</ele>
        <time>2019-10-16T17:16:37Z</time>
      </trkpt>
      <trkpt lat="-22.200298" lon="-45.298873">
        <ele>1116.270</ele>
        <time>2019-10-16T17:16:40Z</time>
      </trkpt>
      <trkpt lat="-22.200346" lon="-45.298825">
        <ele>1116.913</ele>
        <time>2019-10-16T17:16:43Z</time>
      </trkpt>
      <trkpt lat="-22.200378" lon="-45.298784">
        <ele>1117.431</ele>
        <time>2019-10-16T17:16:46Z</time>
      </trkpt>
      <trkpt lat="-22.200414" lon="-45.298740">
        <ele>1117.841</ele>
        <time>2019-10-16T17:16:49Z</time>
      </trkpt>
      <trkpt lat="-22.200445" lon="-45.298704">
        <ele>1118.163</ele>
        <time>2019-10-16T17:16:53Z</time>
      </trkpt>
      <trkpt lat="-22.200487" lon="-45.298658">
        <ele>1118.427</ele>
        <time>2019-10-16T17:16:56Z</time>
      </trkpt>
      <trkpt lat="-22.200520" lon="-45.298623">
        <ele>1118.644</ele>
        <time>2019-10-16T17:16:59Z</time>
      </trkpt>
      <trkpt lat="-22.200561" lon="-45.298590">
        <ele>1118.684</ele>
        <time>2019-10-16T17:17:03Z</time>
      </trkpt>
      <trkpt lat="-22.200597" lon="-45.298539">
        <ele>1118.707</ele>
        <time>2019-10-16T17:17:07Z</time>
      </trkpt>
      <trkpt lat="-22.200636" lon="-45.298485">
        <ele>1118.717</ele>
        <time>2019-10-16T17:17:12Z</time>
      </trkpt>
      <trkpt lat="-22.200672" lon="-45.298444">
        <ele>1118.508</ele>
        <time>2019-10-16T17:17:14Z</time>
      </trkpt>
      <trkpt lat="-22.200707" lon="-45.298407">
        <ele>1118.312</ele>
        <time>2019-10-16T17:17:18Z</time>
      </trkpt>
      <trkpt lat="-22.200742" lon="-45.298369">
        <ele>1118.020</ele>
        <time>2019-10-16T17:17:21Z</time>
      </trkpt>
      <trkpt lat="-22.200771" lon="-45.298325">
        <ele>1117.623</ele>
        <time>2019-10-16T17:17:24Z</time>
      </trkpt>
      <trkpt lat="-22.200799" lon="-45.298269">
        <ele>1116.741</ele>
        <time>2019-10-16T17:17:28Z</time>
      </trkpt>
      <trkpt lat="-22.200825" lon="-45.298227">
        <ele>1115.941</ele>
        <time>2019-10-16T17:17:30Z</time>
      </trkpt>
      <trkpt lat="-22.200860" lon="-45.298187">
        <ele>1115.773</ele>
        <time>2019-10-16T17:17:33Z</time>
      </trkpt>
      <trkpt lat="-22.200894" lon="-45.298126">
        <ele>1115.527</ele>
        <time>2019-10-16T17:17:36Z</time>
      </trkpt>
      <trkpt lat="-22.200920" lon="-45.298076">
        <ele>1115.244</ele>
        <time>2019-10-16T17:17:39Z</time>
      </trkpt>
      <trkpt lat="-22.200957" lon="-45.298022">
        <ele>1115.098</ele>
        <time>2019-10-16T17:17:42Z</time>
      </trkpt>
      <trkpt lat="-22.200974" lon="-45.297966">
        <ele>1114.515</ele>
        <time>2019-10-16T17:17:45Z</time>
      </trkpt>
      <trkpt lat="-22.200983" lon="-45.297917">
        <ele>1114.026</ele>
        <time>2019-10-16T17:17:46Z</time>
      </trkpt>
      <trkpt lat="-22.200986" lon="-45.297862">
        <ele>1113.408</ele>
        <time>2019-10-16T17:17:48Z</time>
      </trkpt>
      <trkpt lat="-22.201000" lon="-45.297795">
        <ele>1112.753</ele>
        <time>2019-10-16T17:17:49Z</time>
      </trkpt>
      <trkpt lat="-22.201006" lon="-45.297727">
        <ele>1112.031</ele>
        <time>2019-10-16T17:17:51Z</time>
      </trkpt>
      <trkpt lat="-22.201016" lon="-45.297341">
        <ele>1109.334</ele>
        <time>2019-10-16T17:17:59Z</time>
      </trkpt>
      <trkpt lat="-22.201011" lon="-45.297280">
        <ele>1109.362</ele>
        <time>2019-10-16T17:18:01Z</time>
      </trkpt>
      <trkpt lat="-22.201012" lon="-45.297195">
        <ele>1109.342</ele>
        <time>2019-10-16T17:18:03Z</time>
      </trkpt>
      <trkpt lat="-22.201003" lon="-45.297118">
        <ele>1109.234</ele>
        <time>2019-10-16T17:18:05Z</time>
      </trkpt>
      <trkpt lat="-22.200998" lon="-45.297061">
        <ele>1109.288</ele>
        <time>2019-10-16T17:18:07Z</time>
      </trkpt>
      <trkpt lat="-22.200986" lon="-45.296997">
        <ele>1109.155</ele>
        <time>2019-10-16T17:18:09Z</time>
      </trkpt>
      <trkpt lat="-22.200977" lon="-45.296945">
        <ele>1109.079</ele>
        <time>2019-10-16T17:18:11Z</time>
      </trkpt>
      <trkpt lat="-22.200973" lon="-45.296884">
        <ele>1109.005</ele>
        <time>2019-10-16T17:18:13Z</time>
      </trkpt>
      <trkpt lat="-22.200972" lon="-45.296815">
        <ele>1109.025</ele>
        <time>2019-10-16T17:18:16Z</time>
      </trkpt>
      <trkpt lat="-22.200974" lon="-45.296749">
        <ele>1109.008</ele>
        <time>2019-10-16T17:18:18Z</time>
      </trkpt>
      <trkpt lat="-22.200975" lon="-45.296665">
        <ele>1109.011</ele>
        <time>2019-10-16T17:18:21Z</time>
      </trkpt>
      <trkpt lat="-22.200972" lon="-45.296595">
        <ele>1109.629</ele>
        <time>2019-10-16T17:18:23Z</time>
      </trkpt>
      <trkpt lat="-22.200968" lon="-45.296530">
        <ele>1110.122</ele>
        <time>2019-10-16T17:18:25Z</time>
      </trkpt>
      <trkpt lat="-22.200971" lon="-45.296467">
        <ele>1110.680</ele>
        <time>2019-10-16T17:18:28Z</time>
      </trkpt>
      <trkpt lat="-22.200975" lon="-45.296413">
        <ele>1111.150</ele>
        <time>2019-10-16T17:18:29Z</time>
      </trkpt>
      <trkpt lat="-22.200973" lon="-45.296353">
        <ele>1111.672</ele>
        <time>2019-10-16T17:18:31Z</time>
      </trkpt>
      <trkpt lat="-22.200960" lon="-45.296292">
        <ele>1111.956</ele>
        <time>2019-10-16T17:18:33Z</time>
      </trkpt>
      <trkpt lat="-22.200956" lon="-45.296240">
        <ele>1112.333</ele>
        <time>2019-10-16T17:18:36Z</time>
      </trkpt>
      <trkpt lat="-22.200951" lon="-45.296191">
        <ele>1112.623</ele>
        <time>2019-10-16T17:18:38Z</time>
      </trkpt>
      <trkpt lat="-22.200950" lon="-45.296132">
        <ele>1113.083</ele>
        <time>2019-10-16T17:18:42Z</time>
      </trkpt>
      <trkpt lat="-22.200956" lon="-45.296071">
        <ele>1113.611</ele>
        <time>2019-10-16T17:18:45Z</time>
      </trkpt>
      <trkpt lat="-22.200950" lon="-45.296015">
        <ele>1114.008</ele>
        <time>2019-10-16T17:18:48Z</time>
      </trkpt>
      <trkpt lat="-22.200955" lon="-45.295951">
        <ele>1114.576</ele>
        <time>2019-10-16T17:18:53Z</time>
      </trkpt>
      <trkpt lat="-22.200962" lon="-45.295894">
        <ele>1115.194</ele>
        <time>2019-10-16T17:18:56Z</time>
      </trkpt>
      <trkpt lat="-22.200959" lon="-45.295839">
        <ele>1115.517</ele>
        <time>2019-10-16T17:19:00Z</time>
      </trkpt>
      <trkpt lat="-22.200957" lon="-45.295790">
        <ele>1116.115</ele>
        <time>2019-10-16T17:19:02Z</time>
      </trkpt>
      <trkpt lat="-22.200959" lon="-45.295732">
        <ele>1116.935</ele>
        <time>2019-10-16T17:19:05Z</time>
      </trkpt>
      <trkpt lat="-22.200955" lon="-45.295670">
        <ele>1117.657</ele>
        <time>2019-10-16T17:19:09Z</time>
      </trkpt>
      <trkpt lat="-22.200950" lon="-45.295589">
        <ele>1118.561</ele>
        <time>2019-10-16T17:19:13Z</time>
      </trkpt>
      <trkpt lat="-22.200953" lon="-45.295535">
        <ele>1119.358</ele>
        <time>2019-10-16T17:19:16Z</time>
      </trkpt>
      <trkpt lat="-22.200947" lon="-45.295470">
        <ele>1120.027</ele>
        <time>2019-10-16T17:19:20Z</time>
      </trkpt>
      <trkpt lat="-22.200944" lon="-45.295376">
        <ele>1121.168</ele>
        <time>2019-10-16T17:19:25Z</time>
      </trkpt>
      <trkpt lat="-22.200936" lon="-45.295304">
        <ele>1121.814</ele>
        <time>2019-10-16T17:19:29Z</time>
      </trkpt>
      <trkpt lat="-22.200931" lon="-45.295254">
        <ele>1122.208</ele>
        <time>2019-10-16T17:19:32Z</time>
      </trkpt>
      <trkpt lat="-22.200928" lon="-45.295192">
        <ele>1122.926</ele>
        <time>2019-10-16T17:19:35Z</time>
      </trkpt>
      <trkpt lat="-22.200926" lon="-45.295129">
        <ele>1123.644</ele>
        <time>2019-10-16T17:19:39Z</time>
      </trkpt>
      <trkpt lat="-22.200925" lon="-45.295071">
        <ele>1124.327</ele>
        <time>2019-10-16T17:19:42Z</time>
      </trkpt>
      <trkpt lat="-22.200915" lon="-45.295016">
        <ele>1124.675</ele>
        <time>2019-10-16T17:19:46Z</time>
      </trkpt>
      <trkpt lat="-22.200920" lon="-45.294964">
        <ele>1125.265</ele>
        <time>2019-10-16T17:19:48Z</time>
      </trkpt>
      <trkpt lat="-22.200908" lon="-45.294917">
        <ele>1124.977</ele>
        <time>2019-10-16T17:19:51Z</time>
      </trkpt>
      <trkpt lat="-22.200905" lon="-45.294861">
        <ele>1125.061</ele>
        <time>2019-10-16T17:19:54Z</time>
      </trkpt>
      <trkpt lat="-22.200906" lon="-45.294809">
        <ele>1125.318</ele>
        <time>2019-10-16T17:19:56Z</time>
      </trkpt>
      <trkpt lat="-22.200905" lon="-45.294740">
        <ele>1125.525</ele>
        <time>2019-10-16T17:19:58Z</time>
      </trkpt>
      <trkpt lat="-22.200901" lon="-45.294691">
        <ele>1125.526</ele>
        <time>2019-10-16T17:20:00Z</time>
      </trkpt>
      <trkpt lat="-22.200901" lon="-45.294632">
        <ele>1125.808</ele>
        <time>2019-10-16T17:20:02Z</time>
      </trkpt>
      <trkpt lat="-22.200907" lon="-45.294563">
        <ele>1126.208</ele>
        <time>2019-10-16T17:20:06Z</time>
      </trkpt>
      <trkpt lat="-22.200905" lon="-45.294477">
        <ele>1126.516</ele>
        <time>2019-10-16T17:20:08Z</time>
      </trkpt>
      <trkpt lat="-22.200912" lon="-45.294428">
        <ele>1126.994</ele>
        <time>2019-10-16T17:20:10Z</time>
      </trkpt>
      <trkpt lat="-22.200912" lon="-45.294356">
        <ele>1127.257</ele>
        <time>2019-10-16T17:20:14Z</time>
      </trkpt>
      <trkpt lat="-22.200910" lon="-45.294296">
        <ele>1127.485</ele>
        <time>2019-10-16T17:20:19Z</time>
      </trkpt>
      <trkpt lat="-22.200906" lon="-45.294246">
        <ele>1127.425</ele>
        <time>2019-10-16T17:20:22Z</time>
      </trkpt>
      <trkpt lat="-22.200907" lon="-45.294195">
        <ele>1127.637</ele>
        <time>2019-10-16T17:20:25Z</time>
      </trkpt>
      <trkpt lat="-22.200905" lon="-45.294142">
        <ele>1127.651</ele>
        <time>2019-10-16T17:20:28Z</time>
      </trkpt>
      <trkpt lat="-22.200898" lon="-45.294068">
        <ele>1127.128</ele>
        <time>2019-10-16T17:20:32Z</time>
      </trkpt>
      <trkpt lat="-22.200901" lon="-45.293981">
        <ele>1127.022</ele>
        <time>2019-10-16T17:20:35Z</time>
      </trkpt>
      <trkpt lat="-22.200899" lon="-45.293906">
        <ele>1126.762</ele>
        <time>2019-10-16T17:20:37Z</time>
      </trkpt>
      <trkpt lat="-22.200902" lon="-45.293839">
        <ele>1126.608</ele>
        <time>2019-10-16T17:20:39Z</time>
      </trkpt>
      <trkpt lat="-22.200900" lon="-45.293759">
        <ele>1126.308</ele>
        <time>2019-10-16T17:20:41Z</time>
      </trkpt>
      <trkpt lat="-22.200906" lon="-45.293669">
        <ele>1126.236</ele>
        <time>2019-10-16T17:20:43Z</time>
      </trkpt>
      <trkpt lat="-22.200905" lon="-45.293588">
        <ele>1126.024</ele>
        <time>2019-10-16T17:20:45Z</time>
      </trkpt>
      <trkpt lat="-22.200902" lon="-45.293519">
        <ele>1125.777</ele>
        <time>2019-10-16T17:20:47Z</time>
      </trkpt>
      <trkpt lat="-22.200904" lon="-45.293452">
        <ele>1125.565</ele>
        <time>2019-10-16T17:20:49Z</time>
      </trkpt>
      <trkpt lat="-22.200903" lon="-45.293378">
        <ele>1125.315</ele>
        <time>2019-10-16T17:20:50Z</time>
      </trkpt>
      <trkpt lat="-22.200901" lon="-45.293307">
        <ele>1125.377</ele>
        <time>2019-10-16T17:20:52Z</time>
      </trkpt>
      <trkpt lat="-22.200895" lon="-45.293224">
        <ele>1125.781</ele>
        <time>2019-10-16T17:20:54Z</time>
      </trkpt>
      <trkpt lat="-22.200881" lon="-45.293144">
        <ele>1125.928</ele>
        <time>2019-10-16T17:20:56Z</time>
      </trkpt>
      <trkpt lat="-22.200873" lon="-45.293076">
        <ele>1126.187</ele>
        <time>2019-10-16T17:20:58Z</time>
      </trkpt>
      <trkpt lat="-22.200860" lon="-45.293003">
        <ele>1126.242</ele>
        <time>2019-10-16T17:21:00Z</time>
      </trkpt>
      <trkpt lat="-22.200846" lon="-45.292947">
        <ele>1126.226</ele>
        <time>2019-10-16T17:21:02Z</time>
      </trkpt>
      <trkpt lat="-22.200834" lon="-45.292872">
        <ele>1126.308</ele>
        <time>2019-10-16T17:21:05Z</time>
      </trkpt>
      <trkpt lat="-22.200814" lon="-45.292799">
        <ele>1126.472</ele>
        <time>2019-10-16T17:21:09Z</time>
      </trkpt>
      <trkpt lat="-22.200806" lon="-45.292707">
        <ele>1126.990</ele>
        <time>2019-10-16T17:21:12Z</time>
      </trkpt>
      <trkpt lat="-22.200786" lon="-45.292634">
        <ele>1127.053</ele>
        <time>2019-10-16T17:21:14Z</time>
      </trkpt>
      <trkpt lat="-22.200756" lon="-45.292584">
        <ele>1126.821</ele>
        <time>2019-10-16T17:21:17Z</time>
      </trkpt>
      <trkpt lat="-22.200720" lon="-45.292533">
        <ele>1126.491</ele>
        <time>2019-10-16T17:21:19Z</time>
      </trkpt>
      <trkpt lat="-22.200689" lon="-45.292494">
        <ele>1126.163</ele>
        <time>2019-10-16T17:21:21Z</time>
      </trkpt>
      <trkpt lat="-22.200660" lon="-45.292418">
        <ele>1126.777</ele>
        <time>2019-10-16T17:21:24Z</time>
      </trkpt>
      <trkpt lat="-22.200633" lon="-45.292357">
        <ele>1127.134</ele>
        <time>2019-10-16T17:21:26Z</time>
      </trkpt>
      <trkpt lat="-22.200618" lon="-45.292306">
        <ele>1127.565</ele>
        <time>2019-10-16T17:21:28Z</time>
      </trkpt>
      <trkpt lat="-22.200595" lon="-45.292242">
        <ele>1127.968</ele>
        <time>2019-10-16T17:21:31Z</time>
      </trkpt>
      <trkpt lat="-22.200575" lon="-45.292196">
        <ele>1128.214</ele>
        <time>2019-10-16T17:21:34Z</time>
      </trkpt>
      <trkpt lat="-22.200550" lon="-45.292137">
        <ele>1128.408</ele>
        <time>2019-10-16T17:21:36Z</time>
      </trkpt>
      <trkpt lat="-22.200531" lon="-45.292088">
        <ele>1128.720</ele>
        <time>2019-10-16T17:21:38Z</time>
      </trkpt>
      <trkpt lat="-22.200513" lon="-45.292038">
        <ele>1128.998</ele>
        <time>2019-10-16T17:21:41Z</time>
      </trkpt>
      <trkpt lat="-22.200490" lon="-45.291994">
        <ele>1129.081</ele>
        <time>2019-10-16T17:21:43Z</time>
      </trkpt>
      <trkpt lat="-22.200450" lon="-45.291909">
        <ele>1129.249</ele>
        <time>2019-10-16T17:21:46Z</time>
      </trkpt>
      <trkpt lat="-22.200429" lon="-45.291861">
        <ele>1129.369</ele>
        <time>2019-10-16T17:21:48Z</time>
      </trkpt>
      <trkpt lat="-22.200404" lon="-45.291810">
        <ele>1129.321</ele>
        <time>2019-10-16T17:21:51Z</time>
      </trkpt>
      <trkpt lat="-22.200375" lon="-45.291747">
        <ele>1129.375</ele>
        <time>2019-10-16T17:21:54Z</time>
      </trkpt>
      <trkpt lat="-22.200340" lon="-45.291663">
        <ele>1129.492</ele>
        <time>2019-10-16T17:21:59Z</time>
      </trkpt>
      <trkpt lat="-22.200310" lon="-45.291601">
        <ele>1129.361</ele>
        <time>2019-10-16T17:22:02Z</time>
      </trkpt>
      <trkpt lat="-22.200277" lon="-45.291540">
        <ele>1129.021</ele>
        <time>2019-10-16T17:22:04Z</time>
      </trkpt>
      <trkpt lat="-22.200258" lon="-45.291484">
        <ele>1129.113</ele>
        <time>2019-10-16T17:22:06Z</time>
      </trkpt>
      <trkpt lat="-22.200227" lon="-45.291409">
        <ele>1129.008</ele>
        <time>2019-10-16T17:22:09Z</time>
      </trkpt>
      <trkpt lat="-22.200205" lon="-45.291364">
        <ele>1128.810</ele>
        <time>2019-10-16T17:22:11Z</time>
      </trkpt>
      <trkpt lat="-22.182966" lon="-45.277997">
        <ele>1010.078</ele>
        <time>2019-10-16T17:22:13Z</time>
      </trkpt>
      <trkpt lat="-22.182954" lon="-45.277855">
        <ele>1012.641</ele>
        <time>2019-10-16T17:23:40Z</time>
      </trkpt>
      <trkpt lat="-22.182916" lon="-45.277917">
        <ele>1011.089</ele>
        <time>2019-10-16T17:23:41Z</time>
      </trkpt>
      <trkpt lat="-22.182948" lon="-45.277874">
        <ele>1012.239</ele>
        <time>2019-10-16T17:23:44Z</time>
      </trkpt>
      <trkpt lat="-22.182946" lon="-45.277928">
        <ele>1011.151</ele>
        <time>2019-10-16T17:24:21Z</time>
      </trkpt>
      <trkpt lat="-22.182990" lon="-45.277968">
        <ele>1010.845</ele>
        <time>2019-10-16T17:29:21Z</time>
      </trkpt>
      <trkpt lat="-22.183077" lon="-45.278005">
        <ele>1011.072</ele>
        <time>2019-10-16T17:29:24Z</time>
      </trkpt>
      <trkpt lat="-22.183113" lon="-45.278041">
        <ele>1010.786</ele>
        <time>2019-10-16T17:29:26Z</time>
      </trkpt>
      <trkpt lat="-22.183157" lon="-45.278076">
        <ele>1010.460</ele>
        <time>2019-10-16T17:29:28Z</time>
      </trkpt>
      <trkpt lat="-22.183216" lon="-45.278114">
        <ele>1010.326</ele>
        <time>2019-10-16T17:29:31Z</time>
      </trkpt>
      <trkpt lat="-22.183261" lon="-45.278156">
        <ele>1009.908</ele>
        <time>2019-10-16T17:29:33Z</time>
      </trkpt>
      <trkpt lat="-22.183305" lon="-45.278193">
        <ele>1009.682</ele>
        <time>2019-10-16T17:29:35Z</time>
      </trkpt>
      <trkpt lat="-22.183360" lon="-45.278230">
        <ele>1009.250</ele>
        <time>2019-10-16T17:29:37Z</time>
      </trkpt>
      <trkpt lat="-22.183426" lon="-45.278271">
        <ele>1008.623</ele>
        <time>2019-10-16T17:29:40Z</time>
      </trkpt>
      <trkpt lat="-22.183478" lon="-45.278309">
        <ele>1008.161</ele>
        <time>2019-10-16T17:29:42Z</time>
      </trkpt>
      <trkpt lat="-22.183519" lon="-45.278355">
        <ele>1007.661</ele>
        <time>2019-10-16T17:29:45Z</time>
      </trkpt>
      <trkpt lat="-22.183570" lon="-45.278392">
        <ele>1007.313</ele>
        <time>2019-10-16T17:29:47Z</time>
      </trkpt>
      <trkpt lat="-22.183635" lon="-45.278426">
        <ele>1007.167</ele>
        <time>2019-10-16T17:29:50Z</time>
      </trkpt>
      <trkpt lat="-22.183687" lon="-45.278447">
        <ele>1007.014</ele>
        <time>2019-10-16T17:29:52Z</time>
      </trkpt>
      <trkpt lat="-22.183729" lon="-45.278470">
        <ele>1006.936</ele>
        <time>2019-10-16T17:29:54Z</time>
      </trkpt>
      <trkpt lat="-22.183780" lon="-45.278476">
        <ele>1007.017</ele>
        <time>2019-10-16T17:29:58Z</time>
      </trkpt>
      <trkpt lat="-22.183775" lon="-45.278352">
        <ele>1008.818</ele>
        <time>2019-10-16T17:30:56Z</time>
      </trkpt>
      <trkpt lat="-22.183792" lon="-45.278287">
        <ele>1009.908</ele>
        <time>2019-10-16T17:30:59Z</time>
      </trkpt>
      <trkpt lat="-22.183808" lon="-45.278231">
        <ele>1010.867</ele>
        <time>2019-10-16T17:31:02Z</time>
      </trkpt>
      <trkpt lat="-22.183822" lon="-45.278170">
        <ele>1011.845</ele>
        <time>2019-10-16T17:31:05Z</time>
      </trkpt>
      <trkpt lat="-22.183845" lon="-45.278117">
        <ele>1012.668</ele>
        <time>2019-10-16T17:31:09Z</time>
      </trkpt>
      <trkpt lat="-22.183870" lon="-45.278065">
        <ele>1013.446</ele>
        <time>2019-10-16T17:31:12Z</time>
      </trkpt>
      <trkpt lat="-22.183902" lon="-45.278012">
        <ele>1014.236</ele>
        <time>2019-10-16T17:31:16Z</time>
      </trkpt>
      <trkpt lat="-22.183934" lon="-45.277963">
        <ele>1014.918</ele>
        <time>2019-10-16T17:31:21Z</time>
      </trkpt>
      <trkpt lat="-22.183967" lon="-45.277921">
        <ele>1015.412</ele>
        <time>2019-10-16T17:31:25Z</time>
      </trkpt>
      <trkpt lat="-22.184000" lon="-45.277884">
        <ele>1015.979</ele>
        <time>2019-10-16T17:31:30Z</time>
      </trkpt>
      <trkpt lat="-22.184030" lon="-45.277836">
        <ele>1016.567</ele>
        <time>2019-10-16T17:31:36Z</time>
      </trkpt>
      <trkpt lat="-22.184058" lon="-45.277795">
        <ele>1017.081</ele>
        <time>2019-10-16T17:31:43Z</time>
      </trkpt>
      <trkpt lat="-22.184088" lon="-45.277748">
        <ele>1017.519</ele>
        <time>2019-10-16T17:31:48Z</time>
      </trkpt>
      <trkpt lat="-22.184114" lon="-45.277700">
        <ele>1018.008</ele>
        <time>2019-10-16T17:31:55Z</time>
      </trkpt>
      <trkpt lat="-22.184141" lon="-45.277653">
        <ele>1018.470</ele>
        <time>2019-10-16T17:32:00Z</time>
      </trkpt>
      <trkpt lat="-22.184167" lon="-45.277605">
        <ele>1018.938</ele>
        <time>2019-10-16T17:32:05Z</time>
      </trkpt>
      <trkpt lat="-22.184200" lon="-45.277549">
        <ele>1020.121</ele>
        <time>2019-10-16T17:32:11Z</time>
      </trkpt>
      <trkpt lat="-22.184230" lon="-45.277507">
        <ele>1021.119</ele>
        <time>2019-10-16T17:32:16Z</time>
      </trkpt>
      <trkpt lat="-22.184261" lon="-45.277469">
        <ele>1022.549</ele>
        <time>2019-10-16T17:32:21Z</time>
      </trkpt>
      <trkpt lat="-22.184292" lon="-45.277430">
        <ele>1023.971</ele>
        <time>2019-10-16T17:32:26Z</time>
      </trkpt>
      <trkpt lat="-22.184319" lon="-45.277380">
        <ele>1025.495</ele>
        <time>2019-10-16T17:32:30Z</time>
      </trkpt>
      <trkpt lat="-22.184338" lon="-45.277334">
        <ele>1026.622</ele>
        <time>2019-10-16T17:32:32Z</time>
      </trkpt>
      <trkpt lat="-22.184368" lon="-45.277284">
        <ele>1028.058</ele>
        <time>2019-10-16T17:32:37Z</time>
      </trkpt>
      <trkpt lat="-22.184400" lon="-45.277248">
        <ele>1029.252</ele>
        <time>2019-10-16T17:32:42Z</time>
      </trkpt>
      <trkpt lat="-22.184438" lon="-45.277215">
        <ele>1030.317</ele>
        <time>2019-10-16T17:32:47Z</time>
      </trkpt>
      <trkpt lat="-22.184477" lon="-45.277171">
        <ele>1031.508</ele>
        <time>2019-10-16T17:32:52Z</time>
      </trkpt>
      <trkpt lat="-22.184512" lon="-45.277131">
        <ele>1032.579</ele>
        <time>2019-10-16T17:32:58Z</time>
      </trkpt>
      <trkpt lat="-22.184550" lon="-45.277091">
        <ele>1033.687</ele>
        <time>2019-10-16T17:33:04Z</time>
      </trkpt>
      <trkpt lat="-22.184591" lon="-45.277065">
        <ele>1034.350</ele>
        <time>2019-10-16T17:33:09Z</time>
      </trkpt>
      <trkpt lat="-22.184633" lon="-45.277047">
        <ele>1035.068</ele>
        <time>2019-10-16T17:33:14Z</time>
      </trkpt>
      <trkpt lat="-22.184685" lon="-45.277016">
        <ele>1035.868</ele>
        <time>2019-10-16T17:33:19Z</time>
      </trkpt>
      <trkpt lat="-22.184720" lon="-45.276984">
        <ele>1036.470</ele>
        <time>2019-10-16T17:33:25Z</time>
      </trkpt>
      <trkpt lat="-22.184762" lon="-45.276959">
        <ele>1037.044</ele>
        <time>2019-10-16T17:33:29Z</time>
      </trkpt>
      <trkpt lat="-22.184810" lon="-45.276930">
        <ele>1037.691</ele>
        <time>2019-10-16T17:33:35Z</time>
      </trkpt>
      <trkpt lat="-22.184854" lon="-45.276901">
        <ele>1038.118</ele>
        <time>2019-10-16T17:33:41Z</time>
      </trkpt>
      <trkpt lat="-22.184887" lon="-45.276867">
        <ele>1038.598</ele>
        <time>2019-10-16T17:33:46Z</time>
      </trkpt>
      <trkpt lat="-22.184922" lon="-45.276830">
        <ele>1038.917</ele>
        <time>2019-10-16T17:33:51Z</time>
      </trkpt>
      <trkpt lat="-22.184963" lon="-45.276798">
        <ele>1039.308</ele>
        <time>2019-10-16T17:33:56Z</time>
      </trkpt>
      <trkpt lat="-22.185008" lon="-45.276783">
        <ele>1039.695</ele>
        <time>2019-10-16T17:34:01Z</time>
      </trkpt>
      <trkpt lat="-22.185048" lon="-45.276744">
        <ele>1040.563</ele>
        <time>2019-10-16T17:34:07Z</time>
      </trkpt>
      <trkpt lat="-22.185084" lon="-45.276713">
        <ele>1041.386</ele>
        <time>2019-10-16T17:34:12Z</time>
      </trkpt>
      <trkpt lat="-22.185124" lon="-45.276682">
        <ele>1042.114</ele>
        <time>2019-10-16T17:34:17Z</time>
      </trkpt>
      <trkpt lat="-22.185168" lon="-45.276640">
        <ele>1043.284</ele>
        <time>2019-10-16T17:34:23Z</time>
      </trkpt>
      <trkpt lat="-22.185215" lon="-45.276597">
        <ele>1044.266</ele>
        <time>2019-10-16T17:34:29Z</time>
      </trkpt>
      <trkpt lat="-22.185267" lon="-45.276563">
        <ele>1045.110</ele>
        <time>2019-10-16T17:34:32Z</time>
      </trkpt>
      <trkpt lat="-22.185313" lon="-45.276524">
        <ele>1045.927</ele>
        <time>2019-10-16T17:34:37Z</time>
      </trkpt>
      <trkpt lat="-22.185351" lon="-45.276490">
        <ele>1046.554</ele>
        <time>2019-10-16T17:34:41Z</time>
      </trkpt>
      <trkpt lat="-22.185392" lon="-45.276451">
        <ele>1047.156</ele>
        <time>2019-10-16T17:34:46Z</time>
      </trkpt>
      <trkpt lat="-22.185440" lon="-45.276404">
        <ele>1047.611</ele>
        <time>2019-10-16T17:34:52Z</time>
      </trkpt>
      <trkpt lat="-22.185475" lon="-45.276372">
        <ele>1048.008</ele>
        <time>2019-10-16T17:34:56Z</time>
      </trkpt>
      <trkpt lat="-22.185513" lon="-45.276335">
        <ele>1048.339</ele>
        <time>2019-10-16T17:35:00Z</time>
      </trkpt>
      <trkpt lat="-22.185544" lon="-45.276296">
        <ele>1048.457</ele>
        <time>2019-10-16T17:35:03Z</time>
      </trkpt>
      <trkpt lat="-22.185578" lon="-45.276257">
        <ele>1048.520</ele>
        <time>2019-10-16T17:35:06Z</time>
      </trkpt>
      <trkpt lat="-22.185619" lon="-45.276221">
        <ele>1048.778</ele>
        <time>2019-10-16T17:35:12Z</time>
      </trkpt>
      <trkpt lat="-22.185684" lon="-45.276172">
        <ele>1048.838</ele>
        <time>2019-10-16T17:35:17Z</time>
      </trkpt>
      <trkpt lat="-22.185743" lon="-45.276155">
        <ele>1049.080</ele>
        <time>2019-10-16T17:35:20Z</time>
      </trkpt>
      <trkpt lat="-22.185784" lon="-45.276127">
        <ele>1048.994</ele>
        <time>2019-10-16T17:35:24Z</time>
      </trkpt>
      <trkpt lat="-22.185829" lon="-45.276108">
        <ele>1048.911</ele>
        <time>2019-10-16T17:35:28Z</time>
      </trkpt>
      <trkpt lat="-22.185870" lon="-45.276085">
        <ele>1049.879</ele>
        <time>2019-10-16T17:35:31Z</time>
      </trkpt>
      <trkpt lat="-22.185918" lon="-45.276062">
        <ele>1050.905</ele>
        <time>2019-10-16T17:35:35Z</time>
      </trkpt>
      <trkpt lat="-22.185972" lon="-45.276029">
        <ele>1052.125</ele>
        <time>2019-10-16T17:35:39Z</time>
      </trkpt>
      <trkpt lat="-22.186010" lon="-45.276002">
        <ele>1052.808</ele>
        <time>2019-10-16T17:35:42Z</time>
      </trkpt>
      <trkpt lat="-22.186050" lon="-45.275961">
        <ele>1053.521</ele>
        <time>2019-10-16T17:35:46Z</time>
      </trkpt>
      <trkpt lat="-22.186080" lon="-45.275913">
        <ele>1053.819</ele>
        <time>2019-10-16T17:35:49Z</time>
      </trkpt>
      <trkpt lat="-22.186125" lon="-45.275878">
        <ele>1054.692</ele>
        <time>2019-10-16T17:35:52Z</time>
      </trkpt>
      <trkpt lat="-22.186170" lon="-45.275858">
        <ele>1055.620</ele>
        <time>2019-10-16T17:35:55Z</time>
      </trkpt>
      <trkpt lat="-22.186211" lon="-45.275838">
        <ele>1056.530</ele>
        <time>2019-10-16T17:35:57Z</time>
      </trkpt>
      <trkpt lat="-22.186258" lon="-45.275813">
        <ele>1057.522</ele>
        <time>2019-10-16T17:36:00Z</time>
      </trkpt>
      <trkpt lat="-22.186307" lon="-45.275801">
        <ele>1058.856</ele>
        <time>2019-10-16T17:36:03Z</time>
      </trkpt>
      <trkpt lat="-22.186357" lon="-45.275795">
        <ele>1060.133</ele>
        <time>2019-10-16T17:36:05Z</time>
      </trkpt>
      <trkpt lat="-22.186403" lon="-45.275790">
        <ele>1061.471</ele>
        <time>2019-10-16T17:36:09Z</time>
      </trkpt>
      <trkpt lat="-22.186448" lon="-45.275781">
        <ele>1062.641</ele>
        <time>2019-10-16T17:36:24Z</time>
      </trkpt>
      <trkpt lat="-22.186504" lon="-45.275756">
        <ele>1064.015</ele>
        <time>2019-10-16T17:36:34Z</time>
      </trkpt>
      <trkpt lat="-22.186541" lon="-45.275727">
        <ele>1064.808</ele>
        <time>2019-10-16T17:36:37Z</time>
      </trkpt>
      <trkpt lat="-22.186561" lon="-45.275681">
        <ele>1065.151</ele>
        <time>2019-10-16T17:36:43Z</time>
      </trkpt>
      <trkpt lat="-22.186546" lon="-45.275633">
        <ele>1064.359</ele>
        <time>2019-10-16T17:36:47Z</time>
      </trkpt>
      <trkpt lat="-22.186520" lon="-45.275587">
        <ele>1063.282</ele>
        <time>2019-10-16T17:36:51Z</time>
      </trkpt>
      <trkpt lat="-22.186498" lon="-45.275538">
        <ele>1062.210</ele>
        <time>2019-10-16T17:36:56Z</time>
      </trkpt>
      <trkpt lat="-22.186485" lon="-45.275480">
        <ele>1061.490</ele>
        <time>2019-10-16T17:37:01Z</time>
      </trkpt>
      <trkpt lat="-22.186411" lon="-45.275291">
        <ele>1057.772</ele>
        <time>2019-10-16T17:38:34Z</time>
      </trkpt>
      <trkpt lat="-22.186434" lon="-45.275243">
        <ele>1058.016</ele>
        <time>2019-10-16T17:38:36Z</time>
      </trkpt>
      <trkpt lat="-22.186476" lon="-45.275178">
        <ele>1058.943</ele>
        <time>2019-10-16T17:38:39Z</time>
      </trkpt>
      <trkpt lat="-22.186512" lon="-45.275117">
        <ele>1059.623</ele>
        <time>2019-10-16T17:38:42Z</time>
      </trkpt>
      <trkpt lat="-22.186533" lon="-45.275062">
        <ele>1059.983</ele>
        <time>2019-10-16T17:38:44Z</time>
      </trkpt>
      <trkpt lat="-22.186563" lon="-45.275009">
        <ele>1060.611</ele>
        <time>2019-10-16T17:38:46Z</time>
      </trkpt>
      <trkpt lat="-22.186585" lon="-45.274958">
        <ele>1060.808</ele>
        <time>2019-10-16T17:38:48Z</time>
      </trkpt>
      <trkpt lat="-22.186621" lon="-45.274916">
        <ele>1061.656</ele>
        <time>2019-10-16T17:38:50Z</time>
      </trkpt>
      <trkpt lat="-22.186671" lon="-45.274854">
        <ele>1062.694</ele>
        <time>2019-10-16T17:38:54Z</time>
      </trkpt>
      <trkpt lat="-22.186717" lon="-45.274816">
        <ele>1064.177</ele>
        <time>2019-10-16T17:38:58Z</time>
      </trkpt>
      <trkpt lat="-22.186752" lon="-45.274769">
        <ele>1065.115</ele>
        <time>2019-10-16T17:39:02Z</time>
      </trkpt>
      <trkpt lat="-22.186782" lon="-45.274732">
        <ele>1066.125</ele>
        <time>2019-10-16T17:39:06Z</time>
      </trkpt>
      <trkpt lat="-22.186811" lon="-45.274684">
        <ele>1066.977</ele>
        <time>2019-10-16T17:39:10Z</time>
      </trkpt>
      <trkpt lat="-22.186817" lon="-45.274629">
        <ele>1066.711</ele>
        <time>2019-10-16T17:39:12Z</time>
      </trkpt>
      <trkpt lat="-22.186829" lon="-45.274568">
        <ele>1066.838</ele>
        <time>2019-10-16T17:39:17Z</time>
      </trkpt>
      <trkpt lat="-22.186844" lon="-45.274519">
        <ele>1067.183</ele>
        <time>2019-10-16T17:39:19Z</time>
      </trkpt>
      <trkpt lat="-22.186863" lon="-45.274470">
        <ele>1067.625</ele>
        <time>2019-10-16T17:39:23Z</time>
      </trkpt>
      <trkpt lat="-22.186879" lon="-45.274411">
        <ele>1068.017</ele>
        <time>2019-10-16T17:39:28Z</time>
      </trkpt>
      <trkpt lat="-22.186889" lon="-45.274358">
        <ele>1068.108</ele>
        <time>2019-10-16T17:39:32Z</time>
      </trkpt>
      <trkpt lat="-22.186905" lon="-45.274312">
        <ele>1068.672</ele>
        <time>2019-10-16T17:39:37Z</time>
      </trkpt>
      <trkpt lat="-22.186934" lon="-45.274263">
        <ele>1069.750</ele>
        <time>2019-10-16T17:39:41Z</time>
      </trkpt>
      <trkpt lat="-22.186961" lon="-45.274218">
        <ele>1070.863</ele>
        <time>2019-10-16T17:39:45Z</time>
      </trkpt>
      <trkpt lat="-22.186981" lon="-45.274171">
        <ele>1071.671</ele>
        <time>2019-10-16T17:39:49Z</time>
      </trkpt>
      <trkpt lat="-22.187003" lon="-45.274126">
        <ele>1072.631</ele>
        <time>2019-10-16T17:39:53Z</time>
      </trkpt>
      <trkpt lat="-22.187027" lon="-45.274059">
        <ele>1073.583</ele>
        <time>2019-10-16T17:39:56Z</time>
      </trkpt>
      <trkpt lat="-22.187045" lon="-45.274011">
        <ele>1074.387</ele>
        <time>2019-10-16T17:39:59Z</time>
      </trkpt>
      <trkpt lat="-22.187067" lon="-45.273963">
        <ele>1075.374</ele>
        <time>2019-10-16T17:40:02Z</time>
      </trkpt>
      <trkpt lat="-22.187083" lon="-45.273913">
        <ele>1075.967</ele>
        <time>2019-10-16T17:40:04Z</time>
      </trkpt>
      <trkpt lat="-22.187104" lon="-45.273848">
        <ele>1076.881</ele>
        <time>2019-10-16T17:40:07Z</time>
      </trkpt>
      <trkpt lat="-22.187131" lon="-45.273779">
        <ele>1078.019</ele>
        <time>2019-10-16T17:40:10Z</time>
      </trkpt>
      <trkpt lat="-22.187166" lon="-45.273730">
        <ele>1079.708</ele>
        <time>2019-10-16T17:40:13Z</time>
      </trkpt>
      <trkpt lat="-22.187207" lon="-45.273668">
        <ele>1081.760</ele>
        <time>2019-10-16T17:40:17Z</time>
      </trkpt>
      <trkpt lat="-22.187242" lon="-45.273605">
        <ele>1083.428</ele>
        <time>2019-10-16T17:40:20Z</time>
      </trkpt>
      <trkpt lat="-22.187249" lon="-45.273547">
        <ele>1083.691</ele>
        <time>2019-10-16T17:40:23Z</time>
      </trkpt>
      <trkpt lat="-22.187250" lon="-45.273490">
        <ele>1083.469</ele>
        <time>2019-10-16T17:40:27Z</time>
      </trkpt>
      <trkpt lat="-22.187240" lon="-45.273439">
        <ele>1082.759</ele>
        <time>2019-10-16T17:40:31Z</time>
      </trkpt>
      <trkpt lat="-22.187241" lon="-45.273382">
        <ele>1082.631</ele>
        <time>2019-10-16T17:40:36Z</time>
      </trkpt>
      <trkpt lat="-22.187267" lon="-45.273334">
        <ele>1083.985</ele>
        <time>2019-10-16T17:40:40Z</time>
      </trkpt>
      <trkpt lat="-22.187294" lon="-45.273293">
        <ele>1085.492</ele>
        <time>2019-10-16T17:40:44Z</time>
      </trkpt>
      <trkpt lat="-22.187321" lon="-45.273252">
        <ele>1086.968</ele>
        <time>2019-10-16T17:40:48Z</time>
      </trkpt>
      <trkpt lat="-22.187353" lon="-45.273211">
        <ele>1088.842</ele>
        <time>2019-10-16T17:41:05Z</time>
      </trkpt>
      <trkpt lat="-22.187350" lon="-45.273156">
        <ele>1088.626</ele>
        <time>2019-10-16T17:41:41Z</time>
      </trkpt>
      <trkpt lat="-22.187378" lon="-45.273116">
        <ele>1090.208</ele>
        <time>2019-10-16T17:41:43Z</time>
      </trkpt>
      <trkpt lat="-22.187409" lon="-45.273048">
        <ele>1091.950</ele>
        <time>2019-10-16T17:41:46Z</time>
      </trkpt>
      <trkpt lat="-22.187419" lon="-45.272993">
        <ele>1092.528</ele>
        <time>2019-10-16T17:41:49Z</time>
      </trkpt>
      <trkpt lat="-22.187430" lon="-45.272938">
        <ele>1093.171</ele>
        <time>2019-10-16T17:41:52Z</time>
      </trkpt>
      <trkpt lat="-22.187429" lon="-45.272884">
        <ele>1093.119</ele>
        <time>2019-10-16T17:41:55Z</time>
      </trkpt>
      <trkpt lat="-22.187423" lon="-45.272827">
        <ele>1092.829</ele>
        <time>2019-10-16T17:41:58Z</time>
      </trkpt>
      <trkpt lat="-22.187413" lon="-45.272775">
        <ele>1092.261</ele>
        <time>2019-10-16T17:42:00Z</time>
      </trkpt>
      <trkpt lat="-22.187407" lon="-45.272711">
        <ele>1091.925</ele>
        <time>2019-10-16T17:42:04Z</time>
      </trkpt>
      <trkpt lat="-22.187406" lon="-45.272659">
        <ele>1091.912</ele>
        <time>2019-10-16T17:42:07Z</time>
      </trkpt>
      <trkpt lat="-22.187417" lon="-45.272602">
        <ele>1092.525</ele>
        <time>2019-10-16T17:42:11Z</time>
      </trkpt>
      <trkpt lat="-22.187446" lon="-45.272559">
        <ele>1094.126</ele>
        <time>2019-10-16T17:42:14Z</time>
      </trkpt>
      <trkpt lat="-22.187484" lon="-45.272514">
        <ele>1096.108</ele>
        <time>2019-10-16T17:42:20Z</time>
      </trkpt>
      <trkpt lat="-22.187513" lon="-45.272475">
        <ele>1097.708</ele>
        <time>2019-10-16T17:42:25Z</time>
      </trkpt>
      <trkpt lat="-22.187541" lon="-45.272423">
        <ele>1099.116</ele>
        <time>2019-10-16T17:42:30Z</time>
      </trkpt>
      <trkpt lat="-22.187553" lon="-45.272372">
        <ele>1099.574</ele>
        <time>2019-10-16T17:42:33Z</time>
      </trkpt>
      <trkpt lat="-22.187567" lon="-45.272323">
        <ele>1100.097</ele>
        <time>2019-10-16T17:42:37Z</time>
      </trkpt>
      <trkpt lat="-22.187575" lon="-45.272259">
        <ele>1100.195</ele>
        <time>2019-10-16T17:42:41Z</time>
      </trkpt>
      <trkpt lat="-22.187583" lon="-45.272211">
        <ele>1100.345</ele>
        <time>2019-10-16T17:42:46Z</time>
      </trkpt>
      <trkpt lat="-22.187595" lon="-45.272162">
        <ele>1100.727</ele>
        <time>2019-10-16T17:42:51Z</time>
      </trkpt>
      <trkpt lat="-22.187609" lon="-45.272110">
        <ele>1101.261</ele>
        <time>2019-10-16T17:42:57Z</time>
      </trkpt>
      <trkpt lat="-22.187617" lon="-45.272060">
        <ele>1101.338</ele>
        <time>2019-10-16T17:43:01Z</time>
      </trkpt>
      <trkpt lat="-22.187624" lon="-45.272009">
        <ele>1101.449</ele>
        <time>2019-10-16T17:43:05Z</time>
      </trkpt>
      <trkpt lat="-22.187631" lon="-45.271936">
        <ele>1101.302</ele>
        <time>2019-10-16T17:43:11Z</time>
      </trkpt>
      <trkpt lat="-22.187648" lon="-45.271859">
        <ele>1101.722</ele>
        <time>2019-10-16T17:43:17Z</time>
      </trkpt>
      <trkpt lat="-22.187663" lon="-45.271807">
        <ele>1102.208</ele>
        <time>2019-10-16T17:43:23Z</time>
      </trkpt>
      <trkpt lat="-22.187679" lon="-45.271740">
        <ele>1102.568</ele>
        <time>2019-10-16T17:43:30Z</time>
      </trkpt>
      <trkpt lat="-22.187688" lon="-45.271683">
        <ele>1102.616</ele>
        <time>2019-10-16T17:43:35Z</time>
      </trkpt>
      <trkpt lat="-22.187709" lon="-45.271625">
        <ele>1103.949</ele>
        <time>2019-10-16T17:43:40Z</time>
      </trkpt>
      <trkpt lat="-22.187736" lon="-45.271575">
        <ele>1105.617</ele>
        <time>2019-10-16T17:43:45Z</time>
      </trkpt>
      <trkpt lat="-22.187752" lon="-45.271489">
        <ele>1107.097</ele>
        <time>2019-10-16T17:44:45Z</time>
      </trkpt>
      <trkpt lat="-22.187766" lon="-45.271435">
        <ele>1108.019</ele>
        <time>2019-10-16T17:44:51Z</time>
      </trkpt>
      <trkpt lat="-22.187800" lon="-45.271394">
        <ele>1109.793</ele>
        <time>2019-10-16T17:44:54Z</time>
      </trkpt>
      <trkpt lat="-22.187820" lon="-45.271345">
        <ele>1110.820</ele>
        <time>2019-10-16T17:44:58Z</time>
      </trkpt>
      <trkpt lat="-22.187855" lon="-45.271288">
        <ele>1112.566</ele>
        <time>2019-10-16T17:45:05Z</time>
      </trkpt>
      <trkpt lat="-22.187879" lon="-45.271235">
        <ele>1113.629</ele>
        <time>2019-10-16T17:45:09Z</time>
      </trkpt>
      <trkpt lat="-22.187901" lon="-45.271187">
        <ele>1114.621</ele>
        <time>2019-10-16T17:45:11Z</time>
      </trkpt>
      <trkpt lat="-22.187913" lon="-45.271133">
        <ele>1115.208</ele>
        <time>2019-10-16T17:45:14Z</time>
      </trkpt>
      <trkpt lat="-22.187940" lon="-45.271091">
        <ele>1116.220</ele>
        <time>2019-10-16T17:45:19Z</time>
      </trkpt>
      <trkpt lat="-22.187972" lon="-45.271051">
        <ele>1117.388</ele>
        <time>2019-10-16T17:45:23Z</time>
      </trkpt>
      <trkpt lat="-22.188005" lon="-45.271007">
        <ele>1118.451</ele>
        <time>2019-10-16T17:45:29Z</time>
      </trkpt>
      <trkpt lat="-22.188028" lon="-45.270958">
        <ele>1119.089</ele>
        <time>2019-10-16T17:45:45Z</time>
      </trkpt>
      <trkpt lat="-22.188046" lon="-45.270910">
        <ele>1119.549</ele>
        <time>2019-10-16T17:46:07Z</time>
      </trkpt>
      <trkpt lat="-22.188066" lon="-45.270865">
        <ele>1120.041</ele>
        <time>2019-10-16T17:46:14Z</time>
      </trkpt>
      <trkpt lat="-22.188097" lon="-45.270808">
        <ele>1121.045</ele>
        <time>2019-10-16T17:46:21Z</time>
      </trkpt>
      <trkpt lat="-22.188111" lon="-45.270761">
        <ele>1121.932</ele>
        <time>2019-10-16T17:46:46Z</time>
      </trkpt>
      <trkpt lat="-22.188138" lon="-45.270713">
        <ele>1123.111</ele>
        <time>2019-10-16T17:46:52Z</time>
      </trkpt>
      <trkpt lat="-22.188155" lon="-45.270668">
        <ele>1123.921</ele>
        <time>2019-10-16T17:47:01Z</time>
      </trkpt>
      <trkpt lat="-22.188203" lon="-45.270613">
        <ele>1125.303</ele>
        <time>2019-10-16T17:47:13Z</time>
      </trkpt>
      <trkpt lat="-22.188241" lon="-45.270582">
        <ele>1126.208</ele>
        <time>2019-10-16T17:47:20Z</time>
      </trkpt>
      <trkpt lat="-22.188277" lon="-45.270547">
        <ele>1127.145</ele>
        <time>2019-10-16T17:47:26Z</time>
      </trkpt>
      <trkpt lat="-22.188329" lon="-45.270514">
        <ele>1128.153</ele>
        <time>2019-10-16T17:47:35Z</time>
      </trkpt>
      <trkpt lat="-22.188485" lon="-45.270417">
        <ele>1124.116</ele>
        <time>2019-10-16T17:49:43Z</time>
      </trkpt>
      <trkpt lat="-22.188515" lon="-45.270379">
        <ele>1123.224</ele>
        <time>2019-10-16T17:49:45Z</time>
      </trkpt>
      <trkpt lat="-22.188558" lon="-45.270340">
        <ele>1121.914</ele>
        <time>2019-10-16T17:49:48Z</time>
      </trkpt>
      <trkpt lat="-22.188641" lon="-45.270304">
        <ele>1119.226</ele>
        <time>2019-10-16T17:49:50Z</time>
      </trkpt>
      <trkpt lat="-22.188691" lon="-45.270310">
        <ele>1117.750</ele>
        <time>2019-10-16T17:49:51Z</time>
      </trkpt>
      <trkpt lat="-22.188749" lon="-45.270329">
        <ele>1116.067</ele>
        <time>2019-10-16T17:49:53Z</time>
      </trkpt>
      <trkpt lat="-22.190075" lon="-45.271003">
        <ele>1089.335</ele>
        <time>2019-10-16T17:50:26Z</time>
      </trkpt>
      <trkpt lat="-22.190248" lon="-45.270705">
        <ele>1078.086</ele>
        <time>2019-10-16T17:50:31Z</time>
      </trkpt>
      <trkpt lat="-22.190312" lon="-45.270638">
        <ele>1076.014</ele>
        <time>2019-10-16T17:50:34Z</time>
      </trkpt>
      <trkpt lat="-22.200330" lon="-45.262699">
        <ele>1018.508</ele>
        <time>2019-10-16T17:53:58Z</time>
      </trkpt>
      <trkpt lat="-22.200391" lon="-45.262687">
        <ele>1018.797</ele>
        <time>2019-10-16T17:54:01Z</time>
      </trkpt>
      <trkpt lat="-22.200431" lon="-45.262658">
        <ele>1018.645</ele>
        <time>2019-10-16T17:54:04Z</time>
      </trkpt>
      <trkpt lat="-22.200490" lon="-45.262622">
        <ele>1018.438</ele>
        <time>2019-10-16T17:54:07Z</time>
      </trkpt>
      <trkpt lat="-22.200542" lon="-45.262602">
        <ele>1018.516</ele>
        <time>2019-10-16T17:54:09Z</time>
      </trkpt>
      <trkpt lat="-22.200588" lon="-45.262581">
        <ele>1018.596</ele>
        <time>2019-10-16T17:54:11Z</time>
      </trkpt>
      <trkpt lat="-22.200659" lon="-45.262550">
        <ele>1018.528</ele>
        <time>2019-10-16T17:54:14Z</time>
      </trkpt>
      <trkpt lat="-22.200752" lon="-45.262496">
        <ele>1018.482</ele>
        <time>2019-10-16T17:54:17Z</time>
      </trkpt>
      <trkpt lat="-22.200795" lon="-45.262473">
        <ele>1018.369</ele>
        <time>2019-10-16T17:54:19Z</time>
      </trkpt>
      <trkpt lat="-22.200845" lon="-45.262445">
        <ele>1018.346</ele>
        <time>2019-10-16T17:54:21Z</time>
      </trkpt>
      <trkpt lat="-22.200921" lon="-45.262399">
        <ele>1018.588</ele>
        <time>2019-10-16T17:54:24Z</time>
      </trkpt>
      <trkpt lat="-22.200975" lon="-45.262367">
        <ele>1018.716</ele>
        <time>2019-10-16T17:54:26Z</time>
      </trkpt>
      <trkpt lat="-22.201025" lon="-45.262339">
        <ele>1018.808</ele>
        <time>2019-10-16T17:54:28Z</time>
      </trkpt>
      <trkpt lat="-22.201081" lon="-45.262311">
        <ele>1019.138</ele>
        <time>2019-10-16T17:54:31Z</time>
      </trkpt>
      <trkpt lat="-22.201122" lon="-45.262285">
        <ele>1019.136</ele>
        <time>2019-10-16T17:54:33Z</time>
      </trkpt>
      <trkpt lat="-22.201184" lon="-45.262243">
        <ele>1019.179</ele>
        <time>2019-10-16T17:54:35Z</time>
      </trkpt>
      <trkpt lat="-22.201235" lon="-45.262215">
        <ele>1019.227</ele>
        <time>2019-10-16T17:54:37Z</time>
      </trkpt>
      <trkpt lat="-22.201282" lon="-45.262185">
        <ele>1019.297</ele>
        <time>2019-10-16T17:54:40Z</time>
      </trkpt>
      <trkpt lat="-22.201331" lon="-45.262157">
        <ele>1019.269</ele>
        <time>2019-10-16T17:54:42Z</time>
      </trkpt>
      <trkpt lat="-22.201396" lon="-45.262116">
        <ele>1019.233</ele>
        <time>2019-10-16T17:54:44Z</time>
      </trkpt>
      <trkpt lat="-22.201454" lon="-45.262085">
        <ele>1019.220</ele>
        <time>2019-10-16T17:54:46Z</time>
      </trkpt>
      <trkpt lat="-22.201507" lon="-45.262058">
        <ele>1019.341</ele>
        <time>2019-10-16T17:54:49Z</time>
      </trkpt>
      <trkpt lat="-22.201549" lon="-45.262037">
        <ele>1019.381</ele>
        <time>2019-10-16T17:54:50Z</time>
      </trkpt>
      <trkpt lat="-22.201592" lon="-45.262016">
        <ele>1019.309</ele>
        <time>2019-10-16T17:54:52Z</time>
      </trkpt>
      <trkpt lat="-22.201634" lon="-45.261996">
        <ele>1019.408</ele>
        <time>2019-10-16T17:54:54Z</time>
      </trkpt>
      <trkpt lat="-22.201700" lon="-45.261968">
        <ele>1019.448</ele>
        <time>2019-10-16T17:54:56Z</time>
      </trkpt>
      <trkpt lat="-22.201748" lon="-45.261944">
        <ele>1019.296</ele>
        <time>2019-10-16T17:54:58Z</time>
      </trkpt>
      <trkpt lat="-22.201790" lon="-45.261926">
        <ele>1019.159</ele>
        <time>2019-10-16T17:54:59Z</time>
      </trkpt>
      <trkpt lat="-22.201853" lon="-45.261903">
        <ele>1019.067</ele>
        <time>2019-10-16T17:55:01Z</time>
      </trkpt>
      <trkpt lat="-22.201939" lon="-45.261878">
        <ele>1018.947</ele>
        <time>2019-10-16T17:55:04Z</time>
      </trkpt>
      <trkpt lat="-22.202002" lon="-45.261863">
        <ele>1018.969</ele>
        <time>2019-10-16T17:55:07Z</time>
      </trkpt>
      <trkpt lat="-22.202068" lon="-45.261851">
        <ele>1018.993</ele>
        <time>2019-10-16T17:55:09Z</time>
      </trkpt>
      <trkpt lat="-22.202115" lon="-45.261839">
        <ele>1018.840</ele>
        <time>2019-10-16T17:55:10Z</time>
      </trkpt>
      <trkpt lat="-22.202186" lon="-45.261830">
        <ele>1018.991</ele>
        <time>2019-10-16T17:55:13Z</time>
      </trkpt>
      <trkpt lat="-22.202260" lon="-45.261825">
        <ele>1019.181</ele>
        <time>2019-10-16T17:55:16Z</time>
      </trkpt>
      <trkpt lat="-22.202331" lon="-45.261825">
        <ele>1019.519</ele>
        <time>2019-10-16T17:55:18Z</time>
      </trkpt>
      <trkpt lat="-22.202381" lon="-45.261824">
        <ele>1019.708</ele>
        <time>2019-10-16T17:55:19Z</time>
      </trkpt>
      <trkpt lat="-22.202444" lon="-45.261829">
        <ele>1020.293</ele>
        <time>2019-10-16T17:55:21Z</time>
      </trkpt>
      <trkpt lat="-22.202519" lon="-45.261837">
        <ele>1020.641</ele>
        <time>2019-10-16T17:55:24Z</time>
      </trkpt>
      <trkpt lat="-22.202601" lon="-45.261848">
        <ele>1020.394</ele>
        <time>2019-10-16T17:55:27Z</time>
      </trkpt>
      <trkpt lat="-22.202650" lon="-45.261856">
        <ele>1020.132</ele>
        <time>2019-10-16T17:55:29Z</time>
      </trkpt>
      <trkpt lat="-22.202719" lon="-45.261868">
        <ele>1020.032</ele>
        <time>2019-10-16T17:55:31Z</time>
      </trkpt>
      <trkpt lat="-22.202778" lon="-45.261882">
        <ele>1020.014</ele>
        <time>2019-10-16T17:55:32Z</time>
      </trkpt>
      <trkpt lat="-22.202853" lon="-45.261895">
        <ele>1019.888</ele>
        <time>2019-10-16T17:55:34Z</time>
      </trkpt>
      <trkpt lat="-22.202923" lon="-45.261906">
        <ele>1019.615</ele>
        <time>2019-10-16T17:55:37Z</time>
      </trkpt>
      <trkpt lat="-22.202968" lon="-45.261914">
        <ele>1019.546</ele>
        <time>2019-10-16T17:55:38Z</time>
      </trkpt>
      <trkpt lat="-22.203021" lon="-45.261928">
        <ele>1019.688</ele>
        <time>2019-10-16T17:55:39Z</time>
      </trkpt>
      <trkpt lat="-22.203069" lon="-45.261940">
        <ele>1019.616</ele>
        <time>2019-10-16T17:55:41Z</time>
      </trkpt>
      <trkpt lat="-22.203123" lon="-45.261953">
        <ele>1019.608</ele>
        <time>2019-10-16T17:55:43Z</time>
      </trkpt>
      <trkpt lat="-22.203178" lon="-45.261968">
        <ele>1019.798</ele>
        <time>2019-10-16T17:55:44Z</time>
      </trkpt>
      <trkpt lat="-22.203272" lon="-45.261994">
        <ele>1019.966</ele>
        <time>2019-10-16T17:55:47Z</time>
      </trkpt>
      <trkpt lat="-22.203322" lon="-45.262012">
        <ele>1020.129</ele>
        <time>2019-10-16T17:55:48Z</time>
      </trkpt>
      <trkpt lat="-22.203379" lon="-45.262033">
        <ele>1019.917</ele>
        <time>2019-10-16T17:55:50Z</time>
      </trkpt>
      <trkpt lat="-22.203457" lon="-45.262058">
        <ele>1019.367</ele>
        <time>2019-10-16T17:55:53Z</time>
      </trkpt>
      <trkpt lat="-22.206170" lon="-45.263947">
        <ele>1003.479</ele>
        <time>2019-10-16T17:57:03Z</time>
      </trkpt>
      <trkpt lat="-22.206215" lon="-45.263960">
        <ele>1003.243</ele>
        <time>2019-10-16T17:57:07Z</time>
      </trkpt>
      <trkpt lat="-22.206306" lon="-45.263863">
        <ele>1002.280</ele>
        <time>2019-10-16T17:58:06Z</time>
      </trkpt>
      <trkpt lat="-22.206354" lon="-45.263835">
        <ele>1001.798</ele>
        <time>2019-10-16T17:58:08Z</time>
      </trkpt>
      <trkpt lat="-22.206402" lon="-45.263803">
        <ele>1001.215</ele>
        <time>2019-10-16T17:58:10Z</time>
      </trkpt>
      <trkpt lat="-22.206433" lon="-45.263768">
        <ele>1000.826</ele>
        <time>2019-10-16T17:58:11Z</time>
      </trkpt>
      <trkpt lat="-22.206458" lon="-45.263708">
        <ele>1000.208</ele>
        <time>2019-10-16T17:58:14Z</time>
      </trkpt>
      <trkpt lat="-22.206472" lon="-45.263650">
        <ele>999.863</ele>
        <time>2019-10-16T17:58:17Z</time>
      </trkpt>
      <trkpt lat="-22.206454" lon="-45.263573">
        <ele>999.581</ele>
        <time>2019-10-16T17:58:29Z</time>
      </trkpt>
      <trkpt lat="-22.206413" lon="-45.263545">
        <ele>999.674</ele>
        <time>2019-10-16T17:58:31Z</time>
      </trkpt>
      <trkpt lat="-22.206376" lon="-45.263511">
        <ele>999.872</ele>
        <time>2019-10-16T17:58:33Z</time>
      </trkpt>
      <trkpt lat="-22.206333" lon="-45.263468">
        <ele>999.932</ele>
        <time>2019-10-16T17:58:37Z</time>
      </trkpt>
      <trkpt lat="-22.206295" lon="-45.263433">
        <ele>1000.134</ele>
        <time>2019-10-16T17:58:39Z</time>
      </trkpt>
      <trkpt lat="-22.206257" lon="-45.263392">
        <ele>1000.218</ele>
        <time>2019-10-16T17:58:41Z</time>
      </trkpt>
      <trkpt lat="-22.206219" lon="-45.263352">
        <ele>1000.455</ele>
        <time>2019-10-16T17:58:43Z</time>
      </trkpt>
      <trkpt lat="-22.206177" lon="-45.263312">
        <ele>1000.715</ele>
        <time>2019-10-16T17:58:46Z</time>
      </trkpt>
      <trkpt lat="-22.206133" lon="-45.263265">
        <ele>1001.165</ele>
        <time>2019-10-16T17:58:49Z</time>
      </trkpt>
      <trkpt lat="-22.206095" lon="-45.263236">
        <ele>1001.411</ele>
        <time>2019-10-16T17:58:51Z</time>
      </trkpt>
      <trkpt lat="-22.206026" lon="-45.263166">
        <ele>1001.908</ele>
        <time>2019-10-16T17:58:55Z</time>
      </trkpt>
      <trkpt lat="-22.205993" lon="-45.263122">
        <ele>1002.095</ele>
        <time>2019-10-16T17:58:57Z</time>
      </trkpt>
      <trkpt lat="-22.205958" lon="-45.263080">
        <ele>1002.213</ele>
        <time>2019-10-16T17:58:59Z</time>
      </trkpt>
      <trkpt lat="-22.205897" lon="-45.263041">
        <ele>1002.576</ele>
        <time>2019-10-16T17:59:02Z</time>
      </trkpt>
      <trkpt lat="-22.205858" lon="-45.263006">
        <ele>1002.784</ele>
        <time>2019-10-16T17:59:05Z</time>
      </trkpt>
      <trkpt lat="-22.205824" lon="-45.262970">
        <ele>1002.754</ele>
        <time>2019-10-16T17:59:09Z</time>
      </trkpt>
      <trkpt lat="-22.205767" lon="-45.262938">
        <ele>1002.686</ele>
        <time>2019-10-16T17:59:46Z</time>
      </trkpt>
      <trkpt lat="-22.205750" lon="-45.263010">
        <ele>1002.960</ele>
        <time>2019-10-16T17:59:49Z</time>
      </trkpt>
      <trkpt lat="-22.205792" lon="-45.263042">
        <ele>1003.057</ele>
        <time>2019-10-16T17:59:51Z</time>
      </trkpt>
      <trkpt lat="-22.205836" lon="-45.263075">
        <ele>1003.147</ele>
        <time>2019-10-16T17:59:53Z</time>
      </trkpt>
      <trkpt lat="-22.205876" lon="-45.263101">
        <ele>1002.929</ele>
        <time>2019-10-16T17:59:56Z</time>
      </trkpt>
      <trkpt lat="-22.205913" lon="-45.263143">
        <ele>1002.721</ele>
        <time>2019-10-16T17:59:58Z</time>
      </trkpt>
      <trkpt lat="-22.205962" lon="-45.263193">
        <ele>1002.408</ele>
        <time>2019-10-16T18:00:00Z</time>
      </trkpt>
      <trkpt lat="-22.206000" lon="-45.263233">
        <ele>1002.298</ele>
        <time>2019-10-16T18:00:02Z</time>
      </trkpt>
      <trkpt lat="-22.206050" lon="-45.263284">
        <ele>1001.956</ele>
        <time>2019-10-16T18:00:05Z</time>
      </trkpt>
      <trkpt lat="-22.206091" lon="-45.263327">
        <ele>1001.589</ele>
        <time>2019-10-16T18:00:07Z</time>
      </trkpt>
      <trkpt lat="-22.206134" lon="-45.263372">
        <ele>1001.337</ele>
        <time>2019-10-16T18:00:09Z</time>
      </trkpt>
      <trkpt lat="-22.206188" lon="-45.263421">
        <ele>1001.047</ele>
        <time>2019-10-16T18:00:11Z</time>
      </trkpt>
      <trkpt lat="-22.206223" lon="-45.263460">
        <ele>1000.889</ele>
        <time>2019-10-16T18:00:13Z</time>
      </trkpt>
      <trkpt lat="-22.206275" lon="-45.263505">
        <ele>1000.643</ele>
        <time>2019-10-16T18:00:15Z</time>
      </trkpt>
      <trkpt lat="-22.206316" lon="-45.263547">
        <ele>1000.580</ele>
        <time>2019-10-16T18:00:17Z</time>
      </trkpt>
      <trkpt lat="-22.206359" lon="-45.263595">
        <ele>1000.472</ele>
        <time>2019-10-16T18:00:18Z</time>
      </trkpt>
      <trkpt lat="-22.206399" lon="-45.263630">
        <ele>1000.213</ele>
        <time>2019-10-16T18:00:20Z</time>
      </trkpt>
      <trkpt lat="-22.206433" lon="-45.263669">
        <ele>1000.214</ele>
        <time>2019-10-16T18:00:21Z</time>
      </trkpt>
      <trkpt lat="-22.206464" lon="-45.263711">
        <ele>1000.208</ele>
        <time>2019-10-16T18:00:24Z</time>
      </trkpt>
      <trkpt lat="-22.206505" lon="-45.263749">
        <ele>1000.281</ele>
        <time>2019-10-16T18:00:26Z</time>
      </trkpt>
      <trkpt lat="-22.206552" lon="-45.263760">
        <ele>999.959</ele>
        <time>2019-10-16T18:00:27Z</time>
      </trkpt>
      <trkpt lat="-22.206628" lon="-45.263767">
        <ele>999.422</ele>
        <time>2019-10-16T18:00:30Z</time>
      </trkpt>
      <trkpt lat="-22.206781" lon="-45.263731">
        <ele>998.790</ele>
        <time>2019-10-16T18:00:33Z</time>
      </trkpt>
      <trkpt lat="-22.206836" lon="-45.263719">
        <ele>998.680</ele>
        <time>2019-10-16T18:00:36Z</time>
      </trkpt>
      <trkpt lat="-22.207016" lon="-45.263665">
        <ele>998.272</ele>
        <time>2019-10-16T18:00:40Z</time>
      </trkpt>
      <trkpt lat="-22.207084" lon="-45.263644">
        <ele>998.126</ele>
        <time>2019-10-16T18:00:42Z</time>
      </trkpt>
      <trkpt lat="-22.207135" lon="-45.263635">
        <ele>998.123</ele>
        <time>2019-10-16T18:00:43Z</time>
      </trkpt>
      <trkpt lat="-22.207208" lon="-45.263622">
        <ele>998.098</ele>
        <time>2019-10-16T18:00:45Z</time>
      </trkpt>
      <trkpt lat="-22.207259" lon="-45.263615">
        <ele>998.015</ele>
        <time>2019-10-16T18:00:47Z</time>
      </trkpt>
      <trkpt lat="-22.207306" lon="-45.263605">
        <ele>998.026</ele>
        <time>2019-10-16T18:00:49Z</time>
      </trkpt>
      <trkpt lat="-22.207358" lon="-45.263591">
        <ele>998.008</ele>
        <time>2019-10-16T18:00:51Z</time>
      </trkpt>
      <trkpt lat="-22.207411" lon="-45.263583">
        <ele>998.033</ele>
        <time>2019-10-16T18:00:52Z</time>
      </trkpt>
      <trkpt lat="-22.207461" lon="-45.263578">
        <ele>998.091</ele>
        <time>2019-10-16T18:00:54Z</time>
      </trkpt>
      <trkpt lat="-22.207515" lon="-45.263568">
        <ele>998.034</ele>
        <time>2019-10-16T18:00:55Z</time>
      </trkpt>
      <trkpt lat="-22.207583" lon="-45.263552">
        <ele>998.372</ele>
        <time>2019-10-16T18:00:58Z</time>
      </trkpt>
      <trkpt lat="-22.207655" lon="-45.263540">
        <ele>998.562</ele>
        <time>2019-10-16T18:00:59Z</time>
      </trkpt>
      <trkpt lat="-22.207716" lon="-45.263532">
        <ele>998.794</ele>
        <time>2019-10-16T18:01:02Z</time>
      </trkpt>
      <trkpt lat="-22.207761" lon="-45.263525">
        <ele>998.968</ele>
        <time>2019-10-16T18:01:04Z</time>
      </trkpt>
      <trkpt lat="-22.207821" lon="-45.263512">
        <ele>999.125</ele>
        <time>2019-10-16T18:01:06Z</time>
      </trkpt>
      <trkpt lat="-22.207876" lon="-45.263504">
        <ele>999.346</ele>
        <time>2019-10-16T18:01:07Z</time>
      </trkpt>
      <trkpt lat="-22.207944" lon="-45.263495">
        <ele>999.688</ele>
        <time>2019-10-16T18:01:09Z</time>
      </trkpt>
      <trkpt lat="-22.207992" lon="-45.263485">
        <ele>999.816</ele>
        <time>2019-10-16T18:01:11Z</time>
      </trkpt>
      <trkpt lat="-22.208065" lon="-45.263471">
        <ele>1000.208</ele>
        <time>2019-10-16T18:01:14Z</time>
      </trkpt>
      <trkpt lat="-22.208170" lon="-45.263434">
        <ele>1000.738</ele>
        <time>2019-10-16T18:01:48Z</time>
      </trkpt>
      <trkpt lat="-22.208222" lon="-45.263432">
        <ele>1001.096</ele>
        <time>2019-10-16T18:01:50Z</time>
      </trkpt>
      <trkpt lat="-22.208269" lon="-45.263425">
        <ele>1001.289</ele>
        <time>2019-10-16T18:01:53Z</time>
      </trkpt>
      <trkpt lat="-22.208318" lon="-45.263401">
        <ele>1001.597</ele>
        <time>2019-10-16T18:01:55Z</time>
      </trkpt>
      <trkpt lat="-22.208366" lon="-45.263389">
        <ele>1001.957</ele>
        <time>2019-10-16T18:01:58Z</time>
      </trkpt>
      <trkpt lat="-22.208414" lon="-45.263376">
        <ele>1002.489</ele>
        <time>2019-10-16T18:02:02Z</time>
      </trkpt>
      <trkpt lat="-22.208473" lon="-45.263371">
        <ele>1002.973</ele>
        <time>2019-10-16T18:02:05Z</time>
      </trkpt>
      <trkpt lat="-22.208521" lon="-45.263357">
        <ele>1003.460</ele>
        <time>2019-10-16T18:02:10Z</time>
      </trkpt>
      <trkpt lat="-22.208569" lon="-45.263340">
        <ele>1003.957</ele>
        <time>2019-10-16T18:02:15Z</time>
      </trkpt>
      <trkpt lat="-22.208613" lon="-45.263322">
        <ele>1004.300</ele>
        <time>2019-10-16T18:02:20Z</time>
      </trkpt>
      <trkpt lat="-22.208656" lon="-45.263307">
        <ele>1004.620</ele>
        <time>2019-10-16T18:02:23Z</time>
      </trkpt>
      <trkpt lat="-22.208700" lon="-45.263295">
        <ele>1004.908</ele>
        <time>2019-10-16T18:02:28Z</time>
      </trkpt>
      <trkpt lat="-22.208764" lon="-45.263270">
        <ele>1005.399</ele>
        <time>2019-10-16T18:02:37Z</time>
      </trkpt>
      <trkpt lat="-22.208809" lon="-45.263243">
        <ele>1005.577</ele>
        <time>2019-10-16T18:02:41Z</time>
      </trkpt>
      <trkpt lat="-22.208854" lon="-45.263220">
        <ele>1005.820</ele>
        <time>2019-10-16T18:02:45Z</time>
      </trkpt>
      <trkpt lat="-22.208900" lon="-45.263202">
        <ele>1006.168</ele>
        <time>2019-10-16T18:02:49Z</time>
      </trkpt>
      <trkpt lat="-22.208953" lon="-45.263194">
        <ele>1006.558</ele>
        <time>2019-10-16T18:02:53Z</time>
      </trkpt>
      <trkpt lat="-22.209009" lon="-45.263188">
        <ele>1006.990</ele>
        <time>2019-10-16T18:02:57Z</time>
      </trkpt>
      <trkpt lat="-22.209060" lon="-45.263181">
        <ele>1007.214</ele>
        <time>2019-10-16T18:03:01Z</time>
      </trkpt>
      <trkpt lat="-22.209108" lon="-45.263201">
        <ele>1007.721</ele>
        <time>2019-10-16T18:03:03Z</time>
      </trkpt>
      <trkpt lat="-22.209157" lon="-45.263219">
        <ele>1008.243</ele>
        <time>2019-10-16T18:03:05Z</time>
      </trkpt>
      <trkpt lat="-22.209214" lon="-45.263224">
        <ele>1008.464</ele>
        <time>2019-10-16T18:03:07Z</time>
      </trkpt>
      <trkpt lat="-22.209273" lon="-45.263210">
        <ele>1008.410</ele>
        <time>2019-10-16T18:03:11Z</time>
      </trkpt>
      <trkpt lat="-22.209329" lon="-45.263209">
        <ele>1008.408</ele>
        <time>2019-10-16T18:03:13Z</time>
      </trkpt>
      <trkpt lat="-22.209375" lon="-45.263202">
        <ele>1008.458</ele>
        <time>2019-10-16T18:03:16Z</time>
      </trkpt>
      <trkpt lat="-22.209421" lon="-45.263193">
        <ele>1008.476</ele>
        <time>2019-10-16T18:03:17Z</time>
      </trkpt>
      <trkpt lat="-22.209473" lon="-45.263190">
        <ele>1008.569</ele>
        <time>2019-10-16T18:03:20Z</time>
      </trkpt>
      <trkpt lat="-22.209527" lon="-45.263187">
        <ele>1008.567</ele>
        <time>2019-10-16T18:03:23Z</time>
      </trkpt>
      <trkpt lat="-22.209576" lon="-45.263183">
        <ele>1008.567</ele>
        <time>2019-10-16T18:03:25Z</time>
      </trkpt>
      <trkpt lat="-22.209629" lon="-45.263176">
        <ele>1008.699</ele>
        <time>2019-10-16T18:03:27Z</time>
      </trkpt>
      <trkpt lat="-22.209692" lon="-45.263164">
        <ele>1008.613</ele>
        <time>2019-10-16T18:03:29Z</time>
      </trkpt>
      <trkpt lat="-22.209750" lon="-45.263163">
        <ele>1008.790</ele>
        <time>2019-10-16T18:03:32Z</time>
      </trkpt>
      <trkpt lat="-22.209819" lon="-45.263155">
        <ele>1008.863</ele>
        <time>2019-10-16T18:03:35Z</time>
      </trkpt>
      <trkpt lat="-22.209868" lon="-45.263137">
        <ele>1008.844</ele>
        <time>2019-10-16T18:03:36Z</time>
      </trkpt>
      <trkpt lat="-22.209921" lon="-45.263126">
        <ele>1008.918</ele>
        <time>2019-10-16T18:03:39Z</time>
      </trkpt>
      <trkpt lat="-22.209969" lon="-45.263122">
        <ele>1009.008</ele>
        <time>2019-10-16T18:03:41Z</time>
      </trkpt>
      <trkpt lat="-22.210023" lon="-45.263114">
        <ele>1009.350</ele>
        <time>2019-10-16T18:03:43Z</time>
      </trkpt>
      <trkpt lat="-22.210109" lon="-45.263097">
        <ele>1010.378</ele>
        <time>2019-10-16T18:03:46Z</time>
      </trkpt>
      <trkpt lat="-22.210160" lon="-45.263095">
        <ele>1010.981</ele>
        <time>2019-10-16T18:03:48Z</time>
      </trkpt>
      <trkpt lat="-22.210214" lon="-45.263090">
        <ele>1011.589</ele>
        <time>2019-10-16T18:03:51Z</time>
      </trkpt>
      <trkpt lat="-22.210262" lon="-45.263090">
        <ele>1012.129</ele>
        <time>2019-10-16T18:03:53Z</time>
      </trkpt>
      <trkpt lat="-22.210309" lon="-45.263127">
        <ele>1012.731</ele>
        <time>2019-10-16T18:03:55Z</time>
      </trkpt>
      <trkpt lat="-22.210335" lon="-45.263171">
        <ele>1013.165</ele>
        <time>2019-10-16T18:03:56Z</time>
      </trkpt>
      <trkpt lat="-22.210363" lon="-45.263217">
        <ele>1013.582</ele>
        <time>2019-10-16T18:03:58Z</time>
      </trkpt>
      <trkpt lat="-22.210395" lon="-45.263257">
        <ele>1014.066</ele>
        <time>2019-10-16T18:04:01Z</time>
      </trkpt>
      <trkpt lat="-22.210436" lon="-45.263300">
        <ele>1014.729</ele>
        <time>2019-10-16T18:04:06Z</time>
      </trkpt>
      <trkpt lat="-22.210393" lon="-45.263315">
        <ele>1014.121</ele>
        <time>2019-10-16T18:07:17Z</time>
      </trkpt>
      <trkpt lat="-22.210395" lon="-45.263264">
        <ele>1014.108</ele>
        <time>2019-10-16T18:08:12Z</time>
      </trkpt>
      <trkpt lat="-22.210376" lon="-45.263310">
        <ele>1013.930</ele>
        <time>2019-10-16T18:09:01Z</time>
      </trkpt>
      <trkpt lat="-22.210399" lon="-45.263352">
        <ele>1014.118</ele>
        <time>2019-10-16T18:09:41Z</time>
      </trkpt>
      <trkpt lat="-22.210436" lon="-45.263323">
        <ele>1014.711</ele>
        <time>2019-10-16T18:09:59Z</time>
      </trkpt>
      <trkpt lat="-22.210427" lon="-45.263274">
        <ele>1014.579</ele>
        <time>2019-10-16T18:10:27Z</time>
      </trkpt>
      <trkpt lat="-22.210385" lon="-45.263255">
        <ele>1013.949</ele>
        <time>2019-10-16T18:10:46Z</time>
      </trkpt>
      <trkpt lat="-22.210415" lon="-45.263291">
        <ele>1014.471</ele>
        <time>2019-10-16T18:13:24Z</time>
      </trkpt>
      <trkpt lat="-22.210378" lon="-45.263263">
        <ele>1013.855</ele>
        <time>2019-10-16T18:15:30Z</time>
      </trkpt>
      <trkpt lat="-22.210360" lon="-45.263216">
        <ele>1013.512</ele>
        <time>2019-10-16T18:17:16Z</time>
      </trkpt>
      <trkpt lat="-22.210392" lon="-45.263250">
        <ele>1014.073</ele>
        <time>2019-10-16T18:19:31Z</time>
      </trkpt>
      <trkpt lat="-22.210432" lon="-45.263225">
        <ele>1014.485</ele>
        <time>2019-10-16T18:20:07Z</time>
      </trkpt>
      <trkpt lat="-22.210404" lon="-45.263268">
        <ele>1014.213</ele>
        <time>2019-10-16T18:20:13Z</time>
      </trkpt>
      <trkpt lat="-22.210376" lon="-45.263227">
        <ele>1013.708</ele>
        <time>2019-10-16T18:23:34Z</time>
      </trkpt>
      <trkpt lat="-22.210349" lon="-45.263140">
        <ele>1013.221</ele>
        <time>2019-10-16T18:23:47Z</time>
      </trkpt>
      <trkpt lat="-22.210417" lon="-45.263144">
        <ele>1014.089</ele>
        <time>2019-10-16T18:23:54Z</time>
      </trkpt>
      <trkpt lat="-22.210456" lon="-45.263174">
        <ele>1014.612</ele>
        <time>2019-10-16T18:23:59Z</time>
      </trkpt>
      <trkpt lat="-22.210427" lon="-45.263228">
        <ele>1014.490</ele>
        <time>2019-10-16T18:24:05Z</time>
      </trkpt>
      <trkpt lat="-22.210393" lon="-45.263270">
        <ele>1014.070</ele>
        <time>2019-10-16T18:24:09Z</time>
      </trkpt>
      <trkpt lat="-22.210363" lon="-45.263228">
        <ele>1013.682</ele>
        <time>2019-10-16T18:25:39Z</time>
      </trkpt>
      <trkpt lat="-22.210315" lon="-45.263238">
        <ele>1013.086</ele>
        <time>2019-10-16T18:26:00Z</time>
      </trkpt>
      <trkpt lat="-22.210278" lon="-45.263208">
        <ele>1012.543</ele>
        <time>2019-10-16T18:26:08Z</time>
      </trkpt>
      <trkpt lat="-22.210269" lon="-45.263152">
        <ele>1012.385</ele>
        <time>2019-10-16T18:26:14Z</time>
      </trkpt>
      <trkpt lat="-22.210285" lon="-45.263206">
        <ele>1012.689</ele>
        <time>2019-10-16T18:26:23Z</time>
      </trkpt>
      <trkpt lat="-22.210283" lon="-45.263258">
        <ele>1012.617</ele>
        <time>2019-10-16T18:26:28Z</time>
      </trkpt>
      <trkpt lat="-22.210277" lon="-45.263311">
        <ele>1012.608</ele>
        <time>2019-10-16T18:26:31Z</time>
      </trkpt>
      <trkpt lat="-22.210266" lon="-45.263362">
        <ele>1012.222</ele>
        <time>2019-10-16T18:26:35Z</time>
      </trkpt>
      <trkpt lat="-22.210276" lon="-45.263411">
        <ele>1011.850</ele>
        <time>2019-10-16T18:27:08Z</time>
      </trkpt>
      <trkpt lat="-22.210232" lon="-45.263436">
        <ele>1010.923</ele>
        <time>2019-10-16T18:27:15Z</time>
      </trkpt>
      <trkpt lat="-22.210263" lon="-45.263472">
        <ele>1010.911</ele>
        <time>2019-10-16T18:27:20Z</time>
      </trkpt>
      <trkpt lat="-22.210276" lon="-45.263523">
        <ele>1010.581</ele>
        <time>2019-10-16T18:27:25Z</time>
      </trkpt>
      <trkpt lat="-22.210231" lon="-45.263528">
        <ele>1009.983</ele>
        <time>2019-10-16T18:32:22Z</time>
      </trkpt>
      <trkpt lat="-22.210301" lon="-45.263366">
        <ele>1012.697</ele>
        <time>2019-10-16T18:32:32Z</time>
      </trkpt>
      <trkpt lat="-22.210423" lon="-45.263318">
        <ele>1014.574</ele>
        <time>2019-10-16T18:32:42Z</time>
      </trkpt>
      <trkpt lat="-22.210483" lon="-45.263302">
        <ele>1015.364</ele>
        <time>2019-10-16T18:33:12Z</time>
      </trkpt>
      <trkpt lat="-22.210440" lon="-45.263232">
        <ele>1014.606</ele>
        <time>2019-10-16T18:33:32Z</time>
      </trkpt>
      <trkpt lat="-22.210396" lon="-45.263315">
        <ele>1014.216</ele>
        <time>2019-10-16T18:33:42Z</time>
      </trkpt>
      <trkpt lat="-22.210377" lon="-45.263258">
        <ele>1013.808</ele>
        <time>2019-10-16T18:34:12Z</time>
      </trkpt>
      <trkpt lat="-22.210382" lon="-45.263311">
        <ele>1014.090</ele>
        <time>2019-10-16T18:35:12Z</time>
      </trkpt>
      <trkpt lat="-22.210423" lon="-45.263252">
        <ele>1014.488</ele>
        <time>2019-10-16T19:06:06Z</time>
      </trkpt>
      <trkpt lat="-22.210478" lon="-45.263226">
        <ele>1015.071</ele>
        <time>2019-10-16T19:06:44Z</time>
      </trkpt>
      <trkpt lat="-22.210432" lon="-45.263202">
        <ele>1014.479</ele>
        <time>2019-10-16T19:11:27Z</time>
      </trkpt>
      <trkpt lat="-22.210386" lon="-45.263174">
        <ele>1013.779</ele>
        <time>2019-10-16T19:11:47Z</time>
      </trkpt>
      <trkpt lat="-22.210341" lon="-45.263096">
        <ele>1013.031</ele>
        <time>2019-10-16T19:12:20Z</time>
      </trkpt>
      <trkpt lat="-22.210302" lon="-45.263070">
        <ele>1012.595</ele>
        <time>2019-10-16T19:12:23Z</time>
      </trkpt>
      <trkpt lat="-22.210268" lon="-45.263037">
        <ele>1012.132</ele>
        <time>2019-10-16T19:12:25Z</time>
      </trkpt>
      <trkpt lat="-22.210222" lon="-45.263014">
        <ele>1011.548</ele>
        <time>2019-10-16T19:12:28Z</time>
      </trkpt>
      <trkpt lat="-22.210168" lon="-45.262985">
        <ele>1010.961</ele>
        <time>2019-10-16T19:12:30Z</time>
      </trkpt>
      <trkpt lat="-22.210110" lon="-45.262956">
        <ele>1010.217</ele>
        <time>2019-10-16T19:12:33Z</time>
      </trkpt>
      <trkpt lat="-22.210050" lon="-45.262944">
        <ele>1009.508</ele>
        <time>2019-10-16T19:12:35Z</time>
      </trkpt>
      <trkpt lat="-22.210001" lon="-45.262944">
        <ele>1009.068</ele>
        <time>2019-10-16T19:12:37Z</time>
      </trkpt>
      <trkpt lat="-22.209928" lon="-45.262960">
        <ele>1008.826</ele>
        <time>2019-10-16T19:12:40Z</time>
      </trkpt>
      <trkpt lat="-22.209869" lon="-45.262974">
        <ele>1008.719</ele>
        <time>2019-10-16T19:12:42Z</time>
      </trkpt>
      <trkpt lat="-22.209818" lon="-45.262992">
        <ele>1008.617</ele>
        <time>2019-10-16T19:12:45Z</time>
      </trkpt>
      <trkpt lat="-22.209738" lon="-45.263000">
        <ele>1008.477</ele>
        <time>2019-10-16T19:12:49Z</time>
      </trkpt>
      <trkpt lat="-22.209683" lon="-45.263000">
        <ele>1008.259</ele>
        <time>2019-10-16T19:12:52Z</time>
      </trkpt>
      <trkpt lat="-22.209618" lon="-45.263015">
        <ele>1008.133</ele>
        <time>2019-10-16T19:12:55Z</time>
      </trkpt>
      <trkpt lat="-22.209555" lon="-45.263029">
        <ele>1008.040</ele>
        <time>2019-10-16T19:13:00Z</time>
      </trkpt>
      <trkpt lat="-22.209523" lon="-45.263063">
        <ele>1008.142</ele>
        <time>2019-10-16T19:13:17Z</time>
      </trkpt>
      <trkpt lat="-22.209586" lon="-45.263057">
        <ele>1008.222</ele>
        <time>2019-10-16T19:13:37Z</time>
      </trkpt>
      <trkpt lat="-22.209617" lon="-45.263096">
        <ele>1008.314</ele>
        <time>2019-10-16T19:13:50Z</time>
      </trkpt>
      <trkpt lat="-22.209667" lon="-45.263090">
        <ele>1008.408</ele>
        <time>2019-10-16T19:13:55Z</time>
      </trkpt>
      <trkpt lat="-22.209715" lon="-45.263085">
        <ele>1008.548</ele>
        <time>2019-10-16T19:14:11Z</time>
      </trkpt>
      <trkpt lat="-22.209664" lon="-45.263089">
        <ele>1008.476</ele>
        <time>2019-10-16T19:14:48Z</time>
      </trkpt>
      <trkpt lat="-22.209719" lon="-45.263086">
        <ele>1008.579</ele>
        <time>2019-10-16T19:15:04Z</time>
      </trkpt>
      <trkpt lat="-22.209676" lon="-45.263105">
        <ele>1008.597</ele>
        <time>2019-10-16T19:15:08Z</time>
      </trkpt>
      <trkpt lat="-22.209638" lon="-45.263138">
        <ele>1008.557</ele>
        <time>2019-10-16T19:15:12Z</time>
      </trkpt>
      <trkpt lat="-22.209593" lon="-45.263184">
        <ele>1008.699</ele>
        <time>2019-10-16T19:15:18Z</time>
      </trkpt>
      <trkpt lat="-22.209543" lon="-45.263179">
        <ele>1008.583</ele>
        <time>2019-10-16T19:15:36Z</time>
      </trkpt>
      <trkpt lat="-22.209572" lon="-45.263222">
        <ele>1008.790</ele>
        <time>2019-10-16T19:16:22Z</time>
      </trkpt>
      <trkpt lat="-22.209592" lon="-45.263176">
        <ele>1008.579</ele>
        <time>2019-10-16T19:19:51Z</time>
      </trkpt>
      <trkpt lat="-22.209584" lon="-45.263122">
        <ele>1008.405</ele>
        <time>2019-10-16T19:20:08Z</time>
      </trkpt>
      <trkpt lat="-22.209597" lon="-45.263066">
        <ele>1008.225</ele>
        <time>2019-10-16T19:22:27Z</time>
      </trkpt>
      <trkpt lat="-22.209551" lon="-45.263053">
        <ele>1008.108</ele>
        <time>2019-10-16T19:22:31Z</time>
      </trkpt>
      <trkpt lat="-22.209504" lon="-45.263010">
        <ele>1007.831</ele>
        <time>2019-10-16T19:22:39Z</time>
      </trkpt>
      <trkpt lat="-22.209441" lon="-45.262992">
        <ele>1007.619</ele>
        <time>2019-10-16T19:27:33Z</time>
      </trkpt>
      <trkpt lat="-22.209358" lon="-45.263007">
        <ele>1007.562</ele>
        <time>2019-10-16T19:27:37Z</time>
      </trkpt>
      <trkpt lat="-22.209312" lon="-45.263020">
        <ele>1007.450</ele>
        <time>2019-10-16T19:27:38Z</time>
      </trkpt>
      <trkpt lat="-22.209248" lon="-45.263034">
        <ele>1007.450</ele>
        <time>2019-10-16T19:27:41Z</time>
      </trkpt>
      <trkpt lat="-22.209190" lon="-45.263040">
        <ele>1007.362</ele>
        <time>2019-10-16T19:27:43Z</time>
      </trkpt>
      <trkpt lat="-22.209143" lon="-45.263041">
        <ele>1007.186</ele>
        <time>2019-10-16T19:27:44Z</time>
      </trkpt>
      <trkpt lat="-22.209088" lon="-45.263050">
        <ele>1006.713</ele>
        <time>2019-10-16T19:27:46Z</time>
      </trkpt>
      <trkpt lat="-22.209037" lon="-45.263053">
        <ele>1006.335</ele>
        <time>2019-10-16T19:27:49Z</time>
      </trkpt>
      <trkpt lat="-22.208982" lon="-45.263061">
        <ele>1006.086</ele>
        <time>2019-10-16T19:27:52Z</time>
      </trkpt>
      <trkpt lat="-22.208917" lon="-45.263061">
        <ele>1005.514</ele>
        <time>2019-10-16T19:27:55Z</time>
      </trkpt>
      <trkpt lat="-22.208858" lon="-45.263064">
        <ele>1005.008</ele>
        <time>2019-10-16T19:27:57Z</time>
      </trkpt>
      <trkpt lat="-22.208810" lon="-45.263064">
        <ele>1004.747</ele>
        <time>2019-10-16T19:27:59Z</time>
      </trkpt>
      <trkpt lat="-22.208749" lon="-45.263051">
        <ele>1004.125</ele>
        <time>2019-10-16T19:28:01Z</time>
      </trkpt>
      <trkpt lat="-22.208691" lon="-45.263051">
        <ele>1003.728</ele>
        <time>2019-10-16T19:28:03Z</time>
      </trkpt>
      <trkpt lat="-22.208624" lon="-45.263056">
        <ele>1003.296</ele>
        <time>2019-10-16T19:28:06Z</time>
      </trkpt>
      <trkpt lat="-22.208571" lon="-45.263051">
        <ele>1002.886</ele>
        <time>2019-10-16T19:28:08Z</time>
      </trkpt>
      <trkpt lat="-22.208482" lon="-45.263051">
        <ele>1002.138</ele>
        <time>2019-10-16T19:28:10Z</time>
      </trkpt>
      <trkpt lat="-22.208420" lon="-45.263055">
        <ele>1001.772</ele>
        <time>2019-10-16T19:28:12Z</time>
      </trkpt>
      <trkpt lat="-22.208355" lon="-45.263108">
        <ele>1001.469</ele>
        <time>2019-10-16T19:28:14Z</time>
      </trkpt>
      <trkpt lat="-22.208346" lon="-45.263172">
        <ele>1001.556</ele>
        <time>2019-10-16T19:28:16Z</time>
      </trkpt>
      <trkpt lat="-22.208341" lon="-45.263221">
        <ele>1001.759</ele>
        <time>2019-10-16T19:28:18Z</time>
      </trkpt>
      <trkpt lat="-22.208323" lon="-45.263291">
        <ele>1001.814</ele>
        <time>2019-10-16T19:28:21Z</time>
      </trkpt>
      <trkpt lat="-22.208305" lon="-45.263337">
        <ele>1001.808</ele>
        <time>2019-10-16T19:28:23Z</time>
      </trkpt>
      <trkpt lat="-22.208282" lon="-45.263382">
        <ele>1001.549</ele>
        <time>2019-10-16T19:28:25Z</time>
      </trkpt>
      <trkpt lat="-22.208255" lon="-45.263431">
        <ele>1001.167</ele>
        <time>2019-10-16T19:28:27Z</time>
      </trkpt>
      <trkpt lat="-22.208217" lon="-45.263458">
        <ele>1000.850</ele>
        <time>2019-10-16T19:28:29Z</time>
      </trkpt>
      <trkpt lat="-22.208171" lon="-45.263460">
        <ele>1000.678</ele>
        <time>2019-10-16T19:28:31Z</time>
      </trkpt>
      <trkpt lat="-22.208096" lon="-45.263469">
        <ele>1000.358</ele>
        <time>2019-10-16T19:28:34Z</time>
      </trkpt>
      <trkpt lat="-22.208046" lon="-45.263487">
        <ele>1000.080</ele>
        <time>2019-10-16T19:28:35Z</time>
      </trkpt>
      <trkpt lat="-22.207976" lon="-45.263499">
        <ele>999.734</ele>
        <time>2019-10-16T19:28:38Z</time>
      </trkpt>
      <trkpt lat="-22.207923" lon="-45.263502">
        <ele>999.551</ele>
        <time>2019-10-16T19:28:39Z</time>
      </trkpt>
      <trkpt lat="-22.207872" lon="-45.263508">
        <ele>999.344</ele>
        <time>2019-10-16T19:28:41Z</time>
      </trkpt>
      <trkpt lat="-22.207827" lon="-45.263520">
        <ele>999.105</ele>
        <time>2019-10-16T19:29:00Z</time>
      </trkpt>
      <trkpt lat="-22.207788" lon="-45.263545">
        <ele>998.915</ele>
        <time>2019-10-16T19:34:24Z</time>
      </trkpt>
      <trkpt lat="-22.207736" lon="-45.263571">
        <ele>998.708</ele>
        <time>2019-10-16T19:34:27Z</time>
      </trkpt>
      <trkpt lat="-22.207683" lon="-45.263570">
        <ele>998.678</ele>
        <time>2019-10-16T19:34:29Z</time>
      </trkpt>
      <trkpt lat="-22.207621" lon="-45.263576">
        <ele>998.436</ele>
        <time>2019-10-16T19:34:33Z</time>
      </trkpt>
      <trkpt lat="-22.207566" lon="-45.263576">
        <ele>998.299</ele>
        <time>2019-10-16T19:34:35Z</time>
      </trkpt>
      <trkpt lat="-22.207510" lon="-45.263582">
        <ele>998.047</ele>
        <time>2019-10-16T19:34:38Z</time>
      </trkpt>
      <trkpt lat="-22.207446" lon="-45.263595">
        <ele>998.087</ele>
        <time>2019-10-16T19:34:40Z</time>
      </trkpt>
      <trkpt lat="-22.207395" lon="-45.263598">
        <ele>998.019</ele>
        <time>2019-10-16T19:34:43Z</time>
      </trkpt>
      <trkpt lat="-22.207306" lon="-45.263609">
        <ele>998.063</ele>
        <time>2019-10-16T19:34:47Z</time>
      </trkpt>
      <trkpt lat="-22.207254" lon="-45.263623">
        <ele>998.070</ele>
        <time>2019-10-16T19:34:49Z</time>
      </trkpt>
      <trkpt lat="-22.207187" lon="-45.263626">
        <ele>998.017</ele>
        <time>2019-10-16T19:34:51Z</time>
      </trkpt>
      <trkpt lat="-22.207133" lon="-45.263643">
        <ele>998.187</ele>
        <time>2019-10-16T19:34:53Z</time>
      </trkpt>
      <trkpt lat="-22.207083" lon="-45.263658">
        <ele>998.215</ele>
        <time>2019-10-16T19:34:56Z</time>
      </trkpt>
      <trkpt lat="-22.207028" lon="-45.263673">
        <ele>998.308</ele>
        <time>2019-10-16T19:34:58Z</time>
      </trkpt>
      <trkpt lat="-22.206972" lon="-45.263677">
        <ele>998.395</ele>
        <time>2019-10-16T19:35:00Z</time>
      </trkpt>
      <trkpt lat="-22.206889" lon="-45.263687">
        <ele>998.443</ele>
        <time>2019-10-16T19:35:04Z</time>
      </trkpt>
      <trkpt lat="-22.206842" lon="-45.263693">
        <ele>998.596</ele>
        <time>2019-10-16T19:35:06Z</time>
      </trkpt>
      <trkpt lat="-22.206737" lon="-45.263711">
        <ele>998.724</ele>
        <time>2019-10-16T19:35:11Z</time>
      </trkpt>
      <trkpt lat="-22.206691" lon="-45.263725">
        <ele>998.824</ele>
        <time>2019-10-16T19:35:13Z</time>
      </trkpt>
      <trkpt lat="-22.206642" lon="-45.263733">
        <ele>999.146</ele>
        <time>2019-10-16T19:35:15Z</time>
      </trkpt>
      <trkpt lat="-22.206599" lon="-45.263713">
        <ele>999.230</ele>
        <time>2019-10-16T19:35:19Z</time>
      </trkpt>
      <trkpt lat="-22.206547" lon="-45.263663">
        <ele>999.337</ele>
        <time>2019-10-16T19:35:23Z</time>
      </trkpt>
      <trkpt lat="-22.206508" lon="-45.263626">
        <ele>999.423</ele>
        <time>2019-10-16T19:35:25Z</time>
      </trkpt>
      <trkpt lat="-22.206455" lon="-45.263575">
        <ele>999.583</ele>
        <time>2019-10-16T19:35:28Z</time>
      </trkpt>
      <trkpt lat="-22.206418" lon="-45.263535">
        <ele>999.511</ele>
        <time>2019-10-16T19:35:31Z</time>
      </trkpt>
      <trkpt lat="-22.206379" lon="-45.263485">
        <ele>999.608</ele>
        <time>2019-10-16T19:35:34Z</time>
      </trkpt>
      <trkpt lat="-22.206338" lon="-45.263446">
        <ele>999.826</ele>
        <time>2019-10-16T19:35:37Z</time>
      </trkpt>
      <trkpt lat="-22.206307" lon="-45.263408">
        <ele>999.884</ele>
        <time>2019-10-16T19:35:39Z</time>
      </trkpt>
      <trkpt lat="-22.206271" lon="-45.263366">
        <ele>1000.017</ele>
        <time>2019-10-16T19:35:41Z</time>
      </trkpt>
      <trkpt lat="-22.206231" lon="-45.263322">
        <ele>1000.275</ele>
        <time>2019-10-16T19:35:44Z</time>
      </trkpt>
      <trkpt lat="-22.206167" lon="-45.263263">
        <ele>1000.865</ele>
        <time>2019-10-16T19:35:47Z</time>
      </trkpt>
      <trkpt lat="-22.206126" lon="-45.263226">
        <ele>1001.157</ele>
        <time>2019-10-16T19:35:48Z</time>
      </trkpt>
      <trkpt lat="-22.206084" lon="-45.263189">
        <ele>1001.411</ele>
        <time>2019-10-16T19:35:50Z</time>
      </trkpt>
      <trkpt lat="-22.206046" lon="-45.263150">
        <ele>1001.718</ele>
        <time>2019-10-16T19:35:52Z</time>
      </trkpt>
      <trkpt lat="-22.206006" lon="-45.263104">
        <ele>1001.921</ele>
        <time>2019-10-16T19:35:55Z</time>
      </trkpt>
      <trkpt lat="-22.205970" lon="-45.263066">
        <ele>1002.141</ele>
        <time>2019-10-16T19:35:56Z</time>
      </trkpt>
      <trkpt lat="-22.205926" lon="-45.263010">
        <ele>1002.205</ele>
        <time>2019-10-16T19:35:59Z</time>
      </trkpt>
      <trkpt lat="-22.205878" lon="-45.262957">
        <ele>1002.408</ele>
        <time>2019-10-16T19:36:01Z</time>
      </trkpt>
      <trkpt lat="-22.205843" lon="-45.262922">
        <ele>1002.586</ele>
        <time>2019-10-16T19:36:02Z</time>
      </trkpt>
      <trkpt lat="-22.205800" lon="-45.262886">
        <ele>1002.494</ele>
        <time>2019-10-16T19:36:05Z</time>
      </trkpt>
      <trkpt lat="-22.205751" lon="-45.262855">
        <ele>1002.367</ele>
        <time>2019-10-16T19:36:06Z</time>
      </trkpt>
      <trkpt lat="-22.205697" lon="-45.262828">
        <ele>1002.255</ele>
        <time>2019-10-16T19:36:09Z</time>
      </trkpt>
      <trkpt lat="-22.205660" lon="-45.262799">
        <ele>1002.135</ele>
        <time>2019-10-16T19:36:11Z</time>
      </trkpt>
      <trkpt lat="-22.205621" lon="-45.262767">
        <ele>1002.027</ele>
        <time>2019-10-16T19:36:12Z</time>
      </trkpt>
      <trkpt lat="-22.205582" lon="-45.262738">
        <ele>1001.861</ele>
        <time>2019-10-16T19:36:14Z</time>
      </trkpt>
      <trkpt lat="-22.205540" lon="-45.262711">
        <ele>1001.768</ele>
        <time>2019-10-16T19:36:16Z</time>
      </trkpt>
      <trkpt lat="-22.205500" lon="-45.262684">
        <ele>1001.544</ele>
        <time>2019-10-16T19:36:18Z</time>
      </trkpt>
      <trkpt lat="-22.205424" lon="-45.262659">
        <ele>1001.405</ele>
        <time>2019-10-16T19:36:25Z</time>
      </trkpt>
      <trkpt lat="-22.205375" lon="-45.262635">
        <ele>1001.215</ele>
        <time>2019-10-16T19:36:26Z</time>
      </trkpt>
      <trkpt lat="-22.205324" lon="-45.262592">
        <ele>1000.908</ele>
        <time>2019-10-16T19:36:28Z</time>
      </trkpt>
      <trkpt lat="-22.205282" lon="-45.262564">
        <ele>1000.748</ele>
        <time>2019-10-16T19:36:30Z</time>
      </trkpt>
      <trkpt lat="-22.205226" lon="-45.262535">
        <ele>1000.516</ele>
        <time>2019-10-16T19:36:32Z</time>
      </trkpt>
      <trkpt lat="-22.205184" lon="-45.262516">
        <ele>1000.379</ele>
        <time>2019-10-16T19:36:34Z</time>
      </trkpt>
      <trkpt lat="-22.205130" lon="-45.262493">
        <ele>1000.347</ele>
        <time>2019-10-16T19:36:36Z</time>
      </trkpt>
      <trkpt lat="-22.205079" lon="-45.262475">
        <ele>1000.577</ele>
        <time>2019-10-16T19:36:38Z</time>
      </trkpt>
      <trkpt lat="-22.205026" lon="-45.262463">
        <ele>1000.669</ele>
        <time>2019-10-16T19:36:40Z</time>
      </trkpt>
      <trkpt lat="-22.204969" lon="-45.262449">
        <ele>1001.143</ele>
        <time>2019-10-16T19:36:43Z</time>
      </trkpt>
      <trkpt lat="-22.204921" lon="-45.262438">
        <ele>1001.820</ele>
        <time>2019-10-16T19:36:45Z</time>
      </trkpt>
      <trkpt lat="-22.204862" lon="-45.262412">
        <ele>1002.791</ele>
        <time>2019-10-16T19:36:46Z</time>
      </trkpt>
      <trkpt lat="-22.204802" lon="-45.262395">
        <ele>1003.581</ele>
        <time>2019-10-16T19:36:48Z</time>
      </trkpt>
      <trkpt lat="-22.204749" lon="-45.262370">
        <ele>1004.219</ele>
        <time>2019-10-16T19:36:50Z</time>
      </trkpt>
      <trkpt lat="-22.204695" lon="-45.262336">
        <ele>1004.908</ele>
        <time>2019-10-16T19:36:51Z</time>
      </trkpt>
      <trkpt lat="-22.204632" lon="-45.262304">
        <ele>1005.553</ele>
        <time>2019-10-16T19:36:54Z</time>
      </trkpt>
      <trkpt lat="-22.204587" lon="-45.262285">
        <ele>1005.991</ele>
        <time>2019-10-16T19:36:56Z</time>
      </trkpt>
      <trkpt lat="-22.204542" lon="-45.262251">
        <ele>1006.244</ele>
        <time>2019-10-16T19:36:58Z</time>
      </trkpt>
      <trkpt lat="-22.204473" lon="-45.262196">
        <ele>1006.582</ele>
        <time>2019-10-16T19:37:02Z</time>
      </trkpt>
      <trkpt lat="-22.204407" lon="-45.262139">
        <ele>1006.682</ele>
        <time>2019-10-16T19:37:05Z</time>
      </trkpt>
      <trkpt lat="-22.204352" lon="-45.262116">
        <ele>1006.654</ele>
        <time>2019-10-16T19:37:08Z</time>
      </trkpt>
      <trkpt lat="-22.204297" lon="-45.262085">
        <ele>1006.418</ele>
        <time>2019-10-16T19:37:10Z</time>
      </trkpt>
      <trkpt lat="-22.204252" lon="-45.262063">
        <ele>1006.395</ele>
        <time>2019-10-16T19:37:13Z</time>
      </trkpt>
      <trkpt lat="-22.204208" lon="-45.262038">
        <ele>1006.093</ele>
        <time>2019-10-16T19:37:15Z</time>
      </trkpt>
      <trkpt lat="-22.204137" lon="-45.261988">
        <ele>1006.065</ele>
        <time>2019-10-16T19:37:18Z</time>
      </trkpt>
      <trkpt lat="-22.204096" lon="-45.261942">
        <ele>1006.021</ele>
        <time>2019-10-16T19:37:21Z</time>
      </trkpt>
      <trkpt lat="-22.204054" lon="-45.261892">
        <ele>1006.008</ele>
        <time>2019-10-16T19:37:23Z</time>
      </trkpt>
      <trkpt lat="-22.204001" lon="-45.261856">
        <ele>1006.163</ele>
        <time>2019-10-16T19:37:25Z</time>
      </trkpt>
      <trkpt lat="-22.203958" lon="-45.261822">
        <ele>1006.191</ele>
        <time>2019-10-16T19:37:27Z</time>
      </trkpt>
      <trkpt lat="-22.203915" lon="-45.261769">
        <ele>1005.784</ele>
        <time>2019-10-16T19:37:30Z</time>
      </trkpt>
      <trkpt lat="-22.203880" lon="-45.261727">
        <ele>1005.252</ele>
        <time>2019-10-16T19:37:33Z</time>
      </trkpt>
      <trkpt lat="-22.203841" lon="-45.261689">
        <ele>1004.892</ele>
        <time>2019-10-16T19:37:35Z</time>
      </trkpt>
      <trkpt lat="-22.203798" lon="-45.261659">
        <ele>1004.754</ele>
        <time>2019-10-16T19:37:37Z</time>
      </trkpt>
      <trkpt lat="-22.203757" lon="-45.261636">
        <ele>1005.258</ele>
        <time>2019-10-16T19:37:39Z</time>
      </trkpt>
      <trkpt lat="-22.203714" lon="-45.261600">
        <ele>1005.785</ele>
        <time>2019-10-16T19:37:42Z</time>
      </trkpt>
      <trkpt lat="-22.203675" lon="-45.261561">
        <ele>1006.297</ele>
        <time>2019-10-16T19:37:44Z</time>
      </trkpt>
      <trkpt lat="-22.203641" lon="-45.261526">
        <ele>1006.623</ele>
        <time>2019-10-16T19:37:46Z</time>
      </trkpt>
      <trkpt lat="-22.203614" lon="-45.261481">
        <ele>1006.925</ele>
        <time>2019-10-16T19:37:49Z</time>
      </trkpt>
      <trkpt lat="-22.203581" lon="-45.261435">
        <ele>1007.208</ele>
        <time>2019-10-16T19:37:53Z</time>
      </trkpt>
      <trkpt lat="-22.203514" lon="-45.261377">
        <ele>1007.593</ele>
        <time>2019-10-16T19:37:54Z</time>
      </trkpt>
      <trkpt lat="-22.203475" lon="-45.261351">
        <ele>1007.661</ele>
        <time>2019-10-16T19:37:56Z</time>
      </trkpt>
      <trkpt lat="-22.203388" lon="-45.261289">
        <ele>1007.624</ele>
        <time>2019-10-16T19:37:59Z</time>
      </trkpt>
      <trkpt lat="-22.203336" lon="-45.261247">
        <ele>1007.532</ele>
        <time>2019-10-16T19:38:01Z</time>
      </trkpt>
      <trkpt lat="-22.203292" lon="-45.261216">
        <ele>1007.512</ele>
        <time>2019-10-16T19:38:02Z</time>
      </trkpt>
      <trkpt lat="-22.203240" lon="-45.261182">
        <ele>1007.484</ele>
        <time>2019-10-16T19:38:04Z</time>
      </trkpt>
      <trkpt lat="-22.203194" lon="-45.261143">
        <ele>1007.278</ele>
        <time>2019-10-16T19:38:06Z</time>
      </trkpt>
      <trkpt lat="-22.203156" lon="-45.261113">
        <ele>1007.095</ele>
        <time>2019-10-16T19:38:08Z</time>
      </trkpt>
      <trkpt lat="-22.203112" lon="-45.261077">
        <ele>1006.751</ele>
        <time>2019-10-16T19:38:10Z</time>
      </trkpt>
      <trkpt lat="-22.203074" lon="-45.261050">
        <ele>1006.401</ele>
        <time>2019-10-16T19:38:12Z</time>
      </trkpt>
      <trkpt lat="-22.203018" lon="-45.261019">
        <ele>1006.011</ele>
        <time>2019-10-16T19:38:15Z</time>
      </trkpt>
      <trkpt lat="-22.202966" lon="-45.260997">
        <ele>1005.708</ele>
        <time>2019-10-16T19:38:17Z</time>
      </trkpt>
      <trkpt lat="-22.202922" lon="-45.260977">
        <ele>1005.389</ele>
        <time>2019-10-16T19:38:19Z</time>
      </trkpt>
      <trkpt lat="-22.202873" lon="-45.260955">
        <ele>1004.977</ele>
        <time>2019-10-16T19:38:22Z</time>
      </trkpt>
      <trkpt lat="-22.202825" lon="-45.260936">
        <ele>1004.480</ele>
        <time>2019-10-16T19:38:24Z</time>
      </trkpt>
      <trkpt lat="-22.202779" lon="-45.260900">
        <ele>1003.818</ele>
        <time>2019-10-16T19:38:26Z</time>
      </trkpt>
      <trkpt lat="-22.202720" lon="-45.260854">
        <ele>1002.848</ele>
        <time>2019-10-16T19:38:28Z</time>
      </trkpt>
      <trkpt lat="-22.202681" lon="-45.260828">
        <ele>1002.480</ele>
        <time>2019-10-16T19:38:30Z</time>
      </trkpt>
      <trkpt lat="-22.202632" lon="-45.260800">
        <ele>1002.414</ele>
        <time>2019-10-16T19:38:32Z</time>
      </trkpt>
      <trkpt lat="-22.202569" lon="-45.260772">
        <ele>1002.311</ele>
        <time>2019-10-16T19:38:35Z</time>
      </trkpt>
      <trkpt lat="-22.202526" lon="-45.260752">
        <ele>1002.297</ele>
        <time>2019-10-16T19:38:37Z</time>
      </trkpt>
      <trkpt lat="-22.202460" lon="-45.260724">
        <ele>1002.023</ele>
        <time>2019-10-16T19:38:39Z</time>
      </trkpt>
      <trkpt lat="-22.202391" lon="-45.260692">
        <ele>1001.825</ele>
        <time>2019-10-16T19:38:42Z</time>
      </trkpt>
      <trkpt lat="-22.202316" lon="-45.260658">
        <ele>1001.608</ele>
        <time>2019-10-16T19:38:44Z</time>
      </trkpt>
      <trkpt lat="-22.202261" lon="-45.260638">
        <ele>1001.413</ele>
        <time>2019-10-16T19:38:47Z</time>
      </trkpt>
      <trkpt lat="-22.202188" lon="-45.260602">
        <ele>1001.231</ele>
        <time>2019-10-16T19:38:49Z</time>
      </trkpt>
      <trkpt lat="-22.202129" lon="-45.260570">
        <ele>1001.154</ele>
        <time>2019-10-16T19:38:52Z</time>
      </trkpt>
      <trkpt lat="-22.202087" lon="-45.260542">
        <ele>1001.022</ele>
        <time>2019-10-16T19:38:53Z</time>
      </trkpt>
      <trkpt lat="-22.202036" lon="-45.260513">
        <ele>1000.952</ele>
        <time>2019-10-16T19:38:55Z</time>
      </trkpt>
      <trkpt lat="-22.201991" lon="-45.260500">
        <ele>1000.664</ele>
        <time>2019-10-16T19:38:57Z</time>
      </trkpt>
      <trkpt lat="-22.201946" lon="-45.260477">
        <ele>1000.418</ele>
        <time>2019-10-16T19:38:59Z</time>
      </trkpt>
      <trkpt lat="-22.201896" lon="-45.260448">
        <ele>1000.335</ele>
        <time>2019-10-16T19:39:01Z</time>
      </trkpt>
      <trkpt lat="-22.201843" lon="-45.260426">
        <ele>1000.051</ele>
        <time>2019-10-16T19:39:03Z</time>
      </trkpt>
      <trkpt lat="-22.201784" lon="-45.260400">
        <ele>999.701</ele>
        <time>2019-10-16T19:39:05Z</time>
      </trkpt>
      <trkpt lat="-22.201726" lon="-45.260369">
        <ele>999.411</ele>
        <time>2019-10-16T19:39:08Z</time>
      </trkpt>
      <trkpt lat="-22.201662" lon="-45.260334">
        <ele>999.208</ele>
        <time>2019-10-16T19:39:10Z</time>
      </trkpt>
      <trkpt lat="-22.201613" lon="-45.260307">
        <ele>999.369</ele>
        <time>2019-10-16T19:39:12Z</time>
      </trkpt>
      <trkpt lat="-22.201557" lon="-45.260279">
        <ele>999.387</ele>
        <time>2019-10-16T19:39:15Z</time>
      </trkpt>
      <trkpt lat="-22.201498" lon="-45.260245">
        <ele>999.380</ele>
        <time>2019-10-16T19:39:18Z</time>
      </trkpt>
      <trkpt lat="-22.201455" lon="-45.260228">
        <ele>999.398</ele>
        <time>2019-10-16T19:39:19Z</time>
      </trkpt>
      <trkpt lat="-22.201414" lon="-45.260206">
        <ele>999.338</ele>
        <time>2019-10-16T19:39:21Z</time>
      </trkpt>
      <trkpt lat="-22.201316" lon="-45.260149">
        <ele>999.240</ele>
        <time>2019-10-16T19:39:24Z</time>
      </trkpt>
      <trkpt lat="-22.201284" lon="-45.260107">
        <ele>999.284</ele>
        <time>2019-10-16T19:39:27Z</time>
      </trkpt>
      <trkpt lat="-22.201240" lon="-45.260061">
        <ele>999.291</ele>
        <time>2019-10-16T19:39:29Z</time>
      </trkpt>
      <trkpt lat="-22.201205" lon="-45.260017">
        <ele>999.226</ele>
        <time>2019-10-16T19:39:32Z</time>
      </trkpt>
      <trkpt lat="-22.201167" lon="-45.259971">
        <ele>998.947</ele>
        <time>2019-10-16T19:39:34Z</time>
      </trkpt>
      <trkpt lat="-22.201133" lon="-45.259939">
        <ele>998.711</ele>
        <time>2019-10-16T19:39:35Z</time>
      </trkpt>
      <trkpt lat="-22.201094" lon="-45.259900">
        <ele>998.408</ele>
        <time>2019-10-16T19:39:37Z</time>
      </trkpt>
      <trkpt lat="-22.201050" lon="-45.259843">
        <ele>998.056</ele>
        <time>2019-10-16T19:39:40Z</time>
      </trkpt>
      <trkpt lat="-22.201008" lon="-45.259786">
        <ele>997.714</ele>
        <time>2019-10-16T19:39:43Z</time>
      </trkpt>
      <trkpt lat="-22.200977" lon="-45.259750">
        <ele>997.547</ele>
        <time>2019-10-16T19:39:44Z</time>
      </trkpt>
      <trkpt lat="-22.200943" lon="-45.259703">
        <ele>997.215</ele>
        <time>2019-10-16T19:39:46Z</time>
      </trkpt>
      <trkpt lat="-22.200902" lon="-45.259662">
        <ele>996.985</ele>
        <time>2019-10-16T19:39:48Z</time>
      </trkpt>
      <trkpt lat="-22.200845" lon="-45.259590">
        <ele>996.667</ele>
        <time>2019-10-16T19:39:52Z</time>
      </trkpt>
      <trkpt lat="-22.200819" lon="-45.259545">
        <ele>996.451</ele>
        <time>2019-10-16T19:39:53Z</time>
      </trkpt>
      <trkpt lat="-22.200788" lon="-45.259507">
        <ele>996.378</ele>
        <time>2019-10-16T19:39:55Z</time>
      </trkpt>
      <trkpt lat="-22.200750" lon="-45.259451">
        <ele>996.241</ele>
        <time>2019-10-16T19:39:57Z</time>
      </trkpt>
      <trkpt lat="-22.200724" lon="-45.259391">
        <ele>996.181</ele>
        <time>2019-10-16T19:39:59Z</time>
      </trkpt>
      <trkpt lat="-22.200703" lon="-45.259337">
        <ele>996.009</ele>
        <time>2019-10-16T19:40:02Z</time>
      </trkpt>
      <trkpt lat="-22.200678" lon="-45.259271">
        <ele>995.908</ele>
        <time>2019-10-16T19:40:04Z</time>
      </trkpt>
      <trkpt lat="-22.200637" lon="-45.259191">
        <ele>995.878</ele>
        <time>2019-10-16T19:40:07Z</time>
      </trkpt>
      <trkpt lat="-22.200618" lon="-45.259140">
        <ele>995.866</ele>
        <time>2019-10-16T19:40:09Z</time>
      </trkpt>
      <trkpt lat="-22.200599" lon="-45.259085">
        <ele>995.979</ele>
        <time>2019-10-16T19:40:10Z</time>
      </trkpt>
      <trkpt lat="-22.200575" lon="-45.259031">
        <ele>996.057</ele>
        <time>2019-10-16T19:40:12Z</time>
      </trkpt>
      <trkpt lat="-22.200548" lon="-45.258983">
        <ele>996.197</ele>
        <time>2019-10-16T19:40:13Z</time>
      </trkpt>
      <trkpt lat="-22.200516" lon="-45.258929">
        <ele>996.159</ele>
        <time>2019-10-16T19:40:15Z</time>
      </trkpt>
      <trkpt lat="-22.200484" lon="-45.258875">
        <ele>996.243</ele>
        <time>2019-10-16T19:40:17Z</time>
      </trkpt>
      <trkpt lat="-22.200460" lon="-45.258829">
        <ele>996.260</ele>
        <time>2019-10-16T19:40:18Z</time>
      </trkpt>
      <trkpt lat="-22.200436" lon="-45.258781">
        <ele>996.252</ele>
        <time>2019-10-16T19:40:20Z</time>
      </trkpt>
      <trkpt lat="-22.200400" lon="-45.258736">
        <ele>996.253</ele>
        <time>2019-10-16T19:40:22Z</time>
      </trkpt>
      <trkpt lat="-22.200360" lon="-45.258671">
        <ele>996.208</ele>
        <time>2019-10-16T19:40:24Z</time>
      </trkpt>
      <trkpt lat="-22.200326" lon="-45.258622">
        <ele>996.208</ele>
        <time>2019-10-16T19:40:26Z</time>
      </trkpt>
      <trkpt lat="-22.200279" lon="-45.258563">
        <ele>996.119</ele>
        <time>2019-10-16T19:40:29Z</time>
      </trkpt>
      <trkpt lat="-22.200253" lon="-45.258523">
        <ele>996.067</ele>
        <time>2019-10-16T19:40:30Z</time>
      </trkpt>
      <trkpt lat="-22.200223" lon="-45.258482">
        <ele>995.990</ele>
        <time>2019-10-16T19:40:32Z</time>
      </trkpt>
      <trkpt lat="-22.200198" lon="-45.258441">
        <ele>995.998</ele>
        <time>2019-10-16T19:40:34Z</time>
      </trkpt>
      <trkpt lat="-22.200165" lon="-45.258402">
        <ele>995.768</ele>
        <time>2019-10-16T19:40:36Z</time>
      </trkpt>
      <trkpt lat="-22.200135" lon="-45.258361">
        <ele>995.640</ele>
        <time>2019-10-16T19:40:37Z</time>
      </trkpt>
      <trkpt lat="-22.200095" lon="-45.258310">
        <ele>995.724</ele>
        <time>2019-10-16T19:40:40Z</time>
      </trkpt>
      <trkpt lat="-22.200065" lon="-45.258267">
        <ele>995.871</ele>
        <time>2019-10-16T19:40:41Z</time>
      </trkpt>
      <trkpt lat="-22.199999" lon="-45.258186">
        <ele>996.195</ele>
        <time>2019-10-16T19:40:45Z</time>
      </trkpt>
      <trkpt lat="-22.199959" lon="-45.258144">
        <ele>996.349</ele>
        <time>2019-10-16T19:40:46Z</time>
      </trkpt>
      <trkpt lat="-22.199906" lon="-45.258100">
        <ele>996.423</ele>
        <time>2019-10-16T19:40:48Z</time>
      </trkpt>
      <trkpt lat="-22.199843" lon="-45.258053">
        <ele>996.608</ele>
        <time>2019-10-16T19:40:51Z</time>
      </trkpt>
      <trkpt lat="-22.199793" lon="-45.258021">
        <ele>996.773</ele>
        <time>2019-10-16T19:40:53Z</time>
      </trkpt>
      <trkpt lat="-22.199747" lon="-45.257980">
        <ele>996.861</ele>
        <time>2019-10-16T19:40:56Z</time>
      </trkpt>
      <trkpt lat="-22.199705" lon="-45.257948">
        <ele>996.934</ele>
        <time>2019-10-16T19:40:57Z</time>
      </trkpt>
      <trkpt lat="-22.199658" lon="-45.257909">
        <ele>997.072</ele>
        <time>2019-10-16T19:41:00Z</time>
      </trkpt>
      <trkpt lat="-22.199602" lon="-45.257865">
        <ele>997.112</ele>
        <time>2019-10-16T19:41:02Z</time>
      </trkpt>
      <trkpt lat="-22.199551" lon="-45.257832">
        <ele>997.224</ele>
        <time>2019-10-16T19:41:04Z</time>
      </trkpt>
      <trkpt lat="-22.199491" lon="-45.257787">
        <ele>997.378</ele>
        <time>2019-10-16T19:41:07Z</time>
      </trkpt>
      <trkpt lat="-22.199445" lon="-45.257759">
        <ele>997.355</ele>
        <time>2019-10-16T19:41:08Z</time>
      </trkpt>
      <trkpt lat="-22.199394" lon="-45.257723">
        <ele>997.431</ele>
        <time>2019-10-16T19:41:11Z</time>
      </trkpt>
      <trkpt lat="-22.199353" lon="-45.257699">
        <ele>997.461</ele>
        <time>2019-10-16T19:41:12Z</time>
      </trkpt>
      <trkpt lat="-22.199311" lon="-45.257673">
        <ele>997.407</ele>
        <time>2019-10-16T19:41:14Z</time>
      </trkpt>
      <trkpt lat="-22.199271" lon="-45.257644">
        <ele>997.508</ele>
        <time>2019-10-16T19:41:15Z</time>
      </trkpt>
      <trkpt lat="-22.199215" lon="-45.257604">
        <ele>997.597</ele>
        <time>2019-10-16T19:41:17Z</time>
      </trkpt>
      <trkpt lat="-22.199163" lon="-45.257565">
        <ele>997.615</ele>
        <time>2019-10-16T19:41:19Z</time>
      </trkpt>
      <trkpt lat="-22.199122" lon="-45.257536">
        <ele>997.778</ele>
        <time>2019-10-16T19:41:20Z</time>
      </trkpt>
      <trkpt lat="-22.199081" lon="-45.257512">
        <ele>997.726</ele>
        <time>2019-10-16T19:41:22Z</time>
      </trkpt>
      <trkpt lat="-22.199032" lon="-45.257482">
        <ele>997.826</ele>
        <time>2019-10-16T19:41:24Z</time>
      </trkpt>
      <trkpt lat="-22.198987" lon="-45.257454">
        <ele>997.928</ele>
        <time>2019-10-16T19:41:26Z</time>
      </trkpt>
      <trkpt lat="-22.198931" lon="-45.257417">
        <ele>998.072</ele>
        <time>2019-10-16T19:41:28Z</time>
      </trkpt>
      <trkpt lat="-22.198880" lon="-45.257375">
        <ele>998.169</ele>
        <time>2019-10-16T19:41:30Z</time>
      </trkpt>
      <trkpt lat="-22.198838" lon="-45.257339">
        <ele>998.132</ele>
        <time>2019-10-16T19:41:32Z</time>
      </trkpt>
      <trkpt lat="-22.198795" lon="-45.257305">
        <ele>998.192</ele>
        <time>2019-10-16T19:41:34Z</time>
      </trkpt>
      <trkpt lat="-22.198753" lon="-45.257277">
        <ele>998.111</ele>
        <time>2019-10-16T19:41:35Z</time>
      </trkpt>
      <trkpt lat="-22.198708" lon="-45.257245">
        <ele>998.008</ele>
        <time>2019-10-16T19:41:37Z</time>
      </trkpt>
      <trkpt lat="-22.198651" lon="-45.257206">
        <ele>997.847</ele>
        <time>2019-10-16T19:41:39Z</time>
      </trkpt>
      <trkpt lat="-22.198606" lon="-45.257177">
        <ele>997.755</ele>
        <time>2019-10-16T19:41:41Z</time>
      </trkpt>
      <trkpt lat="-22.198551" lon="-45.257139">
        <ele>997.478</ele>
        <time>2019-10-16T19:41:43Z</time>
      </trkpt>
      <trkpt lat="-22.198494" lon="-45.257095">
        <ele>997.116</ele>
        <time>2019-10-16T19:41:46Z</time>
      </trkpt>
      <trkpt lat="-22.198446" lon="-45.257062">
        <ele>996.886</ele>
        <time>2019-10-16T19:41:47Z</time>
      </trkpt>
      <trkpt lat="-22.198400" lon="-45.257033">
        <ele>996.538</ele>
        <time>2019-10-16T19:41:49Z</time>
      </trkpt>
      <trkpt lat="-22.198352" lon="-45.257007">
        <ele>996.252</ele>
        <time>2019-10-16T19:41:50Z</time>
      </trkpt>
      <trkpt lat="-22.198291" lon="-45.256958">
        <ele>996.019</ele>
        <time>2019-10-16T19:41:53Z</time>
      </trkpt>
      <trkpt lat="-22.198228" lon="-45.256908">
        <ele>996.079</ele>
        <time>2019-10-16T19:41:54Z</time>
      </trkpt>
      <trkpt lat="-22.198175" lon="-45.256878">
        <ele>996.005</ele>
        <time>2019-10-16T19:41:56Z</time>
      </trkpt>
      <trkpt lat="-22.198109" lon="-45.256845">
        <ele>995.925</ele>
        <time>2019-10-16T19:41:59Z</time>
      </trkpt>
      <trkpt lat="-22.198047" lon="-45.256796">
        <ele>995.808</ele>
        <time>2019-10-16T19:42:01Z</time>
      </trkpt>
      <trkpt lat="-22.198012" lon="-45.256762">
        <ele>995.741</ele>
        <time>2019-10-16T19:42:02Z</time>
      </trkpt>
      <trkpt lat="-22.197945" lon="-45.256712">
        <ele>995.619</ele>
        <time>2019-10-16T19:42:05Z</time>
      </trkpt>
      <trkpt lat="-22.197898" lon="-45.256678">
        <ele>995.552</ele>
        <time>2019-10-16T19:42:06Z</time>
      </trkpt>
      <trkpt lat="-22.197829" lon="-45.256635">
        <ele>995.650</ele>
        <time>2019-10-16T19:42:08Z</time>
      </trkpt>
      <trkpt lat="-22.197781" lon="-45.256607">
        <ele>995.850</ele>
        <time>2019-10-16T19:42:10Z</time>
      </trkpt>
      <trkpt lat="-22.197721" lon="-45.256567">
        <ele>996.092</ele>
        <time>2019-10-16T19:42:13Z</time>
      </trkpt>
      <trkpt lat="-22.197675" lon="-45.256530">
        <ele>996.326</ele>
        <time>2019-10-16T19:42:14Z</time>
      </trkpt>
      <trkpt lat="-22.197629" lon="-45.256494">
        <ele>996.583</ele>
        <time>2019-10-16T19:42:16Z</time>
      </trkpt>
      <trkpt lat="-22.197581" lon="-45.256463">
        <ele>996.757</ele>
        <time>2019-10-16T19:42:17Z</time>
      </trkpt>
      <trkpt lat="-22.197509" lon="-45.256411">
        <ele>997.100</ele>
        <time>2019-10-16T19:42:20Z</time>
      </trkpt>
      <trkpt lat="-22.197467" lon="-45.256376">
        <ele>997.320</ele>
        <time>2019-10-16T19:42:22Z</time>
      </trkpt>
      <trkpt lat="-22.197424" lon="-45.256343">
        <ele>997.508</ele>
        <time>2019-10-16T19:42:24Z</time>
      </trkpt>
      <trkpt lat="-22.197379" lon="-45.256310">
        <ele>997.779</ele>
        <time>2019-10-16T19:42:25Z</time>
      </trkpt>
      <trkpt lat="-22.197328" lon="-45.256273">
        <ele>997.987</ele>
        <time>2019-10-16T19:42:28Z</time>
      </trkpt>
      <trkpt lat="-22.197291" lon="-45.256241">
        <ele>998.150</ele>
        <time>2019-10-16T19:42:29Z</time>
      </trkpt>
      <trkpt lat="-22.197254" lon="-45.256212">
        <ele>998.358</ele>
        <time>2019-10-16T19:42:30Z</time>
      </trkpt>
      <trkpt lat="-22.197213" lon="-45.256176">
        <ele>998.618</ele>
        <time>2019-10-16T19:42:33Z</time>
      </trkpt>
      <trkpt lat="-22.197171" lon="-45.256150">
        <ele>998.740</ele>
        <time>2019-10-16T19:42:35Z</time>
      </trkpt>
      <trkpt lat="-22.197111" lon="-45.256122">
        <ele>998.964</ele>
        <time>2019-10-16T19:42:37Z</time>
      </trkpt>
      <trkpt lat="-22.197042" lon="-45.256087">
        <ele>999.251</ele>
        <time>2019-10-16T19:42:39Z</time>
      </trkpt>
      <trkpt lat="-22.196987" lon="-45.256067">
        <ele>999.385</ele>
        <time>2019-10-16T19:42:41Z</time>
      </trkpt>
      <trkpt lat="-22.196921" lon="-45.256053">
        <ele>999.489</ele>
        <time>2019-10-16T19:42:43Z</time>
      </trkpt>
      <trkpt lat="-22.196869" lon="-45.256044">
        <ele>999.517</ele>
        <time>2019-10-16T19:42:45Z</time>
      </trkpt>
      <trkpt lat="-22.196812" lon="-45.256028">
        <ele>999.608</ele>
        <time>2019-10-16T19:42:47Z</time>
      </trkpt>
      <trkpt lat="-22.196744" lon="-45.256004">
        <ele>999.892</ele>
        <time>2019-10-16T19:42:50Z</time>
      </trkpt>
      <trkpt lat="-22.196684" lon="-45.255978">
        <ele>1000.160</ele>
        <time>2019-10-16T19:42:51Z</time>
      </trkpt>
      <trkpt lat="-22.196619" lon="-45.255957">
        <ele>1000.043</ele>
        <time>2019-10-16T19:42:53Z</time>
      </trkpt>
      <trkpt lat="-22.196566" lon="-45.255933">
        <ele>1000.061</ele>
        <time>2019-10-16T19:42:56Z</time>
      </trkpt>
      <trkpt lat="-22.196528" lon="-45.255907">
        <ele>1000.091</ele>
        <time>2019-10-16T19:42:57Z</time>
      </trkpt>
      <trkpt lat="-22.196486" lon="-45.255884">
        <ele>999.983</ele>
        <time>2019-10-16T19:42:58Z</time>
      </trkpt>
      <trkpt lat="-22.196433" lon="-45.255855">
        <ele>999.887</ele>
        <time>2019-10-16T19:43:01Z</time>
      </trkpt>
      <trkpt lat="-22.196380" lon="-45.255819">
        <ele>999.894</ele>
        <time>2019-10-16T19:43:04Z</time>
      </trkpt>
      <trkpt lat="-22.196323" lon="-45.255772">
        <ele>999.828</ele>
        <time>2019-10-16T19:43:06Z</time>
      </trkpt>
      <trkpt lat="-22.196280" lon="-45.255734">
        <ele>999.789</ele>
        <time>2019-10-16T19:43:08Z</time>
      </trkpt>
      <trkpt lat="-22.196248" lon="-45.255699">
        <ele>999.817</ele>
        <time>2019-10-16T19:43:10Z</time>
      </trkpt>
      <trkpt lat="-22.196190" lon="-45.255623">
        <ele>999.808</ele>
        <time>2019-10-16T19:43:12Z</time>
      </trkpt>
      <trkpt lat="-22.196145" lon="-45.255563">
        <ele>999.846</ele>
        <time>2019-10-16T19:43:14Z</time>
      </trkpt>
      <trkpt lat="-22.196114" lon="-45.255521">
        <ele>999.734</ele>
        <time>2019-10-16T19:43:16Z</time>
      </trkpt>
      <trkpt lat="-22.196066" lon="-45.255463">
        <ele>999.587</ele>
        <time>2019-10-16T19:43:19Z</time>
      </trkpt>
      <trkpt lat="-22.196033" lon="-45.255396">
        <ele>999.515</ele>
        <time>2019-10-16T19:43:21Z</time>
      </trkpt>
      <trkpt lat="-22.196016" lon="-45.255349">
        <ele>999.635</ele>
        <time>2019-10-16T19:43:23Z</time>
      </trkpt>
      <trkpt lat="-22.195988" lon="-45.255300">
        <ele>999.447</ele>
        <time>2019-10-16T19:43:26Z</time>
      </trkpt>
      <trkpt lat="-22.195946" lon="-45.255115">
        <ele>999.751</ele>
        <time>2019-10-16T19:45:01Z</time>
      </trkpt>
      <trkpt lat="-22.195929" lon="-45.255042">
        <ele>999.718</ele>
        <time>2019-10-16T19:45:03Z</time>
      </trkpt>
      <trkpt lat="-22.195921" lon="-45.254980">
        <ele>999.736</ele>
        <time>2019-10-16T19:45:05Z</time>
      </trkpt>
      <trkpt lat="-22.195916" lon="-45.254907">
        <ele>999.417</ele>
        <time>2019-10-16T19:45:07Z</time>
      </trkpt>
      <trkpt lat="-22.195912" lon="-45.254839">
        <ele>999.218</ele>
        <time>2019-10-16T19:45:10Z</time>
      </trkpt>
      <trkpt lat="-22.195911" lon="-45.254781">
        <ele>999.008</ele>
        <time>2019-10-16T19:45:11Z</time>
      </trkpt>
      <trkpt lat="-22.195910" lon="-45.254717">
        <ele>998.857</ele>
        <time>2019-10-16T19:45:13Z</time>
      </trkpt>
      <trkpt lat="-22.195914" lon="-45.254657">
        <ele>998.745</ele>
        <time>2019-10-16T19:45:15Z</time>
      </trkpt>
      <trkpt lat="-22.195923" lon="-45.254588">
        <ele>998.718</ele>
        <time>2019-10-16T19:45:18Z</time>
      </trkpt>
      <trkpt lat="-22.195931" lon="-45.254535">
        <ele>998.776</ele>
        <time>2019-10-16T19:45:19Z</time>
      </trkpt>
      <trkpt lat="-22.195933" lon="-45.254451">
        <ele>998.636</ele>
        <time>2019-10-16T19:45:21Z</time>
      </trkpt>
      <trkpt lat="-22.195937" lon="-45.254346">
        <ele>998.488</ele>
        <time>2019-10-16T19:45:25Z</time>
      </trkpt>
      <trkpt lat="-22.195940" lon="-45.254286">
        <ele>998.262</ele>
        <time>2019-10-16T19:45:26Z</time>
      </trkpt>
      <trkpt lat="-22.195947" lon="-45.254195">
        <ele>998.179</ele>
        <time>2019-10-16T19:45:30Z</time>
      </trkpt>
      <trkpt lat="-22.195940" lon="-45.254134">
        <ele>998.153</ele>
        <time>2019-10-16T19:45:31Z</time>
      </trkpt>
      <trkpt lat="-22.195935" lon="-45.254064">
        <ele>998.304</ele>
        <time>2019-10-16T19:45:33Z</time>
      </trkpt>
      <trkpt lat="-22.195931" lon="-45.253996">
        <ele>998.514</ele>
        <time>2019-10-16T19:45:36Z</time>
      </trkpt>
      <trkpt lat="-22.195924" lon="-45.253947">
        <ele>998.608</ele>
        <time>2019-10-16T19:45:37Z</time>
      </trkpt>
      <trkpt lat="-22.195908" lon="-45.253900">
        <ele>998.689</ele>
        <time>2019-10-16T19:45:39Z</time>
      </trkpt>
      <trkpt lat="-22.195892" lon="-45.253841">
        <ele>998.637</ele>
        <time>2019-10-16T19:45:41Z</time>
      </trkpt>
      <trkpt lat="-22.195878" lon="-45.253792">
        <ele>998.680</ele>
        <time>2019-10-16T19:45:42Z</time>
      </trkpt>
      <trkpt lat="-22.195855" lon="-45.253743">
        <ele>998.418</ele>
        <time>2019-10-16T19:45:44Z</time>
      </trkpt>
      <trkpt lat="-22.195823" lon="-45.253675">
        <ele>998.468</ele>
        <time>2019-10-16T19:45:47Z</time>
      </trkpt>
      <trkpt lat="-22.195776" lon="-45.253599">
        <ele>998.750</ele>
        <time>2019-10-16T19:45:50Z</time>
      </trkpt>
      <trkpt lat="-22.195732" lon="-45.253540">
        <ele>999.024</ele>
        <time>2019-10-16T19:45:52Z</time>
      </trkpt>
      <trkpt lat="-22.195693" lon="-45.253498">
        <ele>999.261</ele>
        <time>2019-10-16T19:45:54Z</time>
      </trkpt>
      <trkpt lat="-22.195661" lon="-45.253462">
        <ele>999.558</ele>
        <time>2019-10-16T19:45:56Z</time>
      </trkpt>
      <trkpt lat="-22.195619" lon="-45.253414">
        <ele>999.852</ele>
        <time>2019-10-16T19:45:58Z</time>
      </trkpt>
      <trkpt lat="-22.195576" lon="-45.253382">
        <ele>1000.017</ele>
        <time>2019-10-16T19:46:00Z</time>
      </trkpt>
      <trkpt lat="-22.195517" lon="-45.253339">
        <ele>1000.308</ele>
        <time>2019-10-16T19:46:03Z</time>
      </trkpt>
      <trkpt lat="-22.195473" lon="-45.253311">
        <ele>1000.829</ele>
        <time>2019-10-16T19:46:05Z</time>
      </trkpt>
      <trkpt lat="-22.195364" lon="-45.253259">
        <ele>1001.797</ele>
        <time>2019-10-16T19:46:10Z</time>
      </trkpt>
      <trkpt lat="-22.195312" lon="-45.253239">
        <ele>1002.030</ele>
        <time>2019-10-16T19:46:13Z</time>
      </trkpt>
      <trkpt lat="-22.195263" lon="-45.253229">
        <ele>1002.248</ele>
        <time>2019-10-16T19:46:14Z</time>
      </trkpt>
      <trkpt lat="-22.195211" lon="-45.253217">
        <ele>1002.438</ele>
        <time>2019-10-16T19:46:17Z</time>
      </trkpt>
      <trkpt lat="-22.195152" lon="-45.253202">
        <ele>1002.660</ele>
        <time>2019-10-16T19:46:19Z</time>
      </trkpt>
      <trkpt lat="-22.195067" lon="-45.253196">
        <ele>1002.844</ele>
        <time>2019-10-16T19:46:23Z</time>
      </trkpt>
      <trkpt lat="-22.195017" lon="-45.253200">
        <ele>1002.791</ele>
        <time>2019-10-16T19:46:24Z</time>
      </trkpt>
      <trkpt lat="-22.194958" lon="-45.253209">
        <ele>1002.994</ele>
        <time>2019-10-16T19:46:26Z</time>
      </trkpt>
      <trkpt lat="-22.194913" lon="-45.253214">
        <ele>1003.257</ele>
        <time>2019-10-16T19:46:28Z</time>
      </trkpt>
      <trkpt lat="-22.194843" lon="-45.253226">
        <ele>1003.522</ele>
        <time>2019-10-16T19:46:31Z</time>
      </trkpt>
      <trkpt lat="-22.194786" lon="-45.253246">
        <ele>1003.708</ele>
        <time>2019-10-16T19:46:32Z</time>
      </trkpt>
      <trkpt lat="-22.194716" lon="-45.253270">
        <ele>1003.933</ele>
        <time>2019-10-16T19:46:35Z</time>
      </trkpt>
      <trkpt lat="-22.194660" lon="-45.253292">
        <ele>1004.041</ele>
        <time>2019-10-16T19:46:37Z</time>
      </trkpt>
      <trkpt lat="-22.194608" lon="-45.253316">
        <ele>1004.094</ele>
        <time>2019-10-16T19:46:39Z</time>
      </trkpt>
      <trkpt lat="-22.194539" lon="-45.253342">
        <ele>1004.262</ele>
        <time>2019-10-16T19:46:42Z</time>
      </trkpt>
      <trkpt lat="-22.194495" lon="-45.253360">
        <ele>1004.312</ele>
        <time>2019-10-16T19:46:43Z</time>
      </trkpt>
      <trkpt lat="-22.194439" lon="-45.253380">
        <ele>1004.474</ele>
        <time>2019-10-16T19:46:46Z</time>
      </trkpt>
      <trkpt lat="-22.194369" lon="-45.253405">
        <ele>1004.558</ele>
        <time>2019-10-16T19:46:48Z</time>
      </trkpt>
      <trkpt lat="-22.194294" lon="-45.253433">
        <ele>1004.675</ele>
        <time>2019-10-16T19:46:51Z</time>
      </trkpt>
      <trkpt lat="-22.194230" lon="-45.253458">
        <ele>1004.781</ele>
        <time>2019-10-16T19:46:53Z</time>
      </trkpt>
      <trkpt lat="-22.194176" lon="-45.253477">
        <ele>1004.761</ele>
        <time>2019-10-16T19:46:55Z</time>
      </trkpt>
      <trkpt lat="-22.194113" lon="-45.253492">
        <ele>1004.517</ele>
        <time>2019-10-16T19:46:57Z</time>
      </trkpt>
      <trkpt lat="-22.194068" lon="-45.253507">
        <ele>1004.308</ele>
        <time>2019-10-16T19:46:59Z</time>
      </trkpt>
      <trkpt lat="-22.194012" lon="-45.253529">
        <ele>1004.062</ele>
        <time>2019-10-16T19:47:02Z</time>
      </trkpt>
      <trkpt lat="-22.193968" lon="-45.253545">
        <ele>1003.870</ele>
        <time>2019-10-16T19:47:03Z</time>
      </trkpt>
      <trkpt lat="-22.193921" lon="-45.253558">
        <ele>1003.783</ele>
        <time>2019-10-16T19:47:05Z</time>
      </trkpt>
      <trkpt lat="-22.193876" lon="-45.253569">
        <ele>1003.521</ele>
        <time>2019-10-16T19:47:06Z</time>
      </trkpt>
      <trkpt lat="-22.193818" lon="-45.253590">
        <ele>1003.331</ele>
        <time>2019-10-16T19:47:08Z</time>
      </trkpt>
      <trkpt lat="-22.193750" lon="-45.253613">
        <ele>1003.013</ele>
        <time>2019-10-16T19:47:11Z</time>
      </trkpt>
      <trkpt lat="-22.193703" lon="-45.253627">
        <ele>1002.817</ele>
        <time>2019-10-16T19:47:12Z</time>
      </trkpt>
      <trkpt lat="-22.193655" lon="-45.253645">
        <ele>1002.654</ele>
        <time>2019-10-16T19:47:13Z</time>
      </trkpt>
      <trkpt lat="-22.193577" lon="-45.253667">
        <ele>1002.496</ele>
        <time>2019-10-16T19:47:17Z</time>
      </trkpt>
      <trkpt lat="-22.193494" lon="-45.253701">
        <ele>1002.031</ele>
        <time>2019-10-16T19:47:19Z</time>
      </trkpt>
      <trkpt lat="-22.193449" lon="-45.253716">
        <ele>1001.824</ele>
        <time>2019-10-16T19:47:21Z</time>
      </trkpt>
      <trkpt lat="-22.193401" lon="-45.253735">
        <ele>1001.608</ele>
        <time>2019-10-16T19:47:22Z</time>
      </trkpt>
      <trkpt lat="-22.193336" lon="-45.253757">
        <ele>1001.423</ele>
        <time>2019-10-16T19:47:25Z</time>
      </trkpt>
      <trkpt lat="-22.193291" lon="-45.253773">
        <ele>1001.381</ele>
        <time>2019-10-16T19:47:26Z</time>
      </trkpt>
      <trkpt lat="-22.193246" lon="-45.253786">
        <ele>1001.374</ele>
        <time>2019-10-16T19:47:28Z</time>
      </trkpt>
      <trkpt lat="-22.193201" lon="-45.253800">
        <ele>1001.392</ele>
        <time>2019-10-16T19:47:29Z</time>
      </trkpt>
      <trkpt lat="-22.193147" lon="-45.253805">
        <ele>1001.432</ele>
        <time>2019-10-16T19:47:31Z</time>
      </trkpt>
      <trkpt lat="-22.193079" lon="-45.253839">
        <ele>1001.314</ele>
        <time>2019-10-16T19:47:34Z</time>
      </trkpt>
      <trkpt lat="-22.193021" lon="-45.253859">
        <ele>1001.268</ele>
        <time>2019-10-16T19:47:36Z</time>
      </trkpt>
      <trkpt lat="-22.192976" lon="-45.253881">
        <ele>1001.225</ele>
        <time>2019-10-16T19:47:38Z</time>
      </trkpt>
      <trkpt lat="-22.192916" lon="-45.253913">
        <ele>1001.172</ele>
        <time>2019-10-16T19:47:40Z</time>
      </trkpt>
      <trkpt lat="-22.192848" lon="-45.253951">
        <ele>1001.013</ele>
        <time>2019-10-16T19:47:45Z</time>
      </trkpt>
      <trkpt lat="-22.192774" lon="-45.254009">
        <ele>1000.814</ele>
        <time>2019-10-16T19:47:46Z</time>
      </trkpt>
      <trkpt lat="-22.192733" lon="-45.254044">
        <ele>1000.708</ele>
        <time>2019-10-16T19:47:48Z</time>
      </trkpt>
      <trkpt lat="-22.192694" lon="-45.254077">
        <ele>1000.671</ele>
        <time>2019-10-16T19:47:51Z</time>
      </trkpt>
      <trkpt lat="-22.192638" lon="-45.254123">
        <ele>1000.539</ele>
        <time>2019-10-16T19:47:54Z</time>
      </trkpt>
      <trkpt lat="-22.192587" lon="-45.254162">
        <ele>1000.512</ele>
        <time>2019-10-16T19:47:56Z</time>
      </trkpt>
      <trkpt lat="-22.192525" lon="-45.254206">
        <ele>1000.710</ele>
        <time>2019-10-16T19:47:57Z</time>
      </trkpt>
      <trkpt lat="-22.192476" lon="-45.254243">
        <ele>1001.250</ele>
        <time>2019-10-16T19:47:59Z</time>
      </trkpt>
      <trkpt lat="-22.192435" lon="-45.254273">
        <ele>1001.922</ele>
        <time>2019-10-16T19:48:01Z</time>
      </trkpt>
      <trkpt lat="-22.192394" lon="-45.254303">
        <ele>1002.636</ele>
        <time>2019-10-16T19:48:04Z</time>
      </trkpt>
      <trkpt lat="-22.192347" lon="-45.254329">
        <ele>1003.373</ele>
        <time>2019-10-16T19:48:08Z</time>
      </trkpt>
      <trkpt lat="-22.192303" lon="-45.254355">
        <ele>1004.086</ele>
        <time>2019-10-16T19:48:12Z</time>
      </trkpt>
      <trkpt lat="-22.192258" lon="-45.254383">
        <ele>1004.660</ele>
        <time>2019-10-16T19:48:15Z</time>
      </trkpt>
      <trkpt lat="-22.192203" lon="-45.254419">
        <ele>1005.326</ele>
        <time>2019-10-16T19:48:19Z</time>
      </trkpt>
      <trkpt lat="-22.192147" lon="-45.254457">
        <ele>1006.008</ele>
        <time>2019-10-16T19:48:22Z</time>
      </trkpt>
      <trkpt lat="-22.192085" lon="-45.254493">
        <ele>1006.642</ele>
        <time>2019-10-16T19:48:26Z</time>
      </trkpt>
      <trkpt lat="-22.192034" lon="-45.254521">
        <ele>1007.240</ele>
        <time>2019-10-16T19:48:29Z</time>
      </trkpt>
      <trkpt lat="-22.191988" lon="-45.254547">
        <ele>1007.613</ele>
        <time>2019-10-16T19:48:31Z</time>
      </trkpt>
      <trkpt lat="-22.191931" lon="-45.254594">
        <ele>1007.991</ele>
        <time>2019-10-16T19:48:32Z</time>
      </trkpt>
      <trkpt lat="-22.191827" lon="-45.254705">
        <ele>1007.941</ele>
        <time>2019-10-16T19:48:34Z</time>
      </trkpt>
      <trkpt lat="-22.191637" lon="-45.254881">
        <ele>1007.493</ele>
        <time>2019-10-16T19:48:35Z</time>
      </trkpt>
      <trkpt lat="-22.191557" lon="-45.254952">
        <ele>1007.117</ele>
        <time>2019-10-16T19:48:37Z</time>
      </trkpt>
      <trkpt lat="-22.191510" lon="-45.254993">
        <ele>1006.844</ele>
        <time>2019-10-16T19:48:39Z</time>
      </trkpt>
      <trkpt lat="-22.191442" lon="-45.255046">
        <ele>1006.834</ele>
        <time>2019-10-16T19:48:40Z</time>
      </trkpt>
      <trkpt lat="-22.191397" lon="-45.255082">
        <ele>1006.855</ele>
        <time>2019-10-16T19:48:42Z</time>
      </trkpt>
      <trkpt lat="-22.191334" lon="-45.255134">
        <ele>1006.610</ele>
        <time>2019-10-16T19:48:43Z</time>
      </trkpt>
      <trkpt lat="-22.191288" lon="-45.255166">
        <ele>1006.608</ele>
        <time>2019-10-16T19:48:45Z</time>
      </trkpt>
      <trkpt lat="-22.191228" lon="-45.255211">
        <ele>1006.437</ele>
        <time>2019-10-16T19:48:47Z</time>
      </trkpt>
      <trkpt lat="-22.191181" lon="-45.255247">
        <ele>1006.225</ele>
        <time>2019-10-16T19:48:48Z</time>
      </trkpt>
      <trkpt lat="-22.191134" lon="-45.255283">
        <ele>1006.018</ele>
        <time>2019-10-16T19:48:50Z</time>
      </trkpt>
      <trkpt lat="-22.191092" lon="-45.255319">
        <ele>1005.666</ele>
        <time>2019-10-16T19:48:52Z</time>
      </trkpt>
      <trkpt lat="-22.191048" lon="-45.255349">
        <ele>1005.426</ele>
        <time>2019-10-16T19:48:53Z</time>
      </trkpt>
      <trkpt lat="-22.190978" lon="-45.255392">
        <ele>1005.128</ele>
        <time>2019-10-16T19:48:56Z</time>
      </trkpt>
      <trkpt lat="-22.190931" lon="-45.255416">
        <ele>1004.922</ele>
        <time>2019-10-16T19:48:58Z</time>
      </trkpt>
      <trkpt lat="-22.190883" lon="-45.255441">
        <ele>1004.739</ele>
        <time>2019-10-16T19:48:59Z</time>
      </trkpt>
      <trkpt lat="-22.190821" lon="-45.255477">
        <ele>1004.462</ele>
        <time>2019-10-16T19:49:01Z</time>
      </trkpt>
      <trkpt lat="-22.190756" lon="-45.255514">
        <ele>1004.083</ele>
        <time>2019-10-16T19:49:04Z</time>
      </trkpt>
      <trkpt lat="-22.190709" lon="-45.255539">
        <ele>1003.811</ele>
        <time>2019-10-16T19:49:05Z</time>
      </trkpt>
      <trkpt lat="-22.190644" lon="-45.255561">
        <ele>1003.808</ele>
        <time>2019-10-16T19:49:07Z</time>
      </trkpt>
      <trkpt lat="-22.190578" lon="-45.255584">
        <ele>1003.750</ele>
        <time>2019-10-16T19:49:09Z</time>
      </trkpt>
      <trkpt lat="-22.190495" lon="-45.255618">
        <ele>1003.498</ele>
        <time>2019-10-16T19:49:13Z</time>
      </trkpt>
      <trkpt lat="-22.190430" lon="-45.255650">
        <ele>1003.171</ele>
        <time>2019-10-16T19:49:15Z</time>
      </trkpt>
      <trkpt lat="-22.190388" lon="-45.255668">
        <ele>1002.989</ele>
        <time>2019-10-16T19:49:16Z</time>
      </trkpt>
      <trkpt lat="-22.190321" lon="-45.255688">
        <ele>1002.919</ele>
        <time>2019-10-16T19:49:19Z</time>
      </trkpt>
      <trkpt lat="-22.190275" lon="-45.255700">
        <ele>1002.881</ele>
        <time>2019-10-16T19:49:21Z</time>
      </trkpt>
      <trkpt lat="-22.190228" lon="-45.255712">
        <ele>1002.835</ele>
        <time>2019-10-16T19:49:22Z</time>
      </trkpt>
      <trkpt lat="-22.190166" lon="-45.255726">
        <ele>1002.872</ele>
        <time>2019-10-16T19:49:24Z</time>
      </trkpt>
      <trkpt lat="-22.190119" lon="-45.255741">
        <ele>1002.727</ele>
        <time>2019-10-16T19:49:26Z</time>
      </trkpt>
      <trkpt lat="-22.190073" lon="-45.255751">
        <ele>1002.768</ele>
        <time>2019-10-16T19:49:28Z</time>
      </trkpt>
      <trkpt lat="-22.190022" lon="-45.255758">
        <ele>1002.814</ele>
        <time>2019-10-16T19:49:30Z</time>
      </trkpt>
      <trkpt lat="-22.189948" lon="-45.255764">
        <ele>1002.908</ele>
        <time>2019-10-16T19:49:33Z</time>
      </trkpt>
      <trkpt lat="-22.189888" lon="-45.255771">
        <ele>1003.016</ele>
        <time>2019-10-16T19:49:34Z</time>
      </trkpt>
      <trkpt lat="-22.189813" lon="-45.255779">
        <ele>1003.014</ele>
        <time>2019-10-16T19:49:36Z</time>
      </trkpt>
      <trkpt lat="-22.189765" lon="-45.255786">
        <ele>1003.087</ele>
        <time>2019-10-16T19:49:37Z</time>
      </trkpt>
      <trkpt lat="-22.189670" lon="-45.255798">
        <ele>1003.125</ele>
        <time>2019-10-16T19:49:40Z</time>
      </trkpt>
      <trkpt lat="-22.189608" lon="-45.255808">
        <ele>1003.085</ele>
        <time>2019-10-16T19:49:43Z</time>
      </trkpt>
      <trkpt lat="-22.189548" lon="-45.255815">
        <ele>1003.137</ele>
        <time>2019-10-16T19:49:45Z</time>
      </trkpt>
      <trkpt lat="-22.189494" lon="-45.255816">
        <ele>1003.261</ele>
        <time>2019-10-16T19:49:46Z</time>
      </trkpt>
      <trkpt lat="-22.189423" lon="-45.255819">
        <ele>1003.498</ele>
        <time>2019-10-16T19:49:49Z</time>
      </trkpt>
      <trkpt lat="-22.189356" lon="-45.255816">
        <ele>1003.767</ele>
        <time>2019-10-16T19:49:51Z</time>
      </trkpt>
      <trkpt lat="-22.189306" lon="-45.255811">
        <ele>1004.081</ele>
        <time>2019-10-16T19:49:52Z</time>
      </trkpt>
      <trkpt lat="-22.189239" lon="-45.255807">
        <ele>1004.419</ele>
        <time>2019-10-16T19:49:54Z</time>
      </trkpt>
      <trkpt lat="-22.189169" lon="-45.255811">
        <ele>1004.508</ele>
        <time>2019-10-16T19:49:56Z</time>
      </trkpt>
      <trkpt lat="-22.189099" lon="-45.255808">
        <ele>1004.630</ele>
        <time>2019-10-16T19:49:58Z</time>
      </trkpt>
      <trkpt lat="-22.189049" lon="-45.255799">
        <ele>1004.838</ele>
        <time>2019-10-16T19:50:01Z</time>
      </trkpt>
      <trkpt lat="-22.188995" lon="-45.255786">
        <ele>1005.011</ele>
        <time>2019-10-16T19:50:03Z</time>
      </trkpt>
      <trkpt lat="-22.188937" lon="-45.255779">
        <ele>1005.179</ele>
        <time>2019-10-16T19:50:05Z</time>
      </trkpt>
      <trkpt lat="-22.188874" lon="-45.255774">
        <ele>1005.129</ele>
        <time>2019-10-16T19:50:06Z</time>
      </trkpt>
      <trkpt lat="-22.188803" lon="-45.255764">
        <ele>1005.361</ele>
        <time>2019-10-16T19:50:08Z</time>
      </trkpt>
      <trkpt lat="-22.188743" lon="-45.255753">
        <ele>1005.485</ele>
        <time>2019-10-16T19:50:10Z</time>
      </trkpt>
      <trkpt lat="-22.188655" lon="-45.255734">
        <ele>1005.612</ele>
        <time>2019-10-16T19:50:13Z</time>
      </trkpt>
      <trkpt lat="-22.188602" lon="-45.255730">
        <ele>1005.688</ele>
        <time>2019-10-16T19:50:14Z</time>
      </trkpt>
      <trkpt lat="-22.188506" lon="-45.255713">
        <ele>1005.624</ele>
        <time>2019-10-16T19:50:18Z</time>
      </trkpt>
      <trkpt lat="-22.188451" lon="-45.255691">
        <ele>1005.826</ele>
        <time>2019-10-16T19:50:20Z</time>
      </trkpt>
      <trkpt lat="-22.188404" lon="-45.255670">
        <ele>1005.908</ele>
        <time>2019-10-16T19:50:23Z</time>
      </trkpt>
      <trkpt lat="-22.188358" lon="-45.255649">
        <ele>1006.162</ele>
        <time>2019-10-16T19:50:26Z</time>
      </trkpt>
      <trkpt lat="-22.188177" lon="-45.255580">
        <ele>1006.130</ele>
        <time>2019-10-16T19:50:31Z</time>
      </trkpt>
      <trkpt lat="-22.188095" lon="-45.255539">
        <ele>1006.133</ele>
        <time>2019-10-16T19:50:33Z</time>
      </trkpt>
      <trkpt lat="-22.188049" lon="-45.255514">
        <ele>1006.281</ele>
        <time>2019-10-16T19:50:35Z</time>
      </trkpt>
      <trkpt lat="-22.187992" lon="-45.255473">
        <ele>1006.391</ele>
        <time>2019-10-16T19:50:38Z</time>
      </trkpt>
      <trkpt lat="-22.187943" lon="-45.255445">
        <ele>1006.483</ele>
        <time>2019-10-16T19:50:42Z</time>
      </trkpt>
      <trkpt lat="-22.187882" lon="-45.255417">
        <ele>1006.347</ele>
        <time>2019-10-16T19:50:47Z</time>
      </trkpt>
      <trkpt lat="-22.187813" lon="-45.255392">
        <ele>1006.294</ele>
        <time>2019-10-16T19:50:50Z</time>
      </trkpt>
      <trkpt lat="-22.187764" lon="-45.255382">
        <ele>1006.121</ele>
        <time>2019-10-16T19:50:52Z</time>
      </trkpt>
      <trkpt lat="-22.187709" lon="-45.255364">
        <ele>1006.041</ele>
        <time>2019-10-16T19:50:55Z</time>
      </trkpt>
      <trkpt lat="-22.187666" lon="-45.255348">
        <ele>1005.905</ele>
        <time>2019-10-16T19:50:56Z</time>
      </trkpt>
      <trkpt lat="-22.187581" lon="-45.255314">
        <ele>1005.808</ele>
        <time>2019-10-16T19:50:58Z</time>
      </trkpt>
      <trkpt lat="-22.187468" lon="-45.255298">
        <ele>1005.566</ele>
        <time>2019-10-16T19:51:00Z</time>
      </trkpt>
      <trkpt lat="-22.187328" lon="-45.255271">
        <ele>1005.764</ele>
        <time>2019-10-16T19:51:01Z</time>
      </trkpt>
      <trkpt lat="-22.187271" lon="-45.255260">
        <ele>1005.747</ele>
        <time>2019-10-16T19:51:02Z</time>
      </trkpt>
      <trkpt lat="-22.187219" lon="-45.255246">
        <ele>1005.935</ele>
        <time>2019-10-16T19:51:03Z</time>
      </trkpt>
      <trkpt lat="-22.187168" lon="-45.255220">
        <ele>1006.125</ele>
        <time>2019-10-16T19:51:06Z</time>
      </trkpt>
      <trkpt lat="-22.187134" lon="-45.255179">
        <ele>1006.667</ele>
        <time>2019-10-16T19:51:07Z</time>
      </trkpt>
      <trkpt lat="-22.187092" lon="-45.255151">
        <ele>1006.981</ele>
        <time>2019-10-16T19:51:09Z</time>
      </trkpt>
      <trkpt lat="-22.187020" lon="-45.255106">
        <ele>1007.478</ele>
        <time>2019-10-16T19:51:12Z</time>
      </trkpt>
      <trkpt lat="-22.186959" lon="-45.255074">
        <ele>1007.835</ele>
        <time>2019-10-16T19:51:15Z</time>
      </trkpt>
      <trkpt lat="-22.186915" lon="-45.255054">
        <ele>1008.186</ele>
        <time>2019-10-16T19:51:16Z</time>
      </trkpt>
      <trkpt lat="-22.186859" lon="-45.255034">
        <ele>1008.414</ele>
        <time>2019-10-16T19:51:18Z</time>
      </trkpt>
      <trkpt lat="-22.186810" lon="-45.255020">
        <ele>1008.608</ele>
        <time>2019-10-16T19:51:20Z</time>
      </trkpt>
      <trkpt lat="-22.186759" lon="-45.255006">
        <ele>1008.867</ele>
        <time>2019-10-16T19:51:22Z</time>
      </trkpt>
      <trkpt lat="-22.186687" lon="-45.254972">
        <ele>1009.525</ele>
        <time>2019-10-16T19:51:24Z</time>
      </trkpt>
      <trkpt lat="-22.186560" lon="-45.254918">
        <ele>1009.518</ele>
        <time>2019-10-16T19:51:25Z</time>
      </trkpt>
      <trkpt lat="-22.186409" lon="-45.254877">
        <ele>1008.696</ele>
        <time>2019-10-16T19:51:27Z</time>
      </trkpt>
      <trkpt lat="-22.186321" lon="-45.254828">
        <ele>1008.596</ele>
        <time>2019-10-16T19:51:29Z</time>
      </trkpt>
      <trkpt lat="-22.186189" lon="-45.254746">
        <ele>1008.238</ele>
        <time>2019-10-16T19:51:31Z</time>
      </trkpt>
      <trkpt lat="-22.186124" lon="-45.254707">
        <ele>1008.052</ele>
        <time>2019-10-16T19:51:32Z</time>
      </trkpt>
      <trkpt lat="-22.186008" lon="-45.254646">
        <ele>1007.549</ele>
        <time>2019-10-16T19:51:35Z</time>
      </trkpt>
      <trkpt lat="-22.185933" lon="-45.254620">
        <ele>1006.892</ele>
        <time>2019-10-16T19:51:37Z</time>
      </trkpt>
      <trkpt lat="-22.185847" lon="-45.254593">
        <ele>1006.173</ele>
        <time>2019-10-16T19:51:38Z</time>
      </trkpt>
      <trkpt lat="-22.185781" lon="-45.254572">
        <ele>1006.320</ele>
        <time>2019-10-16T19:51:40Z</time>
      </trkpt>
      <trkpt lat="-22.185726" lon="-45.254550">
        <ele>1006.808</ele>
        <time>2019-10-16T19:51:43Z</time>
      </trkpt>
      <trkpt lat="-22.185653" lon="-45.254517">
        <ele>1007.523</ele>
        <time>2019-10-16T19:51:46Z</time>
      </trkpt>
      <trkpt lat="-22.185601" lon="-45.254504">
        <ele>1007.921</ele>
        <time>2019-10-16T19:51:47Z</time>
      </trkpt>
      <trkpt lat="-22.185500" lon="-45.254491">
        <ele>1008.694</ele>
        <time>2019-10-16T19:51:50Z</time>
      </trkpt>
      <trkpt lat="-22.185424" lon="-45.254500">
        <ele>1008.842</ele>
        <time>2019-10-16T19:51:52Z</time>
      </trkpt>
      <trkpt lat="-22.185363" lon="-45.254503">
        <ele>1009.032</ele>
        <time>2019-10-16T19:51:54Z</time>
      </trkpt>
      <trkpt lat="-22.185287" lon="-45.254507">
        <ele>1009.284</ele>
        <time>2019-10-16T19:51:57Z</time>
      </trkpt>
      <trkpt lat="-22.185212" lon="-45.254515">
        <ele>1009.468</ele>
        <time>2019-10-16T19:51:58Z</time>
      </trkpt>
      <trkpt lat="-22.185153" lon="-45.254526">
        <ele>1009.595</ele>
        <time>2019-10-16T19:52:00Z</time>
      </trkpt>
      <trkpt lat="-22.185068" lon="-45.254545">
        <ele>1009.559</ele>
        <time>2019-10-16T19:52:03Z</time>
      </trkpt>
      <trkpt lat="-22.185019" lon="-45.254556">
        <ele>1009.503</ele>
        <time>2019-10-16T19:52:04Z</time>
      </trkpt>
      <trkpt lat="-22.184965" lon="-45.254568">
        <ele>1009.323</ele>
        <time>2019-10-16T19:52:06Z</time>
      </trkpt>
      <trkpt lat="-22.184883" lon="-45.254586">
        <ele>1008.908</ele>
        <time>2019-10-16T19:52:09Z</time>
      </trkpt>
      <trkpt lat="-22.184798" lon="-45.254613">
        <ele>1008.359</ele>
        <time>2019-10-16T19:52:11Z</time>
      </trkpt>
      <trkpt lat="-22.184736" lon="-45.254627">
        <ele>1008.087</ele>
        <time>2019-10-16T19:52:13Z</time>
      </trkpt>
      <trkpt lat="-22.184638" lon="-45.254652">
        <ele>1007.480</ele>
        <time>2019-10-16T19:52:17Z</time>
      </trkpt>
      <trkpt lat="-22.184569" lon="-45.254661">
        <ele>1007.198</ele>
        <time>2019-10-16T19:52:19Z</time>
      </trkpt>
      <trkpt lat="-22.184514" lon="-45.254671">
        <ele>1006.818</ele>
        <time>2019-10-16T19:52:21Z</time>
      </trkpt>
      <trkpt lat="-22.184464" lon="-45.254672">
        <ele>1006.870</ele>
        <time>2019-10-16T19:52:24Z</time>
      </trkpt>
      <trkpt lat="-22.184394" lon="-45.254662">
        <ele>1006.934</ele>
        <time>2019-10-16T19:52:25Z</time>
      </trkpt>
      <trkpt lat="-22.184348" lon="-45.254659">
        <ele>1006.931</ele>
        <time>2019-10-16T19:52:26Z</time>
      </trkpt>
      <trkpt lat="-22.184227" lon="-45.254668">
        <ele>1006.692</ele>
        <time>2019-10-16T19:52:29Z</time>
      </trkpt>
      <trkpt lat="-22.184170" lon="-45.254671">
        <ele>1006.573</ele>
        <time>2019-10-16T19:52:30Z</time>
      </trkpt>
      <trkpt lat="-22.184105" lon="-45.254651">
        <ele>1006.320</ele>
        <time>2019-10-16T19:52:32Z</time>
      </trkpt>
      <trkpt lat="-22.184048" lon="-45.254629">
        <ele>1006.208</ele>
        <time>2019-10-16T19:52:33Z</time>
      </trkpt>
      <trkpt lat="-22.183958" lon="-45.254596">
        <ele>1006.073</ele>
        <time>2019-10-16T19:52:36Z</time>
      </trkpt>
      <trkpt lat="-22.183911" lon="-45.254577">
        <ele>1005.931</ele>
        <time>2019-10-16T19:52:38Z</time>
      </trkpt>
      <trkpt lat="-22.183866" lon="-45.254557">
        <ele>1005.844</ele>
        <time>2019-10-16T19:52:39Z</time>
      </trkpt>
      <trkpt lat="-22.183800" lon="-45.254529">
        <ele>1005.742</ele>
        <time>2019-10-16T19:52:42Z</time>
      </trkpt>
      <trkpt lat="-22.183746" lon="-45.254503">
        <ele>1005.672</ele>
        <time>2019-10-16T19:52:43Z</time>
      </trkpt>
      <trkpt lat="-22.183700" lon="-45.254472">
        <ele>1005.754</ele>
        <time>2019-10-16T19:52:45Z</time>
      </trkpt>
      <trkpt lat="-22.183641" lon="-45.254437">
        <ele>1005.748</ele>
        <time>2019-10-16T19:52:47Z</time>
      </trkpt>
      <trkpt lat="-22.183592" lon="-45.254406">
        <ele>1005.845</ele>
        <time>2019-10-16T19:52:48Z</time>
      </trkpt>
      <trkpt lat="-22.183536" lon="-45.254362">
        <ele>1005.922</ele>
        <time>2019-10-16T19:52:51Z</time>
      </trkpt>
      <trkpt lat="-22.183487" lon="-45.254342">
        <ele>1005.762</ele>
        <time>2019-10-16T19:52:52Z</time>
      </trkpt>
      <trkpt lat="-22.183393" lon="-45.254274">
        <ele>1005.808</ele>
        <time>2019-10-16T19:52:56Z</time>
      </trkpt>
      <trkpt lat="-22.183352" lon="-45.254240">
        <ele>1005.908</ele>
        <time>2019-10-16T19:52:58Z</time>
      </trkpt>
      <trkpt lat="-22.183286" lon="-45.254200">
        <ele>1006.016</ele>
        <time>2019-10-16T19:53:00Z</time>
      </trkpt>
      <trkpt lat="-22.183229" lon="-45.254172">
        <ele>1006.074</ele>
        <time>2019-10-16T19:53:02Z</time>
      </trkpt>
      <trkpt lat="-22.183180" lon="-45.254146">
        <ele>1006.027</ele>
        <time>2019-10-16T19:53:04Z</time>
      </trkpt>
      <trkpt lat="-22.183126" lon="-45.254122">
        <ele>1005.895</ele>
        <time>2019-10-16T19:53:06Z</time>
      </trkpt>
      <trkpt lat="-22.183080" lon="-45.254101">
        <ele>1005.895</ele>
        <time>2019-10-16T19:53:10Z</time>
      </trkpt>
      <trkpt lat="-22.183023" lon="-45.254068">
        <ele>1005.847</ele>
        <time>2019-10-16T19:53:15Z</time>
      </trkpt>
      <trkpt lat="-22.182975" lon="-45.254047">
        <ele>1005.881</ele>
        <time>2019-10-16T19:53:18Z</time>
      </trkpt>
      <trkpt lat="-22.182935" lon="-45.254024">
        <ele>1005.978</ele>
        <time>2019-10-16T19:53:21Z</time>
      </trkpt>
      <trkpt lat="-22.182895" lon="-45.253999">
        <ele>1006.153</ele>
        <time>2019-10-16T19:53:24Z</time>
      </trkpt>
      <trkpt lat="-22.182859" lon="-45.253969">
        <ele>1006.404</ele>
        <time>2019-10-16T19:53:26Z</time>
      </trkpt>
      <trkpt lat="-22.182819" lon="-45.253936">
        <ele>1006.814</ele>
        <time>2019-10-16T19:53:29Z</time>
      </trkpt>
      <trkpt lat="-22.182778" lon="-45.253898">
        <ele>1007.308</ele>
        <time>2019-10-16T19:53:33Z</time>
      </trkpt>
      <trkpt lat="-22.182742" lon="-45.253867">
        <ele>1007.779</ele>
        <time>2019-10-16T19:53:35Z</time>
      </trkpt>
      <trkpt lat="-22.182690" lon="-45.253823">
        <ele>1008.427</ele>
        <time>2019-10-16T19:53:37Z</time>
      </trkpt>
      <trkpt lat="-22.182648" lon="-45.253787">
        <ele>1009.090</ele>
        <time>2019-10-16T19:53:40Z</time>
      </trkpt>
      <trkpt lat="-22.182599" lon="-45.253741">
        <ele>1009.968</ele>
        <time>2019-10-16T19:53:43Z</time>
      </trkpt>
      <trkpt lat="-22.182558" lon="-45.253700">
        <ele>1010.778</ele>
        <time>2019-10-16T19:53:45Z</time>
      </trkpt>
      <trkpt lat="-22.182514" lon="-45.253652">
        <ele>1011.730</ele>
        <time>2019-10-16T19:53:48Z</time>
      </trkpt>
      <trkpt lat="-22.182459" lon="-45.253605">
        <ele>1012.634</ele>
        <time>2019-10-16T19:53:52Z</time>
      </trkpt>
      <trkpt lat="-22.182414" lon="-45.253561">
        <ele>1013.411</ele>
        <time>2019-10-16T19:53:55Z</time>
      </trkpt>
      <trkpt lat="-22.182368" lon="-45.253530">
        <ele>1013.999</ele>
        <time>2019-10-16T19:53:58Z</time>
      </trkpt>
      <trkpt lat="-22.182312" lon="-45.253495">
        <ele>1014.407</ele>
        <time>2019-10-16T19:54:01Z</time>
      </trkpt>
      <trkpt lat="-22.182181" lon="-45.253409">
        <ele>1015.527</ele>
        <time>2019-10-16T19:54:03Z</time>
      </trkpt>
      <trkpt lat="-22.182062" lon="-45.253307">
        <ele>1016.808</ele>
        <time>2019-10-16T19:54:05Z</time>
      </trkpt>
      <trkpt lat="-22.181876" lon="-45.253202">
        <ele>1017.013</ele>
        <time>2019-10-16T19:54:07Z</time>
      </trkpt>
      <trkpt lat="-22.181781" lon="-45.253148">
        <ele>1016.851</ele>
        <time>2019-10-16T19:54:09Z</time>
      </trkpt>
      <trkpt lat="-22.181663" lon="-45.253082">
        <ele>1016.434</ele>
        <time>2019-10-16T19:54:11Z</time>
      </trkpt>
      <trkpt lat="-22.181578" lon="-45.253038">
        <ele>1015.792</ele>
        <time>2019-10-16T19:54:13Z</time>
      </trkpt>
      <trkpt lat="-22.181441" lon="-45.252989">
        <ele>1014.562</ele>
        <time>2019-10-16T19:54:15Z</time>
      </trkpt>
      <trkpt lat="-22.181351" lon="-45.252961">
        <ele>1013.624</ele>
        <time>2019-10-16T19:54:17Z</time>
      </trkpt>
      <trkpt lat="-22.181277" lon="-45.252937">
        <ele>1012.928</ele>
        <time>2019-10-16T19:54:19Z</time>
      </trkpt>
      <trkpt lat="-22.181188" lon="-45.252910">
        <ele>1012.045</ele>
        <time>2019-10-16T19:54:21Z</time>
      </trkpt>
      <trkpt lat="-22.181125" lon="-45.252887">
        <ele>1011.485</ele>
        <time>2019-10-16T19:54:22Z</time>
      </trkpt>
      <trkpt lat="-22.181051" lon="-45.252864">
        <ele>1010.789</ele>
        <time>2019-10-16T19:54:23Z</time>
      </trkpt>
      <trkpt lat="-22.180960" lon="-45.252821">
        <ele>1009.917</ele>
        <time>2019-10-16T19:54:25Z</time>
      </trkpt>
      <trkpt lat="-22.180890" lon="-45.252787">
        <ele>1009.308</ele>
        <time>2019-10-16T19:54:27Z</time>
      </trkpt>
      <trkpt lat="-22.180845" lon="-45.252769">
        <ele>1008.932</ele>
        <time>2019-10-16T19:54:28Z</time>
      </trkpt>
      <trkpt lat="-22.180772" lon="-45.252736">
        <ele>1009.090</ele>
        <time>2019-10-16T19:54:30Z</time>
      </trkpt>
      <trkpt lat="-22.180723" lon="-45.252707">
        <ele>1009.323</ele>
        <time>2019-10-16T19:54:32Z</time>
      </trkpt>
      <trkpt lat="-22.180671" lon="-45.252677">
        <ele>1009.571</ele>
        <time>2019-10-16T19:54:33Z</time>
      </trkpt>
      <trkpt lat="-22.180614" lon="-45.252648">
        <ele>1009.871</ele>
        <time>2019-10-16T19:54:35Z</time>
      </trkpt>
      <trkpt lat="-22.180552" lon="-45.252612">
        <ele>1010.253</ele>
        <time>2019-10-16T19:54:37Z</time>
      </trkpt>
      <trkpt lat="-22.180508" lon="-45.252585">
        <ele>1010.587</ele>
        <time>2019-10-16T19:54:39Z</time>
      </trkpt>
      <trkpt lat="-22.180452" lon="-45.252550">
        <ele>1010.984</ele>
        <time>2019-10-16T19:54:41Z</time>
      </trkpt>
      <trkpt lat="-22.180403" lon="-45.252524">
        <ele>1011.327</ele>
        <time>2019-10-16T19:54:43Z</time>
      </trkpt>
      <trkpt lat="-22.180328" lon="-45.252478">
        <ele>1012.068</ele>
        <time>2019-10-16T19:54:46Z</time>
      </trkpt>
      <trkpt lat="-22.180277" lon="-45.252450">
        <ele>1012.514</ele>
        <time>2019-10-16T19:54:48Z</time>
      </trkpt>
      <trkpt lat="-22.180223" lon="-45.252416">
        <ele>1013.108</ele>
        <time>2019-10-16T19:54:50Z</time>
      </trkpt>
      <trkpt lat="-22.180183" lon="-45.252378">
        <ele>1013.846</ele>
        <time>2019-10-16T19:54:52Z</time>
      </trkpt>
      <trkpt lat="-22.180151" lon="-45.252341">
        <ele>1014.414</ele>
        <time>2019-10-16T19:54:54Z</time>
      </trkpt>
      <trkpt lat="-22.180079" lon="-45.252277">
        <ele>1015.567</ele>
        <time>2019-10-16T19:54:57Z</time>
      </trkpt>
      <trkpt lat="-22.180013" lon="-45.252236">
        <ele>1016.175</ele>
        <time>2019-10-16T19:55:00Z</time>
      </trkpt>
      <trkpt lat="-22.179959" lon="-45.252214">
        <ele>1015.925</ele>
        <time>2019-10-16T19:55:01Z</time>
      </trkpt>
      <trkpt lat="-22.179899" lon="-45.252191">
        <ele>1015.467</ele>
        <time>2019-10-16T19:55:03Z</time>
      </trkpt>
      <trkpt lat="-22.179840" lon="-45.252174">
        <ele>1014.951</ele>
        <time>2019-10-16T19:55:05Z</time>
      </trkpt>
      <trkpt lat="-22.179777" lon="-45.252145">
        <ele>1014.548</ele>
        <time>2019-10-16T19:55:06Z</time>
      </trkpt>
      <trkpt lat="-22.179452" lon="-45.251962">
        <ele>1013.583</ele>
        <time>2019-10-16T19:55:13Z</time>
      </trkpt>
      <trkpt lat="-22.179400" lon="-45.251934">
        <ele>1013.425</ele>
        <time>2019-10-16T19:55:15Z</time>
      </trkpt>
      <trkpt lat="-22.179347" lon="-45.251909">
        <ele>1013.317</ele>
        <time>2019-10-16T19:55:18Z</time>
      </trkpt>
      <trkpt lat="-22.179284" lon="-45.251887">
        <ele>1012.908</ele>
        <time>2019-10-16T19:55:20Z</time>
      </trkpt>
      <trkpt lat="-22.179237" lon="-45.251868">
        <ele>1012.792</ele>
        <time>2019-10-16T19:55:21Z</time>
      </trkpt>
      <trkpt lat="-22.179148" lon="-45.251828">
        <ele>1012.820</ele>
        <time>2019-10-16T19:55:25Z</time>
      </trkpt>
      <trkpt lat="-22.179103" lon="-45.251816">
        <ele>1013.253</ele>
        <time>2019-10-16T19:55:27Z</time>
      </trkpt>
      <trkpt lat="-22.179050" lon="-45.251805">
        <ele>1013.711</ele>
        <time>2019-10-16T19:55:29Z</time>
      </trkpt>
      <trkpt lat="-22.178981" lon="-45.251798">
        <ele>1014.291</ele>
        <time>2019-10-16T19:55:32Z</time>
      </trkpt>
      <trkpt lat="-22.178908" lon="-45.251783">
        <ele>1014.973</ele>
        <time>2019-10-16T19:55:36Z</time>
      </trkpt>
      <trkpt lat="-22.178860" lon="-45.251777">
        <ele>1015.257</ele>
        <time>2019-10-16T19:55:37Z</time>
      </trkpt>
      <trkpt lat="-22.178783" lon="-45.251783">
        <ele>1015.514</ele>
        <time>2019-10-16T19:55:39Z</time>
      </trkpt>
      <trkpt lat="-22.178731" lon="-45.251793">
        <ele>1015.553</ele>
        <time>2019-10-16T19:55:42Z</time>
      </trkpt>
      <trkpt lat="-22.178682" lon="-45.251806">
        <ele>1015.404</ele>
        <time>2019-10-16T19:55:45Z</time>
      </trkpt>
      <trkpt lat="-22.178570" lon="-45.251837">
        <ele>1015.114</ele>
        <time>2019-10-16T19:55:51Z</time>
      </trkpt>
      <trkpt lat="-22.178525" lon="-45.251843">
        <ele>1015.108</ele>
        <time>2019-10-16T19:55:54Z</time>
      </trkpt>
      <trkpt lat="-22.178450" lon="-45.251865">
        <ele>1014.879</ele>
        <time>2019-10-16T19:55:57Z</time>
      </trkpt>
      <trkpt lat="-22.178356" lon="-45.251899">
        <ele>1014.247</ele>
        <time>2019-10-16T19:55:58Z</time>
      </trkpt>
      <trkpt lat="-22.178289" lon="-45.251927">
        <ele>1013.710</ele>
        <time>2019-10-16T19:55:59Z</time>
      </trkpt>
      <trkpt lat="-22.178172" lon="-45.251972">
        <ele>1012.818</ele>
        <time>2019-10-16T19:56:00Z</time>
      </trkpt>
      <trkpt lat="-22.178094" lon="-45.252008">
        <ele>1012.198</ele>
        <time>2019-10-16T19:56:02Z</time>
      </trkpt>
      <trkpt lat="-22.178010" lon="-45.252045">
        <ele>1011.350</ele>
        <time>2019-10-16T19:56:04Z</time>
      </trkpt>
      <trkpt lat="-22.177896" lon="-45.252091">
        <ele>1010.384</ele>
        <time>2019-10-16T19:56:07Z</time>
      </trkpt>
      <trkpt lat="-22.177839" lon="-45.252118">
        <ele>1009.761</ele>
        <time>2019-10-16T19:56:08Z</time>
      </trkpt>
      <trkpt lat="-22.177784" lon="-45.252143">
        <ele>1009.281</ele>
        <time>2019-10-16T19:56:10Z</time>
      </trkpt>
      <trkpt lat="-22.177721" lon="-45.252170">
        <ele>1008.661</ele>
        <time>2019-10-16T19:56:11Z</time>
      </trkpt>
      <trkpt lat="-22.177639" lon="-45.252199">
        <ele>1007.917</ele>
        <time>2019-10-16T19:56:13Z</time>
      </trkpt>
      <trkpt lat="-22.177576" lon="-45.252220">
        <ele>1007.508</ele>
        <time>2019-10-16T19:56:16Z</time>
      </trkpt>
      <trkpt lat="-22.177526" lon="-45.252240">
        <ele>1007.052</ele>
        <time>2019-10-16T19:56:17Z</time>
      </trkpt>
      <trkpt lat="-22.177459" lon="-45.252275">
        <ele>1006.390</ele>
        <time>2019-10-16T19:56:19Z</time>
      </trkpt>
      <trkpt lat="-22.177405" lon="-45.252298">
        <ele>1006.073</ele>
        <time>2019-10-16T19:56:21Z</time>
      </trkpt>
      <trkpt lat="-22.177337" lon="-45.252314">
        <ele>1006.051</ele>
        <time>2019-10-16T19:56:23Z</time>
      </trkpt>
      <trkpt lat="-22.177285" lon="-45.252325">
        <ele>1006.041</ele>
        <time>2019-10-16T19:56:25Z</time>
      </trkpt>
      <trkpt lat="-22.177230" lon="-45.252335">
        <ele>1006.163</ele>
        <time>2019-10-16T19:56:27Z</time>
      </trkpt>
      <trkpt lat="-22.177160" lon="-45.252344">
        <ele>1006.367</ele>
        <time>2019-10-16T19:56:29Z</time>
      </trkpt>
      <trkpt lat="-22.177085" lon="-45.252356">
        <ele>1006.574</ele>
        <time>2019-10-16T19:56:31Z</time>
      </trkpt>
      <trkpt lat="-22.177007" lon="-45.252357">
        <ele>1007.098</ele>
        <time>2019-10-16T19:56:34Z</time>
      </trkpt>
      <trkpt lat="-22.176920" lon="-45.252356">
        <ele>1007.715</ele>
        <time>2019-10-16T19:56:36Z</time>
      </trkpt>
      <trkpt lat="-22.176866" lon="-45.252352">
        <ele>1008.226</ele>
        <time>2019-10-16T19:56:39Z</time>
      </trkpt>
      <trkpt lat="-22.176814" lon="-45.252342">
        <ele>1008.908</ele>
        <time>2019-10-16T19:56:41Z</time>
      </trkpt>
      <trkpt lat="-22.176768" lon="-45.252337">
        <ele>1009.433</ele>
        <time>2019-10-16T19:56:43Z</time>
      </trkpt>
      <trkpt lat="-22.176720" lon="-45.252340">
        <ele>1009.661</ele>
        <time>2019-10-16T19:56:45Z</time>
      </trkpt>
      <trkpt lat="-22.176671" lon="-45.252335">
        <ele>1010.114</ele>
        <time>2019-10-16T19:56:47Z</time>
      </trkpt>
      <trkpt lat="-22.176590" lon="-45.252318">
        <ele>1011.182</ele>
        <time>2019-10-16T19:56:50Z</time>
      </trkpt>
      <trkpt lat="-22.176488" lon="-45.252302">
        <ele>1012.162</ele>
        <time>2019-10-16T19:56:53Z</time>
      </trkpt>
      <trkpt lat="-22.176395" lon="-45.252293">
        <ele>1012.754</ele>
        <time>2019-10-16T19:56:54Z</time>
      </trkpt>
      <trkpt lat="-22.174381" lon="-45.251283">
        <ele>1000.718</ele>
        <time>2019-10-16T19:57:36Z</time>
      </trkpt>
      <trkpt lat="-22.174343" lon="-45.251255">
        <ele>1001.075</ele>
        <time>2019-10-16T19:57:39Z</time>
      </trkpt>
      <trkpt lat="-22.174294" lon="-45.251217">
        <ele>1001.577</ele>
        <time>2019-10-16T19:57:42Z</time>
      </trkpt>
      <trkpt lat="-22.174239" lon="-45.251164">
        <ele>1002.261</ele>
        <time>2019-10-16T19:57:44Z</time>
      </trkpt>
      <trkpt lat="-22.174183" lon="-45.251121">
        <ele>1002.827</ele>
        <time>2019-10-16T19:57:46Z</time>
      </trkpt>
      <trkpt lat="-22.174110" lon="-45.251093">
        <ele>1003.408</ele>
        <time>2019-10-16T19:57:51Z</time>
      </trkpt>
      <trkpt lat="-22.174053" lon="-45.251083">
        <ele>1003.791</ele>
        <time>2019-10-16T19:57:55Z</time>
      </trkpt>
      <trkpt lat="-22.174004" lon="-45.251075">
        <ele>1003.949</ele>
        <time>2019-10-16T19:58:01Z</time>
      </trkpt>
      <trkpt lat="-22.173959" lon="-45.251058">
        <ele>1004.392</ele>
        <time>2019-10-16T19:58:03Z</time>
      </trkpt>
      <trkpt lat="-22.173723" lon="-45.250956">
        <ele>1006.730</ele>
        <time>2019-10-16T19:58:20Z</time>
      </trkpt>
      <trkpt lat="-22.173671" lon="-45.250926">
        <ele>1007.480</ele>
        <time>2019-10-16T19:58:25Z</time>
      </trkpt>
      <trkpt lat="-22.173602" lon="-45.250909">
        <ele>1008.182</ele>
        <time>2019-10-16T19:58:31Z</time>
      </trkpt>
      <trkpt lat="-22.173555" lon="-45.250895">
        <ele>1008.696</ele>
        <time>2019-10-16T19:58:34Z</time>
      </trkpt>
      <trkpt lat="-22.173509" lon="-45.250864">
        <ele>1009.413</ele>
        <time>2019-10-16T19:58:36Z</time>
      </trkpt>
      <trkpt lat="-22.173434" lon="-45.250820">
        <ele>1010.474</ele>
        <time>2019-10-16T19:58:43Z</time>
      </trkpt>
      <trkpt lat="-22.173389" lon="-45.250808">
        <ele>1010.856</ele>
        <time>2019-10-16T19:58:50Z</time>
      </trkpt>
      <trkpt lat="-22.173336" lon="-45.250793">
        <ele>1011.221</ele>
        <time>2019-10-16T19:58:57Z</time>
      </trkpt>
      <trkpt lat="-22.173286" lon="-45.250783">
        <ele>1011.808</ele>
        <time>2019-10-16T19:59:02Z</time>
      </trkpt>
      <trkpt lat="-22.173233" lon="-45.250770">
        <ele>1012.681</ele>
        <time>2019-10-16T19:59:05Z</time>
      </trkpt>
      <trkpt lat="-22.173172" lon="-45.250750">
        <ele>1013.489</ele>
        <time>2019-10-16T19:59:06Z</time>
      </trkpt>
      <trkpt lat="-22.173125" lon="-45.250732">
        <ele>1014.172</ele>
        <time>2019-10-16T19:59:08Z</time>
      </trkpt>
      <trkpt lat="-22.173066" lon="-45.250715">
        <ele>1015.010</ele>
        <time>2019-10-16T19:59:10Z</time>
      </trkpt>
      <trkpt lat="-22.173004" lon="-45.250703">
        <ele>1015.910</ele>
        <time>2019-10-16T19:59:14Z</time>
      </trkpt>
      <trkpt lat="-22.172958" lon="-45.250658">
        <ele>1016.842</ele>
        <time>2019-10-16T19:59:19Z</time>
      </trkpt>
      <trkpt lat="-22.172967" lon="-45.250559">
        <ele>1017.466</ele>
        <time>2019-10-16T19:59:24Z</time>
      </trkpt>
      <trkpt lat="-22.172990" lon="-45.250488">
        <ele>1017.653</ele>
        <time>2019-10-16T19:59:28Z</time>
      </trkpt>
      <trkpt lat="-22.172991" lon="-45.250438">
        <ele>1018.068</ele>
        <time>2019-10-16T19:59:30Z</time>
      </trkpt>
      <trkpt lat="-22.173006" lon="-45.250371">
        <ele>1018.242</ele>
        <time>2019-10-16T19:59:33Z</time>
      </trkpt>
      <trkpt lat="-22.173009" lon="-45.250306">
        <ele>1018.726</ele>
        <time>2019-10-16T19:59:36Z</time>
      </trkpt>
      <trkpt lat="-22.173020" lon="-45.250244">
        <ele>1018.908</ele>
        <time>2019-10-16T19:59:39Z</time>
      </trkpt>
      <trkpt lat="-22.173038" lon="-45.250164">
        <ele>1019.290</ele>
        <time>2019-10-16T19:59:42Z</time>
      </trkpt>
      <trkpt lat="-22.173050" lon="-45.250112">
        <ele>1019.358</ele>
        <time>2019-10-16T19:59:43Z</time>
      </trkpt>
      <trkpt lat="-22.173059" lon="-45.250063">
        <ele>1019.531</ele>
        <time>2019-10-16T19:59:45Z</time>
      </trkpt>
      <trkpt lat="-22.173069" lon="-45.250009">
        <ele>1019.719</ele>
        <time>2019-10-16T19:59:46Z</time>
      </trkpt>
      <trkpt lat="-22.173077" lon="-45.249951">
        <ele>1019.169</ele>
        <time>2019-10-16T19:59:48Z</time>
      </trkpt>
      <trkpt lat="-22.173090" lon="-45.249876">
        <ele>1018.291</ele>
        <time>2019-10-16T19:59:50Z</time>
      </trkpt>
      <trkpt lat="-22.173089" lon="-45.249780">
        <ele>1017.265</ele>
        <time>2019-10-16T19:59:53Z</time>
      </trkpt>
      <trkpt lat="-22.173089" lon="-45.249691">
        <ele>1016.342</ele>
        <time>2019-10-16T19:59:54Z</time>
      </trkpt>
      <trkpt lat="-22.173081" lon="-45.249624">
        <ele>1015.911</ele>
        <time>2019-10-16T19:59:56Z</time>
      </trkpt>
      <trkpt lat="-22.173081" lon="-45.249560">
        <ele>1015.221</ele>
        <time>2019-10-16T19:59:58Z</time>
      </trkpt>
      <trkpt lat="-22.173080" lon="-45.249454">
        <ele>1014.203</ele>
        <time>2019-10-16T20:00:01Z</time>
      </trkpt>
      <trkpt lat="-22.173075" lon="-45.249374">
        <ele>1013.508</ele>
        <time>2019-10-16T20:00:02Z</time>
      </trkpt>
      <trkpt lat="-22.173063" lon="-45.249284">
        <ele>1012.995</ele>
        <time>2019-10-16T20:00:04Z</time>
      </trkpt>
      <trkpt lat="-22.168554" lon="-45.245778">
        <ele>1014.383</ele>
        <time>2019-10-16T20:01:53Z</time>
      </trkpt>
      <trkpt lat="-22.168498" lon="-45.245749">
        <ele>1014.876</ele>
        <time>2019-10-16T20:01:55Z</time>
      </trkpt>
      <trkpt lat="-22.168449" lon="-45.245714">
        <ele>1015.254</ele>
        <time>2019-10-16T20:01:56Z</time>
      </trkpt>
      <trkpt lat="-22.168404" lon="-45.245684">
        <ele>1015.484</ele>
        <time>2019-10-16T20:01:58Z</time>
      </trkpt>
      <trkpt lat="-22.168351" lon="-45.245643">
        <ele>1015.536</ele>
        <time>2019-10-16T20:02:00Z</time>
      </trkpt>
      <trkpt lat="-22.168309" lon="-45.245606">
        <ele>1015.580</ele>
        <time>2019-10-16T20:02:04Z</time>
      </trkpt>
      <trkpt lat="-22.168255" lon="-45.245561">
        <ele>1015.537</ele>
        <time>2019-10-16T20:02:07Z</time>
      </trkpt>
      <trkpt lat="-22.168213" lon="-45.245516">
        <ele>1015.385</ele>
        <time>2019-10-16T20:02:09Z</time>
      </trkpt>
      <trkpt lat="-22.168146" lon="-45.245442">
        <ele>1014.789</ele>
        <time>2019-10-16T20:02:11Z</time>
      </trkpt>
      <trkpt lat="-22.168061" lon="-45.245365">
        <ele>1014.117</ele>
        <time>2019-10-16T20:02:12Z</time>
      </trkpt>
      <trkpt lat="-22.167976" lon="-45.245299">
        <ele>1013.308</ele>
        <time>2019-10-16T20:02:14Z</time>
      </trkpt>
      <trkpt lat="-22.167919" lon="-45.245271">
        <ele>1013.022</ele>
        <time>2019-10-16T20:02:15Z</time>
      </trkpt>
      <trkpt lat="-22.167858" lon="-45.245242">
        <ele>1012.770</ele>
        <time>2019-10-16T20:02:17Z</time>
      </trkpt>
      <trkpt lat="-22.167766" lon="-45.245200">
        <ele>1012.093</ele>
        <time>2019-10-16T20:02:19Z</time>
      </trkpt>
      <trkpt lat="-22.167682" lon="-45.245162">
        <ele>1011.331</ele>
        <time>2019-10-16T20:02:21Z</time>
      </trkpt>
      <trkpt lat="-22.167618" lon="-45.245141">
        <ele>1010.941</ele>
        <time>2019-10-16T20:02:23Z</time>
      </trkpt>
      <trkpt lat="-22.167542" lon="-45.245118">
        <ele>1010.373</ele>
        <time>2019-10-16T20:02:24Z</time>
      </trkpt>
      <trkpt lat="-22.167455" lon="-45.245088">
        <ele>1009.527</ele>
        <time>2019-10-16T20:02:26Z</time>
      </trkpt>
      <trkpt lat="-22.167399" lon="-45.245070">
        <ele>1009.064</ele>
        <time>2019-10-16T20:02:28Z</time>
      </trkpt>
      <trkpt lat="-22.167245" lon="-45.245024">
        <ele>1007.975</ele>
        <time>2019-10-16T20:02:32Z</time>
      </trkpt>
      <trkpt lat="-22.167083" lon="-45.244986">
        <ele>1007.528</ele>
        <time>2019-10-16T20:02:36Z</time>
      </trkpt>
      <trkpt lat="-22.167031" lon="-45.244959">
        <ele>1007.520</ele>
        <time>2019-10-16T20:02:37Z</time>
      </trkpt>
      <trkpt lat="-22.166055" lon="-45.244785">
        <ele>1013.008</ele>
        <time>2019-10-16T20:03:00Z</time>
      </trkpt>
      <trkpt lat="-22.165985" lon="-45.244769">
        <ele>1013.811</ele>
        <time>2019-10-16T20:03:02Z</time>
      </trkpt>
      <trkpt lat="-22.165937" lon="-45.244746">
        <ele>1014.699</ele>
        <time>2019-10-16T20:03:04Z</time>
      </trkpt>
      <trkpt lat="-22.165887" lon="-45.244718">
        <ele>1015.612</ele>
        <time>2019-10-16T20:03:06Z</time>
      </trkpt>
      <trkpt lat="-22.165839" lon="-45.244690">
        <ele>1016.690</ele>
        <time>2019-10-16T20:03:07Z</time>
      </trkpt>
      <trkpt lat="-22.165778" lon="-45.244656">
        <ele>1017.390</ele>
        <time>2019-10-16T20:03:09Z</time>
      </trkpt>
      <trkpt lat="-22.165720" lon="-45.244624">
        <ele>1017.772</ele>
        <time>2019-10-16T20:03:12Z</time>
      </trkpt>
      <trkpt lat="-22.165670" lon="-45.244593">
        <ele>1018.116</ele>
        <time>2019-10-16T20:03:13Z</time>
      </trkpt>
      <trkpt lat="-22.165590" lon="-45.244541">
        <ele>1018.723</ele>
        <time>2019-10-16T20:03:16Z</time>
      </trkpt>
      <trkpt lat="-22.165543" lon="-45.244497">
        <ele>1019.194</ele>
        <time>2019-10-16T20:03:19Z</time>
      </trkpt>
      <trkpt lat="-22.165509" lon="-45.244462">
        <ele>1019.457</ele>
        <time>2019-10-16T20:03:21Z</time>
      </trkpt>
      <trkpt lat="-22.165469" lon="-45.244427">
        <ele>1019.622</ele>
        <time>2019-10-16T20:03:22Z</time>
      </trkpt>
      <trkpt lat="-22.165432" lon="-45.244387">
        <ele>1019.908</ele>
        <time>2019-10-16T20:03:23Z</time>
      </trkpt>
      <trkpt lat="-22.165399" lon="-45.244347">
        <ele>1020.153</ele>
        <time>2019-10-16T20:03:25Z</time>
      </trkpt>
      <trkpt lat="-22.165355" lon="-45.244300">
        <ele>1020.261</ele>
        <time>2019-10-16T20:03:28Z</time>
      </trkpt>
      <trkpt lat="-22.165259" lon="-45.244188">
        <ele>1020.254</ele>
        <time>2019-10-16T20:03:33Z</time>
      </trkpt>
      <trkpt lat="-22.165219" lon="-45.244134">
        <ele>1020.532</ele>
        <time>2019-10-16T20:03:36Z</time>
      </trkpt>
      <trkpt lat="-22.165069" lon="-45.243897">
        <ele>1023.112</ele>
        <time>2019-10-16T20:03:48Z</time>
      </trkpt>
      <trkpt lat="-22.165035" lon="-45.243841">
        <ele>1023.724</ele>
        <time>2019-10-16T20:03:51Z</time>
      </trkpt>
      <trkpt lat="-22.164981" lon="-45.243761">
        <ele>1024.748</ele>
        <time>2019-10-16T20:03:56Z</time>
      </trkpt>
      <trkpt lat="-22.164915" lon="-45.243663">
        <ele>1026.035</ele>
        <time>2019-10-16T20:04:00Z</time>
      </trkpt>
      <trkpt lat="-22.164884" lon="-45.243618">
        <ele>1026.619</ele>
        <time>2019-10-16T20:04:02Z</time>
      </trkpt>
      <trkpt lat="-22.164790" lon="-45.243464">
        <ele>1028.609</ele>
        <time>2019-10-16T20:04:10Z</time>
      </trkpt>
      <trkpt lat="-22.164754" lon="-45.243404">
        <ele>1029.419</ele>
        <time>2019-10-16T20:04:14Z</time>
      </trkpt>
      <trkpt lat="-22.164724" lon="-45.243362">
        <ele>1029.808</ele>
        <time>2019-10-16T20:04:16Z</time>
      </trkpt>
      <trkpt lat="-22.164673" lon="-45.243293">
        <ele>1030.935</ele>
        <time>2019-10-16T20:04:19Z</time>
      </trkpt>
      <trkpt lat="-22.164643" lon="-45.243252">
        <ele>1031.683</ele>
        <time>2019-10-16T20:04:21Z</time>
      </trkpt>
      <trkpt lat="-22.164612" lon="-45.243210">
        <ele>1032.376</ele>
        <time>2019-10-16T20:04:24Z</time>
      </trkpt>
      <trkpt lat="-22.164577" lon="-45.243153">
        <ele>1033.364</ele>
        <time>2019-10-16T20:04:26Z</time>
      </trkpt>
      <trkpt lat="-22.164537" lon="-45.243118">
        <ele>1033.684</ele>
        <time>2019-10-16T20:04:28Z</time>
      </trkpt>
      <trkpt lat="-22.164503" lon="-45.243081">
        <ele>1034.136</ele>
        <time>2019-10-16T20:04:31Z</time>
      </trkpt>
      <trkpt lat="-22.164466" lon="-45.243031">
        <ele>1034.850</ele>
        <time>2019-10-16T20:04:34Z</time>
      </trkpt>
      <trkpt lat="-22.164429" lon="-45.242989">
        <ele>1035.317</ele>
        <time>2019-10-16T20:04:36Z</time>
      </trkpt>
      <trkpt lat="-22.164378" lon="-45.242933">
        <ele>1035.983</ele>
        <time>2019-10-16T20:04:39Z</time>
      </trkpt>
      <trkpt lat="-22.164340" lon="-45.242884">
        <ele>1036.525</ele>
        <time>2019-10-16T20:04:41Z</time>
      </trkpt>
      <trkpt lat="-22.164296" lon="-45.242825">
        <ele>1037.217</ele>
        <time>2019-10-16T20:04:44Z</time>
      </trkpt>
      <trkpt lat="-22.164246" lon="-45.242764">
        <ele>1037.808</ele>
        <time>2019-10-16T20:04:47Z</time>
      </trkpt>
      <trkpt lat="-22.164205" lon="-45.242721">
        <ele>1038.152</ele>
        <time>2019-10-16T20:04:49Z</time>
      </trkpt>
      <trkpt lat="-22.164168" lon="-45.242680">
        <ele>1038.340</ele>
        <time>2019-10-16T20:04:51Z</time>
      </trkpt>
      <trkpt lat="-22.164133" lon="-45.242641">
        <ele>1039.083</ele>
        <time>2019-10-16T20:04:54Z</time>
      </trkpt>
      <trkpt lat="-22.164086" lon="-45.242593">
        <ele>1039.671</ele>
        <time>2019-10-16T20:04:56Z</time>
      </trkpt>
      <trkpt lat="-22.163975" lon="-45.242491">
        <ele>1040.721</ele>
        <time>2019-10-16T20:05:02Z</time>
      </trkpt>
      <trkpt lat="-22.163914" lon="-45.242434">
        <ele>1040.413</ele>
        <time>2019-10-16T20:05:06Z</time>
      </trkpt>
      <trkpt lat="-22.163849" lon="-45.242384">
        <ele>1040.197</ele>
        <time>2019-10-16T20:05:09Z</time>
      </trkpt>
      <trkpt lat="-22.163794" lon="-45.242345">
        <ele>1039.784</ele>
        <time>2019-10-16T20:05:11Z</time>
      </trkpt>
      <trkpt lat="-22.163748" lon="-45.242316">
        <ele>1039.492</ele>
        <time>2019-10-16T20:05:14Z</time>
      </trkpt>
      <trkpt lat="-22.163704" lon="-45.242287">
        <ele>1039.173</ele>
        <time>2019-10-16T20:05:15Z</time>
      </trkpt>
      <trkpt lat="-22.163592" lon="-45.242191">
        <ele>1038.320</ele>
        <time>2019-10-16T20:05:21Z</time>
      </trkpt>
      <trkpt lat="-22.163543" lon="-45.242155">
        <ele>1037.908</ele>
        <time>2019-10-16T20:05:23Z</time>
      </trkpt>
      <trkpt lat="-22.163495" lon="-45.242122">
        <ele>1037.583</ele>
        <time>2019-10-16T20:05:26Z</time>
      </trkpt>
      <trkpt lat="-22.163456" lon="-45.242088">
        <ele>1037.291</ele>
        <time>2019-10-16T20:05:27Z</time>
      </trkpt>
      <trkpt lat="-22.163398" lon="-45.242045">
        <ele>1036.614</ele>
        <time>2019-10-16T20:05:29Z</time>
      </trkpt>
      <trkpt lat="-22.163360" lon="-45.242019">
        <ele>1036.332</ele>
        <time>2019-10-16T20:05:31Z</time>
      </trkpt>
      <trkpt lat="-22.163316" lon="-45.241989">
        <ele>1036.332</ele>
        <time>2019-10-16T20:05:32Z</time>
      </trkpt>
      <trkpt lat="-22.163269" lon="-45.241954">
        <ele>1037.094</ele>
        <time>2019-10-16T20:05:34Z</time>
      </trkpt>
      <trkpt lat="-22.163217" lon="-45.241917">
        <ele>1037.758</ele>
        <time>2019-10-16T20:05:36Z</time>
      </trkpt>
      <trkpt lat="-22.163175" lon="-45.241887">
        <ele>1038.395</ele>
        <time>2019-10-16T20:05:38Z</time>
      </trkpt>
      <trkpt lat="-22.163127" lon="-45.241854">
        <ele>1039.087</ele>
        <time>2019-10-16T20:05:40Z</time>
      </trkpt>
      <trkpt lat="-22.163085" lon="-45.241812">
        <ele>1039.642</ele>
        <time>2019-10-16T20:05:42Z</time>
      </trkpt>
      <trkpt lat="-22.162966" lon="-45.241721">
        <ele>1041.326</ele>
        <time>2019-10-16T20:05:47Z</time>
      </trkpt>
      <trkpt lat="-22.162924" lon="-45.241697">
        <ele>1041.908</ele>
        <time>2019-10-16T20:05:49Z</time>
      </trkpt>
      <trkpt lat="-22.162855" lon="-45.241644">
        <ele>1042.412</ele>
        <time>2019-10-16T20:05:52Z</time>
      </trkpt>
      <trkpt lat="-22.162792" lon="-45.241597">
        <ele>1042.320</ele>
        <time>2019-10-16T20:05:54Z</time>
      </trkpt>
      <trkpt lat="-22.162730" lon="-45.241554">
        <ele>1042.233</ele>
        <time>2019-10-16T20:05:57Z</time>
      </trkpt>
      <trkpt lat="-22.162677" lon="-45.241516">
        <ele>1042.111</ele>
        <time>2019-10-16T20:05:59Z</time>
      </trkpt>
      <trkpt lat="-22.162626" lon="-45.241480">
        <ele>1041.961</ele>
        <time>2019-10-16T20:06:01Z</time>
      </trkpt>
      <trkpt lat="-22.162542" lon="-45.241424">
        <ele>1041.773</ele>
        <time>2019-10-16T20:06:04Z</time>
      </trkpt>
      <trkpt lat="-22.162497" lon="-45.241393">
        <ele>1041.567</ele>
        <time>2019-10-16T20:06:06Z</time>
      </trkpt>
      <trkpt lat="-22.162447" lon="-45.241353">
        <ele>1041.884</ele>
        <time>2019-10-16T20:06:08Z</time>
      </trkpt>
      <trkpt lat="-22.162392" lon="-45.241318">
        <ele>1042.424</ele>
        <time>2019-10-16T20:06:10Z</time>
      </trkpt>
      <trkpt lat="-22.162328" lon="-45.241282">
        <ele>1043.104</ele>
        <time>2019-10-16T20:06:12Z</time>
      </trkpt>
      <trkpt lat="-22.162269" lon="-45.241242">
        <ele>1043.614</ele>
        <time>2019-10-16T20:06:15Z</time>
      </trkpt>
      <trkpt lat="-22.162217" lon="-45.241204">
        <ele>1044.008</ele>
        <time>2019-10-16T20:06:17Z</time>
      </trkpt>
      <trkpt lat="-22.162158" lon="-45.241162">
        <ele>1044.386</ele>
        <time>2019-10-16T20:06:19Z</time>
      </trkpt>
      <trkpt lat="-22.162114" lon="-45.241125">
        <ele>1044.414</ele>
        <time>2019-10-16T20:06:21Z</time>
      </trkpt>
      <trkpt lat="-22.162060" lon="-45.241091">
        <ele>1044.977</ele>
        <time>2019-10-16T20:06:22Z</time>
      </trkpt>
      <trkpt lat="-22.162018" lon="-45.241060">
        <ele>1045.165</ele>
        <time>2019-10-16T20:06:24Z</time>
      </trkpt>
      <trkpt lat="-22.161977" lon="-45.241027">
        <ele>1045.255</ele>
        <time>2019-10-16T20:06:25Z</time>
      </trkpt>
      <trkpt lat="-22.161919" lon="-45.240981">
        <ele>1045.387</ele>
        <time>2019-10-16T20:06:28Z</time>
      </trkpt>
      <trkpt lat="-22.161870" lon="-45.240942">
        <ele>1045.441</ele>
        <time>2019-10-16T20:06:29Z</time>
      </trkpt>
      <trkpt lat="-22.161825" lon="-45.240908">
        <ele>1045.598</ele>
        <time>2019-10-16T20:06:31Z</time>
      </trkpt>
      <trkpt lat="-22.161777" lon="-45.240869">
        <ele>1045.561</ele>
        <time>2019-10-16T20:06:32Z</time>
      </trkpt>
      <trkpt lat="-22.161714" lon="-45.240813">
        <ele>1045.621</ele>
        <time>2019-10-16T20:06:35Z</time>
      </trkpt>
      <trkpt lat="-22.161665" lon="-45.240767">
        <ele>1045.913</ele>
        <time>2019-10-16T20:06:36Z</time>
      </trkpt>
      <trkpt lat="-22.161613" lon="-45.240709">
        <ele>1046.308</ele>
        <time>2019-10-16T20:06:39Z</time>
      </trkpt>
      <trkpt lat="-22.161568" lon="-45.240661">
        <ele>1046.730</ele>
        <time>2019-10-16T20:06:41Z</time>
      </trkpt>
      <trkpt lat="-22.161531" lon="-45.240625">
        <ele>1047.068</ele>
        <time>2019-10-16T20:06:43Z</time>
      </trkpt>
      <trkpt lat="-22.161488" lon="-45.240578">
        <ele>1047.371</ele>
        <time>2019-10-16T20:06:44Z</time>
      </trkpt>
      <trkpt lat="-22.161438" lon="-45.240519">
        <ele>1047.559</ele>
        <time>2019-10-16T20:06:46Z</time>
      </trkpt>
      <trkpt lat="-22.161392" lon="-45.240460">
        <ele>1047.569</ele>
        <time>2019-10-16T20:06:48Z</time>
      </trkpt>
      <trkpt lat="-22.161342" lon="-45.240394">
        <ele>1047.451</ele>
        <time>2019-10-16T20:06:51Z</time>
      </trkpt>
      <trkpt lat="-22.161311" lon="-45.240342">
        <ele>1047.195</ele>
        <time>2019-10-16T20:06:53Z</time>
      </trkpt>
      <trkpt lat="-22.161273" lon="-45.240273">
        <ele>1046.592</ele>
        <time>2019-10-16T20:06:55Z</time>
      </trkpt>
      <trkpt lat="-22.161234" lon="-45.240194">
        <ele>1045.787</ele>
        <time>2019-10-16T20:06:56Z</time>
      </trkpt>
      <trkpt lat="-22.161207" lon="-45.240130">
        <ele>1044.942</ele>
        <time>2019-10-16T20:06:58Z</time>
      </trkpt>
      <trkpt lat="-22.161188" lon="-45.240067">
        <ele>1043.926</ele>
        <time>2019-10-16T20:07:00Z</time>
      </trkpt>
      <trkpt lat="-22.161153" lon="-45.239969">
        <ele>1043.008</ele>
        <time>2019-10-16T20:07:03Z</time>
      </trkpt>
      <trkpt lat="-22.161139" lon="-45.239919">
        <ele>1043.322</ele>
        <time>2019-10-16T20:07:04Z</time>
      </trkpt>
      <trkpt lat="-22.161120" lon="-45.239832">
        <ele>1043.590</ele>
        <time>2019-10-16T20:07:05Z</time>
      </trkpt>
      <trkpt lat="-22.161101" lon="-45.239749">
        <ele>1043.793</ele>
        <time>2019-10-16T20:07:08Z</time>
      </trkpt>
      <trkpt lat="-22.161094" lon="-45.239690">
        <ele>1043.791</ele>
        <time>2019-10-16T20:07:09Z</time>
      </trkpt>
      <trkpt lat="-22.161086" lon="-45.239623">
        <ele>1043.721</ele>
        <time>2019-10-16T20:07:11Z</time>
      </trkpt>
      <trkpt lat="-22.161076" lon="-45.239551">
        <ele>1043.763</ele>
        <time>2019-10-16T20:07:14Z</time>
      </trkpt>
      <trkpt lat="-22.161072" lon="-45.239502">
        <ele>1043.787</ele>
        <time>2019-10-16T20:07:15Z</time>
      </trkpt>
      <trkpt lat="-22.161070" lon="-45.239409">
        <ele>1043.534</ele>
        <time>2019-10-16T20:07:18Z</time>
      </trkpt>
      <trkpt lat="-22.161068" lon="-45.239325">
        <ele>1043.377</ele>
        <time>2019-10-16T20:07:21Z</time>
      </trkpt>
      <trkpt lat="-22.161070" lon="-45.239274">
        <ele>1043.161</ele>
        <time>2019-10-16T20:07:22Z</time>
      </trkpt>
      <trkpt lat="-22.161070" lon="-45.239225">
        <ele>1043.027</ele>
        <time>2019-10-16T20:07:24Z</time>
      </trkpt>
      <trkpt lat="-22.161075" lon="-45.239162">
        <ele>1042.908</ele>
        <time>2019-10-16T20:07:26Z</time>
      </trkpt>
      <trkpt lat="-22.161090" lon="-45.239047">
        <ele>1043.911</ele>
        <time>2019-10-16T20:07:30Z</time>
      </trkpt>
      <trkpt lat="-22.161096" lon="-45.238985">
        <ele>1044.629</ele>
        <time>2019-10-16T20:07:33Z</time>
      </trkpt>
      <trkpt lat="-22.161144" lon="-45.238754">
        <ele>1046.652</ele>
        <time>2019-10-16T20:07:41Z</time>
      </trkpt>
      <trkpt lat="-22.161164" lon="-45.238670">
        <ele>1047.320</ele>
        <time>2019-10-16T20:07:44Z</time>
      </trkpt>
      <trkpt lat="-22.161182" lon="-45.238603">
        <ele>1047.970</ele>
        <time>2019-10-16T20:07:47Z</time>
      </trkpt>
      <trkpt lat="-22.161196" lon="-45.238556">
        <ele>1048.422</ele>
        <time>2019-10-16T20:07:48Z</time>
      </trkpt>
      <trkpt lat="-22.161211" lon="-45.238509">
        <ele>1048.846</ele>
        <time>2019-10-16T20:07:50Z</time>
      </trkpt>
      <trkpt lat="-22.161233" lon="-45.238430">
        <ele>1049.533</ele>
        <time>2019-10-16T20:07:54Z</time>
      </trkpt>
      <trkpt lat="-22.161247" lon="-45.238380">
        <ele>1050.033</ele>
        <time>2019-10-16T20:07:56Z</time>
      </trkpt>
      <trkpt lat="-22.161261" lon="-45.238323">
        <ele>1050.623</ele>
        <time>2019-10-16T20:07:58Z</time>
      </trkpt>
      <trkpt lat="-22.161276" lon="-45.238270">
        <ele>1051.215</ele>
        <time>2019-10-16T20:08:00Z</time>
      </trkpt>
      <trkpt lat="-22.161291" lon="-45.238221">
        <ele>1051.808</ele>
        <time>2019-10-16T20:08:02Z</time>
      </trkpt>
      <trkpt lat="-22.161307" lon="-45.238171">
        <ele>1052.437</ele>
        <time>2019-10-16T20:08:04Z</time>
      </trkpt>
      <trkpt lat="-22.161321" lon="-45.238122">
        <ele>1053.035</ele>
        <time>2019-10-16T20:08:07Z</time>
      </trkpt>
      <trkpt lat="-22.161339" lon="-45.238067">
        <ele>1053.718</ele>
        <time>2019-10-16T20:08:09Z</time>
      </trkpt>
      <trkpt lat="-22.161352" lon="-45.238017">
        <ele>1054.386</ele>
        <time>2019-10-16T20:08:11Z</time>
      </trkpt>
      <trkpt lat="-22.161365" lon="-45.237966">
        <ele>1055.016</ele>
        <time>2019-10-16T20:08:12Z</time>
      </trkpt>
      <trkpt lat="-22.161383" lon="-45.237907">
        <ele>1055.818</ele>
        <time>2019-10-16T20:08:14Z</time>
      </trkpt>
      <trkpt lat="-22.161410" lon="-45.237820">
        <ele>1057.162</ele>
        <time>2019-10-16T20:08:18Z</time>
      </trkpt>
      <trkpt lat="-22.161428" lon="-45.237764">
        <ele>1057.929</ele>
        <time>2019-10-16T20:08:20Z</time>
      </trkpt>
      <trkpt lat="-22.161451" lon="-45.237693">
        <ele>1058.925</ele>
        <time>2019-10-16T20:08:23Z</time>
      </trkpt>
      <trkpt lat="-22.161468" lon="-45.237638">
        <ele>1059.826</ele>
        <time>2019-10-16T20:08:24Z</time>
      </trkpt>
      <trkpt lat="-22.161489" lon="-45.237579">
        <ele>1060.708</ele>
        <time>2019-10-16T20:08:26Z</time>
      </trkpt>
      <trkpt lat="-22.161508" lon="-45.237517">
        <ele>1061.708</ele>
        <time>2019-10-16T20:08:28Z</time>
      </trkpt>
      <trkpt lat="-22.161522" lon="-45.237469">
        <ele>1062.366</ele>
        <time>2019-10-16T20:08:30Z</time>
      </trkpt>
      <trkpt lat="-22.161535" lon="-45.237409">
        <ele>1062.874</ele>
        <time>2019-10-16T20:08:32Z</time>
      </trkpt>
      <trkpt lat="-22.161554" lon="-45.237351">
        <ele>1063.277</ele>
        <time>2019-10-16T20:08:34Z</time>
      </trkpt>
      <trkpt lat="-22.161575" lon="-45.237304">
        <ele>1063.635</ele>
        <time>2019-10-16T20:08:36Z</time>
      </trkpt>
      <trkpt lat="-22.161602" lon="-45.237248">
        <ele>1064.075</ele>
        <time>2019-10-16T20:08:38Z</time>
      </trkpt>
      <trkpt lat="-22.161618" lon="-45.237196">
        <ele>1064.337</ele>
        <time>2019-10-16T20:08:40Z</time>
      </trkpt>
      <trkpt lat="-22.161631" lon="-45.237148">
        <ele>1064.641</ele>
        <time>2019-10-16T20:08:42Z</time>
      </trkpt>
      <trkpt lat="-22.161646" lon="-45.237100">
        <ele>1065.058</ele>
        <time>2019-10-16T20:08:43Z</time>
      </trkpt>
      <trkpt lat="-22.161686" lon="-45.237003">
        <ele>1065.782</ele>
        <time>2019-10-16T20:08:47Z</time>
      </trkpt>
      <trkpt lat="-22.161708" lon="-45.236931">
        <ele>1066.243</ele>
        <time>2019-10-16T20:08:52Z</time>
      </trkpt>
      <trkpt lat="-22.161732" lon="-45.236873">
        <ele>1066.717</ele>
        <time>2019-10-16T20:08:57Z</time>
      </trkpt>
      <trkpt lat="-22.161757" lon="-45.236807">
        <ele>1067.108</ele>
        <time>2019-10-16T20:09:01Z</time>
      </trkpt>
      <trkpt lat="-22.161774" lon="-45.236754">
        <ele>1067.562</ele>
        <time>2019-10-16T20:09:03Z</time>
      </trkpt>
      <trkpt lat="-22.161806" lon="-45.236646">
        <ele>1067.950</ele>
        <time>2019-10-16T20:09:05Z</time>
      </trkpt>
      <trkpt lat="-22.161865" lon="-45.236448">
        <ele>1066.723</ele>
        <time>2019-10-16T20:09:08Z</time>
      </trkpt>
      <trkpt lat="-22.161886" lon="-45.236324">
        <ele>1065.771</ele>
        <time>2019-10-16T20:09:09Z</time>
      </trkpt>
      <trkpt lat="-22.161892" lon="-45.236229">
        <ele>1065.191</ele>
        <time>2019-10-16T20:09:11Z</time>
      </trkpt>
      <trkpt lat="-22.161893" lon="-45.236175">
        <ele>1064.743</ele>
        <time>2019-10-16T20:09:13Z</time>
      </trkpt>
      <trkpt lat="-22.161894" lon="-45.236125">
        <ele>1064.327</ele>
        <time>2019-10-16T20:09:14Z</time>
      </trkpt>
      <trkpt lat="-22.161886" lon="-45.235973">
        <ele>1063.474</ele>
        <time>2019-10-16T20:09:17Z</time>
      </trkpt>
      <trkpt lat="-22.161869" lon="-45.235824">
        <ele>1062.822</ele>
        <time>2019-10-16T20:09:20Z</time>
      </trkpt>
      <trkpt lat="-22.161864" lon="-45.235766">
        <ele>1062.562</ele>
        <time>2019-10-16T20:09:21Z</time>
      </trkpt>
      <trkpt lat="-22.161779" lon="-45.235249">
        <ele>1060.908</ele>
        <time>2019-10-16T20:09:30Z</time>
      </trkpt>
      <trkpt lat="-22.161728" lon="-45.235056">
        <ele>1060.908</ele>
        <time>2019-10-16T20:09:35Z</time>
      </trkpt>
      <trkpt lat="-22.161704" lon="-45.235002">
        <ele>1061.176</ele>
        <time>2019-10-16T20:09:37Z</time>
      </trkpt>
      <trkpt lat="-22.161678" lon="-45.234917">
        <ele>1060.514</ele>
        <time>2019-10-16T20:09:39Z</time>
      </trkpt>
      <trkpt lat="-22.161659" lon="-45.234855">
        <ele>1060.217</ele>
        <time>2019-10-16T20:09:40Z</time>
      </trkpt>
      <trkpt lat="-22.161642" lon="-45.234794">
        <ele>1059.925</ele>
        <time>2019-10-16T20:09:42Z</time>
      </trkpt>
      <trkpt lat="-22.161621" lon="-45.234730">
        <ele>1059.795</ele>
        <time>2019-10-16T20:09:43Z</time>
      </trkpt>
      <trkpt lat="-22.161598" lon="-45.234664">
        <ele>1059.517</ele>
        <time>2019-10-16T20:09:45Z</time>
      </trkpt>
      <trkpt lat="-22.161572" lon="-45.234601">
        <ele>1059.551</ele>
        <time>2019-10-16T20:09:46Z</time>
      </trkpt>
      <trkpt lat="-22.161550" lon="-45.234558">
        <ele>1059.688</ele>
        <time>2019-10-16T20:09:48Z</time>
      </trkpt>
      <trkpt lat="-22.161521" lon="-45.234494">
        <ele>1059.791</ele>
        <time>2019-10-16T20:09:49Z</time>
      </trkpt>
      <trkpt lat="-22.160013" lon="-45.232354">
        <ele>1064.781</ele>
        <time>2019-10-16T20:10:46Z</time>
      </trkpt>
      <trkpt lat="-22.159968" lon="-45.232314">
        <ele>1064.819</ele>
        <time>2019-10-16T20:10:49Z</time>
      </trkpt>
      <trkpt lat="-22.159900" lon="-45.232194">
        <ele>1063.908</ele>
        <time>2019-10-16T20:10:53Z</time>
      </trkpt>
      <trkpt lat="-22.159845" lon="-45.232096">
        <ele>1063.583</ele>
        <time>2019-10-16T20:10:56Z</time>
      </trkpt>
      <trkpt lat="-22.159819" lon="-45.232051">
        <ele>1063.431</ele>
        <time>2019-10-16T20:10:58Z</time>
      </trkpt>
      <trkpt lat="-22.159728" lon="-45.231892">
        <ele>1063.634</ele>
        <time>2019-10-16T20:11:03Z</time>
      </trkpt>
      <trkpt lat="-22.159697" lon="-45.231830">
        <ele>1063.732</ele>
        <time>2019-10-16T20:11:06Z</time>
      </trkpt>
      <trkpt lat="-22.159670" lon="-45.231771">
        <ele>1063.832</ele>
        <time>2019-10-16T20:11:08Z</time>
      </trkpt>
      <trkpt lat="-22.159647" lon="-45.231723">
        <ele>1063.994</ele>
        <time>2019-10-16T20:11:09Z</time>
      </trkpt>
      <trkpt lat="-22.159616" lon="-45.231673">
        <ele>1064.488</ele>
        <time>2019-10-16T20:11:12Z</time>
      </trkpt>
      <trkpt lat="-22.159595" lon="-45.231626">
        <ele>1064.685</ele>
        <time>2019-10-16T20:11:13Z</time>
      </trkpt>
      <trkpt lat="-22.159562" lon="-45.231555">
        <ele>1064.871</ele>
        <time>2019-10-16T20:11:16Z</time>
      </trkpt>
      <trkpt lat="-22.159538" lon="-45.231505">
        <ele>1064.941</ele>
        <time>2019-10-16T20:11:17Z</time>
      </trkpt>
      <trkpt lat="-22.159509" lon="-45.231448">
        <ele>1065.115</ele>
        <time>2019-10-16T20:11:19Z</time>
      </trkpt>
      <trkpt lat="-22.159479" lon="-45.231399">
        <ele>1065.408</ele>
        <time>2019-10-16T20:11:21Z</time>
      </trkpt>
      <trkpt lat="-22.159456" lon="-45.231353">
        <ele>1065.651</ele>
        <time>2019-10-16T20:11:23Z</time>
      </trkpt>
      <trkpt lat="-22.159408" lon="-45.231253">
        <ele>1065.759</ele>
        <time>2019-10-16T20:11:26Z</time>
      </trkpt>
      <trkpt lat="-22.159382" lon="-45.231205">
        <ele>1065.912</ele>
        <time>2019-10-16T20:11:28Z</time>
      </trkpt>
      <trkpt lat="-22.159342" lon="-45.231139">
        <ele>1066.280</ele>
        <time>2019-10-16T20:11:31Z</time>
      </trkpt>
      <trkpt lat="-22.159311" lon="-45.231086">
        <ele>1066.440</ele>
        <time>2019-10-16T20:11:32Z</time>
      </trkpt>
      <trkpt lat="-22.159276" lon="-45.231024">
        <ele>1066.692</ele>
        <time>2019-10-16T20:11:35Z</time>
      </trkpt>
      <trkpt lat="-22.159243" lon="-45.230978">
        <ele>1066.946</ele>
        <time>2019-10-16T20:11:37Z</time>
      </trkpt>
      <trkpt lat="-22.159185" lon="-45.230886">
        <ele>1067.353</ele>
        <time>2019-10-16T20:11:43Z</time>
      </trkpt>
      <trkpt lat="-22.159160" lon="-45.230844">
        <ele>1067.418</ele>
        <time>2019-10-16T20:11:44Z</time>
      </trkpt>
      <trkpt lat="-22.159130" lon="-45.230796">
        <ele>1067.798</ele>
        <time>2019-10-16T20:11:47Z</time>
      </trkpt>
      <trkpt lat="-22.159096" lon="-45.230736">
        <ele>1067.917</ele>
        <time>2019-10-16T20:11:50Z</time>
      </trkpt>
      <trkpt lat="-22.159061" lon="-45.230683">
        <ele>1068.308</ele>
        <time>2019-10-16T20:11:53Z</time>
      </trkpt>
      <trkpt lat="-22.159032" lon="-45.230636">
        <ele>1068.625</ele>
        <time>2019-10-16T20:11:55Z</time>
      </trkpt>
      <trkpt lat="-22.158999" lon="-45.230594">
        <ele>1069.053</ele>
        <time>2019-10-16T20:11:57Z</time>
      </trkpt>
      <trkpt lat="-22.158961" lon="-45.230532">
        <ele>1069.356</ele>
        <time>2019-10-16T20:12:00Z</time>
      </trkpt>
      <trkpt lat="-22.158930" lon="-45.230489">
        <ele>1069.654</ele>
        <time>2019-10-16T20:12:02Z</time>
      </trkpt>
      <trkpt lat="-22.158897" lon="-45.230438">
        <ele>1069.914</ele>
        <time>2019-10-16T20:12:04Z</time>
      </trkpt>
      <trkpt lat="-22.158869" lon="-45.230387">
        <ele>1070.076</ele>
        <time>2019-10-16T20:12:06Z</time>
      </trkpt>
      <trkpt lat="-22.158840" lon="-45.230341">
        <ele>1070.230</ele>
        <time>2019-10-16T20:12:08Z</time>
      </trkpt>
      <trkpt lat="-22.158804" lon="-45.230293">
        <ele>1070.697</ele>
        <time>2019-10-16T20:12:11Z</time>
      </trkpt>
      <trkpt lat="-22.158775" lon="-45.230251">
        <ele>1070.862</ele>
        <time>2019-10-16T20:12:13Z</time>
      </trkpt>
      <trkpt lat="-22.158716" lon="-45.230175">
        <ele>1071.483</ele>
        <time>2019-10-16T20:12:16Z</time>
      </trkpt>
      <trkpt lat="-22.158681" lon="-45.230127">
        <ele>1071.711</ele>
        <time>2019-10-16T20:12:18Z</time>
      </trkpt>
      <trkpt lat="-22.158650" lon="-45.230088">
        <ele>1072.008</ele>
        <time>2019-10-16T20:12:21Z</time>
      </trkpt>
      <trkpt lat="-22.158613" lon="-45.230031">
        <ele>1072.120</ele>
        <time>2019-10-16T20:12:23Z</time>
      </trkpt>
      <trkpt lat="-22.158589" lon="-45.229990">
        <ele>1072.368</ele>
        <time>2019-10-16T20:12:25Z</time>
      </trkpt>
      <trkpt lat="-22.158563" lon="-45.229945">
        <ele>1072.791</ele>
        <time>2019-10-16T20:12:27Z</time>
      </trkpt>
      <trkpt lat="-22.158530" lon="-45.229885">
        <ele>1073.279</ele>
        <time>2019-10-16T20:12:30Z</time>
      </trkpt>
      <trkpt lat="-22.158500" lon="-45.229839">
        <ele>1073.749</ele>
        <time>2019-10-16T20:12:32Z</time>
      </trkpt>
      <trkpt lat="-22.158466" lon="-45.229788">
        <ele>1074.321</ele>
        <time>2019-10-16T20:12:35Z</time>
      </trkpt>
      <trkpt lat="-22.158423" lon="-45.229733">
        <ele>1075.195</ele>
        <time>2019-10-16T20:12:38Z</time>
      </trkpt>
      <trkpt lat="-22.158394" lon="-45.229685">
        <ele>1075.692</ele>
        <time>2019-10-16T20:12:41Z</time>
      </trkpt>
      <trkpt lat="-22.158370" lon="-45.229640">
        <ele>1075.976</ele>
        <time>2019-10-16T20:12:43Z</time>
      </trkpt>
      <trkpt lat="-22.158342" lon="-45.229601">
        <ele>1076.490</ele>
        <time>2019-10-16T20:12:45Z</time>
      </trkpt>
      <trkpt lat="-22.158315" lon="-45.229546">
        <ele>1076.919</ele>
        <time>2019-10-16T20:12:48Z</time>
      </trkpt>
      <trkpt lat="-22.158273" lon="-45.229487">
        <ele>1078.008</ele>
        <time>2019-10-16T20:12:51Z</time>
      </trkpt>
      <trkpt lat="-22.158240" lon="-45.229438">
        <ele>1078.851</ele>
        <time>2019-10-16T20:12:54Z</time>
      </trkpt>
      <trkpt lat="-22.158192" lon="-45.229368">
        <ele>1080.049</ele>
        <time>2019-10-16T20:12:57Z</time>
      </trkpt>
      <trkpt lat="-22.158159" lon="-45.229319">
        <ele>1080.922</ele>
        <time>2019-10-16T20:13:00Z</time>
      </trkpt>
      <trkpt lat="-22.158127" lon="-45.229262">
        <ele>1081.720</ele>
        <time>2019-10-16T20:13:03Z</time>
      </trkpt>
      <trkpt lat="-22.158112" lon="-45.229207">
        <ele>1081.810</ele>
        <time>2019-10-16T20:13:06Z</time>
      </trkpt>
      <trkpt lat="-22.158081" lon="-45.229140">
        <ele>1082.532</ele>
        <time>2019-10-16T20:13:09Z</time>
      </trkpt>
      <trkpt lat="-22.158026" lon="-45.229011">
        <ele>1083.676</ele>
        <time>2019-10-16T20:13:15Z</time>
      </trkpt>
      <trkpt lat="-22.158010" lon="-45.228959">
        <ele>1083.843</ele>
        <time>2019-10-16T20:13:16Z</time>
      </trkpt>
      <trkpt lat="-22.157978" lon="-45.228873">
        <ele>1084.344</ele>
        <time>2019-10-16T20:13:20Z</time>
      </trkpt>
      <trkpt lat="-22.157953" lon="-45.228783">
        <ele>1084.505</ele>
        <time>2019-10-16T20:13:24Z</time>
      </trkpt>
      <trkpt lat="-22.157925" lon="-45.228697">
        <ele>1084.815</ele>
        <time>2019-10-16T20:13:29Z</time>
      </trkpt>
      <trkpt lat="-22.157905" lon="-45.228602">
        <ele>1084.708</ele>
        <time>2019-10-16T20:13:32Z</time>
      </trkpt>
      <trkpt lat="-22.157903" lon="-45.228542">
        <ele>1084.228</ele>
        <time>2019-10-16T20:13:34Z</time>
      </trkpt>
      <trkpt lat="-22.157894" lon="-45.228472">
        <ele>1083.946</ele>
        <time>2019-10-16T20:13:37Z</time>
      </trkpt>
      <trkpt lat="-22.157884" lon="-45.228417">
        <ele>1083.879</ele>
        <time>2019-10-16T20:13:39Z</time>
      </trkpt>
      <trkpt lat="-22.157880" lon="-45.228364">
        <ele>1083.527</ele>
        <time>2019-10-16T20:13:41Z</time>
      </trkpt>
      <trkpt lat="-22.157872" lon="-45.228285">
        <ele>1083.847</ele>
        <time>2019-10-16T20:13:44Z</time>
      </trkpt>
      <trkpt lat="-22.157865" lon="-45.228231">
        <ele>1084.459</ele>
        <time>2019-10-16T20:13:46Z</time>
      </trkpt>
      <trkpt lat="-22.157859" lon="-45.228175">
        <ele>1085.083</ele>
        <time>2019-10-16T20:13:49Z</time>
      </trkpt>
      <trkpt lat="-22.157858" lon="-45.228121">
        <ele>1085.430</ele>
        <time>2019-10-16T20:13:51Z</time>
      </trkpt>
      <trkpt lat="-22.157865" lon="-45.227937">
        <ele>1086.351</ele>
        <time>2019-10-16T20:13:57Z</time>
      </trkpt>
      <trkpt lat="-22.157865" lon="-45.227878">
        <ele>1086.701</ele>
        <time>2019-10-16T20:13:59Z</time>
      </trkpt>
      <trkpt lat="-22.157884" lon="-45.227758">
        <ele>1086.911</ele>
        <time>2019-10-16T20:14:05Z</time>
      </trkpt>
      <trkpt lat="-22.157896" lon="-45.227669">
        <ele>1087.108</ele>
        <time>2019-10-16T20:14:09Z</time>
      </trkpt>
      <trkpt lat="-22.157899" lon="-45.227608">
        <ele>1087.429</ele>
        <time>2019-10-16T20:14:11Z</time>
      </trkpt>
      <trkpt lat="-22.157909" lon="-45.227524">
        <ele>1087.657</ele>
        <time>2019-10-16T20:14:15Z</time>
      </trkpt>
      <trkpt lat="-22.157921" lon="-45.227454">
        <ele>1087.790</ele>
        <time>2019-10-16T20:14:17Z</time>
      </trkpt>
      <trkpt lat="-22.157937" lon="-45.227311">
        <ele>1088.418</ele>
        <time>2019-10-16T20:14:23Z</time>
      </trkpt>
      <trkpt lat="-22.157951" lon="-45.227252">
        <ele>1088.418</ele>
        <time>2019-10-16T20:14:26Z</time>
      </trkpt>
      <trkpt lat="-22.157962" lon="-45.227134">
        <ele>1089.110</ele>
        <time>2019-10-16T20:14:31Z</time>
      </trkpt>
      <trkpt lat="-22.157970" lon="-45.227044">
        <ele>1089.614</ele>
        <time>2019-10-16T20:14:36Z</time>
      </trkpt>
      <trkpt lat="-22.157991" lon="-45.226827">
        <ele>1090.841</ele>
        <time>2019-10-16T20:14:44Z</time>
      </trkpt>
      <trkpt lat="-22.158001" lon="-45.226763">
        <ele>1091.131</ele>
        <time>2019-10-16T20:14:47Z</time>
      </trkpt>
      <trkpt lat="-22.158007" lon="-45.226698">
        <ele>1091.661</ele>
        <time>2019-10-16T20:14:48Z</time>
      </trkpt>
      <trkpt lat="-22.158011" lon="-45.226502">
        <ele>1092.007</ele>
        <time>2019-10-16T20:14:55Z</time>
      </trkpt>
      <trkpt lat="-22.158014" lon="-45.226446">
        <ele>1092.108</ele>
        <time>2019-10-16T20:14:57Z</time>
      </trkpt>
      <trkpt lat="-22.158016" lon="-45.226373">
        <ele>1092.297</ele>
        <time>2019-10-16T20:15:00Z</time>
      </trkpt>
      <trkpt lat="-22.158019" lon="-45.226253">
        <ele>1092.495</ele>
        <time>2019-10-16T20:15:04Z</time>
      </trkpt>
      <trkpt lat="-22.158014" lon="-45.226151">
        <ele>1092.738</ele>
        <time>2019-10-16T20:15:08Z</time>
      </trkpt>
      <trkpt lat="-22.158012" lon="-45.226075">
        <ele>1092.896</ele>
        <time>2019-10-16T20:15:11Z</time>
      </trkpt>
      <trkpt lat="-22.158021" lon="-45.225987">
        <ele>1093.086</ele>
        <time>2019-10-16T20:15:15Z</time>
      </trkpt>
      <trkpt lat="-22.158025" lon="-45.225927">
        <ele>1093.278</ele>
        <time>2019-10-16T20:15:18Z</time>
      </trkpt>
      <trkpt lat="-22.158031" lon="-45.225874">
        <ele>1093.452</ele>
        <time>2019-10-16T20:15:24Z</time>
      </trkpt>
      <trkpt lat="-22.157982" lon="-45.225874">
        <ele>1093.099</ele>
        <time>2019-10-16T20:15:29Z</time>
      </trkpt>
      <trkpt lat="-22.157994" lon="-45.225932">
        <ele>1093.033</ele>
        <time>2019-10-16T20:15:31Z</time>
      </trkpt>
      <trkpt lat="-22.158015" lon="-45.225992">
        <ele>1093.023</ele>
        <time>2019-10-16T20:15:33Z</time>
      </trkpt>
      <trkpt lat="-22.158018" lon="-45.226062">
        <ele>1092.915</ele>
        <time>2019-10-16T20:15:35Z</time>
      </trkpt>
      <trkpt lat="-22.158012" lon="-45.226118">
        <ele>1092.808</ele>
        <time>2019-10-16T20:15:37Z</time>
      </trkpt>
      <trkpt lat="-22.157988" lon="-45.226165">
        <ele>1092.877</ele>
        <time>2019-10-16T20:15:39Z</time>
      </trkpt>
      <trkpt lat="-22.157949" lon="-45.226230">
        <ele>1093.015</ele>
        <time>2019-10-16T20:15:42Z</time>
      </trkpt>
      <trkpt lat="-22.157948" lon="-45.226301">
        <ele>1093.018</ele>
        <time>2019-10-16T20:15:44Z</time>
      </trkpt>
      <trkpt lat="-22.157954" lon="-45.226359">
        <ele>1093.096</ele>
        <time>2019-10-16T20:15:45Z</time>
      </trkpt>
      <trkpt lat="-22.158014" lon="-45.226398">
        <ele>1092.286</ele>
        <time>2019-10-16T20:15:48Z</time>
      </trkpt>
      <trkpt lat="-22.158025" lon="-45.226151">
        <ele>1092.648</ele>
        <time>2019-10-16T20:18:00Z</time>
      </trkpt>
      <trkpt lat="-22.158021" lon="-45.226072">
        <ele>1092.832</ele>
        <time>2019-10-16T20:18:01Z</time>
      </trkpt>
      <trkpt lat="-22.158021" lon="-45.225993">
        <ele>1093.059</ele>
        <time>2019-10-16T20:18:02Z</time>
      </trkpt>
      <trkpt lat="-22.158029" lon="-45.225902">
        <ele>1093.319</ele>
        <time>2019-10-16T20:18:05Z</time>
      </trkpt>
      <trkpt lat="-22.158032" lon="-45.225839">
        <ele>1093.509</ele>
        <time>2019-10-16T20:18:06Z</time>
      </trkpt>
      <trkpt lat="-22.158035" lon="-45.225782">
        <ele>1093.519</ele>
        <time>2019-10-16T20:18:08Z</time>
      </trkpt>
      <trkpt lat="-22.158040" lon="-45.225726">
        <ele>1093.608</ele>
        <time>2019-10-16T20:18:09Z</time>
      </trkpt>
      <trkpt lat="-22.158048" lon="-45.225671">
        <ele>1093.735</ele>
        <time>2019-10-16T20:18:10Z</time>
      </trkpt>
      <trkpt lat="-22.158058" lon="-45.225607">
        <ele>1093.933</ele>
        <time>2019-10-16T20:18:12Z</time>
      </trkpt>
      <trkpt lat="-22.155312" lon="-45.198728">
        <ele>971.236</ele>
        <time>2019-10-16T20:18:14Z</time>
      </trkpt>
      <trkpt lat="-22.155301" lon="-45.198666">
        <ele>971.314</ele>
        <time>2019-10-16T20:18:15Z</time>
      </trkpt>
      <trkpt lat="-22.155289" lon="-45.198601">
        <ele>971.514</ele>
        <time>2019-10-16T20:18:16Z</time>
      </trkpt>
      <trkpt lat="-22.155275" lon="-45.198543">
        <ele>971.696</ele>
        <time>2019-10-16T20:18:17Z</time>
      </trkpt>
      <trkpt lat="-22.155262" lon="-45.198482">
        <ele>971.820</ele>
        <time>2019-10-16T20:18:18Z</time>
      </trkpt>
      <trkpt lat="-22.155250" lon="-45.198426">
        <ele>971.987</ele>
        <time>2019-10-16T20:18:19Z</time>
      </trkpt>
      <trkpt lat="-22.155240" lon="-45.198372">
        <ele>972.162</ele>
        <time>2019-10-16T20:18:20Z</time>
      </trkpt>
      <trkpt lat="-22.155228" lon="-45.198311">
        <ele>972.483</ele>
        <time>2019-10-16T20:18:21Z</time>
      </trkpt>
      <trkpt lat="-22.155214" lon="-45.198254">
        <ele>972.611</ele>
        <time>2019-10-16T20:18:22Z</time>
      </trkpt>
      <trkpt lat="-22.155203" lon="-45.198194">
        <ele>972.908</ele>
        <time>2019-10-16T20:18:23Z</time>
      </trkpt>
      <trkpt lat="-22.155192" lon="-45.198134">
        <ele>973.280</ele>
        <time>2019-10-16T20:18:24Z</time>
      </trkpt>
      <trkpt lat="-22.155181" lon="-45.198078">
        <ele>973.598</ele>
        <time>2019-10-16T20:18:25Z</time>
      </trkpt>
      <trkpt lat="-22.155170" lon="-45.198024">
        <ele>973.721</ele>
        <time>2019-10-16T20:18:26Z</time>
      </trkpt>
      <trkpt lat="-22.155159" lon="-45.197971">
        <ele>973.869</ele>
        <time>2019-10-16T20:18:27Z</time>
      </trkpt>
      <trkpt lat="-22.155146" lon="-45.197917">
        <ele>974.079</ele>
        <time>2019-10-16T20:18:28Z</time>
      </trkpt>
      <trkpt lat="-22.155132" lon="-45.197861">
        <ele>974.021</ele>
        <time>2019-10-16T20:18:29Z</time>
      </trkpt>
      <trkpt lat="-22.155120" lon="-45.197803">
        <ele>974.215</ele>
        <time>2019-10-16T20:18:30Z</time>
      </trkpt>
      <trkpt lat="-22.155112" lon="-45.197743">
        <ele>974.332</ele>
        <time>2019-10-16T20:18:31Z</time>
      </trkpt>
      <trkpt lat="-22.155101" lon="-45.197681">
        <ele>974.514</ele>
        <time>2019-10-16T20:18:32Z</time>
      </trkpt>
      <trkpt lat="-22.155090" lon="-45.197618">
        <ele>974.654</ele>
        <time>2019-10-16T20:18:33Z</time>
      </trkpt>
      <trkpt lat="-22.155079" lon="-45.197557">
        <ele>974.609</ele>
        <time>2019-10-16T20:18:34Z</time>
      </trkpt>
      <trkpt lat="-22.155067" lon="-45.197494">
        <ele>974.608</ele>
        <time>2019-10-16T20:18:35Z</time>
      </trkpt>
      <trkpt lat="-22.155056" lon="-45.197431">
        <ele>974.235</ele>
        <time>2019-10-16T20:18:36Z</time>
      </trkpt>
      <trkpt lat="-22.155047" lon="-45.197362">
        <ele>973.943</ele>
        <time>2019-10-16T20:18:37Z</time>
      </trkpt>
      <trkpt lat="-22.155040" lon="-45.197290">
        <ele>973.736</ele>
        <time>2019-10-16T20:18:38Z</time>
      </trkpt>
      <trkpt lat="-22.155034" lon="-45.197223">
        <ele>973.434</ele>
        <time>2019-10-16T20:18:39Z</time>
      </trkpt>
      <trkpt lat="-22.155029" lon="-45.197155">
        <ele>973.244</ele>
        <time>2019-10-16T20:18:40Z</time>
      </trkpt>
      <trkpt lat="-22.155021" lon="-45.197080">
        <ele>973.016</ele>
        <time>2019-10-16T20:18:41Z</time>
      </trkpt>
      <trkpt lat="-22.155014" lon="-45.197004">
        <ele>972.710</ele>
        <time>2019-10-16T20:18:42Z</time>
      </trkpt>
      <trkpt lat="-22.155007" lon="-45.196926">
        <ele>972.547</ele>
        <time>2019-10-16T20:18:43Z</time>
      </trkpt>
      <trkpt lat="-22.154999" lon="-45.196851">
        <ele>972.241</ele>
        <time>2019-10-16T20:18:44Z</time>
      </trkpt>
      <trkpt lat="-22.154991" lon="-45.196771">
        <ele>972.181</ele>
        <time>2019-10-16T20:18:45Z</time>
      </trkpt>
      <trkpt lat="-22.154983" lon="-45.196692">
        <ele>971.909</ele>
        <time>2019-10-16T20:18:46Z</time>
      </trkpt>
      <trkpt lat="-22.154978" lon="-45.196610">
        <ele>971.408</ele>
        <time>2019-10-16T20:18:47Z</time>
      </trkpt>
      <trkpt lat="-22.154974" lon="-45.196526">
        <ele>970.978</ele>
        <time>2019-10-16T20:18:48Z</time>
      </trkpt>
      <trkpt lat="-22.154973" lon="-45.196443">
        <ele>970.436</ele>
        <time>2019-10-16T20:18:49Z</time>
      </trkpt>
      <trkpt lat="-22.154975" lon="-45.196358">
        <ele>969.959</ele>
        <time>2019-10-16T20:18:50Z</time>
      </trkpt>
      <trkpt lat="-22.154978" lon="-45.196271">
        <ele>969.447</ele>
        <time>2019-10-16T20:18:51Z</time>
      </trkpt>
      <trkpt lat="-22.154981" lon="-45.196188">
        <ele>968.967</ele>
        <time>2019-10-16T20:18:52Z</time>
      </trkpt>
      <trkpt lat="-22.154986" lon="-45.196100">
        <ele>968.419</ele>
        <time>2019-10-16T20:18:53Z</time>
      </trkpt>
      <trkpt lat="-22.154993" lon="-45.196013">
        <ele>968.043</ele>
        <time>2019-10-16T20:18:54Z</time>
      </trkpt>
      <trkpt lat="-22.155000" lon="-45.195923">
        <ele>967.590</ele>
        <time>2019-10-16T20:18:55Z</time>
      </trkpt>
      <trkpt lat="-22.155007" lon="-45.195830">
        <ele>966.987</ele>
        <time>2019-10-16T20:18:56Z</time>
      </trkpt>
      <trkpt lat="-22.155012" lon="-45.195738">
        <ele>965.342</ele>
        <time>2019-10-16T20:18:57Z</time>
      </trkpt>
      <trkpt lat="-22.155020" lon="-45.195640">
        <ele>963.526</ele>
        <time>2019-10-16T20:18:58Z</time>
      </trkpt>
      <trkpt lat="-22.155035" lon="-45.195535">
        <ele>961.708</ele>
        <time>2019-10-16T20:18:59Z</time>
      </trkpt>
      <trkpt lat="-22.155049" lon="-45.195426">
        <ele>959.832</ele>
        <time>2019-10-16T20:19:00Z</time>
      </trkpt>
      <trkpt lat="-22.155064" lon="-45.195318">
        <ele>958.020</ele>
        <time>2019-10-16T20:19:01Z</time>
      </trkpt>
      <trkpt lat="-22.155079" lon="-45.195209">
        <ele>956.113</ele>
        <time>2019-10-16T20:19:02Z</time>
      </trkpt>
      <trkpt lat="-22.155093" lon="-45.195110">
        <ele>954.541</ele>
        <time>2019-10-16T20:19:03Z</time>
      </trkpt>
      <trkpt lat="-22.155108" lon="-45.195002">
        <ele>952.731</ele>
        <time>2019-10-16T20:19:04Z</time>
      </trkpt>
      <trkpt lat="-22.155124" lon="-45.194903">
        <ele>953.043</ele>
        <time>2019-10-16T20:19:05Z</time>
      </trkpt>
      <trkpt lat="-22.155144" lon="-45.194804">
        <ele>953.387</ele>
        <time>2019-10-16T20:19:06Z</time>
      </trkpt>
      <trkpt lat="-22.155164" lon="-45.194708">
        <ele>953.724</ele>
        <time>2019-10-16T20:19:07Z</time>
      </trkpt>
      <trkpt lat="-22.155184" lon="-45.194612">
        <ele>954.083</ele>
        <time>2019-10-16T20:19:08Z</time>
      </trkpt>
      <trkpt lat="-22.155204" lon="-45.194517">
        <ele>954.425</ele>
        <time>2019-10-16T20:19:09Z</time>
      </trkpt>
      <trkpt lat="-22.155224" lon="-45.194431">
        <ele>954.717</ele>
        <time>2019-10-16T20:19:10Z</time>
      </trkpt>
      <trkpt lat="-22.155247" lon="-45.194342">
        <ele>955.108</ele>
        <time>2019-10-16T20:19:11Z</time>
      </trkpt>
      <trkpt lat="-22.155270" lon="-45.194258">
        <ele>955.492</ele>
        <time>2019-10-16T20:19:12Z</time>
      </trkpt>
      <trkpt lat="-22.155294" lon="-45.194176">
        <ele>955.710</ele>
        <time>2019-10-16T20:19:13Z</time>
      </trkpt>
      <trkpt lat="-22.155318" lon="-45.194093">
        <ele>956.263</ele>
        <time>2019-10-16T20:19:14Z</time>
      </trkpt>
      <trkpt lat="-22.155344" lon="-45.194013">
        <ele>956.671</ele>
        <time>2019-10-16T20:19:15Z</time>
      </trkpt>
      <trkpt lat="-22.155369" lon="-45.193936">
        <ele>956.931</ele>
        <time>2019-10-16T20:19:16Z</time>
      </trkpt>
      <trkpt lat="-22.155396" lon="-45.193861">
        <ele>957.213</ele>
        <time>2019-10-16T20:19:17Z</time>
      </trkpt>
      <trkpt lat="-22.155421" lon="-45.193785">
        <ele>957.487</ele>
        <time>2019-10-16T20:19:18Z</time>
      </trkpt>
      <trkpt lat="-22.155443" lon="-45.193715">
        <ele>957.614</ele>
        <time>2019-10-16T20:19:19Z</time>
      </trkpt>
      <trkpt lat="-22.155466" lon="-45.193645">
        <ele>957.761</ele>
        <time>2019-10-16T20:19:20Z</time>
      </trkpt>
      <trkpt lat="-22.155490" lon="-45.193579">
        <ele>957.721</ele>
        <time>2019-10-16T20:19:21Z</time>
      </trkpt>
      <trkpt lat="-22.155515" lon="-45.193510">
        <ele>957.713</ele>
        <time>2019-10-16T20:19:22Z</time>
      </trkpt>
      <trkpt lat="-22.155538" lon="-45.193445">
        <ele>957.708</ele>
        <time>2019-10-16T20:19:23Z</time>
      </trkpt>
      <trkpt lat="-22.155559" lon="-45.193381">
        <ele>957.660</ele>
        <time>2019-10-16T20:19:24Z</time>
      </trkpt>
      <trkpt lat="-22.155578" lon="-45.193320">
        <ele>957.778</ele>
        <time>2019-10-16T20:19:25Z</time>
      </trkpt>
      <trkpt lat="-22.155598" lon="-45.193253">
        <ele>958.281</ele>
        <time>2019-10-16T20:19:26Z</time>
      </trkpt>
      <trkpt lat="-22.155618" lon="-45.193190">
        <ele>958.729</ele>
        <time>2019-10-16T20:19:27Z</time>
      </trkpt>
      <trkpt lat="-22.155636" lon="-45.193128">
        <ele>959.289</ele>
        <time>2019-10-16T20:19:28Z</time>
      </trkpt>
      <trkpt lat="-22.155654" lon="-45.193070">
        <ele>959.711</ele>
        <time>2019-10-16T20:19:29Z</time>
      </trkpt>
      <trkpt lat="-22.155672" lon="-45.193008">
        <ele>960.255</ele>
        <time>2019-10-16T20:19:30Z</time>
      </trkpt>
      <trkpt lat="-22.155686" lon="-45.192949">
        <ele>960.732</ele>
        <time>2019-10-16T20:19:31Z</time>
      </trkpt>
      <trkpt lat="-22.155700" lon="-45.192890">
        <ele>961.188</ele>
        <time>2019-10-16T20:19:32Z</time>
      </trkpt>
      <trkpt lat="-22.155713" lon="-45.192828">
        <ele>961.724</ele>
        <time>2019-10-16T20:19:33Z</time>
      </trkpt>
      <trkpt lat="-22.155720" lon="-45.192768">
        <ele>962.226</ele>
        <time>2019-10-16T20:19:34Z</time>
      </trkpt>
      <trkpt lat="-22.155726" lon="-45.192701">
        <ele>962.808</ele>
        <time>2019-10-16T20:19:35Z</time>
      </trkpt>
      <trkpt lat="-22.155732" lon="-45.192634">
        <ele>963.432</ele>
        <time>2019-10-16T20:19:36Z</time>
      </trkpt>
      <trkpt lat="-22.155739" lon="-45.192565">
        <ele>964.040</ele>
        <time>2019-10-16T20:19:37Z</time>
      </trkpt>
      <trkpt lat="-22.155747" lon="-45.192499">
        <ele>964.663</ele>
        <time>2019-10-16T20:19:38Z</time>
      </trkpt>
      <trkpt lat="-22.155754" lon="-45.192432">
        <ele>964.711</ele>
        <time>2019-10-16T20:19:39Z</time>
      </trkpt>
      <trkpt lat="-22.155759" lon="-45.192367">
        <ele>964.831</ele>
        <time>2019-10-16T20:19:40Z</time>
      </trkpt>
      <trkpt lat="-22.155763" lon="-45.192295">
        <ele>965.023</ele>
        <time>2019-10-16T20:19:41Z</time>
      </trkpt>
      <trkpt lat="-22.155765" lon="-45.192230">
        <ele>965.157</ele>
        <time>2019-10-16T20:19:42Z</time>
      </trkpt>
      <trkpt lat="-22.155765" lon="-45.192162">
        <ele>965.294</ele>
        <time>2019-10-16T20:19:43Z</time>
      </trkpt>
      <trkpt lat="-22.155764" lon="-45.192096">
        <ele>965.493</ele>
        <time>2019-10-16T20:19:44Z</time>
      </trkpt>
      <trkpt lat="-22.155764" lon="-45.192029">
        <ele>965.565</ele>
        <time>2019-10-16T20:19:45Z</time>
      </trkpt>
      <trkpt lat="-22.155764" lon="-45.191962">
        <ele>965.721</ele>
        <time>2019-10-16T20:19:46Z</time>
      </trkpt>
      <trkpt lat="-22.155765" lon="-45.191892">
        <ele>965.808</ele>
        <time>2019-10-16T20:19:47Z</time>
      </trkpt>
      <trkpt lat="-22.155764" lon="-45.191824">
        <ele>966.083</ele>
        <time>2019-10-16T20:19:48Z</time>
      </trkpt>
      <trkpt lat="-22.155764" lon="-45.191755">
        <ele>966.131</ele>
        <time>2019-10-16T20:19:49Z</time>
      </trkpt>
      <trkpt lat="-22.155765" lon="-45.191689">
        <ele>966.314</ele>
        <time>2019-10-16T20:19:50Z</time>
      </trkpt>
      <trkpt lat="-22.155765" lon="-45.191618">
        <ele>966.162</ele>
        <time>2019-10-16T20:19:51Z</time>
      </trkpt>
      <trkpt lat="-22.155766" lon="-45.191546">
        <ele>965.712</ele>
        <time>2019-10-16T20:19:52Z</time>
      </trkpt>
      <trkpt lat="-22.155766" lon="-45.191474">
        <ele>965.454</ele>
        <time>2019-10-16T20:19:53Z</time>
      </trkpt>
      <trkpt lat="-22.155765" lon="-45.191398">
        <ele>965.018</ele>
        <time>2019-10-16T20:19:54Z</time>
      </trkpt>
      <trkpt lat="-22.155765" lon="-45.191323">
        <ele>964.685</ele>
        <time>2019-10-16T20:19:55Z</time>
      </trkpt>
      <trkpt lat="-22.155763" lon="-45.191244">
        <ele>964.297</ele>
        <time>2019-10-16T20:19:56Z</time>
      </trkpt>
      <trkpt lat="-22.155760" lon="-45.191165">
        <ele>963.923</ele>
        <time>2019-10-16T20:19:57Z</time>
      </trkpt>
      <trkpt lat="-22.155758" lon="-45.191085">
        <ele>963.525</ele>
        <time>2019-10-16T20:19:58Z</time>
      </trkpt>
      <trkpt lat="-22.155753" lon="-45.191004">
        <ele>963.208</ele>
        <time>2019-10-16T20:19:59Z</time>
      </trkpt>
      <trkpt lat="-22.155748" lon="-45.190923">
        <ele>962.923</ele>
        <time>2019-10-16T20:20:00Z</time>
      </trkpt>
      <trkpt lat="-22.155746" lon="-45.190840">
        <ele>962.541</ele>
        <time>2019-10-16T20:20:01Z</time>
      </trkpt>
      <trkpt lat="-22.155745" lon="-45.190755">
        <ele>962.194</ele>
        <time>2019-10-16T20:20:02Z</time>
      </trkpt>
      <trkpt lat="-22.155744" lon="-45.190668">
        <ele>961.692</ele>
        <time>2019-10-16T20:20:03Z</time>
      </trkpt>
      <trkpt lat="-22.155744" lon="-45.190581">
        <ele>961.282</ele>
        <time>2019-10-16T20:20:04Z</time>
      </trkpt>
      <trkpt lat="-22.155741" lon="-45.190493">
        <ele>960.744</ele>
        <time>2019-10-16T20:20:05Z</time>
      </trkpt>
      <trkpt lat="-22.155738" lon="-45.190399">
        <ele>960.348</ele>
        <time>2019-10-16T20:20:06Z</time>
      </trkpt>
      <trkpt lat="-22.155732" lon="-45.190306">
        <ele>959.855</ele>
        <time>2019-10-16T20:20:07Z</time>
      </trkpt>
      <trkpt lat="-22.155728" lon="-45.190208">
        <ele>959.319</ele>
        <time>2019-10-16T20:20:08Z</time>
      </trkpt>
      <trkpt lat="-22.155727" lon="-45.190108">
        <ele>958.709</ele>
        <time>2019-10-16T20:20:09Z</time>
      </trkpt>
      <trkpt lat="-22.155728" lon="-45.190013">
        <ele>958.219</ele>
        <time>2019-10-16T20:20:10Z</time>
      </trkpt>
      <trkpt lat="-22.155729" lon="-45.189912">
        <ele>958.608</ele>
        <time>2019-10-16T20:20:11Z</time>
      </trkpt>
      <trkpt lat="-22.155727" lon="-45.189811">
        <ele>959.175</ele>
        <time>2019-10-16T20:20:12Z</time>
      </trkpt>
      <trkpt lat="-22.155726" lon="-45.189710">
        <ele>959.763</ele>
        <time>2019-10-16T20:20:13Z</time>
      </trkpt>
      <trkpt lat="-22.155725" lon="-45.189613">
        <ele>960.296</ele>
        <time>2019-10-16T20:20:14Z</time>
      </trkpt>
      <trkpt lat="-22.155724" lon="-45.189513">
        <ele>960.714</ele>
        <time>2019-10-16T20:20:15Z</time>
      </trkpt>
      <trkpt lat="-22.155725" lon="-45.189420">
        <ele>961.214</ele>
        <time>2019-10-16T20:20:16Z</time>
      </trkpt>
      <trkpt lat="-22.155727" lon="-45.189325">
        <ele>961.866</ele>
        <time>2019-10-16T20:20:17Z</time>
      </trkpt>
      <trkpt lat="-22.155729" lon="-45.189236">
        <ele>962.280</ele>
        <time>2019-10-16T20:20:18Z</time>
      </trkpt>
      <trkpt lat="-22.155730" lon="-45.189152">
        <ele>962.777</ele>
        <time>2019-10-16T20:20:19Z</time>
      </trkpt>
      <trkpt lat="-22.155727" lon="-45.189069">
        <ele>962.921</ele>
        <time>2019-10-16T20:20:20Z</time>
      </trkpt>
      <trkpt lat="-22.155723" lon="-45.188989">
        <ele>963.141</ele>
        <time>2019-10-16T20:20:21Z</time>
      </trkpt>
      <trkpt lat="-22.155719" lon="-45.188910">
        <ele>963.405</ele>
        <time>2019-10-16T20:20:22Z</time>
      </trkpt>
      <trkpt lat="-22.155719" lon="-45.188828">
        <ele>963.608</ele>
        <time>2019-10-16T20:20:23Z</time>
      </trkpt>
      <trkpt lat="-22.155718" lon="-45.188750">
        <ele>963.816</ele>
        <time>2019-10-16T20:20:24Z</time>
      </trkpt>
      <trkpt lat="-22.155716" lon="-45.188671">
        <ele>964.174</ele>
        <time>2019-10-16T20:20:25Z</time>
      </trkpt>
      <trkpt lat="-22.155715" lon="-45.188592">
        <ele>964.337</ele>
        <time>2019-10-16T20:20:26Z</time>
      </trkpt>
      <trkpt lat="-22.155717" lon="-45.188516">
        <ele>964.695</ele>
        <time>2019-10-16T20:20:27Z</time>
      </trkpt>
      <trkpt lat="-22.155718" lon="-45.188441">
        <ele>964.815</ele>
        <time>2019-10-16T20:20:28Z</time>
      </trkpt>
      <trkpt lat="-22.155721" lon="-45.188366">
        <ele>965.077</ele>
        <time>2019-10-16T20:20:29Z</time>
      </trkpt>
      <trkpt lat="-22.155723" lon="-45.188291">
        <ele>964.861</ele>
        <time>2019-10-16T20:20:30Z</time>
      </trkpt>
      <trkpt lat="-22.155727" lon="-45.188213">
        <ele>964.128</ele>
        <time>2019-10-16T20:20:31Z</time>
      </trkpt>
      <trkpt lat="-22.155735" lon="-45.188134">
        <ele>963.542</ele>
        <time>2019-10-16T20:20:32Z</time>
      </trkpt>
      <trkpt lat="-22.155743" lon="-45.188054">
        <ele>962.822</ele>
        <time>2019-10-16T20:20:33Z</time>
      </trkpt>
      <trkpt lat="-22.155755" lon="-45.187976">
        <ele>962.014</ele>
        <time>2019-10-16T20:20:34Z</time>
      </trkpt>
      <trkpt lat="-22.155769" lon="-45.187899">
        <ele>961.308</ele>
        <time>2019-10-16T20:20:35Z</time>
      </trkpt>
      <trkpt lat="-22.155784" lon="-45.187824">
        <ele>960.468</ele>
        <time>2019-10-16T20:20:36Z</time>
      </trkpt>
      <trkpt lat="-22.155801" lon="-45.187746">
        <ele>959.646</ele>
        <time>2019-10-16T20:20:37Z</time>
      </trkpt>
      <trkpt lat="-22.155819" lon="-45.187668">
        <ele>958.659</ele>
        <time>2019-10-16T20:20:38Z</time>
      </trkpt>
      <trkpt lat="-22.155836" lon="-45.187588">
        <ele>957.867</ele>
        <time>2019-10-16T20:20:39Z</time>
      </trkpt>
      <trkpt lat="-22.155855" lon="-45.187511">
        <ele>957.427</ele>
        <time>2019-10-16T20:20:40Z</time>
      </trkpt>
      <trkpt lat="-22.155876" lon="-45.187431">
        <ele>957.229</ele>
        <time>2019-10-16T20:20:41Z</time>
      </trkpt>
      <trkpt lat="-22.155897" lon="-45.187353">
        <ele>957.163</ele>
        <time>2019-10-16T20:20:42Z</time>
      </trkpt>
      <trkpt lat="-22.155920" lon="-45.187275">
        <ele>956.980</ele>
        <time>2019-10-16T20:20:43Z</time>
      </trkpt>
      <trkpt lat="-22.155944" lon="-45.187197">
        <ele>956.855</ele>
        <time>2019-10-16T20:20:44Z</time>
      </trkpt>
      <trkpt lat="-22.155966" lon="-45.187120">
        <ele>956.607</ele>
        <time>2019-10-16T20:20:45Z</time>
      </trkpt>
      <trkpt lat="-22.155988" lon="-45.187036">
        <ele>956.317</ele>
        <time>2019-10-16T20:20:46Z</time>
      </trkpt>
      <trkpt lat="-22.156010" lon="-45.186954">
        <ele>956.008</ele>
        <time>2019-10-16T20:20:47Z</time>
      </trkpt>
      <trkpt lat="-22.156030" lon="-45.186870">
        <ele>955.789</ele>
        <time>2019-10-16T20:20:48Z</time>
      </trkpt>
      <trkpt lat="-22.156051" lon="-45.186779">
        <ele>955.347</ele>
        <time>2019-10-16T20:20:49Z</time>
      </trkpt>
      <trkpt lat="-22.156068" lon="-45.186691">
        <ele>954.870</ele>
        <time>2019-10-16T20:20:50Z</time>
      </trkpt>
      <trkpt lat="-22.156083" lon="-45.186604">
        <ele>955.298</ele>
        <time>2019-10-16T20:20:51Z</time>
      </trkpt>
      <trkpt lat="-22.156097" lon="-45.186522">
        <ele>955.978</ele>
        <time>2019-10-16T20:20:52Z</time>
      </trkpt>
      <trkpt lat="-22.156106" lon="-45.186439">
        <ele>956.680</ele>
        <time>2019-10-16T20:20:53Z</time>
      </trkpt>
      <trkpt lat="-22.156112" lon="-45.186349">
        <ele>957.354</ele>
        <time>2019-10-16T20:20:54Z</time>
      </trkpt>
      <trkpt lat="-22.156119" lon="-45.186257">
        <ele>958.051</ele>
        <time>2019-10-16T20:20:55Z</time>
      </trkpt>
      <trkpt lat="-22.156124" lon="-45.186171">
        <ele>958.749</ele>
        <time>2019-10-16T20:20:56Z</time>
      </trkpt>
      <trkpt lat="-22.156129" lon="-45.186083">
        <ele>959.502</ele>
        <time>2019-10-16T20:20:57Z</time>
      </trkpt>
      <trkpt lat="-22.156130" lon="-45.186000">
        <ele>960.122</ele>
        <time>2019-10-16T20:20:58Z</time>
      </trkpt>
      <trkpt lat="-22.156128" lon="-45.185916">
        <ele>960.708</ele>
        <time>2019-10-16T20:20:59Z</time>
      </trkpt>
      <trkpt lat="-22.156131" lon="-45.185839">
        <ele>961.358</ele>
        <time>2019-10-16T20:21:00Z</time>
      </trkpt>
      <trkpt lat="-22.156131" lon="-45.185763">
        <ele>961.586</ele>
        <time>2019-10-16T20:21:01Z</time>
      </trkpt>
      <trkpt lat="-22.156134" lon="-45.185686">
        <ele>961.819</ele>
        <time>2019-10-16T20:21:02Z</time>
      </trkpt>
      <trkpt lat="-22.156138" lon="-45.185616">
        <ele>962.147</ele>
        <time>2019-10-16T20:21:03Z</time>
      </trkpt>
      <trkpt lat="-22.156143" lon="-45.185544">
        <ele>962.417</ele>
        <time>2019-10-16T20:21:04Z</time>
      </trkpt>
      <trkpt lat="-22.156148" lon="-45.185475">
        <ele>962.789</ele>
        <time>2019-10-16T20:21:05Z</time>
      </trkpt>
      <trkpt lat="-22.156151" lon="-45.185398">
        <ele>963.033</ele>
        <time>2019-10-16T20:21:06Z</time>
      </trkpt>
      <trkpt lat="-22.156152" lon="-45.185327">
        <ele>963.290</ele>
        <time>2019-10-16T20:21:07Z</time>
      </trkpt>
      <trkpt lat="-22.156150" lon="-45.185263">
        <ele>963.418</ele>
        <time>2019-10-16T20:21:08Z</time>
      </trkpt>
      <trkpt lat="-22.156145" lon="-45.185202">
        <ele>963.498</ele>
        <time>2019-10-16T20:21:09Z</time>
      </trkpt>
      <trkpt lat="-22.156141" lon="-45.185145">
        <ele>963.517</ele>
        <time>2019-10-16T20:21:10Z</time>
      </trkpt>
      <trkpt lat="-22.156141" lon="-45.185086">
        <ele>963.608</ele>
        <time>2019-10-16T20:21:11Z</time>
      </trkpt>
      <trkpt lat="-22.156145" lon="-45.185025">
        <ele>963.965</ele>
        <time>2019-10-16T20:21:12Z</time>
      </trkpt>
      <trkpt lat="-22.156146" lon="-45.184966">
        <ele>964.093</ele>
        <time>2019-10-16T20:21:13Z</time>
      </trkpt>
      <trkpt lat="-22.156147" lon="-45.184905">
        <ele>964.096</ele>
        <time>2019-10-16T20:21:14Z</time>
      </trkpt>
      <trkpt lat="-22.156148" lon="-45.184846">
        <ele>964.024</ele>
        <time>2019-10-16T20:21:15Z</time>
      </trkpt>
      <trkpt lat="-22.156150" lon="-45.184787">
        <ele>964.044</ele>
        <time>2019-10-16T20:21:16Z</time>
      </trkpt>
      <trkpt lat="-22.156150" lon="-45.184733">
        <ele>964.086</ele>
        <time>2019-10-16T20:21:17Z</time>
      </trkpt>
      <trkpt lat="-22.156150" lon="-45.184676">
        <ele>964.030</ele>
        <time>2019-10-16T20:21:18Z</time>
      </trkpt>
      <trkpt lat="-22.156150" lon="-45.184611">
        <ele>963.937</ele>
        <time>2019-10-16T20:21:19Z</time>
      </trkpt>
      <trkpt lat="-22.156150" lon="-45.184548">
        <ele>963.987</ele>
        <time>2019-10-16T20:21:20Z</time>
      </trkpt>
      <trkpt lat="-22.156152" lon="-45.184479">
        <ele>963.942</ele>
        <time>2019-10-16T20:21:21Z</time>
      </trkpt>
      <trkpt lat="-22.156157" lon="-45.184416">
        <ele>964.026</ele>
        <time>2019-10-16T20:21:22Z</time>
      </trkpt>
      <trkpt lat="-22.156161" lon="-45.184354">
        <ele>964.108</ele>
        <time>2019-10-16T20:21:23Z</time>
      </trkpt>
      <trkpt lat="-22.156168" lon="-45.184284">
        <ele>964.312</ele>
        <time>2019-10-16T20:21:24Z</time>
      </trkpt>
      <trkpt lat="-22.156180" lon="-45.184212">
        <ele>964.620</ele>
        <time>2019-10-16T20:21:25Z</time>
      </trkpt>
      <trkpt lat="-22.156192" lon="-45.184127">
        <ele>964.473</ele>
        <time>2019-10-16T20:21:26Z</time>
      </trkpt>
      <trkpt lat="-22.156204" lon="-45.184043">
        <ele>963.771</ele>
        <time>2019-10-16T20:21:27Z</time>
      </trkpt>
      <trkpt lat="-22.156220" lon="-45.183961">
        <ele>963.021</ele>
        <time>2019-10-16T20:21:28Z</time>
      </trkpt>
      <trkpt lat="-22.156243" lon="-45.183881">
        <ele>962.463</ele>
        <time>2019-10-16T20:21:29Z</time>
      </trkpt>
      <trkpt lat="-22.156269" lon="-45.183798">
        <ele>961.837</ele>
        <time>2019-10-16T20:21:30Z</time>
      </trkpt>
      <trkpt lat="-22.156293" lon="-45.183713">
        <ele>960.944</ele>
        <time>2019-10-16T20:21:31Z</time>
      </trkpt>
      <trkpt lat="-22.156320" lon="-45.183631">
        <ele>960.189</ele>
        <time>2019-10-16T20:21:32Z</time>
      </trkpt>
      <trkpt lat="-22.156356" lon="-45.183545">
        <ele>959.206</ele>
        <time>2019-10-16T20:21:33Z</time>
      </trkpt>
      <trkpt lat="-22.156400" lon="-45.183465">
        <ele>958.426</ele>
        <time>2019-10-16T20:21:34Z</time>
      </trkpt>
      <trkpt lat="-22.156450" lon="-45.183382">
        <ele>957.408</ele>
        <time>2019-10-16T20:21:35Z</time>
      </trkpt>
      <trkpt lat="-22.156505" lon="-45.183296">
        <ele>956.432</ele>
        <time>2019-10-16T20:21:36Z</time>
      </trkpt>
      <trkpt lat="-22.156561" lon="-45.183212">
        <ele>955.750</ele>
        <time>2019-10-16T20:21:37Z</time>
      </trkpt>
      <trkpt lat="-22.156620" lon="-45.183129">
        <ele>954.613</ele>
        <time>2019-10-16T20:21:38Z</time>
      </trkpt>
      <trkpt lat="-22.156681" lon="-45.183047">
        <ele>953.451</ele>
        <time>2019-10-16T20:21:39Z</time>
      </trkpt>
      <trkpt lat="-22.156740" lon="-45.182962">
        <ele>952.851</ele>
        <time>2019-10-16T20:21:40Z</time>
      </trkpt>
      <trkpt lat="-22.156800" lon="-45.182880">
        <ele>952.093</ele>
        <time>2019-10-16T20:21:41Z</time>
      </trkpt>
      <trkpt lat="-22.156865" lon="-45.182792">
        <ele>950.997</ele>
        <time>2019-10-16T20:21:42Z</time>
      </trkpt>
      <trkpt lat="-22.156925" lon="-45.182705">
        <ele>949.494</ele>
        <time>2019-10-16T20:21:43Z</time>
      </trkpt>
      <trkpt lat="-22.156976" lon="-45.182610">
        <ele>947.542</ele>
        <time>2019-10-16T20:21:44Z</time>
      </trkpt>
      <trkpt lat="-22.157014" lon="-45.182510">
        <ele>945.122</ele>
        <time>2019-10-16T20:21:45Z</time>
      </trkpt>
      <trkpt lat="-22.157046" lon="-45.182405">
        <ele>944.214</ele>
        <time>2019-10-16T20:21:46Z</time>
      </trkpt>
      <trkpt lat="-22.157068" lon="-45.182296">
        <ele>943.308</ele>
        <time>2019-10-16T20:21:47Z</time>
      </trkpt>
      <trkpt lat="-22.157086" lon="-45.182183">
        <ele>942.318</ele>
        <time>2019-10-16T20:21:48Z</time>
      </trkpt>
      <trkpt lat="-22.157100" lon="-45.182068">
        <ele>941.286</ele>
        <time>2019-10-16T20:21:49Z</time>
      </trkpt>
      <trkpt lat="-22.157108" lon="-45.181952">
        <ele>940.119</ele>
        <time>2019-10-16T20:21:50Z</time>
      </trkpt>
      <trkpt lat="-22.157113" lon="-45.181831">
        <ele>938.967</ele>
        <time>2019-10-16T20:21:51Z</time>
      </trkpt>
      <trkpt lat="-22.157114" lon="-45.181712">
        <ele>937.817</ele>
        <time>2019-10-16T20:21:52Z</time>
      </trkpt>
      <trkpt lat="-22.157115" lon="-45.181594">
        <ele>937.269</ele>
        <time>2019-10-16T20:21:53Z</time>
      </trkpt>
      <trkpt lat="-22.157115" lon="-45.181480">
        <ele>936.813</ele>
        <time>2019-10-16T20:21:54Z</time>
      </trkpt>
      <trkpt lat="-22.157119" lon="-45.181366">
        <ele>936.490</ele>
        <time>2019-10-16T20:21:55Z</time>
      </trkpt>
      <trkpt lat="-22.157121" lon="-45.181250">
        <ele>936.065</ele>
        <time>2019-10-16T20:21:56Z</time>
      </trkpt>
      <trkpt lat="-22.157121" lon="-45.181138">
        <ele>935.768</ele>
        <time>2019-10-16T20:21:57Z</time>
      </trkpt>
      <trkpt lat="-22.157121" lon="-45.181026">
        <ele>935.414</ele>
        <time>2019-10-16T20:21:58Z</time>
      </trkpt>
      <trkpt lat="-22.157121" lon="-45.180914">
        <ele>935.108</ele>
        <time>2019-10-16T20:21:59Z</time>
      </trkpt>
      <trkpt lat="-22.157123" lon="-45.180804">
        <ele>934.840</ele>
        <time>2019-10-16T20:22:00Z</time>
      </trkpt>
      <trkpt lat="-22.157127" lon="-45.180706">
        <ele>934.738</ele>
        <time>2019-10-16T20:22:01Z</time>
      </trkpt>
      <trkpt lat="-22.157122" lon="-45.180601">
        <ele>934.861</ele>
        <time>2019-10-16T20:22:02Z</time>
      </trkpt>
      <trkpt lat="-22.157116" lon="-45.180502">
        <ele>934.979</ele>
        <time>2019-10-16T20:22:03Z</time>
      </trkpt>
      <trkpt lat="-22.157112" lon="-45.180400">
        <ele>934.989</ele>
        <time>2019-10-16T20:22:04Z</time>
      </trkpt>
      <trkpt lat="-22.157110" lon="-45.180302">
        <ele>934.931</ele>
        <time>2019-10-16T20:22:05Z</time>
      </trkpt>
      <trkpt lat="-22.157109" lon="-45.180208">
        <ele>934.945</ele>
        <time>2019-10-16T20:22:06Z</time>
      </trkpt>
      <trkpt lat="-22.157110" lon="-45.180123">
        <ele>934.912</ele>
        <time>2019-10-16T20:22:07Z</time>
      </trkpt>
      <trkpt lat="-22.157113" lon="-45.180044">
        <ele>934.998</ele>
        <time>2019-10-16T20:22:08Z</time>
      </trkpt>
      <trkpt lat="-22.157115" lon="-45.179966">
        <ele>934.915</ele>
        <time>2019-10-16T20:22:09Z</time>
      </trkpt>
      <trkpt lat="-22.157120" lon="-45.179891">
        <ele>935.026</ele>
        <time>2019-10-16T20:22:10Z</time>
      </trkpt>
      <trkpt lat="-22.157128" lon="-45.179816">
        <ele>935.108</ele>
        <time>2019-10-16T20:22:11Z</time>
      </trkpt>
      <trkpt lat="-22.157132" lon="-45.179743">
        <ele>935.173</ele>
        <time>2019-10-16T20:22:12Z</time>
      </trkpt>
      <trkpt lat="-22.157133" lon="-45.179672">
        <ele>935.291</ele>
        <time>2019-10-16T20:22:13Z</time>
      </trkpt>
      <trkpt lat="-22.157135" lon="-45.179593">
        <ele>935.474</ele>
        <time>2019-10-16T20:22:14Z</time>
      </trkpt>
      <trkpt lat="-22.157138" lon="-45.179518">
        <ele>935.572</ele>
        <time>2019-10-16T20:22:15Z</time>
      </trkpt>
      <trkpt lat="-22.157141" lon="-45.179438">
        <ele>935.672</ele>
        <time>2019-10-16T20:22:16Z</time>
      </trkpt>
      <trkpt lat="-22.157145" lon="-45.179354">
        <ele>935.744</ele>
        <time>2019-10-16T20:22:17Z</time>
      </trkpt>
      <trkpt lat="-22.157153" lon="-45.179269">
        <ele>935.898</ele>
        <time>2019-10-16T20:22:18Z</time>
      </trkpt>
      <trkpt lat="-22.157161" lon="-45.179180">
        <ele>936.095</ele>
        <time>2019-10-16T20:22:19Z</time>
      </trkpt>
      <trkpt lat="-22.157159" lon="-45.179089">
        <ele>935.836</ele>
        <time>2019-10-16T20:22:20Z</time>
      </trkpt>
      <trkpt lat="-22.157155" lon="-45.178998">
        <ele>935.517</ele>
        <time>2019-10-16T20:22:21Z</time>
      </trkpt>
      <trkpt lat="-22.157154" lon="-45.178909">
        <ele>935.218</ele>
        <time>2019-10-16T20:22:22Z</time>
      </trkpt>
      <trkpt lat="-22.157155" lon="-45.178818">
        <ele>934.908</ele>
        <time>2019-10-16T20:22:23Z</time>
      </trkpt>
      <trkpt lat="-22.157153" lon="-45.178729">
        <ele>934.797</ele>
        <time>2019-10-16T20:22:24Z</time>
      </trkpt>
      <trkpt lat="-22.157151" lon="-45.178643">
        <ele>934.435</ele>
        <time>2019-10-16T20:22:25Z</time>
      </trkpt>
      <trkpt lat="-22.157147" lon="-45.178550">
        <ele>934.288</ele>
        <time>2019-10-16T20:22:26Z</time>
      </trkpt>
      <trkpt lat="-22.157145" lon="-45.178456">
        <ele>933.946</ele>
        <time>2019-10-16T20:22:27Z</time>
      </trkpt>
      <trkpt lat="-22.157144" lon="-45.178363">
        <ele>933.686</ele>
        <time>2019-10-16T20:22:28Z</time>
      </trkpt>
      <trkpt lat="-22.157143" lon="-45.178270">
        <ele>933.588</ele>
        <time>2019-10-16T20:22:29Z</time>
      </trkpt>
      <trkpt lat="-22.157141" lon="-45.178176">
        <ele>933.462</ele>
        <time>2019-10-16T20:22:30Z</time>
      </trkpt>
      <trkpt lat="-22.157140" lon="-45.178085">
        <ele>933.329</ele>
        <time>2019-10-16T20:22:31Z</time>
      </trkpt>
      <trkpt lat="-22.157140" lon="-45.177994">
        <ele>933.349</ele>
        <time>2019-10-16T20:22:32Z</time>
      </trkpt>
      <trkpt lat="-22.157140" lon="-45.177907">
        <ele>933.202</ele>
        <time>2019-10-16T20:22:33Z</time>
      </trkpt>
      <trkpt lat="-22.157138" lon="-45.177816">
        <ele>933.122</ele>
        <time>2019-10-16T20:22:34Z</time>
      </trkpt>
      <trkpt lat="-22.157139" lon="-45.177730">
        <ele>933.008</ele>
        <time>2019-10-16T20:22:35Z</time>
      </trkpt>
      <trkpt lat="-22.157141" lon="-45.177649">
        <ele>932.968</ele>
        <time>2019-10-16T20:22:36Z</time>
      </trkpt>
      <trkpt lat="-22.157141" lon="-45.177571">
        <ele>932.896</ele>
        <time>2019-10-16T20:22:37Z</time>
      </trkpt>
      <trkpt lat="-22.157145" lon="-45.177491">
        <ele>932.789</ele>
        <time>2019-10-16T20:22:38Z</time>
      </trkpt>
      <trkpt lat="-22.157149" lon="-45.177419">
        <ele>932.867</ele>
        <time>2019-10-16T20:22:39Z</time>
      </trkpt>
      <trkpt lat="-22.157153" lon="-45.177357">
        <ele>932.857</ele>
        <time>2019-10-16T20:22:40Z</time>
      </trkpt>
      <trkpt lat="-22.157158" lon="-45.177295">
        <ele>932.839</ele>
        <time>2019-10-16T20:22:41Z</time>
      </trkpt>
      <trkpt lat="-22.157163" lon="-45.177227">
        <ele>932.913</ele>
        <time>2019-10-16T20:22:42Z</time>
      </trkpt>
      <trkpt lat="-22.157170" lon="-45.177162">
        <ele>932.970</ele>
        <time>2019-10-16T20:22:43Z</time>
      </trkpt>
      <trkpt lat="-22.157177" lon="-45.177096">
        <ele>932.892</ele>
        <time>2019-10-16T20:22:44Z</time>
      </trkpt>
      <trkpt lat="-22.157183" lon="-45.177031">
        <ele>932.873</ele>
        <time>2019-10-16T20:22:45Z</time>
      </trkpt>
      <trkpt lat="-22.157183" lon="-45.176965">
        <ele>933.020</ele>
        <time>2019-10-16T20:22:46Z</time>
      </trkpt>
      <trkpt lat="-22.157173" lon="-45.176888">
        <ele>933.408</ele>
        <time>2019-10-16T20:22:47Z</time>
      </trkpt>
      <trkpt lat="-22.157162" lon="-45.176811">
        <ele>933.893</ele>
        <time>2019-10-16T20:22:48Z</time>
      </trkpt>
      <trkpt lat="-22.157154" lon="-45.176730">
        <ele>934.241</ele>
        <time>2019-10-16T20:22:49Z</time>
      </trkpt>
      <trkpt lat="-22.157153" lon="-45.176658">
        <ele>934.474</ele>
        <time>2019-10-16T20:22:50Z</time>
      </trkpt>
      <trkpt lat="-22.157152" lon="-45.176590">
        <ele>934.742</ele>
        <time>2019-10-16T20:22:51Z</time>
      </trkpt>
      <trkpt lat="-22.157157" lon="-45.176522">
        <ele>934.842</ele>
        <time>2019-10-16T20:22:52Z</time>
      </trkpt>
      <trkpt lat="-22.157165" lon="-45.176461">
        <ele>934.994</ele>
        <time>2019-10-16T20:22:53Z</time>
      </trkpt>
      <trkpt lat="-22.157171" lon="-45.176409">
        <ele>935.028</ele>
        <time>2019-10-16T20:22:54Z</time>
      </trkpt>
      <trkpt lat="-22.157174" lon="-45.176347">
        <ele>935.255</ele>
        <time>2019-10-16T20:22:55Z</time>
      </trkpt>
      <trkpt lat="-22.157172" lon="-45.176286">
        <ele>935.535</ele>
        <time>2019-10-16T20:22:56Z</time>
      </trkpt>
      <trkpt lat="-22.157168" lon="-45.176224">
        <ele>935.986</ele>
        <time>2019-10-16T20:22:57Z</time>
      </trkpt>
      <trkpt lat="-22.157163" lon="-45.176164">
        <ele>936.214</ele>
        <time>2019-10-16T20:22:58Z</time>
      </trkpt>
      <trkpt lat="-22.157160" lon="-45.176100">
        <ele>936.608</ele>
        <time>2019-10-16T20:22:59Z</time>
      </trkpt>
      <trkpt lat="-22.157156" lon="-45.176043">
        <ele>936.917</ele>
        <time>2019-10-16T20:23:00Z</time>
      </trkpt>
      <trkpt lat="-22.157153" lon="-45.175986">
        <ele>937.265</ele>
        <time>2019-10-16T20:23:01Z</time>
      </trkpt>
      <trkpt lat="-22.157145" lon="-45.175925">
        <ele>937.698</ele>
        <time>2019-10-16T20:23:02Z</time>
      </trkpt>
      <trkpt lat="-22.157131" lon="-45.175856">
        <ele>938.126</ele>
        <time>2019-10-16T20:23:03Z</time>
      </trkpt>
      <trkpt lat="-22.157117" lon="-45.175789">
        <ele>938.566</ele>
        <time>2019-10-16T20:23:04Z</time>
      </trkpt>
      <trkpt lat="-22.157102" lon="-45.175721">
        <ele>938.848</ele>
        <time>2019-10-16T20:23:05Z</time>
      </trkpt>
      <trkpt lat="-22.157085" lon="-45.175652">
        <ele>939.112</ele>
        <time>2019-10-16T20:23:06Z</time>
      </trkpt>
      <trkpt lat="-22.157069" lon="-45.175579">
        <ele>939.329</ele>
        <time>2019-10-16T20:23:07Z</time>
      </trkpt>
      <trkpt lat="-22.157051" lon="-45.175502">
        <ele>939.486</ele>
        <time>2019-10-16T20:23:08Z</time>
      </trkpt>
      <trkpt lat="-22.157035" lon="-45.175434">
        <ele>939.560</ele>
        <time>2019-10-16T20:23:09Z</time>
      </trkpt>
      <trkpt lat="-22.157016" lon="-45.175356">
        <ele>939.526</ele>
        <time>2019-10-16T20:23:10Z</time>
      </trkpt>
      <trkpt lat="-22.156998" lon="-45.175275">
        <ele>939.508</ele>
        <time>2019-10-16T20:23:11Z</time>
      </trkpt>
      <trkpt lat="-22.156982" lon="-45.175200">
        <ele>939.332</ele>
        <time>2019-10-16T20:23:12Z</time>
      </trkpt>
      <trkpt lat="-22.156966" lon="-45.175121">
        <ele>939.190</ele>
        <time>2019-10-16T20:23:13Z</time>
      </trkpt>
      <trkpt lat="-22.156952" lon="-45.175047">
        <ele>938.933</ele>
        <time>2019-10-16T20:23:14Z</time>
      </trkpt>
      <trkpt lat="-22.156939" lon="-45.174978">
        <ele>938.751</ele>
        <time>2019-10-16T20:23:15Z</time>
      </trkpt>
      <trkpt lat="-22.156927" lon="-45.174911">
        <ele>938.841</ele>
        <time>2019-10-16T20:23:16Z</time>
      </trkpt>
      <trkpt lat="-22.156915" lon="-45.174849">
        <ele>938.893</ele>
        <time>2019-10-16T20:23:17Z</time>
      </trkpt>
      <trkpt lat="-22.156904" lon="-45.174788">
        <ele>938.747</ele>
        <time>2019-10-16T20:23:18Z</time>
      </trkpt>
      <trkpt lat="-22.156891" lon="-45.174732">
        <ele>938.644</ele>
        <time>2019-10-16T20:23:19Z</time>
      </trkpt>
      <trkpt lat="-22.156879" lon="-45.174675">
        <ele>938.471</ele>
        <time>2019-10-16T20:23:20Z</time>
      </trkpt>
      <trkpt lat="-22.156866" lon="-45.174620">
        <ele>938.241</ele>
        <time>2019-10-16T20:23:21Z</time>
      </trkpt>
      <trkpt lat="-22.156852" lon="-45.174564">
        <ele>937.915</ele>
        <time>2019-10-16T20:23:22Z</time>
      </trkpt>
      <trkpt lat="-22.156841" lon="-45.174510">
        <ele>937.608</ele>
        <time>2019-10-16T20:23:23Z</time>
      </trkpt>
      <trkpt lat="-22.156828" lon="-45.174451">
        <ele>937.241</ele>
        <time>2019-10-16T20:23:24Z</time>
      </trkpt>
      <trkpt lat="-22.156813" lon="-45.174395">
        <ele>936.749</ele>
        <time>2019-10-16T20:23:25Z</time>
      </trkpt>
      <trkpt lat="-22.156797" lon="-45.174343">
        <ele>936.152</ele>
        <time>2019-10-16T20:23:26Z</time>
      </trkpt>
      <trkpt lat="-22.156781" lon="-45.174287">
        <ele>935.550</ele>
        <time>2019-10-16T20:23:27Z</time>
      </trkpt>
      <trkpt lat="-22.156765" lon="-45.174230">
        <ele>934.830</ele>
        <time>2019-10-16T20:23:28Z</time>
      </trkpt>
      <trkpt lat="-22.156748" lon="-45.174173">
        <ele>934.022</ele>
        <time>2019-10-16T20:23:29Z</time>
      </trkpt>
      <trkpt lat="-22.156731" lon="-45.174117">
        <ele>934.226</ele>
        <time>2019-10-16T20:23:30Z</time>
      </trkpt>
      <trkpt lat="-22.156713" lon="-45.174064">
        <ele>934.633</ele>
        <time>2019-10-16T20:23:31Z</time>
      </trkpt>
      <trkpt lat="-22.156695" lon="-45.174011">
        <ele>934.984</ele>
        <time>2019-10-16T20:23:32Z</time>
      </trkpt>
      <trkpt lat="-22.156676" lon="-45.173956">
        <ele>935.107</ele>
        <time>2019-10-16T20:23:33Z</time>
      </trkpt>
      <trkpt lat="-22.156658" lon="-45.173904">
        <ele>935.717</ele>
        <time>2019-10-16T20:23:34Z</time>
      </trkpt>
      <trkpt lat="-22.156641" lon="-45.173853">
        <ele>936.508</ele>
        <time>2019-10-16T20:23:35Z</time>
      </trkpt>
      <trkpt lat="-22.156625" lon="-45.173803">
        <ele>937.222</ele>
        <time>2019-10-16T20:23:36Z</time>
      </trkpt>
      <trkpt lat="-22.156608" lon="-45.173753">
        <ele>937.960</ele>
        <time>2019-10-16T20:23:37Z</time>
      </trkpt>
      <trkpt lat="-22.156593" lon="-45.173704">
        <ele>938.453</ele>
        <time>2019-10-16T20:23:38Z</time>
      </trkpt>
      <trkpt lat="-22.156578" lon="-45.173654">
        <ele>938.921</ele>
        <time>2019-10-16T20:23:39Z</time>
      </trkpt>
      <trkpt lat="-22.156566" lon="-45.173606">
        <ele>939.481</ele>
        <time>2019-10-16T20:23:40Z</time>
      </trkpt>
      <trkpt lat="-22.156554" lon="-45.173559">
        <ele>939.883</ele>
        <time>2019-10-16T20:23:41Z</time>
      </trkpt>
      <trkpt lat="-22.156540" lon="-45.173512">
        <ele>940.117</ele>
        <time>2019-10-16T20:23:42Z</time>
      </trkpt>
      <trkpt lat="-22.156524" lon="-45.173465">
        <ele>940.484</ele>
        <time>2019-10-16T20:23:43Z</time>
      </trkpt>
      <trkpt lat="-22.156508" lon="-45.173417">
        <ele>940.513</ele>
        <time>2019-10-16T20:23:44Z</time>
      </trkpt>
      <trkpt lat="-22.156492" lon="-45.173371">
        <ele>940.643</ele>
        <time>2019-10-16T20:23:45Z</time>
      </trkpt>
      <trkpt lat="-22.156478" lon="-45.173324">
        <ele>940.607</ele>
        <time>2019-10-16T20:23:46Z</time>
      </trkpt>
      <trkpt lat="-22.156465" lon="-45.173277">
        <ele>940.608</ele>
        <time>2019-10-16T20:23:47Z</time>
      </trkpt>
      <trkpt lat="-22.156450" lon="-45.173230">
        <ele>940.565</ele>
        <time>2019-10-16T20:23:48Z</time>
      </trkpt>
      <trkpt lat="-22.156435" lon="-45.173184">
        <ele>940.383</ele>
        <time>2019-10-16T20:23:49Z</time>
      </trkpt>
      <trkpt lat="-22.156419" lon="-45.173137">
        <ele>940.246</ele>
        <time>2019-10-16T20:23:50Z</time>
      </trkpt>
      <trkpt lat="-22.156404" lon="-45.173091">
        <ele>940.074</ele>
        <time>2019-10-16T20:23:51Z</time>
      </trkpt>
      <trkpt lat="-22.156386" lon="-45.173042">
        <ele>939.894</ele>
        <time>2019-10-16T20:23:52Z</time>
      </trkpt>
      <trkpt lat="-22.156368" lon="-45.172993">
        <ele>939.576</ele>
        <time>2019-10-16T20:23:53Z</time>
      </trkpt>
      <trkpt lat="-22.156351" lon="-45.172940">
        <ele>939.320</ele>
        <time>2019-10-16T20:23:54Z</time>
      </trkpt>
      <trkpt lat="-22.156334" lon="-45.172890">
        <ele>939.147</ele>
        <time>2019-10-16T20:23:55Z</time>
      </trkpt>
      <trkpt lat="-22.156313" lon="-45.172836">
        <ele>938.739</ele>
        <time>2019-10-16T20:23:56Z</time>
      </trkpt>
      <trkpt lat="-22.156293" lon="-45.172782">
        <ele>938.401</ele>
        <time>2019-10-16T20:23:57Z</time>
      </trkpt>
      <trkpt lat="-22.156273" lon="-45.172727">
        <ele>938.021</ele>
        <time>2019-10-16T20:23:58Z</time>
      </trkpt>
      <trkpt lat="-22.156254" lon="-45.172669">
        <ele>937.708</ele>
        <time>2019-10-16T20:23:59Z</time>
      </trkpt>
      <trkpt lat="-22.156238" lon="-45.172610">
        <ele>937.557</ele>
        <time>2019-10-16T20:24:00Z</time>
      </trkpt>
      <trkpt lat="-22.156220" lon="-45.172548">
        <ele>937.215</ele>
        <time>2019-10-16T20:24:01Z</time>
      </trkpt>
      <trkpt lat="-22.156200" lon="-45.172486">
        <ele>936.858</ele>
        <time>2019-10-16T20:24:02Z</time>
      </trkpt>
      <trkpt lat="-22.156178" lon="-45.172421">
        <ele>936.256</ele>
        <time>2019-10-16T20:24:03Z</time>
      </trkpt>
      <trkpt lat="-22.156155" lon="-45.172358">
        <ele>935.686</ele>
        <time>2019-10-16T20:24:04Z</time>
      </trkpt>
      <trkpt lat="-22.156129" lon="-45.172296">
        <ele>934.978</ele>
        <time>2019-10-16T20:24:05Z</time>
      </trkpt>
      <trkpt lat="-22.156097" lon="-45.172233">
        <ele>934.132</ele>
        <time>2019-10-16T20:24:06Z</time>
      </trkpt>
      <trkpt lat="-22.156064" lon="-45.172171">
        <ele>933.229</ele>
        <time>2019-10-16T20:24:07Z</time>
      </trkpt>
      <trkpt lat="-22.156032" lon="-45.172108">
        <ele>932.381</ele>
        <time>2019-10-16T20:24:08Z</time>
      </trkpt>
      <trkpt lat="-22.155999" lon="-45.172046">
        <ele>931.561</ele>
        <time>2019-10-16T20:24:09Z</time>
      </trkpt>
      <trkpt lat="-22.155965" lon="-45.171985">
        <ele>930.717</ele>
        <time>2019-10-16T20:24:10Z</time>
      </trkpt>
      <trkpt lat="-22.155928" lon="-45.171923">
        <ele>929.708</ele>
        <time>2019-10-16T20:24:11Z</time>
      </trkpt>
      <trkpt lat="-22.155889" lon="-45.171863">
        <ele>928.872</ele>
        <time>2019-10-16T20:24:12Z</time>
      </trkpt>
      <trkpt lat="-22.155852" lon="-45.171808">
        <ele>927.990</ele>
        <time>2019-10-16T20:24:13Z</time>
      </trkpt>
      <trkpt lat="-22.155809" lon="-45.171755">
        <ele>927.313</ele>
        <time>2019-10-16T20:24:14Z</time>
      </trkpt>
      <trkpt lat="-22.155762" lon="-45.171705">
        <ele>927.081</ele>
        <time>2019-10-16T20:24:15Z</time>
      </trkpt>
      <trkpt lat="-22.155717" lon="-45.171654">
        <ele>926.781</ele>
        <time>2019-10-16T20:24:16Z</time>
      </trkpt>
      <trkpt lat="-22.155670" lon="-45.171599">
        <ele>926.783</ele>
        <time>2019-10-16T20:24:17Z</time>
      </trkpt>
      <trkpt lat="-22.155625" lon="-45.171549">
        <ele>926.797</ele>
        <time>2019-10-16T20:24:18Z</time>
      </trkpt>
      <trkpt lat="-22.155578" lon="-45.171504">
        <ele>926.554</ele>
        <time>2019-10-16T20:24:19Z</time>
      </trkpt>
      <trkpt lat="-22.155531" lon="-45.171459">
        <ele>926.391</ele>
        <time>2019-10-16T20:24:20Z</time>
      </trkpt>
      <trkpt lat="-22.155482" lon="-45.171416">
        <ele>926.181</ele>
        <time>2019-10-16T20:24:21Z</time>
      </trkpt>
      <trkpt lat="-22.155432" lon="-45.171370">
        <ele>925.919</ele>
        <time>2019-10-16T20:24:22Z</time>
      </trkpt>
      <trkpt lat="-22.155383" lon="-45.171325">
        <ele>925.608</ele>
        <time>2019-10-16T20:24:23Z</time>
      </trkpt>
      <trkpt lat="-22.155331" lon="-45.171278">
        <ele>925.353</ele>
        <time>2019-10-16T20:24:24Z</time>
      </trkpt>
      <trkpt lat="-22.155281" lon="-45.171230">
        <ele>925.061</ele>
        <time>2019-10-16T20:24:25Z</time>
      </trkpt>
      <trkpt lat="-22.155229" lon="-45.171185">
        <ele>924.734</ele>
        <time>2019-10-16T20:24:26Z</time>
      </trkpt>
      <trkpt lat="-22.155178" lon="-45.171139">
        <ele>924.342</ele>
        <time>2019-10-16T20:24:27Z</time>
      </trkpt>
      <trkpt lat="-22.155127" lon="-45.171093">
        <ele>924.092</ele>
        <time>2019-10-16T20:24:28Z</time>
      </trkpt>
      <trkpt lat="-22.155077" lon="-45.171047">
        <ele>923.614</ele>
        <time>2019-10-16T20:24:29Z</time>
      </trkpt>
      <trkpt lat="-22.155026" lon="-45.171000">
        <ele>923.298</ele>
        <time>2019-10-16T20:24:30Z</time>
      </trkpt>
      <trkpt lat="-22.154976" lon="-45.170955">
        <ele>923.135</ele>
        <time>2019-10-16T20:24:31Z</time>
      </trkpt>
      <trkpt lat="-22.154924" lon="-45.170911">
        <ele>923.445</ele>
        <time>2019-10-16T20:24:32Z</time>
      </trkpt>
      <trkpt lat="-22.154875" lon="-45.170868">
        <ele>923.647</ele>
        <time>2019-10-16T20:24:33Z</time>
      </trkpt>
      <trkpt lat="-22.154828" lon="-45.170825">
        <ele>924.011</ele>
        <time>2019-10-16T20:24:34Z</time>
      </trkpt>
      <trkpt lat="-22.154782" lon="-45.170782">
        <ele>924.908</ele>
        <time>2019-10-16T20:24:35Z</time>
      </trkpt>
      <trkpt lat="-22.154738" lon="-45.170740">
        <ele>925.938</ele>
        <time>2019-10-16T20:24:36Z</time>
      </trkpt>
      <trkpt lat="-22.154691" lon="-45.170697">
        <ele>926.916</ele>
        <time>2019-10-16T20:24:37Z</time>
      </trkpt>
      <trkpt lat="-22.154646" lon="-45.170656">
        <ele>927.859</ele>
        <time>2019-10-16T20:24:38Z</time>
      </trkpt>
      <trkpt lat="-22.154602" lon="-45.170617">
        <ele>928.727</ele>
        <time>2019-10-16T20:24:39Z</time>
      </trkpt>
      <trkpt lat="-22.154559" lon="-45.170579">
        <ele>929.697</ele>
        <time>2019-10-16T20:24:40Z</time>
      </trkpt>
      <trkpt lat="-22.154515" lon="-45.170541">
        <ele>930.519</ele>
        <time>2019-10-16T20:24:41Z</time>
      </trkpt>
      <trkpt lat="-22.154474" lon="-45.170504">
        <ele>931.493</ele>
        <time>2019-10-16T20:24:42Z</time>
      </trkpt>
      <trkpt lat="-22.154430" lon="-45.170465">
        <ele>932.350</ele>
        <time>2019-10-16T20:24:43Z</time>
      </trkpt>
      <trkpt lat="-22.154385" lon="-45.170429">
        <ele>933.288</ele>
        <time>2019-10-16T20:24:44Z</time>
      </trkpt>
      <trkpt lat="-22.154339" lon="-45.170391">
        <ele>934.124</ele>
        <time>2019-10-16T20:24:45Z</time>
      </trkpt>
      <trkpt lat="-22.154297" lon="-45.170353">
        <ele>935.126</ele>
        <time>2019-10-16T20:24:46Z</time>
      </trkpt>
      <trkpt lat="-22.154257" lon="-45.170315">
        <ele>936.008</ele>
        <time>2019-10-16T20:24:47Z</time>
      </trkpt>
      <trkpt lat="-22.154217" lon="-45.170279">
        <ele>936.912</ele>
        <time>2019-10-16T20:24:48Z</time>
      </trkpt>
      <trkpt lat="-22.154178" lon="-45.170245">
        <ele>937.840</ele>
        <time>2019-10-16T20:24:49Z</time>
      </trkpt>
      <trkpt lat="-22.154138" lon="-45.170209">
        <ele>938.313</ele>
        <time>2019-10-16T20:24:50Z</time>
      </trkpt>
      <trkpt lat="-22.154100" lon="-45.170171">
        <ele>938.591</ele>
        <time>2019-10-16T20:24:51Z</time>
      </trkpt>
      <trkpt lat="-22.154062" lon="-45.170136">
        <ele>938.781</ele>
        <time>2019-10-16T20:24:52Z</time>
      </trkpt>
      <trkpt lat="-22.154024" lon="-45.170102">
        <ele>938.873</ele>
        <time>2019-10-16T20:24:53Z</time>
      </trkpt>
      <trkpt lat="-22.153985" lon="-45.170065">
        <ele>938.967</ele>
        <time>2019-10-16T20:24:54Z</time>
      </trkpt>
      <trkpt lat="-22.153946" lon="-45.170029">
        <ele>938.934</ele>
        <time>2019-10-16T20:24:55Z</time>
      </trkpt>
      <trkpt lat="-22.153903" lon="-45.169992">
        <ele>938.919</ele>
        <time>2019-10-16T20:24:56Z</time>
      </trkpt>
      <trkpt lat="-22.153862" lon="-45.169955">
        <ele>939.109</ele>
        <time>2019-10-16T20:24:57Z</time>
      </trkpt>
      <trkpt lat="-22.153821" lon="-45.169918">
        <ele>939.419</ele>
        <time>2019-10-16T20:24:58Z</time>
      </trkpt>
      <trkpt lat="-22.153780" lon="-45.169880">
        <ele>939.608</ele>
        <time>2019-10-16T20:24:59Z</time>
      </trkpt>
      <trkpt lat="-22.153738" lon="-45.169842">
        <ele>939.895</ele>
        <time>2019-10-16T20:25:00Z</time>
      </trkpt>
      <trkpt lat="-22.153697" lon="-45.169805">
        <ele>939.913</ele>
        <time>2019-10-16T20:25:01Z</time>
      </trkpt>
      <trkpt lat="-22.153655" lon="-45.169769">
        <ele>940.096</ele>
        <time>2019-10-16T20:25:02Z</time>
      </trkpt>
      <trkpt lat="-22.153612" lon="-45.169733">
        <ele>940.134</ele>
        <time>2019-10-16T20:25:03Z</time>
      </trkpt>
      <trkpt lat="-22.153567" lon="-45.169693">
        <ele>940.174</ele>
        <time>2019-10-16T20:25:04Z</time>
      </trkpt>
      <trkpt lat="-22.153523" lon="-45.169653">
        <ele>940.296</ele>
        <time>2019-10-16T20:25:05Z</time>
      </trkpt>
      <trkpt lat="-22.153479" lon="-45.169616">
        <ele>940.110</ele>
        <time>2019-10-16T20:25:06Z</time>
      </trkpt>
      <trkpt lat="-22.153433" lon="-45.169578">
        <ele>940.017</ele>
        <time>2019-10-16T20:25:07Z</time>
      </trkpt>
      <trkpt lat="-22.153387" lon="-45.169539">
        <ele>939.966</ele>
        <time>2019-10-16T20:25:08Z</time>
      </trkpt>
      <trkpt lat="-22.153341" lon="-45.169497">
        <ele>939.929</ele>
        <time>2019-10-16T20:25:09Z</time>
      </trkpt>
      <trkpt lat="-22.153295" lon="-45.169454">
        <ele>939.921</ele>
        <time>2019-10-16T20:25:10Z</time>
      </trkpt>
      <trkpt lat="-22.153246" lon="-45.169409">
        <ele>939.908</ele>
        <time>2019-10-16T20:25:11Z</time>
      </trkpt>
      <trkpt lat="-22.153197" lon="-45.169365">
        <ele>939.760</ele>
        <time>2019-10-16T20:25:12Z</time>
      </trkpt>
      <trkpt lat="-22.153143" lon="-45.169318">
        <ele>939.568</ele>
        <time>2019-10-16T20:25:13Z</time>
      </trkpt>
      <trkpt lat="-22.153090" lon="-45.169272">
        <ele>939.121</ele>
        <time>2019-10-16T20:25:14Z</time>
      </trkpt>
      <trkpt lat="-22.153038" lon="-45.169226">
        <ele>938.749</ele>
        <time>2019-10-16T20:25:15Z</time>
      </trkpt>
      <trkpt lat="-22.152982" lon="-45.169176">
        <ele>938.169</ele>
        <time>2019-10-16T20:25:16Z</time>
      </trkpt>
      <trkpt lat="-22.152928" lon="-45.169128">
        <ele>937.441</ele>
        <time>2019-10-16T20:25:17Z</time>
      </trkpt>
      <trkpt lat="-22.152871" lon="-45.169078">
        <ele>936.615</ele>
        <time>2019-10-16T20:25:18Z</time>
      </trkpt>
      <trkpt lat="-22.152814" lon="-45.169028">
        <ele>935.842</ele>
        <time>2019-10-16T20:25:19Z</time>
      </trkpt>
      <trkpt lat="-22.152754" lon="-45.168976">
        <ele>934.952</ele>
        <time>2019-10-16T20:25:20Z</time>
      </trkpt>
      <trkpt lat="-22.152695" lon="-45.168925">
        <ele>933.953</ele>
        <time>2019-10-16T20:25:21Z</time>
      </trkpt>
      <trkpt lat="-22.152637" lon="-45.168871">
        <ele>933.008</ele>
        <time>2019-10-16T20:25:22Z</time>
      </trkpt>
      <trkpt lat="-22.152577" lon="-45.168816">
        <ele>931.908</ele>
        <time>2019-10-16T20:25:23Z</time>
      </trkpt>
      <trkpt lat="-22.152518" lon="-45.168764">
        <ele>930.939</ele>
        <time>2019-10-16T20:25:24Z</time>
      </trkpt>
      <trkpt lat="-22.152452" lon="-45.168709">
        <ele>930.317</ele>
        <time>2019-10-16T20:25:25Z</time>
      </trkpt>
      <trkpt lat="-22.152389" lon="-45.168658">
        <ele>929.950</ele>
        <time>2019-10-16T20:25:26Z</time>
      </trkpt>
      <trkpt lat="-22.152325" lon="-45.168602">
        <ele>929.428</ele>
        <time>2019-10-16T20:25:27Z</time>
      </trkpt>
      <trkpt lat="-22.152260" lon="-45.168543">
        <ele>928.998</ele>
        <time>2019-10-16T20:25:28Z</time>
      </trkpt>
      <trkpt lat="-22.152193" lon="-45.168484">
        <ele>928.310</ele>
        <time>2019-10-16T20:25:29Z</time>
      </trkpt>
      <trkpt lat="-22.152127" lon="-45.168425">
        <ele>927.664</ele>
        <time>2019-10-16T20:25:30Z</time>
      </trkpt>
      <trkpt lat="-22.152060" lon="-45.168367">
        <ele>926.821</ele>
        <time>2019-10-16T20:25:31Z</time>
      </trkpt>
      <trkpt lat="-22.151989" lon="-45.168304">
        <ele>925.632</ele>
        <time>2019-10-16T20:25:32Z</time>
      </trkpt>
      <trkpt lat="-22.151922" lon="-45.168244">
        <ele>924.492</ele>
        <time>2019-10-16T20:25:33Z</time>
      </trkpt>
      <trkpt lat="-22.151854" lon="-45.168185">
        <ele>923.111</ele>
        <time>2019-10-16T20:25:34Z</time>
      </trkpt>
      <trkpt lat="-22.151785" lon="-45.168122">
        <ele>921.908</ele>
        <time>2019-10-16T20:25:35Z</time>
      </trkpt>
      <trkpt lat="-22.151720" lon="-45.168061">
        <ele>920.787</ele>
        <time>2019-10-16T20:25:36Z</time>
      </trkpt>
      <trkpt lat="-22.151652" lon="-45.168002">
        <ele>919.745</ele>
        <time>2019-10-16T20:25:37Z</time>
      </trkpt>
      <trkpt lat="-22.151585" lon="-45.167947">
        <ele>919.648</ele>
        <time>2019-10-16T20:25:38Z</time>
      </trkpt>
      <trkpt lat="-22.151514" lon="-45.167889">
        <ele>919.466</ele>
        <time>2019-10-16T20:25:39Z</time>
      </trkpt>
      <trkpt lat="-22.151446" lon="-45.167830">
        <ele>919.336</ele>
        <time>2019-10-16T20:25:40Z</time>
      </trkpt>
      <trkpt lat="-22.151380" lon="-45.167772">
        <ele>919.228</ele>
        <time>2019-10-16T20:25:41Z</time>
      </trkpt>
      <trkpt lat="-22.151320" lon="-45.167713">
        <ele>919.142</ele>
        <time>2019-10-16T20:25:42Z</time>
      </trkpt>
      <trkpt lat="-22.151261" lon="-45.167654">
        <ele>919.189</ele>
        <time>2019-10-16T20:25:43Z</time>
      </trkpt>
      <trkpt lat="-22.151201" lon="-45.167598">
        <ele>919.017</ele>
        <time>2019-10-16T20:25:44Z</time>
      </trkpt>
      <trkpt lat="-22.151143" lon="-45.167544">
        <ele>919.087</ele>
        <time>2019-10-16T20:25:45Z</time>
      </trkpt>
      <trkpt lat="-22.151086" lon="-45.167495">
        <ele>919.015</ele>
        <time>2019-10-16T20:25:46Z</time>
      </trkpt>
      <trkpt lat="-22.151028" lon="-45.167446">
        <ele>919.808</ele>
        <time>2019-10-16T20:25:47Z</time>
      </trkpt>
      <trkpt lat="-22.150973" lon="-45.167401">
        <ele>920.465</ele>
        <time>2019-10-16T20:25:48Z</time>
      </trkpt>
      <trkpt lat="-22.150919" lon="-45.167358">
        <ele>921.113</ele>
        <time>2019-10-16T20:25:49Z</time>
      </trkpt>
      <trkpt lat="-22.150869" lon="-45.167314">
        <ele>921.776</ele>
        <time>2019-10-16T20:25:50Z</time>
      </trkpt>
      <trkpt lat="-22.150823" lon="-45.167270">
        <ele>922.474</ele>
        <time>2019-10-16T20:25:51Z</time>
      </trkpt>
      <trkpt lat="-22.150775" lon="-45.167227">
        <ele>923.124</ele>
        <time>2019-10-16T20:25:52Z</time>
      </trkpt>
      <trkpt lat="-22.150728" lon="-45.167186">
        <ele>923.766</ele>
        <time>2019-10-16T20:25:53Z</time>
      </trkpt>
      <trkpt lat="-22.150683" lon="-45.167145">
        <ele>924.320</ele>
        <time>2019-10-16T20:25:54Z</time>
      </trkpt>
      <trkpt lat="-22.150640" lon="-45.167107">
        <ele>924.937</ele>
        <time>2019-10-16T20:25:55Z</time>
      </trkpt>
      <trkpt lat="-22.150597" lon="-45.167068">
        <ele>925.457</ele>
        <time>2019-10-16T20:25:56Z</time>
      </trkpt>
      <trkpt lat="-22.150555" lon="-45.167033">
        <ele>925.900</ele>
        <time>2019-10-16T20:25:57Z</time>
      </trkpt>
      <trkpt lat="-22.150514" lon="-45.167000">
        <ele>926.420</ele>
        <time>2019-10-16T20:25:58Z</time>
      </trkpt>
      <trkpt lat="-22.150469" lon="-45.166967">
        <ele>926.808</ele>
        <time>2019-10-16T20:25:59Z</time>
      </trkpt>
      <trkpt lat="-22.150426" lon="-45.166938">
        <ele>927.289</ele>
        <time>2019-10-16T20:26:00Z</time>
      </trkpt>
      <trkpt lat="-22.150382" lon="-45.166909">
        <ele>927.517</ele>
        <time>2019-10-16T20:26:01Z</time>
      </trkpt>
      <trkpt lat="-22.150339" lon="-45.166880">
        <ele>927.810</ele>
        <time>2019-10-16T20:26:02Z</time>
      </trkpt>
      <trkpt lat="-22.150295" lon="-45.166853">
        <ele>928.148</ele>
        <time>2019-10-16T20:26:03Z</time>
      </trkpt>
      <trkpt lat="-22.150252" lon="-45.166825">
        <ele>928.488</ele>
        <time>2019-10-16T20:26:04Z</time>
      </trkpt>
      <trkpt lat="-22.150209" lon="-45.166798">
        <ele>928.790</ele>
        <time>2019-10-16T20:26:05Z</time>
      </trkpt>
      <trkpt lat="-22.150163" lon="-45.166772">
        <ele>929.024</ele>
        <time>2019-10-16T20:26:06Z</time>
      </trkpt>
      <trkpt lat="-22.150117" lon="-45.166749">
        <ele>929.211</ele>
        <time>2019-10-16T20:26:07Z</time>
      </trkpt>
      <trkpt lat="-22.150070" lon="-45.166725">
        <ele>929.347</ele>
        <time>2019-10-16T20:26:08Z</time>
      </trkpt>
      <trkpt lat="-22.150022" lon="-45.166701">
        <ele>929.529</ele>
        <time>2019-10-16T20:26:09Z</time>
      </trkpt>
      <trkpt lat="-22.149976" lon="-45.166678">
        <ele>929.621</ele>
        <time>2019-10-16T20:26:10Z</time>
      </trkpt>
      <trkpt lat="-22.149926" lon="-45.166656">
        <ele>929.708</ele>
        <time>2019-10-16T20:26:11Z</time>
      </trkpt>
      <trkpt lat="-22.149873" lon="-45.166637">
        <ele>929.818</ele>
        <time>2019-10-16T20:26:12Z</time>
      </trkpt>
      <trkpt lat="-22.149823" lon="-45.166618">
        <ele>929.946</ele>
        <time>2019-10-16T20:26:13Z</time>
      </trkpt>
      <trkpt lat="-22.149769" lon="-45.166599">
        <ele>930.079</ele>
        <time>2019-10-16T20:26:14Z</time>
      </trkpt>
      <trkpt lat="-22.149718" lon="-45.166582">
        <ele>930.087</ele>
        <time>2019-10-16T20:26:15Z</time>
      </trkpt>
      <trkpt lat="-22.149660" lon="-45.166564">
        <ele>930.017</ele>
        <time>2019-10-16T20:26:16Z</time>
      </trkpt>
      <trkpt lat="-22.149605" lon="-45.166548">
        <ele>930.059</ele>
        <time>2019-10-16T20:26:17Z</time>
      </trkpt>
      <trkpt lat="-22.149551" lon="-45.166534">
        <ele>929.943</ele>
        <time>2019-10-16T20:26:18Z</time>
      </trkpt>
      <trkpt lat="-22.149498" lon="-45.166518">
        <ele>929.950</ele>
        <time>2019-10-16T20:26:19Z</time>
      </trkpt>
      <trkpt lat="-22.149445" lon="-45.166504">
        <ele>929.834</ele>
        <time>2019-10-16T20:26:20Z</time>
      </trkpt>
      <trkpt lat="-22.149393" lon="-45.166492">
        <ele>929.755</ele>
        <time>2019-10-16T20:26:21Z</time>
      </trkpt>
      <trkpt lat="-22.149339" lon="-45.166480">
        <ele>929.610</ele>
        <time>2019-10-16T20:26:22Z</time>
      </trkpt>
      <trkpt lat="-22.149286" lon="-45.166470">
        <ele>929.408</ele>
        <time>2019-10-16T20:26:23Z</time>
      </trkpt>
      <trkpt lat="-22.149234" lon="-45.166461">
        <ele>929.237</ele>
        <time>2019-10-16T20:26:24Z</time>
      </trkpt>
      <trkpt lat="-22.149183" lon="-45.166451">
        <ele>929.035</ele>
        <time>2019-10-16T20:26:25Z</time>
      </trkpt>
      <trkpt lat="-22.149131" lon="-45.166440">
        <ele>928.848</ele>
        <time>2019-10-16T20:26:26Z</time>
      </trkpt>
      <trkpt lat="-22.149079" lon="-45.166430">
        <ele>928.636</ele>
        <time>2019-10-16T20:26:27Z</time>
      </trkpt>
      <trkpt lat="-22.149026" lon="-45.166419">
        <ele>928.446</ele>
        <time>2019-10-16T20:26:28Z</time>
      </trkpt>
      <trkpt lat="-22.148970" lon="-45.166405">
        <ele>928.158</ele>
        <time>2019-10-16T20:26:29Z</time>
      </trkpt>
      <trkpt lat="-22.148912" lon="-45.166389">
        <ele>927.962</ele>
        <time>2019-10-16T20:26:30Z</time>
      </trkpt>
      <trkpt lat="-22.148857" lon="-45.166373">
        <ele>927.759</ele>
        <time>2019-10-16T20:26:31Z</time>
      </trkpt>
      <trkpt lat="-22.148802" lon="-45.166357">
        <ele>927.478</ele>
        <time>2019-10-16T20:26:32Z</time>
      </trkpt>
      <trkpt lat="-22.148745" lon="-45.166341">
        <ele>927.133</ele>
        <time>2019-10-16T20:26:33Z</time>
      </trkpt>
      <trkpt lat="-22.148690" lon="-45.166325">
        <ele>926.826</ele>
        <time>2019-10-16T20:26:34Z</time>
      </trkpt>
      <trkpt lat="-22.148631" lon="-45.166308">
        <ele>926.508</ele>
        <time>2019-10-16T20:26:35Z</time>
      </trkpt>
      <trkpt lat="-22.148573" lon="-45.166292">
        <ele>926.171</ele>
        <time>2019-10-16T20:26:36Z</time>
      </trkpt>
      <trkpt lat="-22.148514" lon="-45.166279">
        <ele>925.669</ele>
        <time>2019-10-16T20:26:37Z</time>
      </trkpt>
      <trkpt lat="-22.148455" lon="-45.166263">
        <ele>925.282</ele>
        <time>2019-10-16T20:26:38Z</time>
      </trkpt>
      <trkpt lat="-22.148394" lon="-45.166247">
        <ele>924.720</ele>
        <time>2019-10-16T20:26:39Z</time>
      </trkpt>
      <trkpt lat="-22.148332" lon="-45.166236">
        <ele>924.220</ele>
        <time>2019-10-16T20:26:40Z</time>
      </trkpt>
      <trkpt lat="-22.148267" lon="-45.166224">
        <ele>923.742</ele>
        <time>2019-10-16T20:26:41Z</time>
      </trkpt>
      <trkpt lat="-22.148207" lon="-45.166208">
        <ele>923.336</ele>
        <time>2019-10-16T20:26:42Z</time>
      </trkpt>
      <trkpt lat="-22.148147" lon="-45.166191">
        <ele>922.923</ele>
        <time>2019-10-16T20:26:43Z</time>
      </trkpt>
      <trkpt lat="-22.148088" lon="-45.166174">
        <ele>922.442</ele>
        <time>2019-10-16T20:26:44Z</time>
      </trkpt>
      <trkpt lat="-22.148025" lon="-45.166155">
        <ele>922.022</ele>
        <time>2019-10-16T20:26:45Z</time>
      </trkpt>
      <trkpt lat="-22.147965" lon="-45.166137">
        <ele>921.614</ele>
        <time>2019-10-16T20:26:46Z</time>
      </trkpt>
      <trkpt lat="-22.147907" lon="-45.166118">
        <ele>921.208</ele>
        <time>2019-10-16T20:26:47Z</time>
      </trkpt>
      <trkpt lat="-22.147848" lon="-45.166105">
        <ele>920.768</ele>
        <time>2019-10-16T20:26:48Z</time>
      </trkpt>
      <trkpt lat="-22.147789" lon="-45.166091">
        <ele>920.276</ele>
        <time>2019-10-16T20:26:49Z</time>
      </trkpt>
      <trkpt lat="-22.147731" lon="-45.166077">
        <ele>919.729</ele>
        <time>2019-10-16T20:26:50Z</time>
      </trkpt>
      <trkpt lat="-22.147673" lon="-45.166061">
        <ele>919.297</ele>
        <time>2019-10-16T20:26:51Z</time>
      </trkpt>
      <trkpt lat="-22.147617" lon="-45.166044">
        <ele>918.717</ele>
        <time>2019-10-16T20:26:52Z</time>
      </trkpt>
      <trkpt lat="-22.147562" lon="-45.166029">
        <ele>918.339</ele>
        <time>2019-10-16T20:26:53Z</time>
      </trkpt>
      <trkpt lat="-22.147505" lon="-45.166013">
        <ele>917.823</ele>
        <time>2019-10-16T20:26:54Z</time>
      </trkpt>
      <trkpt lat="-22.147450" lon="-45.165999">
        <ele>917.720</ele>
        <time>2019-10-16T20:26:55Z</time>
      </trkpt>
      <trkpt lat="-22.147392" lon="-45.165986">
        <ele>917.872</ele>
        <time>2019-10-16T20:26:56Z</time>
      </trkpt>
      <trkpt lat="-22.147334" lon="-45.165972">
        <ele>917.813</ele>
        <time>2019-10-16T20:26:57Z</time>
      </trkpt>
      <trkpt lat="-22.147277" lon="-45.165956">
        <ele>917.814</ele>
        <time>2019-10-16T20:26:58Z</time>
      </trkpt>
      <trkpt lat="-22.147217" lon="-45.165939">
        <ele>917.908</ele>
        <time>2019-10-16T20:26:59Z</time>
      </trkpt>
      <trkpt lat="-22.147161" lon="-45.165922">
        <ele>918.051</ele>
        <time>2019-10-16T20:27:00Z</time>
      </trkpt>
      <trkpt lat="-22.147104" lon="-45.165904">
        <ele>918.059</ele>
        <time>2019-10-16T20:27:01Z</time>
      </trkpt>
      <trkpt lat="-22.147049" lon="-45.165885">
        <ele>918.192</ele>
        <time>2019-10-16T20:27:02Z</time>
      </trkpt>
      <trkpt lat="-22.146997" lon="-45.165864">
        <ele>918.290</ele>
        <time>2019-10-16T20:27:03Z</time>
      </trkpt>
      <trkpt lat="-22.146943" lon="-45.165843">
        <ele>918.310</ele>
        <time>2019-10-16T20:27:04Z</time>
      </trkpt>
      <trkpt lat="-22.146888" lon="-45.165821">
        <ele>918.562</ele>
        <time>2019-10-16T20:27:05Z</time>
      </trkpt>
      <trkpt lat="-22.146835" lon="-45.165794">
        <ele>918.856</ele>
        <time>2019-10-16T20:27:06Z</time>
      </trkpt>
      <trkpt lat="-22.146782" lon="-45.165763">
        <ele>919.383</ele>
        <time>2019-10-16T20:27:07Z</time>
      </trkpt>
      <trkpt lat="-22.146730" lon="-45.165732">
        <ele>919.995</ele>
        <time>2019-10-16T20:27:08Z</time>
      </trkpt>
      <trkpt lat="-22.146677" lon="-45.165700">
        <ele>920.549</ele>
        <time>2019-10-16T20:27:09Z</time>
      </trkpt>
      <trkpt lat="-22.146622" lon="-45.165670">
        <ele>921.123</ele>
        <time>2019-10-16T20:27:10Z</time>
      </trkpt>
      <trkpt lat="-22.146571" lon="-45.165642">
        <ele>921.508</ele>
        <time>2019-10-16T20:27:11Z</time>
      </trkpt>
      <trkpt lat="-22.146522" lon="-45.165613">
        <ele>921.913</ele>
        <time>2019-10-16T20:27:12Z</time>
      </trkpt>
      <trkpt lat="-22.146476" lon="-45.165583">
        <ele>922.381</ele>
        <time>2019-10-16T20:27:13Z</time>
      </trkpt>
      <trkpt lat="-22.146433" lon="-45.165551">
        <ele>922.854</ele>
        <time>2019-10-16T20:27:14Z</time>
      </trkpt>
      <trkpt lat="-22.146391" lon="-45.165516">
        <ele>923.212</ele>
        <time>2019-10-16T20:27:15Z</time>
      </trkpt>
      <trkpt lat="-22.146353" lon="-45.165477">
        <ele>923.662</ele>
        <time>2019-10-16T20:27:16Z</time>
      </trkpt>
      <trkpt lat="-22.146315" lon="-45.165437">
        <ele>924.074</ele>
        <time>2019-10-16T20:27:17Z</time>
      </trkpt>
      <trkpt lat="-22.146276" lon="-45.165396">
        <ele>924.448</ele>
        <time>2019-10-16T20:27:18Z</time>
      </trkpt>
      <trkpt lat="-22.146238" lon="-45.165356">
        <ele>924.715</ele>
        <time>2019-10-16T20:27:19Z</time>
      </trkpt>
      <trkpt lat="-22.146202" lon="-45.165316">
        <ele>925.092</ele>
        <time>2019-10-16T20:27:20Z</time>
      </trkpt>
      <trkpt lat="-22.146167" lon="-45.165273">
        <ele>925.373</ele>
        <time>2019-10-16T20:27:21Z</time>
      </trkpt>
      <trkpt lat="-22.146137" lon="-45.165229">
        <ele>925.620</ele>
        <time>2019-10-16T20:27:22Z</time>
      </trkpt>
      <trkpt lat="-22.146107" lon="-45.165181">
        <ele>925.908</ele>
        <time>2019-10-16T20:27:23Z</time>
      </trkpt>
      <trkpt lat="-22.146078" lon="-45.165135">
        <ele>926.293</ele>
        <time>2019-10-16T20:27:24Z</time>
      </trkpt>
      <trkpt lat="-22.146049" lon="-45.165084">
        <ele>926.591</ele>
        <time>2019-10-16T20:27:25Z</time>
      </trkpt>
      <trkpt lat="-22.146022" lon="-45.165032">
        <ele>926.794</ele>
        <time>2019-10-16T20:27:26Z</time>
      </trkpt>
      <trkpt lat="-22.145996" lon="-45.164978">
        <ele>926.982</ele>
        <time>2019-10-16T20:27:27Z</time>
      </trkpt>
      <trkpt lat="-22.145971" lon="-45.164924">
        <ele>927.122</ele>
        <time>2019-10-16T20:27:28Z</time>
      </trkpt>
      <trkpt lat="-22.145944" lon="-45.164866">
        <ele>927.284</ele>
        <time>2019-10-16T20:27:29Z</time>
      </trkpt>
      <trkpt lat="-22.145919" lon="-45.164808">
        <ele>927.378</ele>
        <time>2019-10-16T20:27:30Z</time>
      </trkpt>
      <trkpt lat="-22.145896" lon="-45.164751">
        <ele>927.435</ele>
        <time>2019-10-16T20:27:31Z</time>
      </trkpt>
      <trkpt lat="-22.145871" lon="-45.164691">
        <ele>927.484</ele>
        <time>2019-10-16T20:27:32Z</time>
      </trkpt>
      <trkpt lat="-22.145848" lon="-45.164630">
        <ele>927.507</ele>
        <time>2019-10-16T20:27:33Z</time>
      </trkpt>
      <trkpt lat="-22.145827" lon="-45.164567">
        <ele>927.617</ele>
        <time>2019-10-16T20:27:34Z</time>
      </trkpt>
      <trkpt lat="-22.145807" lon="-45.164501">
        <ele>927.908</ele>
        <time>2019-10-16T20:27:35Z</time>
      </trkpt>
      <trkpt lat="-22.145788" lon="-45.164434">
        <ele>928.242</ele>
        <time>2019-10-16T20:27:36Z</time>
      </trkpt>
      <trkpt lat="-22.145772" lon="-45.164368">
        <ele>928.430</ele>
        <time>2019-10-16T20:27:37Z</time>
      </trkpt>
      <trkpt lat="-22.145755" lon="-45.164299">
        <ele>928.563</ele>
        <time>2019-10-16T20:27:38Z</time>
      </trkpt>
      <trkpt lat="-22.145740" lon="-45.164233">
        <ele>928.671</ele>
        <time>2019-10-16T20:27:39Z</time>
      </trkpt>
      <trkpt lat="-22.145724" lon="-45.164163">
        <ele>928.771</ele>
        <time>2019-10-16T20:27:40Z</time>
      </trkpt>
      <trkpt lat="-22.145708" lon="-45.164097">
        <ele>928.973</ele>
        <time>2019-10-16T20:27:41Z</time>
      </trkpt>
      <trkpt lat="-22.145692" lon="-45.164032">
        <ele>929.067</ele>
        <time>2019-10-16T20:27:42Z</time>
      </trkpt>
      <trkpt lat="-22.145676" lon="-45.163967">
        <ele>929.194</ele>
        <time>2019-10-16T20:27:43Z</time>
      </trkpt>
      <trkpt lat="-22.145658" lon="-45.163900">
        <ele>929.197</ele>
        <time>2019-10-16T20:27:44Z</time>
      </trkpt>
      <trkpt lat="-22.145641" lon="-45.163833">
        <ele>929.223</ele>
        <time>2019-10-16T20:27:45Z</time>
      </trkpt>
      <trkpt lat="-22.145624" lon="-45.163763">
        <ele>929.225</ele>
        <time>2019-10-16T20:27:46Z</time>
      </trkpt>
      <trkpt lat="-22.145607" lon="-45.163696">
        <ele>929.108</ele>
        <time>2019-10-16T20:27:47Z</time>
      </trkpt>
      <trkpt lat="-22.145589" lon="-45.163629">
        <ele>929.013</ele>
        <time>2019-10-16T20:27:48Z</time>
      </trkpt>
      <trkpt lat="-22.145571" lon="-45.163560">
        <ele>928.961</ele>
        <time>2019-10-16T20:27:49Z</time>
      </trkpt>
      <trkpt lat="-22.145553" lon="-45.163496">
        <ele>928.844</ele>
        <time>2019-10-16T20:27:50Z</time>
      </trkpt>
      <trkpt lat="-22.145533" lon="-45.163428">
        <ele>928.562</ele>
        <time>2019-10-16T20:27:51Z</time>
      </trkpt>
      <trkpt lat="-22.145512" lon="-45.163364">
        <ele>928.212</ele>
        <time>2019-10-16T20:27:52Z</time>
      </trkpt>
      <trkpt lat="-22.145491" lon="-45.163297">
        <ele>928.164</ele>
        <time>2019-10-16T20:27:53Z</time>
      </trkpt>
      <trkpt lat="-22.145469" lon="-45.163231">
        <ele>928.188</ele>
        <time>2019-10-16T20:27:54Z</time>
      </trkpt>
      <trkpt lat="-22.145443" lon="-45.163164">
        <ele>927.945</ele>
        <time>2019-10-16T20:27:55Z</time>
      </trkpt>
      <trkpt lat="-22.145412" lon="-45.163098">
        <ele>927.669</ele>
        <time>2019-10-16T20:27:56Z</time>
      </trkpt>
      <trkpt lat="-22.145380" lon="-45.163033">
        <ele>927.104</ele>
        <time>2019-10-16T20:27:57Z</time>
      </trkpt>
      <trkpt lat="-22.145348" lon="-45.162969">
        <ele>926.624</ele>
        <time>2019-10-16T20:27:58Z</time>
      </trkpt>
      <trkpt lat="-22.145313" lon="-45.162904">
        <ele>926.008</ele>
        <time>2019-10-16T20:27:59Z</time>
      </trkpt>
      <trkpt lat="-22.145276" lon="-45.162841">
        <ele>925.290</ele>
        <time>2019-10-16T20:28:00Z</time>
      </trkpt>
      <trkpt lat="-22.145235" lon="-45.162777">
        <ele>924.218</ele>
        <time>2019-10-16T20:28:01Z</time>
      </trkpt>
      <trkpt lat="-22.145194" lon="-45.162716">
        <ele>923.161</ele>
        <time>2019-10-16T20:28:02Z</time>
      </trkpt>
      <trkpt lat="-22.145154" lon="-45.162653">
        <ele>922.029</ele>
        <time>2019-10-16T20:28:03Z</time>
      </trkpt>
      <trkpt lat="-22.145114" lon="-45.162593">
        <ele>920.879</ele>
        <time>2019-10-16T20:28:04Z</time>
      </trkpt>
      <trkpt lat="-22.145072" lon="-45.162535">
        <ele>919.531</ele>
        <time>2019-10-16T20:28:05Z</time>
      </trkpt>
      <trkpt lat="-22.145028" lon="-45.162472">
        <ele>918.325</ele>
        <time>2019-10-16T20:28:06Z</time>
      </trkpt>
      <trkpt lat="-22.144983" lon="-45.162409">
        <ele>917.912</ele>
        <time>2019-10-16T20:28:07Z</time>
      </trkpt>
      <trkpt lat="-22.144936" lon="-45.162344">
        <ele>918.236</ele>
        <time>2019-10-16T20:28:08Z</time>
      </trkpt>
      <trkpt lat="-22.144889" lon="-45.162279">
        <ele>918.517</ele>
        <time>2019-10-16T20:28:09Z</time>
      </trkpt>
      <trkpt lat="-22.144844" lon="-45.162216">
        <ele>918.718</ele>
        <time>2019-10-16T20:28:10Z</time>
      </trkpt>
      <trkpt lat="-22.144800" lon="-45.162151">
        <ele>918.808</ele>
        <time>2019-10-16T20:28:11Z</time>
      </trkpt>
      <trkpt lat="-22.144759" lon="-45.162089">
        <ele>918.977</ele>
        <time>2019-10-16T20:28:12Z</time>
      </trkpt>
      <trkpt lat="-22.144719" lon="-45.162027">
        <ele>919.065</ele>
        <time>2019-10-16T20:28:13Z</time>
      </trkpt>
      <trkpt lat="-22.144679" lon="-45.161966">
        <ele>919.068</ele>
        <time>2019-10-16T20:28:14Z</time>
      </trkpt>
      <trkpt lat="-22.144642" lon="-45.161905">
        <ele>919.086</ele>
        <time>2019-10-16T20:28:15Z</time>
      </trkpt>
      <trkpt lat="-22.144606" lon="-45.161845">
        <ele>918.926</ele>
        <time>2019-10-16T20:28:16Z</time>
      </trkpt>
      <trkpt lat="-22.144571" lon="-45.161788">
        <ele>918.968</ele>
        <time>2019-10-16T20:28:17Z</time>
      </trkpt>
      <trkpt lat="-22.144536" lon="-45.161731">
        <ele>918.792</ele>
        <time>2019-10-16T20:28:18Z</time>
      </trkpt>
      <trkpt lat="-22.144502" lon="-45.161677">
        <ele>918.649</ele>
        <time>2019-10-16T20:28:19Z</time>
      </trkpt>
      <trkpt lat="-22.144468" lon="-45.161627">
        <ele>918.796</ele>
        <time>2019-10-16T20:28:20Z</time>
      </trkpt>
      <trkpt lat="-22.144434" lon="-45.161579">
        <ele>919.031</ele>
        <time>2019-10-16T20:28:21Z</time>
      </trkpt>
      <trkpt lat="-22.144398" lon="-45.161532">
        <ele>919.124</ele>
        <time>2019-10-16T20:28:22Z</time>
      </trkpt>
      <trkpt lat="-22.144364" lon="-45.161485">
        <ele>919.208</ele>
        <time>2019-10-16T20:28:23Z</time>
      </trkpt>
      <trkpt lat="-22.144331" lon="-45.161437">
        <ele>919.463</ele>
        <time>2019-10-16T20:28:24Z</time>
      </trkpt>
      <trkpt lat="-22.144298" lon="-45.161390">
        <ele>919.531</ele>
        <time>2019-10-16T20:28:25Z</time>
      </trkpt>
      <trkpt lat="-22.144264" lon="-45.161341">
        <ele>919.654</ele>
        <time>2019-10-16T20:28:26Z</time>
      </trkpt>
      <trkpt lat="-22.144229" lon="-45.161290">
        <ele>919.752</ele>
        <time>2019-10-16T20:28:27Z</time>
      </trkpt>
      <trkpt lat="-22.144195" lon="-45.161243">
        <ele>919.712</ele>
        <time>2019-10-16T20:28:28Z</time>
      </trkpt>
      <trkpt lat="-22.144161" lon="-45.161191">
        <ele>919.884</ele>
        <time>2019-10-16T20:28:29Z</time>
      </trkpt>
      <trkpt lat="-22.144130" lon="-45.161141">
        <ele>920.248</ele>
        <time>2019-10-16T20:28:30Z</time>
      </trkpt>
      <trkpt lat="-22.144096" lon="-45.161092">
        <ele>920.455</ele>
        <time>2019-10-16T20:28:31Z</time>
      </trkpt>
      <trkpt lat="-22.144061" lon="-45.161044">
        <ele>920.638</ele>
        <time>2019-10-16T20:28:32Z</time>
      </trkpt>
      <trkpt lat="-22.144026" lon="-45.160998">
        <ele>920.870</ele>
        <time>2019-10-16T20:28:33Z</time>
      </trkpt>
      <trkpt lat="-22.143992" lon="-45.160953">
        <ele>920.917</ele>
        <time>2019-10-16T20:28:34Z</time>
      </trkpt>
      <trkpt lat="-22.143955" lon="-45.160908">
        <ele>920.908</ele>
        <time>2019-10-16T20:28:35Z</time>
      </trkpt>
      <trkpt lat="-22.143920" lon="-45.160866">
        <ele>920.877</ele>
        <time>2019-10-16T20:28:36Z</time>
      </trkpt>
      <trkpt lat="-22.143886" lon="-45.160826">
        <ele>920.745</ele>
        <time>2019-10-16T20:28:37Z</time>
      </trkpt>
      <trkpt lat="-22.143851" lon="-45.160784">
        <ele>920.728</ele>
        <time>2019-10-16T20:28:38Z</time>
      </trkpt>
      <trkpt lat="-22.143813" lon="-45.160741">
        <ele>920.596</ele>
        <time>2019-10-16T20:28:39Z</time>
      </trkpt>
      <trkpt lat="-22.143774" lon="-45.160696">
        <ele>920.486</ele>
        <time>2019-10-16T20:28:40Z</time>
      </trkpt>
      <trkpt lat="-22.143739" lon="-45.160649">
        <ele>920.368</ele>
        <time>2019-10-16T20:28:41Z</time>
      </trkpt>
      <trkpt lat="-22.143706" lon="-45.160600">
        <ele>920.212</ele>
        <time>2019-10-16T20:28:42Z</time>
      </trkpt>
      <trkpt lat="-22.143671" lon="-45.160551">
        <ele>920.129</ele>
        <time>2019-10-16T20:28:43Z</time>
      </trkpt>
      <trkpt lat="-22.143635" lon="-45.160500">
        <ele>920.016</ele>
        <time>2019-10-16T20:28:44Z</time>
      </trkpt>
      <trkpt lat="-22.143599" lon="-45.160450">
        <ele>919.876</ele>
        <time>2019-10-16T20:28:45Z</time>
      </trkpt>
      <trkpt lat="-22.143563" lon="-45.160405">
        <ele>919.513</ele>
        <time>2019-10-16T20:28:46Z</time>
      </trkpt>
      <trkpt lat="-22.143526" lon="-45.160361">
        <ele>919.208</ele>
        <time>2019-10-16T20:28:47Z</time>
      </trkpt>
      <trkpt lat="-22.143490" lon="-45.160317">
        <ele>918.955</ele>
        <time>2019-10-16T20:28:48Z</time>
      </trkpt>
      <trkpt lat="-22.143457" lon="-45.160274">
        <ele>918.633</ele>
        <time>2019-10-16T20:28:49Z</time>
      </trkpt>
      <trkpt lat="-22.143423" lon="-45.160228">
        <ele>918.216</ele>
        <time>2019-10-16T20:28:50Z</time>
      </trkpt>
      <trkpt lat="-22.143392" lon="-45.160185">
        <ele>917.924</ele>
        <time>2019-10-16T20:28:51Z</time>
      </trkpt>
      <trkpt lat="-22.143362" lon="-45.160142">
        <ele>917.664</ele>
        <time>2019-10-16T20:28:52Z</time>
      </trkpt>
      <trkpt lat="-22.143331" lon="-45.160099">
        <ele>917.316</ele>
        <time>2019-10-16T20:28:53Z</time>
      </trkpt>
      <trkpt lat="-22.143302" lon="-45.160058">
        <ele>917.320</ele>
        <time>2019-10-16T20:28:54Z</time>
      </trkpt>
      <trkpt lat="-22.143272" lon="-45.160015">
        <ele>917.417</ele>
        <time>2019-10-16T20:28:55Z</time>
      </trkpt>
      <trkpt lat="-22.143241" lon="-45.159972">
        <ele>917.341</ele>
        <time>2019-10-16T20:28:56Z</time>
      </trkpt>
      <trkpt lat="-22.143209" lon="-45.159927">
        <ele>917.181</ele>
        <time>2019-10-16T20:28:57Z</time>
      </trkpt>
      <trkpt lat="-22.143178" lon="-45.159881">
        <ele>916.909</ele>
        <time>2019-10-16T20:28:58Z</time>
      </trkpt>
      <trkpt lat="-22.143147" lon="-45.159837">
        <ele>916.708</ele>
        <time>2019-10-16T20:28:59Z</time>
      </trkpt>
      <trkpt lat="-22.143116" lon="-45.159793">
        <ele>916.548</ele>
        <time>2019-10-16T20:29:00Z</time>
      </trkpt>
      <trkpt lat="-22.143087" lon="-45.159750">
        <ele>916.446</ele>
        <time>2019-10-16T20:29:01Z</time>
      </trkpt>
      <trkpt lat="-22.143056" lon="-45.159704">
        <ele>916.159</ele>
        <time>2019-10-16T20:29:02Z</time>
      </trkpt>
      <trkpt lat="-22.143026" lon="-45.159659">
        <ele>915.937</ele>
        <time>2019-10-16T20:29:03Z</time>
      </trkpt>
      <trkpt lat="-22.142998" lon="-45.159614">
        <ele>915.787</ele>
        <time>2019-10-16T20:29:04Z</time>
      </trkpt>
      <trkpt lat="-22.142971" lon="-45.159571">
        <ele>915.599</ele>
        <time>2019-10-16T20:29:05Z</time>
      </trkpt>
      <trkpt lat="-22.142943" lon="-45.159528">
        <ele>915.343</ele>
        <time>2019-10-16T20:29:06Z</time>
      </trkpt>
      <trkpt lat="-22.142916" lon="-45.159489">
        <ele>915.150</ele>
        <time>2019-10-16T20:29:07Z</time>
      </trkpt>
      <trkpt lat="-22.142886" lon="-45.159449">
        <ele>914.994</ele>
        <time>2019-10-16T20:29:08Z</time>
      </trkpt>
      <trkpt lat="-22.142830" lon="-45.159375">
        <ele>914.457</ele>
        <time>2019-10-16T20:29:10Z</time>
      </trkpt>
      <trkpt lat="-22.142783" lon="-45.159304">
        <ele>913.922</ele>
        <time>2019-10-16T20:29:12Z</time>
      </trkpt>
      <trkpt lat="-22.142730" lon="-45.159229">
        <ele>913.408</ele>
        <time>2019-10-16T20:29:14Z</time>
      </trkpt>
      <trkpt lat="-22.142700" lon="-45.159189">
        <ele>913.163</ele>
        <time>2019-10-16T20:29:15Z</time>
      </trkpt>
      <trkpt lat="-22.142670" lon="-45.159149">
        <ele>912.991</ele>
        <time>2019-10-16T20:29:16Z</time>
      </trkpt>
      <trkpt lat="-22.142641" lon="-45.159107">
        <ele>912.834</ele>
        <time>2019-10-16T20:29:17Z</time>
      </trkpt>
      <trkpt lat="-22.142610" lon="-45.159065">
        <ele>912.892</ele>
        <time>2019-10-16T20:29:18Z</time>
      </trkpt>
      <trkpt lat="-22.142577" lon="-45.159018">
        <ele>912.712</ele>
        <time>2019-10-16T20:29:19Z</time>
      </trkpt>
      <trkpt lat="-22.142544" lon="-45.158972">
        <ele>912.894</ele>
        <time>2019-10-16T20:29:20Z</time>
      </trkpt>
      <trkpt lat="-22.142508" lon="-45.158923">
        <ele>912.818</ele>
        <time>2019-10-16T20:29:21Z</time>
      </trkpt>
      <trkpt lat="-22.142471" lon="-45.158875">
        <ele>913.015</ele>
        <time>2019-10-16T20:29:22Z</time>
      </trkpt>
      <trkpt lat="-22.142434" lon="-45.158829">
        <ele>913.275</ele>
        <time>2019-10-16T20:29:23Z</time>
      </trkpt>
      <trkpt lat="-22.142397" lon="-45.158782">
        <ele>913.428</ele>
        <time>2019-10-16T20:29:24Z</time>
      </trkpt>
      <trkpt lat="-22.142360" lon="-45.158735">
        <ele>913.520</ele>
        <time>2019-10-16T20:29:25Z</time>
      </trkpt>
      <trkpt lat="-22.142322" lon="-45.158687">
        <ele>913.708</ele>
        <time>2019-10-16T20:29:26Z</time>
      </trkpt>
      <trkpt lat="-22.142285" lon="-45.158640">
        <ele>913.891</ele>
        <time>2019-10-16T20:29:27Z</time>
      </trkpt>
      <trkpt lat="-22.142246" lon="-45.158594">
        <ele>913.929</ele>
        <time>2019-10-16T20:29:28Z</time>
      </trkpt>
      <trkpt lat="-22.142206" lon="-45.158550">
        <ele>914.042</ele>
        <time>2019-10-16T20:29:29Z</time>
      </trkpt>
      <trkpt lat="-22.142165" lon="-45.158506">
        <ele>914.080</ele>
        <time>2019-10-16T20:29:30Z</time>
      </trkpt>
      <trkpt lat="-22.142119" lon="-45.158464">
        <ele>914.090</ele>
        <time>2019-10-16T20:29:31Z</time>
      </trkpt>
      <trkpt lat="-22.142073" lon="-45.158426">
        <ele>913.922</ele>
        <time>2019-10-16T20:29:32Z</time>
      </trkpt>
      <trkpt lat="-22.142025" lon="-45.158385">
        <ele>913.936</ele>
        <time>2019-10-16T20:29:33Z</time>
      </trkpt>
      <trkpt lat="-22.141977" lon="-45.158345">
        <ele>913.893</ele>
        <time>2019-10-16T20:29:34Z</time>
      </trkpt>
      <trkpt lat="-22.141927" lon="-45.158309">
        <ele>914.099</ele>
        <time>2019-10-16T20:29:35Z</time>
      </trkpt>
      <trkpt lat="-22.141875" lon="-45.158274">
        <ele>914.307</ele>
        <time>2019-10-16T20:29:36Z</time>
      </trkpt>
      <trkpt lat="-22.141823" lon="-45.158240">
        <ele>914.527</ele>
        <time>2019-10-16T20:29:37Z</time>
      </trkpt>
      <trkpt lat="-22.141769" lon="-45.158210">
        <ele>914.608</ele>
        <time>2019-10-16T20:29:38Z</time>
      </trkpt>
      <trkpt lat="-22.141715" lon="-45.158185">
        <ele>914.753</ele>
        <time>2019-10-16T20:29:39Z</time>
      </trkpt>
      <trkpt lat="-22.141659" lon="-45.158160">
        <ele>914.781</ele>
        <time>2019-10-16T20:29:40Z</time>
      </trkpt>
      <trkpt lat="-22.141603" lon="-45.158135">
        <ele>915.164</ele>
        <time>2019-10-16T20:29:41Z</time>
      </trkpt>
      <trkpt lat="-22.141548" lon="-45.158112">
        <ele>915.472</ele>
        <time>2019-10-16T20:29:42Z</time>
      </trkpt>
      <trkpt lat="-22.141490" lon="-45.158091">
        <ele>915.792</ele>
        <time>2019-10-16T20:29:43Z</time>
      </trkpt>
      <trkpt lat="-22.141433" lon="-45.158073">
        <ele>916.054</ele>
        <time>2019-10-16T20:29:44Z</time>
      </trkpt>
      <trkpt lat="-22.141376" lon="-45.158056">
        <ele>916.298</ele>
        <time>2019-10-16T20:29:45Z</time>
      </trkpt>
      <trkpt lat="-22.141316" lon="-45.158041">
        <ele>916.495</ele>
        <time>2019-10-16T20:29:46Z</time>
      </trkpt>
      <trkpt lat="-22.141259" lon="-45.158027">
        <ele>916.584</ele>
        <time>2019-10-16T20:29:47Z</time>
      </trkpt>
      <trkpt lat="-22.141202" lon="-45.158013">
        <ele>916.707</ele>
        <time>2019-10-16T20:29:48Z</time>
      </trkpt>
      <trkpt lat="-22.141145" lon="-45.158001">
        <ele>916.817</ele>
        <time>2019-10-16T20:29:49Z</time>
      </trkpt>
      <trkpt lat="-22.141088" lon="-45.157988">
        <ele>916.908</ele>
        <time>2019-10-16T20:29:50Z</time>
      </trkpt>
      <trkpt lat="-22.141030" lon="-45.157973">
        <ele>917.142</ele>
        <time>2019-10-16T20:29:51Z</time>
      </trkpt>
      <trkpt lat="-22.140973" lon="-45.157959">
        <ele>917.230</ele>
        <time>2019-10-16T20:29:52Z</time>
      </trkpt>
      <trkpt lat="-22.140912" lon="-45.157946">
        <ele>917.393</ele>
        <time>2019-10-16T20:29:53Z</time>
      </trkpt>
      <trkpt lat="-22.140855" lon="-45.157933">
        <ele>917.361</ele>
        <time>2019-10-16T20:29:54Z</time>
      </trkpt>
      <trkpt lat="-22.140798" lon="-45.157918">
        <ele>917.451</ele>
        <time>2019-10-16T20:29:55Z</time>
      </trkpt>
      <trkpt lat="-22.140741" lon="-45.157905">
        <ele>917.563</ele>
        <time>2019-10-16T20:29:56Z</time>
      </trkpt>
      <trkpt lat="-22.140685" lon="-45.157891">
        <ele>917.517</ele>
        <time>2019-10-16T20:29:57Z</time>
      </trkpt>
      <trkpt lat="-22.140628" lon="-45.157877">
        <ele>917.614</ele>
        <time>2019-10-16T20:29:58Z</time>
      </trkpt>
      <trkpt lat="-22.140571" lon="-45.157864">
        <ele>917.646</ele>
        <time>2019-10-16T20:29:59Z</time>
      </trkpt>
      <trkpt lat="-22.140517" lon="-45.157850">
        <ele>917.788</ele>
        <time>2019-10-16T20:30:00Z</time>
      </trkpt>
      <trkpt lat="-22.140464" lon="-45.157836">
        <ele>917.716</ele>
        <time>2019-10-16T20:30:01Z</time>
      </trkpt>
      <trkpt lat="-22.140409" lon="-45.157823">
        <ele>917.808</ele>
        <time>2019-10-16T20:30:02Z</time>
      </trkpt>
      <trkpt lat="-22.140355" lon="-45.157810">
        <ele>917.968</ele>
        <time>2019-10-16T20:30:03Z</time>
      </trkpt>
      <trkpt lat="-22.140298" lon="-45.157796">
        <ele>917.936</ele>
        <time>2019-10-16T20:30:04Z</time>
      </trkpt>
      <trkpt lat="-22.140238" lon="-45.157782">
        <ele>918.019</ele>
        <time>2019-10-16T20:30:05Z</time>
      </trkpt>
      <trkpt lat="-22.140174" lon="-45.157767">
        <ele>918.147</ele>
        <time>2019-10-16T20:30:06Z</time>
      </trkpt>
      <trkpt lat="-22.140114" lon="-45.157753">
        <ele>918.117</ele>
        <time>2019-10-16T20:30:07Z</time>
      </trkpt>
      <trkpt lat="-22.140050" lon="-45.157738">
        <ele>918.249</ele>
        <time>2019-10-16T20:30:08Z</time>
      </trkpt>
      <trkpt lat="-22.139986" lon="-45.157724">
        <ele>918.333</ele>
        <time>2019-10-16T20:30:09Z</time>
      </trkpt>
      <trkpt lat="-22.139925" lon="-45.157709">
        <ele>918.310</ele>
        <time>2019-10-16T20:30:10Z</time>
      </trkpt>
      <trkpt lat="-22.139860" lon="-45.157694">
        <ele>918.385</ele>
        <time>2019-10-16T20:30:11Z</time>
      </trkpt>
      <trkpt lat="-22.139793" lon="-45.157679">
        <ele>918.389</ele>
        <time>2019-10-16T20:30:12Z</time>
      </trkpt>
      <trkpt lat="-22.139729" lon="-45.157665">
        <ele>918.217</ele>
        <time>2019-10-16T20:30:13Z</time>
      </trkpt>
      <trkpt lat="-22.139664" lon="-45.157650">
        <ele>918.208</ele>
        <time>2019-10-16T20:30:14Z</time>
      </trkpt>
      <trkpt lat="-22.139602" lon="-45.157634">
        <ele>918.222</ele>
        <time>2019-10-16T20:30:15Z</time>
      </trkpt>
      <trkpt lat="-22.139538" lon="-45.157618">
        <ele>918.240</ele>
        <time>2019-10-16T20:30:16Z</time>
      </trkpt>
      <trkpt lat="-22.139476" lon="-45.157603">
        <ele>918.123</ele>
        <time>2019-10-16T20:30:17Z</time>
      </trkpt>
      <trkpt lat="-22.139415" lon="-45.157587">
        <ele>918.181</ele>
        <time>2019-10-16T20:30:18Z</time>
      </trkpt>
      <trkpt lat="-22.139356" lon="-45.157572">
        <ele>918.041</ele>
        <time>2019-10-16T20:30:19Z</time>
      </trkpt>
      <trkpt lat="-22.139294" lon="-45.157557">
        <ele>917.973</ele>
        <time>2019-10-16T20:30:20Z</time>
      </trkpt>
      <trkpt lat="-22.139236" lon="-45.157544">
        <ele>917.977</ele>
        <time>2019-10-16T20:30:21Z</time>
      </trkpt>
      <trkpt lat="-22.139177" lon="-45.157532">
        <ele>917.814</ele>
        <time>2019-10-16T20:30:22Z</time>
      </trkpt>
      <trkpt lat="-22.139121" lon="-45.157520">
        <ele>917.954</ele>
        <time>2019-10-16T20:30:23Z</time>
      </trkpt>
      <trkpt lat="-22.139063" lon="-45.157506">
        <ele>918.156</ele>
        <time>2019-10-16T20:30:24Z</time>
      </trkpt>
      <trkpt lat="-22.139004" lon="-45.157492">
        <ele>918.411</ele>
        <time>2019-10-16T20:30:25Z</time>
      </trkpt>
      <trkpt lat="-22.138943" lon="-45.157479">
        <ele>918.808</ele>
        <time>2019-10-16T20:30:26Z</time>
      </trkpt>
      <trkpt lat="-22.138881" lon="-45.157466">
        <ele>919.259</ele>
        <time>2019-10-16T20:30:27Z</time>
      </trkpt>
      <trkpt lat="-22.138819" lon="-45.157453">
        <ele>919.637</ele>
        <time>2019-10-16T20:30:28Z</time>
      </trkpt>
      <trkpt lat="-22.138760" lon="-45.157444">
        <ele>919.960</ele>
        <time>2019-10-16T20:30:29Z</time>
      </trkpt>
      <trkpt lat="-22.138693" lon="-45.157432">
        <ele>920.358</ele>
        <time>2019-10-16T20:30:30Z</time>
      </trkpt>
      <trkpt lat="-22.138631" lon="-45.157416">
        <ele>920.858</ele>
        <time>2019-10-16T20:30:31Z</time>
      </trkpt>
      <trkpt lat="-22.138566" lon="-45.157396">
        <ele>921.470</ele>
        <time>2019-10-16T20:30:32Z</time>
      </trkpt>
      <trkpt lat="-22.138503" lon="-45.157375">
        <ele>922.034</ele>
        <time>2019-10-16T20:30:33Z</time>
      </trkpt>
      <trkpt lat="-22.138440" lon="-45.157358">
        <ele>922.591</ele>
        <time>2019-10-16T20:30:34Z</time>
      </trkpt>
      <trkpt lat="-22.138374" lon="-45.157345">
        <ele>922.965</ele>
        <time>2019-10-16T20:30:35Z</time>
      </trkpt>
      <trkpt lat="-22.138307" lon="-45.157331">
        <ele>923.068</ele>
        <time>2019-10-16T20:30:36Z</time>
      </trkpt>
      <trkpt lat="-22.138241" lon="-45.157316">
        <ele>922.614</ele>
        <time>2019-10-16T20:30:37Z</time>
      </trkpt>
      <trkpt lat="-22.138176" lon="-45.157300">
        <ele>922.308</ele>
        <time>2019-10-16T20:30:38Z</time>
      </trkpt>
      <trkpt lat="-22.138109" lon="-45.157284">
        <ele>921.920</ele>
        <time>2019-10-16T20:30:39Z</time>
      </trkpt>
      <trkpt lat="-22.138042" lon="-45.157268">
        <ele>921.668</ele>
        <time>2019-10-16T20:30:40Z</time>
      </trkpt>
      <trkpt lat="-22.137974" lon="-45.157252">
        <ele>921.291</ele>
        <time>2019-10-16T20:30:41Z</time>
      </trkpt>
      <trkpt lat="-22.137906" lon="-45.157236">
        <ele>920.729</ele>
        <time>2019-10-16T20:30:42Z</time>
      </trkpt>
      <trkpt lat="-22.137842" lon="-45.157220">
        <ele>920.359</ele>
        <time>2019-10-16T20:30:43Z</time>
      </trkpt>
      <trkpt lat="-22.137774" lon="-45.157204">
        <ele>919.991</ele>
        <time>2019-10-16T20:30:44Z</time>
      </trkpt>
      <trkpt lat="-22.137705" lon="-45.157189">
        <ele>919.475</ele>
        <time>2019-10-16T20:30:45Z</time>
      </trkpt>
      <trkpt lat="-22.137636" lon="-45.157174">
        <ele>918.932</ele>
        <time>2019-10-16T20:30:46Z</time>
      </trkpt>
      <trkpt lat="-22.137567" lon="-45.157159">
        <ele>918.431</ele>
        <time>2019-10-16T20:30:47Z</time>
      </trkpt>
      <trkpt lat="-22.137499" lon="-45.157144">
        <ele>917.861</ele>
        <time>2019-10-16T20:30:48Z</time>
      </trkpt>
      <trkpt lat="-22.137432" lon="-45.157128">
        <ele>917.507</ele>
        <time>2019-10-16T20:30:49Z</time>
      </trkpt>
      <trkpt lat="-22.137368" lon="-45.157112">
        <ele>917.208</ele>
        <time>2019-10-16T20:30:50Z</time>
      </trkpt>
      <trkpt lat="-22.137303" lon="-45.157096">
        <ele>916.987</ele>
        <time>2019-10-16T20:30:51Z</time>
      </trkpt>
      <trkpt lat="-22.137237" lon="-45.157079">
        <ele>916.585</ele>
        <time>2019-10-16T20:30:52Z</time>
      </trkpt>
      <trkpt lat="-22.137173" lon="-45.157062">
        <ele>916.258</ele>
        <time>2019-10-16T20:30:53Z</time>
      </trkpt>
      <trkpt lat="-22.137111" lon="-45.157047">
        <ele>915.856</ele>
        <time>2019-10-16T20:30:54Z</time>
      </trkpt>
      <trkpt lat="-22.137046" lon="-45.157031">
        <ele>915.386</ele>
        <time>2019-10-16T20:30:55Z</time>
      </trkpt>
      <trkpt lat="-22.136983" lon="-45.157015">
        <ele>914.838</ele>
        <time>2019-10-16T20:30:56Z</time>
      </trkpt>
      <trkpt lat="-22.136922" lon="-45.157001">
        <ele>914.342</ele>
        <time>2019-10-16T20:30:57Z</time>
      </trkpt>
      <trkpt lat="-22.136858" lon="-45.156986">
        <ele>913.859</ele>
        <time>2019-10-16T20:30:58Z</time>
      </trkpt>
      <trkpt lat="-22.136793" lon="-45.156971">
        <ele>913.218</ele>
        <time>2019-10-16T20:30:59Z</time>
      </trkpt>
      <trkpt lat="-22.136728" lon="-45.156954">
        <ele>912.698</ele>
        <time>2019-10-16T20:31:00Z</time>
      </trkpt>
      <trkpt lat="-22.136661" lon="-45.156936">
        <ele>912.017</ele>
        <time>2019-10-16T20:31:01Z</time>
      </trkpt>
      <trkpt lat="-22.136592" lon="-45.156917">
        <ele>911.808</ele>
        <time>2019-10-16T20:31:02Z</time>
      </trkpt>
      <trkpt lat="-22.136523" lon="-45.156899">
        <ele>911.555</ele>
        <time>2019-10-16T20:31:03Z</time>
      </trkpt>
      <trkpt lat="-22.136452" lon="-45.156881">
        <ele>911.273</ele>
        <time>2019-10-16T20:31:04Z</time>
      </trkpt>
      <trkpt lat="-22.136380" lon="-45.156862">
        <ele>910.966</ele>
        <time>2019-10-16T20:31:05Z</time>
      </trkpt>
      <trkpt lat="-22.136309" lon="-45.156842">
        <ele>910.654</ele>
        <time>2019-10-16T20:31:06Z</time>
      </trkpt>
      <trkpt lat="-22.136235" lon="-45.156820">
        <ele>910.384</ele>
        <time>2019-10-16T20:31:07Z</time>
      </trkpt>
      <trkpt lat="-22.136158" lon="-45.156795">
        <ele>909.996</ele>
        <time>2019-10-16T20:31:08Z</time>
      </trkpt>
      <trkpt lat="-22.136079" lon="-45.156769">
        <ele>909.520</ele>
        <time>2019-10-16T20:31:09Z</time>
      </trkpt>
      <trkpt lat="-22.135999" lon="-45.156739">
        <ele>909.077</ele>
        <time>2019-10-16T20:31:10Z</time>
      </trkpt>
      <trkpt lat="-22.135918" lon="-45.156707">
        <ele>908.524</ele>
        <time>2019-10-16T20:31:11Z</time>
      </trkpt>
      <trkpt lat="-22.135838" lon="-45.156672">
        <ele>908.004</ele>
        <time>2019-10-16T20:31:12Z</time>
      </trkpt>
      <trkpt lat="-22.135756" lon="-45.156633">
        <ele>908.114</ele>
        <time>2019-10-16T20:31:13Z</time>
      </trkpt>
      <trkpt lat="-22.135678" lon="-45.156594">
        <ele>908.208</ele>
        <time>2019-10-16T20:31:14Z</time>
      </trkpt>
      <trkpt lat="-22.135600" lon="-45.156552">
        <ele>908.496</ele>
        <time>2019-10-16T20:31:15Z</time>
      </trkpt>
      <trkpt lat="-22.135525" lon="-45.156507">
        <ele>908.664</ele>
        <time>2019-10-16T20:31:16Z</time>
      </trkpt>
      <trkpt lat="-22.135449" lon="-45.156458">
        <ele>909.017</ele>
        <time>2019-10-16T20:31:17Z</time>
      </trkpt>
      <trkpt lat="-22.135377" lon="-45.156408">
        <ele>909.435</ele>
        <time>2019-10-16T20:31:18Z</time>
      </trkpt>
      <trkpt lat="-22.135309" lon="-45.156357">
        <ele>909.955</ele>
        <time>2019-10-16T20:31:19Z</time>
      </trkpt>
      <trkpt lat="-22.135245" lon="-45.156306">
        <ele>910.437</ele>
        <time>2019-10-16T20:31:20Z</time>
      </trkpt>
      <trkpt lat="-22.135185" lon="-45.156255">
        <ele>911.011</ele>
        <time>2019-10-16T20:31:21Z</time>
      </trkpt>
      <trkpt lat="-22.135130" lon="-45.156205">
        <ele>911.658</ele>
        <time>2019-10-16T20:31:22Z</time>
      </trkpt>
      <trkpt lat="-22.135079" lon="-45.156156">
        <ele>912.379</ele>
        <time>2019-10-16T20:31:23Z</time>
      </trkpt>
      <trkpt lat="-22.135033" lon="-45.156108">
        <ele>912.905</ele>
        <time>2019-10-16T20:31:24Z</time>
      </trkpt>
      <trkpt lat="-22.134988" lon="-45.156060">
        <ele>913.525</ele>
        <time>2019-10-16T20:31:25Z</time>
      </trkpt>
      <trkpt lat="-22.134944" lon="-45.156011">
        <ele>913.908</ele>
        <time>2019-10-16T20:31:26Z</time>
      </trkpt>
      <trkpt lat="-22.134901" lon="-45.155963">
        <ele>914.351</ele>
        <time>2019-10-16T20:31:27Z</time>
      </trkpt>
      <trkpt lat="-22.134859" lon="-45.155915">
        <ele>914.739</ele>
        <time>2019-10-16T20:31:28Z</time>
      </trkpt>
      <trkpt lat="-22.134819" lon="-45.155867">
        <ele>915.032</ele>
        <time>2019-10-16T20:31:29Z</time>
      </trkpt>
      <trkpt lat="-22.134781" lon="-45.155817">
        <ele>915.480</ele>
        <time>2019-10-16T20:31:30Z</time>
      </trkpt>
      <trkpt lat="-22.134743" lon="-45.155766">
        <ele>916.010</ele>
        <time>2019-10-16T20:31:31Z</time>
      </trkpt>
      <trkpt lat="-22.134708" lon="-45.155716">
        <ele>916.432</ele>
        <time>2019-10-16T20:31:32Z</time>
      </trkpt>
      <trkpt lat="-22.134672" lon="-45.155662">
        <ele>916.996</ele>
        <time>2019-10-16T20:31:33Z</time>
      </trkpt>
      <trkpt lat="-22.134638" lon="-45.155608">
        <ele>917.413</ele>
        <time>2019-10-16T20:31:34Z</time>
      </trkpt>
      <trkpt lat="-22.134603" lon="-45.155553">
        <ele>917.811</ele>
        <time>2019-10-16T20:31:35Z</time>
      </trkpt>
      <trkpt lat="-22.134569" lon="-45.155499">
        <ele>918.221</ele>
        <time>2019-10-16T20:31:36Z</time>
      </trkpt>
      <trkpt lat="-22.134537" lon="-45.155444">
        <ele>918.603</ele>
        <time>2019-10-16T20:31:37Z</time>
      </trkpt>
      <trkpt lat="-22.134505" lon="-45.155388">
        <ele>918.908</ele>
        <time>2019-10-16T20:31:38Z</time>
      </trkpt>
      <trkpt lat="-22.134478" lon="-45.155334">
        <ele>919.345</ele>
        <time>2019-10-16T20:31:39Z</time>
      </trkpt>
      <trkpt lat="-22.134452" lon="-45.155277">
        <ele>919.663</ele>
        <time>2019-10-16T20:31:40Z</time>
      </trkpt>
      <trkpt lat="-22.134428" lon="-45.155222">
        <ele>920.016</ele>
        <time>2019-10-16T20:31:41Z</time>
      </trkpt>
      <trkpt lat="-22.134404" lon="-45.155168">
        <ele>920.284</ele>
        <time>2019-10-16T20:31:42Z</time>
      </trkpt>
      <trkpt lat="-22.134380" lon="-45.155111">
        <ele>920.594</ele>
        <time>2019-10-16T20:31:43Z</time>
      </trkpt>
      <trkpt lat="-22.134358" lon="-45.155055">
        <ele>920.826</ele>
        <time>2019-10-16T20:31:44Z</time>
      </trkpt>
      <trkpt lat="-22.134336" lon="-45.154998">
        <ele>921.080</ele>
        <time>2019-10-16T20:31:45Z</time>
      </trkpt>
      <trkpt lat="-22.134316" lon="-45.154944">
        <ele>921.317</ele>
        <time>2019-10-16T20:31:46Z</time>
      </trkpt>
      <trkpt lat="-22.134296" lon="-45.154890">
        <ele>921.557</ele>
        <time>2019-10-16T20:31:47Z</time>
      </trkpt>
      <trkpt lat="-22.134276" lon="-45.154836">
        <ele>921.800</ele>
        <time>2019-10-16T20:31:48Z</time>
      </trkpt>
      <trkpt lat="-22.134258" lon="-45.154787">
        <ele>922.020</ele>
        <time>2019-10-16T20:31:49Z</time>
      </trkpt>
      <trkpt lat="-22.134243" lon="-45.154733">
        <ele>922.208</ele>
        <time>2019-10-16T20:31:50Z</time>
      </trkpt>
      <trkpt lat="-22.134230" lon="-45.154680">
        <ele>922.569</ele>
        <time>2019-10-16T20:31:51Z</time>
      </trkpt>
      <trkpt lat="-22.134216" lon="-45.154627">
        <ele>922.837</ele>
        <time>2019-10-16T20:31:52Z</time>
      </trkpt>
      <trkpt lat="-22.134202" lon="-45.154569">
        <ele>923.160</ele>
        <time>2019-10-16T20:31:53Z</time>
      </trkpt>
      <trkpt lat="-22.134188" lon="-45.154512">
        <ele>923.498</ele>
        <time>2019-10-16T20:31:54Z</time>
      </trkpt>
      <trkpt lat="-22.134173" lon="-45.154454">
        <ele>923.758</ele>
        <time>2019-10-16T20:31:55Z</time>
      </trkpt>
      <trkpt lat="-22.134160" lon="-45.154395">
        <ele>923.940</ele>
        <time>2019-10-16T20:31:56Z</time>
      </trkpt>
      <trkpt lat="-22.134147" lon="-45.154336">
        <ele>924.214</ele>
        <time>2019-10-16T20:31:57Z</time>
      </trkpt>
      <trkpt lat="-22.134134" lon="-45.154273">
        <ele>924.441</ele>
        <time>2019-10-16T20:31:58Z</time>
      </trkpt>
      <trkpt lat="-22.134121" lon="-45.154214">
        <ele>924.677</ele>
        <time>2019-10-16T20:31:59Z</time>
      </trkpt>
      <trkpt lat="-22.134108" lon="-45.154153">
        <ele>924.761</ele>
        <time>2019-10-16T20:32:00Z</time>
      </trkpt>
      <trkpt lat="-22.134096" lon="-45.154093">
        <ele>924.127</ele>
        <time>2019-10-16T20:32:01Z</time>
      </trkpt>
      <trkpt lat="-22.134083" lon="-45.154030">
        <ele>923.408</ele>
        <time>2019-10-16T20:32:02Z</time>
      </trkpt>
      <trkpt lat="-22.134070" lon="-45.153967">
        <ele>922.821</ele>
        <time>2019-10-16T20:32:03Z</time>
      </trkpt>
      <trkpt lat="-22.134059" lon="-45.153904">
        <ele>922.339</ele>
        <time>2019-10-16T20:32:04Z</time>
      </trkpt>
      <trkpt lat="-22.134046" lon="-45.153838">
        <ele>921.622</ele>
        <time>2019-10-16T20:32:05Z</time>
      </trkpt>
      <trkpt lat="-22.134031" lon="-45.153773">
        <ele>921.070</ele>
        <time>2019-10-16T20:32:06Z</time>
      </trkpt>
      <trkpt lat="-22.134018" lon="-45.153705">
        <ele>920.440</ele>
        <time>2019-10-16T20:32:07Z</time>
      </trkpt>
      <trkpt lat="-22.134007" lon="-45.153631">
        <ele>919.822</ele>
        <time>2019-10-16T20:32:08Z</time>
      </trkpt>
      <trkpt lat="-22.133995" lon="-45.153556">
        <ele>919.256</ele>
        <time>2019-10-16T20:32:09Z</time>
      </trkpt>
      <trkpt lat="-22.133981" lon="-45.153481">
        <ele>918.633</ele>
        <time>2019-10-16T20:32:10Z</time>
      </trkpt>
      <trkpt lat="-22.133967" lon="-45.153406">
        <ele>918.099</ele>
        <time>2019-10-16T20:32:11Z</time>
      </trkpt>
      <trkpt lat="-22.133951" lon="-45.153330">
        <ele>917.407</ele>
        <time>2019-10-16T20:32:12Z</time>
      </trkpt>
      <trkpt lat="-22.133933" lon="-45.153252">
        <ele>917.027</ele>
        <time>2019-10-16T20:32:13Z</time>
      </trkpt>
      <trkpt lat="-22.133915" lon="-45.153177">
        <ele>916.608</ele>
        <time>2019-10-16T20:32:14Z</time>
      </trkpt>
      <trkpt lat="-22.133897" lon="-45.153094">
        <ele>916.293</ele>
        <time>2019-10-16T20:32:15Z</time>
      </trkpt>
      <trkpt lat="-22.133881" lon="-45.153014">
        <ele>915.831</ele>
        <time>2019-10-16T20:32:16Z</time>
      </trkpt>
      <trkpt lat="-22.133864" lon="-45.152930">
        <ele>915.434</ele>
        <time>2019-10-16T20:32:17Z</time>
      </trkpt>
      <trkpt lat="-22.133849" lon="-45.152848">
        <ele>915.112</ele>
        <time>2019-10-16T20:32:18Z</time>
      </trkpt>
      <trkpt lat="-22.133833" lon="-45.152764">
        <ele>914.752</ele>
        <time>2019-10-16T20:32:19Z</time>
      </trkpt>
      <trkpt lat="-22.133817" lon="-45.152678">
        <ele>914.364</ele>
        <time>2019-10-16T20:32:20Z</time>
      </trkpt>
      <trkpt lat="-22.133800" lon="-45.152592">
        <ele>914.088</ele>
        <time>2019-10-16T20:32:21Z</time>
      </trkpt>
      <trkpt lat="-22.133784" lon="-45.152509">
        <ele>913.615</ele>
        <time>2019-10-16T20:32:22Z</time>
      </trkpt>
      <trkpt lat="-22.133767" lon="-45.152420">
        <ele>913.521</ele>
        <time>2019-10-16T20:32:23Z</time>
      </trkpt>
      <trkpt lat="-22.133749" lon="-45.152333">
        <ele>913.441</ele>
        <time>2019-10-16T20:32:24Z</time>
      </trkpt>
      <trkpt lat="-22.133730" lon="-45.152245">
        <ele>913.305</ele>
        <time>2019-10-16T20:32:25Z</time>
      </trkpt>
      <trkpt lat="-22.133712" lon="-45.152159">
        <ele>913.208</ele>
        <time>2019-10-16T20:32:26Z</time>
      </trkpt>
      <trkpt lat="-22.133694" lon="-45.152071">
        <ele>913.126</ele>
        <time>2019-10-16T20:32:27Z</time>
      </trkpt>
      <trkpt lat="-22.133672" lon="-45.151985">
        <ele>912.944</ele>
        <time>2019-10-16T20:32:28Z</time>
      </trkpt>
      <trkpt lat="-22.133649" lon="-45.151899">
        <ele>912.767</ele>
        <time>2019-10-16T20:32:29Z</time>
      </trkpt>
      <trkpt lat="-22.133630" lon="-45.151814">
        <ele>912.665</ele>
        <time>2019-10-16T20:32:30Z</time>
      </trkpt>
      <trkpt lat="-22.133612" lon="-45.151724">
        <ele>912.595</ele>
        <time>2019-10-16T20:32:31Z</time>
      </trkpt>
      <trkpt lat="-22.133595" lon="-45.151630">
        <ele>912.437</ele>
        <time>2019-10-16T20:32:32Z</time>
      </trkpt>
      <trkpt lat="-22.133576" lon="-45.151536">
        <ele>912.021</ele>
        <time>2019-10-16T20:32:33Z</time>
      </trkpt>
      <trkpt lat="-22.133559" lon="-45.151443">
        <ele>911.668</ele>
        <time>2019-10-16T20:32:34Z</time>
      </trkpt>
      <trkpt lat="-22.133543" lon="-45.151348">
        <ele>911.362</ele>
        <time>2019-10-16T20:32:35Z</time>
      </trkpt>
      <trkpt lat="-22.133527" lon="-45.151263">
        <ele>911.083</ele>
        <time>2019-10-16T20:32:36Z</time>
      </trkpt>
      <trkpt lat="-22.133510" lon="-45.151179">
        <ele>910.711</ele>
        <time>2019-10-16T20:32:37Z</time>
      </trkpt>
      <trkpt lat="-22.133490" lon="-45.151093">
        <ele>910.408</ele>
        <time>2019-10-16T20:32:38Z</time>
      </trkpt>
      <trkpt lat="-22.133472" lon="-45.151010">
        <ele>910.150</ele>
        <time>2019-10-16T20:32:39Z</time>
      </trkpt>
      <trkpt lat="-22.133454" lon="-45.150929">
        <ele>909.818</ele>
        <time>2019-10-16T20:32:40Z</time>
      </trkpt>
      <trkpt lat="-22.133437" lon="-45.150850">
        <ele>909.571</ele>
        <time>2019-10-16T20:32:41Z</time>
      </trkpt>
      <trkpt lat="-22.133422" lon="-45.150771">
        <ele>909.689</ele>
        <time>2019-10-16T20:32:42Z</time>
      </trkpt>
      <trkpt lat="-22.133407" lon="-45.150691">
        <ele>909.869</ele>
        <time>2019-10-16T20:32:43Z</time>
      </trkpt>
      <trkpt lat="-22.133393" lon="-45.150611">
        <ele>910.031</ele>
        <time>2019-10-16T20:32:44Z</time>
      </trkpt>
      <trkpt lat="-22.133377" lon="-45.150535">
        <ele>910.335</ele>
        <time>2019-10-16T20:32:45Z</time>
      </trkpt>
      <trkpt lat="-22.133359" lon="-45.150456">
        <ele>910.592</ele>
        <time>2019-10-16T20:32:46Z</time>
      </trkpt>
      <trkpt lat="-22.133339" lon="-45.150376">
        <ele>910.842</ele>
        <time>2019-10-16T20:32:47Z</time>
      </trkpt>
      <trkpt lat="-22.133323" lon="-45.150298">
        <ele>911.222</ele>
        <time>2019-10-16T20:32:48Z</time>
      </trkpt>
      <trkpt lat="-22.133309" lon="-45.150220">
        <ele>911.614</ele>
        <time>2019-10-16T20:32:49Z</time>
      </trkpt>
      <trkpt lat="-22.133294" lon="-45.150148">
        <ele>912.008</ele>
        <time>2019-10-16T20:32:50Z</time>
      </trkpt>
      <trkpt lat="-22.133277" lon="-45.150073">
        <ele>912.448</ele>
        <time>2019-10-16T20:32:51Z</time>
      </trkpt>
      <trkpt lat="-22.133261" lon="-45.150001">
        <ele>912.776</ele>
        <time>2019-10-16T20:32:52Z</time>
      </trkpt>
      <trkpt lat="-22.133246" lon="-45.149928">
        <ele>913.139</ele>
        <time>2019-10-16T20:32:53Z</time>
      </trkpt>
      <trkpt lat="-22.133231" lon="-45.149857">
        <ele>913.427</ele>
        <time>2019-10-16T20:32:54Z</time>
      </trkpt>
      <trkpt lat="-22.133215" lon="-45.149787">
        <ele>913.797</ele>
        <time>2019-10-16T20:32:55Z</time>
      </trkpt>
      <trkpt lat="-22.133198" lon="-45.149717">
        <ele>914.049</ele>
        <time>2019-10-16T20:32:56Z</time>
      </trkpt>
      <trkpt lat="-22.133184" lon="-45.149654">
        <ele>914.233</ele>
        <time>2019-10-16T20:32:57Z</time>
      </trkpt>
      <trkpt lat="-22.133171" lon="-45.149587">
        <ele>914.530</ele>
        <time>2019-10-16T20:32:58Z</time>
      </trkpt>
      <trkpt lat="-22.133158" lon="-45.149521">
        <ele>914.811</ele>
        <time>2019-10-16T20:32:59Z</time>
      </trkpt>
      <trkpt lat="-22.133144" lon="-45.149455">
        <ele>915.021</ele>
        <time>2019-10-16T20:33:00Z</time>
      </trkpt>
      <trkpt lat="-22.133130" lon="-45.149390">
        <ele>915.203</ele>
        <time>2019-10-16T20:33:01Z</time>
      </trkpt>
      <trkpt lat="-22.133113" lon="-45.149326">
        <ele>915.408</ele>
        <time>2019-10-16T20:33:02Z</time>
      </trkpt>
      <trkpt lat="-22.133095" lon="-45.149260">
        <ele>915.635</ele>
        <time>2019-10-16T20:33:03Z</time>
      </trkpt>
      <trkpt lat="-22.133077" lon="-45.149196">
        <ele>915.753</ele>
        <time>2019-10-16T20:33:04Z</time>
      </trkpt>
      <trkpt lat="-22.133058" lon="-45.149132">
        <ele>915.666</ele>
        <time>2019-10-16T20:33:05Z</time>
      </trkpt>
      <trkpt lat="-22.133039" lon="-45.149066">
        <ele>915.394</ele>
        <time>2019-10-16T20:33:06Z</time>
      </trkpt>
      <trkpt lat="-22.133020" lon="-45.149004">
        <ele>915.064</ele>
        <time>2019-10-16T20:33:07Z</time>
      </trkpt>
      <trkpt lat="-22.132997" lon="-45.148939">
        <ele>914.756</ele>
        <time>2019-10-16T20:33:08Z</time>
      </trkpt>
      <trkpt lat="-22.132975" lon="-45.148878">
        <ele>914.540</ele>
        <time>2019-10-16T20:33:09Z</time>
      </trkpt>
      <trkpt lat="-22.132950" lon="-45.148815">
        <ele>914.377</ele>
        <time>2019-10-16T20:33:10Z</time>
      </trkpt>
      <trkpt lat="-22.132926" lon="-45.148753">
        <ele>914.064</ele>
        <time>2019-10-16T20:33:11Z</time>
      </trkpt>
      <trkpt lat="-22.132900" lon="-45.148690">
        <ele>913.906</ele>
        <time>2019-10-16T20:33:12Z</time>
      </trkpt>
      <trkpt lat="-22.132875" lon="-45.148629">
        <ele>913.716</ele>
        <time>2019-10-16T20:33:13Z</time>
      </trkpt>
      <trkpt lat="-22.132846" lon="-45.148569">
        <ele>913.608</ele>
        <time>2019-10-16T20:33:14Z</time>
      </trkpt>
      <trkpt lat="-22.132811" lon="-45.148506">
        <ele>913.460</ele>
        <time>2019-10-16T20:33:15Z</time>
      </trkpt>
      <trkpt lat="-22.132774" lon="-45.148445">
        <ele>913.328</ele>
        <time>2019-10-16T20:33:16Z</time>
      </trkpt>
      <trkpt lat="-22.132735" lon="-45.148384">
        <ele>913.311</ele>
        <time>2019-10-16T20:33:17Z</time>
      </trkpt>
      <trkpt lat="-22.132693" lon="-45.148323">
        <ele>913.359</ele>
        <time>2019-10-16T20:33:18Z</time>
      </trkpt>
      <trkpt lat="-22.132650" lon="-45.148263">
        <ele>913.659</ele>
        <time>2019-10-16T20:33:19Z</time>
      </trkpt>
      <trkpt lat="-22.132604" lon="-45.148205">
        <ele>913.981</ele>
        <time>2019-10-16T20:33:20Z</time>
      </trkpt>
      <trkpt lat="-22.132557" lon="-45.148155">
        <ele>914.335</ele>
        <time>2019-10-16T20:33:21Z</time>
      </trkpt>
      <trkpt lat="-22.132514" lon="-45.148110">
        <ele>914.692</ele>
        <time>2019-10-16T20:33:22Z</time>
      </trkpt>
      <trkpt lat="-22.132469" lon="-45.148065">
        <ele>914.873</ele>
        <time>2019-10-16T20:33:23Z</time>
      </trkpt>
      <trkpt lat="-22.132427" lon="-45.148023">
        <ele>915.085</ele>
        <time>2019-10-16T20:33:24Z</time>
      </trkpt>
      <trkpt lat="-22.132386" lon="-45.147984">
        <ele>915.213</ele>
        <time>2019-10-16T20:33:25Z</time>
      </trkpt>
      <trkpt lat="-22.132341" lon="-45.147944">
        <ele>915.308</ele>
        <time>2019-10-16T20:33:26Z</time>
      </trkpt>
      <trkpt lat="-22.132294" lon="-45.147905">
        <ele>915.511</ele>
        <time>2019-10-16T20:33:27Z</time>
      </trkpt>
      <trkpt lat="-22.132245" lon="-45.147866">
        <ele>915.699</ele>
        <time>2019-10-16T20:33:28Z</time>
      </trkpt>
      <trkpt lat="-22.132197" lon="-45.147827">
        <ele>915.712</ele>
        <time>2019-10-16T20:33:29Z</time>
      </trkpt>
      <trkpt lat="-22.132144" lon="-45.147785">
        <ele>915.820</ele>
        <time>2019-10-16T20:33:30Z</time>
      </trkpt>
      <trkpt lat="-22.132089" lon="-45.147742">
        <ele>915.990</ele>
        <time>2019-10-16T20:33:31Z</time>
      </trkpt>
      <trkpt lat="-22.132029" lon="-45.147697">
        <ele>916.042</ele>
        <time>2019-10-16T20:33:32Z</time>
      </trkpt>
      <trkpt lat="-22.131966" lon="-45.147650">
        <ele>916.146</ele>
        <time>2019-10-16T20:33:33Z</time>
      </trkpt>
      <trkpt lat="-22.131905" lon="-45.147604">
        <ele>916.273</ele>
        <time>2019-10-16T20:33:34Z</time>
      </trkpt>
      <trkpt lat="-22.131843" lon="-45.147556">
        <ele>916.377</ele>
        <time>2019-10-16T20:33:35Z</time>
      </trkpt>
      <trkpt lat="-22.131781" lon="-45.147508">
        <ele>916.461</ele>
        <time>2019-10-16T20:33:36Z</time>
      </trkpt>
      <trkpt lat="-22.131717" lon="-45.147459">
        <ele>916.927</ele>
        <time>2019-10-16T20:33:37Z</time>
      </trkpt>
      <trkpt lat="-22.131655" lon="-45.147413">
        <ele>917.408</ele>
        <time>2019-10-16T20:33:38Z</time>
      </trkpt>
      <trkpt lat="-22.131595" lon="-45.147369">
        <ele>917.771</ele>
        <time>2019-10-16T20:33:39Z</time>
      </trkpt>
      <trkpt lat="-22.131537" lon="-45.147326">
        <ele>917.949</ele>
        <time>2019-10-16T20:33:40Z</time>
      </trkpt>
      <trkpt lat="-22.131478" lon="-45.147281">
        <ele>918.112</ele>
        <time>2019-10-16T20:33:41Z</time>
      </trkpt>
      <trkpt lat="-22.131422" lon="-45.147243">
        <ele>918.240</ele>
        <time>2019-10-16T20:33:42Z</time>
      </trkpt>
      <trkpt lat="-22.131366" lon="-45.147203">
        <ele>918.340</ele>
        <time>2019-10-16T20:33:43Z</time>
      </trkpt>
      <trkpt lat="-22.131312" lon="-45.147163">
        <ele>918.322</ele>
        <time>2019-10-16T20:33:44Z</time>
      </trkpt>
      <trkpt lat="-22.131257" lon="-45.147121">
        <ele>918.326</ele>
        <time>2019-10-16T20:33:45Z</time>
      </trkpt>
      <trkpt lat="-22.131203" lon="-45.147078">
        <ele>918.353</ele>
        <time>2019-10-16T20:33:46Z</time>
      </trkpt>
      <trkpt lat="-22.131148" lon="-45.147034">
        <ele>918.368</ele>
        <time>2019-10-16T20:33:47Z</time>
      </trkpt>
      <trkpt lat="-22.131095" lon="-45.146994">
        <ele>918.242</ele>
        <time>2019-10-16T20:33:48Z</time>
      </trkpt>
      <trkpt lat="-22.131044" lon="-45.146956">
        <ele>918.026</ele>
        <time>2019-10-16T20:33:49Z</time>
      </trkpt>
      <trkpt lat="-22.130992" lon="-45.146917">
        <ele>917.808</ele>
        <time>2019-10-16T20:33:50Z</time>
      </trkpt>
      <trkpt lat="-22.130943" lon="-45.146881">
        <ele>917.560</ele>
        <time>2019-10-16T20:33:51Z</time>
      </trkpt>
      <trkpt lat="-22.130896" lon="-45.146846">
        <ele>917.318</ele>
        <time>2019-10-16T20:33:52Z</time>
      </trkpt>
      <trkpt lat="-22.130847" lon="-45.146808">
        <ele>917.061</ele>
        <time>2019-10-16T20:33:53Z</time>
      </trkpt>
      <trkpt lat="-22.130799" lon="-45.146772">
        <ele>916.869</ele>
        <time>2019-10-16T20:33:54Z</time>
      </trkpt>
      <trkpt lat="-22.130748" lon="-45.146734">
        <ele>916.689</ele>
        <time>2019-10-16T20:33:55Z</time>
      </trkpt>
      <trkpt lat="-22.130696" lon="-45.146694">
        <ele>916.581</ele>
        <time>2019-10-16T20:33:56Z</time>
      </trkpt>
      <trkpt lat="-22.130642" lon="-45.146654">
        <ele>916.455</ele>
        <time>2019-10-16T20:33:57Z</time>
      </trkpt>
      <trkpt lat="-22.130588" lon="-45.146614">
        <ele>916.542</ele>
        <time>2019-10-16T20:33:58Z</time>
      </trkpt>
      <trkpt lat="-22.130534" lon="-45.146574">
        <ele>916.558</ele>
        <time>2019-10-16T20:33:59Z</time>
      </trkpt>
      <trkpt lat="-22.130478" lon="-45.146533">
        <ele>916.652</ele>
        <time>2019-10-16T20:34:00Z</time>
      </trkpt>
      <trkpt lat="-22.130423" lon="-45.146496">
        <ele>916.517</ele>
        <time>2019-10-16T20:34:01Z</time>
      </trkpt>
      <trkpt lat="-22.130365" lon="-45.146457">
        <ele>916.508</ele>
        <time>2019-10-16T20:34:02Z</time>
      </trkpt>
      <trkpt lat="-22.130312" lon="-45.146418">
        <ele>916.469</ele>
        <time>2019-10-16T20:34:03Z</time>
      </trkpt>
      <trkpt lat="-22.130255" lon="-45.146375">
        <ele>916.497</ele>
        <time>2019-10-16T20:34:04Z</time>
      </trkpt>
      <trkpt lat="-22.130196" lon="-45.146330">
        <ele>916.390</ele>
        <time>2019-10-16T20:34:05Z</time>
      </trkpt>
      <trkpt lat="-22.130138" lon="-45.146286">
        <ele>916.298</ele>
        <time>2019-10-16T20:34:06Z</time>
      </trkpt>
      <trkpt lat="-22.130080" lon="-45.146240">
        <ele>916.158</ele>
        <time>2019-10-16T20:34:07Z</time>
      </trkpt>
      <trkpt lat="-22.130023" lon="-45.146195">
        <ele>915.990</ele>
        <time>2019-10-16T20:34:08Z</time>
      </trkpt>
      <trkpt lat="-22.129963" lon="-45.146151">
        <ele>915.914</ele>
        <time>2019-10-16T20:34:09Z</time>
      </trkpt>
      <trkpt lat="-22.129906" lon="-45.146107">
        <ele>915.981</ele>
        <time>2019-10-16T20:34:10Z</time>
      </trkpt>
      <trkpt lat="-22.129849" lon="-45.146064">
        <ele>915.947</ele>
        <time>2019-10-16T20:34:11Z</time>
      </trkpt>
      <trkpt lat="-22.129791" lon="-45.146020">
        <ele>915.829</ele>
        <time>2019-10-16T20:34:12Z</time>
      </trkpt>
      <trkpt lat="-22.129732" lon="-45.145975">
        <ele>915.721</ele>
        <time>2019-10-16T20:34:13Z</time>
      </trkpt>
      <trkpt lat="-22.129672" lon="-45.145930">
        <ele>915.508</ele>
        <time>2019-10-16T20:34:14Z</time>
      </trkpt>
      <trkpt lat="-22.129614" lon="-45.145886">
        <ele>915.368</ele>
        <time>2019-10-16T20:34:15Z</time>
      </trkpt>
      <trkpt lat="-22.129553" lon="-45.145841">
        <ele>915.166</ele>
        <time>2019-10-16T20:34:16Z</time>
      </trkpt>
      <trkpt lat="-22.129497" lon="-45.145796">
        <ele>914.719</ele>
        <time>2019-10-16T20:34:17Z</time>
      </trkpt>
      <trkpt lat="-22.129442" lon="-45.145751">
        <ele>914.347</ele>
        <time>2019-10-16T20:34:18Z</time>
      </trkpt>
      <trkpt lat="-22.129392" lon="-45.145712">
        <ele>913.927</ele>
        <time>2019-10-16T20:34:19Z</time>
      </trkpt>
      <trkpt lat="-22.129337" lon="-45.145670">
        <ele>913.519</ele>
        <time>2019-10-16T20:34:20Z</time>
      </trkpt>
      <trkpt lat="-22.129285" lon="-45.145631">
        <ele>913.223</ele>
        <time>2019-10-16T20:34:21Z</time>
      </trkpt>
      <trkpt lat="-22.129231" lon="-45.145592">
        <ele>912.850</ele>
        <time>2019-10-16T20:34:22Z</time>
      </trkpt>
      <trkpt lat="-22.129178" lon="-45.145552">
        <ele>912.542</ele>
        <time>2019-10-16T20:34:23Z</time>
      </trkpt>
      <trkpt lat="-22.129125" lon="-45.145514">
        <ele>912.522</ele>
        <time>2019-10-16T20:34:24Z</time>
      </trkpt>
      <trkpt lat="-22.129074" lon="-45.145476">
        <ele>912.514</ele>
        <time>2019-10-16T20:34:25Z</time>
      </trkpt>
      <trkpt lat="-22.129025" lon="-45.145438">
        <ele>912.608</ele>
        <time>2019-10-16T20:34:26Z</time>
      </trkpt>
      <trkpt lat="-22.128975" lon="-45.145399">
        <ele>912.778</ele>
        <time>2019-10-16T20:34:27Z</time>
      </trkpt>
      <trkpt lat="-22.128925" lon="-45.145361">
        <ele>912.966</ele>
        <time>2019-10-16T20:34:28Z</time>
      </trkpt>
      <trkpt lat="-22.128872" lon="-45.145323">
        <ele>913.019</ele>
        <time>2019-10-16T20:34:29Z</time>
      </trkpt>
      <trkpt lat="-22.128822" lon="-45.145285">
        <ele>913.187</ele>
        <time>2019-10-16T20:34:30Z</time>
      </trkpt>
      <trkpt lat="-22.128773" lon="-45.145247">
        <ele>913.257</ele>
        <time>2019-10-16T20:34:31Z</time>
      </trkpt>
      <trkpt lat="-22.128723" lon="-45.145210">
        <ele>913.369</ele>
        <time>2019-10-16T20:34:32Z</time>
      </trkpt>
      <trkpt lat="-22.128673" lon="-45.145173">
        <ele>913.573</ele>
        <time>2019-10-16T20:34:33Z</time>
      </trkpt>
      <trkpt lat="-22.128623" lon="-45.145137">
        <ele>913.670</ele>
        <time>2019-10-16T20:34:34Z</time>
      </trkpt>
      <trkpt lat="-22.128575" lon="-45.145101">
        <ele>913.782</ele>
        <time>2019-10-16T20:34:35Z</time>
      </trkpt>
      <trkpt lat="-22.128525" lon="-45.145067">
        <ele>913.843</ele>
        <time>2019-10-16T20:34:36Z</time>
      </trkpt>
      <trkpt lat="-22.128478" lon="-45.145033">
        <ele>914.017</ele>
        <time>2019-10-16T20:34:37Z</time>
      </trkpt>
      <trkpt lat="-22.128430" lon="-45.144998">
        <ele>914.108</ele>
        <time>2019-10-16T20:34:38Z</time>
      </trkpt>
      <trkpt lat="-22.128384" lon="-45.144964">
        <ele>914.512</ele>
        <time>2019-10-16T20:34:39Z</time>
      </trkpt>
      <trkpt lat="-22.128334" lon="-45.144928">
        <ele>914.870</ele>
        <time>2019-10-16T20:34:40Z</time>
      </trkpt>
      <trkpt lat="-22.128288" lon="-45.144893">
        <ele>914.973</ele>
        <time>2019-10-16T20:34:41Z</time>
      </trkpt>
      <trkpt lat="-22.128241" lon="-45.144859">
        <ele>914.921</ele>
        <time>2019-10-16T20:34:42Z</time>
      </trkpt>
      <trkpt lat="-22.128196" lon="-45.144825">
        <ele>915.011</ele>
        <time>2019-10-16T20:34:43Z</time>
      </trkpt>
      <trkpt lat="-22.128151" lon="-45.144792">
        <ele>915.153</ele>
        <time>2019-10-16T20:34:44Z</time>
      </trkpt>
      <trkpt lat="-22.128107" lon="-45.144759">
        <ele>915.237</ele>
        <time>2019-10-16T20:34:45Z</time>
      </trkpt>
      <trkpt lat="-22.128064" lon="-45.144726">
        <ele>915.344</ele>
        <time>2019-10-16T20:34:46Z</time>
      </trkpt>
      <trkpt lat="-22.128022" lon="-45.144693">
        <ele>915.563</ele>
        <time>2019-10-16T20:34:47Z</time>
      </trkpt>
      <trkpt lat="-22.127981" lon="-45.144662">
        <ele>915.644</ele>
        <time>2019-10-16T20:34:48Z</time>
      </trkpt>
      <trkpt lat="-22.127940" lon="-45.144633">
        <ele>915.818</ele>
        <time>2019-10-16T20:34:49Z</time>
      </trkpt>
      <trkpt lat="-22.127899" lon="-45.144601">
        <ele>915.908</ele>
        <time>2019-10-16T20:34:50Z</time>
      </trkpt>
      <trkpt lat="-22.127855" lon="-45.144567">
        <ele>916.160</ele>
        <time>2019-10-16T20:34:51Z</time>
      </trkpt>
      <trkpt lat="-22.127811" lon="-45.144533">
        <ele>916.378</ele>
        <time>2019-10-16T20:34:52Z</time>
      </trkpt>
      <trkpt lat="-22.127766" lon="-45.144498">
        <ele>916.631</ele>
        <time>2019-10-16T20:34:53Z</time>
      </trkpt>
      <trkpt lat="-22.127723" lon="-45.144466">
        <ele>916.889</ele>
        <time>2019-10-16T20:34:54Z</time>
      </trkpt>
      <trkpt lat="-22.127676" lon="-45.144431">
        <ele>917.049</ele>
        <time>2019-10-16T20:34:55Z</time>
      </trkpt>
      <trkpt lat="-22.127630" lon="-45.144397">
        <ele>917.321</ele>
        <time>2019-10-16T20:34:56Z</time>
      </trkpt>
      <trkpt lat="-22.127585" lon="-45.144364">
        <ele>917.525</ele>
        <time>2019-10-16T20:34:57Z</time>
      </trkpt>
      <trkpt lat="-22.127538" lon="-45.144330">
        <ele>917.872</ele>
        <time>2019-10-16T20:34:58Z</time>
      </trkpt>
      <trkpt lat="-22.127493" lon="-45.144294">
        <ele>918.162</ele>
        <time>2019-10-16T20:34:59Z</time>
      </trkpt>
      <trkpt lat="-22.127449" lon="-45.144257">
        <ele>918.483</ele>
        <time>2019-10-16T20:35:00Z</time>
      </trkpt>
      <trkpt lat="-22.127406" lon="-45.144218">
        <ele>918.711</ele>
        <time>2019-10-16T20:35:01Z</time>
      </trkpt>
      <trkpt lat="-22.127361" lon="-45.144180">
        <ele>919.008</ele>
        <time>2019-10-16T20:35:02Z</time>
      </trkpt>
      <trkpt lat="-22.127316" lon="-45.144140">
        <ele>919.350</ele>
        <time>2019-10-16T20:35:03Z</time>
      </trkpt>
      <trkpt lat="-22.127272" lon="-45.144097">
        <ele>919.738</ele>
        <time>2019-10-16T20:35:04Z</time>
      </trkpt>
      <trkpt lat="-22.127229" lon="-45.144053">
        <ele>920.141</ele>
        <time>2019-10-16T20:35:05Z</time>
      </trkpt>
      <trkpt lat="-22.127185" lon="-45.144007">
        <ele>920.589</ele>
        <time>2019-10-16T20:35:06Z</time>
      </trkpt>
      <trkpt lat="-22.127143" lon="-45.143961">
        <ele>921.029</ele>
        <time>2019-10-16T20:35:07Z</time>
      </trkpt>
      <trkpt lat="-22.127101" lon="-45.143912">
        <ele>921.451</ele>
        <time>2019-10-16T20:35:08Z</time>
      </trkpt>
      <trkpt lat="-22.127059" lon="-45.143863">
        <ele>921.985</ele>
        <time>2019-10-16T20:35:09Z</time>
      </trkpt>
      <trkpt lat="-22.127019" lon="-45.143812">
        <ele>922.452</ele>
        <time>2019-10-16T20:35:10Z</time>
      </trkpt>
      <trkpt lat="-22.126976" lon="-45.143757">
        <ele>922.994</ele>
        <time>2019-10-16T20:35:11Z</time>
      </trkpt>
      <trkpt lat="-22.126933" lon="-45.143701">
        <ele>923.557</ele>
        <time>2019-10-16T20:35:12Z</time>
      </trkpt>
      <trkpt lat="-22.126893" lon="-45.143648">
        <ele>924.022</ele>
        <time>2019-10-16T20:35:13Z</time>
      </trkpt>
      <trkpt lat="-22.126853" lon="-45.143592">
        <ele>924.508</ele>
        <time>2019-10-16T20:35:14Z</time>
      </trkpt>
      <trkpt lat="-22.126816" lon="-45.143537">
        <ele>925.163</ele>
        <time>2019-10-16T20:35:15Z</time>
      </trkpt>
      <trkpt lat="-22.126781" lon="-45.143481">
        <ele>925.731</ele>
        <time>2019-10-16T20:35:16Z</time>
      </trkpt>
      <trkpt lat="-22.126749" lon="-45.143427">
        <ele>926.234</ele>
        <time>2019-10-16T20:35:17Z</time>
      </trkpt>
      <trkpt lat="-22.126717" lon="-45.143374">
        <ele>926.882</ele>
        <time>2019-10-16T20:35:18Z</time>
      </trkpt>
      <trkpt lat="-22.126686" lon="-45.143319">
        <ele>927.382</ele>
        <time>2019-10-16T20:35:19Z</time>
      </trkpt>
      <trkpt lat="-22.126655" lon="-45.143265">
        <ele>927.524</ele>
        <time>2019-10-16T20:35:20Z</time>
      </trkpt>
      <trkpt lat="-22.126622" lon="-45.143207">
        <ele>927.358</ele>
        <time>2019-10-16T20:35:21Z</time>
      </trkpt>
      <trkpt lat="-22.126587" lon="-45.143146">
        <ele>927.195</ele>
        <time>2019-10-16T20:35:22Z</time>
      </trkpt>
      <trkpt lat="-22.126553" lon="-45.143083">
        <ele>926.925</ele>
        <time>2019-10-16T20:35:23Z</time>
      </trkpt>
      <trkpt lat="-22.126518" lon="-45.143021">
        <ele>926.626</ele>
        <time>2019-10-16T20:35:24Z</time>
      </trkpt>
      <trkpt lat="-22.126484" lon="-45.142958">
        <ele>926.408</ele>
        <time>2019-10-16T20:35:25Z</time>
      </trkpt>
      <trkpt lat="-22.126449" lon="-45.142890">
        <ele>926.108</ele>
        <time>2019-10-16T20:35:26Z</time>
      </trkpt>
      <trkpt lat="-22.126414" lon="-45.142823">
        <ele>925.836</ele>
        <time>2019-10-16T20:35:27Z</time>
      </trkpt>
      <trkpt lat="-22.126380" lon="-45.142756">
        <ele>925.524</ele>
        <time>2019-10-16T20:35:28Z</time>
      </trkpt>
      <trkpt lat="-22.126348" lon="-45.142690">
        <ele>925.217</ele>
        <time>2019-10-16T20:35:29Z</time>
      </trkpt>
      <trkpt lat="-22.126313" lon="-45.142620">
        <ele>924.825</ele>
        <time>2019-10-16T20:35:30Z</time>
      </trkpt>
      <trkpt lat="-22.126279" lon="-45.142553">
        <ele>924.455</ele>
        <time>2019-10-16T20:35:31Z</time>
      </trkpt>
      <trkpt lat="-22.126244" lon="-45.142483">
        <ele>923.867</ele>
        <time>2019-10-16T20:35:32Z</time>
      </trkpt>
      <trkpt lat="-22.126207" lon="-45.142411">
        <ele>922.631</ele>
        <time>2019-10-16T20:35:33Z</time>
      </trkpt>
      <trkpt lat="-22.126168" lon="-45.142338">
        <ele>921.458</ele>
        <time>2019-10-16T20:35:34Z</time>
      </trkpt>
      <trkpt lat="-22.126127" lon="-45.142266">
        <ele>920.234</ele>
        <time>2019-10-16T20:35:35Z</time>
      </trkpt>
      <trkpt lat="-22.126084" lon="-45.142191">
        <ele>919.155</ele>
        <time>2019-10-16T20:35:36Z</time>
      </trkpt>
      <trkpt lat="-22.126046" lon="-45.142118">
        <ele>918.110</ele>
        <time>2019-10-16T20:35:37Z</time>
      </trkpt>
      <trkpt lat="-22.126013" lon="-45.142044">
        <ele>917.308</ele>
        <time>2019-10-16T20:35:38Z</time>
      </trkpt>
      <trkpt lat="-22.125981" lon="-45.141971">
        <ele>916.667</ele>
        <time>2019-10-16T20:35:39Z</time>
      </trkpt>
      <trkpt lat="-22.125944" lon="-45.141898">
        <ele>915.995</ele>
        <time>2019-10-16T20:35:40Z</time>
      </trkpt>
      <trkpt lat="-22.125907" lon="-45.141826">
        <ele>915.288</ele>
        <time>2019-10-16T20:35:41Z</time>
      </trkpt>
      <trkpt lat="-22.125871" lon="-45.141751">
        <ele>914.676</ele>
        <time>2019-10-16T20:35:42Z</time>
      </trkpt>
      <trkpt lat="-22.125837" lon="-45.141681">
        <ele>914.066</ele>
        <time>2019-10-16T20:35:43Z</time>
      </trkpt>
      <trkpt lat="-22.125795" lon="-45.141605">
        <ele>913.218</ele>
        <time>2019-10-16T20:35:44Z</time>
      </trkpt>
      <trkpt lat="-22.125751" lon="-45.141531">
        <ele>912.262</ele>
        <time>2019-10-16T20:35:45Z</time>
      </trkpt>
      <trkpt lat="-22.125706" lon="-45.141447">
        <ele>911.379</ele>
        <time>2019-10-16T20:35:46Z</time>
      </trkpt>
      <trkpt lat="-22.125659" lon="-45.141357">
        <ele>910.323</ele>
        <time>2019-10-16T20:35:47Z</time>
      </trkpt>
      <trkpt lat="-22.125610" lon="-45.141260">
        <ele>909.483</ele>
        <time>2019-10-16T20:35:48Z</time>
      </trkpt>
      <trkpt lat="-22.125562" lon="-45.141163">
        <ele>908.511</ele>
        <time>2019-10-16T20:35:49Z</time>
      </trkpt>
      <trkpt lat="-22.125517" lon="-45.141067">
        <ele>907.708</ele>
        <time>2019-10-16T20:35:50Z</time>
      </trkpt>
      <trkpt lat="-22.125473" lon="-45.140974">
        <ele>906.946</ele>
        <time>2019-10-16T20:35:51Z</time>
      </trkpt>
      <trkpt lat="-22.125429" lon="-45.140880">
        <ele>906.244</ele>
        <time>2019-10-16T20:35:52Z</time>
      </trkpt>
      <trkpt lat="-22.125378" lon="-45.140790">
        <ele>905.937</ele>
        <time>2019-10-16T20:35:53Z</time>
      </trkpt>
      <trkpt lat="-22.125328" lon="-45.140696">
        <ele>905.975</ele>
        <time>2019-10-16T20:35:54Z</time>
      </trkpt>
      <trkpt lat="-22.125283" lon="-45.140606">
        <ele>905.935</ele>
        <time>2019-10-16T20:35:55Z</time>
      </trkpt>
      <trkpt lat="-22.125238" lon="-45.140515">
        <ele>905.997</ele>
        <time>2019-10-16T20:35:56Z</time>
      </trkpt>
      <trkpt lat="-22.125192" lon="-45.140426">
        <ele>905.811</ele>
        <time>2019-10-16T20:35:57Z</time>
      </trkpt>
      <trkpt lat="-22.125148" lon="-45.140342">
        <ele>905.698</ele>
        <time>2019-10-16T20:35:58Z</time>
      </trkpt>
      <trkpt lat="-22.125105" lon="-45.140255">
        <ele>905.458</ele>
        <time>2019-10-16T20:35:59Z</time>
      </trkpt>
      <trkpt lat="-22.125060" lon="-45.140169">
        <ele>905.252</ele>
        <time>2019-10-16T20:36:00Z</time>
      </trkpt>
      <trkpt lat="-22.125016" lon="-45.140079">
        <ele>904.917</ele>
        <time>2019-10-16T20:36:01Z</time>
      </trkpt>
      <trkpt lat="-22.124973" lon="-45.139995">
        <ele>904.908</ele>
        <time>2019-10-16T20:36:02Z</time>
      </trkpt>
      <trkpt lat="-22.124928" lon="-45.139908">
        <ele>905.179</ele>
        <time>2019-10-16T20:36:03Z</time>
      </trkpt>
      <trkpt lat="-22.124884" lon="-45.139829">
        <ele>905.297</ele>
        <time>2019-10-16T20:36:04Z</time>
      </trkpt>
      <trkpt lat="-22.124836" lon="-45.139747">
        <ele>905.390</ele>
        <time>2019-10-16T20:36:05Z</time>
      </trkpt>
      <trkpt lat="-22.124790" lon="-45.139663">
        <ele>905.598</ele>
        <time>2019-10-16T20:36:06Z</time>
      </trkpt>
      <trkpt lat="-22.124747" lon="-45.139580">
        <ele>905.618</ele>
        <time>2019-10-16T20:36:07Z</time>
      </trkpt>
      <trkpt lat="-22.124706" lon="-45.139501">
        <ele>905.740</ele>
        <time>2019-10-16T20:36:08Z</time>
      </trkpt>
      <trkpt lat="-22.124663" lon="-45.139418">
        <ele>905.994</ele>
        <time>2019-10-16T20:36:09Z</time>
      </trkpt>
      <trkpt lat="-22.124621" lon="-45.139337">
        <ele>906.041</ele>
        <time>2019-10-16T20:36:10Z</time>
      </trkpt>
      <trkpt lat="-22.124580" lon="-45.139261">
        <ele>906.185</ele>
        <time>2019-10-16T20:36:11Z</time>
      </trkpt>
      <trkpt lat="-22.124537" lon="-45.139176">
        <ele>906.389</ele>
        <time>2019-10-16T20:36:12Z</time>
      </trkpt>
      <trkpt lat="-22.124495" lon="-45.139095">
        <ele>906.517</ele>
        <time>2019-10-16T20:36:13Z</time>
      </trkpt>
      <trkpt lat="-22.124454" lon="-45.139012">
        <ele>906.708</ele>
        <time>2019-10-16T20:36:14Z</time>
      </trkpt>
      <trkpt lat="-22.124412" lon="-45.138930">
        <ele>906.872</ele>
        <time>2019-10-16T20:36:15Z</time>
      </trkpt>
      <trkpt lat="-22.124368" lon="-45.138848">
        <ele>906.890</ele>
        <time>2019-10-16T20:36:16Z</time>
      </trkpt>
      <trkpt lat="-22.124329" lon="-45.138772">
        <ele>906.813</ele>
        <time>2019-10-16T20:36:17Z</time>
      </trkpt>
      <trkpt lat="-22.124288" lon="-45.138692">
        <ele>906.761</ele>
        <time>2019-10-16T20:36:18Z</time>
      </trkpt>
      <trkpt lat="-22.124248" lon="-45.138615">
        <ele>906.571</ele>
        <time>2019-10-16T20:36:19Z</time>
      </trkpt>
      <trkpt lat="-22.124208" lon="-45.138540">
        <ele>906.293</ele>
        <time>2019-10-16T20:36:20Z</time>
      </trkpt>
      <trkpt lat="-22.124168" lon="-45.138467">
        <ele>905.937</ele>
        <time>2019-10-16T20:36:21Z</time>
      </trkpt>
      <trkpt lat="-22.124127" lon="-45.138395">
        <ele>905.744</ele>
        <time>2019-10-16T20:36:22Z</time>
      </trkpt>
      <trkpt lat="-22.124088" lon="-45.138323">
        <ele>905.751</ele>
        <time>2019-10-16T20:36:23Z</time>
      </trkpt>
      <trkpt lat="-22.124053" lon="-45.138253">
        <ele>906.401</ele>
        <time>2019-10-16T20:36:24Z</time>
      </trkpt>
      <trkpt lat="-22.124022" lon="-45.138193">
        <ele>906.811</ele>
        <time>2019-10-16T20:36:25Z</time>
      </trkpt>
      <trkpt lat="-22.123992" lon="-45.138132">
        <ele>907.208</ele>
        <time>2019-10-16T20:36:26Z</time>
      </trkpt>
      <trkpt lat="-22.123963" lon="-45.138069">
        <ele>907.669</ele>
        <time>2019-10-16T20:36:27Z</time>
      </trkpt>
      <trkpt lat="-22.123935" lon="-45.138009">
        <ele>907.917</ele>
        <time>2019-10-16T20:36:28Z</time>
      </trkpt>
      <trkpt lat="-22.123908" lon="-45.137951">
        <ele>908.140</ele>
        <time>2019-10-16T20:36:29Z</time>
      </trkpt>
      <trkpt lat="-22.123880" lon="-45.137895">
        <ele>908.298</ele>
        <time>2019-10-16T20:36:30Z</time>
      </trkpt>
      <trkpt lat="-22.123854" lon="-45.137841">
        <ele>908.368</ele>
        <time>2019-10-16T20:36:31Z</time>
      </trkpt>
      <trkpt lat="-22.123827" lon="-45.137790">
        <ele>908.480</ele>
        <time>2019-10-16T20:36:32Z</time>
      </trkpt>
      <trkpt lat="-22.123799" lon="-45.137739">
        <ele>908.374</ele>
        <time>2019-10-16T20:36:33Z</time>
      </trkpt>
      <trkpt lat="-22.123774" lon="-45.137690">
        <ele>908.241</ele>
        <time>2019-10-16T20:36:34Z</time>
      </trkpt>
      <trkpt lat="-22.123750" lon="-45.137641">
        <ele>908.212</ele>
        <time>2019-10-16T20:36:35Z</time>
      </trkpt>
      <trkpt lat="-22.123722" lon="-45.137593">
        <ele>907.932</ele>
        <time>2019-10-16T20:36:36Z</time>
      </trkpt>
      <trkpt lat="-22.123693" lon="-45.137545">
        <ele>907.705</ele>
        <time>2019-10-16T20:36:37Z</time>
      </trkpt>
      <trkpt lat="-22.123666" lon="-45.137492">
        <ele>907.508</ele>
        <time>2019-10-16T20:36:38Z</time>
      </trkpt>
      <trkpt lat="-22.123639" lon="-45.137438">
        <ele>907.675</ele>
        <time>2019-10-16T20:36:39Z</time>
      </trkpt>
      <trkpt lat="-22.123610" lon="-45.137381">
        <ele>907.693</ele>
        <time>2019-10-16T20:36:40Z</time>
      </trkpt>
      <trkpt lat="-22.123580" lon="-45.137328">
        <ele>907.676</ele>
        <time>2019-10-16T20:36:41Z</time>
      </trkpt>
      <trkpt lat="-22.123552" lon="-45.137277">
        <ele>907.644</ele>
        <time>2019-10-16T20:36:42Z</time>
      </trkpt>
      <trkpt lat="-22.123527" lon="-45.137228">
        <ele>907.594</ele>
        <time>2019-10-16T20:36:43Z</time>
      </trkpt>
      <trkpt lat="-22.123501" lon="-45.137179">
        <ele>907.526</ele>
        <time>2019-10-16T20:36:44Z</time>
      </trkpt>
      <trkpt lat="-22.123477" lon="-45.137131">
        <ele>907.440</ele>
        <time>2019-10-16T20:36:45Z</time>
      </trkpt>
      <trkpt lat="-22.123454" lon="-45.137084">
        <ele>907.347</ele>
        <time>2019-10-16T20:36:46Z</time>
      </trkpt>
      <trkpt lat="-22.123432" lon="-45.137038">
        <ele>907.269</ele>
        <time>2019-10-16T20:36:47Z</time>
      </trkpt>
      <trkpt lat="-22.123409" lon="-45.136991">
        <ele>907.104</ele>
        <time>2019-10-16T20:36:48Z</time>
      </trkpt>
      <trkpt lat="-22.123382" lon="-45.136942">
        <ele>906.924</ele>
        <time>2019-10-16T20:36:49Z</time>
      </trkpt>
      <trkpt lat="-22.123356" lon="-45.136896">
        <ele>906.608</ele>
        <time>2019-10-16T20:36:50Z</time>
      </trkpt>
      <trkpt lat="-22.123335" lon="-45.136853">
        <ele>906.550</ele>
        <time>2019-10-16T20:36:51Z</time>
      </trkpt>
      <trkpt lat="-22.123311" lon="-45.136808">
        <ele>906.778</ele>
        <time>2019-10-16T20:36:52Z</time>
      </trkpt>
      <trkpt lat="-22.123289" lon="-45.136763">
        <ele>906.921</ele>
        <time>2019-10-16T20:36:53Z</time>
      </trkpt>
      <trkpt lat="-22.123266" lon="-45.136713">
        <ele>907.169</ele>
        <time>2019-10-16T20:36:54Z</time>
      </trkpt>
      <trkpt lat="-22.123243" lon="-45.136666">
        <ele>907.329</ele>
        <time>2019-10-16T20:36:55Z</time>
      </trkpt>
      <trkpt lat="-22.123221" lon="-45.136621">
        <ele>907.741</ele>
        <time>2019-10-16T20:36:56Z</time>
      </trkpt>
      <trkpt lat="-22.123199" lon="-45.136575">
        <ele>908.255</ele>
        <time>2019-10-16T20:36:57Z</time>
      </trkpt>
      <trkpt lat="-22.123175" lon="-45.136527">
        <ele>908.612</ele>
        <time>2019-10-16T20:36:58Z</time>
      </trkpt>
      <trkpt lat="-22.123149" lon="-45.136480">
        <ele>909.086</ele>
        <time>2019-10-16T20:36:59Z</time>
      </trkpt>
      <trkpt lat="-22.123124" lon="-45.136435">
        <ele>909.360</ele>
        <time>2019-10-16T20:37:00Z</time>
      </trkpt>
      <trkpt lat="-22.123098" lon="-45.136390">
        <ele>909.626</ele>
        <time>2019-10-16T20:37:01Z</time>
      </trkpt>
      <trkpt lat="-22.123073" lon="-45.136344">
        <ele>909.908</ele>
        <time>2019-10-16T20:37:02Z</time>
      </trkpt>
      <trkpt lat="-22.123049" lon="-45.136296">
        <ele>910.242</ele>
        <time>2019-10-16T20:37:03Z</time>
      </trkpt>
      <trkpt lat="-22.123027" lon="-45.136249">
        <ele>910.530</ele>
        <time>2019-10-16T20:37:04Z</time>
      </trkpt>
      <trkpt lat="-22.123004" lon="-45.136202">
        <ele>910.773</ele>
        <time>2019-10-16T20:37:05Z</time>
      </trkpt>
      <trkpt lat="-22.122982" lon="-45.136153">
        <ele>911.011</ele>
        <time>2019-10-16T20:37:06Z</time>
      </trkpt>
      <trkpt lat="-22.122958" lon="-45.136104">
        <ele>911.261</ele>
        <time>2019-10-16T20:37:07Z</time>
      </trkpt>
      <trkpt lat="-22.122934" lon="-45.136057">
        <ele>911.453</ele>
        <time>2019-10-16T20:37:08Z</time>
      </trkpt>
      <trkpt lat="-22.122909" lon="-45.136012">
        <ele>911.497</ele>
        <time>2019-10-16T20:37:09Z</time>
      </trkpt>
      <trkpt lat="-22.122885" lon="-45.135968">
        <ele>911.514</ele>
        <time>2019-10-16T20:37:10Z</time>
      </trkpt>
      <trkpt lat="-22.122860" lon="-45.135925">
        <ele>911.544</ele>
        <time>2019-10-16T20:37:11Z</time>
      </trkpt>
      <trkpt lat="-22.122834" lon="-45.135883">
        <ele>911.505</ele>
        <time>2019-10-16T20:37:12Z</time>
      </trkpt>
      <trkpt lat="-22.122812" lon="-45.135840">
        <ele>911.615</ele>
        <time>2019-10-16T20:37:13Z</time>
      </trkpt>
      <trkpt lat="-22.122790" lon="-45.135798">
        <ele>911.508</ele>
        <time>2019-10-16T20:37:14Z</time>
      </trkpt>
      <trkpt lat="-22.122746" lon="-45.135710">
        <ele>911.668</ele>
        <time>2019-10-16T20:37:16Z</time>
      </trkpt>
      <trkpt lat="-22.122721" lon="-45.135665">
        <ele>911.516</ele>
        <time>2019-10-16T20:37:17Z</time>
      </trkpt>
      <trkpt lat="-22.122697" lon="-45.135618">
        <ele>911.559</ele>
        <time>2019-10-16T20:37:18Z</time>
      </trkpt>
      <trkpt lat="-22.122673" lon="-45.135568">
        <ele>911.557</ele>
        <time>2019-10-16T20:37:19Z</time>
      </trkpt>
      <trkpt lat="-22.122650" lon="-45.135522">
        <ele>911.597</ele>
        <time>2019-10-16T20:37:20Z</time>
      </trkpt>
      <trkpt lat="-22.122629" lon="-45.135472">
        <ele>911.549</ele>
        <time>2019-10-16T20:37:21Z</time>
      </trkpt>
      <trkpt lat="-22.122606" lon="-45.135421">
        <ele>911.553</ele>
        <time>2019-10-16T20:37:22Z</time>
      </trkpt>
      <trkpt lat="-22.122582" lon="-45.135369">
        <ele>911.520</ele>
        <time>2019-10-16T20:37:23Z</time>
      </trkpt>
      <trkpt lat="-22.122561" lon="-45.135320">
        <ele>911.565</ele>
        <time>2019-10-16T20:37:24Z</time>
      </trkpt>
      <trkpt lat="-22.122538" lon="-45.135272">
        <ele>911.568</ele>
        <time>2019-10-16T20:37:25Z</time>
      </trkpt>
      <trkpt lat="-22.122514" lon="-45.135222">
        <ele>911.414</ele>
        <time>2019-10-16T20:37:26Z</time>
      </trkpt>
      <trkpt lat="-22.122492" lon="-45.135172">
        <ele>911.508</ele>
        <time>2019-10-16T20:37:27Z</time>
      </trkpt>
      <trkpt lat="-22.122470" lon="-45.135124">
        <ele>911.690</ele>
        <time>2019-10-16T20:37:28Z</time>
      </trkpt>
      <trkpt lat="-22.122449" lon="-45.135077">
        <ele>911.738</ele>
        <time>2019-10-16T20:37:29Z</time>
      </trkpt>
      <trkpt lat="-22.122428" lon="-45.135028">
        <ele>911.831</ele>
        <time>2019-10-16T20:37:30Z</time>
      </trkpt>
      <trkpt lat="-22.122385" lon="-45.134941">
        <ele>911.629</ele>
        <time>2019-10-16T20:37:32Z</time>
      </trkpt>
      <trkpt lat="-22.122361" lon="-45.134894">
        <ele>911.429</ele>
        <time>2019-10-16T20:37:33Z</time>
      </trkpt>
      <trkpt lat="-22.122340" lon="-45.134850">
        <ele>911.241</ele>
        <time>2019-10-16T20:37:34Z</time>
      </trkpt>
      <trkpt lat="-22.122297" lon="-45.134764">
        <ele>910.955</ele>
        <time>2019-10-16T20:37:36Z</time>
      </trkpt>
      <trkpt lat="-22.122274" lon="-45.134718">
        <ele>910.622</ele>
        <time>2019-10-16T20:37:37Z</time>
      </trkpt>
      <trkpt lat="-22.122250" lon="-45.134666">
        <ele>910.445</ele>
        <time>2019-10-16T20:37:38Z</time>
      </trkpt>
      <trkpt lat="-22.122224" lon="-45.134611">
        <ele>910.147</ele>
        <time>2019-10-16T20:37:39Z</time>
      </trkpt>
      <trkpt lat="-22.122196" lon="-45.134557">
        <ele>909.811</ele>
        <time>2019-10-16T20:37:40Z</time>
      </trkpt>
      <trkpt lat="-22.122170" lon="-45.134508">
        <ele>909.408</ele>
        <time>2019-10-16T20:37:41Z</time>
      </trkpt>
      <trkpt lat="-22.122144" lon="-45.134458">
        <ele>909.118</ele>
        <time>2019-10-16T20:37:42Z</time>
      </trkpt>
      <trkpt lat="-22.122120" lon="-45.134406">
        <ele>908.866</ele>
        <time>2019-10-16T20:37:43Z</time>
      </trkpt>
      <trkpt lat="-22.122096" lon="-45.134357">
        <ele>908.469</ele>
        <time>2019-10-16T20:37:44Z</time>
      </trkpt>
      <trkpt lat="-22.122070" lon="-45.134310">
        <ele>908.077</ele>
        <time>2019-10-16T20:37:45Z</time>
      </trkpt>
      <trkpt lat="-22.122043" lon="-45.134262">
        <ele>907.567</ele>
        <time>2019-10-16T20:37:46Z</time>
      </trkpt>
      <trkpt lat="-22.122017" lon="-45.134210">
        <ele>907.189</ele>
        <time>2019-10-16T20:37:47Z</time>
      </trkpt>
      <trkpt lat="-22.121992" lon="-45.134160">
        <ele>906.763</ele>
        <time>2019-10-16T20:37:48Z</time>
      </trkpt>
      <trkpt lat="-22.121968" lon="-45.134110">
        <ele>906.450</ele>
        <time>2019-10-16T20:37:49Z</time>
      </trkpt>
      <trkpt lat="-22.121944" lon="-45.134063">
        <ele>906.137</ele>
        <time>2019-10-16T20:37:50Z</time>
      </trkpt>
      <trkpt lat="-22.121919" lon="-45.134013">
        <ele>905.849</ele>
        <time>2019-10-16T20:37:51Z</time>
      </trkpt>
      <trkpt lat="-22.121893" lon="-45.133961">
        <ele>905.613</ele>
        <time>2019-10-16T20:37:52Z</time>
      </trkpt>
      <trkpt lat="-22.121861" lon="-45.133913">
        <ele>905.208</ele>
        <time>2019-10-16T20:37:53Z</time>
      </trkpt>
      <trkpt lat="-22.121827" lon="-45.133863">
        <ele>904.867</ele>
        <time>2019-10-16T20:37:54Z</time>
      </trkpt>
      <trkpt lat="-22.121791" lon="-45.133812">
        <ele>904.425</ele>
        <time>2019-10-16T20:37:55Z</time>
      </trkpt>
      <trkpt lat="-22.121752" lon="-45.133761">
        <ele>904.058</ele>
        <time>2019-10-16T20:37:56Z</time>
      </trkpt>
      <trkpt lat="-22.121717" lon="-45.133708">
        <ele>903.696</ele>
        <time>2019-10-16T20:37:57Z</time>
      </trkpt>
      <trkpt lat="-22.121687" lon="-45.133656">
        <ele>903.496</ele>
        <time>2019-10-16T20:37:58Z</time>
      </trkpt>
      <trkpt lat="-22.121656" lon="-45.133601">
        <ele>903.488</ele>
        <time>2019-10-16T20:37:59Z</time>
      </trkpt>
      <trkpt lat="-22.121628" lon="-45.133546">
        <ele>903.682</ele>
        <time>2019-10-16T20:38:00Z</time>
      </trkpt>
      <trkpt lat="-22.121600" lon="-45.133491">
        <ele>903.819</ele>
        <time>2019-10-16T20:38:01Z</time>
      </trkpt>
      <trkpt lat="-22.121573" lon="-45.133435">
        <ele>904.171</ele>
        <time>2019-10-16T20:38:02Z</time>
      </trkpt>
      <trkpt lat="-22.121546" lon="-45.133381">
        <ele>904.341</ele>
        <time>2019-10-16T20:38:03Z</time>
      </trkpt>
      <trkpt lat="-22.121522" lon="-45.133328">
        <ele>904.515</ele>
        <time>2019-10-16T20:38:04Z</time>
      </trkpt>
      <trkpt lat="-22.121495" lon="-45.133272">
        <ele>904.508</ele>
        <time>2019-10-16T20:38:05Z</time>
      </trkpt>
      <trkpt lat="-22.121471" lon="-45.133220">
        <ele>904.651</ele>
        <time>2019-10-16T20:38:06Z</time>
      </trkpt>
      <trkpt lat="-22.121451" lon="-45.133166">
        <ele>904.639</ele>
        <time>2019-10-16T20:38:07Z</time>
      </trkpt>
      <trkpt lat="-22.121433" lon="-45.133113">
        <ele>904.762</ele>
        <time>2019-10-16T20:38:08Z</time>
      </trkpt>
      <trkpt lat="-22.121415" lon="-45.133058">
        <ele>904.710</ele>
        <time>2019-10-16T20:38:09Z</time>
      </trkpt>
      <trkpt lat="-22.121399" lon="-45.133008">
        <ele>904.720</ele>
        <time>2019-10-16T20:38:10Z</time>
      </trkpt>
      <trkpt lat="-22.121383" lon="-45.132955">
        <ele>904.792</ele>
        <time>2019-10-16T20:38:11Z</time>
      </trkpt>
      <trkpt lat="-22.121369" lon="-45.132903">
        <ele>904.786</ele>
        <time>2019-10-16T20:38:12Z</time>
      </trkpt>
      <trkpt lat="-22.121358" lon="-45.132850">
        <ele>904.883</ele>
        <time>2019-10-16T20:38:13Z</time>
      </trkpt>
      <trkpt lat="-22.121349" lon="-45.132800">
        <ele>904.836</ele>
        <time>2019-10-16T20:38:14Z</time>
      </trkpt>
      <trkpt lat="-22.121328" lon="-45.132707">
        <ele>904.817</ele>
        <time>2019-10-16T20:38:16Z</time>
      </trkpt>
      <trkpt lat="-22.121317" lon="-45.132625">
        <ele>904.918</ele>
        <time>2019-10-16T20:38:18Z</time>
      </trkpt>
      <trkpt lat="-22.121305" lon="-45.132545">
        <ele>904.908</ele>
        <time>2019-10-16T20:38:20Z</time>
      </trkpt>
      <trkpt lat="-22.121292" lon="-45.132481">
        <ele>904.917</ele>
        <time>2019-10-16T20:38:22Z</time>
      </trkpt>
      <trkpt lat="-22.121282" lon="-45.132425">
        <ele>904.845</ele>
        <time>2019-10-16T20:38:24Z</time>
      </trkpt>
      <trkpt lat="-22.121286" lon="-45.132370">
        <ele>904.928</ele>
        <time>2019-10-16T20:38:26Z</time>
      </trkpt>
      <trkpt lat="-22.121277" lon="-45.132311">
        <ele>904.856</ele>
        <time>2019-10-16T20:43:20Z</time>
      </trkpt>
      <trkpt lat="-22.121255" lon="-45.132221">
        <ele>904.746</ele>
        <time>2019-10-16T20:43:22Z</time>
      </trkpt>
      <trkpt lat="-22.121236" lon="-45.132132">
        <ele>904.638</ele>
        <time>2019-10-16T20:43:24Z</time>
      </trkpt>
      <trkpt lat="-22.121222" lon="-45.132077">
        <ele>904.592</ele>
        <time>2019-10-16T20:43:26Z</time>
      </trkpt>
      <trkpt lat="-22.121205" lon="-45.132003">
        <ele>904.419</ele>
        <time>2019-10-16T20:43:28Z</time>
      </trkpt>
      <trkpt lat="-22.121192" lon="-45.131941">
        <ele>904.327</ele>
        <time>2019-10-16T20:43:30Z</time>
      </trkpt>
      <trkpt lat="-22.121176" lon="-45.131877">
        <ele>904.268</ele>
        <time>2019-10-16T20:43:31Z</time>
      </trkpt>
      <trkpt lat="-22.121157" lon="-45.131759">
        <ele>904.114</ele>
        <time>2019-10-16T20:43:34Z</time>
      </trkpt>
      <trkpt lat="-22.121135" lon="-45.131680">
        <ele>903.908</ele>
        <time>2019-10-16T20:43:36Z</time>
      </trkpt>
      <trkpt lat="-22.121117" lon="-45.131619">
        <ele>903.856</ele>
        <time>2019-10-16T20:43:38Z</time>
      </trkpt>
      <trkpt lat="-22.121117" lon="-45.131556">
        <ele>903.914</ele>
        <time>2019-10-16T20:43:40Z</time>
      </trkpt>
      <trkpt lat="-22.121069" lon="-45.131379">
        <ele>903.837</ele>
        <time>2019-10-16T20:45:46Z</time>
      </trkpt>
      <trkpt lat="-22.121067" lon="-45.131329">
        <ele>903.915</ele>
        <time>2019-10-16T20:45:48Z</time>
      </trkpt>
      <trkpt lat="-22.121070" lon="-45.131275">
        <ele>904.085</ele>
        <time>2019-10-16T20:45:50Z</time>
      </trkpt>
      <trkpt lat="-22.121045" lon="-45.131047">
        <ele>904.267</ele>
        <time>2019-10-16T20:46:19Z</time>
      </trkpt>
      <trkpt lat="-22.121048" lon="-45.130976">
        <ele>904.361</ele>
        <time>2019-10-16T20:46:21Z</time>
      </trkpt>
      <trkpt lat="-22.121056" lon="-45.130924">
        <ele>904.558</ele>
        <time>2019-10-16T20:46:23Z</time>
      </trkpt>
      <trkpt lat="-22.121052" lon="-45.130858">
        <ele>904.665</ele>
        <time>2019-10-16T20:46:25Z</time>
      </trkpt>
      <trkpt lat="-22.121043" lon="-45.130721">
        <ele>904.768</ele>
        <time>2019-10-16T20:46:29Z</time>
      </trkpt>
      <trkpt lat="-22.121050" lon="-45.130660">
        <ele>904.914</ele>
        <time>2019-10-16T20:46:31Z</time>
      </trkpt>
      <trkpt lat="-22.121052" lon="-45.130578">
        <ele>905.008</ele>
        <time>2019-10-16T20:46:33Z</time>
      </trkpt>
      <trkpt lat="-22.121049" lon="-45.130420">
        <ele>905.290</ele>
        <time>2019-10-16T20:46:37Z</time>
      </trkpt>
      <trkpt lat="-22.120993" lon="-45.129354">
        <ele>904.818</ele>
        <time>2019-10-16T20:47:01Z</time>
      </trkpt>
      <trkpt lat="-22.120983" lon="-45.129296">
        <ele>904.651</ele>
        <time>2019-10-16T20:47:02Z</time>
      </trkpt>
      <trkpt lat="-22.120976" lon="-45.129189">
        <ele>904.469</ele>
        <time>2019-10-16T20:47:05Z</time>
      </trkpt>
      <trkpt lat="-22.120970" lon="-45.129123">
        <ele>904.569</ele>
        <time>2019-10-16T20:47:06Z</time>
      </trkpt>
      <trkpt lat="-22.120960" lon="-45.129034">
        <ele>904.671</ele>
        <time>2019-10-16T20:47:08Z</time>
      </trkpt>
      <trkpt lat="-22.120939" lon="-45.128991">
        <ele>904.315</ele>
        <time>2019-10-16T20:47:10Z</time>
      </trkpt>
      <trkpt lat="-22.120899" lon="-45.128949">
        <ele>903.462</ele>
        <time>2019-10-16T20:47:12Z</time>
      </trkpt>
      <trkpt lat="-22.120890" lon="-45.129015">
        <ele>903.016</ele>
        <time>2019-10-16T20:47:16Z</time>
      </trkpt>
      <trkpt lat="-22.120913" lon="-45.128963">
        <ele>903.776</ele>
        <time>2019-10-16T20:47:26Z</time>
      </trkpt>
      <trkpt lat="-22.120888" lon="-45.128921">
        <ele>903.313</ele>
        <time>2019-10-16T20:47:37Z</time>
      </trkpt>
      <trkpt lat="-22.121087" lon="-45.129168">
        <ele>907.108</ele>
        <time>2019-10-16T20:49:06Z</time>
      </trkpt>
      <trkpt lat="-22.121077" lon="-45.129114">
        <ele>907.165</ele>
        <time>2019-10-16T20:49:09Z</time>
      </trkpt>
      <trkpt lat="-22.120885" lon="-45.128916">
        <ele>903.243</ele>
        <time>2019-10-16T20:51:43Z</time>
      </trkpt>
      <trkpt lat="-22.120845" lon="-45.128943">
        <ele>902.126</ele>
        <time>2019-10-16T20:52:14Z</time>
      </trkpt>
      <trkpt lat="-22.120801" lon="-45.128953">
        <ele>901.624</ele>
        <time>2019-10-16T20:52:19Z</time>
      </trkpt>
      <trkpt lat="-22.120689" lon="-45.128970">
        <ele>901.214</ele>
        <time>2019-10-16T20:52:26Z</time>
      </trkpt>
      <trkpt lat="-22.120620" lon="-45.128978">
        <ele>900.996</ele>
        <time>2019-10-16T20:52:29Z</time>
      </trkpt>
      <trkpt lat="-22.120457" lon="-45.128995">
        <ele>900.290</ele>
        <time>2019-10-16T20:52:36Z</time>
      </trkpt>
      <trkpt lat="-22.120356" lon="-45.128999">
        <ele>899.947</ele>
        <time>2019-10-16T20:52:43Z</time>
      </trkpt>
      <trkpt lat="-22.120297" lon="-45.128991">
        <ele>899.719</ele>
        <time>2019-10-16T20:52:46Z</time>
      </trkpt>
      <trkpt lat="-22.120305" lon="-45.128912">
        <ele>899.709</ele>
        <time>2019-10-16T20:52:53Z</time>
      </trkpt>
      <trkpt lat="-22.120368" lon="-45.128895">
        <ele>900.019</ele>
        <time>2019-10-16T20:52:55Z</time>
      </trkpt>
      <trkpt lat="-22.120424" lon="-45.128847">
        <ele>900.208</ele>
        <time>2019-10-16T20:52:59Z</time>
      </trkpt>
      <trkpt lat="-22.120415" lon="-45.128784">
        <ele>900.275</ele>
        <time>2019-10-16T20:53:02Z</time>
      </trkpt>
      <trkpt lat="-22.120392" lon="-45.128703">
        <ele>900.123</ele>
        <time>2019-10-16T20:53:05Z</time>
      </trkpt>
      <trkpt lat="-22.120383" lon="-45.128643">
        <ele>900.166</ele>
        <time>2019-10-16T20:53:08Z</time>
      </trkpt>
      <trkpt lat="-22.120433" lon="-45.128558">
        <ele>900.584</ele>
        <time>2019-10-16T20:53:10Z</time>
      </trkpt>
      <trkpt lat="-22.120395" lon="-45.128532">
        <ele>900.224</ele>
        <time>2019-10-16T20:54:39Z</time>
      </trkpt>
      <trkpt lat="-22.120409" lon="-45.128579">
        <ele>900.356</ele>
        <time>2019-10-16T20:57:03Z</time>
      </trkpt>
      <trkpt lat="-22.120424" lon="-45.128531">
        <ele>900.430</ele>
        <time>2019-10-16T21:02:18Z</time>
      </trkpt>
      <trkpt lat="-22.120427" lon="-45.128695">
        <ele>870.269</ele>
        <time>2019-10-17T11:42:01Z</time>
      </trkpt>
      <trkpt lat="-22.120362" lon="-45.128696">
        <ele>870.204</ele>
        <time>2019-10-17T11:42:03Z</time>
      </trkpt>
      <trkpt lat="-22.120401" lon="-45.128731">
        <ele>870.224</ele>
        <time>2019-10-17T11:42:06Z</time>
      </trkpt>
      <trkpt lat="-22.120433" lon="-45.128767">
        <ele>870.208</ele>
        <time>2019-10-17T11:47:06Z</time>
      </trkpt>
      <trkpt lat="-22.120456" lon="-45.128832">
        <ele>870.240</ele>
        <time>2019-10-17T11:47:27Z</time>
      </trkpt>
      <trkpt lat="-22.120487" lon="-45.128869">
        <ele>870.258</ele>
        <time>2019-10-17T11:47:33Z</time>
      </trkpt>
      <trkpt lat="-22.120522" lon="-45.128902">
        <ele>870.281</ele>
        <time>2019-10-17T11:47:38Z</time>
      </trkpt>
      <trkpt lat="-22.120566" lon="-45.128929">
        <ele>870.221</ele>
        <time>2019-10-17T11:47:42Z</time>
      </trkpt>
      <trkpt lat="-22.120619" lon="-45.128953">
        <ele>870.237</ele>
        <time>2019-10-17T11:47:47Z</time>
      </trkpt>
      <trkpt lat="-22.120665" lon="-45.128966">
        <ele>870.244</ele>
        <time>2019-10-17T11:47:50Z</time>
      </trkpt>
      <trkpt lat="-22.120654" lon="-45.129030">
        <ele>870.210</ele>
        <time>2019-10-17T11:51:37Z</time>
      </trkpt>
      <trkpt lat="-22.120788" lon="-45.129016">
        <ele>870.278</ele>
        <time>2019-10-17T11:52:46Z</time>
      </trkpt>
      <trkpt lat="-22.120842" lon="-45.129026">
        <ele>870.269</ele>
        <time>2019-10-17T11:52:53Z</time>
      </trkpt>
      <trkpt lat="-22.120872" lon="-45.128985">
        <ele>870.204</ele>
        <time>2019-10-17T11:52:57Z</time>
      </trkpt>
      <trkpt lat="-22.120901" lon="-45.128945">
        <ele>870.224</ele>
        <time>2019-10-17T11:52:58Z</time>
      </trkpt>
      <trkpt lat="-22.120922" lon="-45.128857">
        <ele>870.008</ele>
        <time>2019-10-17T11:53:02Z</time>
      </trkpt>
      <trkpt lat="-22.120921" lon="-45.128802">
        <ele>870.450</ele>
        <time>2019-10-17T11:53:04Z</time>
      </trkpt>
      <trkpt lat="-22.120904" lon="-45.128755">
        <ele>870.488</ele>
        <time>2019-10-17T11:53:24Z</time>
      </trkpt>
      <trkpt lat="-22.120849" lon="-45.128668">
        <ele>870.091</ele>
        <time>2019-10-17T11:53:41Z</time>
      </trkpt>
      <trkpt lat="-22.120832" lon="-45.128617">
        <ele>869.661</ele>
        <time>2019-10-17T11:53:43Z</time>
      </trkpt>
      <trkpt lat="-22.120804" lon="-45.128556">
        <ele>869.737</ele>
        <time>2019-10-17T11:53:45Z</time>
      </trkpt>
      <trkpt lat="-22.120787" lon="-45.128500">
        <ele>869.694</ele>
        <time>2019-10-17T11:53:47Z</time>
      </trkpt>
      <trkpt lat="-22.120761" lon="-45.128428">
        <ele>869.650</ele>
        <time>2019-10-17T11:53:49Z</time>
      </trkpt>
      <trkpt lat="-22.120735" lon="-45.128347">
        <ele>869.918</ele>
        <time>2019-10-17T11:53:51Z</time>
      </trkpt>
      <trkpt lat="-22.120714" lon="-45.128296">
        <ele>870.163</ele>
        <time>2019-10-17T11:53:53Z</time>
      </trkpt>
      <trkpt lat="-22.120691" lon="-45.128230">
        <ele>870.344</ele>
        <time>2019-10-17T11:53:55Z</time>
      </trkpt>
      <trkpt lat="-22.120668" lon="-45.128167">
        <ele>870.118</ele>
        <time>2019-10-17T11:53:57Z</time>
      </trkpt>
      <trkpt lat="-22.120645" lon="-45.128095">
        <ele>870.408</ele>
        <time>2019-10-17T11:53:59Z</time>
      </trkpt>
      <trkpt lat="-22.120624" lon="-45.128035">
        <ele>870.810</ele>
        <time>2019-10-17T11:54:01Z</time>
      </trkpt>
      <trkpt lat="-22.120595" lon="-45.127964">
        <ele>871.088</ele>
        <time>2019-10-17T11:54:04Z</time>
      </trkpt>
      <trkpt lat="-22.120572" lon="-45.127911">
        <ele>870.931</ele>
        <time>2019-10-17T11:54:06Z</time>
      </trkpt>
      <trkpt lat="-22.120553" lon="-45.127863">
        <ele>870.921</ele>
        <time>2019-10-17T11:54:07Z</time>
      </trkpt>
      <trkpt lat="-22.120536" lon="-45.127810">
        <ele>870.947</ele>
        <time>2019-10-17T11:54:09Z</time>
      </trkpt>
      <trkpt lat="-22.120517" lon="-45.127751">
        <ele>871.034</ele>
        <time>2019-10-17T11:54:11Z</time>
      </trkpt>
      <trkpt lat="-22.120499" lon="-45.127699">
        <ele>871.230</ele>
        <time>2019-10-17T11:54:13Z</time>
      </trkpt>
      <trkpt lat="-22.120474" lon="-45.127639">
        <ele>871.598</ele>
        <time>2019-10-17T11:54:15Z</time>
      </trkpt>
      <trkpt lat="-22.120453" lon="-45.127579">
        <ele>871.868</ele>
        <time>2019-10-17T11:54:17Z</time>
      </trkpt>
      <trkpt lat="-22.120433" lon="-45.127535">
        <ele>871.642</ele>
        <time>2019-10-17T11:54:19Z</time>
      </trkpt>
      <trkpt lat="-22.120387" lon="-45.127393">
        <ele>871.426</ele>
        <time>2019-10-17T11:54:22Z</time>
      </trkpt>
      <trkpt lat="-22.120357" lon="-45.127286">
        <ele>871.908</ele>
        <time>2019-10-17T11:54:25Z</time>
      </trkpt>
      <trkpt lat="-22.120325" lon="-45.127231">
        <ele>871.910</ele>
        <time>2019-10-17T11:54:27Z</time>
      </trkpt>
      <trkpt lat="-22.120304" lon="-45.127185">
        <ele>871.918</ele>
        <time>2019-10-17T11:54:28Z</time>
      </trkpt>
      <trkpt lat="-22.120278" lon="-45.127112">
        <ele>872.081</ele>
        <time>2019-10-17T11:54:29Z</time>
      </trkpt>
      <trkpt lat="-22.120253" lon="-45.127048">
        <ele>872.221</ele>
        <time>2019-10-17T11:54:31Z</time>
      </trkpt>
      <trkpt lat="-22.120213" lon="-45.126943">
        <ele>872.877</ele>
        <time>2019-10-17T11:54:34Z</time>
      </trkpt>
      <trkpt lat="-22.120197" lon="-45.126892">
        <ele>873.184</ele>
        <time>2019-10-17T11:54:35Z</time>
      </trkpt>
      <trkpt lat="-22.120177" lon="-45.126824">
        <ele>873.320</ele>
        <time>2019-10-17T11:54:37Z</time>
      </trkpt>
      <trkpt lat="-22.120152" lon="-45.126742">
        <ele>873.728</ele>
        <time>2019-10-17T11:54:39Z</time>
      </trkpt>
      <trkpt lat="-22.120135" lon="-45.126694">
        <ele>873.974</ele>
        <time>2019-10-17T11:54:40Z</time>
      </trkpt>
      <trkpt lat="-22.120109" lon="-45.126619">
        <ele>874.056</ele>
        <time>2019-10-17T11:54:42Z</time>
      </trkpt>
      <trkpt lat="-22.120093" lon="-45.126564">
        <ele>874.521</ele>
        <time>2019-10-17T11:54:44Z</time>
      </trkpt>
      <trkpt lat="-22.120068" lon="-45.126487">
        <ele>874.808</ele>
        <time>2019-10-17T11:54:46Z</time>
      </trkpt>
      <trkpt lat="-22.120044" lon="-45.126419">
        <ele>874.951</ele>
        <time>2019-10-17T11:54:48Z</time>
      </trkpt>
      <trkpt lat="-22.120023" lon="-45.126369">
        <ele>875.149</ele>
        <time>2019-10-17T11:54:50Z</time>
      </trkpt>
      <trkpt lat="-22.120001" lon="-45.126312">
        <ele>875.332</ele>
        <time>2019-10-17T11:54:52Z</time>
      </trkpt>
      <trkpt lat="-22.119971" lon="-45.126244">
        <ele>875.842</ele>
        <time>2019-10-17T11:54:54Z</time>
      </trkpt>
      <trkpt lat="-22.119952" lon="-45.126194">
        <ele>876.138</ele>
        <time>2019-10-17T11:54:56Z</time>
      </trkpt>
      <trkpt lat="-22.119933" lon="-45.126130">
        <ele>876.275</ele>
        <time>2019-10-17T11:54:58Z</time>
      </trkpt>
      <trkpt lat="-22.119913" lon="-45.126069">
        <ele>876.671</ele>
        <time>2019-10-17T11:55:00Z</time>
      </trkpt>
      <trkpt lat="-22.119901" lon="-45.126021">
        <ele>876.829</ele>
        <time>2019-10-17T11:55:02Z</time>
      </trkpt>
      <trkpt lat="-22.119886" lon="-45.125975">
        <ele>877.129</ele>
        <time>2019-10-17T11:55:03Z</time>
      </trkpt>
      <trkpt lat="-22.119860" lon="-45.125898">
        <ele>877.300</ele>
        <time>2019-10-17T11:55:06Z</time>
      </trkpt>
      <trkpt lat="-22.119841" lon="-45.125846">
        <ele>877.720</ele>
        <time>2019-10-17T11:55:08Z</time>
      </trkpt>
      <trkpt lat="-22.119827" lon="-45.125787">
        <ele>877.808</ele>
        <time>2019-10-17T11:55:10Z</time>
      </trkpt>
      <trkpt lat="-22.119803" lon="-45.125713">
        <ele>878.396</ele>
        <time>2019-10-17T11:55:12Z</time>
      </trkpt>
      <trkpt lat="-22.119781" lon="-45.125654">
        <ele>878.544</ele>
        <time>2019-10-17T11:55:15Z</time>
      </trkpt>
      <trkpt lat="-22.119742" lon="-45.125553">
        <ele>879.467</ele>
        <time>2019-10-17T11:55:18Z</time>
      </trkpt>
      <trkpt lat="-22.119715" lon="-45.125481">
        <ele>879.347</ele>
        <time>2019-10-17T11:55:21Z</time>
      </trkpt>
      <trkpt lat="-22.119700" lon="-45.125435">
        <ele>879.713</ele>
        <time>2019-10-17T11:55:23Z</time>
      </trkpt>
      <trkpt lat="-22.119679" lon="-45.125381">
        <ele>879.790</ele>
        <time>2019-10-17T11:55:25Z</time>
      </trkpt>
      <trkpt lat="-22.119661" lon="-45.125335">
        <ele>880.036</ele>
        <time>2019-10-17T11:55:27Z</time>
      </trkpt>
      <trkpt lat="-22.119635" lon="-45.125261">
        <ele>880.484</ele>
        <time>2019-10-17T11:55:29Z</time>
      </trkpt>
      <trkpt lat="-22.119613" lon="-45.125205">
        <ele>880.458</ele>
        <time>2019-10-17T11:55:31Z</time>
      </trkpt>
      <trkpt lat="-22.119594" lon="-45.125151">
        <ele>880.752</ele>
        <time>2019-10-17T11:55:34Z</time>
      </trkpt>
      <trkpt lat="-22.119570" lon="-45.125093">
        <ele>880.917</ele>
        <time>2019-10-17T11:55:36Z</time>
      </trkpt>
      <trkpt lat="-22.119549" lon="-45.125036">
        <ele>881.208</ele>
        <time>2019-10-17T11:55:38Z</time>
      </trkpt>
      <trkpt lat="-22.119530" lon="-45.124980">
        <ele>881.459</ele>
        <time>2019-10-17T11:55:40Z</time>
      </trkpt>
      <trkpt lat="-22.119515" lon="-45.124929">
        <ele>881.337</ele>
        <time>2019-10-17T11:55:41Z</time>
      </trkpt>
      <trkpt lat="-22.119499" lon="-45.124877">
        <ele>881.720</ele>
        <time>2019-10-17T11:55:43Z</time>
      </trkpt>
      <trkpt lat="-22.119476" lon="-45.124808">
        <ele>881.990</ele>
        <time>2019-10-17T11:55:45Z</time>
      </trkpt>
      <trkpt lat="-22.119462" lon="-45.124759">
        <ele>881.876</ele>
        <time>2019-10-17T11:55:47Z</time>
      </trkpt>
      <trkpt lat="-22.119437" lon="-45.124696">
        <ele>882.183</ele>
        <time>2019-10-17T11:55:49Z</time>
      </trkpt>
      <trkpt lat="-22.119411" lon="-45.124639">
        <ele>882.459</ele>
        <time>2019-10-17T11:55:51Z</time>
      </trkpt>
      <trkpt lat="-22.119399" lon="-45.124589">
        <ele>882.527</ele>
        <time>2019-10-17T11:55:52Z</time>
      </trkpt>
      <trkpt lat="-22.119380" lon="-45.124530">
        <ele>882.822</ele>
        <time>2019-10-17T11:55:55Z</time>
      </trkpt>
      <trkpt lat="-22.119359" lon="-45.124474">
        <ele>883.162</ele>
        <time>2019-10-17T11:55:57Z</time>
      </trkpt>
      <trkpt lat="-22.119330" lon="-45.124398">
        <ele>882.908</ele>
        <time>2019-10-17T11:55:59Z</time>
      </trkpt>
      <trkpt lat="-22.119293" lon="-45.124312">
        <ele>883.208</ele>
        <time>2019-10-17T11:56:02Z</time>
      </trkpt>
      <trkpt lat="-22.119274" lon="-45.124255">
        <ele>883.336</ele>
        <time>2019-10-17T11:56:04Z</time>
      </trkpt>
      <trkpt lat="-22.119258" lon="-45.124204">
        <ele>883.364</ele>
        <time>2019-10-17T11:56:05Z</time>
      </trkpt>
      <trkpt lat="-22.119229" lon="-45.124151">
        <ele>883.127</ele>
        <time>2019-10-17T11:56:07Z</time>
      </trkpt>
      <trkpt lat="-22.119212" lon="-45.124093">
        <ele>882.957</ele>
        <time>2019-10-17T11:56:09Z</time>
      </trkpt>
      <trkpt lat="-22.119175" lon="-45.123967">
        <ele>882.623</ele>
        <time>2019-10-17T11:56:12Z</time>
      </trkpt>
      <trkpt lat="-22.119152" lon="-45.123897">
        <ele>882.760</ele>
        <time>2019-10-17T11:56:14Z</time>
      </trkpt>
      <trkpt lat="-22.119138" lon="-45.123847">
        <ele>882.986</ele>
        <time>2019-10-17T11:56:15Z</time>
      </trkpt>
      <trkpt lat="-22.119118" lon="-45.123783">
        <ele>882.934</ele>
        <time>2019-10-17T11:56:17Z</time>
      </trkpt>
      <trkpt lat="-22.119098" lon="-45.123704">
        <ele>883.012</ele>
        <time>2019-10-17T11:56:19Z</time>
      </trkpt>
      <trkpt lat="-22.119085" lon="-45.123647">
        <ele>882.632</ele>
        <time>2019-10-17T11:56:21Z</time>
      </trkpt>
      <trkpt lat="-22.119068" lon="-45.123570">
        <ele>882.005</ele>
        <time>2019-10-17T11:56:23Z</time>
      </trkpt>
      <trkpt lat="-22.119050" lon="-45.123488">
        <ele>881.908</ele>
        <time>2019-10-17T11:56:25Z</time>
      </trkpt>
      <trkpt lat="-22.119031" lon="-45.123413">
        <ele>882.395</ele>
        <time>2019-10-17T11:56:27Z</time>
      </trkpt>
      <trkpt lat="-22.119015" lon="-45.123353">
        <ele>882.183</ele>
        <time>2019-10-17T11:56:28Z</time>
      </trkpt>
      <trkpt lat="-22.119010" lon="-45.123297">
        <ele>881.856</ele>
        <time>2019-10-17T11:56:30Z</time>
      </trkpt>
      <trkpt lat="-22.118999" lon="-45.123160">
        <ele>881.896</ele>
        <time>2019-10-17T11:56:33Z</time>
      </trkpt>
      <trkpt lat="-22.118991" lon="-45.122724">
        <ele>881.052</ele>
        <time>2019-10-17T11:56:42Z</time>
      </trkpt>
      <trkpt lat="-22.119001" lon="-45.122647">
        <ele>881.759</ele>
        <time>2019-10-17T11:56:45Z</time>
      </trkpt>
      <trkpt lat="-22.119011" lon="-45.122562">
        <ele>881.435</ele>
        <time>2019-10-17T11:56:47Z</time>
      </trkpt>
      <trkpt lat="-22.119028" lon="-45.122474">
        <ele>881.173</ele>
        <time>2019-10-17T11:56:49Z</time>
      </trkpt>
      <trkpt lat="-22.119038" lon="-45.122400">
        <ele>880.816</ele>
        <time>2019-10-17T11:56:51Z</time>
      </trkpt>
      <trkpt lat="-22.119053" lon="-45.122315">
        <ele>880.876</ele>
        <time>2019-10-17T11:56:53Z</time>
      </trkpt>
      <trkpt lat="-22.119070" lon="-45.122235">
        <ele>880.813</ele>
        <time>2019-10-17T11:56:55Z</time>
      </trkpt>
      <trkpt lat="-22.119088" lon="-45.122144">
        <ele>881.108</ele>
        <time>2019-10-17T11:56:57Z</time>
      </trkpt>
      <trkpt lat="-22.119103" lon="-45.122084">
        <ele>881.075</ele>
        <time>2019-10-17T11:56:59Z</time>
      </trkpt>
      <trkpt lat="-22.119121" lon="-45.122025">
        <ele>881.043</ele>
        <time>2019-10-17T11:57:00Z</time>
      </trkpt>
      <trkpt lat="-22.119137" lon="-45.121975">
        <ele>881.076</ele>
        <time>2019-10-17T11:57:02Z</time>
      </trkpt>
      <trkpt lat="-22.119155" lon="-45.121916">
        <ele>880.866</ele>
        <time>2019-10-17T11:57:03Z</time>
      </trkpt>
      <trkpt lat="-22.119193" lon="-45.121824">
        <ele>881.172</ele>
        <time>2019-10-17T11:57:06Z</time>
      </trkpt>
      <trkpt lat="-22.119213" lon="-45.121767">
        <ele>880.919</ele>
        <time>2019-10-17T11:57:08Z</time>
      </trkpt>
      <trkpt lat="-22.119244" lon="-45.121705">
        <ele>880.615</ele>
        <time>2019-10-17T11:57:09Z</time>
      </trkpt>
      <trkpt lat="-22.119266" lon="-45.121647">
        <ele>880.953</ele>
        <time>2019-10-17T11:57:11Z</time>
      </trkpt>
      <trkpt lat="-22.119290" lon="-45.121595">
        <ele>881.053</ele>
        <time>2019-10-17T11:57:13Z</time>
      </trkpt>
      <trkpt lat="-22.119314" lon="-45.121543">
        <ele>880.704</ele>
        <time>2019-10-17T11:57:14Z</time>
      </trkpt>
      <trkpt lat="-22.122242" lon="-45.119024">
        <ele>870.714</ele>
        <time>2019-10-17T11:58:10Z</time>
      </trkpt>
      <trkpt lat="-22.122309" lon="-45.118980">
        <ele>871.208</ele>
        <time>2019-10-17T11:58:13Z</time>
      </trkpt>
      <trkpt lat="-22.122370" lon="-45.118937">
        <ele>871.769</ele>
        <time>2019-10-17T11:58:16Z</time>
      </trkpt>
      <trkpt lat="-22.122413" lon="-45.118914">
        <ele>872.037</ele>
        <time>2019-10-17T11:58:18Z</time>
      </trkpt>
      <trkpt lat="-22.122435" lon="-45.118964">
        <ele>872.340</ele>
        <time>2019-10-17T11:58:22Z</time>
      </trkpt>
      <trkpt lat="-22.122390" lon="-45.118982">
        <ele>871.940</ele>
        <time>2019-10-17T11:58:24Z</time>
      </trkpt>
      <trkpt lat="-22.122339" lon="-45.118985">
        <ele>871.736</ele>
        <time>2019-10-17T11:58:25Z</time>
      </trkpt>
      <trkpt lat="-22.122289" lon="-45.119034">
        <ele>871.193</ele>
        <time>2019-10-17T11:58:31Z</time>
      </trkpt>
      <trkpt lat="-22.122246" lon="-45.119000">
        <ele>871.279</ele>
        <time>2019-10-17T11:58:36Z</time>
      </trkpt>
      <trkpt lat="-22.122229" lon="-45.118904">
        <ele>871.267</ele>
        <time>2019-10-17T11:58:39Z</time>
      </trkpt>
      <trkpt lat="-22.122213" lon="-45.118841">
        <ele>870.723</ele>
        <time>2019-10-17T11:58:41Z</time>
      </trkpt>
      <trkpt lat="-22.122193" lon="-45.118757">
        <ele>870.083</ele>
        <time>2019-10-17T11:58:44Z</time>
      </trkpt>
      <trkpt lat="-22.122161" lon="-45.118678">
        <ele>869.811</ele>
        <time>2019-10-17T11:58:46Z</time>
      </trkpt>
      <trkpt lat="-22.122149" lon="-45.118621">
        <ele>869.708</ele>
        <time>2019-10-17T11:58:48Z</time>
      </trkpt>
      <trkpt lat="-22.122130" lon="-45.118539">
        <ele>869.646</ele>
        <time>2019-10-17T11:58:50Z</time>
      </trkpt>
      <trkpt lat="-22.122115" lon="-45.118473">
        <ele>869.114</ele>
        <time>2019-10-17T11:58:52Z</time>
      </trkpt>
      <trkpt lat="-22.121788" lon="-45.117354">
        <ele>864.717</ele>
        <time>2019-10-17T11:59:17Z</time>
      </trkpt>
      <trkpt lat="-22.121776" lon="-45.117307">
        <ele>865.077</ele>
        <time>2019-10-17T11:59:19Z</time>
      </trkpt>
      <trkpt lat="-22.121733" lon="-45.117211">
        <ele>865.363</ele>
        <time>2019-10-17T11:59:21Z</time>
      </trkpt>
      <trkpt lat="-22.121710" lon="-45.117153">
        <ele>864.850</ele>
        <time>2019-10-17T11:59:23Z</time>
      </trkpt>
      <trkpt lat="-22.121683" lon="-45.117103">
        <ele>864.676</ele>
        <time>2019-10-17T11:59:24Z</time>
      </trkpt>
      <trkpt lat="-22.121660" lon="-45.117043">
        <ele>864.914</ele>
        <time>2019-10-17T11:59:26Z</time>
      </trkpt>
      <trkpt lat="-22.121634" lon="-45.116965">
        <ele>864.647</ele>
        <time>2019-10-17T11:59:28Z</time>
      </trkpt>
      <trkpt lat="-22.121615" lon="-45.116907">
        <ele>864.729</ele>
        <time>2019-10-17T11:59:29Z</time>
      </trkpt>
      <trkpt lat="-22.121598" lon="-45.116860">
        <ele>864.821</ele>
        <time>2019-10-17T11:59:31Z</time>
      </trkpt>
      <trkpt lat="-22.121581" lon="-45.116813">
        <ele>864.808</ele>
        <time>2019-10-17T11:59:33Z</time>
      </trkpt>
      <trkpt lat="-22.121558" lon="-45.116749">
        <ele>864.848</ele>
        <time>2019-10-17T11:59:35Z</time>
      </trkpt>
      <trkpt lat="-22.121542" lon="-45.116702">
        <ele>865.186</ele>
        <time>2019-10-17T11:59:36Z</time>
      </trkpt>
      <trkpt lat="-22.121524" lon="-45.116644">
        <ele>864.819</ele>
        <time>2019-10-17T11:59:38Z</time>
      </trkpt>
      <trkpt lat="-22.121505" lon="-45.116568">
        <ele>864.959</ele>
        <time>2019-10-17T11:59:40Z</time>
      </trkpt>
      <trkpt lat="-22.121493" lon="-45.116511">
        <ele>865.195</ele>
        <time>2019-10-17T11:59:42Z</time>
      </trkpt>
      <trkpt lat="-22.121480" lon="-45.116459">
        <ele>865.462</ele>
        <time>2019-10-17T11:59:43Z</time>
      </trkpt>
      <trkpt lat="-22.121469" lon="-45.116403">
        <ele>865.598</ele>
        <time>2019-10-17T11:59:45Z</time>
      </trkpt>
      <trkpt lat="-22.121458" lon="-45.116330">
        <ele>865.676</ele>
        <time>2019-10-17T11:59:47Z</time>
      </trkpt>
      <trkpt lat="-22.121443" lon="-45.116256">
        <ele>865.566</ele>
        <time>2019-10-17T11:59:50Z</time>
      </trkpt>
      <trkpt lat="-22.121431" lon="-45.116188">
        <ele>865.529</ele>
        <time>2019-10-17T11:59:52Z</time>
      </trkpt>
      <trkpt lat="-22.121418" lon="-45.116126">
        <ele>865.221</ele>
        <time>2019-10-17T11:59:54Z</time>
      </trkpt>
      <trkpt lat="-22.121407" lon="-45.116068">
        <ele>865.308</ele>
        <time>2019-10-17T11:59:55Z</time>
      </trkpt>
      <trkpt lat="-22.121389" lon="-45.116003">
        <ele>865.120</ele>
        <time>2019-10-17T11:59:57Z</time>
      </trkpt>
      <trkpt lat="-22.121108" lon="-45.115760">
        <ele>863.988</ele>
        <time>2019-10-17T12:00:05Z</time>
      </trkpt>
      <trkpt lat="-22.120349" lon="-45.115304">
        <ele>862.211</ele>
        <time>2019-10-17T12:00:25Z</time>
      </trkpt>
      <trkpt lat="-22.120307" lon="-45.115268">
        <ele>862.161</ele>
        <time>2019-10-17T12:00:28Z</time>
      </trkpt>
      <trkpt lat="-22.120239" lon="-45.115229">
        <ele>861.937</ele>
        <time>2019-10-17T12:00:30Z</time>
      </trkpt>
      <trkpt lat="-22.120190" lon="-45.115191">
        <ele>861.724</ele>
        <time>2019-10-17T12:00:31Z</time>
      </trkpt>
      <trkpt lat="-22.120097" lon="-45.115128">
        <ele>862.040</ele>
        <time>2019-10-17T12:00:34Z</time>
      </trkpt>
      <trkpt lat="-22.120043" lon="-45.115100">
        <ele>861.628</ele>
        <time>2019-10-17T12:00:36Z</time>
      </trkpt>
      <trkpt lat="-22.119987" lon="-45.115072">
        <ele>861.878</ele>
        <time>2019-10-17T12:00:37Z</time>
      </trkpt>
      <trkpt lat="-22.119938" lon="-45.115039">
        <ele>861.633</ele>
        <time>2019-10-17T12:00:39Z</time>
      </trkpt>
      <trkpt lat="-22.119877" lon="-45.115018">
        <ele>861.726</ele>
        <time>2019-10-17T12:00:40Z</time>
      </trkpt>
      <trkpt lat="-22.119824" lon="-45.114996">
        <ele>861.908</ele>
        <time>2019-10-17T12:00:42Z</time>
      </trkpt>
      <trkpt lat="-22.119779" lon="-45.114972">
        <ele>862.151</ele>
        <time>2019-10-17T12:00:44Z</time>
      </trkpt>
      <trkpt lat="-22.119690" lon="-45.114921">
        <ele>862.049</ele>
        <time>2019-10-17T12:00:47Z</time>
      </trkpt>
      <trkpt lat="-22.119639" lon="-45.114889">
        <ele>862.112</ele>
        <time>2019-10-17T12:00:49Z</time>
      </trkpt>
      <trkpt lat="-22.119593" lon="-45.114858">
        <ele>861.912</ele>
        <time>2019-10-17T12:00:50Z</time>
      </trkpt>
      <trkpt lat="-22.119548" lon="-45.114819">
        <ele>861.798</ele>
        <time>2019-10-17T12:00:52Z</time>
      </trkpt>
      <trkpt lat="-22.119484" lon="-45.114758">
        <ele>861.645</ele>
        <time>2019-10-17T12:00:54Z</time>
      </trkpt>
      <trkpt lat="-22.119447" lon="-45.114722">
        <ele>861.631</ele>
        <time>2019-10-17T12:00:55Z</time>
      </trkpt>
      <trkpt lat="-22.119404" lon="-45.114675">
        <ele>861.489</ele>
        <time>2019-10-17T12:00:57Z</time>
      </trkpt>
      <trkpt lat="-22.119366" lon="-45.114615">
        <ele>861.629</ele>
        <time>2019-10-17T12:00:59Z</time>
      </trkpt>
      <trkpt lat="-22.119344" lon="-45.114550">
        <ele>861.700</ele>
        <time>2019-10-17T12:01:01Z</time>
      </trkpt>
      <trkpt lat="-22.119322" lon="-45.114491">
        <ele>861.320</ele>
        <time>2019-10-17T12:01:02Z</time>
      </trkpt>
      <trkpt lat="-22.119309" lon="-45.114430">
        <ele>861.108</ele>
        <time>2019-10-17T12:01:04Z</time>
      </trkpt>
      <trkpt lat="-22.119292" lon="-45.114357">
        <ele>861.316</ele>
        <time>2019-10-17T12:01:06Z</time>
      </trkpt>
      <trkpt lat="-22.119261" lon="-45.114298">
        <ele>861.484</ele>
        <time>2019-10-17T12:01:08Z</time>
      </trkpt>
      <trkpt lat="-22.119235" lon="-45.114239">
        <ele>861.557</ele>
        <time>2019-10-17T12:01:09Z</time>
      </trkpt>
      <trkpt lat="-22.119208" lon="-45.114185">
        <ele>861.277</ele>
        <time>2019-10-17T12:01:11Z</time>
      </trkpt>
      <trkpt lat="-22.119176" lon="-45.114134">
        <ele>861.383</ele>
        <time>2019-10-17T12:01:13Z</time>
      </trkpt>
      <trkpt lat="-22.119124" lon="-45.114074">
        <ele>861.140</ele>
        <time>2019-10-17T12:01:15Z</time>
      </trkpt>
      <trkpt lat="-22.119074" lon="-45.114031">
        <ele>861.386</ele>
        <time>2019-10-17T12:01:16Z</time>
      </trkpt>
      <trkpt lat="-22.119031" lon="-45.114006">
        <ele>861.274</ele>
        <time>2019-10-17T12:01:18Z</time>
      </trkpt>
      <trkpt lat="-22.118992" lon="-45.113980">
        <ele>861.515</ele>
        <time>2019-10-17T12:01:19Z</time>
      </trkpt>
      <trkpt lat="-22.118912" lon="-45.113902">
        <ele>861.665</ele>
        <time>2019-10-17T12:01:21Z</time>
      </trkpt>
      <trkpt lat="-22.118866" lon="-45.113858">
        <ele>861.311</ele>
        <time>2019-10-17T12:01:23Z</time>
      </trkpt>
      <trkpt lat="-22.118811" lon="-45.113805">
        <ele>861.308</ele>
        <time>2019-10-17T12:01:25Z</time>
      </trkpt>
      <trkpt lat="-22.118769" lon="-45.113756">
        <ele>861.245</ele>
        <time>2019-10-17T12:01:27Z</time>
      </trkpt>
      <trkpt lat="-22.118688" lon="-45.113679">
        <ele>862.053</ele>
        <time>2019-10-17T12:01:30Z</time>
      </trkpt>
      <trkpt lat="-22.118645" lon="-45.113637">
        <ele>862.126</ele>
        <time>2019-10-17T12:01:32Z</time>
      </trkpt>
      <trkpt lat="-22.118607" lon="-45.113606">
        <ele>862.126</ele>
        <time>2019-10-17T12:01:33Z</time>
      </trkpt>
      <trkpt lat="-22.118562" lon="-45.113571">
        <ele>862.332</ele>
        <time>2019-10-17T12:01:35Z</time>
      </trkpt>
      <trkpt lat="-22.118465" lon="-45.113524">
        <ele>862.629</ele>
        <time>2019-10-17T12:01:39Z</time>
      </trkpt>
      <trkpt lat="-22.118416" lon="-45.113505">
        <ele>862.915</ele>
        <time>2019-10-17T12:01:40Z</time>
      </trkpt>
      <trkpt lat="-22.118361" lon="-45.113477">
        <ele>864.183</ele>
        <time>2019-10-17T12:01:43Z</time>
      </trkpt>
      <trkpt lat="-22.118315" lon="-45.113452">
        <ele>864.449</ele>
        <time>2019-10-17T12:01:45Z</time>
      </trkpt>
      <trkpt lat="-22.118276" lon="-45.113421">
        <ele>865.302</ele>
        <time>2019-10-17T12:01:48Z</time>
      </trkpt>
      <trkpt lat="-22.118229" lon="-45.113390">
        <ele>866.522</ele>
        <time>2019-10-17T12:01:51Z</time>
      </trkpt>
      <trkpt lat="-22.118176" lon="-45.113374">
        <ele>867.308</ele>
        <time>2019-10-17T12:01:54Z</time>
      </trkpt>
      <trkpt lat="-22.118136" lon="-45.113344">
        <ele>867.618</ele>
        <time>2019-10-17T12:01:57Z</time>
      </trkpt>
      <trkpt lat="-22.118090" lon="-45.113309">
        <ele>867.926</ele>
        <time>2019-10-17T12:01:59Z</time>
      </trkpt>
      <trkpt lat="-22.118041" lon="-45.113275">
        <ele>868.119</ele>
        <time>2019-10-17T12:02:01Z</time>
      </trkpt>
      <trkpt lat="-22.118004" lon="-45.113243">
        <ele>868.739</ele>
        <time>2019-10-17T12:02:03Z</time>
      </trkpt>
      <trkpt lat="-22.117964" lon="-45.113205">
        <ele>868.565</ele>
        <time>2019-10-17T12:02:05Z</time>
      </trkpt>
      <trkpt lat="-22.117931" lon="-45.113167">
        <ele>868.262</ele>
        <time>2019-10-17T12:02:07Z</time>
      </trkpt>
      <trkpt lat="-22.117878" lon="-45.113133">
        <ele>867.778</ele>
        <time>2019-10-17T12:02:09Z</time>
      </trkpt>
      <trkpt lat="-22.117780" lon="-45.113074">
        <ele>867.666</ele>
        <time>2019-10-17T12:02:11Z</time>
      </trkpt>
      <trkpt lat="-22.117680" lon="-45.113014">
        <ele>867.251</ele>
        <time>2019-10-17T12:02:15Z</time>
      </trkpt>
      <trkpt lat="-22.117639" lon="-45.112985">
        <ele>867.301</ele>
        <time>2019-10-17T12:02:16Z</time>
      </trkpt>
      <trkpt lat="-22.117597" lon="-45.112955">
        <ele>867.011</ele>
        <time>2019-10-17T12:02:18Z</time>
      </trkpt>
      <trkpt lat="-22.117547" lon="-45.112922">
        <ele>867.208</ele>
        <time>2019-10-17T12:02:20Z</time>
      </trkpt>
      <trkpt lat="-22.117478" lon="-45.112884">
        <ele>866.479</ele>
        <time>2019-10-17T12:02:23Z</time>
      </trkpt>
      <trkpt lat="-22.117424" lon="-45.112857">
        <ele>866.597</ele>
        <time>2019-10-17T12:02:26Z</time>
      </trkpt>
      <trkpt lat="-22.117345" lon="-45.112815">
        <ele>866.320</ele>
        <time>2019-10-17T12:02:27Z</time>
      </trkpt>
      <trkpt lat="-22.117267" lon="-45.112768">
        <ele>866.610</ele>
        <time>2019-10-17T12:02:29Z</time>
      </trkpt>
      <trkpt lat="-22.117221" lon="-45.112746">
        <ele>866.736</ele>
        <time>2019-10-17T12:02:30Z</time>
      </trkpt>
      <trkpt lat="-22.117162" lon="-45.112717">
        <ele>866.713</ele>
        <time>2019-10-17T12:02:32Z</time>
      </trkpt>
      <trkpt lat="-22.117095" lon="-45.112679">
        <ele>866.479</ele>
        <time>2019-10-17T12:02:34Z</time>
      </trkpt>
      <trkpt lat="-22.117047" lon="-45.112649">
        <ele>866.027</ele>
        <time>2019-10-17T12:02:35Z</time>
      </trkpt>
      <trkpt lat="-22.116999" lon="-45.112614">
        <ele>866.315</ele>
        <time>2019-10-17T12:02:37Z</time>
      </trkpt>
      <trkpt lat="-22.116947" lon="-45.112571">
        <ele>866.565</ele>
        <time>2019-10-17T12:02:39Z</time>
      </trkpt>
      <trkpt lat="-22.116906" lon="-45.112538">
        <ele>866.411</ele>
        <time>2019-10-17T12:02:40Z</time>
      </trkpt>
      <trkpt lat="-22.116853" lon="-45.112510">
        <ele>866.708</ele>
        <time>2019-10-17T12:02:42Z</time>
      </trkpt>
      <trkpt lat="-22.116801" lon="-45.112471">
        <ele>866.675</ele>
        <time>2019-10-17T12:02:44Z</time>
      </trkpt>
      <trkpt lat="-22.116721" lon="-45.112407">
        <ele>866.843</ele>
        <time>2019-10-17T12:02:46Z</time>
      </trkpt>
      <trkpt lat="-22.116671" lon="-45.112373">
        <ele>866.866</ele>
        <time>2019-10-17T12:02:48Z</time>
      </trkpt>
      <trkpt lat="-22.116608" lon="-45.112331">
        <ele>866.476</ele>
        <time>2019-10-17T12:02:50Z</time>
      </trkpt>
      <trkpt lat="-22.116550" lon="-45.112270">
        <ele>866.872</ele>
        <time>2019-10-17T12:02:52Z</time>
      </trkpt>
      <trkpt lat="-22.116499" lon="-45.112213">
        <ele>866.119</ele>
        <time>2019-10-17T12:02:54Z</time>
      </trkpt>
      <trkpt lat="-22.116465" lon="-45.112162">
        <ele>866.045</ele>
        <time>2019-10-17T12:02:56Z</time>
      </trkpt>
      <trkpt lat="-22.116428" lon="-45.112111">
        <ele>866.283</ele>
        <time>2019-10-17T12:02:58Z</time>
      </trkpt>
      <trkpt lat="-22.116398" lon="-45.112074">
        <ele>866.232</ele>
        <time>2019-10-17T12:02:59Z</time>
      </trkpt>
      <trkpt lat="-22.114633" lon="-45.110695">
        <ele>861.792</ele>
        <time>2019-10-17T12:03:47Z</time>
      </trkpt>
      <trkpt lat="-22.114585" lon="-45.110690">
        <ele>861.911</ele>
        <time>2019-10-17T12:03:48Z</time>
      </trkpt>
      <trkpt lat="-22.114524" lon="-45.110689">
        <ele>861.808</ele>
        <time>2019-10-17T12:03:50Z</time>
      </trkpt>
      <trkpt lat="-22.114471" lon="-45.110689">
        <ele>861.877</ele>
        <time>2019-10-17T12:03:51Z</time>
      </trkpt>
      <trkpt lat="-22.114405" lon="-45.110699">
        <ele>863.395</ele>
        <time>2019-10-17T12:03:54Z</time>
      </trkpt>
      <trkpt lat="-22.114349" lon="-45.110726">
        <ele>864.578</ele>
        <time>2019-10-17T12:03:57Z</time>
      </trkpt>
      <trkpt lat="-22.114294" lon="-45.110750">
        <ele>865.528</ele>
        <time>2019-10-17T12:03:59Z</time>
      </trkpt>
      <trkpt lat="-22.114249" lon="-45.110769">
        <ele>865.794</ele>
        <time>2019-10-17T12:04:01Z</time>
      </trkpt>
      <trkpt lat="-22.114199" lon="-45.110789">
        <ele>866.181</ele>
        <time>2019-10-17T12:04:03Z</time>
      </trkpt>
      <trkpt lat="-22.114155" lon="-45.110809">
        <ele>866.097</ele>
        <time>2019-10-17T12:04:05Z</time>
      </trkpt>
      <trkpt lat="-22.114081" lon="-45.110827">
        <ele>866.325</ele>
        <time>2019-10-17T12:04:08Z</time>
      </trkpt>
      <trkpt lat="-22.114029" lon="-45.110835">
        <ele>866.014</ele>
        <time>2019-10-17T12:04:10Z</time>
      </trkpt>
      <trkpt lat="-22.113980" lon="-45.110845">
        <ele>865.854</ele>
        <time>2019-10-17T12:04:12Z</time>
      </trkpt>
      <trkpt lat="-22.113921" lon="-45.110852">
        <ele>865.709</ele>
        <time>2019-10-17T12:04:14Z</time>
      </trkpt>
      <trkpt lat="-22.113852" lon="-45.110852">
        <ele>865.008</ele>
        <time>2019-10-17T12:04:16Z</time>
      </trkpt>
      <trkpt lat="-22.113022" lon="-45.110654">
        <ele>863.555</ele>
        <time>2019-10-17T12:04:37Z</time>
      </trkpt>
      <trkpt lat="-22.112761" lon="-45.110542">
        <ele>862.833</ele>
        <time>2019-10-17T12:04:43Z</time>
      </trkpt>
      <trkpt lat="-22.112695" lon="-45.110512">
        <ele>863.116</ele>
        <time>2019-10-17T12:04:45Z</time>
      </trkpt>
      <trkpt lat="-22.112648" lon="-45.110463">
        <ele>863.346</ele>
        <time>2019-10-17T12:04:47Z</time>
      </trkpt>
      <trkpt lat="-22.112595" lon="-45.110413">
        <ele>862.922</ele>
        <time>2019-10-17T12:04:49Z</time>
      </trkpt>
      <trkpt lat="-22.112527" lon="-45.110328">
        <ele>862.939</ele>
        <time>2019-10-17T12:04:52Z</time>
      </trkpt>
      <trkpt lat="-22.112493" lon="-45.110287">
        <ele>862.725</ele>
        <time>2019-10-17T12:04:53Z</time>
      </trkpt>
      <trkpt lat="-22.112455" lon="-45.110242">
        <ele>862.393</ele>
        <time>2019-10-17T12:04:55Z</time>
      </trkpt>
      <trkpt lat="-22.112392" lon="-45.110169">
        <ele>862.972</ele>
        <time>2019-10-17T12:04:57Z</time>
      </trkpt>
      <trkpt lat="-22.112349" lon="-45.110116">
        <ele>863.313</ele>
        <time>2019-10-17T12:04:58Z</time>
      </trkpt>
      <trkpt lat="-22.112320" lon="-45.110070">
        <ele>863.814</ele>
        <time>2019-10-17T12:05:00Z</time>
      </trkpt>
      <trkpt lat="-22.112296" lon="-45.110024">
        <ele>864.308</ele>
        <time>2019-10-17T12:05:02Z</time>
      </trkpt>
      <trkpt lat="-22.112266" lon="-45.109962">
        <ele>864.971</ele>
        <time>2019-10-17T12:05:04Z</time>
      </trkpt>
      <trkpt lat="-22.112243" lon="-45.109919">
        <ele>865.289</ele>
        <time>2019-10-17T12:05:06Z</time>
      </trkpt>
      <trkpt lat="-22.112216" lon="-45.109853">
        <ele>865.442</ele>
        <time>2019-10-17T12:05:08Z</time>
      </trkpt>
      <trkpt lat="-22.112192" lon="-45.109796">
        <ele>865.762</ele>
        <time>2019-10-17T12:05:11Z</time>
      </trkpt>
      <trkpt lat="-22.112168" lon="-45.109735">
        <ele>865.388</ele>
        <time>2019-10-17T12:05:13Z</time>
      </trkpt>
      <trkpt lat="-22.112148" lon="-45.109674">
        <ele>864.585</ele>
        <time>2019-10-17T12:05:15Z</time>
      </trkpt>
      <trkpt lat="-22.112031" lon="-45.108678">
        <ele>862.971</ele>
        <time>2019-10-17T12:05:36Z</time>
      </trkpt>
      <trkpt lat="-22.112016" lon="-45.108589">
        <ele>863.569</ele>
        <time>2019-10-17T12:05:39Z</time>
      </trkpt>
      <trkpt lat="-22.112006" lon="-45.108507">
        <ele>864.026</ele>
        <time>2019-10-17T12:05:42Z</time>
      </trkpt>
      <trkpt lat="-22.112012" lon="-45.108452">
        <ele>864.047</ele>
        <time>2019-10-17T12:05:44Z</time>
      </trkpt>
      <trkpt lat="-22.112018" lon="-45.108401">
        <ele>863.411</ele>
        <time>2019-10-17T12:05:45Z</time>
      </trkpt>
      <trkpt lat="-22.112024" lon="-45.108342">
        <ele>863.508</ele>
        <time>2019-10-17T12:05:47Z</time>
      </trkpt>
      <trkpt lat="-22.112030" lon="-45.108284">
        <ele>863.316</ele>
        <time>2019-10-17T12:05:48Z</time>
      </trkpt>
      <trkpt lat="-22.112025" lon="-45.108235">
        <ele>863.014</ele>
        <time>2019-10-17T12:05:50Z</time>
      </trkpt>
      <trkpt lat="-22.112020" lon="-45.108148">
        <ele>863.037</ele>
        <time>2019-10-17T12:05:52Z</time>
      </trkpt>
      <trkpt lat="-22.112019" lon="-45.108060">
        <ele>862.337</ele>
        <time>2019-10-17T12:05:54Z</time>
      </trkpt>
      <trkpt lat="-22.111737" lon="-45.107010">
        <ele>861.023</ele>
        <time>2019-10-17T12:06:16Z</time>
      </trkpt>
      <trkpt lat="-22.111695" lon="-45.106966">
        <ele>861.530</ele>
        <time>2019-10-17T12:06:18Z</time>
      </trkpt>
      <trkpt lat="-22.111657" lon="-45.106932">
        <ele>861.356</ele>
        <time>2019-10-17T12:06:19Z</time>
      </trkpt>
      <trkpt lat="-22.111624" lon="-45.106899">
        <ele>862.014</ele>
        <time>2019-10-17T12:06:21Z</time>
      </trkpt>
      <trkpt lat="-22.111561" lon="-45.106826">
        <ele>862.039</ele>
        <time>2019-10-17T12:06:24Z</time>
      </trkpt>
      <trkpt lat="-22.111525" lon="-45.106747">
        <ele>862.101</ele>
        <time>2019-10-17T12:06:27Z</time>
      </trkpt>
      <trkpt lat="-22.111488" lon="-45.106686">
        <ele>862.021</ele>
        <time>2019-10-17T12:06:29Z</time>
      </trkpt>
      <trkpt lat="-22.111432" lon="-45.106655">
        <ele>861.908</ele>
        <time>2019-10-17T12:06:31Z</time>
      </trkpt>
      <trkpt lat="-22.111384" lon="-45.106621">
        <ele>861.987</ele>
        <time>2019-10-17T12:06:33Z</time>
      </trkpt>
      <trkpt lat="-22.111351" lon="-45.106571">
        <ele>862.245</ele>
        <time>2019-10-17T12:06:34Z</time>
      </trkpt>
      <trkpt lat="-22.111260" lon="-45.106459">
        <ele>862.238</ele>
        <time>2019-10-17T12:06:38Z</time>
      </trkpt>
      <trkpt lat="-22.111204" lon="-45.106400">
        <ele>862.178</ele>
        <time>2019-10-17T12:06:40Z</time>
      </trkpt>
      <trkpt lat="-22.111164" lon="-45.106354">
        <ele>862.454</ele>
        <time>2019-10-17T12:06:42Z</time>
      </trkpt>
      <trkpt lat="-22.111130" lon="-45.106303">
        <ele>862.381</ele>
        <time>2019-10-17T12:06:44Z</time>
      </trkpt>
      <trkpt lat="-22.111075" lon="-45.106233">
        <ele>862.367</ele>
        <time>2019-10-17T12:06:47Z</time>
      </trkpt>
      <trkpt lat="-22.111042" lon="-45.106194">
        <ele>861.985</ele>
        <time>2019-10-17T12:06:48Z</time>
      </trkpt>
      <trkpt lat="-22.111010" lon="-45.106153">
        <ele>861.483</ele>
        <time>2019-10-17T12:06:50Z</time>
      </trkpt>
      <trkpt lat="-22.110968" lon="-45.106104">
        <ele>860.825</ele>
        <time>2019-10-17T12:06:51Z</time>
      </trkpt>
      <trkpt lat="-22.110041" lon="-45.104918">
        <ele>859.017</ele>
        <time>2019-10-17T12:07:20Z</time>
      </trkpt>
      <trkpt lat="-22.110002" lon="-45.104876">
        <ele>859.308</ele>
        <time>2019-10-17T12:07:22Z</time>
      </trkpt>
      <trkpt lat="-22.109952" lon="-45.104832">
        <ele>859.242</ele>
        <time>2019-10-17T12:07:23Z</time>
      </trkpt>
      <trkpt lat="-22.109911" lon="-45.104784">
        <ele>859.350</ele>
        <time>2019-10-17T12:07:25Z</time>
      </trkpt>
      <trkpt lat="-22.109865" lon="-45.104722">
        <ele>859.383</ele>
        <time>2019-10-17T12:07:27Z</time>
      </trkpt>
      <trkpt lat="-22.109821" lon="-45.104664">
        <ele>858.883</ele>
        <time>2019-10-17T12:07:29Z</time>
      </trkpt>
      <trkpt lat="-22.109773" lon="-45.104601">
        <ele>858.959</ele>
        <time>2019-10-17T12:07:31Z</time>
      </trkpt>
      <trkpt lat="-22.109735" lon="-45.104548">
        <ele>859.646</ele>
        <time>2019-10-17T12:07:33Z</time>
      </trkpt>
      <trkpt lat="-22.109673" lon="-45.104448">
        <ele>859.592</ele>
        <time>2019-10-17T12:07:36Z</time>
      </trkpt>
      <trkpt lat="-22.109637" lon="-45.104399">
        <ele>859.820</ele>
        <time>2019-10-17T12:07:38Z</time>
      </trkpt>
      <trkpt lat="-22.109593" lon="-45.104337">
        <ele>859.778</ele>
        <time>2019-10-17T12:07:40Z</time>
      </trkpt>
      <trkpt lat="-22.109555" lon="-45.104288">
        <ele>860.033</ele>
        <time>2019-10-17T12:07:41Z</time>
      </trkpt>
      <trkpt lat="-22.109523" lon="-45.104249">
        <ele>860.226</ele>
        <time>2019-10-17T12:07:43Z</time>
      </trkpt>
      <trkpt lat="-22.109494" lon="-45.104206">
        <ele>860.308</ele>
        <time>2019-10-17T12:07:45Z</time>
      </trkpt>
      <trkpt lat="-22.109389" lon="-45.104075">
        <ele>859.571</ele>
        <time>2019-10-17T12:07:49Z</time>
      </trkpt>
      <trkpt lat="-22.109272" lon="-45.103949">
        <ele>859.959</ele>
        <time>2019-10-17T12:07:53Z</time>
      </trkpt>
      <trkpt lat="-22.109234" lon="-45.103919">
        <ele>859.932</ele>
        <time>2019-10-17T12:07:54Z</time>
      </trkpt>
      <trkpt lat="-22.109197" lon="-45.103869">
        <ele>859.852</ele>
        <time>2019-10-17T12:07:56Z</time>
      </trkpt>
      <trkpt lat="-22.109138" lon="-45.103804">
        <ele>859.818</ele>
        <time>2019-10-17T12:07:58Z</time>
      </trkpt>
      <trkpt lat="-22.109095" lon="-45.103757">
        <ele>860.215</ele>
        <time>2019-10-17T12:07:59Z</time>
      </trkpt>
      <trkpt lat="-22.109061" lon="-45.103720">
        <ele>860.451</ele>
        <time>2019-10-17T12:08:01Z</time>
      </trkpt>
      <trkpt lat="-22.109019" lon="-45.103679">
        <ele>860.029</ele>
        <time>2019-10-17T12:08:03Z</time>
      </trkpt>
      <trkpt lat="-22.108933" lon="-45.103583">
        <ele>860.475</ele>
        <time>2019-10-17T12:08:06Z</time>
      </trkpt>
      <trkpt lat="-22.108886" lon="-45.103540">
        <ele>860.128</ele>
        <time>2019-10-17T12:08:07Z</time>
      </trkpt>
      <trkpt lat="-22.108836" lon="-45.103485">
        <ele>860.420</ele>
        <time>2019-10-17T12:08:10Z</time>
      </trkpt>
      <trkpt lat="-22.108779" lon="-45.103437">
        <ele>860.408</ele>
        <time>2019-10-17T12:08:12Z</time>
      </trkpt>
      <trkpt lat="-22.108734" lon="-45.103400">
        <ele>860.671</ele>
        <time>2019-10-17T12:08:14Z</time>
      </trkpt>
      <trkpt lat="-22.108692" lon="-45.103373">
        <ele>860.589</ele>
        <time>2019-10-17T12:08:15Z</time>
      </trkpt>
      <trkpt lat="-22.108628" lon="-45.103336">
        <ele>860.662</ele>
        <time>2019-10-17T12:08:17Z</time>
      </trkpt>
      <trkpt lat="-22.108575" lon="-45.103305">
        <ele>860.772</ele>
        <time>2019-10-17T12:08:19Z</time>
      </trkpt>
      <trkpt lat="-22.108522" lon="-45.103279">
        <ele>860.798</ele>
        <time>2019-10-17T12:08:21Z</time>
      </trkpt>
      <trkpt lat="-22.108481" lon="-45.103255">
        <ele>860.615</ele>
        <time>2019-10-17T12:08:22Z</time>
      </trkpt>
      <trkpt lat="-22.108228" lon="-45.103148">
        <ele>859.791</ele>
        <time>2019-10-17T12:08:28Z</time>
      </trkpt>
      <trkpt lat="-22.107676" lon="-45.102969">
        <ele>858.069</ele>
        <time>2019-10-17T12:08:40Z</time>
      </trkpt>
      <trkpt lat="-22.107621" lon="-45.102942">
        <ele>858.047</ele>
        <time>2019-10-17T12:08:42Z</time>
      </trkpt>
      <trkpt lat="-22.107550" lon="-45.102934">
        <ele>858.229</ele>
        <time>2019-10-17T12:08:44Z</time>
      </trkpt>
      <trkpt lat="-22.107447" lon="-45.102898">
        <ele>858.021</ele>
        <time>2019-10-17T12:08:47Z</time>
      </trkpt>
      <trkpt lat="-22.107360" lon="-45.102867">
        <ele>858.208</ele>
        <time>2019-10-17T12:08:49Z</time>
      </trkpt>
      <trkpt lat="-22.107286" lon="-45.102843">
        <ele>858.758</ele>
        <time>2019-10-17T12:08:51Z</time>
      </trkpt>
      <trkpt lat="-22.107232" lon="-45.102827">
        <ele>859.166</ele>
        <time>2019-10-17T12:08:53Z</time>
      </trkpt>
      <trkpt lat="-22.107185" lon="-45.102807">
        <ele>859.829</ele>
        <time>2019-10-17T12:08:55Z</time>
      </trkpt>
      <trkpt lat="-22.107124" lon="-45.102773">
        <ele>860.879</ele>
        <time>2019-10-17T12:08:58Z</time>
      </trkpt>
      <trkpt lat="-22.107062" lon="-45.102736">
        <ele>861.065</ele>
        <time>2019-10-17T12:09:01Z</time>
      </trkpt>
      <trkpt lat="-22.106999" lon="-45.102691">
        <ele>861.762</ele>
        <time>2019-10-17T12:09:04Z</time>
      </trkpt>
      <trkpt lat="-22.106954" lon="-45.102665">
        <ele>861.688</ele>
        <time>2019-10-17T12:09:06Z</time>
      </trkpt>
      <trkpt lat="-22.106902" lon="-45.102628">
        <ele>861.466</ele>
        <time>2019-10-17T12:09:08Z</time>
      </trkpt>
      <trkpt lat="-22.106849" lon="-45.102586">
        <ele>861.295</ele>
        <time>2019-10-17T12:09:10Z</time>
      </trkpt>
      <trkpt lat="-22.106806" lon="-45.102546">
        <ele>861.149</ele>
        <time>2019-10-17T12:09:12Z</time>
      </trkpt>
      <trkpt lat="-22.106753" lon="-45.102500">
        <ele>861.123</ele>
        <time>2019-10-17T12:09:14Z</time>
      </trkpt>
      <trkpt lat="-22.106698" lon="-45.102447">
        <ele>860.608</ele>
        <time>2019-10-17T12:09:16Z</time>
      </trkpt>
      <trkpt lat="-22.106655" lon="-45.102409">
        <ele>861.033</ele>
        <time>2019-10-17T12:09:18Z</time>
      </trkpt>
      <trkpt lat="-22.106623" lon="-45.102370">
        <ele>861.081</ele>
        <time>2019-10-17T12:09:19Z</time>
      </trkpt>
      <trkpt lat="-22.106564" lon="-45.102285">
        <ele>860.954</ele>
        <time>2019-10-17T12:09:22Z</time>
      </trkpt>
      <trkpt lat="-22.106529" lon="-45.102230">
        <ele>860.784</ele>
        <time>2019-10-17T12:09:24Z</time>
      </trkpt>
      <trkpt lat="-22.106487" lon="-45.102171">
        <ele>860.660</ele>
        <time>2019-10-17T12:09:25Z</time>
      </trkpt>
      <trkpt lat="-22.105677" lon="-45.100266">
        <ele>856.577</ele>
        <time>2019-10-17T12:10:06Z</time>
      </trkpt>
      <trkpt lat="-22.105635" lon="-45.100230">
        <ele>856.363</ele>
        <time>2019-10-17T12:10:08Z</time>
      </trkpt>
      <trkpt lat="-22.105574" lon="-45.100162">
        <ele>856.321</ele>
        <time>2019-10-17T12:10:10Z</time>
      </trkpt>
      <trkpt lat="-22.105528" lon="-45.100111">
        <ele>856.859</ele>
        <time>2019-10-17T12:10:12Z</time>
      </trkpt>
      <trkpt lat="-22.105491" lon="-45.100078">
        <ele>856.903</ele>
        <time>2019-10-17T12:10:13Z</time>
      </trkpt>
      <trkpt lat="-22.105445" lon="-45.100047">
        <ele>857.123</ele>
        <time>2019-10-17T12:10:15Z</time>
      </trkpt>
      <trkpt lat="-22.105395" lon="-45.100016">
        <ele>857.408</ele>
        <time>2019-10-17T12:10:17Z</time>
      </trkpt>
      <trkpt lat="-22.105275" lon="-45.099926">
        <ele>857.769</ele>
        <time>2019-10-17T12:10:21Z</time>
      </trkpt>
      <trkpt lat="-22.105225" lon="-45.099903">
        <ele>857.667</ele>
        <time>2019-10-17T12:10:22Z</time>
      </trkpt>
      <trkpt lat="-22.105175" lon="-45.099885">
        <ele>857.440</ele>
        <time>2019-10-17T12:10:24Z</time>
      </trkpt>
      <trkpt lat="-22.105042" lon="-45.099811">
        <ele>856.320</ele>
        <time>2019-10-17T12:10:27Z</time>
      </trkpt>
      <trkpt lat="-22.104980" lon="-45.099797">
        <ele>856.626</ele>
        <time>2019-10-17T12:10:29Z</time>
      </trkpt>
      <trkpt lat="-22.104922" lon="-45.099784">
        <ele>856.293</ele>
        <time>2019-10-17T12:10:31Z</time>
      </trkpt>
      <trkpt lat="-22.104846" lon="-45.099753">
        <ele>856.859</ele>
        <time>2019-10-17T12:10:33Z</time>
      </trkpt>
      <trkpt lat="-22.104791" lon="-45.099735">
        <ele>856.947</ele>
        <time>2019-10-17T12:10:35Z</time>
      </trkpt>
      <trkpt lat="-22.104719" lon="-45.099716">
        <ele>857.213</ele>
        <time>2019-10-17T12:10:37Z</time>
      </trkpt>
      <trkpt lat="-22.104645" lon="-45.099697">
        <ele>857.143</ele>
        <time>2019-10-17T12:10:39Z</time>
      </trkpt>
      <trkpt lat="-22.104585" lon="-45.099681">
        <ele>856.907</ele>
        <time>2019-10-17T12:10:41Z</time>
      </trkpt>
      <trkpt lat="-22.104526" lon="-45.099666">
        <ele>856.708</ele>
        <time>2019-10-17T12:10:42Z</time>
      </trkpt>
      <trkpt lat="-22.104454" lon="-45.099655">
        <ele>856.445</ele>
        <time>2019-10-17T12:10:44Z</time>
      </trkpt>
      <trkpt lat="-22.104389" lon="-45.099649">
        <ele>856.793</ele>
        <time>2019-10-17T12:10:46Z</time>
      </trkpt>
      <trkpt lat="-22.104310" lon="-45.099645">
        <ele>856.886</ele>
        <time>2019-10-17T12:10:48Z</time>
      </trkpt>
      <trkpt lat="-22.104241" lon="-45.099650">
        <ele>856.726</ele>
        <time>2019-10-17T12:10:50Z</time>
      </trkpt>
      <trkpt lat="-22.104158" lon="-45.099650">
        <ele>856.982</ele>
        <time>2019-10-17T12:10:53Z</time>
      </trkpt>
      <trkpt lat="-22.104085" lon="-45.099653">
        <ele>857.359</ele>
        <time>2019-10-17T12:10:55Z</time>
      </trkpt>
      <trkpt lat="-22.104031" lon="-45.099656">
        <ele>857.165</ele>
        <time>2019-10-17T12:10:58Z</time>
      </trkpt>
      <trkpt lat="-22.103979" lon="-45.099659">
        <ele>857.413</ele>
        <time>2019-10-17T12:11:00Z</time>
      </trkpt>
      <trkpt lat="-22.103922" lon="-45.099654">
        <ele>857.676</ele>
        <time>2019-10-17T12:11:02Z</time>
      </trkpt>
      <trkpt lat="-22.103874" lon="-45.099655">
        <ele>857.990</ele>
        <time>2019-10-17T12:11:04Z</time>
      </trkpt>
      <trkpt lat="-22.103806" lon="-45.099645">
        <ele>857.319</ele>
        <time>2019-10-17T12:11:06Z</time>
      </trkpt>
      <trkpt lat="-22.103758" lon="-45.099642">
        <ele>857.508</ele>
        <time>2019-10-17T12:11:08Z</time>
      </trkpt>
      <trkpt lat="-22.103661" lon="-45.099635">
        <ele>856.561</ele>
        <time>2019-10-17T12:11:11Z</time>
      </trkpt>
      <trkpt lat="-22.103609" lon="-45.099633">
        <ele>856.589</ele>
        <time>2019-10-17T12:11:13Z</time>
      </trkpt>
      <trkpt lat="-22.103536" lon="-45.099630">
        <ele>856.672</ele>
        <time>2019-10-17T12:11:15Z</time>
      </trkpt>
      <trkpt lat="-22.103480" lon="-45.099622">
        <ele>856.512</ele>
        <time>2019-10-17T12:11:16Z</time>
      </trkpt>
      <trkpt lat="-22.103432" lon="-45.099611">
        <ele>856.688</ele>
        <time>2019-10-17T12:11:18Z</time>
      </trkpt>
      <trkpt lat="-22.103382" lon="-45.099591">
        <ele>856.585</ele>
        <time>2019-10-17T12:11:20Z</time>
      </trkpt>
      <trkpt lat="-22.103313" lon="-45.099578">
        <ele>856.361</ele>
        <time>2019-10-17T12:11:22Z</time>
      </trkpt>
      <trkpt lat="-22.103266" lon="-45.099571">
        <ele>856.869</ele>
        <time>2019-10-17T12:11:24Z</time>
      </trkpt>
      <trkpt lat="-22.103138" lon="-45.099543">
        <ele>856.083</ele>
        <time>2019-10-17T12:11:27Z</time>
      </trkpt>
      <trkpt lat="-22.103078" lon="-45.099528">
        <ele>856.025</ele>
        <time>2019-10-17T12:11:29Z</time>
      </trkpt>
      <trkpt lat="-22.103036" lon="-45.099501">
        <ele>855.917</ele>
        <time>2019-10-17T12:11:31Z</time>
      </trkpt>
      <trkpt lat="-22.102968" lon="-45.099467">
        <ele>855.808</ele>
        <time>2019-10-17T12:11:33Z</time>
      </trkpt>
      <trkpt lat="-22.102924" lon="-45.099437">
        <ele>855.982</ele>
        <time>2019-10-17T12:11:35Z</time>
      </trkpt>
      <trkpt lat="-22.102866" lon="-45.099380">
        <ele>855.870</ele>
        <time>2019-10-17T12:11:37Z</time>
      </trkpt>
      <trkpt lat="-22.102796" lon="-45.099321">
        <ele>855.513</ele>
        <time>2019-10-17T12:11:39Z</time>
      </trkpt>
      <trkpt lat="-22.102761" lon="-45.099271">
        <ele>855.363</ele>
        <time>2019-10-17T12:11:41Z</time>
      </trkpt>
      <trkpt lat="-22.102735" lon="-45.099225">
        <ele>855.579</ele>
        <time>2019-10-17T12:11:42Z</time>
      </trkpt>
      <trkpt lat="-22.102699" lon="-45.099172">
        <ele>855.896</ele>
        <time>2019-10-17T12:11:45Z</time>
      </trkpt>
      <trkpt lat="-22.102659" lon="-45.099130">
        <ele>856.442</ele>
        <time>2019-10-17T12:11:47Z</time>
      </trkpt>
      <trkpt lat="-22.102628" lon="-45.099085">
        <ele>856.910</ele>
        <time>2019-10-17T12:11:49Z</time>
      </trkpt>
      <trkpt lat="-22.102580" lon="-45.099034">
        <ele>856.936</ele>
        <time>2019-10-17T12:11:52Z</time>
      </trkpt>
      <trkpt lat="-22.102548" lon="-45.098994">
        <ele>857.217</ele>
        <time>2019-10-17T12:11:54Z</time>
      </trkpt>
      <trkpt lat="-22.102522" lon="-45.098946">
        <ele>857.418</ele>
        <time>2019-10-17T12:11:56Z</time>
      </trkpt>
      <trkpt lat="-22.102482" lon="-45.098877">
        <ele>856.808</ele>
        <time>2019-10-17T12:11:59Z</time>
      </trkpt>
      <trkpt lat="-22.102444" lon="-45.098815">
        <ele>856.577</ele>
        <time>2019-10-17T12:12:01Z</time>
      </trkpt>
      <trkpt lat="-22.102414" lon="-45.098769">
        <ele>856.665</ele>
        <time>2019-10-17T12:12:03Z</time>
      </trkpt>
      <trkpt lat="-22.102371" lon="-45.098701">
        <ele>856.448</ele>
        <time>2019-10-17T12:12:05Z</time>
      </trkpt>
      <trkpt lat="-22.102335" lon="-45.098646">
        <ele>856.098</ele>
        <time>2019-10-17T12:12:07Z</time>
      </trkpt>
      <trkpt lat="-22.102303" lon="-45.098592">
        <ele>855.474</ele>
        <time>2019-10-17T12:12:09Z</time>
      </trkpt>
      <trkpt lat="-22.102264" lon="-45.098526">
        <ele>855.011</ele>
        <time>2019-10-17T12:12:11Z</time>
      </trkpt>
      <trkpt lat="-22.102185" lon="-45.098388">
        <ele>855.157</ele>
        <time>2019-10-17T12:12:16Z</time>
      </trkpt>
      <trkpt lat="-22.102143" lon="-45.098167">
        <ele>854.015</ele>
        <time>2019-10-17T12:14:07Z</time>
      </trkpt>
      <trkpt lat="-22.102132" lon="-45.098106">
        <ele>853.882</ele>
        <time>2019-10-17T12:14:09Z</time>
      </trkpt>
      <trkpt lat="-22.102117" lon="-45.098037">
        <ele>853.543</ele>
        <time>2019-10-17T12:14:11Z</time>
      </trkpt>
      <trkpt lat="-22.102105" lon="-45.097979">
        <ele>853.517</ele>
        <time>2019-10-17T12:14:13Z</time>
      </trkpt>
      <trkpt lat="-22.102090" lon="-45.097911">
        <ele>853.508</ele>
        <time>2019-10-17T12:14:14Z</time>
      </trkpt>
      <trkpt lat="-22.102078" lon="-45.097857">
        <ele>853.722</ele>
        <time>2019-10-17T12:14:16Z</time>
      </trkpt>
      <trkpt lat="-22.102061" lon="-45.097792">
        <ele>853.640</ele>
        <time>2019-10-17T12:14:18Z</time>
      </trkpt>
      <trkpt lat="-22.102028" lon="-45.097677">
        <ele>853.893</ele>
        <time>2019-10-17T12:14:21Z</time>
      </trkpt>
      <trkpt lat="-22.101995" lon="-45.097588">
        <ele>853.593</ele>
        <time>2019-10-17T12:14:23Z</time>
      </trkpt>
      <trkpt lat="-22.101972" lon="-45.097528">
        <ele>853.739</ele>
        <time>2019-10-17T12:14:25Z</time>
      </trkpt>
      <trkpt lat="-22.101953" lon="-45.097468">
        <ele>853.636</ele>
        <time>2019-10-17T12:14:27Z</time>
      </trkpt>
      <trkpt lat="-22.101929" lon="-45.097366">
        <ele>853.982</ele>
        <time>2019-10-17T12:14:29Z</time>
      </trkpt>
      <trkpt lat="-22.101911" lon="-45.097302">
        <ele>853.840</ele>
        <time>2019-10-17T12:14:31Z</time>
      </trkpt>
      <trkpt lat="-22.101886" lon="-45.097231">
        <ele>853.876</ele>
        <time>2019-10-17T12:14:33Z</time>
      </trkpt>
      <trkpt lat="-22.101862" lon="-45.097176">
        <ele>853.890</ele>
        <time>2019-10-17T12:14:34Z</time>
      </trkpt>
      <trkpt lat="-22.101842" lon="-45.097117">
        <ele>853.519</ele>
        <time>2019-10-17T12:14:36Z</time>
      </trkpt>
      <trkpt lat="-22.101818" lon="-45.097033">
        <ele>853.708</ele>
        <time>2019-10-17T12:14:38Z</time>
      </trkpt>
      <trkpt lat="-22.101790" lon="-45.096949">
        <ele>853.771</ele>
        <time>2019-10-17T12:14:40Z</time>
      </trkpt>
      <trkpt lat="-22.101772" lon="-45.096883">
        <ele>853.819</ele>
        <time>2019-10-17T12:14:42Z</time>
      </trkpt>
      <trkpt lat="-22.101749" lon="-45.096804">
        <ele>854.182</ele>
        <time>2019-10-17T12:14:44Z</time>
      </trkpt>
      <trkpt lat="-22.101731" lon="-45.096731">
        <ele>854.442</ele>
        <time>2019-10-17T12:14:46Z</time>
      </trkpt>
      <trkpt lat="-22.101718" lon="-45.096665">
        <ele>854.828</ele>
        <time>2019-10-17T12:14:48Z</time>
      </trkpt>
      <trkpt lat="-22.101704" lon="-45.096612">
        <ele>854.845</ele>
        <time>2019-10-17T12:14:49Z</time>
      </trkpt>
      <trkpt lat="-22.101690" lon="-45.096564">
        <ele>854.791</ele>
        <time>2019-10-17T12:14:51Z</time>
      </trkpt>
      <trkpt lat="-22.101669" lon="-45.096489">
        <ele>854.979</ele>
        <time>2019-10-17T12:14:53Z</time>
      </trkpt>
      <trkpt lat="-22.101649" lon="-45.096415">
        <ele>854.872</ele>
        <time>2019-10-17T12:14:54Z</time>
      </trkpt>
      <trkpt lat="-22.101636" lon="-45.096367">
        <ele>854.513</ele>
        <time>2019-10-17T12:14:56Z</time>
      </trkpt>
      <trkpt lat="-22.101588" lon="-45.096230">
        <ele>854.914</ele>
        <time>2019-10-17T12:14:59Z</time>
      </trkpt>
      <trkpt lat="-22.101571" lon="-45.096176">
        <ele>854.808</ele>
        <time>2019-10-17T12:15:01Z</time>
      </trkpt>
      <trkpt lat="-22.101549" lon="-45.096096">
        <ele>854.781</ele>
        <time>2019-10-17T12:15:03Z</time>
      </trkpt>
      <trkpt lat="-22.101536" lon="-45.096035">
        <ele>854.539</ele>
        <time>2019-10-17T12:15:05Z</time>
      </trkpt>
      <trkpt lat="-22.101526" lon="-45.095966">
        <ele>854.622</ele>
        <time>2019-10-17T12:15:07Z</time>
      </trkpt>
      <trkpt lat="-22.101505" lon="-45.095879">
        <ele>854.232</ele>
        <time>2019-10-17T12:15:09Z</time>
      </trkpt>
      <trkpt lat="-22.101484" lon="-45.095802">
        <ele>854.128</ele>
        <time>2019-10-17T12:15:11Z</time>
      </trkpt>
      <trkpt lat="-22.101455" lon="-45.095721">
        <ele>854.325</ele>
        <time>2019-10-17T12:15:13Z</time>
      </trkpt>
      <trkpt lat="-22.101444" lon="-45.095655">
        <ele>854.321</ele>
        <time>2019-10-17T12:15:15Z</time>
      </trkpt>
      <trkpt lat="-22.101433" lon="-45.095596">
        <ele>854.659</ele>
        <time>2019-10-17T12:15:17Z</time>
      </trkpt>
      <trkpt lat="-22.101419" lon="-45.095527">
        <ele>854.691</ele>
        <time>2019-10-17T12:15:19Z</time>
      </trkpt>
      <trkpt lat="-22.101409" lon="-45.095470">
        <ele>854.681</ele>
        <time>2019-10-17T12:15:21Z</time>
      </trkpt>
      <trkpt lat="-22.101398" lon="-45.095395">
        <ele>854.419</ele>
        <time>2019-10-17T12:15:23Z</time>
      </trkpt>
      <trkpt lat="-22.101372" lon="-45.095334">
        <ele>854.208</ele>
        <time>2019-10-17T12:15:25Z</time>
      </trkpt>
      <trkpt lat="-22.101332" lon="-45.095260">
        <ele>854.643</ele>
        <time>2019-10-17T12:15:27Z</time>
      </trkpt>
      <trkpt lat="-22.101283" lon="-45.095191">
        <ele>854.291</ele>
        <time>2019-10-17T12:15:29Z</time>
      </trkpt>
      <trkpt lat="-22.101250" lon="-45.095135">
        <ele>854.394</ele>
        <time>2019-10-17T12:15:31Z</time>
      </trkpt>
      <trkpt lat="-22.101225" lon="-45.095085">
        <ele>854.474</ele>
        <time>2019-10-17T12:15:32Z</time>
      </trkpt>
      <trkpt lat="-22.101197" lon="-45.095032">
        <ele>854.160</ele>
        <time>2019-10-17T12:15:34Z</time>
      </trkpt>
      <trkpt lat="-22.101151" lon="-45.094946">
        <ele>853.857</ele>
        <time>2019-10-17T12:15:36Z</time>
      </trkpt>
      <trkpt lat="-22.101119" lon="-45.094880">
        <ele>853.813</ele>
        <time>2019-10-17T12:15:38Z</time>
      </trkpt>
      <trkpt lat="-22.101098" lon="-45.094834">
        <ele>854.141</ele>
        <time>2019-10-17T12:15:40Z</time>
      </trkpt>
      <trkpt lat="-22.101080" lon="-45.094787">
        <ele>854.122</ele>
        <time>2019-10-17T12:15:41Z</time>
      </trkpt>
      <trkpt lat="-22.101050" lon="-45.094713">
        <ele>853.962</ele>
        <time>2019-10-17T12:15:43Z</time>
      </trkpt>
      <trkpt lat="-22.101011" lon="-45.094640">
        <ele>853.808</ele>
        <time>2019-10-17T12:15:46Z</time>
      </trkpt>
      <trkpt lat="-22.100976" lon="-45.094578">
        <ele>854.108</ele>
        <time>2019-10-17T12:15:48Z</time>
      </trkpt>
      <trkpt lat="-22.100935" lon="-45.094512">
        <ele>854.146</ele>
        <time>2019-10-17T12:15:50Z</time>
      </trkpt>
      <trkpt lat="-22.100901" lon="-45.094462">
        <ele>853.754</ele>
        <time>2019-10-17T12:15:52Z</time>
      </trkpt>
      <trkpt lat="-22.100860" lon="-45.094396">
        <ele>853.427</ele>
        <time>2019-10-17T12:15:54Z</time>
      </trkpt>
      <trkpt lat="-22.100814" lon="-45.094325">
        <ele>853.827</ele>
        <time>2019-10-17T12:15:56Z</time>
      </trkpt>
      <trkpt lat="-22.100779" lon="-45.094278">
        <ele>853.733</ele>
        <time>2019-10-17T12:15:57Z</time>
      </trkpt>
      <trkpt lat="-22.100726" lon="-45.094219">
        <ele>853.970</ele>
        <time>2019-10-17T12:16:00Z</time>
      </trkpt>
      <trkpt lat="-22.100668" lon="-45.094160">
        <ele>853.946</ele>
        <time>2019-10-17T12:16:02Z</time>
      </trkpt>
      <trkpt lat="-22.100633" lon="-45.094114">
        <ele>854.024</ele>
        <time>2019-10-17T12:16:03Z</time>
      </trkpt>
      <trkpt lat="-22.100601" lon="-45.094078">
        <ele>854.121</ele>
        <time>2019-10-17T12:16:05Z</time>
      </trkpt>
      <trkpt lat="-22.100536" lon="-45.094016">
        <ele>854.341</ele>
        <time>2019-10-17T12:16:07Z</time>
      </trkpt>
      <trkpt lat="-22.100475" lon="-45.093959">
        <ele>854.205</ele>
        <time>2019-10-17T12:16:09Z</time>
      </trkpt>
      <trkpt lat="-22.100389" lon="-45.093893">
        <ele>854.308</ele>
        <time>2019-10-17T12:16:12Z</time>
      </trkpt>
      <trkpt lat="-22.100347" lon="-45.093858">
        <ele>854.586</ele>
        <time>2019-10-17T12:16:13Z</time>
      </trkpt>
      <trkpt lat="-22.100300" lon="-45.093824">
        <ele>854.484</ele>
        <time>2019-10-17T12:16:15Z</time>
      </trkpt>
      <trkpt lat="-22.100239" lon="-45.093776">
        <ele>854.317</ele>
        <time>2019-10-17T12:16:17Z</time>
      </trkpt>
      <trkpt lat="-22.100188" lon="-45.093734">
        <ele>854.717</ele>
        <time>2019-10-17T12:16:19Z</time>
      </trkpt>
      <trkpt lat="-22.100124" lon="-45.093687">
        <ele>854.473</ele>
        <time>2019-10-17T12:16:21Z</time>
      </trkpt>
      <trkpt lat="-22.100054" lon="-45.093635">
        <ele>854.410</ele>
        <time>2019-10-17T12:16:23Z</time>
      </trkpt>
      <trkpt lat="-22.099999" lon="-45.093596">
        <ele>854.876</ele>
        <time>2019-10-17T12:16:25Z</time>
      </trkpt>
      <trkpt lat="-22.099953" lon="-45.093563">
        <ele>855.084</ele>
        <time>2019-10-17T12:16:26Z</time>
      </trkpt>
      <trkpt lat="-22.099892" lon="-45.093521">
        <ele>855.273</ele>
        <time>2019-10-17T12:16:28Z</time>
      </trkpt>
      <trkpt lat="-22.099846" lon="-45.093486">
        <ele>855.685</ele>
        <time>2019-10-17T12:16:30Z</time>
      </trkpt>
      <trkpt lat="-22.099789" lon="-45.093450">
        <ele>856.313</ele>
        <time>2019-10-17T12:16:32Z</time>
      </trkpt>
      <trkpt lat="-22.099727" lon="-45.093422">
        <ele>857.008</ele>
        <time>2019-10-17T12:16:35Z</time>
      </trkpt>
      <trkpt lat="-22.099678" lon="-45.093399">
        <ele>857.641</ele>
        <time>2019-10-17T12:16:37Z</time>
      </trkpt>
      <trkpt lat="-22.099618" lon="-45.093380">
        <ele>858.099</ele>
        <time>2019-10-17T12:16:40Z</time>
      </trkpt>
      <trkpt lat="-22.099568" lon="-45.093356">
        <ele>858.472</ele>
        <time>2019-10-17T12:16:42Z</time>
      </trkpt>
      <trkpt lat="-22.099506" lon="-45.093332">
        <ele>858.782</ele>
        <time>2019-10-17T12:16:45Z</time>
      </trkpt>
      <trkpt lat="-22.099458" lon="-45.093318">
        <ele>858.838</ele>
        <time>2019-10-17T12:16:47Z</time>
      </trkpt>
      <trkpt lat="-22.099407" lon="-45.093302">
        <ele>858.885</ele>
        <time>2019-10-17T12:16:49Z</time>
      </trkpt>
      <trkpt lat="-22.099349" lon="-45.093285">
        <ele>859.341</ele>
        <time>2019-10-17T12:16:51Z</time>
      </trkpt>
      <trkpt lat="-22.099296" lon="-45.093274">
        <ele>859.559</ele>
        <time>2019-10-17T12:16:53Z</time>
      </trkpt>
      <trkpt lat="-22.099221" lon="-45.093267">
        <ele>858.987</ele>
        <time>2019-10-17T12:16:56Z</time>
      </trkpt>
      <trkpt lat="-22.097982" lon="-45.093503">
        <ele>854.342</ele>
        <time>2019-10-17T12:17:25Z</time>
      </trkpt>
      <trkpt lat="-22.097924" lon="-45.093536">
        <ele>854.126</ele>
        <time>2019-10-17T12:17:27Z</time>
      </trkpt>
      <trkpt lat="-22.097828" lon="-45.093608">
        <ele>854.008</ele>
        <time>2019-10-17T12:17:29Z</time>
      </trkpt>
      <trkpt lat="-22.097728" lon="-45.093682">
        <ele>853.812</ele>
        <time>2019-10-17T12:17:32Z</time>
      </trkpt>
      <trkpt lat="-22.097637" lon="-45.093746">
        <ele>854.510</ele>
        <time>2019-10-17T12:17:35Z</time>
      </trkpt>
      <trkpt lat="-22.097588" lon="-45.093778">
        <ele>854.423</ele>
        <time>2019-10-17T12:17:37Z</time>
      </trkpt>
      <trkpt lat="-22.097529" lon="-45.093817">
        <ele>854.553</ele>
        <time>2019-10-17T12:17:39Z</time>
      </trkpt>
      <trkpt lat="-22.097474" lon="-45.093857">
        <ele>853.629</ele>
        <time>2019-10-17T12:17:40Z</time>
      </trkpt>
      <trkpt lat="-22.097408" lon="-45.093897">
        <ele>854.116</ele>
        <time>2019-10-17T12:17:42Z</time>
      </trkpt>
      <trkpt lat="-22.097347" lon="-45.093938">
        <ele>853.972</ele>
        <time>2019-10-17T12:17:45Z</time>
      </trkpt>
      <trkpt lat="-22.097291" lon="-45.093980">
        <ele>854.270</ele>
        <time>2019-10-17T12:17:47Z</time>
      </trkpt>
      <trkpt lat="-22.097232" lon="-45.094020">
        <ele>854.029</ele>
        <time>2019-10-17T12:17:49Z</time>
      </trkpt>
      <trkpt lat="-22.097180" lon="-45.094051">
        <ele>853.900</ele>
        <time>2019-10-17T12:17:51Z</time>
      </trkpt>
      <trkpt lat="-22.097129" lon="-45.094091">
        <ele>853.920</ele>
        <time>2019-10-17T12:17:52Z</time>
      </trkpt>
      <trkpt lat="-22.097064" lon="-45.094145">
        <ele>854.008</ele>
        <time>2019-10-17T12:17:54Z</time>
      </trkpt>
      <trkpt lat="-22.097017" lon="-45.094179">
        <ele>854.246</ele>
        <time>2019-10-17T12:17:56Z</time>
      </trkpt>
      <trkpt lat="-22.096927" lon="-45.094243">
        <ele>854.424</ele>
        <time>2019-10-17T12:17:59Z</time>
      </trkpt>
      <trkpt lat="-22.096814" lon="-45.094304">
        <ele>854.397</ele>
        <time>2019-10-17T12:18:02Z</time>
      </trkpt>
      <trkpt lat="-22.096766" lon="-45.094329">
        <ele>854.257</ele>
        <time>2019-10-17T12:18:04Z</time>
      </trkpt>
      <trkpt lat="-22.096721" lon="-45.094360">
        <ele>854.373</ele>
        <time>2019-10-17T12:18:06Z</time>
      </trkpt>
      <trkpt lat="-22.096680" lon="-45.094384">
        <ele>854.280</ele>
        <time>2019-10-17T12:18:07Z</time>
      </trkpt>
      <trkpt lat="-22.096633" lon="-45.094405">
        <ele>854.576</ele>
        <time>2019-10-17T12:18:09Z</time>
      </trkpt>
      <trkpt lat="-22.096577" lon="-45.094433">
        <ele>854.664</ele>
        <time>2019-10-17T12:18:11Z</time>
      </trkpt>
      <trkpt lat="-22.096510" lon="-45.094459">
        <ele>854.615</ele>
        <time>2019-10-17T12:18:13Z</time>
      </trkpt>
      <trkpt lat="-22.096418" lon="-45.094486">
        <ele>854.565</ele>
        <time>2019-10-17T12:18:15Z</time>
      </trkpt>
      <trkpt lat="-22.096358" lon="-45.094500">
        <ele>854.411</ele>
        <time>2019-10-17T12:18:17Z</time>
      </trkpt>
      <trkpt lat="-22.096288" lon="-45.094519">
        <ele>854.508</ele>
        <time>2019-10-17T12:18:19Z</time>
      </trkpt>
      <trkpt lat="-22.096227" lon="-45.094529">
        <ele>854.295</ele>
        <time>2019-10-17T12:18:21Z</time>
      </trkpt>
      <trkpt lat="-22.096154" lon="-45.094543">
        <ele>854.323</ele>
        <time>2019-10-17T12:18:23Z</time>
      </trkpt>
      <trkpt lat="-22.096090" lon="-45.094544">
        <ele>854.816</ele>
        <time>2019-10-17T12:18:25Z</time>
      </trkpt>
      <trkpt lat="-22.096021" lon="-45.094547">
        <ele>854.956</ele>
        <time>2019-10-17T12:18:27Z</time>
      </trkpt>
      <trkpt lat="-22.095952" lon="-45.094560">
        <ele>855.312</ele>
        <time>2019-10-17T12:18:29Z</time>
      </trkpt>
      <trkpt lat="-22.095891" lon="-45.094562">
        <ele>855.539</ele>
        <time>2019-10-17T12:18:31Z</time>
      </trkpt>
      <trkpt lat="-22.095842" lon="-45.094560">
        <ele>855.355</ele>
        <time>2019-10-17T12:18:33Z</time>
      </trkpt>
      <trkpt lat="-22.095788" lon="-45.094559">
        <ele>855.133</ele>
        <time>2019-10-17T12:18:35Z</time>
      </trkpt>
      <trkpt lat="-22.095709" lon="-45.094556">
        <ele>854.889</ele>
        <time>2019-10-17T12:18:37Z</time>
      </trkpt>
      <trkpt lat="-22.095657" lon="-45.094555">
        <ele>854.706</ele>
        <time>2019-10-17T12:18:38Z</time>
      </trkpt>
      <trkpt lat="-22.095588" lon="-45.094547">
        <ele>854.426</ele>
        <time>2019-10-17T12:18:40Z</time>
      </trkpt>
      <trkpt lat="-22.095503" lon="-45.094535">
        <ele>854.308</ele>
        <time>2019-10-17T12:18:42Z</time>
      </trkpt>
      <trkpt lat="-22.095437" lon="-45.094526">
        <ele>854.412</ele>
        <time>2019-10-17T12:18:44Z</time>
      </trkpt>
      <trkpt lat="-22.095377" lon="-45.094526">
        <ele>854.560</ele>
        <time>2019-10-17T12:18:45Z</time>
      </trkpt>
      <trkpt lat="-22.095318" lon="-45.094527">
        <ele>854.983</ele>
        <time>2019-10-17T12:18:47Z</time>
      </trkpt>
      <trkpt lat="-22.095255" lon="-45.094520">
        <ele>854.713</ele>
        <time>2019-10-17T12:18:49Z</time>
      </trkpt>
      <trkpt lat="-22.095180" lon="-45.094505">
        <ele>854.779</ele>
        <time>2019-10-17T12:18:51Z</time>
      </trkpt>
      <trkpt lat="-22.095127" lon="-45.094494">
        <ele>854.636</ele>
        <time>2019-10-17T12:18:52Z</time>
      </trkpt>
      <trkpt lat="-22.095020" lon="-45.094493">
        <ele>854.462</ele>
        <time>2019-10-17T12:18:55Z</time>
      </trkpt>
      <trkpt lat="-22.094957" lon="-45.094499">
        <ele>854.220</ele>
        <time>2019-10-17T12:18:57Z</time>
      </trkpt>
      <trkpt lat="-22.094899" lon="-45.094515">
        <ele>853.981</ele>
        <time>2019-10-17T12:18:59Z</time>
      </trkpt>
      <trkpt lat="-22.094822" lon="-45.094535">
        <ele>853.761</ele>
        <time>2019-10-17T12:19:01Z</time>
      </trkpt>
      <trkpt lat="-22.094684" lon="-45.094579">
        <ele>853.617</ele>
        <time>2019-10-17T12:19:04Z</time>
      </trkpt>
      <trkpt lat="-22.094593" lon="-45.094611">
        <ele>853.008</ele>
        <time>2019-10-17T12:19:06Z</time>
      </trkpt>
      <trkpt lat="-22.094548" lon="-45.094636">
        <ele>853.232</ele>
        <time>2019-10-17T12:19:07Z</time>
      </trkpt>
      <trkpt lat="-22.094485" lon="-45.094675">
        <ele>853.320</ele>
        <time>2019-10-17T12:19:09Z</time>
      </trkpt>
      <trkpt lat="-22.094434" lon="-45.094703">
        <ele>853.423</ele>
        <time>2019-10-17T12:19:10Z</time>
      </trkpt>
      <trkpt lat="-22.094390" lon="-45.094742">
        <ele>852.993</ele>
        <time>2019-10-17T12:19:12Z</time>
      </trkpt>
      <trkpt lat="-22.094354" lon="-45.094772">
        <ele>853.049</ele>
        <time>2019-10-17T12:19:14Z</time>
      </trkpt>
      <trkpt lat="-22.094287" lon="-45.094840">
        <ele>853.426</ele>
        <time>2019-10-17T12:19:17Z</time>
      </trkpt>
      <trkpt lat="-22.094242" lon="-45.094896">
        <ele>853.652</ele>
        <time>2019-10-17T12:19:19Z</time>
      </trkpt>
      <trkpt lat="-22.094192" lon="-45.094958">
        <ele>853.430</ele>
        <time>2019-10-17T12:19:21Z</time>
      </trkpt>
      <trkpt lat="-22.094164" lon="-45.094997">
        <ele>853.067</ele>
        <time>2019-10-17T12:19:23Z</time>
      </trkpt>
      <trkpt lat="-22.094123" lon="-45.095059">
        <ele>852.781</ele>
        <time>2019-10-17T12:19:24Z</time>
      </trkpt>
      <trkpt lat="-22.094077" lon="-45.095137">
        <ele>853.119</ele>
        <time>2019-10-17T12:19:26Z</time>
      </trkpt>
      <trkpt lat="-22.094037" lon="-45.095191">
        <ele>852.908</ele>
        <time>2019-10-17T12:19:28Z</time>
      </trkpt>
      <trkpt lat="-22.093991" lon="-45.095236">
        <ele>852.940</ele>
        <time>2019-10-17T12:19:30Z</time>
      </trkpt>
      <trkpt lat="-22.093930" lon="-45.095318">
        <ele>853.148</ele>
        <time>2019-10-17T12:19:32Z</time>
      </trkpt>
      <trkpt lat="-22.093861" lon="-45.095437">
        <ele>852.771</ele>
        <time>2019-10-17T12:19:35Z</time>
      </trkpt>
      <trkpt lat="-22.093838" lon="-45.095494">
        <ele>852.321</ele>
        <time>2019-10-17T12:19:37Z</time>
      </trkpt>
      <trkpt lat="-22.093806" lon="-45.095545">
        <ele>852.367</ele>
        <time>2019-10-17T12:19:38Z</time>
      </trkpt>
      <trkpt lat="-22.093764" lon="-45.095601">
        <ele>852.554</ele>
        <time>2019-10-17T12:19:40Z</time>
      </trkpt>
      <trkpt lat="-22.093727" lon="-45.095642">
        <ele>852.720</ele>
        <time>2019-10-17T12:19:42Z</time>
      </trkpt>
      <trkpt lat="-22.093695" lon="-45.095679">
        <ele>853.158</ele>
        <time>2019-10-17T12:19:44Z</time>
      </trkpt>
      <trkpt lat="-22.093656" lon="-45.095721">
        <ele>852.847</ele>
        <time>2019-10-17T12:19:45Z</time>
      </trkpt>
      <trkpt lat="-22.093616" lon="-45.095755">
        <ele>852.729</ele>
        <time>2019-10-17T12:19:47Z</time>
      </trkpt>
      <trkpt lat="-22.093571" lon="-45.095784">
        <ele>852.921</ele>
        <time>2019-10-17T12:19:49Z</time>
      </trkpt>
      <trkpt lat="-22.093509" lon="-45.095823">
        <ele>852.908</ele>
        <time>2019-10-17T12:19:51Z</time>
      </trkpt>
      <trkpt lat="-22.093471" lon="-45.095856">
        <ele>852.478</ele>
        <time>2019-10-17T12:19:52Z</time>
      </trkpt>
      <trkpt lat="-22.093425" lon="-45.095898">
        <ele>852.246</ele>
        <time>2019-10-17T12:19:54Z</time>
      </trkpt>
      <trkpt lat="-22.093361" lon="-45.095946">
        <ele>852.289</ele>
        <time>2019-10-17T12:19:56Z</time>
      </trkpt>
      <trkpt lat="-22.093314" lon="-45.095975">
        <ele>852.129</ele>
        <time>2019-10-17T12:19:58Z</time>
      </trkpt>
      <trkpt lat="-22.093247" lon="-45.096007">
        <ele>851.935</ele>
        <time>2019-10-17T12:20:00Z</time>
      </trkpt>
      <trkpt lat="-22.093185" lon="-45.096031">
        <ele>851.662</ele>
        <time>2019-10-17T12:20:02Z</time>
      </trkpt>
      <trkpt lat="-22.093123" lon="-45.096054">
        <ele>851.658</ele>
        <time>2019-10-17T12:20:03Z</time>
      </trkpt>
      <trkpt lat="-22.093043" lon="-45.096082">
        <ele>851.936</ele>
        <time>2019-10-17T12:20:05Z</time>
      </trkpt>
      <trkpt lat="-22.092990" lon="-45.096094">
        <ele>851.294</ele>
        <time>2019-10-17T12:20:07Z</time>
      </trkpt>
      <trkpt lat="-22.092932" lon="-45.096104">
        <ele>851.157</ele>
        <time>2019-10-17T12:20:09Z</time>
      </trkpt>
      <trkpt lat="-22.092827" lon="-45.096112">
        <ele>851.222</ele>
        <time>2019-10-17T12:20:11Z</time>
      </trkpt>
      <trkpt lat="-22.092762" lon="-45.096114">
        <ele>850.808</ele>
        <time>2019-10-17T12:20:13Z</time>
      </trkpt>
      <trkpt lat="-22.092679" lon="-45.096118">
        <ele>850.753</ele>
        <time>2019-10-17T12:20:15Z</time>
      </trkpt>
      <trkpt lat="-22.092551" lon="-45.096109">
        <ele>850.811</ele>
        <time>2019-10-17T12:20:18Z</time>
      </trkpt>
      <trkpt lat="-22.092466" lon="-45.096089">
        <ele>851.114</ele>
        <time>2019-10-17T12:20:21Z</time>
      </trkpt>
      <trkpt lat="-22.092365" lon="-45.096085">
        <ele>851.244</ele>
        <time>2019-10-17T12:20:23Z</time>
      </trkpt>
      <trkpt lat="-22.092281" lon="-45.096084">
        <ele>850.980</ele>
        <time>2019-10-17T12:20:25Z</time>
      </trkpt>
      <trkpt lat="-22.092210" lon="-45.096076">
        <ele>850.877</ele>
        <time>2019-10-17T12:20:27Z</time>
      </trkpt>
      <trkpt lat="-22.091881" lon="-45.096058">
        <ele>850.323</ele>
        <time>2019-10-17T12:20:34Z</time>
      </trkpt>
      <trkpt lat="-22.091821" lon="-45.096047">
        <ele>849.721</ele>
        <time>2019-10-17T12:20:36Z</time>
      </trkpt>
      <trkpt lat="-22.091741" lon="-45.096046">
        <ele>849.713</ele>
        <time>2019-10-17T12:20:38Z</time>
      </trkpt>
      <trkpt lat="-22.091426" lon="-45.096005">
        <ele>849.543</ele>
        <time>2019-10-17T12:20:45Z</time>
      </trkpt>
      <trkpt lat="-22.091376" lon="-45.095998">
        <ele>849.407</ele>
        <time>2019-10-17T12:20:47Z</time>
      </trkpt>
      <trkpt lat="-22.091329" lon="-45.095998">
        <ele>849.608</ele>
        <time>2019-10-17T12:20:48Z</time>
      </trkpt>
      <trkpt lat="-22.091243" lon="-45.096002">
        <ele>848.945</ele>
        <time>2019-10-17T12:20:50Z</time>
      </trkpt>
      <trkpt lat="-22.091195" lon="-45.095999">
        <ele>849.133</ele>
        <time>2019-10-17T12:20:51Z</time>
      </trkpt>
      <trkpt lat="-22.091098" lon="-45.095974">
        <ele>849.186</ele>
        <time>2019-10-17T12:20:53Z</time>
      </trkpt>
      <trkpt lat="-22.088343" lon="-45.095680">
        <ele>846.326</ele>
        <time>2019-10-17T12:21:55Z</time>
      </trkpt>
      <trkpt lat="-22.085344" lon="-45.094473">
        <ele>842.732</ele>
        <time>2019-10-17T12:23:08Z</time>
      </trkpt>
      <trkpt lat="-22.085294" lon="-45.094460">
        <ele>842.799</ele>
        <time>2019-10-17T12:23:10Z</time>
      </trkpt>
      <trkpt lat="-22.085208" lon="-45.094420">
        <ele>843.025</ele>
        <time>2019-10-17T12:23:12Z</time>
      </trkpt>
      <trkpt lat="-22.085042" lon="-45.094352">
        <ele>842.583</ele>
        <time>2019-10-17T12:23:15Z</time>
      </trkpt>
      <trkpt lat="-22.084988" lon="-45.094342">
        <ele>842.289</ele>
        <time>2019-10-17T12:23:17Z</time>
      </trkpt>
      <trkpt lat="-22.084937" lon="-45.094322">
        <ele>842.006</ele>
        <time>2019-10-17T12:23:18Z</time>
      </trkpt>
      <trkpt lat="-22.084815" lon="-45.094270">
        <ele>841.926</ele>
        <time>2019-10-17T12:23:21Z</time>
      </trkpt>
      <trkpt lat="-22.084762" lon="-45.094248">
        <ele>841.908</ele>
        <time>2019-10-17T12:23:23Z</time>
      </trkpt>
      <trkpt lat="-22.084720" lon="-45.094217">
        <ele>841.922</ele>
        <time>2019-10-17T12:23:24Z</time>
      </trkpt>
      <trkpt lat="-22.084658" lon="-45.094183">
        <ele>841.960</ele>
        <time>2019-10-17T12:23:25Z</time>
      </trkpt>
      <trkpt lat="-22.082428" lon="-45.093430">
        <ele>839.893</ele>
        <time>2019-10-17T12:24:17Z</time>
      </trkpt>
      <trkpt lat="-22.082283" lon="-45.093443">
        <ele>839.483</ele>
        <time>2019-10-17T12:24:21Z</time>
      </trkpt>
      <trkpt lat="-22.082200" lon="-45.093476">
        <ele>839.569</ele>
        <time>2019-10-17T12:24:23Z</time>
      </trkpt>
      <trkpt lat="-22.082146" lon="-45.093500">
        <ele>839.456</ele>
        <time>2019-10-17T12:24:25Z</time>
      </trkpt>
      <trkpt lat="-22.082090" lon="-45.093501">
        <ele>839.032</ele>
        <time>2019-10-17T12:24:27Z</time>
      </trkpt>
      <trkpt lat="-22.082028" lon="-45.093504">
        <ele>838.860</ele>
        <time>2019-10-17T12:24:29Z</time>
      </trkpt>
      <trkpt lat="-22.081983" lon="-45.093516">
        <ele>838.653</ele>
        <time>2019-10-17T12:24:30Z</time>
      </trkpt>
      <trkpt lat="-22.081935" lon="-45.093533">
        <ele>838.304</ele>
        <time>2019-10-17T12:24:32Z</time>
      </trkpt>
      <trkpt lat="-22.081883" lon="-45.093556">
        <ele>838.614</ele>
        <time>2019-10-17T12:24:34Z</time>
      </trkpt>
      <trkpt lat="-22.081788" lon="-45.093594">
        <ele>838.908</ele>
        <time>2019-10-17T12:24:36Z</time>
      </trkpt>
      <trkpt lat="-22.081739" lon="-45.093606">
        <ele>838.899</ele>
        <time>2019-10-17T12:24:38Z</time>
      </trkpt>
      <trkpt lat="-22.081682" lon="-45.093616">
        <ele>838.737</ele>
        <time>2019-10-17T12:24:39Z</time>
      </trkpt>
      <trkpt lat="-22.081590" lon="-45.093667">
        <ele>838.280</ele>
        <time>2019-10-17T12:24:41Z</time>
      </trkpt>
      <trkpt lat="-22.080437" lon="-45.094142">
        <ele>837.840</ele>
        <time>2019-10-17T12:25:07Z</time>
      </trkpt>
      <trkpt lat="-22.080352" lon="-45.094156">
        <ele>837.666</ele>
        <time>2019-10-17T12:25:10Z</time>
      </trkpt>
      <trkpt lat="-22.080304" lon="-45.094161">
        <ele>837.283</ele>
        <time>2019-10-17T12:25:11Z</time>
      </trkpt>
      <trkpt lat="-22.079221" lon="-45.093796">
        <ele>837.299</ele>
        <time>2019-10-17T12:25:38Z</time>
      </trkpt>
      <trkpt lat="-22.079184" lon="-45.093751">
        <ele>837.647</ele>
        <time>2019-10-17T12:25:40Z</time>
      </trkpt>
      <trkpt lat="-22.079129" lon="-45.093691">
        <ele>837.796</ele>
        <time>2019-10-17T12:25:42Z</time>
      </trkpt>
      <trkpt lat="-22.079091" lon="-45.093638">
        <ele>837.631</ele>
        <time>2019-10-17T12:25:44Z</time>
      </trkpt>
      <trkpt lat="-22.078353" lon="-45.092203">
        <ele>835.724</ele>
        <time>2019-10-17T12:26:19Z</time>
      </trkpt>
      <trkpt lat="-22.078318" lon="-45.092170">
        <ele>836.208</ele>
        <time>2019-10-17T12:26:21Z</time>
      </trkpt>
      <trkpt lat="-22.078261" lon="-45.092052">
        <ele>836.313</ele>
        <time>2019-10-17T12:26:23Z</time>
      </trkpt>
      <trkpt lat="-22.077408" lon="-45.091098">
        <ele>835.691</ele>
        <time>2019-10-17T12:26:50Z</time>
      </trkpt>
      <trkpt lat="-22.077360" lon="-45.091067">
        <ele>836.024</ele>
        <time>2019-10-17T12:26:52Z</time>
      </trkpt>
      <trkpt lat="-22.077305" lon="-45.091044">
        <ele>836.494</ele>
        <time>2019-10-17T12:26:53Z</time>
      </trkpt>
      <trkpt lat="-22.077255" lon="-45.091023">
        <ele>836.820</ele>
        <time>2019-10-17T12:26:55Z</time>
      </trkpt>
      <trkpt lat="-22.077204" lon="-45.090986">
        <ele>836.287</ele>
        <time>2019-10-17T12:26:56Z</time>
      </trkpt>
      <trkpt lat="-22.077148" lon="-45.090952">
        <ele>836.283</ele>
        <time>2019-10-17T12:26:58Z</time>
      </trkpt>
      <trkpt lat="-22.077080" lon="-45.090926">
        <ele>836.141</ele>
        <time>2019-10-17T12:27:00Z</time>
      </trkpt>
      <trkpt lat="-22.076985" lon="-45.090900">
        <ele>836.287</ele>
        <time>2019-10-17T12:27:02Z</time>
      </trkpt>
      <trkpt lat="-22.076923" lon="-45.090879">
        <ele>835.842</ele>
        <time>2019-10-17T12:27:04Z</time>
      </trkpt>
      <trkpt lat="-22.076839" lon="-45.090848">
        <ele>835.726</ele>
        <time>2019-10-17T12:27:06Z</time>
      </trkpt>
      <trkpt lat="-22.076599" lon="-45.090775">
        <ele>835.308</ele>
        <time>2019-10-17T12:27:11Z</time>
      </trkpt>
      <trkpt lat="-22.076542" lon="-45.090757">
        <ele>835.942</ele>
        <time>2019-10-17T12:27:13Z</time>
      </trkpt>
      <trkpt lat="-22.076420" lon="-45.090756">
        <ele>835.860</ele>
        <time>2019-10-17T12:27:16Z</time>
      </trkpt>
      <trkpt lat="-22.074549" lon="-45.091401">
        <ele>836.553</ele>
        <time>2019-10-17T12:28:01Z</time>
      </trkpt>
      <trkpt lat="-22.074515" lon="-45.091436">
        <ele>836.353</ele>
        <time>2019-10-17T12:28:03Z</time>
      </trkpt>
      <trkpt lat="-22.074458" lon="-45.091445">
        <ele>836.629</ele>
        <time>2019-10-17T12:28:05Z</time>
      </trkpt>
      <trkpt lat="-22.074386" lon="-45.091458">
        <ele>836.516</ele>
        <time>2019-10-17T12:28:07Z</time>
      </trkpt>
      <trkpt lat="-22.074320" lon="-45.091475">
        <ele>836.332</ele>
        <time>2019-10-17T12:28:09Z</time>
      </trkpt>
      <trkpt lat="-22.074235" lon="-45.091483">
        <ele>836.510</ele>
        <time>2019-10-17T12:28:11Z</time>
      </trkpt>
      <trkpt lat="-22.073990" lon="-45.091512">
        <ele>836.426</ele>
        <time>2019-10-17T12:28:16Z</time>
      </trkpt>
      <trkpt lat="-22.073430" lon="-45.091393">
        <ele>836.847</ele>
        <time>2019-10-17T12:28:30Z</time>
      </trkpt>
      <trkpt lat="-22.073317" lon="-45.091302">
        <ele>836.811</ele>
        <time>2019-10-17T12:28:33Z</time>
      </trkpt>
      <trkpt lat="-22.073253" lon="-45.091243">
        <ele>837.408</ele>
        <time>2019-10-17T12:28:36Z</time>
      </trkpt>
      <trkpt lat="-22.073187" lon="-45.091198">
        <ele>837.316</ele>
        <time>2019-10-17T12:28:38Z</time>
      </trkpt>
      <trkpt lat="-22.073124" lon="-45.091143">
        <ele>836.924</ele>
        <time>2019-10-17T12:28:40Z</time>
      </trkpt>
      <trkpt lat="-22.073064" lon="-45.091086">
        <ele>836.957</ele>
        <time>2019-10-17T12:28:42Z</time>
      </trkpt>
      <trkpt lat="-22.073015" lon="-45.091033">
        <ele>836.867</ele>
        <time>2019-10-17T12:28:44Z</time>
      </trkpt>
      <trkpt lat="-22.072955" lon="-45.090959">
        <ele>836.853</ele>
        <time>2019-10-17T12:28:46Z</time>
      </trkpt>
      <trkpt lat="-22.072907" lon="-45.090889">
        <ele>837.130</ele>
        <time>2019-10-17T12:28:48Z</time>
      </trkpt>
      <trkpt lat="-22.072864" lon="-45.090812">
        <ele>837.356</ele>
        <time>2019-10-17T12:28:50Z</time>
      </trkpt>
      <trkpt lat="-22.072749" lon="-45.090578">
        <ele>837.134</ele>
        <time>2019-10-17T12:28:57Z</time>
      </trkpt>
      <trkpt lat="-22.072737" lon="-45.090530">
        <ele>836.935</ele>
        <time>2019-10-17T12:28:58Z</time>
      </trkpt>
      <trkpt lat="-22.072729" lon="-45.090481">
        <ele>836.786</ele>
        <time>2019-10-17T12:28:59Z</time>
      </trkpt>
      <trkpt lat="-22.072683" lon="-45.090329">
        <ele>836.614</ele>
        <time>2019-10-17T12:29:03Z</time>
      </trkpt>
      <trkpt lat="-22.072854" lon="-45.088335">
        <ele>835.708</ele>
        <time>2019-10-17T12:29:46Z</time>
      </trkpt>
      <trkpt lat="-22.072867" lon="-45.088236">
        <ele>835.797</ele>
        <time>2019-10-17T12:29:49Z</time>
      </trkpt>
      <trkpt lat="-22.072887" lon="-45.088050">
        <ele>835.175</ele>
        <time>2019-10-17T12:29:53Z</time>
      </trkpt>
      <trkpt lat="-22.072894" lon="-45.087915">
        <ele>835.298</ele>
        <time>2019-10-17T12:29:56Z</time>
      </trkpt>
      <trkpt lat="-22.072890" lon="-45.087854">
        <ele>835.468</ele>
        <time>2019-10-17T12:29:58Z</time>
      </trkpt>
      <trkpt lat="-22.072907" lon="-45.087759">
        <ele>835.714</ele>
        <time>2019-10-17T12:30:00Z</time>
      </trkpt>
      <trkpt lat="-22.072914" lon="-45.087688">
        <ele>836.341</ele>
        <time>2019-10-17T12:30:02Z</time>
      </trkpt>
      <trkpt lat="-22.072923" lon="-45.087615">
        <ele>835.747</ele>
        <time>2019-10-17T12:30:04Z</time>
      </trkpt>
      <trkpt lat="-22.072958" lon="-45.087478">
        <ele>835.165</ele>
        <time>2019-10-17T12:30:07Z</time>
      </trkpt>
      <trkpt lat="-22.072950" lon="-45.087403">
        <ele>835.337</ele>
        <time>2019-10-17T12:30:09Z</time>
      </trkpt>
      <trkpt lat="-22.072951" lon="-45.087321">
        <ele>835.149</ele>
        <time>2019-10-17T12:30:11Z</time>
      </trkpt>
      <trkpt lat="-22.072955" lon="-45.087270">
        <ele>835.313</ele>
        <time>2019-10-17T12:30:12Z</time>
      </trkpt>
      <trkpt lat="-22.072972" lon="-45.087107">
        <ele>835.608</ele>
        <time>2019-10-17T12:30:16Z</time>
      </trkpt>
      <trkpt lat="-22.072980" lon="-45.087001">
        <ele>835.977</ele>
        <time>2019-10-17T12:30:18Z</time>
      </trkpt>
      <trkpt lat="-22.072972" lon="-45.086946">
        <ele>835.845</ele>
        <time>2019-10-17T12:30:20Z</time>
      </trkpt>
      <trkpt lat="-22.072982" lon="-45.086898">
        <ele>835.928</ele>
        <time>2019-10-17T12:30:21Z</time>
      </trkpt>
      <trkpt lat="-22.072996" lon="-45.086836">
        <ele>835.818</ele>
        <time>2019-10-17T12:30:22Z</time>
      </trkpt>
      <trkpt lat="-22.073005" lon="-45.086781">
        <ele>835.714</ele>
        <time>2019-10-17T12:30:24Z</time>
      </trkpt>
      <trkpt lat="-22.073013" lon="-45.086696">
        <ele>835.651</ele>
        <time>2019-10-17T12:30:26Z</time>
      </trkpt>
      <trkpt lat="-22.073018" lon="-45.086628">
        <ele>835.657</ele>
        <time>2019-10-17T12:30:28Z</time>
      </trkpt>
      <trkpt lat="-22.073027" lon="-45.086518">
        <ele>835.835</ele>
        <time>2019-10-17T12:30:30Z</time>
      </trkpt>
      <trkpt lat="-22.073033" lon="-45.086458">
        <ele>836.182</ele>
        <time>2019-10-17T12:30:32Z</time>
      </trkpt>
      <trkpt lat="-22.073036" lon="-45.086400">
        <ele>835.943</ele>
        <time>2019-10-17T12:30:34Z</time>
      </trkpt>
      <trkpt lat="-22.073037" lon="-45.086331">
        <ele>836.517</ele>
        <time>2019-10-17T12:30:36Z</time>
      </trkpt>
      <trkpt lat="-22.073047" lon="-45.086260">
        <ele>836.308</ele>
        <time>2019-10-17T12:30:38Z</time>
      </trkpt>
      <trkpt lat="-22.073057" lon="-45.086203">
        <ele>836.342</ele>
        <time>2019-10-17T12:30:40Z</time>
      </trkpt>
      <trkpt lat="-22.073065" lon="-45.086126">
        <ele>836.310</ele>
        <time>2019-10-17T12:30:42Z</time>
      </trkpt>
      <trkpt lat="-22.073067" lon="-45.086062">
        <ele>835.913</ele>
        <time>2019-10-17T12:30:44Z</time>
      </trkpt>
      <trkpt lat="-22.073070" lon="-45.085925">
        <ele>835.933</ele>
        <time>2019-10-17T12:30:47Z</time>
      </trkpt>
      <trkpt lat="-22.073078" lon="-45.085854">
        <ele>835.779</ele>
        <time>2019-10-17T12:30:48Z</time>
      </trkpt>
      <trkpt lat="-22.073075" lon="-45.085729">
        <ele>835.436</ele>
        <time>2019-10-17T12:30:52Z</time>
      </trkpt>
      <trkpt lat="-22.073069" lon="-45.085655">
        <ele>835.642</ele>
        <time>2019-10-17T12:30:53Z</time>
      </trkpt>
      <trkpt lat="-22.073074" lon="-45.085591">
        <ele>835.940</ele>
        <time>2019-10-17T12:30:55Z</time>
      </trkpt>
      <trkpt lat="-22.073077" lon="-45.085534">
        <ele>835.818</ele>
        <time>2019-10-17T12:30:57Z</time>
      </trkpt>
      <trkpt lat="-22.073091" lon="-45.085416">
        <ele>835.598</ele>
        <time>2019-10-17T12:31:00Z</time>
      </trkpt>
      <trkpt lat="-22.073098" lon="-45.085350">
        <ele>835.717</ele>
        <time>2019-10-17T12:31:02Z</time>
      </trkpt>
      <trkpt lat="-22.073112" lon="-45.085094">
        <ele>835.508</ele>
        <time>2019-10-17T12:31:07Z</time>
      </trkpt>
      <trkpt lat="-22.073109" lon="-45.085029">
        <ele>835.725</ele>
        <time>2019-10-17T12:31:09Z</time>
      </trkpt>
      <trkpt lat="-22.073107" lon="-45.084963">
        <ele>835.613</ele>
        <time>2019-10-17T12:31:11Z</time>
      </trkpt>
      <trkpt lat="-22.073101" lon="-45.084893">
        <ele>836.066</ele>
        <time>2019-10-17T12:31:13Z</time>
      </trkpt>
      <trkpt lat="-22.073095" lon="-45.084845">
        <ele>836.086</ele>
        <time>2019-10-17T12:31:14Z</time>
      </trkpt>
      <trkpt lat="-22.073088" lon="-45.084783">
        <ele>835.772</ele>
        <time>2019-10-17T12:31:15Z</time>
      </trkpt>
      <trkpt lat="-22.073084" lon="-45.084670">
        <ele>836.039</ele>
        <time>2019-10-17T12:31:18Z</time>
      </trkpt>
      <trkpt lat="-22.073072" lon="-45.084523">
        <ele>836.395</ele>
        <time>2019-10-17T12:31:21Z</time>
      </trkpt>
      <trkpt lat="-22.073067" lon="-45.084457">
        <ele>836.153</ele>
        <time>2019-10-17T12:31:23Z</time>
      </trkpt>
      <trkpt lat="-22.073056" lon="-45.084348">
        <ele>836.179</ele>
        <time>2019-10-17T12:31:25Z</time>
      </trkpt>
      <trkpt lat="-22.073044" lon="-45.084285">
        <ele>835.705</ele>
        <time>2019-10-17T12:31:27Z</time>
      </trkpt>
      <trkpt lat="-22.073039" lon="-45.084223">
        <ele>836.325</ele>
        <time>2019-10-17T12:31:28Z</time>
      </trkpt>
      <trkpt lat="-22.073033" lon="-45.084164">
        <ele>836.108</ele>
        <time>2019-10-17T12:31:30Z</time>
      </trkpt>
      <trkpt lat="-22.072986" lon="-45.083976">
        <ele>835.371</ele>
        <time>2019-10-17T12:31:34Z</time>
      </trkpt>
      <trkpt lat="-22.072956" lon="-45.083937">
        <ele>835.529</ele>
        <time>2019-10-17T12:31:36Z</time>
      </trkpt>
      <trkpt lat="-22.072953" lon="-45.083882">
        <ele>835.722</ele>
        <time>2019-10-17T12:31:37Z</time>
      </trkpt>
      <trkpt lat="-22.072945" lon="-45.083833">
        <ele>835.722</ele>
        <time>2019-10-17T12:31:38Z</time>
      </trkpt>
      <trkpt lat="-22.072932" lon="-45.083772">
        <ele>836.078</ele>
        <time>2019-10-17T12:31:40Z</time>
      </trkpt>
      <trkpt lat="-22.072914" lon="-45.083709">
        <ele>835.955</ele>
        <time>2019-10-17T12:31:41Z</time>
      </trkpt>
      <trkpt lat="-22.072741" lon="-45.083235">
        <ele>835.981</ele>
        <time>2019-10-17T12:31:52Z</time>
      </trkpt>
      <trkpt lat="-22.072726" lon="-45.083188">
        <ele>835.749</ele>
        <time>2019-10-17T12:31:54Z</time>
      </trkpt>
      <trkpt lat="-22.072703" lon="-45.083143">
        <ele>835.315</ele>
        <time>2019-10-17T12:31:55Z</time>
      </trkpt>
      <trkpt lat="-22.072674" lon="-45.083069">
        <ele>835.465</ele>
        <time>2019-10-17T12:31:57Z</time>
      </trkpt>
      <trkpt lat="-22.072653" lon="-45.083012">
        <ele>835.611</ele>
        <time>2019-10-17T12:31:58Z</time>
      </trkpt>
      <trkpt lat="-22.072629" lon="-45.082956">
        <ele>835.508</ele>
        <time>2019-10-17T12:32:00Z</time>
      </trkpt>
      <trkpt lat="-22.072489" lon="-45.082581">
        <ele>835.235</ele>
        <time>2019-10-17T12:32:09Z</time>
      </trkpt>
      <trkpt lat="-22.072464" lon="-45.082530">
        <ele>835.453</ele>
        <time>2019-10-17T12:32:10Z</time>
      </trkpt>
      <trkpt lat="-22.072421" lon="-45.082428">
        <ele>835.496</ele>
        <time>2019-10-17T12:32:13Z</time>
      </trkpt>
      <trkpt lat="-22.072400" lon="-45.082371">
        <ele>835.316</ele>
        <time>2019-10-17T12:32:15Z</time>
      </trkpt>
      <trkpt lat="-22.072374" lon="-45.082309">
        <ele>835.692</ele>
        <time>2019-10-17T12:32:16Z</time>
      </trkpt>
      <trkpt lat="-22.072344" lon="-45.082246">
        <ele>835.369</ele>
        <time>2019-10-17T12:32:18Z</time>
      </trkpt>
      <trkpt lat="-22.072249" lon="-45.081982">
        <ele>835.415</ele>
        <time>2019-10-17T12:32:24Z</time>
      </trkpt>
      <trkpt lat="-22.072233" lon="-45.081912">
        <ele>835.323</ele>
        <time>2019-10-17T12:32:26Z</time>
      </trkpt>
      <trkpt lat="-22.072197" lon="-45.081845">
        <ele>835.211</ele>
        <time>2019-10-17T12:32:28Z</time>
      </trkpt>
      <trkpt lat="-22.071706" lon="-45.080624">
        <ele>835.421</ele>
        <time>2019-10-17T12:32:55Z</time>
      </trkpt>
      <trkpt lat="-22.071675" lon="-45.080559">
        <ele>835.303</ele>
        <time>2019-10-17T12:32:58Z</time>
      </trkpt>
      <trkpt lat="-22.071671" lon="-45.080506">
        <ele>835.208</ele>
        <time>2019-10-17T12:32:59Z</time>
      </trkpt>
      <trkpt lat="-22.071644" lon="-45.080410">
        <ele>835.425</ele>
        <time>2019-10-17T12:33:01Z</time>
      </trkpt>
      <trkpt lat="-22.071603" lon="-45.080313">
        <ele>835.363</ele>
        <time>2019-10-17T12:33:03Z</time>
      </trkpt>
      <trkpt lat="-22.071580" lon="-45.080248">
        <ele>835.796</ele>
        <time>2019-10-17T12:33:05Z</time>
      </trkpt>
      <trkpt lat="-22.071485" lon="-45.080100">
        <ele>835.696</ele>
        <time>2019-10-17T12:33:08Z</time>
      </trkpt>
      <trkpt lat="-22.071469" lon="-45.080052">
        <ele>835.982</ele>
        <time>2019-10-17T12:33:10Z</time>
      </trkpt>
      <trkpt lat="-22.071448" lon="-45.079988">
        <ele>835.669</ele>
        <time>2019-10-17T12:33:11Z</time>
      </trkpt>
      <trkpt lat="-22.071428" lon="-45.079921">
        <ele>835.735</ele>
        <time>2019-10-17T12:33:13Z</time>
      </trkpt>
      <trkpt lat="-22.071417" lon="-45.079859">
        <ele>836.083</ele>
        <time>2019-10-17T12:33:15Z</time>
      </trkpt>
      <trkpt lat="-22.071404" lon="-45.079792">
        <ele>835.748</ele>
        <time>2019-10-17T12:33:17Z</time>
      </trkpt>
      <trkpt lat="-22.071381" lon="-45.079716">
        <ele>835.661</ele>
        <time>2019-10-17T12:33:19Z</time>
      </trkpt>
      <trkpt lat="-22.071356" lon="-45.079641">
        <ele>835.717</ele>
        <time>2019-10-17T12:33:21Z</time>
      </trkpt>
      <trkpt lat="-22.071342" lon="-45.079590">
        <ele>835.908</ele>
        <time>2019-10-17T12:33:22Z</time>
      </trkpt>
      <trkpt lat="-22.071220" lon="-45.079330">
        <ele>836.158</ele>
        <time>2019-10-17T12:33:27Z</time>
      </trkpt>
      <trkpt lat="-22.071186" lon="-45.079256">
        <ele>836.486</ele>
        <time>2019-10-17T12:33:29Z</time>
      </trkpt>
      <trkpt lat="-22.071161" lon="-45.079155">
        <ele>836.529</ele>
        <time>2019-10-17T12:33:31Z</time>
      </trkpt>
      <trkpt lat="-22.071149" lon="-45.079104">
        <ele>836.339</ele>
        <time>2019-10-17T12:33:33Z</time>
      </trkpt>
      <trkpt lat="-22.071106" lon="-45.078860">
        <ele>836.545</ele>
        <time>2019-10-17T12:33:38Z</time>
      </trkpt>
      <trkpt lat="-22.071124" lon="-45.078814">
        <ele>836.842</ele>
        <time>2019-10-17T12:33:40Z</time>
      </trkpt>
      <trkpt lat="-22.071104" lon="-45.078746">
        <ele>836.788</ele>
        <time>2019-10-17T12:33:41Z</time>
      </trkpt>
      <trkpt lat="-22.071092" lon="-45.078674">
        <ele>836.786</ele>
        <time>2019-10-17T12:33:43Z</time>
      </trkpt>
      <trkpt lat="-22.071098" lon="-45.078601">
        <ele>836.777</ele>
        <time>2019-10-17T12:33:45Z</time>
      </trkpt>
      <trkpt lat="-22.071104" lon="-45.078532">
        <ele>836.561</ele>
        <time>2019-10-17T12:33:46Z</time>
      </trkpt>
      <trkpt lat="-22.071113" lon="-45.078461">
        <ele>836.227</ele>
        <time>2019-10-17T12:33:48Z</time>
      </trkpt>
      <trkpt lat="-22.071121" lon="-45.078371">
        <ele>836.508</ele>
        <time>2019-10-17T12:33:50Z</time>
      </trkpt>
      <trkpt lat="-22.071130" lon="-45.078305">
        <ele>836.421</ele>
        <time>2019-10-17T12:33:52Z</time>
      </trkpt>
      <trkpt lat="-22.071159" lon="-45.078214">
        <ele>836.869</ele>
        <time>2019-10-17T12:33:54Z</time>
      </trkpt>
      <trkpt lat="-22.071178" lon="-45.078151">
        <ele>837.012</ele>
        <time>2019-10-17T12:33:56Z</time>
      </trkpt>
      <trkpt lat="-22.071202" lon="-45.078093">
        <ele>837.292</ele>
        <time>2019-10-17T12:33:57Z</time>
      </trkpt>
      <trkpt lat="-22.071237" lon="-45.078034">
        <ele>836.898</ele>
        <time>2019-10-17T12:33:59Z</time>
      </trkpt>
      <trkpt lat="-22.071260" lon="-45.077990">
        <ele>837.025</ele>
        <time>2019-10-17T12:34:00Z</time>
      </trkpt>
      <trkpt lat="-22.071296" lon="-45.077934">
        <ele>837.071</ele>
        <time>2019-10-17T12:34:02Z</time>
      </trkpt>
      <trkpt lat="-22.071349" lon="-45.077866">
        <ele>837.119</ele>
        <time>2019-10-17T12:34:04Z</time>
      </trkpt>
      <trkpt lat="-22.071400" lon="-45.077799">
        <ele>837.491</ele>
        <time>2019-10-17T12:34:06Z</time>
      </trkpt>
      <trkpt lat="-22.071445" lon="-45.077755">
        <ele>837.081</ele>
        <time>2019-10-17T12:34:08Z</time>
      </trkpt>
      <trkpt lat="-22.071575" lon="-45.077668">
        <ele>837.219</ele>
        <time>2019-10-17T12:34:12Z</time>
      </trkpt>
      <trkpt lat="-22.071758" lon="-45.077496">
        <ele>837.008</ele>
        <time>2019-10-17T12:34:17Z</time>
      </trkpt>
      <trkpt lat="-22.071791" lon="-45.077455">
        <ele>836.873</ele>
        <time>2019-10-17T12:34:19Z</time>
      </trkpt>
      <trkpt lat="-22.072176" lon="-45.077320">
        <ele>836.541</ele>
        <time>2019-10-17T12:34:28Z</time>
      </trkpt>
      <trkpt lat="-22.072923" lon="-45.077358">
        <ele>836.654</ele>
        <time>2019-10-17T12:34:46Z</time>
      </trkpt>
      <trkpt lat="-22.073004" lon="-45.077373">
        <ele>836.664</ele>
        <time>2019-10-17T12:34:48Z</time>
      </trkpt>
      <trkpt lat="-22.073101" lon="-45.077360">
        <ele>837.090</ele>
        <time>2019-10-17T12:34:50Z</time>
      </trkpt>
      <trkpt lat="-22.073166" lon="-45.077350">
        <ele>837.227</ele>
        <time>2019-10-17T12:34:52Z</time>
      </trkpt>
      <trkpt lat="-22.073324" lon="-45.077335">
        <ele>837.223</ele>
        <time>2019-10-17T12:34:56Z</time>
      </trkpt>
      <trkpt lat="-22.073405" lon="-45.077328">
        <ele>836.991</ele>
        <time>2019-10-17T12:34:58Z</time>
      </trkpt>
      <trkpt lat="-22.073505" lon="-45.077310">
        <ele>837.641</ele>
        <time>2019-10-17T12:35:00Z</time>
      </trkpt>
      <trkpt lat="-22.073566" lon="-45.077310">
        <ele>837.881</ele>
        <time>2019-10-17T12:35:02Z</time>
      </trkpt>
      <trkpt lat="-22.073618" lon="-45.077284">
        <ele>838.009</ele>
        <time>2019-10-17T12:35:03Z</time>
      </trkpt>
      <trkpt lat="-22.073724" lon="-45.077239">
        <ele>837.908</ele>
        <time>2019-10-17T12:35:06Z</time>
      </trkpt>
      <trkpt lat="-22.073799" lon="-45.077197">
        <ele>837.758</ele>
        <time>2019-10-17T12:35:08Z</time>
      </trkpt>
      <trkpt lat="-22.073845" lon="-45.077167">
        <ele>837.796</ele>
        <time>2019-10-17T12:35:10Z</time>
      </trkpt>
      <trkpt lat="-22.073921" lon="-45.077115">
        <ele>838.029</ele>
        <time>2019-10-17T12:35:12Z</time>
      </trkpt>
      <trkpt lat="-22.074006" lon="-45.077057">
        <ele>838.269</ele>
        <time>2019-10-17T12:35:14Z</time>
      </trkpt>
      <trkpt lat="-22.074135" lon="-45.076955">
        <ele>837.985</ele>
        <time>2019-10-17T12:35:18Z</time>
      </trkpt>
      <trkpt lat="-22.074172" lon="-45.076923">
        <ele>838.172</ele>
        <time>2019-10-17T12:35:20Z</time>
      </trkpt>
      <trkpt lat="-22.074207" lon="-45.076859">
        <ele>837.918</ele>
        <time>2019-10-17T12:35:21Z</time>
      </trkpt>
      <trkpt lat="-22.074239" lon="-45.076807">
        <ele>838.186</ele>
        <time>2019-10-17T12:35:23Z</time>
      </trkpt>
      <trkpt lat="-22.074272" lon="-45.076748">
        <ele>837.873</ele>
        <time>2019-10-17T12:35:25Z</time>
      </trkpt>
      <trkpt lat="-22.074384" lon="-45.076471">
        <ele>838.085</ele>
        <time>2019-10-17T12:35:31Z</time>
      </trkpt>
      <trkpt lat="-22.074406" lon="-45.076413">
        <ele>837.913</ele>
        <time>2019-10-17T12:35:33Z</time>
      </trkpt>
      <trkpt lat="-22.074431" lon="-45.076339">
        <ele>838.308</ele>
        <time>2019-10-17T12:35:35Z</time>
      </trkpt>
      <trkpt lat="-22.074455" lon="-45.076258">
        <ele>838.551</ele>
        <time>2019-10-17T12:35:37Z</time>
      </trkpt>
      <trkpt lat="-22.074470" lon="-45.076176">
        <ele>838.419</ele>
        <time>2019-10-17T12:35:39Z</time>
      </trkpt>
      <trkpt lat="-22.074477" lon="-45.076111">
        <ele>838.932</ele>
        <time>2019-10-17T12:35:41Z</time>
      </trkpt>
      <trkpt lat="-22.074511" lon="-45.075921">
        <ele>838.992</ele>
        <time>2019-10-17T12:35:45Z</time>
      </trkpt>
      <trkpt lat="-22.074526" lon="-45.075840">
        <ele>838.888</ele>
        <time>2019-10-17T12:35:47Z</time>
      </trkpt>
      <trkpt lat="-22.074530" lon="-45.075776">
        <ele>838.785</ele>
        <time>2019-10-17T12:35:49Z</time>
      </trkpt>
      <trkpt lat="-22.074545" lon="-45.075703">
        <ele>838.711</ele>
        <time>2019-10-17T12:35:51Z</time>
      </trkpt>
      <trkpt lat="-22.074670" lon="-45.074880">
        <ele>837.439</ele>
        <time>2019-10-17T12:36:09Z</time>
      </trkpt>
      <trkpt lat="-22.074679" lon="-45.074803">
        <ele>837.586</ele>
        <time>2019-10-17T12:36:11Z</time>
      </trkpt>
      <trkpt lat="-22.074700" lon="-45.074733">
        <ele>837.260</ele>
        <time>2019-10-17T12:36:13Z</time>
      </trkpt>
      <trkpt lat="-22.074707" lon="-45.074676">
        <ele>836.926</ele>
        <time>2019-10-17T12:36:14Z</time>
      </trkpt>
      <trkpt lat="-22.074714" lon="-45.074603">
        <ele>836.908</ele>
        <time>2019-10-17T12:36:15Z</time>
      </trkpt>
      <trkpt lat="-22.074722" lon="-45.074543">
        <ele>837.082</ele>
        <time>2019-10-17T12:36:17Z</time>
      </trkpt>
      <trkpt lat="-22.074731" lon="-45.074477">
        <ele>837.180</ele>
        <time>2019-10-17T12:36:19Z</time>
      </trkpt>
      <trkpt lat="-22.074738" lon="-45.074398">
        <ele>837.463</ele>
        <time>2019-10-17T12:36:21Z</time>
      </trkpt>
      <trkpt lat="-22.074748" lon="-45.074230">
        <ele>837.063</ele>
        <time>2019-10-17T12:36:24Z</time>
      </trkpt>
      <trkpt lat="-22.074748" lon="-45.074139">
        <ele>837.219</ele>
        <time>2019-10-17T12:36:26Z</time>
      </trkpt>
      <trkpt lat="-22.074746" lon="-45.074084">
        <ele>836.996</ele>
        <time>2019-10-17T12:36:28Z</time>
      </trkpt>
      <trkpt lat="-22.074769" lon="-45.074022">
        <ele>836.882</ele>
        <time>2019-10-17T12:36:29Z</time>
      </trkpt>
      <trkpt lat="-22.074790" lon="-45.073949">
        <ele>836.810</ele>
        <time>2019-10-17T12:36:31Z</time>
      </trkpt>
      <trkpt lat="-22.074813" lon="-45.073814">
        <ele>836.914</ele>
        <time>2019-10-17T12:36:34Z</time>
      </trkpt>
      <trkpt lat="-22.074820" lon="-45.073754">
        <ele>836.754</ele>
        <time>2019-10-17T12:36:35Z</time>
      </trkpt>
      <trkpt lat="-22.074828" lon="-45.073684">
        <ele>837.109</ele>
        <time>2019-10-17T12:36:37Z</time>
      </trkpt>
      <trkpt lat="-22.074834" lon="-45.073616">
        <ele>837.608</ele>
        <time>2019-10-17T12:36:39Z</time>
      </trkpt>
      <trkpt lat="-22.074838" lon="-45.073548">
        <ele>837.725</ele>
        <time>2019-10-17T12:36:40Z</time>
      </trkpt>
      <trkpt lat="-22.074844" lon="-45.073488">
        <ele>837.853</ele>
        <time>2019-10-17T12:36:42Z</time>
      </trkpt>
      <trkpt lat="-22.074848" lon="-45.073379">
        <ele>837.796</ele>
        <time>2019-10-17T12:36:44Z</time>
      </trkpt>
      <trkpt lat="-22.074850" lon="-45.073315">
        <ele>838.086</ele>
        <time>2019-10-17T12:36:46Z</time>
      </trkpt>
      <trkpt lat="-22.074880" lon="-45.073155">
        <ele>838.092</ele>
        <time>2019-10-17T12:36:49Z</time>
      </trkpt>
      <trkpt lat="-22.075031" lon="-45.072153">
        <ele>837.939</ele>
        <time>2019-10-17T12:37:12Z</time>
      </trkpt>
      <trkpt lat="-22.075037" lon="-45.072087">
        <ele>838.155</ele>
        <time>2019-10-17T12:37:14Z</time>
      </trkpt>
      <trkpt lat="-22.075051" lon="-45.071977">
        <ele>838.343</ele>
        <time>2019-10-17T12:37:16Z</time>
      </trkpt>
      <trkpt lat="-22.075058" lon="-45.071896">
        <ele>838.012</ele>
        <time>2019-10-17T12:37:18Z</time>
      </trkpt>
      <trkpt lat="-22.075063" lon="-45.071842">
        <ele>838.432</ele>
        <time>2019-10-17T12:37:20Z</time>
      </trkpt>
      <trkpt lat="-22.075086" lon="-45.071747">
        <ele>838.305</ele>
        <time>2019-10-17T12:38:13Z</time>
      </trkpt>
      <trkpt lat="-22.075074" lon="-45.071672">
        <ele>838.308</ele>
        <time>2019-10-17T12:38:18Z</time>
      </trkpt>
      <trkpt lat="-22.075083" lon="-45.071613">
        <ele>837.995</ele>
        <time>2019-10-17T12:38:21Z</time>
      </trkpt>
      <trkpt lat="-22.075091" lon="-45.071549">
        <ele>837.973</ele>
        <time>2019-10-17T12:38:23Z</time>
      </trkpt>
      <trkpt lat="-22.075092" lon="-45.071473">
        <ele>837.756</ele>
        <time>2019-10-17T12:38:25Z</time>
      </trkpt>
      <trkpt lat="-22.075096" lon="-45.071417">
        <ele>838.196</ele>
        <time>2019-10-17T12:38:27Z</time>
      </trkpt>
      <trkpt lat="-22.075103" lon="-45.071345">
        <ele>837.972</ele>
        <time>2019-10-17T12:38:29Z</time>
      </trkpt>
      <trkpt lat="-22.075103" lon="-45.071285">
        <ele>837.919</ele>
        <time>2019-10-17T12:38:30Z</time>
      </trkpt>
      <trkpt lat="-22.075104" lon="-45.071176">
        <ele>838.175</ele>
        <time>2019-10-17T12:38:33Z</time>
      </trkpt>
      <trkpt lat="-22.075104" lon="-45.071106">
        <ele>838.233</ele>
        <time>2019-10-17T12:38:35Z</time>
      </trkpt>
      <trkpt lat="-22.075100" lon="-45.071028">
        <ele>838.516</ele>
        <time>2019-10-17T12:38:37Z</time>
      </trkpt>
      <trkpt lat="-22.075103" lon="-45.070962">
        <ele>838.676</ele>
        <time>2019-10-17T12:38:39Z</time>
      </trkpt>
      <trkpt lat="-22.075097" lon="-45.070904">
        <ele>838.613</ele>
        <time>2019-10-17T12:38:40Z</time>
      </trkpt>
      <trkpt lat="-22.075080" lon="-45.070821">
        <ele>838.608</ele>
        <time>2019-10-17T12:38:42Z</time>
      </trkpt>
      <trkpt lat="-22.075071" lon="-45.070766">
        <ele>838.515</ele>
        <time>2019-10-17T12:38:44Z</time>
      </trkpt>
      <trkpt lat="-22.075051" lon="-45.070661">
        <ele>838.423</ele>
        <time>2019-10-17T12:38:46Z</time>
      </trkpt>
      <trkpt lat="-22.075042" lon="-45.070596">
        <ele>838.256</ele>
        <time>2019-10-17T12:38:48Z</time>
      </trkpt>
      <trkpt lat="-22.074746" lon="-45.068808">
        <ele>837.066</ele>
        <time>2019-10-17T12:39:28Z</time>
      </trkpt>
      <trkpt lat="-22.074741" lon="-45.068740">
        <ele>837.582</ele>
        <time>2019-10-17T12:39:29Z</time>
      </trkpt>
      <trkpt lat="-22.074741" lon="-45.068648">
        <ele>838.069</ele>
        <time>2019-10-17T12:39:31Z</time>
      </trkpt>
      <trkpt lat="-22.074747" lon="-45.068575">
        <ele>837.525</ele>
        <time>2019-10-17T12:39:33Z</time>
      </trkpt>
      <trkpt lat="-22.074753" lon="-45.068509">
        <ele>837.443</ele>
        <time>2019-10-17T12:39:35Z</time>
      </trkpt>
      <trkpt lat="-22.071842" lon="-45.065083">
        <ele>836.767</ele>
        <time>2019-10-17T12:41:20Z</time>
      </trkpt>
      <trkpt lat="-22.071783" lon="-45.065021">
        <ele>836.581</ele>
        <time>2019-10-17T12:41:22Z</time>
      </trkpt>
      <trkpt lat="-22.071558" lon="-45.064736">
        <ele>836.919</ele>
        <time>2019-10-17T12:41:30Z</time>
      </trkpt>
      <trkpt lat="-22.069613" lon="-45.062279">
        <ele>836.508</ele>
        <time>2019-10-17T12:42:38Z</time>
      </trkpt>
      <trkpt lat="-22.069576" lon="-45.062239">
        <ele>836.740</ele>
        <time>2019-10-17T12:42:40Z</time>
      </trkpt>
      <trkpt lat="-22.069044" lon="-45.061550">
        <ele>837.298</ele>
        <time>2019-10-17T12:43:00Z</time>
      </trkpt>
      <trkpt lat="-22.069001" lon="-45.061494">
        <ele>837.321</ele>
        <time>2019-10-17T12:43:02Z</time>
      </trkpt>
      <trkpt lat="-22.068965" lon="-45.061456">
        <ele>837.291</ele>
        <time>2019-10-17T12:43:03Z</time>
      </trkpt>
      <trkpt lat="-22.068926" lon="-45.061413">
        <ele>837.317</ele>
        <time>2019-10-17T12:43:04Z</time>
      </trkpt>
      <trkpt lat="-22.068888" lon="-45.061373">
        <ele>837.364</ele>
        <time>2019-10-17T12:43:06Z</time>
      </trkpt>
      <trkpt lat="-22.068858" lon="-45.061331">
        <ele>837.230</ele>
        <time>2019-10-17T12:43:07Z</time>
      </trkpt>
      <trkpt lat="-22.068799" lon="-45.061260">
        <ele>837.488</ele>
        <time>2019-10-17T12:43:09Z</time>
      </trkpt>
      <trkpt lat="-22.068730" lon="-45.061161">
        <ele>837.239</ele>
        <time>2019-10-17T12:43:13Z</time>
      </trkpt>
      <trkpt lat="-22.068675" lon="-45.061072">
        <ele>836.701</ele>
        <time>2019-10-17T12:43:15Z</time>
      </trkpt>
      <trkpt lat="-22.068638" lon="-45.061017">
        <ele>836.921</ele>
        <time>2019-10-17T12:43:16Z</time>
      </trkpt>
      <trkpt lat="-22.068613" lon="-45.060974">
        <ele>836.908</ele>
        <time>2019-10-17T12:43:18Z</time>
      </trkpt>
      <trkpt lat="-22.068587" lon="-45.060926">
        <ele>837.067</ele>
        <time>2019-10-17T12:43:19Z</time>
      </trkpt>
      <trkpt lat="-22.068547" lon="-45.060851">
        <ele>836.935</ele>
        <time>2019-10-17T12:43:21Z</time>
      </trkpt>
      <trkpt lat="-22.068519" lon="-45.060804">
        <ele>836.878</ele>
        <time>2019-10-17T12:43:22Z</time>
      </trkpt>
      <trkpt lat="-22.068484" lon="-45.060746">
        <ele>836.998</ele>
        <time>2019-10-17T12:43:24Z</time>
      </trkpt>
      <trkpt lat="-22.068444" lon="-45.060662">
        <ele>837.234</ele>
        <time>2019-10-17T12:43:26Z</time>
      </trkpt>
      <trkpt lat="-22.068415" lon="-45.060602">
        <ele>837.131</ele>
        <time>2019-10-17T12:43:28Z</time>
      </trkpt>
      <trkpt lat="-22.068379" lon="-45.060527">
        <ele>836.997</ele>
        <time>2019-10-17T12:43:30Z</time>
      </trkpt>
      <trkpt lat="-22.067225" lon="-45.058188">
        <ele>837.625</ele>
        <time>2019-10-17T12:44:30Z</time>
      </trkpt>
      <trkpt lat="-22.067218" lon="-45.058138">
        <ele>837.283</ele>
        <time>2019-10-17T12:44:32Z</time>
      </trkpt>
      <trkpt lat="-22.067192" lon="-45.058095">
        <ele>837.225</ele>
        <time>2019-10-17T12:44:33Z</time>
      </trkpt>
      <trkpt lat="-22.067153" lon="-45.058022">
        <ele>836.917</ele>
        <time>2019-10-17T12:44:35Z</time>
      </trkpt>
      <trkpt lat="-22.067118" lon="-45.057957">
        <ele>837.208</ele>
        <time>2019-10-17T12:44:36Z</time>
      </trkpt>
      <trkpt lat="-22.067087" lon="-45.057898">
        <ele>837.462</ele>
        <time>2019-10-17T12:44:38Z</time>
      </trkpt>
      <trkpt lat="-22.065835" lon="-45.056383">
        <ele>837.510</ele>
        <time>2019-10-17T12:45:23Z</time>
      </trkpt>
      <trkpt lat="-22.065803" lon="-45.056337">
        <ele>837.313</ele>
        <time>2019-10-17T12:45:26Z</time>
      </trkpt>
      <trkpt lat="-22.065776" lon="-45.056283">
        <ele>837.933</ele>
        <time>2019-10-17T12:45:43Z</time>
      </trkpt>
      <trkpt lat="-22.065718" lon="-45.056236">
        <ele>837.749</ele>
        <time>2019-10-17T12:46:09Z</time>
      </trkpt>
      <trkpt lat="-22.065614" lon="-45.056132">
        <ele>837.296</ele>
        <time>2019-10-17T12:46:17Z</time>
      </trkpt>
      <trkpt lat="-22.065581" lon="-45.056098">
        <ele>836.812</ele>
        <time>2019-10-17T12:46:19Z</time>
      </trkpt>
      <trkpt lat="-22.065512" lon="-45.056030">
        <ele>837.190</ele>
        <time>2019-10-17T12:46:23Z</time>
      </trkpt>
      <trkpt lat="-22.065453" lon="-45.055976">
        <ele>837.036</ele>
        <time>2019-10-17T12:46:26Z</time>
      </trkpt>
      <trkpt lat="-22.065401" lon="-45.055926">
        <ele>836.817</ele>
        <time>2019-10-17T12:46:28Z</time>
      </trkpt>
      <trkpt lat="-22.065365" lon="-45.055889">
        <ele>836.918</ele>
        <time>2019-10-17T12:46:30Z</time>
      </trkpt>
      <trkpt lat="-22.065314" lon="-45.055836">
        <ele>836.808</ele>
        <time>2019-10-17T12:46:32Z</time>
      </trkpt>
      <trkpt lat="-22.065268" lon="-45.055797">
        <ele>836.817</ele>
        <time>2019-10-17T12:46:33Z</time>
      </trkpt>
      <trkpt lat="-22.065220" lon="-45.055741">
        <ele>836.895</ele>
        <time>2019-10-17T12:46:36Z</time>
      </trkpt>
      <trkpt lat="-22.065182" lon="-45.055699">
        <ele>836.228</ele>
        <time>2019-10-17T12:46:38Z</time>
      </trkpt>
      <trkpt lat="-22.065146" lon="-45.055653">
        <ele>836.338</ele>
        <time>2019-10-17T12:46:39Z</time>
      </trkpt>
      <trkpt lat="-22.065101" lon="-45.055607">
        <ele>836.194</ele>
        <time>2019-10-17T12:46:41Z</time>
      </trkpt>
      <trkpt lat="-22.065059" lon="-45.055561">
        <ele>836.251</ele>
        <time>2019-10-17T12:46:43Z</time>
      </trkpt>
      <trkpt lat="-22.065021" lon="-45.055513">
        <ele>836.317</ele>
        <time>2019-10-17T12:46:44Z</time>
      </trkpt>
      <trkpt lat="-22.064972" lon="-45.055466">
        <ele>836.455</ele>
        <time>2019-10-17T12:46:46Z</time>
      </trkpt>
      <trkpt lat="-22.064784" lon="-45.055258">
        <ele>836.383</ele>
        <time>2019-10-17T12:46:52Z</time>
      </trkpt>
      <trkpt lat="-22.064731" lon="-45.055217">
        <ele>836.325</ele>
        <time>2019-10-17T12:46:54Z</time>
      </trkpt>
      <trkpt lat="-22.064689" lon="-45.055167">
        <ele>836.317</ele>
        <time>2019-10-17T12:46:56Z</time>
      </trkpt>
      <trkpt lat="-22.064102" lon="-45.054485">
        <ele>836.808</ele>
        <time>2019-10-17T12:47:17Z</time>
      </trkpt>
      <trkpt lat="-22.064041" lon="-45.054414">
        <ele>837.292</ele>
        <time>2019-10-17T12:47:20Z</time>
      </trkpt>
      <trkpt lat="-22.063990" lon="-45.054365">
        <ele>837.340</ele>
        <time>2019-10-17T12:47:21Z</time>
      </trkpt>
      <trkpt lat="-22.063942" lon="-45.054303">
        <ele>837.363</ele>
        <time>2019-10-17T12:47:23Z</time>
      </trkpt>
      <trkpt lat="-22.063916" lon="-45.054263">
        <ele>837.283</ele>
        <time>2019-10-17T12:47:24Z</time>
      </trkpt>
      <trkpt lat="-22.063877" lon="-45.054207">
        <ele>837.259</ele>
        <time>2019-10-17T12:47:26Z</time>
      </trkpt>
      <trkpt lat="-22.063821" lon="-45.054093">
        <ele>837.186</ele>
        <time>2019-10-17T12:47:29Z</time>
      </trkpt>
      <trkpt lat="-22.063795" lon="-45.054029">
        <ele>837.352</ele>
        <time>2019-10-17T12:47:31Z</time>
      </trkpt>
      <trkpt lat="-22.063771" lon="-45.053978">
        <ele>837.250</ele>
        <time>2019-10-17T12:47:32Z</time>
      </trkpt>
      <trkpt lat="-22.063751" lon="-45.053921">
        <ele>836.846</ele>
        <time>2019-10-17T12:47:34Z</time>
      </trkpt>
      <trkpt lat="-22.063717" lon="-45.053819">
        <ele>836.788</ele>
        <time>2019-10-17T12:47:37Z</time>
      </trkpt>
      <trkpt lat="-22.063701" lon="-45.053762">
        <ele>836.916</ele>
        <time>2019-10-17T12:47:39Z</time>
      </trkpt>
      <trkpt lat="-22.063682" lon="-45.053691">
        <ele>836.608</ele>
        <time>2019-10-17T12:47:41Z</time>
      </trkpt>
      <trkpt lat="-22.063665" lon="-45.053606">
        <ele>836.688</ele>
        <time>2019-10-17T12:47:43Z</time>
      </trkpt>
      <trkpt lat="-22.063648" lon="-45.053535">
        <ele>836.656</ele>
        <time>2019-10-17T12:47:45Z</time>
      </trkpt>
      <trkpt lat="-22.063631" lon="-45.053453">
        <ele>836.519</ele>
        <time>2019-10-17T12:47:47Z</time>
      </trkpt>
      <trkpt lat="-22.063613" lon="-45.053367">
        <ele>836.259</ele>
        <time>2019-10-17T12:47:49Z</time>
      </trkpt>
      <trkpt lat="-22.063597" lon="-45.053282">
        <ele>836.385</ele>
        <time>2019-10-17T12:47:51Z</time>
      </trkpt>
      <trkpt lat="-22.063580" lon="-45.053198">
        <ele>836.772</ele>
        <time>2019-10-17T12:47:53Z</time>
      </trkpt>
      <trkpt lat="-22.063538" lon="-45.053018">
        <ele>836.488</ele>
        <time>2019-10-17T12:47:57Z</time>
      </trkpt>
      <trkpt lat="-22.063525" lon="-45.052950">
        <ele>836.866</ele>
        <time>2019-10-17T12:47:59Z</time>
      </trkpt>
      <trkpt lat="-22.063508" lon="-45.052882">
        <ele>837.373</ele>
        <time>2019-10-17T12:48:01Z</time>
      </trkpt>
      <trkpt lat="-22.063470" lon="-45.052762">
        <ele>837.185</ele>
        <time>2019-10-17T12:48:04Z</time>
      </trkpt>
      <trkpt lat="-22.063445" lon="-45.052700">
        <ele>837.013</ele>
        <time>2019-10-17T12:48:06Z</time>
      </trkpt>
      <trkpt lat="-22.063423" lon="-45.052657">
        <ele>836.908</ele>
        <time>2019-10-17T12:48:07Z</time>
      </trkpt>
      <trkpt lat="-22.063376" lon="-45.052585">
        <ele>837.051</ele>
        <time>2019-10-17T12:48:09Z</time>
      </trkpt>
      <trkpt lat="-22.063332" lon="-45.052503">
        <ele>837.029</ele>
        <time>2019-10-17T12:48:11Z</time>
      </trkpt>
      <trkpt lat="-22.063294" lon="-45.052429">
        <ele>836.952</ele>
        <time>2019-10-17T12:48:13Z</time>
      </trkpt>
      <trkpt lat="-22.063201" lon="-45.052284">
        <ele>836.572</ele>
        <time>2019-10-17T12:48:17Z</time>
      </trkpt>
      <trkpt lat="-22.063122" lon="-45.052176">
        <ele>836.768</ele>
        <time>2019-10-17T12:48:20Z</time>
      </trkpt>
      <trkpt lat="-22.063086" lon="-45.052125">
        <ele>837.025</ele>
        <time>2019-10-17T12:48:22Z</time>
      </trkpt>
      <trkpt lat="-22.063028" lon="-45.052069">
        <ele>836.421</ele>
        <time>2019-10-17T12:48:24Z</time>
      </trkpt>
      <trkpt lat="-22.062988" lon="-45.052019">
        <ele>836.629</ele>
        <time>2019-10-17T12:48:25Z</time>
      </trkpt>
      <trkpt lat="-22.062951" lon="-45.051977">
        <ele>836.425</ele>
        <time>2019-10-17T12:48:27Z</time>
      </trkpt>
      <trkpt lat="-22.062918" lon="-45.051931">
        <ele>836.526</ele>
        <time>2019-10-17T12:48:29Z</time>
      </trkpt>
      <trkpt lat="-22.062890" lon="-45.051891">
        <ele>836.708</ele>
        <time>2019-10-17T12:48:30Z</time>
      </trkpt>
      <trkpt lat="-22.062847" lon="-45.051844">
        <ele>836.508</ele>
        <time>2019-10-17T12:48:32Z</time>
      </trkpt>
      <trkpt lat="-22.062811" lon="-45.051804">
        <ele>836.876</ele>
        <time>2019-10-17T12:48:34Z</time>
      </trkpt>
      <trkpt lat="-22.062771" lon="-45.051757">
        <ele>837.254</ele>
        <time>2019-10-17T12:48:36Z</time>
      </trkpt>
      <trkpt lat="-22.062720" lon="-45.051683">
        <ele>836.437</ele>
        <time>2019-10-17T12:48:38Z</time>
      </trkpt>
      <trkpt lat="-22.062651" lon="-45.051571">
        <ele>836.637</ele>
        <time>2019-10-17T12:48:41Z</time>
      </trkpt>
      <trkpt lat="-22.062615" lon="-45.051522">
        <ele>836.563</ele>
        <time>2019-10-17T12:48:43Z</time>
      </trkpt>
      <trkpt lat="-22.062578" lon="-45.051479">
        <ele>836.520</ele>
        <time>2019-10-17T12:48:44Z</time>
      </trkpt>
      <trkpt lat="-22.062543" lon="-45.051429">
        <ele>836.216</ele>
        <time>2019-10-17T12:48:46Z</time>
      </trkpt>
      <trkpt lat="-22.062483" lon="-45.051345">
        <ele>836.234</ele>
        <time>2019-10-17T12:48:48Z</time>
      </trkpt>
      <trkpt lat="-22.062442" lon="-45.051299">
        <ele>836.417</ele>
        <time>2019-10-17T12:48:49Z</time>
      </trkpt>
      <trkpt lat="-22.062391" lon="-45.051242">
        <ele>836.387</ele>
        <time>2019-10-17T12:48:52Z</time>
      </trkpt>
      <trkpt lat="-22.062335" lon="-45.051179">
        <ele>836.515</ele>
        <time>2019-10-17T12:48:54Z</time>
      </trkpt>
      <trkpt lat="-22.062281" lon="-45.051108">
        <ele>836.608</ele>
        <time>2019-10-17T12:48:56Z</time>
      </trkpt>
      <trkpt lat="-22.062240" lon="-45.051051">
        <ele>836.475</ele>
        <time>2019-10-17T12:48:58Z</time>
      </trkpt>
      <trkpt lat="-22.062200" lon="-45.050999">
        <ele>836.463</ele>
        <time>2019-10-17T12:48:59Z</time>
      </trkpt>
      <trkpt lat="-22.062163" lon="-45.050948">
        <ele>836.366</ele>
        <time>2019-10-17T12:49:01Z</time>
      </trkpt>
      <trkpt lat="-22.062117" lon="-45.050883">
        <ele>836.816</ele>
        <time>2019-10-17T12:49:03Z</time>
      </trkpt>
      <trkpt lat="-22.062066" lon="-45.050811">
        <ele>836.942</ele>
        <time>2019-10-17T12:49:05Z</time>
      </trkpt>
      <trkpt lat="-22.062025" lon="-45.050755">
        <ele>836.929</ele>
        <time>2019-10-17T12:49:07Z</time>
      </trkpt>
      <trkpt lat="-22.061960" lon="-45.050671">
        <ele>837.195</ele>
        <time>2019-10-17T12:49:09Z</time>
      </trkpt>
      <trkpt lat="-22.061912" lon="-45.050617">
        <ele>837.343</ele>
        <time>2019-10-17T12:49:11Z</time>
      </trkpt>
      <trkpt lat="-22.061873" lon="-45.050568">
        <ele>837.292</ele>
        <time>2019-10-17T12:49:13Z</time>
      </trkpt>
      <trkpt lat="-22.061834" lon="-45.050520">
        <ele>836.973</ele>
        <time>2019-10-17T12:49:14Z</time>
      </trkpt>
      <trkpt lat="-22.061790" lon="-45.050469">
        <ele>837.220</ele>
        <time>2019-10-17T12:49:16Z</time>
      </trkpt>
      <trkpt lat="-22.061751" lon="-45.050423">
        <ele>837.408</ele>
        <time>2019-10-17T12:49:18Z</time>
      </trkpt>
      <trkpt lat="-22.061681" lon="-45.050349">
        <ele>837.283</ele>
        <time>2019-10-17T12:49:20Z</time>
      </trkpt>
      <trkpt lat="-22.061629" lon="-45.050310">
        <ele>837.241</ele>
        <time>2019-10-17T12:49:22Z</time>
      </trkpt>
      <trkpt lat="-22.061565" lon="-45.050261">
        <ele>837.644</ele>
        <time>2019-10-17T12:49:24Z</time>
      </trkpt>
      <trkpt lat="-22.061511" lon="-45.050220">
        <ele>837.864</ele>
        <time>2019-10-17T12:49:26Z</time>
      </trkpt>
      <trkpt lat="-22.061460" lon="-45.050184">
        <ele>837.820</ele>
        <time>2019-10-17T12:49:28Z</time>
      </trkpt>
      <trkpt lat="-22.061390" lon="-45.050140">
        <ele>837.797</ele>
        <time>2019-10-17T12:49:30Z</time>
      </trkpt>
      <trkpt lat="-22.061325" lon="-45.050107">
        <ele>837.963</ele>
        <time>2019-10-17T12:49:32Z</time>
      </trkpt>
      <trkpt lat="-22.061265" lon="-45.050086">
        <ele>838.041</ele>
        <time>2019-10-17T12:49:34Z</time>
      </trkpt>
      <trkpt lat="-22.061212" lon="-45.050070">
        <ele>837.857</ele>
        <time>2019-10-17T12:49:35Z</time>
      </trkpt>
      <trkpt lat="-22.061145" lon="-45.050052">
        <ele>838.000</ele>
        <time>2019-10-17T12:49:37Z</time>
      </trkpt>
      <trkpt lat="-22.061082" lon="-45.050047">
        <ele>838.520</ele>
        <time>2019-10-17T12:49:39Z</time>
      </trkpt>
      <trkpt lat="-22.060998" lon="-45.050015">
        <ele>838.308</ele>
        <time>2019-10-17T12:49:42Z</time>
      </trkpt>
      <trkpt lat="-22.060940" lon="-45.049992">
        <ele>838.559</ele>
        <time>2019-10-17T12:49:43Z</time>
      </trkpt>
      <trkpt lat="-22.060876" lon="-45.049978">
        <ele>838.417</ele>
        <time>2019-10-17T12:49:45Z</time>
      </trkpt>
      <trkpt lat="-22.060818" lon="-45.049968">
        <ele>838.310</ele>
        <time>2019-10-17T12:49:47Z</time>
      </trkpt>
      <trkpt lat="-22.060745" lon="-45.049953">
        <ele>838.440</ele>
        <time>2019-10-17T12:49:49Z</time>
      </trkpt>
      <trkpt lat="-22.060672" lon="-45.049947">
        <ele>838.426</ele>
        <time>2019-10-17T12:49:51Z</time>
      </trkpt>
      <trkpt lat="-22.060603" lon="-45.049938">
        <ele>838.013</ele>
        <time>2019-10-17T12:49:53Z</time>
      </trkpt>
      <trkpt lat="-22.060520" lon="-45.049938">
        <ele>837.989</ele>
        <time>2019-10-17T12:49:55Z</time>
      </trkpt>
      <trkpt lat="-22.060469" lon="-45.049939">
        <ele>838.077</ele>
        <time>2019-10-17T12:49:56Z</time>
      </trkpt>
      <trkpt lat="-22.060415" lon="-45.049939">
        <ele>837.845</ele>
        <time>2019-10-17T12:49:58Z</time>
      </trkpt>
      <trkpt lat="-22.060358" lon="-45.049926">
        <ele>837.847</ele>
        <time>2019-10-17T12:50:00Z</time>
      </trkpt>
      <trkpt lat="-22.060309" lon="-45.049917">
        <ele>837.811</ele>
        <time>2019-10-17T12:50:01Z</time>
      </trkpt>
      <trkpt lat="-22.060244" lon="-45.049913">
        <ele>838.208</ele>
        <time>2019-10-17T12:50:03Z</time>
      </trkpt>
      <trkpt lat="-22.060170" lon="-45.049916">
        <ele>838.368</ele>
        <time>2019-10-17T12:50:05Z</time>
      </trkpt>
      <trkpt lat="-22.060121" lon="-45.049919">
        <ele>838.286</ele>
        <time>2019-10-17T12:50:07Z</time>
      </trkpt>
      <trkpt lat="-22.060067" lon="-45.049916">
        <ele>838.249</ele>
        <time>2019-10-17T12:50:09Z</time>
      </trkpt>
      <trkpt lat="-22.059991" lon="-45.049912">
        <ele>838.419</ele>
        <time>2019-10-17T12:50:11Z</time>
      </trkpt>
      <trkpt lat="-22.059929" lon="-45.049904">
        <ele>838.195</ele>
        <time>2019-10-17T12:50:13Z</time>
      </trkpt>
      <trkpt lat="-22.059881" lon="-45.049897">
        <ele>838.232</ele>
        <time>2019-10-17T12:50:14Z</time>
      </trkpt>
      <trkpt lat="-22.059830" lon="-45.049880">
        <ele>838.468</ele>
        <time>2019-10-17T12:50:16Z</time>
      </trkpt>
      <trkpt lat="-22.059760" lon="-45.049857">
        <ele>837.986</ele>
        <time>2019-10-17T12:50:18Z</time>
      </trkpt>
      <trkpt lat="-22.059693" lon="-45.049841">
        <ele>837.911</ele>
        <time>2019-10-17T12:50:20Z</time>
      </trkpt>
      <trkpt lat="-22.059590" lon="-45.049808">
        <ele>838.021</ele>
        <time>2019-10-17T12:50:23Z</time>
      </trkpt>
      <trkpt lat="-22.059523" lon="-45.049777">
        <ele>838.303</ele>
        <time>2019-10-17T12:50:25Z</time>
      </trkpt>
      <trkpt lat="-22.059477" lon="-45.049760">
        <ele>838.508</ele>
        <time>2019-10-17T12:50:27Z</time>
      </trkpt>
      <trkpt lat="-22.059430" lon="-45.049741">
        <ele>838.465</ele>
        <time>2019-10-17T12:50:28Z</time>
      </trkpt>
      <trkpt lat="-22.059370" lon="-45.049709">
        <ele>838.473</ele>
        <time>2019-10-17T12:50:30Z</time>
      </trkpt>
      <trkpt lat="-22.059315" lon="-45.049678">
        <ele>838.626</ele>
        <time>2019-10-17T12:50:31Z</time>
      </trkpt>
      <trkpt lat="-22.059266" lon="-45.049646">
        <ele>838.446</ele>
        <time>2019-10-17T12:50:33Z</time>
      </trkpt>
      <trkpt lat="-22.059212" lon="-45.049610">
        <ele>838.592</ele>
        <time>2019-10-17T12:50:35Z</time>
      </trkpt>
      <trkpt lat="-22.059162" lon="-45.049574">
        <ele>838.539</ele>
        <time>2019-10-17T12:50:36Z</time>
      </trkpt>
      <trkpt lat="-22.059114" lon="-45.049537">
        <ele>838.385</ele>
        <time>2019-10-17T12:50:38Z</time>
      </trkpt>
      <trkpt lat="-22.059062" lon="-45.049494">
        <ele>838.483</ele>
        <time>2019-10-17T12:50:39Z</time>
      </trkpt>
      <trkpt lat="-22.059026" lon="-45.049462">
        <ele>838.882</ele>
        <time>2019-10-17T12:50:41Z</time>
      </trkpt>
      <trkpt lat="-22.058966" lon="-45.049404">
        <ele>839.043</ele>
        <time>2019-10-17T12:50:43Z</time>
      </trkpt>
      <trkpt lat="-22.058906" lon="-45.049354">
        <ele>839.217</ele>
        <time>2019-10-17T12:50:45Z</time>
      </trkpt>
      <trkpt lat="-22.058855" lon="-45.049311">
        <ele>839.408</ele>
        <time>2019-10-17T12:50:47Z</time>
      </trkpt>
      <trkpt lat="-22.058811" lon="-45.049278">
        <ele>839.492</ele>
        <time>2019-10-17T12:50:48Z</time>
      </trkpt>
      <trkpt lat="-22.058772" lon="-45.049241">
        <ele>839.280</ele>
        <time>2019-10-17T12:50:50Z</time>
      </trkpt>
      <trkpt lat="-22.058719" lon="-45.049189">
        <ele>839.043</ele>
        <time>2019-10-17T12:50:52Z</time>
      </trkpt>
      <trkpt lat="-22.058677" lon="-45.049145">
        <ele>839.413</ele>
        <time>2019-10-17T12:50:54Z</time>
      </trkpt>
      <trkpt lat="-22.058641" lon="-45.049099">
        <ele>839.799</ele>
        <time>2019-10-17T12:50:56Z</time>
      </trkpt>
      <trkpt lat="-22.058597" lon="-45.049021">
        <ele>840.056</ele>
        <time>2019-10-17T12:50:59Z</time>
      </trkpt>
      <trkpt lat="-22.058577" lon="-45.048945">
        <ele>840.112</ele>
        <time>2019-10-17T12:51:02Z</time>
      </trkpt>
      <trkpt lat="-22.058570" lon="-45.048873">
        <ele>840.180</ele>
        <time>2019-10-17T12:51:05Z</time>
      </trkpt>
      <trkpt lat="-22.058475" lon="-45.048847">
        <ele>838.724</ele>
        <time>2019-10-17T12:51:09Z</time>
      </trkpt>
      <trkpt lat="-22.058341" lon="-45.048754">
        <ele>838.704</ele>
        <time>2019-10-17T12:51:12Z</time>
      </trkpt>
      <trkpt lat="-22.058301" lon="-45.048675">
        <ele>838.514</ele>
        <time>2019-10-17T12:51:14Z</time>
      </trkpt>
      <trkpt lat="-22.058268" lon="-45.048635">
        <ele>838.608</ele>
        <time>2019-10-17T12:51:15Z</time>
      </trkpt>
      <trkpt lat="-22.058232" lon="-45.048587">
        <ele>838.736</ele>
        <time>2019-10-17T12:51:17Z</time>
      </trkpt>
      <trkpt lat="-22.058199" lon="-45.048540">
        <ele>838.774</ele>
        <time>2019-10-17T12:51:18Z</time>
      </trkpt>
      <trkpt lat="-22.058166" lon="-45.048493">
        <ele>838.777</ele>
        <time>2019-10-17T12:51:20Z</time>
      </trkpt>
      <trkpt lat="-22.058112" lon="-45.048426">
        <ele>838.797</ele>
        <time>2019-10-17T12:51:22Z</time>
      </trkpt>
      <trkpt lat="-22.058068" lon="-45.048372">
        <ele>838.363</ele>
        <time>2019-10-17T12:51:24Z</time>
      </trkpt>
      <trkpt lat="-22.058034" lon="-45.048325">
        <ele>838.260</ele>
        <time>2019-10-17T12:51:26Z</time>
      </trkpt>
      <trkpt lat="-22.058003" lon="-45.048280">
        <ele>838.496</ele>
        <time>2019-10-17T12:51:27Z</time>
      </trkpt>
      <trkpt lat="-22.057961" lon="-45.048218">
        <ele>838.214</ele>
        <time>2019-10-17T12:51:29Z</time>
      </trkpt>
      <trkpt lat="-22.057922" lon="-45.048163">
        <ele>838.056</ele>
        <time>2019-10-17T12:51:31Z</time>
      </trkpt>
      <trkpt lat="-22.057895" lon="-45.048111">
        <ele>837.659</ele>
        <time>2019-10-17T12:51:32Z</time>
      </trkpt>
      <trkpt lat="-22.057862" lon="-45.048049">
        <ele>838.114</ele>
        <time>2019-10-17T12:51:34Z</time>
      </trkpt>
      <trkpt lat="-22.057849" lon="-45.047989">
        <ele>838.308</ele>
        <time>2019-10-17T12:51:36Z</time>
      </trkpt>
      <trkpt lat="-22.057746" lon="-45.047913">
        <ele>838.189</ele>
        <time>2019-10-17T12:54:18Z</time>
      </trkpt>
      <trkpt lat="-22.057717" lon="-45.047873">
        <ele>838.337</ele>
        <time>2019-10-17T12:54:21Z</time>
      </trkpt>
      <trkpt lat="-22.057692" lon="-45.047827">
        <ele>838.060</ele>
        <time>2019-10-17T12:54:23Z</time>
      </trkpt>
      <trkpt lat="-22.057658" lon="-45.047773">
        <ele>838.580</ele>
        <time>2019-10-17T12:54:25Z</time>
      </trkpt>
      <trkpt lat="-22.057637" lon="-45.047725">
        <ele>838.426</ele>
        <time>2019-10-17T12:54:26Z</time>
      </trkpt>
      <trkpt lat="-22.057613" lon="-45.047680">
        <ele>838.473</ele>
        <time>2019-10-17T12:54:28Z</time>
      </trkpt>
      <trkpt lat="-22.057584" lon="-45.047636">
        <ele>837.899</ele>
        <time>2019-10-17T12:54:30Z</time>
      </trkpt>
      <trkpt lat="-22.057541" lon="-45.047569">
        <ele>837.827</ele>
        <time>2019-10-17T12:54:32Z</time>
      </trkpt>
      <trkpt lat="-22.057510" lon="-45.047511">
        <ele>838.324</ele>
        <time>2019-10-17T12:54:34Z</time>
      </trkpt>
      <trkpt lat="-22.057483" lon="-45.047456">
        <ele>838.804</ele>
        <time>2019-10-17T12:54:36Z</time>
      </trkpt>
      <trkpt lat="-22.057446" lon="-45.047403">
        <ele>838.814</ele>
        <time>2019-10-17T12:54:38Z</time>
      </trkpt>
      <trkpt lat="-22.057415" lon="-45.047348">
        <ele>838.308</ele>
        <time>2019-10-17T12:54:40Z</time>
      </trkpt>
      <trkpt lat="-22.057392" lon="-45.047297">
        <ele>838.226</ele>
        <time>2019-10-17T12:54:41Z</time>
      </trkpt>
      <trkpt lat="-22.057363" lon="-45.047242">
        <ele>838.324</ele>
        <time>2019-10-17T12:54:43Z</time>
      </trkpt>
      <trkpt lat="-22.057312" lon="-45.047169">
        <ele>838.177</ele>
        <time>2019-10-17T12:54:45Z</time>
      </trkpt>
      <trkpt lat="-22.057284" lon="-45.047112">
        <ele>838.067</ele>
        <time>2019-10-17T12:54:47Z</time>
      </trkpt>
      <trkpt lat="-22.057246" lon="-45.047038">
        <ele>838.283</ele>
        <time>2019-10-17T12:54:49Z</time>
      </trkpt>
      <trkpt lat="-22.057220" lon="-45.046989">
        <ele>838.540</ele>
        <time>2019-10-17T12:54:51Z</time>
      </trkpt>
      <trkpt lat="-22.057195" lon="-45.046939">
        <ele>838.446</ele>
        <time>2019-10-17T12:54:52Z</time>
      </trkpt>
      <trkpt lat="-22.057175" lon="-45.046891">
        <ele>838.554</ele>
        <time>2019-10-17T12:54:54Z</time>
      </trkpt>
      <trkpt lat="-22.057144" lon="-45.046827">
        <ele>838.562</ele>
        <time>2019-10-17T12:54:56Z</time>
      </trkpt>
      <trkpt lat="-22.057076" lon="-45.046653">
        <ele>837.883</ele>
        <time>2019-10-17T12:55:00Z</time>
      </trkpt>
      <trkpt lat="-22.057067" lon="-45.046593">
        <ele>837.911</ele>
        <time>2019-10-17T12:55:02Z</time>
      </trkpt>
      <trkpt lat="-22.057050" lon="-45.046527">
        <ele>838.108</ele>
        <time>2019-10-17T12:55:03Z</time>
      </trkpt>
      <trkpt lat="-22.057055" lon="-45.046463">
        <ele>838.240</ele>
        <time>2019-10-17T12:55:05Z</time>
      </trkpt>
      <trkpt lat="-22.057066" lon="-45.046398">
        <ele>837.898</ele>
        <time>2019-10-17T12:55:07Z</time>
      </trkpt>
      <trkpt lat="-22.057086" lon="-45.046347">
        <ele>838.141</ele>
        <time>2019-10-17T12:55:08Z</time>
      </trkpt>
      <trkpt lat="-22.057102" lon="-45.046272">
        <ele>838.181</ele>
        <time>2019-10-17T12:55:10Z</time>
      </trkpt>
      <trkpt lat="-22.057116" lon="-45.046220">
        <ele>837.917</ele>
        <time>2019-10-17T12:55:12Z</time>
      </trkpt>
      <trkpt lat="-22.057139" lon="-45.046161">
        <ele>837.924</ele>
        <time>2019-10-17T12:55:13Z</time>
      </trkpt>
      <trkpt lat="-22.057163" lon="-45.046113">
        <ele>838.340</ele>
        <time>2019-10-17T12:55:15Z</time>
      </trkpt>
      <trkpt lat="-22.057190" lon="-45.046068">
        <ele>838.558</ele>
        <time>2019-10-17T12:55:17Z</time>
      </trkpt>
      <trkpt lat="-22.057228" lon="-45.046010">
        <ele>838.178</ele>
        <time>2019-10-17T12:55:20Z</time>
      </trkpt>
      <trkpt lat="-22.057254" lon="-45.045969">
        <ele>838.333</ele>
        <time>2019-10-17T12:55:22Z</time>
      </trkpt>
      <trkpt lat="-22.057286" lon="-45.045923">
        <ele>838.126</ele>
        <time>2019-10-17T12:55:24Z</time>
      </trkpt>
      <trkpt lat="-22.057335" lon="-45.045868">
        <ele>838.308</ele>
        <time>2019-10-17T12:55:26Z</time>
      </trkpt>
      <trkpt lat="-22.057370" lon="-45.045829">
        <ele>838.371</ele>
        <time>2019-10-17T12:55:28Z</time>
      </trkpt>
      <trkpt lat="-22.057419" lon="-45.045783">
        <ele>838.539</ele>
        <time>2019-10-17T12:55:30Z</time>
      </trkpt>
      <trkpt lat="-22.057513" lon="-45.045720">
        <ele>838.662</ele>
        <time>2019-10-17T12:55:53Z</time>
      </trkpt>
      <trkpt lat="-22.057577" lon="-45.045681">
        <ele>838.542</ele>
        <time>2019-10-17T12:55:56Z</time>
      </trkpt>
      <trkpt lat="-22.057632" lon="-45.045655">
        <ele>837.968</ele>
        <time>2019-10-17T12:55:58Z</time>
      </trkpt>
      <trkpt lat="-22.057720" lon="-45.045636">
        <ele>838.115</ele>
        <time>2019-10-17T12:56:00Z</time>
      </trkpt>
      <trkpt lat="-22.057784" lon="-45.045592">
        <ele>838.081</ele>
        <time>2019-10-17T12:56:02Z</time>
      </trkpt>
      <trkpt lat="-22.057858" lon="-45.045571">
        <ele>837.989</ele>
        <time>2019-10-17T12:56:04Z</time>
      </trkpt>
      <trkpt lat="-22.058022" lon="-45.045537">
        <ele>838.426</ele>
        <time>2019-10-17T12:56:08Z</time>
      </trkpt>
      <trkpt lat="-22.058187" lon="-45.045506">
        <ele>838.447</ele>
        <time>2019-10-17T12:56:12Z</time>
      </trkpt>
      <trkpt lat="-22.058273" lon="-45.045476">
        <ele>838.111</ele>
        <time>2019-10-17T12:56:15Z</time>
      </trkpt>
      <trkpt lat="-22.058329" lon="-45.045464">
        <ele>838.108</ele>
        <time>2019-10-17T12:56:16Z</time>
      </trkpt>
      <trkpt lat="-22.058391" lon="-45.045446">
        <ele>838.476</ele>
        <time>2019-10-17T12:56:18Z</time>
      </trkpt>
      <trkpt lat="-22.058463" lon="-45.045428">
        <ele>838.264</ele>
        <time>2019-10-17T12:56:20Z</time>
      </trkpt>
      <trkpt lat="-22.058523" lon="-45.045416">
        <ele>838.787</ele>
        <time>2019-10-17T12:56:22Z</time>
      </trkpt>
      <trkpt lat="-22.058579" lon="-45.045408">
        <ele>839.237</ele>
        <time>2019-10-17T12:56:24Z</time>
      </trkpt>
      <trkpt lat="-22.058664" lon="-45.045392">
        <ele>838.673</ele>
        <time>2019-10-17T12:56:54Z</time>
      </trkpt>
      <trkpt lat="-22.058708" lon="-45.045380">
        <ele>838.350</ele>
        <time>2019-10-17T12:56:56Z</time>
      </trkpt>
      <trkpt lat="-22.058777" lon="-45.045359">
        <ele>838.946</ele>
        <time>2019-10-17T12:56:58Z</time>
      </trkpt>
      <trkpt lat="-22.058825" lon="-45.045358">
        <ele>839.064</ele>
        <time>2019-10-17T12:57:00Z</time>
      </trkpt>
      <trkpt lat="-22.058878" lon="-45.045344">
        <ele>839.146</ele>
        <time>2019-10-17T12:57:02Z</time>
      </trkpt>
      <trkpt lat="-22.058945" lon="-45.045332">
        <ele>838.888</ele>
        <time>2019-10-17T12:57:04Z</time>
      </trkpt>
      <trkpt lat="-22.059007" lon="-45.045316">
        <ele>838.816</ele>
        <time>2019-10-17T12:57:06Z</time>
      </trkpt>
      <trkpt lat="-22.059077" lon="-45.045296">
        <ele>839.208</ele>
        <time>2019-10-17T12:57:08Z</time>
      </trkpt>
      <trkpt lat="-22.059152" lon="-45.045284">
        <ele>839.138</ele>
        <time>2019-10-17T12:57:10Z</time>
      </trkpt>
      <trkpt lat="-22.059208" lon="-45.045267">
        <ele>839.516</ele>
        <time>2019-10-17T12:57:12Z</time>
      </trkpt>
      <trkpt lat="-22.059287" lon="-45.045252">
        <ele>839.519</ele>
        <time>2019-10-17T12:57:14Z</time>
      </trkpt>
      <trkpt lat="-22.059363" lon="-45.045223">
        <ele>839.389</ele>
        <time>2019-10-17T12:57:16Z</time>
      </trkpt>
      <trkpt lat="-22.059424" lon="-45.045206">
        <ele>839.525</ele>
        <time>2019-10-17T12:57:18Z</time>
      </trkpt>
      <trkpt lat="-22.059469" lon="-45.045190">
        <ele>840.182</ele>
        <time>2019-10-17T12:57:19Z</time>
      </trkpt>
      <trkpt lat="-22.059536" lon="-45.045168">
        <ele>839.998</ele>
        <time>2019-10-17T12:57:22Z</time>
      </trkpt>
      <trkpt lat="-22.059593" lon="-45.045156">
        <ele>840.136</ele>
        <time>2019-10-17T12:57:24Z</time>
      </trkpt>
      <trkpt lat="-22.059663" lon="-45.045149">
        <ele>839.949</ele>
        <time>2019-10-17T12:57:27Z</time>
      </trkpt>
      <trkpt lat="-22.059746" lon="-45.045138">
        <ele>839.602</ele>
        <time>2019-10-17T12:57:38Z</time>
      </trkpt>
      <trkpt lat="-22.060325" lon="-45.045004">
        <ele>839.122</ele>
        <time>2019-10-17T12:57:50Z</time>
      </trkpt>
      <trkpt lat="-22.060385" lon="-45.044995">
        <ele>840.008</ele>
        <time>2019-10-17T12:57:52Z</time>
      </trkpt>
      <trkpt lat="-22.060441" lon="-45.044976">
        <ele>839.628</ele>
        <time>2019-10-17T12:57:53Z</time>
      </trkpt>
      <trkpt lat="-22.060502" lon="-45.044967">
        <ele>839.096</ele>
        <time>2019-10-17T12:57:55Z</time>
      </trkpt>
      <trkpt lat="-22.060551" lon="-45.044963">
        <ele>838.919</ele>
        <time>2019-10-17T12:57:56Z</time>
      </trkpt>
      <trkpt lat="-22.060613" lon="-45.044967">
        <ele>838.979</ele>
        <time>2019-10-17T12:57:57Z</time>
      </trkpt>
      <trkpt lat="-22.060689" lon="-45.044966">
        <ele>839.045</ele>
        <time>2019-10-17T12:58:00Z</time>
      </trkpt>
      <trkpt lat="-22.060740" lon="-45.044977">
        <ele>839.752</ele>
        <time>2019-10-17T12:58:02Z</time>
      </trkpt>
      <trkpt lat="-22.060757" lon="-45.045076">
        <ele>839.938</ele>
        <time>2019-10-17T12:58:32Z</time>
      </trkpt>
      <trkpt lat="-22.060745" lon="-45.045155">
        <ele>839.276</ele>
        <time>2019-10-17T12:58:34Z</time>
      </trkpt>
      <trkpt lat="-22.060746" lon="-45.045216">
        <ele>839.196</ele>
        <time>2019-10-17T12:58:36Z</time>
      </trkpt>
      <trkpt lat="-22.060747" lon="-45.045273">
        <ele>839.131</ele>
        <time>2019-10-17T12:58:38Z</time>
      </trkpt>
      <trkpt lat="-22.060796" lon="-45.045779">
        <ele>839.224</ele>
        <time>2019-10-17T12:58:53Z</time>
      </trkpt>
      <trkpt lat="-22.060777" lon="-45.045838">
        <ele>838.608</ele>
        <time>2019-10-17T12:58:56Z</time>
      </trkpt>
      <trkpt lat="-22.060699" lon="-45.045946">
        <ele>838.333</ele>
        <time>2019-10-17T12:59:00Z</time>
      </trkpt>
      <trkpt lat="-22.060662" lon="-45.045999">
        <ele>838.081</ele>
        <time>2019-10-17T12:59:02Z</time>
      </trkpt>
      <trkpt lat="-22.060619" lon="-45.046041">
        <ele>837.964</ele>
        <time>2019-10-17T12:59:04Z</time>
      </trkpt>
      <trkpt lat="-22.060573" lon="-45.046082">
        <ele>837.694</ele>
        <time>2019-10-17T12:59:06Z</time>
      </trkpt>
      <trkpt lat="-22.060514" lon="-45.046130">
        <ele>838.080</ele>
        <time>2019-10-17T12:59:09Z</time>
      </trkpt>
      <trkpt lat="-22.060453" lon="-45.046164">
        <ele>837.737</ele>
        <time>2019-10-17T12:59:12Z</time>
      </trkpt>
      <trkpt lat="-22.060404" lon="-45.046173">
        <ele>837.953</ele>
        <time>2019-10-17T12:59:14Z</time>
      </trkpt>
      <trkpt lat="-22.060352" lon="-45.046199">
        <ele>837.421</ele>
        <time>2019-10-17T12:59:17Z</time>
      </trkpt>
      <trkpt lat="-22.060302" lon="-45.046235">
        <ele>837.471</ele>
        <time>2019-10-17T12:59:20Z</time>
      </trkpt>
      <trkpt lat="-22.060367" lon="-45.046224">
        <ele>837.541</ele>
        <time>2019-10-17T12:59:48Z</time>
      </trkpt>
      <trkpt lat="-22.060401" lon="-45.046188">
        <ele>837.215</ele>
        <time>2019-10-17T12:59:50Z</time>
      </trkpt>
      <trkpt lat="-22.060489" lon="-45.046137">
        <ele>837.208</ele>
        <time>2019-10-17T12:59:53Z</time>
      </trkpt>
      <trkpt lat="-22.060547" lon="-45.046093">
        <ele>837.311</ele>
        <time>2019-10-17T12:59:55Z</time>
      </trkpt>
      <trkpt lat="-22.060599" lon="-45.046063">
        <ele>837.889</ele>
        <time>2019-10-17T12:59:57Z</time>
      </trkpt>
      <trkpt lat="-22.060654" lon="-45.046031">
        <ele>837.812</ele>
        <time>2019-10-17T12:59:59Z</time>
      </trkpt>
      <trkpt lat="-22.060693" lon="-45.046004">
        <ele>837.872</ele>
        <time>2019-10-17T13:00:01Z</time>
      </trkpt>
      <trkpt lat="-22.060733" lon="-45.045976">
        <ele>838.378</ele>
        <time>2019-10-17T13:00:02Z</time>
      </trkpt>
      <trkpt lat="-22.060774" lon="-45.045948">
        <ele>838.375</ele>
        <time>2019-10-17T13:00:04Z</time>
      </trkpt>
      <trkpt lat="-22.060830" lon="-45.045919">
        <ele>838.351</ele>
        <time>2019-10-17T13:00:06Z</time>
      </trkpt>
      <trkpt lat="-22.060890" lon="-45.045889">
        <ele>837.739</ele>
        <time>2019-10-17T13:00:08Z</time>
      </trkpt>
      <trkpt lat="-22.060944" lon="-45.045851">
        <ele>837.919</ele>
        <time>2019-10-17T13:00:11Z</time>
      </trkpt>
      <trkpt lat="-22.060999" lon="-45.045835">
        <ele>838.209</ele>
        <time>2019-10-17T13:00:14Z</time>
      </trkpt>
      <trkpt lat="-22.061066" lon="-45.045893">
        <ele>837.919</ele>
        <time>2019-10-17T13:01:13Z</time>
      </trkpt>
      <trkpt lat="-22.061135" lon="-45.045874">
        <ele>837.208</ele>
        <time>2019-10-17T13:01:17Z</time>
      </trkpt>
      <trkpt lat="-22.061190" lon="-45.045881">
        <ele>837.175</ele>
        <time>2019-10-17T13:01:18Z</time>
      </trkpt>
      <trkpt lat="-22.061284" lon="-45.045888">
        <ele>836.793</ele>
        <time>2019-10-17T13:01:21Z</time>
      </trkpt>
      <trkpt lat="-22.061345" lon="-45.045902">
        <ele>837.016</ele>
        <time>2019-10-17T13:01:23Z</time>
      </trkpt>
      <trkpt lat="-22.061422" lon="-45.045913">
        <ele>837.016</ele>
        <time>2019-10-17T13:01:26Z</time>
      </trkpt>
      <trkpt lat="-22.061506" lon="-45.045923">
        <ele>836.742</ele>
        <time>2019-10-17T13:01:28Z</time>
      </trkpt>
      <trkpt lat="-22.061619" lon="-45.045977">
        <ele>836.869</ele>
        <time>2019-10-17T13:01:31Z</time>
      </trkpt>
      <trkpt lat="-22.061715" lon="-45.046020">
        <ele>837.515</ele>
        <time>2019-10-17T13:01:35Z</time>
      </trkpt>
      <trkpt lat="-22.061790" lon="-45.046043">
        <ele>837.283</ele>
        <time>2019-10-17T13:01:37Z</time>
      </trkpt>
      <trkpt lat="-22.061874" lon="-45.046067">
        <ele>837.523</ele>
        <time>2019-10-17T13:01:39Z</time>
      </trkpt>
      <trkpt lat="-22.061927" lon="-45.046087">
        <ele>837.883</ele>
        <time>2019-10-17T13:01:41Z</time>
      </trkpt>
      <trkpt lat="-22.061995" lon="-45.046109">
        <ele>838.111</ele>
        <time>2019-10-17T13:01:43Z</time>
      </trkpt>
      <trkpt lat="-22.062049" lon="-45.046120">
        <ele>838.108</ele>
        <time>2019-10-17T13:01:44Z</time>
      </trkpt>
      <trkpt lat="-22.062096" lon="-45.046132">
        <ele>838.436</ele>
        <time>2019-10-17T13:01:46Z</time>
      </trkpt>
      <trkpt lat="-22.062148" lon="-45.046146">
        <ele>838.894</ele>
        <time>2019-10-17T13:01:48Z</time>
      </trkpt>
      <trkpt lat="-22.062212" lon="-45.046176">
        <ele>838.957</ele>
        <time>2019-10-17T13:01:51Z</time>
      </trkpt>
      <trkpt lat="-22.062261" lon="-45.046193">
        <ele>839.257</ele>
        <time>2019-10-17T13:01:53Z</time>
      </trkpt>
      <trkpt lat="-22.062305" lon="-45.046207">
        <ele>839.023</ele>
        <time>2019-10-17T13:01:54Z</time>
      </trkpt>
      <trkpt lat="-22.062351" lon="-45.046217">
        <ele>838.870</ele>
        <time>2019-10-17T13:01:56Z</time>
      </trkpt>
      <trkpt lat="-22.062431" lon="-45.046246">
        <ele>838.486</ele>
        <time>2019-10-17T13:01:58Z</time>
      </trkpt>
      <trkpt lat="-22.062484" lon="-45.046265">
        <ele>838.164</ele>
        <time>2019-10-17T13:02:00Z</time>
      </trkpt>
      <trkpt lat="-22.062533" lon="-45.046277">
        <ele>838.148</ele>
        <time>2019-10-17T13:02:01Z</time>
      </trkpt>
      <trkpt lat="-22.062578" lon="-45.046288">
        <ele>838.761</ele>
        <time>2019-10-17T13:02:03Z</time>
      </trkpt>
      <trkpt lat="-22.062647" lon="-45.046309">
        <ele>838.917</ele>
        <time>2019-10-17T13:02:05Z</time>
      </trkpt>
      <trkpt lat="-22.062709" lon="-45.046337">
        <ele>839.008</ele>
        <time>2019-10-17T13:02:07Z</time>
      </trkpt>
      <trkpt lat="-22.062772" lon="-45.046360">
        <ele>839.258</ele>
        <time>2019-10-17T13:02:09Z</time>
      </trkpt>
      <trkpt lat="-22.062828" lon="-45.046377">
        <ele>839.476</ele>
        <time>2019-10-17T13:02:11Z</time>
      </trkpt>
      <trkpt lat="-22.062880" lon="-45.046394">
        <ele>840.419</ele>
        <time>2019-10-17T13:02:13Z</time>
      </trkpt>
      <trkpt lat="-22.062912" lon="-45.046358">
        <ele>840.799</ele>
        <time>2019-10-17T13:02:22Z</time>
      </trkpt>
      <trkpt lat="-22.062900" lon="-45.046412">
        <ele>841.265</ele>
        <time>2019-10-17T13:03:51Z</time>
      </trkpt>
      <trkpt lat="-22.062809" lon="-45.046409">
        <ele>840.172</ele>
        <time>2019-10-17T13:07:09Z</time>
      </trkpt>
      <trkpt lat="-22.062741" lon="-45.046377">
        <ele>839.068</ele>
        <time>2019-10-17T13:07:11Z</time>
      </trkpt>
      <trkpt lat="-22.062701" lon="-45.046353">
        <ele>838.486</ele>
        <time>2019-10-17T13:07:12Z</time>
      </trkpt>
      <trkpt lat="-22.062483" lon="-45.046267">
        <ele>837.671</ele>
        <time>2019-10-17T13:07:17Z</time>
      </trkpt>
      <trkpt lat="-22.062440" lon="-45.046237">
        <ele>838.141</ele>
        <time>2019-10-17T13:07:19Z</time>
      </trkpt>
      <trkpt lat="-22.062362" lon="-45.046210">
        <ele>838.115</ele>
        <time>2019-10-17T13:07:21Z</time>
      </trkpt>
      <trkpt lat="-22.062295" lon="-45.046193">
        <ele>838.308</ele>
        <time>2019-10-17T13:07:23Z</time>
      </trkpt>
      <trkpt lat="-22.062247" lon="-45.046179">
        <ele>838.251</ele>
        <time>2019-10-17T13:07:26Z</time>
      </trkpt>
      <trkpt lat="-22.062195" lon="-45.046165">
        <ele>838.589</ele>
        <time>2019-10-17T13:07:28Z</time>
      </trkpt>
      <trkpt lat="-22.062126" lon="-45.046153">
        <ele>838.232</ele>
        <time>2019-10-17T13:07:30Z</time>
      </trkpt>
      <trkpt lat="-22.062080" lon="-45.046135">
        <ele>838.012</ele>
        <time>2019-10-17T13:07:32Z</time>
      </trkpt>
      <trkpt lat="-22.062022" lon="-45.046108">
        <ele>837.428</ele>
        <time>2019-10-17T13:07:34Z</time>
      </trkpt>
      <trkpt lat="-22.061957" lon="-45.046087">
        <ele>837.475</ele>
        <time>2019-10-17T13:07:36Z</time>
      </trkpt>
      <trkpt lat="-22.061895" lon="-45.046071">
        <ele>837.441</ele>
        <time>2019-10-17T13:07:38Z</time>
      </trkpt>
      <trkpt lat="-22.061819" lon="-45.046046">
        <ele>836.969</ele>
        <time>2019-10-17T13:07:40Z</time>
      </trkpt>
      <trkpt lat="-22.061719" lon="-45.046012">
        <ele>836.117</ele>
        <time>2019-10-17T13:07:43Z</time>
      </trkpt>
      <trkpt lat="-22.061672" lon="-45.046000">
        <ele>836.787</ele>
        <time>2019-10-17T13:07:44Z</time>
      </trkpt>
      <trkpt lat="-22.061608" lon="-45.045983">
        <ele>836.415</ele>
        <time>2019-10-17T13:07:46Z</time>
      </trkpt>
      <trkpt lat="-22.061536" lon="-45.045970">
        <ele>836.508</ele>
        <time>2019-10-17T13:07:48Z</time>
      </trkpt>
      <trkpt lat="-22.061459" lon="-45.045961">
        <ele>836.445</ele>
        <time>2019-10-17T13:07:50Z</time>
      </trkpt>
      <trkpt lat="-22.061395" lon="-45.045941">
        <ele>836.693</ele>
        <time>2019-10-17T13:07:51Z</time>
      </trkpt>
      <trkpt lat="-22.061348" lon="-45.045929">
        <ele>836.896</ele>
        <time>2019-10-17T13:07:53Z</time>
      </trkpt>
      <trkpt lat="-22.061281" lon="-45.045915">
        <ele>836.936</ele>
        <time>2019-10-17T13:07:55Z</time>
      </trkpt>
      <trkpt lat="-22.061226" lon="-45.045901">
        <ele>837.052</ele>
        <time>2019-10-17T13:07:57Z</time>
      </trkpt>
      <trkpt lat="-22.061153" lon="-45.045885">
        <ele>836.999</ele>
        <time>2019-10-17T13:07:59Z</time>
      </trkpt>
      <trkpt lat="-22.061087" lon="-45.045866">
        <ele>836.825</ele>
        <time>2019-10-17T13:08:01Z</time>
      </trkpt>
      <trkpt lat="-22.061034" lon="-45.045864">
        <ele>836.973</ele>
        <time>2019-10-17T13:08:03Z</time>
      </trkpt>
      <trkpt lat="-22.060945" lon="-45.045851">
        <ele>837.475</ele>
        <time>2019-10-17T13:08:05Z</time>
      </trkpt>
      <trkpt lat="-22.060896" lon="-45.045841">
        <ele>837.528</ele>
        <time>2019-10-17T13:08:07Z</time>
      </trkpt>
      <trkpt lat="-22.060832" lon="-45.045813">
        <ele>837.820</ele>
        <time>2019-10-17T13:08:10Z</time>
      </trkpt>
      <trkpt lat="-22.060799" lon="-45.045768">
        <ele>838.308</ele>
        <time>2019-10-17T13:08:12Z</time>
      </trkpt>
      <trkpt lat="-22.060785" lon="-45.045510">
        <ele>838.131</ele>
        <time>2019-10-17T13:08:21Z</time>
      </trkpt>
      <trkpt lat="-22.060761" lon="-45.045266">
        <ele>837.989</ele>
        <time>2019-10-17T13:08:29Z</time>
      </trkpt>
      <trkpt lat="-22.060751" lon="-45.045191">
        <ele>838.242</ele>
        <time>2019-10-17T13:08:31Z</time>
      </trkpt>
      <trkpt lat="-22.060752" lon="-45.045139">
        <ele>838.622</ele>
        <time>2019-10-17T13:08:33Z</time>
      </trkpt>
      <trkpt lat="-22.060757" lon="-45.045081">
        <ele>838.588</ele>
        <time>2019-10-17T13:08:35Z</time>
      </trkpt>
      <trkpt lat="-22.060756" lon="-45.045006">
        <ele>838.955</ele>
        <time>2019-10-17T13:08:38Z</time>
      </trkpt>
      <trkpt lat="-22.060753" lon="-45.044950">
        <ele>839.111</ele>
        <time>2019-10-17T13:08:41Z</time>
      </trkpt>
      <trkpt lat="-22.060732" lon="-45.044876">
        <ele>838.959</ele>
        <time>2019-10-17T13:08:44Z</time>
      </trkpt>
      <trkpt lat="-22.060664" lon="-45.044847">
        <ele>840.063</ele>
        <time>2019-10-17T13:08:48Z</time>
      </trkpt>
      <trkpt lat="-22.060609" lon="-45.044849">
        <ele>840.844</ele>
        <time>2019-10-17T13:08:53Z</time>
      </trkpt>
      <trkpt lat="-22.060542" lon="-45.044855">
        <ele>842.118</ele>
        <time>2019-10-17T13:08:58Z</time>
      </trkpt>
      <trkpt lat="-22.060435" lon="-45.044861">
        <ele>844.208</ele>
        <time>2019-10-17T13:09:10Z</time>
      </trkpt>
      <trkpt lat="-22.060390" lon="-45.044859">
        <ele>845.390</ele>
        <time>2019-10-17T13:09:16Z</time>
      </trkpt>
      <trkpt lat="-22.060339" lon="-45.044868">
        <ele>845.928</ele>
        <time>2019-10-17T13:09:20Z</time>
      </trkpt>
      <trkpt lat="-22.060286" lon="-45.044871">
        <ele>846.591</ele>
        <time>2019-10-17T13:09:26Z</time>
      </trkpt>
      <trkpt lat="-22.060222" lon="-45.044879">
        <ele>846.651</ele>
        <time>2019-10-17T13:09:28Z</time>
      </trkpt>
      <trkpt lat="-22.060162" lon="-45.044890">
        <ele>847.197</ele>
        <time>2019-10-17T13:09:30Z</time>
      </trkpt>
      <trkpt lat="-22.060114" lon="-45.044900">
        <ele>847.654</ele>
        <time>2019-10-17T13:09:33Z</time>
      </trkpt>
      <trkpt lat="-22.060058" lon="-45.044895">
        <ele>848.250</ele>
        <time>2019-10-17T13:09:36Z</time>
      </trkpt>
      <trkpt lat="-22.060008" lon="-45.044902">
        <ele>848.648</ele>
        <time>2019-10-17T13:09:41Z</time>
      </trkpt>
      <trkpt lat="-22.059948" lon="-45.044898">
        <ele>849.065</ele>
        <time>2019-10-17T13:09:45Z</time>
      </trkpt>
      <trkpt lat="-22.059897" lon="-45.044884">
        <ele>849.568</ele>
        <time>2019-10-17T13:09:48Z</time>
      </trkpt>
      <trkpt lat="-22.059848" lon="-45.044875">
        <ele>849.614</ele>
        <time>2019-10-17T13:09:51Z</time>
      </trkpt>
      <trkpt lat="-22.059804" lon="-45.044855">
        <ele>850.008</ele>
        <time>2019-10-17T13:09:54Z</time>
      </trkpt>
      <trkpt lat="-22.059755" lon="-45.044803">
        <ele>849.940</ele>
        <time>2019-10-17T13:09:58Z</time>
      </trkpt>
      <trkpt lat="-22.059727" lon="-45.044764">
        <ele>850.168</ele>
        <time>2019-10-17T13:10:01Z</time>
      </trkpt>
      <trkpt lat="-22.059700" lon="-45.044721">
        <ele>850.341</ele>
        <time>2019-10-17T13:10:03Z</time>
      </trkpt>
      <trkpt lat="-22.059683" lon="-45.044672">
        <ele>850.971</ele>
        <time>2019-10-17T13:10:06Z</time>
      </trkpt>
      <trkpt lat="-22.059670" lon="-45.044624">
        <ele>850.987</ele>
        <time>2019-10-17T13:10:09Z</time>
      </trkpt>
      <trkpt lat="-22.059652" lon="-45.044579">
        <ele>851.284</ele>
        <time>2019-10-17T13:10:11Z</time>
      </trkpt>
      <trkpt lat="-22.059628" lon="-45.044513">
        <ele>851.210</ele>
        <time>2019-10-17T13:10:15Z</time>
      </trkpt>
      <trkpt lat="-22.059612" lon="-45.044461">
        <ele>851.088</ele>
        <time>2019-10-17T13:10:19Z</time>
      </trkpt>
      <trkpt lat="-22.059599" lon="-45.044408">
        <ele>851.795</ele>
        <time>2019-10-17T13:10:22Z</time>
      </trkpt>
      <trkpt lat="-22.059580" lon="-45.044341">
        <ele>852.049</ele>
        <time>2019-10-17T13:10:26Z</time>
      </trkpt>
      <trkpt lat="-22.059543" lon="-45.044260">
        <ele>851.923</ele>
        <time>2019-10-17T13:10:29Z</time>
      </trkpt>
      <trkpt lat="-22.059521" lon="-45.044218">
        <ele>851.708</ele>
        <time>2019-10-17T13:10:32Z</time>
      </trkpt>
      <trkpt lat="-22.059507" lon="-45.044170">
        <ele>852.193</ele>
        <time>2019-10-17T13:10:34Z</time>
      </trkpt>
      <trkpt lat="-22.059485" lon="-45.044123">
        <ele>852.211</ele>
        <time>2019-10-17T13:10:36Z</time>
      </trkpt>
      <trkpt lat="-22.059463" lon="-45.044075">
        <ele>852.144</ele>
        <time>2019-10-17T13:10:38Z</time>
      </trkpt>
      <trkpt lat="-22.059441" lon="-45.044013">
        <ele>852.174</ele>
        <time>2019-10-17T13:10:41Z</time>
      </trkpt>
      <trkpt lat="-22.059423" lon="-45.043953">
        <ele>852.380</ele>
        <time>2019-10-17T13:10:43Z</time>
      </trkpt>
      <trkpt lat="-22.059408" lon="-45.043902">
        <ele>852.667</ele>
        <time>2019-10-17T13:10:45Z</time>
      </trkpt>
      <trkpt lat="-22.059388" lon="-45.043856">
        <ele>853.023</ele>
        <time>2019-10-17T13:10:47Z</time>
      </trkpt>
      <trkpt lat="-22.059369" lon="-45.043795">
        <ele>852.171</ele>
        <time>2019-10-17T13:10:49Z</time>
      </trkpt>
      <trkpt lat="-22.059354" lon="-45.043731">
        <ele>852.264</ele>
        <time>2019-10-17T13:10:51Z</time>
      </trkpt>
      <trkpt lat="-22.059332" lon="-45.043668">
        <ele>852.206</ele>
        <time>2019-10-17T13:10:53Z</time>
      </trkpt>
      <trkpt lat="-22.059314" lon="-45.043602">
        <ele>851.816</ele>
        <time>2019-10-17T13:10:56Z</time>
      </trkpt>
      <trkpt lat="-22.059295" lon="-45.043539">
        <ele>852.208</ele>
        <time>2019-10-17T13:10:58Z</time>
      </trkpt>
      <trkpt lat="-22.059275" lon="-45.043486">
        <ele>852.360</ele>
        <time>2019-10-17T13:10:59Z</time>
      </trkpt>
      <trkpt lat="-22.059258" lon="-45.043427">
        <ele>852.428</ele>
        <time>2019-10-17T13:11:01Z</time>
      </trkpt>
      <trkpt lat="-22.059245" lon="-45.043376">
        <ele>852.231</ele>
        <time>2019-10-17T13:11:04Z</time>
      </trkpt>
      <trkpt lat="-22.059234" lon="-45.043314">
        <ele>853.011</ele>
        <time>2019-10-17T13:11:06Z</time>
      </trkpt>
      <trkpt lat="-22.059229" lon="-45.043258">
        <ele>853.427</ele>
        <time>2019-10-17T13:11:09Z</time>
      </trkpt>
      <trkpt lat="-22.059217" lon="-45.043185">
        <ele>853.794</ele>
        <time>2019-10-17T13:11:13Z</time>
      </trkpt>
      <trkpt lat="-22.059192" lon="-45.043129">
        <ele>854.680</ele>
        <time>2019-10-17T13:11:16Z</time>
      </trkpt>
      <trkpt lat="-22.059170" lon="-45.043083">
        <ele>855.118</ele>
        <time>2019-10-17T13:11:18Z</time>
      </trkpt>
      <trkpt lat="-22.059147" lon="-45.043025">
        <ele>855.424</ele>
        <time>2019-10-17T13:11:20Z</time>
      </trkpt>
      <trkpt lat="-22.059127" lon="-45.042963">
        <ele>855.504</ele>
        <time>2019-10-17T13:11:24Z</time>
      </trkpt>
      <trkpt lat="-22.059107" lon="-45.042908">
        <ele>855.714</ele>
        <time>2019-10-17T13:11:27Z</time>
      </trkpt>
      <trkpt lat="-22.059077" lon="-45.042850">
        <ele>856.408</ele>
        <time>2019-10-17T13:11:30Z</time>
      </trkpt>
      <trkpt lat="-22.059075" lon="-45.042779">
        <ele>857.036</ele>
        <time>2019-10-17T13:11:34Z</time>
      </trkpt>
      <trkpt lat="-22.059058" lon="-45.042729">
        <ele>857.834</ele>
        <time>2019-10-17T13:11:38Z</time>
      </trkpt>
      <trkpt lat="-22.059038" lon="-45.042678">
        <ele>858.067</ele>
        <time>2019-10-17T13:11:41Z</time>
      </trkpt>
      <trkpt lat="-22.059016" lon="-45.042633">
        <ele>858.597</ele>
        <time>2019-10-17T13:11:44Z</time>
      </trkpt>
      <trkpt lat="-22.058984" lon="-45.042580">
        <ele>858.913</ele>
        <time>2019-10-17T13:11:48Z</time>
      </trkpt>
      <trkpt lat="-22.058964" lon="-45.042523">
        <ele>859.420</ele>
        <time>2019-10-17T13:11:52Z</time>
      </trkpt>
      <trkpt lat="-22.058952" lon="-45.042469">
        <ele>859.316</ele>
        <time>2019-10-17T13:11:55Z</time>
      </trkpt>
      <trkpt lat="-22.058943" lon="-45.042412">
        <ele>859.444</ele>
        <time>2019-10-17T13:11:57Z</time>
      </trkpt>
      <trkpt lat="-22.058922" lon="-45.042357">
        <ele>859.913</ele>
        <time>2019-10-17T13:12:01Z</time>
      </trkpt>
      <trkpt lat="-22.058907" lon="-45.042305">
        <ele>860.243</ele>
        <time>2019-10-17T13:12:05Z</time>
      </trkpt>
      <trkpt lat="-22.058888" lon="-45.042219">
        <ele>861.007</ele>
        <time>2019-10-17T13:12:10Z</time>
      </trkpt>
      <trkpt lat="-22.058877" lon="-45.042170">
        <ele>861.708</ele>
        <time>2019-10-17T13:12:13Z</time>
      </trkpt>
      <trkpt lat="-22.058872" lon="-45.042114">
        <ele>861.695</ele>
        <time>2019-10-17T13:12:16Z</time>
      </trkpt>
      <trkpt lat="-22.058856" lon="-45.042061">
        <ele>862.143</ele>
        <time>2019-10-17T13:12:20Z</time>
      </trkpt>
      <trkpt lat="-22.058824" lon="-45.042012">
        <ele>862.696</ele>
        <time>2019-10-17T13:12:23Z</time>
      </trkpt>
      <trkpt lat="-22.058813" lon="-45.041949">
        <ele>862.586</ele>
        <time>2019-10-17T13:12:27Z</time>
      </trkpt>
      <trkpt lat="-22.058805" lon="-45.041894">
        <ele>863.152</ele>
        <time>2019-10-17T13:12:30Z</time>
      </trkpt>
      <trkpt lat="-22.058778" lon="-45.041853">
        <ele>863.819</ele>
        <time>2019-10-17T13:12:33Z</time>
      </trkpt>
      <trkpt lat="-22.058756" lon="-45.041807">
        <ele>863.945</ele>
        <time>2019-10-17T13:12:36Z</time>
      </trkpt>
      <trkpt lat="-22.058739" lon="-45.041761">
        <ele>864.693</ele>
        <time>2019-10-17T13:12:39Z</time>
      </trkpt>
      <trkpt lat="-22.058717" lon="-45.041698">
        <ele>864.748</ele>
        <time>2019-10-17T13:12:43Z</time>
      </trkpt>
      <trkpt lat="-22.058694" lon="-45.041649">
        <ele>864.861</ele>
        <time>2019-10-17T13:12:46Z</time>
      </trkpt>
      <trkpt lat="-22.058669" lon="-45.041599">
        <ele>865.517</ele>
        <time>2019-10-17T13:12:49Z</time>
      </trkpt>
      <trkpt lat="-22.058657" lon="-45.041543">
        <ele>865.908</ele>
        <time>2019-10-17T13:12:52Z</time>
      </trkpt>
      <trkpt lat="-22.058648" lon="-45.041491">
        <ele>866.238</ele>
        <time>2019-10-17T13:12:55Z</time>
      </trkpt>
      <trkpt lat="-22.058636" lon="-45.041428">
        <ele>867.076</ele>
        <time>2019-10-17T13:12:59Z</time>
      </trkpt>
      <trkpt lat="-22.058625" lon="-45.041380">
        <ele>867.079</ele>
        <time>2019-10-17T13:13:02Z</time>
      </trkpt>
      <trkpt lat="-22.058607" lon="-45.041311">
        <ele>867.849</ele>
        <time>2019-10-17T13:13:06Z</time>
      </trkpt>
      <trkpt lat="-22.058587" lon="-45.041249">
        <ele>868.385</ele>
        <time>2019-10-17T13:13:09Z</time>
      </trkpt>
      <trkpt lat="-22.058576" lon="-45.041196">
        <ele>868.972</ele>
        <time>2019-10-17T13:13:13Z</time>
      </trkpt>
      <trkpt lat="-22.058537" lon="-45.041135">
        <ele>869.578</ele>
        <time>2019-10-17T13:13:16Z</time>
      </trkpt>
      <trkpt lat="-22.058529" lon="-45.041087">
        <ele>869.836</ele>
        <time>2019-10-17T13:13:19Z</time>
      </trkpt>
      <trkpt lat="-22.058515" lon="-45.041030">
        <ele>870.414</ele>
        <time>2019-10-17T13:13:24Z</time>
      </trkpt>
      <trkpt lat="-22.058504" lon="-45.040982">
        <ele>871.154</ele>
        <time>2019-10-17T13:13:28Z</time>
      </trkpt>
      <trkpt lat="-22.058483" lon="-45.040920">
        <ele>871.109</ele>
        <time>2019-10-17T13:13:31Z</time>
      </trkpt>
      <trkpt lat="-22.058464" lon="-45.040875">
        <ele>871.508</ele>
        <time>2019-10-17T13:13:33Z</time>
      </trkpt>
      <trkpt lat="-22.058441" lon="-45.040825">
        <ele>872.145</ele>
        <time>2019-10-17T13:13:37Z</time>
      </trkpt>
      <trkpt lat="-22.058435" lon="-45.040770">
        <ele>872.333</ele>
        <time>2019-10-17T13:13:40Z</time>
      </trkpt>
      <trkpt lat="-22.058427" lon="-45.040705">
        <ele>872.736</ele>
        <time>2019-10-17T13:13:44Z</time>
      </trkpt>
      <trkpt lat="-22.058409" lon="-45.040647">
        <ele>873.036</ele>
        <time>2019-10-17T13:13:47Z</time>
      </trkpt>
      <trkpt lat="-22.058382" lon="-45.040599">
        <ele>873.612</ele>
        <time>2019-10-17T13:13:51Z</time>
      </trkpt>
      <trkpt lat="-22.058275" lon="-45.040225">
        <ele>877.379</ele>
        <time>2019-10-17T13:14:14Z</time>
      </trkpt>
      <trkpt lat="-22.058255" lon="-45.040169">
        <ele>878.325</ele>
        <time>2019-10-17T13:14:17Z</time>
      </trkpt>
      <trkpt lat="-22.058232" lon="-45.040118">
        <ele>879.493</ele>
        <time>2019-10-17T13:14:20Z</time>
      </trkpt>
      <trkpt lat="-22.058211" lon="-45.040037">
        <ele>880.939</ele>
        <time>2019-10-17T13:14:24Z</time>
      </trkpt>
      <trkpt lat="-22.058195" lon="-45.039987">
        <ele>882.701</ele>
        <time>2019-10-17T13:14:30Z</time>
      </trkpt>
      <trkpt lat="-22.058179" lon="-45.039941">
        <ele>883.121</ele>
        <time>2019-10-17T13:14:32Z</time>
      </trkpt>
      <trkpt lat="-22.058165" lon="-45.039893">
        <ele>884.208</ele>
        <time>2019-10-17T13:14:34Z</time>
      </trkpt>
      <trkpt lat="-22.058125" lon="-45.039752">
        <ele>885.567</ele>
        <time>2019-10-17T13:14:41Z</time>
      </trkpt>
      <trkpt lat="-22.058090" lon="-45.039674">
        <ele>887.435</ele>
        <time>2019-10-17T13:14:51Z</time>
      </trkpt>
      <trkpt lat="-22.058052" lon="-45.039610">
        <ele>888.198</ele>
        <time>2019-10-17T13:14:55Z</time>
      </trkpt>
      <trkpt lat="-22.057957" lon="-45.039332">
        <ele>889.148</ele>
        <time>2019-10-17T13:15:09Z</time>
      </trkpt>
      <trkpt lat="-22.057930" lon="-45.039208">
        <ele>889.824</ele>
        <time>2019-10-17T13:15:16Z</time>
      </trkpt>
      <trkpt lat="-22.057777" lon="-45.038845">
        <ele>892.011</ele>
        <time>2019-10-17T13:15:37Z</time>
      </trkpt>
      <trkpt lat="-22.057694" lon="-45.038755">
        <ele>892.037</ele>
        <time>2019-10-17T13:15:43Z</time>
      </trkpt>
      <trkpt lat="-22.057585" lon="-45.038626">
        <ele>892.275</ele>
        <time>2019-10-17T13:15:50Z</time>
      </trkpt>
      <trkpt lat="-22.057521" lon="-45.038550">
        <ele>892.425</ele>
        <time>2019-10-17T13:15:54Z</time>
      </trkpt>
      <trkpt lat="-22.057444" lon="-45.038464">
        <ele>892.526</ele>
        <time>2019-10-17T13:15:58Z</time>
      </trkpt>
      <trkpt lat="-22.057407" lon="-45.038411">
        <ele>892.708</ele>
        <time>2019-10-17T13:16:01Z</time>
      </trkpt>
      <trkpt lat="-22.057370" lon="-45.038357">
        <ele>893.508</ele>
        <time>2019-10-17T13:16:04Z</time>
      </trkpt>
      <trkpt lat="-22.057348" lon="-45.038313">
        <ele>893.976</ele>
        <time>2019-10-17T13:16:06Z</time>
      </trkpt>
      <trkpt lat="-22.057325" lon="-45.038246">
        <ele>894.234</ele>
        <time>2019-10-17T13:16:09Z</time>
      </trkpt>
      <trkpt lat="-22.057309" lon="-45.038196">
        <ele>894.297</ele>
        <time>2019-10-17T13:16:11Z</time>
      </trkpt>
      <trkpt lat="-22.057281" lon="-45.038110">
        <ele>894.887</ele>
        <time>2019-10-17T13:16:15Z</time>
      </trkpt>
      <trkpt lat="-22.057245" lon="-45.038022">
        <ele>895.663</ele>
        <time>2019-10-17T13:16:19Z</time>
      </trkpt>
      <trkpt lat="-22.057230" lon="-45.037943">
        <ele>896.710</ele>
        <time>2019-10-17T13:16:23Z</time>
      </trkpt>
      <trkpt lat="-22.057214" lon="-45.037832">
        <ele>898.566</ele>
        <time>2019-10-17T13:16:29Z</time>
      </trkpt>
      <trkpt lat="-22.057229" lon="-45.037766">
        <ele>899.574</ele>
        <time>2019-10-17T13:16:33Z</time>
      </trkpt>
      <trkpt lat="-22.057242" lon="-45.037639">
        <ele>901.433</ele>
        <time>2019-10-17T13:16:40Z</time>
      </trkpt>
      <trkpt lat="-22.057256" lon="-45.037579">
        <ele>901.823</ele>
        <time>2019-10-17T13:16:43Z</time>
      </trkpt>
      <trkpt lat="-22.057281" lon="-45.037512">
        <ele>902.515</ele>
        <time>2019-10-17T13:16:47Z</time>
      </trkpt>
      <trkpt lat="-22.057324" lon="-45.037430">
        <ele>903.608</ele>
        <time>2019-10-17T13:17:01Z</time>
      </trkpt>
      <trkpt lat="-22.057383" lon="-45.037199">
        <ele>903.537</ele>
        <time>2019-10-17T13:17:18Z</time>
      </trkpt>
      <trkpt lat="-22.057403" lon="-45.036966">
        <ele>904.555</ele>
        <time>2019-10-17T13:17:26Z</time>
      </trkpt>
      <trkpt lat="-22.057382" lon="-45.035907">
        <ele>911.048</ele>
        <time>2019-10-17T13:18:13Z</time>
      </trkpt>
      <trkpt lat="-22.057369" lon="-45.035858">
        <ele>911.268</ele>
        <time>2019-10-17T13:18:15Z</time>
      </trkpt>
      <trkpt lat="-22.057350" lon="-45.035807">
        <ele>912.034</ele>
        <time>2019-10-17T13:18:18Z</time>
      </trkpt>
      <trkpt lat="-22.057331" lon="-45.035761">
        <ele>912.211</ele>
        <time>2019-10-17T13:18:20Z</time>
      </trkpt>
      <trkpt lat="-22.057291" lon="-45.035666">
        <ele>912.917</ele>
        <time>2019-10-17T13:18:25Z</time>
      </trkpt>
      <trkpt lat="-22.057270" lon="-45.035620">
        <ele>913.015</ele>
        <time>2019-10-17T13:18:27Z</time>
      </trkpt>
      <trkpt lat="-22.057243" lon="-45.035568">
        <ele>913.225</ele>
        <time>2019-10-17T13:18:29Z</time>
      </trkpt>
      <trkpt lat="-22.057218" lon="-45.035523">
        <ele>913.226</ele>
        <time>2019-10-17T13:18:31Z</time>
      </trkpt>
      <trkpt lat="-22.057197" lon="-45.035478">
        <ele>913.708</ele>
        <time>2019-10-17T13:18:33Z</time>
      </trkpt>
      <trkpt lat="-22.057167" lon="-45.035427">
        <ele>914.108</ele>
        <time>2019-10-17T13:18:36Z</time>
      </trkpt>
      <trkpt lat="-22.057139" lon="-45.035385">
        <ele>914.066</ele>
        <time>2019-10-17T13:18:38Z</time>
      </trkpt>
      <trkpt lat="-22.057105" lon="-45.035339">
        <ele>914.654</ele>
        <time>2019-10-17T13:18:41Z</time>
      </trkpt>
      <trkpt lat="-22.057077" lon="-45.035288">
        <ele>915.777</ele>
        <time>2019-10-17T13:18:46Z</time>
      </trkpt>
      <trkpt lat="-22.056999" lon="-45.035184">
        <ele>916.787</ele>
        <time>2019-10-17T13:18:57Z</time>
      </trkpt>
      <trkpt lat="-22.056970" lon="-45.035143">
        <ele>916.833</ele>
        <time>2019-10-17T13:19:00Z</time>
      </trkpt>
      <trkpt lat="-22.056854" lon="-45.035016">
        <ele>917.170</ele>
        <time>2019-10-17T13:19:08Z</time>
      </trkpt>
      <trkpt lat="-22.056793" lon="-45.034957">
        <ele>917.496</ele>
        <time>2019-10-17T13:19:11Z</time>
      </trkpt>
      <trkpt lat="-22.056747" lon="-45.034904">
        <ele>917.624</ele>
        <time>2019-10-17T13:19:15Z</time>
      </trkpt>
      <trkpt lat="-22.056702" lon="-45.034868">
        <ele>917.821</ele>
        <time>2019-10-17T13:19:18Z</time>
      </trkpt>
      <trkpt lat="-22.056643" lon="-45.034831">
        <ele>917.741</ele>
        <time>2019-10-17T13:19:21Z</time>
      </trkpt>
      <trkpt lat="-22.056597" lon="-45.034800">
        <ele>917.405</ele>
        <time>2019-10-17T13:19:23Z</time>
      </trkpt>
      <trkpt lat="-22.056544" lon="-45.034766">
        <ele>917.408</ele>
        <time>2019-10-17T13:19:26Z</time>
      </trkpt>
      <trkpt lat="-22.056494" lon="-45.034733">
        <ele>917.876</ele>
        <time>2019-10-17T13:19:28Z</time>
      </trkpt>
      <trkpt lat="-22.056440" lon="-45.034702">
        <ele>917.964</ele>
        <time>2019-10-17T13:19:31Z</time>
      </trkpt>
      <trkpt lat="-22.056391" lon="-45.034675">
        <ele>917.977</ele>
        <time>2019-10-17T13:19:33Z</time>
      </trkpt>
      <trkpt lat="-22.056341" lon="-45.034649">
        <ele>917.987</ele>
        <time>2019-10-17T13:19:35Z</time>
      </trkpt>
      <trkpt lat="-22.056245" lon="-45.034615">
        <ele>917.683</ele>
        <time>2019-10-17T13:19:39Z</time>
      </trkpt>
      <trkpt lat="-22.056173" lon="-45.034587">
        <ele>917.640</ele>
        <time>2019-10-17T13:19:42Z</time>
      </trkpt>
      <trkpt lat="-22.056112" lon="-45.034559">
        <ele>917.496</ele>
        <time>2019-10-17T13:19:44Z</time>
      </trkpt>
      <trkpt lat="-22.056068" lon="-45.034540">
        <ele>917.094</ele>
        <time>2019-10-17T13:19:46Z</time>
      </trkpt>
      <trkpt lat="-22.055982" lon="-45.034506">
        <ele>916.655</ele>
        <time>2019-10-17T13:19:49Z</time>
      </trkpt>
      <trkpt lat="-22.055935" lon="-45.034489">
        <ele>915.907</ele>
        <time>2019-10-17T13:19:50Z</time>
      </trkpt>
      <trkpt lat="-22.055872" lon="-45.034465">
        <ele>915.217</ele>
        <time>2019-10-17T13:19:52Z</time>
      </trkpt>
      <trkpt lat="-22.051124" lon="-45.032798">
        <ele>906.608</ele>
        <time>2019-10-17T13:21:15Z</time>
      </trkpt>
      <trkpt lat="-22.051033" lon="-45.032747">
        <ele>906.639</ele>
        <time>2019-10-17T13:21:18Z</time>
      </trkpt>
      <trkpt lat="-22.050967" lon="-45.032715">
        <ele>906.787</ele>
        <time>2019-10-17T13:21:20Z</time>
      </trkpt>
      <trkpt lat="-22.050885" lon="-45.032684">
        <ele>906.380</ele>
        <time>2019-10-17T13:21:23Z</time>
      </trkpt>
      <trkpt lat="-22.050818" lon="-45.032659">
        <ele>907.310</ele>
        <time>2019-10-17T13:21:25Z</time>
      </trkpt>
      <trkpt lat="-22.050761" lon="-45.032632">
        <ele>907.426</ele>
        <time>2019-10-17T13:21:27Z</time>
      </trkpt>
      <trkpt lat="-22.050704" lon="-45.032612">
        <ele>906.983</ele>
        <time>2019-10-17T13:21:28Z</time>
      </trkpt>
      <trkpt lat="-22.050649" lon="-45.032597">
        <ele>907.459</ele>
        <time>2019-10-17T13:21:30Z</time>
      </trkpt>
      <trkpt lat="-22.050604" lon="-45.032583">
        <ele>907.947</ele>
        <time>2019-10-17T13:21:31Z</time>
      </trkpt>
      <trkpt lat="-22.050556" lon="-45.032564">
        <ele>909.066</ele>
        <time>2019-10-17T13:21:33Z</time>
      </trkpt>
      <trkpt lat="-22.050447" lon="-45.032522">
        <ele>909.229</ele>
        <time>2019-10-17T13:21:36Z</time>
      </trkpt>
      <trkpt lat="-22.050385" lon="-45.032502">
        <ele>909.121</ele>
        <time>2019-10-17T13:21:38Z</time>
      </trkpt>
      <trkpt lat="-22.050331" lon="-45.032485">
        <ele>908.608</ele>
        <time>2019-10-17T13:21:39Z</time>
      </trkpt>
      <trkpt lat="-22.050264" lon="-45.032460">
        <ele>908.890</ele>
        <time>2019-10-17T13:21:41Z</time>
      </trkpt>
      <trkpt lat="-22.050204" lon="-45.032440">
        <ele>908.748</ele>
        <time>2019-10-17T13:21:43Z</time>
      </trkpt>
      <trkpt lat="-22.050142" lon="-45.032420">
        <ele>908.851</ele>
        <time>2019-10-17T13:21:45Z</time>
      </trkpt>
      <trkpt lat="-22.050069" lon="-45.032389">
        <ele>908.971</ele>
        <time>2019-10-17T13:21:47Z</time>
      </trkpt>
      <trkpt lat="-22.050010" lon="-45.032365">
        <ele>909.277</ele>
        <time>2019-10-17T13:21:49Z</time>
      </trkpt>
      <trkpt lat="-22.049967" lon="-45.032348">
        <ele>908.934</ele>
        <time>2019-10-17T13:21:50Z</time>
      </trkpt>
      <trkpt lat="-22.046819" lon="-45.027678">
        <ele>905.560</ele>
        <time>2019-10-17T13:23:38Z</time>
      </trkpt>
      <trkpt lat="-22.046727" lon="-45.027612">
        <ele>905.878</ele>
        <time>2019-10-17T13:23:42Z</time>
      </trkpt>
      <trkpt lat="-22.046447" lon="-45.027407">
        <ele>907.876</ele>
        <time>2019-10-17T13:23:56Z</time>
      </trkpt>
      <trkpt lat="-22.046402" lon="-45.027387">
        <ele>908.290</ele>
        <time>2019-10-17T13:23:58Z</time>
      </trkpt>
      <trkpt lat="-22.046343" lon="-45.027347">
        <ele>908.819</ele>
        <time>2019-10-17T13:24:02Z</time>
      </trkpt>
      <trkpt lat="-22.046295" lon="-45.027309">
        <ele>909.108</ele>
        <time>2019-10-17T13:24:05Z</time>
      </trkpt>
      <trkpt lat="-22.046246" lon="-45.027273">
        <ele>909.841</ele>
        <time>2019-10-17T13:24:07Z</time>
      </trkpt>
      <trkpt lat="-22.046052" lon="-45.027150">
        <ele>911.299</ele>
        <time>2019-10-17T13:24:15Z</time>
      </trkpt>
      <trkpt lat="-22.046011" lon="-45.027127">
        <ele>911.922</ele>
        <time>2019-10-17T13:24:18Z</time>
      </trkpt>
      <trkpt lat="-22.045917" lon="-45.027060">
        <ele>912.652</ele>
        <time>2019-10-17T13:24:23Z</time>
      </trkpt>
      <trkpt lat="-22.045873" lon="-45.027019">
        <ele>912.468</ele>
        <time>2019-10-17T13:24:26Z</time>
      </trkpt>
      <trkpt lat="-22.045691" lon="-45.026902">
        <ele>914.385</ele>
        <time>2019-10-17T13:24:36Z</time>
      </trkpt>
      <trkpt lat="-22.045648" lon="-45.026875">
        <ele>913.721</ele>
        <time>2019-10-17T13:24:38Z</time>
      </trkpt>
      <trkpt lat="-22.045599" lon="-45.026844">
        <ele>913.439</ele>
        <time>2019-10-17T13:24:41Z</time>
      </trkpt>
      <trkpt lat="-22.045557" lon="-45.026814">
        <ele>913.679</ele>
        <time>2019-10-17T13:24:43Z</time>
      </trkpt>
      <trkpt lat="-22.045511" lon="-45.026778">
        <ele>914.705</ele>
        <time>2019-10-17T13:24:46Z</time>
      </trkpt>
      <trkpt lat="-22.045471" lon="-45.026744">
        <ele>915.025</ele>
        <time>2019-10-17T13:24:48Z</time>
      </trkpt>
      <trkpt lat="-22.045427" lon="-45.026705">
        <ele>915.308</ele>
        <time>2019-10-17T13:24:50Z</time>
      </trkpt>
      <trkpt lat="-22.045359" lon="-45.026658">
        <ele>915.731</ele>
        <time>2019-10-17T13:24:55Z</time>
      </trkpt>
      <trkpt lat="-22.045306" lon="-45.026615">
        <ele>916.639</ele>
        <time>2019-10-17T13:24:58Z</time>
      </trkpt>
      <trkpt lat="-22.045260" lon="-45.026586">
        <ele>916.832</ele>
        <time>2019-10-17T13:25:01Z</time>
      </trkpt>
      <trkpt lat="-22.045148" lon="-45.026495">
        <ele>917.452</ele>
        <time>2019-10-17T13:25:08Z</time>
      </trkpt>
      <trkpt lat="-22.044974" lon="-45.026339">
        <ele>918.338</ele>
        <time>2019-10-17T13:25:19Z</time>
      </trkpt>
      <trkpt lat="-22.044597" lon="-45.025746">
        <ele>922.045</ele>
        <time>2019-10-17T13:25:52Z</time>
      </trkpt>
      <trkpt lat="-22.044562" lon="-45.025633">
        <ele>922.971</ele>
        <time>2019-10-17T13:25:57Z</time>
      </trkpt>
      <trkpt lat="-22.044451" lon="-45.025360">
        <ele>923.899</ele>
        <time>2019-10-17T13:26:09Z</time>
      </trkpt>
      <trkpt lat="-22.044419" lon="-45.025249">
        <ele>924.155</ele>
        <time>2019-10-17T13:26:13Z</time>
      </trkpt>
      <trkpt lat="-22.044395" lon="-45.025157">
        <ele>924.707</ele>
        <time>2019-10-17T13:26:16Z</time>
      </trkpt>
      <trkpt lat="-22.044382" lon="-45.025105">
        <ele>924.617</ele>
        <time>2019-10-17T13:26:18Z</time>
      </trkpt>
      <trkpt lat="-22.044352" lon="-45.024994">
        <ele>924.108</ele>
        <time>2019-10-17T13:26:20Z</time>
      </trkpt>
      <trkpt lat="-22.043204" lon="-45.022637">
        <ele>922.519</ele>
        <time>2019-10-17T13:27:26Z</time>
      </trkpt>
      <trkpt lat="-22.043130" lon="-45.022583">
        <ele>922.477</ele>
        <time>2019-10-17T13:27:29Z</time>
      </trkpt>
      <trkpt lat="-22.043044" lon="-45.022528">
        <ele>921.450</ele>
        <time>2019-10-17T13:27:31Z</time>
      </trkpt>
      <trkpt lat="-22.042939" lon="-45.022474">
        <ele>922.590</ele>
        <time>2019-10-17T13:27:35Z</time>
      </trkpt>
      <trkpt lat="-22.042894" lon="-45.022453">
        <ele>922.796</ele>
        <time>2019-10-17T13:27:37Z</time>
      </trkpt>
      <trkpt lat="-22.042852" lon="-45.022426">
        <ele>922.563</ele>
        <time>2019-10-17T13:27:40Z</time>
      </trkpt>
      <trkpt lat="-22.042885" lon="-45.022461">
        <ele>923.779</ele>
        <time>2019-10-17T13:27:45Z</time>
      </trkpt>
      <trkpt lat="-22.042939" lon="-45.022468">
        <ele>923.577</ele>
        <time>2019-10-17T13:27:48Z</time>
      </trkpt>
      <trkpt lat="-22.042981" lon="-45.022495">
        <ele>923.787</ele>
        <time>2019-10-17T13:27:50Z</time>
      </trkpt>
      <trkpt lat="-22.043085" lon="-45.022563">
        <ele>923.842</ele>
        <time>2019-10-17T13:27:55Z</time>
      </trkpt>
      <trkpt lat="-22.043135" lon="-45.022578">
        <ele>923.626</ele>
        <time>2019-10-17T13:27:56Z</time>
      </trkpt>
      <trkpt lat="-22.043200" lon="-45.022605">
        <ele>924.308</ele>
        <time>2019-10-17T13:27:59Z</time>
      </trkpt>
      <trkpt lat="-22.043262" lon="-45.022635">
        <ele>924.342</ele>
        <time>2019-10-17T13:28:02Z</time>
      </trkpt>
      <trkpt lat="-22.043307" lon="-45.022644">
        <ele>924.720</ele>
        <time>2019-10-17T13:28:04Z</time>
      </trkpt>
      <trkpt lat="-22.043358" lon="-45.022642">
        <ele>925.113</ele>
        <time>2019-10-17T13:28:07Z</time>
      </trkpt>
      <trkpt lat="-22.043414" lon="-45.022589">
        <ele>925.343</ele>
        <time>2019-10-17T13:28:12Z</time>
      </trkpt>
      <trkpt lat="-22.043437" lon="-45.022546">
        <ele>925.169</ele>
        <time>2019-10-17T13:28:20Z</time>
      </trkpt>
      <trkpt lat="-22.043486" lon="-45.022257">
        <ele>925.476</ele>
        <time>2019-10-17T13:28:22Z</time>
      </trkpt>
      <trkpt lat="-22.043457" lon="-45.022218">
        <ele>926.072</ele>
        <time>2019-10-17T13:28:58Z</time>
      </trkpt>
      <trkpt lat="-22.043456" lon="-45.022151">
        <ele>926.470</ele>
        <time>2019-10-17T13:29:02Z</time>
      </trkpt>
      <trkpt lat="-22.043450" lon="-45.022094">
        <ele>927.184</ele>
        <time>2019-10-17T13:29:06Z</time>
      </trkpt>
      <trkpt lat="-22.043446" lon="-45.022033">
        <ele>927.907</ele>
        <time>2019-10-17T13:29:11Z</time>
      </trkpt>
      <trkpt lat="-22.043445" lon="-45.021975">
        <ele>929.017</ele>
        <time>2019-10-17T13:29:17Z</time>
      </trkpt>
      <trkpt lat="-22.043445" lon="-45.021926">
        <ele>929.708</ele>
        <time>2019-10-17T13:29:22Z</time>
      </trkpt>
      <trkpt lat="-22.043446" lon="-45.021877">
        <ele>930.452</ele>
        <time>2019-10-17T13:29:27Z</time>
      </trkpt>
      <trkpt lat="-22.043441" lon="-45.021826">
        <ele>930.810</ele>
        <time>2019-10-17T13:29:32Z</time>
      </trkpt>
      <trkpt lat="-22.043455" lon="-45.021776">
        <ele>931.633</ele>
        <time>2019-10-17T13:29:37Z</time>
      </trkpt>
      <trkpt lat="-22.043454" lon="-45.021726">
        <ele>932.693</ele>
        <time>2019-10-17T13:29:42Z</time>
      </trkpt>
      <trkpt lat="-22.043461" lon="-45.021675">
        <ele>933.789</ele>
        <time>2019-10-17T13:29:48Z</time>
      </trkpt>
      <trkpt lat="-22.043451" lon="-45.021625">
        <ele>934.426</ele>
        <time>2019-10-17T13:29:53Z</time>
      </trkpt>
      <trkpt lat="-22.043459" lon="-45.021571">
        <ele>935.652</ele>
        <time>2019-10-17T13:29:58Z</time>
      </trkpt>
      <trkpt lat="-22.043476" lon="-45.021521">
        <ele>936.770</ele>
        <time>2019-10-17T13:30:03Z</time>
      </trkpt>
      <trkpt lat="-22.043488" lon="-45.021467">
        <ele>937.136</ele>
        <time>2019-10-17T13:30:08Z</time>
      </trkpt>
      <trkpt lat="-22.043502" lon="-45.021412">
        <ele>937.817</ele>
        <time>2019-10-17T13:30:14Z</time>
      </trkpt>
      <trkpt lat="-22.043533" lon="-45.021368">
        <ele>938.718</ele>
        <time>2019-10-17T13:30:19Z</time>
      </trkpt>
      <trkpt lat="-22.043575" lon="-45.021343">
        <ele>939.308</ele>
        <time>2019-10-17T13:30:24Z</time>
      </trkpt>
      <trkpt lat="-22.043620" lon="-45.021318">
        <ele>940.247</ele>
        <time>2019-10-17T13:30:29Z</time>
      </trkpt>
      <trkpt lat="-22.043668" lon="-45.021310">
        <ele>940.785</ele>
        <time>2019-10-17T13:30:34Z</time>
      </trkpt>
      <trkpt lat="-22.043721" lon="-45.021300">
        <ele>941.528</ele>
        <time>2019-10-17T13:30:39Z</time>
      </trkpt>
      <trkpt lat="-22.043776" lon="-45.021299">
        <ele>942.158</ele>
        <time>2019-10-17T13:30:44Z</time>
      </trkpt>
      <trkpt lat="-22.043830" lon="-45.021291">
        <ele>942.834</ele>
        <time>2019-10-17T13:30:49Z</time>
      </trkpt>
      <trkpt lat="-22.043785" lon="-45.021302">
        <ele>942.821</ele>
        <time>2019-10-17T13:30:52Z</time>
      </trkpt>
      <trkpt lat="-22.043861" lon="-45.021296">
        <ele>943.297</ele>
        <time>2019-10-17T13:30:57Z</time>
      </trkpt>
      <trkpt lat="-22.043923" lon="-45.021289">
        <ele>943.585</ele>
        <time>2019-10-17T13:30:59Z</time>
      </trkpt>
      <trkpt lat="-22.043873" lon="-45.021299">
        <ele>943.939</ele>
        <time>2019-10-17T13:31:02Z</time>
      </trkpt>
      <trkpt lat="-22.043930" lon="-45.021292">
        <ele>944.101</ele>
        <time>2019-10-17T13:31:03Z</time>
      </trkpt>
      <trkpt lat="-22.043988" lon="-45.021286">
        <ele>944.421</ele>
        <time>2019-10-17T13:31:05Z</time>
      </trkpt>
      <trkpt lat="-22.044040" lon="-45.021284">
        <ele>944.808</ele>
        <time>2019-10-17T13:31:09Z</time>
      </trkpt>
      <trkpt lat="-22.044095" lon="-45.021273">
        <ele>945.487</ele>
        <time>2019-10-17T13:31:14Z</time>
      </trkpt>
      <trkpt lat="-22.044156" lon="-45.021267">
        <ele>946.975</ele>
        <time>2019-10-17T13:31:23Z</time>
      </trkpt>
      <trkpt lat="-22.044207" lon="-45.021266">
        <ele>946.998</ele>
        <time>2019-10-17T13:31:25Z</time>
      </trkpt>
      <trkpt lat="-22.044251" lon="-45.021276">
        <ele>947.498</ele>
        <time>2019-10-17T13:31:28Z</time>
      </trkpt>
      <trkpt lat="-22.044317" lon="-45.021280">
        <ele>948.894</ele>
        <time>2019-10-17T13:31:36Z</time>
      </trkpt>
      <trkpt lat="-22.044370" lon="-45.021264">
        <ele>949.191</ele>
        <time>2019-10-17T13:31:41Z</time>
      </trkpt>
      <trkpt lat="-22.044417" lon="-45.021255">
        <ele>949.327</ele>
        <time>2019-10-17T13:31:44Z</time>
      </trkpt>
      <trkpt lat="-22.044472" lon="-45.021250">
        <ele>950.045</ele>
        <time>2019-10-17T13:31:49Z</time>
      </trkpt>
      <trkpt lat="-22.044527" lon="-45.021244">
        <ele>950.914</ele>
        <time>2019-10-17T13:31:54Z</time>
      </trkpt>
      <trkpt lat="-22.044575" lon="-45.021232">
        <ele>952.054</ele>
        <time>2019-10-17T13:31:59Z</time>
      </trkpt>
      <trkpt lat="-22.044623" lon="-45.021220">
        <ele>952.809</ele>
        <time>2019-10-17T13:32:04Z</time>
      </trkpt>
      <trkpt lat="-22.044672" lon="-45.021209">
        <ele>953.608</ele>
        <time>2019-10-17T13:32:09Z</time>
      </trkpt>
      <trkpt lat="-22.044729" lon="-45.021196">
        <ele>954.625</ele>
        <time>2019-10-17T13:32:13Z</time>
      </trkpt>
      <trkpt lat="-22.044778" lon="-45.021185">
        <ele>955.613</ele>
        <time>2019-10-17T13:32:17Z</time>
      </trkpt>
      <trkpt lat="-22.044824" lon="-45.021178">
        <ele>956.316</ele>
        <time>2019-10-17T13:37:13Z</time>
      </trkpt>
      <trkpt lat="-22.044907" lon="-45.021153">
        <ele>957.576</ele>
        <time>2019-10-17T13:37:19Z</time>
      </trkpt>
      <trkpt lat="-22.044994" lon="-45.021130">
        <ele>958.272</ele>
        <time>2019-10-17T13:37:24Z</time>
      </trkpt>
      <trkpt lat="-22.045052" lon="-45.021106">
        <ele>959.559</ele>
        <time>2019-10-17T13:37:29Z</time>
      </trkpt>
      <trkpt lat="-22.045113" lon="-45.021082">
        <ele>960.595</ele>
        <time>2019-10-17T13:37:37Z</time>
      </trkpt>
      <trkpt lat="-22.045221" lon="-45.021040">
        <ele>960.853</ele>
        <time>2019-10-17T13:37:58Z</time>
      </trkpt>
      <trkpt lat="-22.045289" lon="-45.021008">
        <ele>961.756</ele>
        <time>2019-10-17T13:39:08Z</time>
      </trkpt>
      <trkpt lat="-22.045333" lon="-45.020977">
        <ele>962.159</ele>
        <time>2019-10-17T13:39:11Z</time>
      </trkpt>
      <trkpt lat="-22.045399" lon="-45.020954">
        <ele>962.314</ele>
        <time>2019-10-17T13:39:14Z</time>
      </trkpt>
      <trkpt lat="-22.045457" lon="-45.020928">
        <ele>963.008</ele>
        <time>2019-10-17T13:39:16Z</time>
      </trkpt>
      <trkpt lat="-22.045502" lon="-45.020910">
        <ele>963.419</ele>
        <time>2019-10-17T13:39:19Z</time>
      </trkpt>
      <trkpt lat="-22.045550" lon="-45.020891">
        <ele>963.397</ele>
        <time>2019-10-17T13:39:21Z</time>
      </trkpt>
      <trkpt lat="-22.045597" lon="-45.020864">
        <ele>963.920</ele>
        <time>2019-10-17T13:39:22Z</time>
      </trkpt>
      <trkpt lat="-22.045638" lon="-45.020840">
        <ele>964.620</ele>
        <time>2019-10-17T13:39:24Z</time>
      </trkpt>
      <trkpt lat="-22.045781" lon="-45.020778">
        <ele>966.676</ele>
        <time>2019-10-17T13:39:33Z</time>
      </trkpt>
      <trkpt lat="-22.045840" lon="-45.020757">
        <ele>966.633</ele>
        <time>2019-10-17T13:39:36Z</time>
      </trkpt>
      <trkpt lat="-22.045912" lon="-45.020742">
        <ele>967.539</ele>
        <time>2019-10-17T13:39:41Z</time>
      </trkpt>
      <trkpt lat="-22.045984" lon="-45.020725">
        <ele>968.427</ele>
        <time>2019-10-17T13:39:47Z</time>
      </trkpt>
      <trkpt lat="-22.046079" lon="-45.020697">
        <ele>968.947</ele>
        <time>2019-10-17T13:39:52Z</time>
      </trkpt>
      <trkpt lat="-22.046137" lon="-45.020685">
        <ele>969.329</ele>
        <time>2019-10-17T13:39:56Z</time>
      </trkpt>
      <trkpt lat="-22.046200" lon="-45.020674">
        <ele>969.721</ele>
        <time>2019-10-17T13:40:00Z</time>
      </trkpt>
      <trkpt lat="-22.046249" lon="-45.020658">
        <ele>970.008</ele>
        <time>2019-10-17T13:40:03Z</time>
      </trkpt>
      <trkpt lat="-22.046336" lon="-45.020614">
        <ele>970.618</ele>
        <time>2019-10-17T13:40:09Z</time>
      </trkpt>
      <trkpt lat="-22.046406" lon="-45.020536">
        <ele>971.136</ele>
        <time>2019-10-17T13:40:18Z</time>
      </trkpt>
      <trkpt lat="-22.046441" lon="-45.020474">
        <ele>970.119</ele>
        <time>2019-10-17T13:40:20Z</time>
      </trkpt>
      <trkpt lat="-22.046470" lon="-45.020420">
        <ele>970.069</ele>
        <time>2019-10-17T13:40:22Z</time>
      </trkpt>
      <trkpt lat="-22.046500" lon="-45.020366">
        <ele>969.335</ele>
        <time>2019-10-17T13:40:23Z</time>
      </trkpt>
      <trkpt lat="-22.046626" lon="-45.020151">
        <ele>966.532</ele>
        <time>2019-10-17T13:40:29Z</time>
      </trkpt>
      <trkpt lat="-22.046642" lon="-45.020091">
        <ele>965.838</ele>
        <time>2019-10-17T13:40:30Z</time>
      </trkpt>
      <trkpt lat="-22.046422" lon="-45.017410">
        <ele>952.186</ele>
        <time>2019-10-17T13:41:05Z</time>
      </trkpt>
      <trkpt lat="-22.046410" lon="-45.017360">
        <ele>952.638</ele>
        <time>2019-10-17T13:41:09Z</time>
      </trkpt>
      <trkpt lat="-22.046380" lon="-45.017315">
        <ele>952.770</ele>
        <time>2019-10-17T13:41:12Z</time>
      </trkpt>
      <trkpt lat="-22.046347" lon="-45.017268">
        <ele>952.617</ele>
        <time>2019-10-17T13:41:14Z</time>
      </trkpt>
      <trkpt lat="-22.046300" lon="-45.017217">
        <ele>951.808</ele>
        <time>2019-10-17T13:41:17Z</time>
      </trkpt>
      <trkpt lat="-22.046238" lon="-45.017154">
        <ele>951.347</ele>
        <time>2019-10-17T13:41:19Z</time>
      </trkpt>
      <trkpt lat="-22.046145" lon="-45.017096">
        <ele>950.615</ele>
        <time>2019-10-17T13:41:23Z</time>
      </trkpt>
      <trkpt lat="-22.046192" lon="-45.012500">
        <ele>932.398</ele>
        <time>2019-10-17T13:42:46Z</time>
      </trkpt>
      <trkpt lat="-22.046222" lon="-45.012426">
        <ele>932.438</ele>
        <time>2019-10-17T13:42:48Z</time>
      </trkpt>
      <trkpt lat="-22.046249" lon="-45.012371">
        <ele>932.334</ele>
        <time>2019-10-17T13:42:50Z</time>
      </trkpt>
      <trkpt lat="-22.046280" lon="-45.012301">
        <ele>933.051</ele>
        <time>2019-10-17T13:42:52Z</time>
      </trkpt>
      <trkpt lat="-22.046299" lon="-45.012250">
        <ele>933.477</ele>
        <time>2019-10-17T13:42:53Z</time>
      </trkpt>
      <trkpt lat="-22.046335" lon="-45.012167">
        <ele>933.795</ele>
        <time>2019-10-17T13:42:56Z</time>
      </trkpt>
      <trkpt lat="-22.046360" lon="-45.012102">
        <ele>934.149</ele>
        <time>2019-10-17T13:42:59Z</time>
      </trkpt>
      <trkpt lat="-22.046381" lon="-45.012034">
        <ele>934.502</ele>
        <time>2019-10-17T13:43:02Z</time>
      </trkpt>
      <trkpt lat="-22.046398" lon="-45.011970">
        <ele>935.022</ele>
        <time>2019-10-17T13:43:04Z</time>
      </trkpt>
      <trkpt lat="-22.046418" lon="-45.011904">
        <ele>935.108</ele>
        <time>2019-10-17T13:43:07Z</time>
      </trkpt>
      <trkpt lat="-22.046437" lon="-45.011849">
        <ele>935.118</ele>
        <time>2019-10-17T13:43:09Z</time>
      </trkpt>
      <trkpt lat="-22.046456" lon="-45.011795">
        <ele>935.136</ele>
        <time>2019-10-17T13:43:11Z</time>
      </trkpt>
      <trkpt lat="-22.046476" lon="-45.011746">
        <ele>934.819</ele>
        <time>2019-10-17T13:43:12Z</time>
      </trkpt>
      <trkpt lat="-22.046512" lon="-45.011671">
        <ele>935.179</ele>
        <time>2019-10-17T13:43:15Z</time>
      </trkpt>
      <trkpt lat="-22.046539" lon="-45.011619">
        <ele>935.275</ele>
        <time>2019-10-17T13:43:17Z</time>
      </trkpt>
      <trkpt lat="-22.046564" lon="-45.011565">
        <ele>935.252</ele>
        <time>2019-10-17T13:43:19Z</time>
      </trkpt>
      <trkpt lat="-22.046583" lon="-45.011518">
        <ele>935.058</ele>
        <time>2019-10-17T13:43:20Z</time>
      </trkpt>
      <trkpt lat="-22.046608" lon="-45.011454">
        <ele>935.396</ele>
        <time>2019-10-17T13:43:23Z</time>
      </trkpt>
      <trkpt lat="-22.046636" lon="-45.011379">
        <ele>935.529</ele>
        <time>2019-10-17T13:43:25Z</time>
      </trkpt>
      <trkpt lat="-22.046653" lon="-45.011329">
        <ele>935.500</ele>
        <time>2019-10-17T13:43:28Z</time>
      </trkpt>
      <trkpt lat="-22.046678" lon="-45.011278">
        <ele>935.320</ele>
        <time>2019-10-17T13:43:30Z</time>
      </trkpt>
      <trkpt lat="-22.046701" lon="-45.011225">
        <ele>935.808</ele>
        <time>2019-10-17T13:43:32Z</time>
      </trkpt>
      <trkpt lat="-22.046736" lon="-45.011161">
        <ele>936.476</ele>
        <time>2019-10-17T13:43:35Z</time>
      </trkpt>
      <trkpt lat="-22.046782" lon="-45.011086">
        <ele>936.754</ele>
        <time>2019-10-17T13:43:38Z</time>
      </trkpt>
      <trkpt lat="-22.046810" lon="-45.011039">
        <ele>936.627</ele>
        <time>2019-10-17T13:43:40Z</time>
      </trkpt>
      <trkpt lat="-22.046839" lon="-45.010991">
        <ele>937.217</ele>
        <time>2019-10-17T13:43:42Z</time>
      </trkpt>
      <trkpt lat="-22.046886" lon="-45.010936">
        <ele>937.513</ele>
        <time>2019-10-17T13:43:43Z</time>
      </trkpt>
      <trkpt lat="-22.046949" lon="-45.010868">
        <ele>938.470</ele>
        <time>2019-10-17T13:43:46Z</time>
      </trkpt>
      <trkpt lat="-22.046978" lon="-45.010818">
        <ele>938.736</ele>
        <time>2019-10-17T13:43:48Z</time>
      </trkpt>
      <trkpt lat="-22.047036" lon="-45.010782">
        <ele>939.584</ele>
        <time>2019-10-17T13:43:50Z</time>
      </trkpt>
      <trkpt lat="-22.047088" lon="-45.010746">
        <ele>940.523</ele>
        <time>2019-10-17T13:43:53Z</time>
      </trkpt>
      <trkpt lat="-22.047139" lon="-45.010703">
        <ele>941.883</ele>
        <time>2019-10-17T13:43:59Z</time>
      </trkpt>
      <trkpt lat="-22.047236" lon="-45.010666">
        <ele>943.711</ele>
        <time>2019-10-17T13:44:06Z</time>
      </trkpt>
      <trkpt lat="-22.047312" lon="-45.010657">
        <ele>944.808</ele>
        <time>2019-10-17T13:44:11Z</time>
      </trkpt>
      <trkpt lat="-22.047358" lon="-45.010663">
        <ele>945.436</ele>
        <time>2019-10-17T13:44:15Z</time>
      </trkpt>
      <trkpt lat="-22.047423" lon="-45.010682">
        <ele>945.694</ele>
        <time>2019-10-17T13:44:19Z</time>
      </trkpt>
      <trkpt lat="-22.047471" lon="-45.010712">
        <ele>945.147</ele>
        <time>2019-10-17T13:44:21Z</time>
      </trkpt>
      <trkpt lat="-22.048431" lon="-45.011485">
        <ele>943.237</ele>
        <time>2019-10-17T13:44:57Z</time>
      </trkpt>
      <trkpt lat="-22.048515" lon="-45.011503">
        <ele>941.223</ele>
        <time>2019-10-17T13:46:42Z</time>
      </trkpt>
      <trkpt lat="-22.048603" lon="-45.011517">
        <ele>940.020</ele>
        <time>2019-10-17T13:46:45Z</time>
      </trkpt>
      <trkpt lat="-22.048840" lon="-45.011423">
        <ele>938.866</ele>
        <time>2019-10-17T13:46:51Z</time>
      </trkpt>
      <trkpt lat="-22.049075" lon="-45.011232">
        <ele>935.974</ele>
        <time>2019-10-17T13:46:58Z</time>
      </trkpt>
      <trkpt lat="-22.050974" lon="-45.007497">
        <ele>878.766</ele>
        <time>2019-10-17T13:48:04Z</time>
      </trkpt>
      <trkpt lat="-22.050972" lon="-45.007429">
        <ele>879.429</ele>
        <time>2019-10-17T13:48:08Z</time>
      </trkpt>
      <trkpt lat="-22.050970" lon="-45.007371">
        <ele>879.621</ele>
        <time>2019-10-17T13:48:09Z</time>
      </trkpt>
      <trkpt lat="-22.050964" lon="-45.007314">
        <ele>880.408</ele>
        <time>2019-10-17T13:48:12Z</time>
      </trkpt>
      <trkpt lat="-22.050969" lon="-45.007265">
        <ele>880.660</ele>
        <time>2019-10-17T13:48:14Z</time>
      </trkpt>
      <trkpt lat="-22.050958" lon="-45.007214">
        <ele>881.178</ele>
        <time>2019-10-17T13:48:16Z</time>
      </trkpt>
      <trkpt lat="-22.050927" lon="-45.007076">
        <ele>881.181</ele>
        <time>2019-10-17T13:48:21Z</time>
      </trkpt>
      <trkpt lat="-22.050917" lon="-45.007005">
        <ele>881.361</ele>
        <time>2019-10-17T13:48:24Z</time>
      </trkpt>
      <trkpt lat="-22.050909" lon="-45.006956">
        <ele>881.867</ele>
        <time>2019-10-17T13:48:26Z</time>
      </trkpt>
      <trkpt lat="-22.050904" lon="-45.006898">
        <ele>882.114</ele>
        <time>2019-10-17T13:48:28Z</time>
      </trkpt>
      <trkpt lat="-22.050896" lon="-45.006846">
        <ele>882.330</ele>
        <time>2019-10-17T13:48:30Z</time>
      </trkpt>
      <trkpt lat="-22.050887" lon="-45.006790">
        <ele>882.548</ele>
        <time>2019-10-17T13:48:32Z</time>
      </trkpt>
      <trkpt lat="-22.050882" lon="-45.006733">
        <ele>883.199</ele>
        <time>2019-10-17T13:48:34Z</time>
      </trkpt>
      <trkpt lat="-22.050874" lon="-45.006684">
        <ele>883.707</ele>
        <time>2019-10-17T13:48:36Z</time>
      </trkpt>
      <trkpt lat="-22.050845" lon="-45.006589">
        <ele>883.427</ele>
        <time>2019-10-17T13:48:41Z</time>
      </trkpt>
      <trkpt lat="-22.050823" lon="-45.006533">
        <ele>883.108</ele>
        <time>2019-10-17T13:48:44Z</time>
      </trkpt>
      <trkpt lat="-22.050782" lon="-45.006455">
        <ele>882.913</ele>
        <time>2019-10-17T13:48:47Z</time>
      </trkpt>
      <trkpt lat="-22.050753" lon="-45.006401">
        <ele>882.381</ele>
        <time>2019-10-17T13:48:50Z</time>
      </trkpt>
      <trkpt lat="-22.050731" lon="-45.006352">
        <ele>882.814</ele>
        <time>2019-10-17T13:48:52Z</time>
      </trkpt>
      <trkpt lat="-22.050709" lon="-45.006299">
        <ele>882.954</ele>
        <time>2019-10-17T13:48:54Z</time>
      </trkpt>
      <trkpt lat="-22.050692" lon="-45.006254">
        <ele>882.880</ele>
        <time>2019-10-17T13:48:55Z</time>
      </trkpt>
      <trkpt lat="-22.050673" lon="-45.006196">
        <ele>882.697</ele>
        <time>2019-10-17T13:48:57Z</time>
      </trkpt>
      <trkpt lat="-22.050660" lon="-45.006141">
        <ele>882.953</ele>
        <time>2019-10-17T13:48:59Z</time>
      </trkpt>
      <trkpt lat="-22.050660" lon="-45.006092">
        <ele>882.731</ele>
        <time>2019-10-17T13:49:00Z</time>
      </trkpt>
      <trkpt lat="-22.050652" lon="-45.006037">
        <ele>882.563</ele>
        <time>2019-10-17T13:49:02Z</time>
      </trkpt>
      <trkpt lat="-22.050643" lon="-45.005965">
        <ele>882.544</ele>
        <time>2019-10-17T13:49:05Z</time>
      </trkpt>
      <trkpt lat="-22.050645" lon="-45.005904">
        <ele>882.618</ele>
        <time>2019-10-17T13:49:07Z</time>
      </trkpt>
      <trkpt lat="-22.050653" lon="-45.005844">
        <ele>882.308</ele>
        <time>2019-10-17T13:49:09Z</time>
      </trkpt>
      <trkpt lat="-22.050680" lon="-45.005770">
        <ele>882.140</ele>
        <time>2019-10-17T13:49:12Z</time>
      </trkpt>
      <trkpt lat="-22.050721" lon="-45.005725">
        <ele>880.798</ele>
        <time>2019-10-17T13:49:14Z</time>
      </trkpt>
      <trkpt lat="-22.051377" lon="-45.004638">
        <ele>875.791</ele>
        <time>2019-10-17T13:49:38Z</time>
      </trkpt>
      <trkpt lat="-22.051374" lon="-45.004578">
        <ele>876.611</ele>
        <time>2019-10-17T13:49:42Z</time>
      </trkpt>
      <trkpt lat="-22.051354" lon="-45.004503">
        <ele>877.797</ele>
        <time>2019-10-17T13:49:54Z</time>
      </trkpt>
      <trkpt lat="-22.051398" lon="-45.004532">
        <ele>877.664</ele>
        <time>2019-10-17T13:50:09Z</time>
      </trkpt>
      <trkpt lat="-22.051338" lon="-45.004542">
        <ele>876.660</ele>
        <time>2019-10-17T13:50:55Z</time>
      </trkpt>
      <trkpt lat="-22.051234" lon="-45.004463">
        <ele>876.568</ele>
        <time>2019-10-17T13:52:34Z</time>
      </trkpt>
      <trkpt lat="-22.051187" lon="-45.004434">
        <ele>876.936</ele>
        <time>2019-10-17T13:52:37Z</time>
      </trkpt>
      <trkpt lat="-22.051144" lon="-45.004405">
        <ele>876.917</ele>
        <time>2019-10-17T13:52:40Z</time>
      </trkpt>
      <trkpt lat="-22.051100" lon="-45.004379">
        <ele>876.618</ele>
        <time>2019-10-17T13:52:42Z</time>
      </trkpt>
      <trkpt lat="-22.051036" lon="-45.004349">
        <ele>877.508</ele>
        <time>2019-10-17T13:52:45Z</time>
      </trkpt>
      <trkpt lat="-22.050990" lon="-45.004326">
        <ele>877.697</ele>
        <time>2019-10-17T13:52:47Z</time>
      </trkpt>
      <trkpt lat="-22.050923" lon="-45.004290">
        <ele>877.725</ele>
        <time>2019-10-17T13:52:50Z</time>
      </trkpt>
      <trkpt lat="-22.050882" lon="-45.004268">
        <ele>877.678</ele>
        <time>2019-10-17T13:52:51Z</time>
      </trkpt>
      <trkpt lat="-22.050842" lon="-45.004241">
        <ele>877.298</ele>
        <time>2019-10-17T13:52:53Z</time>
      </trkpt>
      <trkpt lat="-22.050759" lon="-45.004206">
        <ele>876.824</ele>
        <time>2019-10-17T13:52:55Z</time>
      </trkpt>
      <trkpt lat="-22.050716" lon="-45.004188">
        <ele>877.221</ele>
        <time>2019-10-17T13:52:56Z</time>
      </trkpt>
      <trkpt lat="-22.050663" lon="-45.004164">
        <ele>876.987</ele>
        <time>2019-10-17T13:52:58Z</time>
      </trkpt>
      <trkpt lat="-22.050609" lon="-45.004140">
        <ele>876.665</ele>
        <time>2019-10-17T13:52:59Z</time>
      </trkpt>
      <trkpt lat="-22.050558" lon="-45.004119">
        <ele>876.457</ele>
        <time>2019-10-17T13:53:01Z</time>
      </trkpt>
      <trkpt lat="-22.050479" lon="-45.004085">
        <ele>875.900</ele>
        <time>2019-10-17T13:53:03Z</time>
      </trkpt>
      <trkpt lat="-22.050401" lon="-45.004060">
        <ele>875.920</ele>
        <time>2019-10-17T13:53:05Z</time>
      </trkpt>
      <trkpt lat="-22.050347" lon="-45.004037">
        <ele>876.208</ele>
        <time>2019-10-17T13:53:07Z</time>
      </trkpt>
      <trkpt lat="-22.050263" lon="-45.003998">
        <ele>875.919</ele>
        <time>2019-10-17T13:53:10Z</time>
      </trkpt>
      <trkpt lat="-22.050210" lon="-45.003959">
        <ele>876.327</ele>
        <time>2019-10-17T13:53:12Z</time>
      </trkpt>
      <trkpt lat="-22.050163" lon="-45.003939">
        <ele>876.390</ele>
        <time>2019-10-17T13:53:13Z</time>
      </trkpt>
      <trkpt lat="-22.050117" lon="-45.003920">
        <ele>876.390</ele>
        <time>2019-10-17T13:53:15Z</time>
      </trkpt>
      <trkpt lat="-22.050065" lon="-45.003895">
        <ele>876.156</ele>
        <time>2019-10-17T13:53:17Z</time>
      </trkpt>
      <trkpt lat="-22.050003" lon="-45.003859">
        <ele>875.723</ele>
        <time>2019-10-17T13:53:19Z</time>
      </trkpt>
      <trkpt lat="-22.049941" lon="-45.003820">
        <ele>875.229</ele>
        <time>2019-10-17T13:53:21Z</time>
      </trkpt>
      <trkpt lat="-22.049903" lon="-45.003793">
        <ele>874.657</ele>
        <time>2019-10-17T13:53:22Z</time>
      </trkpt>
      <trkpt lat="-22.048874" lon="-45.003177">
        <ele>873.497</ele>
        <time>2019-10-17T13:53:49Z</time>
      </trkpt>
      <trkpt lat="-22.048817" lon="-45.003126">
        <ele>873.623</ele>
        <time>2019-10-17T13:53:51Z</time>
      </trkpt>
      <trkpt lat="-22.048768" lon="-45.003069">
        <ele>873.325</ele>
        <time>2019-10-17T13:53:53Z</time>
      </trkpt>
      <trkpt lat="-22.048711" lon="-45.003003">
        <ele>872.908</ele>
        <time>2019-10-17T13:53:55Z</time>
      </trkpt>
      <trkpt lat="-22.048683" lon="-45.002961">
        <ele>873.543</ele>
        <time>2019-10-17T13:53:57Z</time>
      </trkpt>
      <trkpt lat="-22.048648" lon="-45.002893">
        <ele>873.321</ele>
        <time>2019-10-17T13:53:59Z</time>
      </trkpt>
      <trkpt lat="-22.048627" lon="-45.002849">
        <ele>873.164</ele>
        <time>2019-10-17T13:54:00Z</time>
      </trkpt>
      <trkpt lat="-22.048603" lon="-45.002795">
        <ele>873.534</ele>
        <time>2019-10-17T13:54:02Z</time>
      </trkpt>
      <trkpt lat="-22.048581" lon="-45.002748">
        <ele>873.710</ele>
        <time>2019-10-17T13:54:03Z</time>
      </trkpt>
      <trkpt lat="-22.048549" lon="-45.002672">
        <ele>873.647</ele>
        <time>2019-10-17T13:54:06Z</time>
      </trkpt>
      <trkpt lat="-22.048513" lon="-45.002604">
        <ele>873.663</ele>
        <time>2019-10-17T13:54:08Z</time>
      </trkpt>
      <trkpt lat="-22.048488" lon="-45.002557">
        <ele>873.741</ele>
        <time>2019-10-17T13:54:10Z</time>
      </trkpt>
      <trkpt lat="-22.048452" lon="-45.002508">
        <ele>873.735</ele>
        <time>2019-10-17T13:54:12Z</time>
      </trkpt>
      <trkpt lat="-22.048413" lon="-45.002456">
        <ele>874.286</ele>
        <time>2019-10-17T13:54:14Z</time>
      </trkpt>
      <trkpt lat="-22.048354" lon="-45.002366">
        <ele>874.314</ele>
        <time>2019-10-17T13:54:17Z</time>
      </trkpt>
      <trkpt lat="-22.048331" lon="-45.002316">
        <ele>874.508</ele>
        <time>2019-10-17T13:54:18Z</time>
      </trkpt>
      <trkpt lat="-22.048297" lon="-45.002235">
        <ele>874.777</ele>
        <time>2019-10-17T13:54:21Z</time>
      </trkpt>
      <trkpt lat="-22.048275" lon="-45.002188">
        <ele>875.035</ele>
        <time>2019-10-17T13:54:23Z</time>
      </trkpt>
      <trkpt lat="-22.048249" lon="-45.002125">
        <ele>875.478</ele>
        <time>2019-10-17T13:54:25Z</time>
      </trkpt>
      <trkpt lat="-22.048228" lon="-45.002067">
        <ele>875.488</ele>
        <time>2019-10-17T13:54:27Z</time>
      </trkpt>
      <trkpt lat="-22.048214" lon="-45.002006">
        <ele>876.244</ele>
        <time>2019-10-17T13:54:29Z</time>
      </trkpt>
      <trkpt lat="-22.048190" lon="-45.001910">
        <ele>877.071</ele>
        <time>2019-10-17T13:54:33Z</time>
      </trkpt>
      <trkpt lat="-22.048168" lon="-45.001831">
        <ele>877.577</ele>
        <time>2019-10-17T13:54:36Z</time>
      </trkpt>
      <trkpt lat="-22.048132" lon="-45.001735">
        <ele>877.485</ele>
        <time>2019-10-17T13:54:40Z</time>
      </trkpt>
      <trkpt lat="-22.048111" lon="-45.001667">
        <ele>877.615</ele>
        <time>2019-10-17T13:54:43Z</time>
      </trkpt>
      <trkpt lat="-22.048092" lon="-45.001613">
        <ele>878.265</ele>
        <time>2019-10-17T13:54:45Z</time>
      </trkpt>
      <trkpt lat="-22.048069" lon="-45.001545">
        <ele>878.511</ele>
        <time>2019-10-17T13:54:48Z</time>
      </trkpt>
      <trkpt lat="-22.048034" lon="-45.001457">
        <ele>877.908</ele>
        <time>2019-10-17T13:54:52Z</time>
      </trkpt>
      <trkpt lat="-22.048008" lon="-45.001403">
        <ele>878.095</ele>
        <time>2019-10-17T13:54:54Z</time>
      </trkpt>
      <trkpt lat="-22.047986" lon="-45.001350">
        <ele>877.973</ele>
        <time>2019-10-17T13:54:56Z</time>
      </trkpt>
      <trkpt lat="-22.047969" lon="-45.001302">
        <ele>877.366</ele>
        <time>2019-10-17T13:54:58Z</time>
      </trkpt>
      <trkpt lat="-22.047945" lon="-45.001245">
        <ele>876.766</ele>
        <time>2019-10-17T13:55:00Z</time>
      </trkpt>
      <trkpt lat="-22.047916" lon="-45.001175">
        <ele>875.642</ele>
        <time>2019-10-17T13:55:02Z</time>
      </trkpt>
      <trkpt lat="-22.047888" lon="-45.001101">
        <ele>875.589</ele>
        <time>2019-10-17T13:55:04Z</time>
      </trkpt>
      <trkpt lat="-22.047874" lon="-45.000948">
        <ele>874.685</ele>
        <time>2019-10-17T13:55:07Z</time>
      </trkpt>
      <trkpt lat="-22.047861" lon="-45.000890">
        <ele>873.743</ele>
        <time>2019-10-17T13:55:09Z</time>
      </trkpt>
      <trkpt lat="-22.047922" lon="-44.999893">
        <ele>871.459</ele>
        <time>2019-10-17T13:55:30Z</time>
      </trkpt>
      <trkpt lat="-22.047872" lon="-44.999858">
        <ele>871.503</ele>
        <time>2019-10-17T13:55:32Z</time>
      </trkpt>
      <trkpt lat="-22.047810" lon="-44.999845">
        <ele>871.723</ele>
        <time>2019-10-17T13:55:34Z</time>
      </trkpt>
      <trkpt lat="-22.047735" lon="-44.999828">
        <ele>872.008</ele>
        <time>2019-10-17T13:55:36Z</time>
      </trkpt>
      <trkpt lat="-22.047683" lon="-44.999816">
        <ele>872.419</ele>
        <time>2019-10-17T13:55:38Z</time>
      </trkpt>
      <trkpt lat="-22.047632" lon="-44.999806">
        <ele>872.667</ele>
        <time>2019-10-17T13:55:39Z</time>
      </trkpt>
      <trkpt lat="-22.047585" lon="-44.999794">
        <ele>873.060</ele>
        <time>2019-10-17T13:55:41Z</time>
      </trkpt>
      <trkpt lat="-22.047534" lon="-44.999788">
        <ele>873.180</ele>
        <time>2019-10-17T13:55:43Z</time>
      </trkpt>
      <trkpt lat="-22.047472" lon="-44.999785">
        <ele>873.456</ele>
        <time>2019-10-17T13:55:45Z</time>
      </trkpt>
      <trkpt lat="-22.047408" lon="-44.999784">
        <ele>873.323</ele>
        <time>2019-10-17T13:55:47Z</time>
      </trkpt>
      <trkpt lat="-22.047352" lon="-44.999783">
        <ele>873.129</ele>
        <time>2019-10-17T13:55:49Z</time>
      </trkpt>
      <trkpt lat="-22.047290" lon="-44.999784">
        <ele>873.077</ele>
        <time>2019-10-17T13:55:51Z</time>
      </trkpt>
      <trkpt lat="-22.047226" lon="-44.999790">
        <ele>873.048</ele>
        <time>2019-10-17T13:55:53Z</time>
      </trkpt>
      <trkpt lat="-22.047180" lon="-44.999804">
        <ele>872.961</ele>
        <time>2019-10-17T13:55:55Z</time>
      </trkpt>
      <trkpt lat="-22.047121" lon="-44.999828">
        <ele>872.917</ele>
        <time>2019-10-17T13:55:57Z</time>
      </trkpt>
      <trkpt lat="-22.047059" lon="-44.999845">
        <ele>873.008</ele>
        <time>2019-10-17T13:55:59Z</time>
      </trkpt>
      <trkpt lat="-22.046996" lon="-44.999858">
        <ele>872.858</ele>
        <time>2019-10-17T13:56:01Z</time>
      </trkpt>
      <trkpt lat="-22.046942" lon="-44.999866">
        <ele>872.996</ele>
        <time>2019-10-17T13:56:02Z</time>
      </trkpt>
      <trkpt lat="-22.046884" lon="-44.999878">
        <ele>872.389</ele>
        <time>2019-10-17T13:56:04Z</time>
      </trkpt>
      <trkpt lat="-22.046830" lon="-44.999882">
        <ele>872.339</ele>
        <time>2019-10-17T13:56:05Z</time>
      </trkpt>
      <trkpt lat="-22.046775" lon="-44.999886">
        <ele>872.595</ele>
        <time>2019-10-17T13:56:07Z</time>
      </trkpt>
      <trkpt lat="-22.046729" lon="-44.999885">
        <ele>872.642</ele>
        <time>2019-10-17T13:56:09Z</time>
      </trkpt>
      <trkpt lat="-22.046677" lon="-44.999888">
        <ele>872.878</ele>
        <time>2019-10-17T13:56:11Z</time>
      </trkpt>
      <trkpt lat="-22.046626" lon="-44.999881">
        <ele>872.386</ele>
        <time>2019-10-17T13:56:13Z</time>
      </trkpt>
      <trkpt lat="-22.046574" lon="-44.999863">
        <ele>872.243</ele>
        <time>2019-10-17T13:56:14Z</time>
      </trkpt>
      <trkpt lat="-22.046521" lon="-44.999842">
        <ele>871.964</ele>
        <time>2019-10-17T13:56:16Z</time>
      </trkpt>
      <trkpt lat="-22.046465" lon="-44.999818">
        <ele>870.910</ele>
        <time>2019-10-17T13:56:18Z</time>
      </trkpt>
      <trkpt lat="-22.046351" lon="-44.999767">
        <ele>870.108</ele>
        <time>2019-10-17T13:56:20Z</time>
      </trkpt>
      <trkpt lat="-22.046305" lon="-44.999742">
        <ele>869.878</ele>
        <time>2019-10-17T13:56:21Z</time>
      </trkpt>
      <trkpt lat="-22.046243" lon="-44.999701">
        <ele>868.756</ele>
        <time>2019-10-17T13:56:23Z</time>
      </trkpt>
      <trkpt lat="-22.046192" lon="-44.999669">
        <ele>868.729</ele>
        <time>2019-10-17T13:56:24Z</time>
      </trkpt>
      <trkpt lat="-22.045064" lon="-44.999021">
        <ele>868.969</ele>
        <time>2019-10-17T13:56:47Z</time>
      </trkpt>
      <trkpt lat="-22.045046" lon="-44.998957">
        <ele>869.635</ele>
        <time>2019-10-17T13:56:49Z</time>
      </trkpt>
      <trkpt lat="-22.045026" lon="-44.998908">
        <ele>870.232</ele>
        <time>2019-10-17T13:56:51Z</time>
      </trkpt>
      <trkpt lat="-22.044996" lon="-44.998848">
        <ele>871.088</ele>
        <time>2019-10-17T13:56:53Z</time>
      </trkpt>
      <trkpt lat="-22.044980" lon="-44.998803">
        <ele>871.466</ele>
        <time>2019-10-17T13:56:55Z</time>
      </trkpt>
      <trkpt lat="-22.044951" lon="-44.998738">
        <ele>872.265</ele>
        <time>2019-10-17T13:56:57Z</time>
      </trkpt>
      <trkpt lat="-22.044916" lon="-44.998665">
        <ele>872.968</ele>
        <time>2019-10-17T13:57:00Z</time>
      </trkpt>
      <trkpt lat="-22.044897" lon="-44.998612">
        <ele>873.314</ele>
        <time>2019-10-17T13:57:03Z</time>
      </trkpt>
      <trkpt lat="-22.044873" lon="-44.998555">
        <ele>873.408</ele>
        <time>2019-10-17T13:57:04Z</time>
      </trkpt>
      <trkpt lat="-22.044859" lon="-44.998497">
        <ele>873.750</ele>
        <time>2019-10-17T13:57:07Z</time>
      </trkpt>
      <trkpt lat="-22.044850" lon="-44.998449">
        <ele>873.828</ele>
        <time>2019-10-17T13:57:08Z</time>
      </trkpt>
      <trkpt lat="-22.044834" lon="-44.998389">
        <ele>874.111</ele>
        <time>2019-10-17T13:57:11Z</time>
      </trkpt>
      <trkpt lat="-22.044811" lon="-44.998334">
        <ele>873.761</ele>
        <time>2019-10-17T13:57:13Z</time>
      </trkpt>
      <trkpt lat="-22.044785" lon="-44.998292">
        <ele>873.527</ele>
        <time>2019-10-17T13:57:15Z</time>
      </trkpt>
      <trkpt lat="-22.044755" lon="-44.998237">
        <ele>873.164</ele>
        <time>2019-10-17T13:57:17Z</time>
      </trkpt>
      <trkpt lat="-22.044703" lon="-44.998161">
        <ele>872.250</ele>
        <time>2019-10-17T13:57:20Z</time>
      </trkpt>
      <trkpt lat="-22.044663" lon="-44.998071">
        <ele>871.898</ele>
        <time>2019-10-17T13:57:23Z</time>
      </trkpt>
      <trkpt lat="-22.044626" lon="-44.998019">
        <ele>871.555</ele>
        <time>2019-10-17T13:57:25Z</time>
      </trkpt>
      <trkpt lat="-22.044599" lon="-44.997976">
        <ele>871.707</ele>
        <time>2019-10-17T13:57:26Z</time>
      </trkpt>
      <trkpt lat="-22.044566" lon="-44.997926">
        <ele>871.617</ele>
        <time>2019-10-17T13:57:28Z</time>
      </trkpt>
      <trkpt lat="-22.044527" lon="-44.997829">
        <ele>871.208</ele>
        <time>2019-10-17T13:57:30Z</time>
      </trkpt>
      <trkpt lat="-22.044505" lon="-44.997767">
        <ele>870.519</ele>
        <time>2019-10-17T13:57:32Z</time>
      </trkpt>
      <trkpt lat="-22.044485" lon="-44.997690">
        <ele>870.647</ele>
        <time>2019-10-17T13:57:34Z</time>
      </trkpt>
      <trkpt lat="-22.044479" lon="-44.997541">
        <ele>869.820</ele>
        <time>2019-10-17T13:57:37Z</time>
      </trkpt>
      <trkpt lat="-22.044454" lon="-44.997266">
        <ele>869.240</ele>
        <time>2019-10-17T13:57:43Z</time>
      </trkpt>
      <trkpt lat="-22.044444" lon="-44.997096">
        <ele>868.116</ele>
        <time>2019-10-17T13:57:47Z</time>
      </trkpt>
      <trkpt lat="-22.044166" lon="-44.996717">
        <ele>867.793</ele>
        <time>2019-10-17T13:57:57Z</time>
      </trkpt>
      <trkpt lat="-22.043865" lon="-44.996762">
        <ele>867.869</ele>
        <time>2019-10-17T13:58:04Z</time>
      </trkpt>
      <trkpt lat="-22.043825" lon="-44.996803">
        <ele>868.057</ele>
        <time>2019-10-17T13:58:06Z</time>
      </trkpt>
      <trkpt lat="-22.043743" lon="-44.996812">
        <ele>868.073</ele>
        <time>2019-10-17T13:58:08Z</time>
      </trkpt>
      <trkpt lat="-22.043675" lon="-44.996831">
        <ele>867.785</ele>
        <time>2019-10-17T13:58:10Z</time>
      </trkpt>
      <trkpt lat="-22.043564" lon="-44.996861">
        <ele>868.113</ele>
        <time>2019-10-17T13:58:13Z</time>
      </trkpt>
      <trkpt lat="-22.043496" lon="-44.996871">
        <ele>868.608</ele>
        <time>2019-10-17T13:58:15Z</time>
      </trkpt>
      <trkpt lat="-22.043447" lon="-44.996875">
        <ele>869.181</ele>
        <time>2019-10-17T13:58:17Z</time>
      </trkpt>
      <trkpt lat="-22.043392" lon="-44.996862">
        <ele>869.919</ele>
        <time>2019-10-17T13:58:19Z</time>
      </trkpt>
      <trkpt lat="-22.043349" lon="-44.996841">
        <ele>870.342</ele>
        <time>2019-10-17T13:58:21Z</time>
      </trkpt>
      <trkpt lat="-22.043302" lon="-44.996811">
        <ele>870.862</ele>
        <time>2019-10-17T13:58:24Z</time>
      </trkpt>
      <trkpt lat="-22.043249" lon="-44.996774">
        <ele>871.448</ele>
        <time>2019-10-17T13:58:27Z</time>
      </trkpt>
      <trkpt lat="-22.043198" lon="-44.996725">
        <ele>871.485</ele>
        <time>2019-10-17T13:58:30Z</time>
      </trkpt>
      <trkpt lat="-22.043153" lon="-44.996676">
        <ele>871.711</ele>
        <time>2019-10-17T13:58:33Z</time>
      </trkpt>
      <trkpt lat="-22.043115" lon="-44.996635">
        <ele>871.639</ele>
        <time>2019-10-17T13:58:35Z</time>
      </trkpt>
      <trkpt lat="-22.043083" lon="-44.996589">
        <ele>871.845</ele>
        <time>2019-10-17T13:58:37Z</time>
      </trkpt>
      <trkpt lat="-22.043046" lon="-44.996543">
        <ele>872.247</ele>
        <time>2019-10-17T13:58:39Z</time>
      </trkpt>
      <trkpt lat="-22.043016" lon="-44.996497">
        <ele>872.211</ele>
        <time>2019-10-17T13:58:41Z</time>
      </trkpt>
      <trkpt lat="-22.042950" lon="-44.996404">
        <ele>871.908</ele>
        <time>2019-10-17T13:58:45Z</time>
      </trkpt>
      <trkpt lat="-22.042925" lon="-44.996359">
        <ele>872.128</ele>
        <time>2019-10-17T13:58:47Z</time>
      </trkpt>
      <trkpt lat="-22.042889" lon="-44.996304">
        <ele>871.576</ele>
        <time>2019-10-17T13:58:49Z</time>
      </trkpt>
      <trkpt lat="-22.042855" lon="-44.996246">
        <ele>871.479</ele>
        <time>2019-10-17T13:58:51Z</time>
      </trkpt>
      <trkpt lat="-22.042825" lon="-44.996208">
        <ele>871.019</ele>
        <time>2019-10-17T13:58:53Z</time>
      </trkpt>
      <trkpt lat="-22.042790" lon="-44.996159">
        <ele>871.845</ele>
        <time>2019-10-17T13:58:55Z</time>
      </trkpt>
      <trkpt lat="-22.042757" lon="-44.996113">
        <ele>872.552</ele>
        <time>2019-10-17T13:58:57Z</time>
      </trkpt>
      <trkpt lat="-22.042726" lon="-44.996071">
        <ele>872.158</ele>
        <time>2019-10-17T13:58:59Z</time>
      </trkpt>
      <trkpt lat="-22.042682" lon="-44.996017">
        <ele>872.726</ele>
        <time>2019-10-17T13:59:01Z</time>
      </trkpt>
      <trkpt lat="-22.042643" lon="-44.995972">
        <ele>873.257</ele>
        <time>2019-10-17T13:59:03Z</time>
      </trkpt>
      <trkpt lat="-22.042600" lon="-44.995930">
        <ele>873.400</ele>
        <time>2019-10-17T13:59:06Z</time>
      </trkpt>
      <trkpt lat="-22.042547" lon="-44.995894">
        <ele>873.120</ele>
        <time>2019-10-17T13:59:08Z</time>
      </trkpt>
      <trkpt lat="-22.042474" lon="-44.995866">
        <ele>873.508</ele>
        <time>2019-10-17T13:59:10Z</time>
      </trkpt>
      <trkpt lat="-22.042427" lon="-44.995862">
        <ele>874.149</ele>
        <time>2019-10-17T13:59:13Z</time>
      </trkpt>
      <trkpt lat="-22.042380" lon="-44.995854">
        <ele>874.887</ele>
        <time>2019-10-17T13:59:15Z</time>
      </trkpt>
      <trkpt lat="-22.042334" lon="-44.995851">
        <ele>875.170</ele>
        <time>2019-10-17T13:59:17Z</time>
      </trkpt>
      <trkpt lat="-22.042272" lon="-44.995850">
        <ele>875.550</ele>
        <time>2019-10-17T13:59:20Z</time>
      </trkpt>
      <trkpt lat="-22.042194" lon="-44.995851">
        <ele>876.586</ele>
        <time>2019-10-17T13:59:23Z</time>
      </trkpt>
      <trkpt lat="-22.042123" lon="-44.995837">
        <ele>877.433</ele>
        <time>2019-10-17T13:59:26Z</time>
      </trkpt>
      <trkpt lat="-22.042040" lon="-44.995820">
        <ele>877.519</ele>
        <time>2019-10-17T13:59:31Z</time>
      </trkpt>
      <trkpt lat="-22.041985" lon="-44.995799">
        <ele>877.777</ele>
        <time>2019-10-17T13:59:34Z</time>
      </trkpt>
      <trkpt lat="-22.041932" lon="-44.995785">
        <ele>877.719</ele>
        <time>2019-10-17T13:59:36Z</time>
      </trkpt>
      <trkpt lat="-22.041881" lon="-44.995759">
        <ele>877.609</ele>
        <time>2019-10-17T13:59:38Z</time>
      </trkpt>
      <trkpt lat="-22.041840" lon="-44.995739">
        <ele>877.719</ele>
        <time>2019-10-17T13:59:40Z</time>
      </trkpt>
      <trkpt lat="-22.041794" lon="-44.995715">
        <ele>877.608</ele>
        <time>2019-10-17T13:59:42Z</time>
      </trkpt>
      <trkpt lat="-22.041741" lon="-44.995686">
        <ele>877.695</ele>
        <time>2019-10-17T13:59:44Z</time>
      </trkpt>
      <trkpt lat="-22.041701" lon="-44.995665">
        <ele>877.933</ele>
        <time>2019-10-17T13:59:46Z</time>
      </trkpt>
      <trkpt lat="-22.041648" lon="-44.995637">
        <ele>878.696</ele>
        <time>2019-10-17T13:59:48Z</time>
      </trkpt>
      <trkpt lat="-22.041600" lon="-44.995605">
        <ele>878.646</ele>
        <time>2019-10-17T13:59:50Z</time>
      </trkpt>
      <trkpt lat="-22.041554" lon="-44.995575">
        <ele>878.492</ele>
        <time>2019-10-17T13:59:52Z</time>
      </trkpt>
      <trkpt lat="-22.041502" lon="-44.995547">
        <ele>878.719</ele>
        <time>2019-10-17T13:59:54Z</time>
      </trkpt>
      <trkpt lat="-22.041440" lon="-44.995504">
        <ele>878.955</ele>
        <time>2019-10-17T13:59:56Z</time>
      </trkpt>
      <trkpt lat="-22.041389" lon="-44.995468">
        <ele>878.793</ele>
        <time>2019-10-17T13:59:59Z</time>
      </trkpt>
      <trkpt lat="-22.041328" lon="-44.995439">
        <ele>878.674</ele>
        <time>2019-10-17T14:00:01Z</time>
      </trkpt>
      <trkpt lat="-22.041260" lon="-44.995414">
        <ele>878.556</ele>
        <time>2019-10-17T14:00:03Z</time>
      </trkpt>
      <trkpt lat="-22.041211" lon="-44.995398">
        <ele>878.521</ele>
        <time>2019-10-17T14:00:05Z</time>
      </trkpt>
      <trkpt lat="-22.041151" lon="-44.995381">
        <ele>878.808</ele>
        <time>2019-10-17T14:00:07Z</time>
      </trkpt>
      <trkpt lat="-22.041100" lon="-44.995366">
        <ele>879.111</ele>
        <time>2019-10-17T14:00:09Z</time>
      </trkpt>
      <trkpt lat="-22.041035" lon="-44.995349">
        <ele>879.519</ele>
        <time>2019-10-17T14:00:11Z</time>
      </trkpt>
      <trkpt lat="-22.040950" lon="-44.995316">
        <ele>879.722</ele>
        <time>2019-10-17T14:00:14Z</time>
      </trkpt>
      <trkpt lat="-22.040904" lon="-44.995301">
        <ele>879.772</ele>
        <time>2019-10-17T14:00:16Z</time>
      </trkpt>
      <trkpt lat="-22.040853" lon="-44.995289">
        <ele>879.888</ele>
        <time>2019-10-17T14:00:18Z</time>
      </trkpt>
      <trkpt lat="-22.040783" lon="-44.995268">
        <ele>879.925</ele>
        <time>2019-10-17T14:00:20Z</time>
      </trkpt>
      <trkpt lat="-22.040728" lon="-44.995248">
        <ele>879.971</ele>
        <time>2019-10-17T14:00:23Z</time>
      </trkpt>
      <trkpt lat="-22.040679" lon="-44.995231">
        <ele>879.929</ele>
        <time>2019-10-17T14:00:25Z</time>
      </trkpt>
      <trkpt lat="-22.040632" lon="-44.995216">
        <ele>879.667</ele>
        <time>2019-10-17T14:00:27Z</time>
      </trkpt>
      <trkpt lat="-22.040570" lon="-44.995187">
        <ele>878.781</ele>
        <time>2019-10-17T14:00:30Z</time>
      </trkpt>
      <trkpt lat="-22.040514" lon="-44.995157">
        <ele>877.619</ele>
        <time>2019-10-17T14:00:32Z</time>
      </trkpt>
      <trkpt lat="-22.040454" lon="-44.995126">
        <ele>877.008</ele>
        <time>2019-10-17T14:00:34Z</time>
      </trkpt>
      <trkpt lat="-22.040385" lon="-44.995075">
        <ele>875.430</ele>
        <time>2019-10-17T14:00:36Z</time>
      </trkpt>
      <trkpt lat="-22.040340" lon="-44.995027">
        <ele>874.928</ele>
        <time>2019-10-17T14:00:38Z</time>
      </trkpt>
      <trkpt lat="-22.040307" lon="-44.994981">
        <ele>874.521</ele>
        <time>2019-10-17T14:00:39Z</time>
      </trkpt>
      <trkpt lat="-22.040276" lon="-44.994926">
        <ele>872.881</ele>
        <time>2019-10-17T14:00:41Z</time>
      </trkpt>
      <trkpt lat="-22.040247" lon="-44.994854">
        <ele>872.757</ele>
        <time>2019-10-17T14:00:43Z</time>
      </trkpt>
      <trkpt lat="-22.040223" lon="-44.994789">
        <ele>872.524</ele>
        <time>2019-10-17T14:00:45Z</time>
      </trkpt>
      <trkpt lat="-22.040186" lon="-44.994706">
        <ele>871.160</ele>
        <time>2019-10-17T14:00:47Z</time>
      </trkpt>
      <trkpt lat="-22.040153" lon="-44.994647">
        <ele>869.798</ele>
        <time>2019-10-17T14:00:48Z</time>
      </trkpt>
      <trkpt lat="-22.040121" lon="-44.994573">
        <ele>867.416</ele>
        <time>2019-10-17T14:00:50Z</time>
      </trkpt>
      <trkpt lat="-22.038367" lon="-44.992441">
        <ele>863.976</ele>
        <time>2019-10-17T14:01:40Z</time>
      </trkpt>
      <trkpt lat="-22.038321" lon="-44.992403">
        <ele>865.113</ele>
        <time>2019-10-17T14:01:42Z</time>
      </trkpt>
      <trkpt lat="-22.038256" lon="-44.992387">
        <ele>865.908</ele>
        <time>2019-10-17T14:01:44Z</time>
      </trkpt>
      <trkpt lat="-22.038213" lon="-44.992363">
        <ele>866.185</ele>
        <time>2019-10-17T14:01:45Z</time>
      </trkpt>
      <trkpt lat="-22.038151" lon="-44.992307">
        <ele>866.663</ele>
        <time>2019-10-17T14:01:49Z</time>
      </trkpt>
      <trkpt lat="-22.038095" lon="-44.992231">
        <ele>866.546</ele>
        <time>2019-10-17T14:01:52Z</time>
      </trkpt>
      <trkpt lat="-22.038053" lon="-44.992184">
        <ele>866.476</ele>
        <time>2019-10-17T14:01:54Z</time>
      </trkpt>
      <trkpt lat="-22.037989" lon="-44.992125">
        <ele>866.742</ele>
        <time>2019-10-17T14:01:56Z</time>
      </trkpt>
      <trkpt lat="-22.037952" lon="-44.992082">
        <ele>866.659</ele>
        <time>2019-10-17T14:01:58Z</time>
      </trkpt>
      <trkpt lat="-22.037909" lon="-44.992028">
        <ele>866.265</ele>
        <time>2019-10-17T14:02:00Z</time>
      </trkpt>
      <trkpt lat="-22.037867" lon="-44.991982">
        <ele>865.983</ele>
        <time>2019-10-17T14:02:02Z</time>
      </trkpt>
      <trkpt lat="-22.037833" lon="-44.991944">
        <ele>866.195</ele>
        <time>2019-10-17T14:02:04Z</time>
      </trkpt>
      <trkpt lat="-22.037798" lon="-44.991906">
        <ele>866.449</ele>
        <time>2019-10-17T14:02:06Z</time>
      </trkpt>
      <trkpt lat="-22.037765" lon="-44.991863">
        <ele>866.423</ele>
        <time>2019-10-17T14:02:08Z</time>
      </trkpt>
      <trkpt lat="-22.037727" lon="-44.991823">
        <ele>866.208</ele>
        <time>2019-10-17T14:02:10Z</time>
      </trkpt>
      <trkpt lat="-22.037695" lon="-44.991785">
        <ele>865.863</ele>
        <time>2019-10-17T14:02:12Z</time>
      </trkpt>
      <trkpt lat="-22.037623" lon="-44.991707">
        <ele>864.341</ele>
        <time>2019-10-17T14:02:15Z</time>
      </trkpt>
      <trkpt lat="-22.034236" lon="-44.989873">
        <ele>857.134</ele>
        <time>2019-10-17T14:03:41Z</time>
      </trkpt>
      <trkpt lat="-22.034197" lon="-44.989825">
        <ele>857.564</ele>
        <time>2019-10-17T14:03:44Z</time>
      </trkpt>
      <trkpt lat="-22.034163" lon="-44.989749">
        <ele>857.710</ele>
        <time>2019-10-17T14:03:45Z</time>
      </trkpt>
      <trkpt lat="-22.034127" lon="-44.989700">
        <ele>858.417</ele>
        <time>2019-10-17T14:03:47Z</time>
      </trkpt>
      <trkpt lat="-22.034085" lon="-44.989662">
        <ele>858.783</ele>
        <time>2019-10-17T14:03:49Z</time>
      </trkpt>
      <trkpt lat="-22.034041" lon="-44.989634">
        <ele>859.171</ele>
        <time>2019-10-17T14:03:51Z</time>
      </trkpt>
      <trkpt lat="-22.033983" lon="-44.989610">
        <ele>859.896</ele>
        <time>2019-10-17T14:03:54Z</time>
      </trkpt>
      <trkpt lat="-22.033934" lon="-44.989581">
        <ele>860.631</ele>
        <time>2019-10-17T14:03:57Z</time>
      </trkpt>
      <trkpt lat="-22.033893" lon="-44.989559">
        <ele>861.324</ele>
        <time>2019-10-17T14:03:59Z</time>
      </trkpt>
      <trkpt lat="-22.033846" lon="-44.989542">
        <ele>862.108</ele>
        <time>2019-10-17T14:04:02Z</time>
      </trkpt>
      <trkpt lat="-22.033797" lon="-44.989519">
        <ele>862.823</ele>
        <time>2019-10-17T14:04:05Z</time>
      </trkpt>
      <trkpt lat="-22.033748" lon="-44.989500">
        <ele>863.761</ele>
        <time>2019-10-17T14:04:08Z</time>
      </trkpt>
      <trkpt lat="-22.033695" lon="-44.989472">
        <ele>864.284</ele>
        <time>2019-10-17T14:04:12Z</time>
      </trkpt>
      <trkpt lat="-22.033632" lon="-44.989456">
        <ele>864.184</ele>
        <time>2019-10-17T14:04:15Z</time>
      </trkpt>
      <trkpt lat="-22.033564" lon="-44.989436">
        <ele>864.060</ele>
        <time>2019-10-17T14:04:17Z</time>
      </trkpt>
      <trkpt lat="-22.033509" lon="-44.989426">
        <ele>863.717</ele>
        <time>2019-10-17T14:04:19Z</time>
      </trkpt>
      <trkpt lat="-22.033438" lon="-44.989434">
        <ele>863.543</ele>
        <time>2019-10-17T14:04:21Z</time>
      </trkpt>
      <trkpt lat="-22.033366" lon="-44.989446">
        <ele>863.691</ele>
        <time>2019-10-17T14:04:23Z</time>
      </trkpt>
      <trkpt lat="-22.033304" lon="-44.989464">
        <ele>863.588</ele>
        <time>2019-10-17T14:04:25Z</time>
      </trkpt>
      <trkpt lat="-22.033229" lon="-44.989495">
        <ele>863.724</ele>
        <time>2019-10-17T14:04:27Z</time>
      </trkpt>
      <trkpt lat="-22.033160" lon="-44.989521">
        <ele>863.526</ele>
        <time>2019-10-17T14:04:29Z</time>
      </trkpt>
      <trkpt lat="-22.033109" lon="-44.989545">
        <ele>863.408</ele>
        <time>2019-10-17T14:04:31Z</time>
      </trkpt>
      <trkpt lat="-22.033048" lon="-44.989579">
        <ele>863.722</ele>
        <time>2019-10-17T14:04:33Z</time>
      </trkpt>
      <trkpt lat="-22.033000" lon="-44.989610">
        <ele>863.940</ele>
        <time>2019-10-17T14:04:35Z</time>
      </trkpt>
      <trkpt lat="-22.032947" lon="-44.989641">
        <ele>864.063</ele>
        <time>2019-10-17T14:04:37Z</time>
      </trkpt>
      <trkpt lat="-22.032895" lon="-44.989670">
        <ele>863.783</ele>
        <time>2019-10-17T14:04:39Z</time>
      </trkpt>
      <trkpt lat="-22.032853" lon="-44.989700">
        <ele>863.459</ele>
        <time>2019-10-17T14:04:41Z</time>
      </trkpt>
      <trkpt lat="-22.032813" lon="-44.989732">
        <ele>863.826</ele>
        <time>2019-10-17T14:04:42Z</time>
      </trkpt>
      <trkpt lat="-22.032768" lon="-44.989768">
        <ele>863.442</ele>
        <time>2019-10-17T14:04:44Z</time>
      </trkpt>
      <trkpt lat="-22.032718" lon="-44.989805">
        <ele>863.420</ele>
        <time>2019-10-17T14:04:46Z</time>
      </trkpt>
      <trkpt lat="-22.032636" lon="-44.989855">
        <ele>863.156</ele>
        <time>2019-10-17T14:04:48Z</time>
      </trkpt>
      <trkpt lat="-22.032542" lon="-44.989897">
        <ele>863.059</ele>
        <time>2019-10-17T14:04:51Z</time>
      </trkpt>
      <trkpt lat="-22.032440" lon="-44.989925">
        <ele>862.814</ele>
        <time>2019-10-17T14:04:53Z</time>
      </trkpt>
      <trkpt lat="-22.032199" lon="-44.989941">
        <ele>862.608</ele>
        <time>2019-10-17T14:04:59Z</time>
      </trkpt>
      <trkpt lat="-22.032146" lon="-44.989930">
        <ele>862.759</ele>
        <time>2019-10-17T14:05:01Z</time>
      </trkpt>
      <trkpt lat="-22.032061" lon="-44.989950">
        <ele>862.917</ele>
        <time>2019-10-17T14:05:03Z</time>
      </trkpt>
      <trkpt lat="-22.031984" lon="-44.989968">
        <ele>862.690</ele>
        <time>2019-10-17T14:05:05Z</time>
      </trkpt>
      <trkpt lat="-22.031917" lon="-44.989983">
        <ele>862.830</ele>
        <time>2019-10-17T14:05:07Z</time>
      </trkpt>
      <trkpt lat="-22.031842" lon="-44.989994">
        <ele>862.896</ele>
        <time>2019-10-17T14:05:09Z</time>
      </trkpt>
      <trkpt lat="-22.031796" lon="-44.989993">
        <ele>862.823</ele>
        <time>2019-10-17T14:05:11Z</time>
      </trkpt>
      <trkpt lat="-22.031750" lon="-44.989990">
        <ele>862.989</ele>
        <time>2019-10-17T14:05:13Z</time>
      </trkpt>
      <trkpt lat="-22.031692" lon="-44.989987">
        <ele>863.467</ele>
        <time>2019-10-17T14:05:15Z</time>
      </trkpt>
      <trkpt lat="-22.031641" lon="-44.989974">
        <ele>863.377</ele>
        <time>2019-10-17T14:05:16Z</time>
      </trkpt>
      <trkpt lat="-22.031593" lon="-44.989959">
        <ele>863.561</ele>
        <time>2019-10-17T14:05:18Z</time>
      </trkpt>
      <trkpt lat="-22.031522" lon="-44.989929">
        <ele>863.627</ele>
        <time>2019-10-17T14:05:21Z</time>
      </trkpt>
      <trkpt lat="-22.031449" lon="-44.989895">
        <ele>864.208</ele>
        <time>2019-10-17T14:05:25Z</time>
      </trkpt>
      <trkpt lat="-22.031395" lon="-44.989872">
        <ele>865.411</ele>
        <time>2019-10-17T14:05:33Z</time>
      </trkpt>
      <trkpt lat="-22.031356" lon="-44.989844">
        <ele>869.129</ele>
        <time>2019-10-17T14:05:53Z</time>
      </trkpt>
      <trkpt lat="-22.031317" lon="-44.989819">
        <ele>869.912</ele>
        <time>2019-10-17T14:06:00Z</time>
      </trkpt>
      <trkpt lat="-22.031267" lon="-44.989784">
        <ele>871.682</ele>
        <time>2019-10-17T14:06:10Z</time>
      </trkpt>
      <trkpt lat="-22.031177" lon="-44.989731">
        <ele>872.568</ele>
        <time>2019-10-17T14:06:18Z</time>
      </trkpt>
      <trkpt lat="-22.031126" lon="-44.989704">
        <ele>873.025</ele>
        <time>2019-10-17T14:06:21Z</time>
      </trkpt>
      <trkpt lat="-22.031084" lon="-44.989683">
        <ele>873.561</ele>
        <time>2019-10-17T14:06:24Z</time>
      </trkpt>
      <trkpt lat="-22.031016" lon="-44.989666">
        <ele>874.129</ele>
        <time>2019-10-17T14:06:29Z</time>
      </trkpt>
      <trkpt lat="-22.030966" lon="-44.989658">
        <ele>874.912</ele>
        <time>2019-10-17T14:06:33Z</time>
      </trkpt>
      <trkpt lat="-22.030886" lon="-44.989607">
        <ele>875.032</ele>
        <time>2019-10-17T14:06:35Z</time>
      </trkpt>
      <trkpt lat="-22.030814" lon="-44.989550">
        <ele>875.305</ele>
        <time>2019-10-17T14:06:36Z</time>
      </trkpt>
      <trkpt lat="-22.030768" lon="-44.989534">
        <ele>875.708</ele>
        <time>2019-10-17T14:06:39Z</time>
      </trkpt>
      <trkpt lat="-22.030719" lon="-44.989512">
        <ele>876.655</ele>
        <time>2019-10-17T14:06:45Z</time>
      </trkpt>
      <trkpt lat="-22.030670" lon="-44.989499">
        <ele>877.633</ele>
        <time>2019-10-17T14:06:50Z</time>
      </trkpt>
      <trkpt lat="-22.030594" lon="-44.989489">
        <ele>878.616</ele>
        <time>2019-10-17T14:06:55Z</time>
      </trkpt>
      <trkpt lat="-22.030539" lon="-44.989482">
        <ele>879.426</ele>
        <time>2019-10-17T14:06:59Z</time>
      </trkpt>
      <trkpt lat="-22.030471" lon="-44.989480">
        <ele>880.142</ele>
        <time>2019-10-17T14:07:07Z</time>
      </trkpt>
      <trkpt lat="-22.030386" lon="-44.989487">
        <ele>881.679</ele>
        <time>2019-10-17T14:07:16Z</time>
      </trkpt>
      <trkpt lat="-22.030334" lon="-44.989493">
        <ele>882.495</ele>
        <time>2019-10-17T14:07:20Z</time>
      </trkpt>
      <trkpt lat="-22.030254" lon="-44.989498">
        <ele>882.853</ele>
        <time>2019-10-17T14:07:22Z</time>
      </trkpt>
      <trkpt lat="-22.030192" lon="-44.989503">
        <ele>883.245</ele>
        <time>2019-10-17T14:07:25Z</time>
      </trkpt>
      <trkpt lat="-22.030113" lon="-44.989512">
        <ele>884.747</ele>
        <time>2019-10-17T14:07:35Z</time>
      </trkpt>
      <trkpt lat="-22.030031" lon="-44.989513">
        <ele>885.611</ele>
        <time>2019-10-17T14:07:41Z</time>
      </trkpt>
      <trkpt lat="-22.029978" lon="-44.989512">
        <ele>886.208</ele>
        <time>2019-10-17T14:07:44Z</time>
      </trkpt>
      <trkpt lat="-22.029921" lon="-44.989502">
        <ele>887.478</ele>
        <time>2019-10-17T14:07:51Z</time>
      </trkpt>
      <trkpt lat="-22.029868" lon="-44.989497">
        <ele>887.596</ele>
        <time>2019-10-17T14:07:53Z</time>
      </trkpt>
      <trkpt lat="-22.029812" lon="-44.989492">
        <ele>888.469</ele>
        <time>2019-10-17T14:07:58Z</time>
      </trkpt>
      <trkpt lat="-22.029738" lon="-44.989488">
        <ele>889.089</ele>
        <time>2019-10-17T14:08:02Z</time>
      </trkpt>
      <trkpt lat="-22.029678" lon="-44.989496">
        <ele>889.255</ele>
        <time>2019-10-17T14:08:04Z</time>
      </trkpt>
      <trkpt lat="-22.029600" lon="-44.989495">
        <ele>887.712</ele>
        <time>2019-10-17T14:08:08Z</time>
      </trkpt>
      <trkpt lat="-22.029538" lon="-44.989481">
        <ele>887.668</ele>
        <time>2019-10-17T14:08:10Z</time>
      </trkpt>
      <trkpt lat="-22.029490" lon="-44.989475">
        <ele>887.366</ele>
        <time>2019-10-17T14:08:11Z</time>
      </trkpt>
      <trkpt lat="-22.029446" lon="-44.989462">
        <ele>887.094</ele>
        <time>2019-10-17T14:08:12Z</time>
      </trkpt>
      <trkpt lat="-22.029364" lon="-44.989422">
        <ele>885.757</ele>
        <time>2019-10-17T14:08:16Z</time>
      </trkpt>
      <trkpt lat="-22.029300" lon="-44.989390">
        <ele>885.222</ele>
        <time>2019-10-17T14:08:18Z</time>
      </trkpt>
      <trkpt lat="-22.029247" lon="-44.989366">
        <ele>885.008</ele>
        <time>2019-10-17T14:08:20Z</time>
      </trkpt>
      <trkpt lat="-22.029200" lon="-44.989339">
        <ele>884.083</ele>
        <time>2019-10-17T14:08:21Z</time>
      </trkpt>
      <trkpt lat="-22.029135" lon="-44.989304">
        <ele>883.291</ele>
        <time>2019-10-17T14:08:23Z</time>
      </trkpt>
      <trkpt lat="-22.028374" lon="-44.989146">
        <ele>878.494</ele>
        <time>2019-10-17T14:08:43Z</time>
      </trkpt>
      <trkpt lat="-22.028317" lon="-44.989147">
        <ele>877.894</ele>
        <time>2019-10-17T14:08:45Z</time>
      </trkpt>
      <trkpt lat="-22.028265" lon="-44.989150">
        <ele>876.770</ele>
        <time>2019-10-17T14:08:46Z</time>
      </trkpt>
      <trkpt lat="-22.028214" lon="-44.989150">
        <ele>875.727</ele>
        <time>2019-10-17T14:08:47Z</time>
      </trkpt>
      <trkpt lat="-22.028101" lon="-44.989164">
        <ele>874.613</ele>
        <time>2019-10-17T14:08:49Z</time>
      </trkpt>
      <trkpt lat="-22.028045" lon="-44.989161">
        <ele>873.761</ele>
        <time>2019-10-17T14:08:51Z</time>
      </trkpt>
      <trkpt lat="-22.027967" lon="-44.989205">
        <ele>872.965</ele>
        <time>2019-10-17T14:08:55Z</time>
      </trkpt>
      <trkpt lat="-22.027930" lon="-44.989241">
        <ele>872.168</ele>
        <time>2019-10-17T14:08:58Z</time>
      </trkpt>
      <trkpt lat="-22.027857" lon="-44.989239">
        <ele>871.214</ele>
        <time>2019-10-17T14:09:01Z</time>
      </trkpt>
      <trkpt lat="-22.027799" lon="-44.989222">
        <ele>870.208</ele>
        <time>2019-10-17T14:09:03Z</time>
      </trkpt>
      <trkpt lat="-22.027753" lon="-44.989193">
        <ele>869.190</ele>
        <time>2019-10-17T14:09:04Z</time>
      </trkpt>
      <trkpt lat="-22.027683" lon="-44.989150">
        <ele>867.968</ele>
        <time>2019-10-17T14:09:06Z</time>
      </trkpt>
      <trkpt lat="-22.025098" lon="-44.987173">
        <ele>857.921</ele>
        <time>2019-10-17T14:09:58Z</time>
      </trkpt>
      <trkpt lat="-22.025052" lon="-44.987118">
        <ele>858.721</ele>
        <time>2019-10-17T14:10:01Z</time>
      </trkpt>
      <trkpt lat="-22.025013" lon="-44.987065">
        <ele>857.677</ele>
        <time>2019-10-17T14:10:03Z</time>
      </trkpt>
      <trkpt lat="-22.024972" lon="-44.987012">
        <ele>857.264</ele>
        <time>2019-10-17T14:10:05Z</time>
      </trkpt>
      <trkpt lat="-22.024941" lon="-44.986970">
        <ele>856.910</ele>
        <time>2019-10-17T14:10:06Z</time>
      </trkpt>
      <trkpt lat="-22.024878" lon="-44.986855">
        <ele>856.738</ele>
        <time>2019-10-17T14:10:08Z</time>
      </trkpt>
      <trkpt lat="-22.024824" lon="-44.986745">
        <ele>856.919</ele>
        <time>2019-10-17T14:10:11Z</time>
      </trkpt>
      <trkpt lat="-22.024797" lon="-44.986685">
        <ele>857.209</ele>
        <time>2019-10-17T14:10:12Z</time>
      </trkpt>
      <trkpt lat="-22.024767" lon="-44.986633">
        <ele>856.919</ele>
        <time>2019-10-17T14:10:14Z</time>
      </trkpt>
      <trkpt lat="-22.024737" lon="-44.986594">
        <ele>857.708</ele>
        <time>2019-10-17T14:10:16Z</time>
      </trkpt>
      <trkpt lat="-22.024708" lon="-44.986526">
        <ele>858.225</ele>
        <time>2019-10-17T14:10:19Z</time>
      </trkpt>
      <trkpt lat="-22.024685" lon="-44.986460">
        <ele>858.363</ele>
        <time>2019-10-17T14:10:22Z</time>
      </trkpt>
      <trkpt lat="-22.024663" lon="-44.986406">
        <ele>858.386</ele>
        <time>2019-10-17T14:10:24Z</time>
      </trkpt>
      <trkpt lat="-22.024634" lon="-44.986357">
        <ele>858.616</ele>
        <time>2019-10-17T14:10:26Z</time>
      </trkpt>
      <trkpt lat="-22.024615" lon="-44.986278">
        <ele>858.482</ele>
        <time>2019-10-17T14:10:29Z</time>
      </trkpt>
      <trkpt lat="-22.024624" lon="-44.986222">
        <ele>858.549</ele>
        <time>2019-10-17T14:10:32Z</time>
      </trkpt>
      <trkpt lat="-22.024629" lon="-44.986087">
        <ele>858.815</ele>
        <time>2019-10-17T14:10:35Z</time>
      </trkpt>
      <trkpt lat="-22.024638" lon="-44.986018">
        <ele>858.723</ele>
        <time>2019-10-17T14:10:37Z</time>
      </trkpt>
      <trkpt lat="-22.024659" lon="-44.985934">
        <ele>858.399</ele>
        <time>2019-10-17T14:10:39Z</time>
      </trkpt>
      <trkpt lat="-22.024671" lon="-44.985873">
        <ele>858.607</ele>
        <time>2019-10-17T14:10:41Z</time>
      </trkpt>
      <trkpt lat="-22.024683" lon="-44.985801">
        <ele>858.927</ele>
        <time>2019-10-17T14:10:43Z</time>
      </trkpt>
      <trkpt lat="-22.024701" lon="-44.985735">
        <ele>858.908</ele>
        <time>2019-10-17T14:10:45Z</time>
      </trkpt>
      <trkpt lat="-22.024714" lon="-44.985676">
        <ele>858.583</ele>
        <time>2019-10-17T14:10:47Z</time>
      </trkpt>
      <trkpt lat="-22.024725" lon="-44.985623">
        <ele>858.431</ele>
        <time>2019-10-17T14:10:48Z</time>
      </trkpt>
      <trkpt lat="-22.024738" lon="-44.985571">
        <ele>858.384</ele>
        <time>2019-10-17T14:10:50Z</time>
      </trkpt>
      <trkpt lat="-22.024753" lon="-44.985502">
        <ele>858.654</ele>
        <time>2019-10-17T14:10:52Z</time>
      </trkpt>
      <trkpt lat="-22.024768" lon="-44.985451">
        <ele>858.850</ele>
        <time>2019-10-17T14:10:54Z</time>
      </trkpt>
      <trkpt lat="-22.024790" lon="-44.985386">
        <ele>858.767</ele>
        <time>2019-10-17T14:10:56Z</time>
      </trkpt>
      <trkpt lat="-22.024818" lon="-44.985329">
        <ele>858.623</ele>
        <time>2019-10-17T14:10:58Z</time>
      </trkpt>
      <trkpt lat="-22.024842" lon="-44.985279">
        <ele>858.821</ele>
        <time>2019-10-17T14:10:59Z</time>
      </trkpt>
      <trkpt lat="-22.024859" lon="-44.985229">
        <ele>858.967</ele>
        <time>2019-10-17T14:11:01Z</time>
      </trkpt>
      <trkpt lat="-22.024873" lon="-44.985159">
        <ele>859.381</ele>
        <time>2019-10-17T14:11:03Z</time>
      </trkpt>
      <trkpt lat="-22.024891" lon="-44.985106">
        <ele>859.319</ele>
        <time>2019-10-17T14:11:05Z</time>
      </trkpt>
      <trkpt lat="-22.024907" lon="-44.985036">
        <ele>859.608</ele>
        <time>2019-10-17T14:11:07Z</time>
      </trkpt>
      <trkpt lat="-22.024918" lon="-44.984971">
        <ele>859.720</ele>
        <time>2019-10-17T14:11:09Z</time>
      </trkpt>
      <trkpt lat="-22.024919" lon="-44.984902">
        <ele>859.628</ele>
        <time>2019-10-17T14:11:11Z</time>
      </trkpt>
      <trkpt lat="-22.024913" lon="-44.984852">
        <ele>859.361</ele>
        <time>2019-10-17T14:11:13Z</time>
      </trkpt>
      <trkpt lat="-22.024902" lon="-44.984793">
        <ele>859.461</ele>
        <time>2019-10-17T14:11:15Z</time>
      </trkpt>
      <trkpt lat="-22.024894" lon="-44.984744">
        <ele>859.417</ele>
        <time>2019-10-17T14:11:16Z</time>
      </trkpt>
      <trkpt lat="-22.024888" lon="-44.984692">
        <ele>859.774</ele>
        <time>2019-10-17T14:11:18Z</time>
      </trkpt>
      <trkpt lat="-22.024873" lon="-44.984616">
        <ele>859.770</ele>
        <time>2019-10-17T14:11:20Z</time>
      </trkpt>
      <trkpt lat="-22.024864" lon="-44.984560">
        <ele>859.738</ele>
        <time>2019-10-17T14:11:22Z</time>
      </trkpt>
      <trkpt lat="-22.024854" lon="-44.984496">
        <ele>860.036</ele>
        <time>2019-10-17T14:11:24Z</time>
      </trkpt>
      <trkpt lat="-22.024839" lon="-44.984425">
        <ele>860.217</ele>
        <time>2019-10-17T14:11:26Z</time>
      </trkpt>
      <trkpt lat="-22.024831" lon="-44.984372">
        <ele>860.218</ele>
        <time>2019-10-17T14:11:28Z</time>
      </trkpt>
      <trkpt lat="-22.024822" lon="-44.984293">
        <ele>860.508</ele>
        <time>2019-10-17T14:11:30Z</time>
      </trkpt>
      <trkpt lat="-22.024820" lon="-44.984237">
        <ele>860.647</ele>
        <time>2019-10-17T14:11:32Z</time>
      </trkpt>
      <trkpt lat="-22.024823" lon="-44.984163">
        <ele>860.565</ele>
        <time>2019-10-17T14:11:34Z</time>
      </trkpt>
      <trkpt lat="-22.024824" lon="-44.984073">
        <ele>860.838</ele>
        <time>2019-10-17T14:11:36Z</time>
      </trkpt>
      <trkpt lat="-22.024823" lon="-44.983993">
        <ele>860.698</ele>
        <time>2019-10-17T14:11:39Z</time>
      </trkpt>
      <trkpt lat="-22.024821" lon="-44.983926">
        <ele>860.524</ele>
        <time>2019-10-17T14:11:41Z</time>
      </trkpt>
      <trkpt lat="-22.024819" lon="-44.983855">
        <ele>860.471</ele>
        <time>2019-10-17T14:11:43Z</time>
      </trkpt>
      <trkpt lat="-22.024814" lon="-44.983805">
        <ele>860.027</ele>
        <time>2019-10-17T14:11:45Z</time>
      </trkpt>
      <trkpt lat="-22.024799" lon="-44.983743">
        <ele>860.195</ele>
        <time>2019-10-17T14:11:47Z</time>
      </trkpt>
      <trkpt lat="-22.024772" lon="-44.983677">
        <ele>860.349</ele>
        <time>2019-10-17T14:11:49Z</time>
      </trkpt>
      <trkpt lat="-22.024746" lon="-44.983635">
        <ele>860.202</ele>
        <time>2019-10-17T14:11:51Z</time>
      </trkpt>
      <trkpt lat="-22.024717" lon="-44.983581">
        <ele>861.222</ele>
        <time>2019-10-17T14:11:53Z</time>
      </trkpt>
      <trkpt lat="-22.024687" lon="-44.983527">
        <ele>861.308</ele>
        <time>2019-10-17T14:11:55Z</time>
      </trkpt>
      <trkpt lat="-22.024665" lon="-44.983484">
        <ele>861.028</ele>
        <time>2019-10-17T14:11:57Z</time>
      </trkpt>
      <trkpt lat="-22.024608" lon="-44.983318">
        <ele>861.026</ele>
        <time>2019-10-17T14:12:02Z</time>
      </trkpt>
      <trkpt lat="-22.024580" lon="-44.983271">
        <ele>860.919</ele>
        <time>2019-10-17T14:12:04Z</time>
      </trkpt>
      <trkpt lat="-22.024535" lon="-44.983216">
        <ele>860.819</ele>
        <time>2019-10-17T14:12:06Z</time>
      </trkpt>
      <trkpt lat="-22.024503" lon="-44.983149">
        <ele>861.685</ele>
        <time>2019-10-17T14:12:09Z</time>
      </trkpt>
      <trkpt lat="-22.024489" lon="-44.983089">
        <ele>861.822</ele>
        <time>2019-10-17T14:12:11Z</time>
      </trkpt>
      <trkpt lat="-22.024468" lon="-44.983032">
        <ele>861.768</ele>
        <time>2019-10-17T14:12:13Z</time>
      </trkpt>
      <trkpt lat="-22.024448" lon="-44.982984">
        <ele>861.816</ele>
        <time>2019-10-17T14:12:15Z</time>
      </trkpt>
      <trkpt lat="-22.024442" lon="-44.982933">
        <ele>861.614</ele>
        <time>2019-10-17T14:12:17Z</time>
      </trkpt>
      <trkpt lat="-22.024431" lon="-44.982871">
        <ele>862.054</ele>
        <time>2019-10-17T14:12:19Z</time>
      </trkpt>
      <trkpt lat="-22.024426" lon="-44.982807">
        <ele>862.409</ele>
        <time>2019-10-17T14:12:21Z</time>
      </trkpt>
      <trkpt lat="-22.024425" lon="-44.982754">
        <ele>862.408</ele>
        <time>2019-10-17T14:12:22Z</time>
      </trkpt>
      <trkpt lat="-22.024418" lon="-44.982680">
        <ele>862.685</ele>
        <time>2019-10-17T14:12:25Z</time>
      </trkpt>
      <trkpt lat="-22.024424" lon="-44.982614">
        <ele>862.953</ele>
        <time>2019-10-17T14:12:27Z</time>
      </trkpt>
      <trkpt lat="-22.024434" lon="-44.982562">
        <ele>863.176</ele>
        <time>2019-10-17T14:12:29Z</time>
      </trkpt>
      <trkpt lat="-22.024449" lon="-44.982504">
        <ele>863.256</ele>
        <time>2019-10-17T14:12:30Z</time>
      </trkpt>
      <trkpt lat="-22.024465" lon="-44.982456">
        <ele>863.372</ele>
        <time>2019-10-17T14:12:32Z</time>
      </trkpt>
      <trkpt lat="-22.024475" lon="-44.982391">
        <ele>863.569</ele>
        <time>2019-10-17T14:12:34Z</time>
      </trkpt>
      <trkpt lat="-22.024484" lon="-44.982313">
        <ele>863.725</ele>
        <time>2019-10-17T14:12:37Z</time>
      </trkpt>
      <trkpt lat="-22.024494" lon="-44.982266">
        <ele>863.793</ele>
        <time>2019-10-17T14:12:38Z</time>
      </trkpt>
      <trkpt lat="-22.024500" lon="-44.982180">
        <ele>864.358</ele>
        <time>2019-10-17T14:12:41Z</time>
      </trkpt>
      <trkpt lat="-22.024511" lon="-44.982112">
        <ele>864.252</ele>
        <time>2019-10-17T14:12:43Z</time>
      </trkpt>
      <trkpt lat="-22.024532" lon="-44.982039">
        <ele>864.317</ele>
        <time>2019-10-17T14:12:45Z</time>
      </trkpt>
      <trkpt lat="-22.024539" lon="-44.981953">
        <ele>864.508</ele>
        <time>2019-10-17T14:12:48Z</time>
      </trkpt>
      <trkpt lat="-22.024550" lon="-44.981884">
        <ele>864.829</ele>
        <time>2019-10-17T14:12:50Z</time>
      </trkpt>
      <trkpt lat="-22.024562" lon="-44.981813">
        <ele>864.647</ele>
        <time>2019-10-17T14:12:52Z</time>
      </trkpt>
      <trkpt lat="-22.024564" lon="-44.981754">
        <ele>865.180</ele>
        <time>2019-10-17T14:12:54Z</time>
      </trkpt>
      <trkpt lat="-22.024563" lon="-44.981676">
        <ele>865.030</ele>
        <time>2019-10-17T14:12:56Z</time>
      </trkpt>
      <trkpt lat="-22.024563" lon="-44.981588">
        <ele>865.056</ele>
        <time>2019-10-17T14:12:59Z</time>
      </trkpt>
      <trkpt lat="-22.024544" lon="-44.981534">
        <ele>865.153</ele>
        <time>2019-10-17T14:13:01Z</time>
      </trkpt>
      <trkpt lat="-22.024531" lon="-44.981459">
        <ele>865.249</ele>
        <time>2019-10-17T14:13:04Z</time>
      </trkpt>
      <trkpt lat="-22.024526" lon="-44.981386">
        <ele>865.427</ele>
        <time>2019-10-17T14:13:07Z</time>
      </trkpt>
      <trkpt lat="-22.024512" lon="-44.981338">
        <ele>864.963</ele>
        <time>2019-10-17T14:13:09Z</time>
      </trkpt>
      <trkpt lat="-22.024488" lon="-44.981279">
        <ele>865.144</ele>
        <time>2019-10-17T14:13:11Z</time>
      </trkpt>
      <trkpt lat="-22.024466" lon="-44.981224">
        <ele>864.818</ele>
        <time>2019-10-17T14:13:12Z</time>
      </trkpt>
      <trkpt lat="-22.024439" lon="-44.981149">
        <ele>865.008</ele>
        <time>2019-10-17T14:13:15Z</time>
      </trkpt>
      <trkpt lat="-22.024394" lon="-44.981071">
        <ele>865.180</ele>
        <time>2019-10-17T14:13:18Z</time>
      </trkpt>
      <trkpt lat="-22.024362" lon="-44.981032">
        <ele>865.498</ele>
        <time>2019-10-17T14:13:20Z</time>
      </trkpt>
      <trkpt lat="-22.024331" lon="-44.980995">
        <ele>865.271</ele>
        <time>2019-10-17T14:13:22Z</time>
      </trkpt>
      <trkpt lat="-22.024299" lon="-44.980944">
        <ele>865.891</ele>
        <time>2019-10-17T14:13:24Z</time>
      </trkpt>
      <trkpt lat="-22.024271" lon="-44.980898">
        <ele>865.687</ele>
        <time>2019-10-17T14:13:26Z</time>
      </trkpt>
      <trkpt lat="-22.024229" lon="-44.980849">
        <ele>865.964</ele>
        <time>2019-10-17T14:13:28Z</time>
      </trkpt>
      <trkpt lat="-22.024173" lon="-44.980782">
        <ele>865.960</ele>
        <time>2019-10-17T14:13:30Z</time>
      </trkpt>
      <trkpt lat="-22.024134" lon="-44.980746">
        <ele>866.768</ele>
        <time>2019-10-17T14:13:33Z</time>
      </trkpt>
      <trkpt lat="-22.024099" lon="-44.980705">
        <ele>866.625</ele>
        <time>2019-10-17T14:13:35Z</time>
      </trkpt>
      <trkpt lat="-22.024059" lon="-44.980675">
        <ele>866.626</ele>
        <time>2019-10-17T14:13:37Z</time>
      </trkpt>
      <trkpt lat="-22.024015" lon="-44.980651">
        <ele>866.908</ele>
        <time>2019-10-17T14:13:39Z</time>
      </trkpt>
      <trkpt lat="-22.023972" lon="-44.980626">
        <ele>867.008</ele>
        <time>2019-10-17T14:13:41Z</time>
      </trkpt>
      <trkpt lat="-22.023925" lon="-44.980600">
        <ele>867.326</ele>
        <time>2019-10-17T14:13:43Z</time>
      </trkpt>
      <trkpt lat="-22.023859" lon="-44.980560">
        <ele>867.264</ele>
        <time>2019-10-17T14:13:46Z</time>
      </trkpt>
      <trkpt lat="-22.023804" lon="-44.980527">
        <ele>867.387</ele>
        <time>2019-10-17T14:13:48Z</time>
      </trkpt>
      <trkpt lat="-22.023754" lon="-44.980483">
        <ele>867.537</ele>
        <time>2019-10-17T14:13:50Z</time>
      </trkpt>
      <trkpt lat="-22.023711" lon="-44.980446">
        <ele>867.253</ele>
        <time>2019-10-17T14:13:52Z</time>
      </trkpt>
      <trkpt lat="-22.023664" lon="-44.980407">
        <ele>867.410</ele>
        <time>2019-10-17T14:13:55Z</time>
      </trkpt>
      <trkpt lat="-22.023613" lon="-44.980371">
        <ele>867.216</ele>
        <time>2019-10-17T14:13:57Z</time>
      </trkpt>
      <trkpt lat="-22.023567" lon="-44.980354">
        <ele>867.294</ele>
        <time>2019-10-17T14:13:59Z</time>
      </trkpt>
      <trkpt lat="-22.023514" lon="-44.980326">
        <ele>867.192</ele>
        <time>2019-10-17T14:14:01Z</time>
      </trkpt>
      <trkpt lat="-22.023466" lon="-44.980302">
        <ele>867.073</ele>
        <time>2019-10-17T14:14:02Z</time>
      </trkpt>
      <trkpt lat="-22.023422" lon="-44.980277">
        <ele>867.320</ele>
        <time>2019-10-17T14:14:04Z</time>
      </trkpt>
      <trkpt lat="-22.023379" lon="-44.980249">
        <ele>867.308</ele>
        <time>2019-10-17T14:14:06Z</time>
      </trkpt>
      <trkpt lat="-22.023344" lon="-44.980218">
        <ele>867.973</ele>
        <time>2019-10-17T14:14:08Z</time>
      </trkpt>
      <trkpt lat="-22.023284" lon="-44.980179">
        <ele>867.731</ele>
        <time>2019-10-17T14:14:11Z</time>
      </trkpt>
      <trkpt lat="-22.023239" lon="-44.980155">
        <ele>867.534</ele>
        <time>2019-10-17T14:14:13Z</time>
      </trkpt>
      <trkpt lat="-22.023199" lon="-44.980122">
        <ele>867.864</ele>
        <time>2019-10-17T14:14:15Z</time>
      </trkpt>
      <trkpt lat="-22.023166" lon="-44.980083">
        <ele>867.850</ele>
        <time>2019-10-17T14:14:17Z</time>
      </trkpt>
      <trkpt lat="-22.023103" lon="-44.980040">
        <ele>868.527</ele>
        <time>2019-10-17T14:14:20Z</time>
      </trkpt>
      <trkpt lat="-22.023057" lon="-44.980012">
        <ele>868.413</ele>
        <time>2019-10-17T14:14:22Z</time>
      </trkpt>
      <trkpt lat="-22.022997" lon="-44.979962">
        <ele>868.441</ele>
        <time>2019-10-17T14:14:25Z</time>
      </trkpt>
      <trkpt lat="-22.022942" lon="-44.979908">
        <ele>868.737</ele>
        <time>2019-10-17T14:14:27Z</time>
      </trkpt>
      <trkpt lat="-22.022881" lon="-44.979851">
        <ele>868.949</ele>
        <time>2019-10-17T14:14:31Z</time>
      </trkpt>
      <trkpt lat="-22.022850" lon="-44.979811">
        <ele>869.013</ele>
        <time>2019-10-17T14:14:33Z</time>
      </trkpt>
      <trkpt lat="-22.022823" lon="-44.979772">
        <ele>869.408</ele>
        <time>2019-10-17T14:14:35Z</time>
      </trkpt>
      <trkpt lat="-22.022786" lon="-44.979725">
        <ele>869.597</ele>
        <time>2019-10-17T14:14:37Z</time>
      </trkpt>
      <trkpt lat="-22.022763" lon="-44.979681">
        <ele>869.615</ele>
        <time>2019-10-17T14:14:39Z</time>
      </trkpt>
      <trkpt lat="-22.022742" lon="-44.979629">
        <ele>870.158</ele>
        <time>2019-10-17T14:14:41Z</time>
      </trkpt>
      <trkpt lat="-22.022723" lon="-44.979573">
        <ele>870.318</ele>
        <time>2019-10-17T14:14:43Z</time>
      </trkpt>
      <trkpt lat="-22.022708" lon="-44.979522">
        <ele>870.744</ele>
        <time>2019-10-17T14:14:45Z</time>
      </trkpt>
      <trkpt lat="-22.022694" lon="-44.979474">
        <ele>870.491</ele>
        <time>2019-10-17T14:14:47Z</time>
      </trkpt>
      <trkpt lat="-22.022678" lon="-44.979416">
        <ele>870.897</ele>
        <time>2019-10-17T14:14:49Z</time>
      </trkpt>
      <trkpt lat="-22.022666" lon="-44.979355">
        <ele>870.835</ele>
        <time>2019-10-17T14:14:51Z</time>
      </trkpt>
      <trkpt lat="-22.022656" lon="-44.979297">
        <ele>870.927</ele>
        <time>2019-10-17T14:14:53Z</time>
      </trkpt>
      <trkpt lat="-22.022654" lon="-44.979243">
        <ele>870.968</ele>
        <time>2019-10-17T14:14:55Z</time>
      </trkpt>
      <trkpt lat="-22.022660" lon="-44.979171">
        <ele>871.114</ele>
        <time>2019-10-17T14:14:58Z</time>
      </trkpt>
      <trkpt lat="-22.022661" lon="-44.979118">
        <ele>870.908</ele>
        <time>2019-10-17T14:15:00Z</time>
      </trkpt>
      <trkpt lat="-22.022661" lon="-44.979053">
        <ele>870.966</ele>
        <time>2019-10-17T14:15:02Z</time>
      </trkpt>
      <trkpt lat="-22.022658" lon="-44.978947">
        <ele>871.194</ele>
        <time>2019-10-17T14:15:05Z</time>
      </trkpt>
      <trkpt lat="-22.022658" lon="-44.978898">
        <ele>871.747</ele>
        <time>2019-10-17T14:15:07Z</time>
      </trkpt>
      <trkpt lat="-22.022659" lon="-44.978836">
        <ele>871.767</ele>
        <time>2019-10-17T14:15:09Z</time>
      </trkpt>
      <trkpt lat="-22.022661" lon="-44.978766">
        <ele>871.943</ele>
        <time>2019-10-17T14:15:11Z</time>
      </trkpt>
      <trkpt lat="-22.022675" lon="-44.978676">
        <ele>872.120</ele>
        <time>2019-10-17T14:15:14Z</time>
      </trkpt>
      <trkpt lat="-22.022681" lon="-44.978605">
        <ele>872.286</ele>
        <time>2019-10-17T14:15:16Z</time>
      </trkpt>
      <trkpt lat="-22.022683" lon="-44.978544">
        <ele>871.934</ele>
        <time>2019-10-17T14:15:18Z</time>
      </trkpt>
      <trkpt lat="-22.022683" lon="-44.978468">
        <ele>872.421</ele>
        <time>2019-10-17T14:15:20Z</time>
      </trkpt>
      <trkpt lat="-22.022678" lon="-44.978410">
        <ele>872.341</ele>
        <time>2019-10-17T14:15:22Z</time>
      </trkpt>
      <trkpt lat="-22.022676" lon="-44.978345">
        <ele>872.805</ele>
        <time>2019-10-17T14:15:24Z</time>
      </trkpt>
      <trkpt lat="-22.022671" lon="-44.978280">
        <ele>872.708</ele>
        <time>2019-10-17T14:15:26Z</time>
      </trkpt>
      <trkpt lat="-22.022659" lon="-44.978200">
        <ele>872.756</ele>
        <time>2019-10-17T14:15:28Z</time>
      </trkpt>
      <trkpt lat="-22.022639" lon="-44.978141">
        <ele>872.864</ele>
        <time>2019-10-17T14:15:31Z</time>
      </trkpt>
      <trkpt lat="-22.022611" lon="-44.978044">
        <ele>873.397</ele>
        <time>2019-10-17T14:15:34Z</time>
      </trkpt>
      <trkpt lat="-22.022598" lon="-44.977990">
        <ele>873.527</ele>
        <time>2019-10-17T14:15:36Z</time>
      </trkpt>
      <trkpt lat="-22.022563" lon="-44.977925">
        <ele>873.443</ele>
        <time>2019-10-17T14:15:39Z</time>
      </trkpt>
      <trkpt lat="-22.022528" lon="-44.977883">
        <ele>873.560</ele>
        <time>2019-10-17T14:15:41Z</time>
      </trkpt>
      <trkpt lat="-22.022482" lon="-44.977825">
        <ele>873.946</ele>
        <time>2019-10-17T14:15:43Z</time>
      </trkpt>
      <trkpt lat="-22.022440" lon="-44.977774">
        <ele>873.834</ele>
        <time>2019-10-17T14:15:45Z</time>
      </trkpt>
      <trkpt lat="-22.022406" lon="-44.977734">
        <ele>874.177</ele>
        <time>2019-10-17T14:15:47Z</time>
      </trkpt>
      <trkpt lat="-22.022352" lon="-44.977673">
        <ele>874.061</ele>
        <time>2019-10-17T14:15:49Z</time>
      </trkpt>
      <trkpt lat="-22.022316" lon="-44.977639">
        <ele>874.327</ele>
        <time>2019-10-17T14:15:51Z</time>
      </trkpt>
      <trkpt lat="-22.022281" lon="-44.977603">
        <ele>874.808</ele>
        <time>2019-10-17T14:15:53Z</time>
      </trkpt>
      <trkpt lat="-22.022236" lon="-44.977542">
        <ele>875.011</ele>
        <time>2019-10-17T14:15:56Z</time>
      </trkpt>
      <trkpt lat="-22.022195" lon="-44.977494">
        <ele>874.979</ele>
        <time>2019-10-17T14:15:58Z</time>
      </trkpt>
      <trkpt lat="-22.022152" lon="-44.977463">
        <ele>874.552</ele>
        <time>2019-10-17T14:16:00Z</time>
      </trkpt>
      <trkpt lat="-22.022100" lon="-44.977433">
        <ele>874.912</ele>
        <time>2019-10-17T14:16:02Z</time>
      </trkpt>
      <trkpt lat="-22.022047" lon="-44.977403">
        <ele>875.448</ele>
        <time>2019-10-17T14:16:04Z</time>
      </trkpt>
      <trkpt lat="-22.021993" lon="-44.977376">
        <ele>875.455</ele>
        <time>2019-10-17T14:16:06Z</time>
      </trkpt>
      <trkpt lat="-22.021951" lon="-44.977353">
        <ele>875.541</ele>
        <time>2019-10-17T14:16:08Z</time>
      </trkpt>
      <trkpt lat="-22.021897" lon="-44.977323">
        <ele>875.619</ele>
        <time>2019-10-17T14:16:10Z</time>
      </trkpt>
      <trkpt lat="-22.021849" lon="-44.977295">
        <ele>875.892</ele>
        <time>2019-10-17T14:16:11Z</time>
      </trkpt>
      <trkpt lat="-22.021809" lon="-44.977268">
        <ele>875.773</ele>
        <time>2019-10-17T14:16:13Z</time>
      </trkpt>
      <trkpt lat="-22.021765" lon="-44.977236">
        <ele>876.020</ele>
        <time>2019-10-17T14:16:15Z</time>
      </trkpt>
      <trkpt lat="-22.021706" lon="-44.977189">
        <ele>876.008</ele>
        <time>2019-10-17T14:16:17Z</time>
      </trkpt>
      <trkpt lat="-22.021666" lon="-44.977154">
        <ele>876.423</ele>
        <time>2019-10-17T14:16:19Z</time>
      </trkpt>
      <trkpt lat="-22.021623" lon="-44.977111">
        <ele>876.741</ele>
        <time>2019-10-17T14:16:21Z</time>
      </trkpt>
      <trkpt lat="-22.021589" lon="-44.977074">
        <ele>876.994</ele>
        <time>2019-10-17T14:16:22Z</time>
      </trkpt>
      <trkpt lat="-22.021551" lon="-44.977030">
        <ele>876.994</ele>
        <time>2019-10-17T14:16:24Z</time>
      </trkpt>
      <trkpt lat="-22.021513" lon="-44.976994">
        <ele>876.610</ele>
        <time>2019-10-17T14:16:26Z</time>
      </trkpt>
      <trkpt lat="-22.021473" lon="-44.976946">
        <ele>876.697</ele>
        <time>2019-10-17T14:16:28Z</time>
      </trkpt>
      <trkpt lat="-22.021434" lon="-44.976902">
        <ele>876.373</ele>
        <time>2019-10-17T14:16:29Z</time>
      </trkpt>
      <trkpt lat="-22.021400" lon="-44.976866">
        <ele>876.531</ele>
        <time>2019-10-17T14:16:31Z</time>
      </trkpt>
      <trkpt lat="-22.021352" lon="-44.976821">
        <ele>877.178</ele>
        <time>2019-10-17T14:16:33Z</time>
      </trkpt>
      <trkpt lat="-22.021311" lon="-44.976790">
        <ele>876.733</ele>
        <time>2019-10-17T14:16:35Z</time>
      </trkpt>
      <trkpt lat="-22.021263" lon="-44.976747">
        <ele>877.126</ele>
        <time>2019-10-17T14:16:37Z</time>
      </trkpt>
      <trkpt lat="-22.021223" lon="-44.976714">
        <ele>877.208</ele>
        <time>2019-10-17T14:16:39Z</time>
      </trkpt>
      <trkpt lat="-22.021184" lon="-44.976675">
        <ele>877.181</ele>
        <time>2019-10-17T14:16:40Z</time>
      </trkpt>
      <trkpt lat="-22.021144" lon="-44.976630">
        <ele>876.729</ele>
        <time>2019-10-17T14:16:42Z</time>
      </trkpt>
      <trkpt lat="-22.021091" lon="-44.976572">
        <ele>877.192</ele>
        <time>2019-10-17T14:16:45Z</time>
      </trkpt>
      <trkpt lat="-22.021039" lon="-44.976513">
        <ele>877.342</ele>
        <time>2019-10-17T14:16:47Z</time>
      </trkpt>
      <trkpt lat="-22.020987" lon="-44.976465">
        <ele>877.348</ele>
        <time>2019-10-17T14:16:49Z</time>
      </trkpt>
      <trkpt lat="-22.020940" lon="-44.976427">
        <ele>878.045</ele>
        <time>2019-10-17T14:16:51Z</time>
      </trkpt>
      <trkpt lat="-22.020890" lon="-44.976383">
        <ele>878.291</ele>
        <time>2019-10-17T14:16:53Z</time>
      </trkpt>
      <trkpt lat="-22.020846" lon="-44.976348">
        <ele>878.069</ele>
        <time>2019-10-17T14:16:55Z</time>
      </trkpt>
      <trkpt lat="-22.020786" lon="-44.976292">
        <ele>878.347</ele>
        <time>2019-10-17T14:16:57Z</time>
      </trkpt>
      <trkpt lat="-22.020752" lon="-44.976258">
        <ele>878.029</ele>
        <time>2019-10-17T14:16:58Z</time>
      </trkpt>
      <trkpt lat="-22.020703" lon="-44.976203">
        <ele>878.421</ele>
        <time>2019-10-17T14:17:01Z</time>
      </trkpt>
      <trkpt lat="-22.020659" lon="-44.976153">
        <ele>878.608</ele>
        <time>2019-10-17T14:17:03Z</time>
      </trkpt>
      <trkpt lat="-22.020625" lon="-44.976116">
        <ele>878.918</ele>
        <time>2019-10-17T14:17:04Z</time>
      </trkpt>
      <trkpt lat="-22.020584" lon="-44.976074">
        <ele>879.396</ele>
        <time>2019-10-17T14:17:07Z</time>
      </trkpt>
      <trkpt lat="-22.020556" lon="-44.976035">
        <ele>879.449</ele>
        <time>2019-10-17T14:17:09Z</time>
      </trkpt>
      <trkpt lat="-22.020527" lon="-44.975995">
        <ele>879.399</ele>
        <time>2019-10-17T14:17:11Z</time>
      </trkpt>
      <trkpt lat="-22.020490" lon="-44.975963">
        <ele>879.095</ele>
        <time>2019-10-17T14:17:13Z</time>
      </trkpt>
      <trkpt lat="-22.020460" lon="-44.975927">
        <ele>879.222</ele>
        <time>2019-10-17T14:17:15Z</time>
      </trkpt>
      <trkpt lat="-22.020419" lon="-44.975884">
        <ele>879.548</ele>
        <time>2019-10-17T14:17:17Z</time>
      </trkpt>
      <trkpt lat="-22.020382" lon="-44.975833">
        <ele>879.796</ele>
        <time>2019-10-17T14:17:19Z</time>
      </trkpt>
      <trkpt lat="-22.020305" lon="-44.975750">
        <ele>879.178</ele>
        <time>2019-10-17T14:17:24Z</time>
      </trkpt>
      <trkpt lat="-22.020272" lon="-44.975714">
        <ele>879.433</ele>
        <time>2019-10-17T14:17:26Z</time>
      </trkpt>
      <trkpt lat="-22.020232" lon="-44.975665">
        <ele>879.826</ele>
        <time>2019-10-17T14:17:29Z</time>
      </trkpt>
      <trkpt lat="-22.020199" lon="-44.975615">
        <ele>879.908</ele>
        <time>2019-10-17T14:17:31Z</time>
      </trkpt>
      <trkpt lat="-22.020169" lon="-44.975575">
        <ele>880.021</ele>
        <time>2019-10-17T14:17:32Z</time>
      </trkpt>
      <trkpt lat="-22.020140" lon="-44.975532">
        <ele>880.589</ele>
        <time>2019-10-17T14:17:34Z</time>
      </trkpt>
      <trkpt lat="-22.020105" lon="-44.975474">
        <ele>880.592</ele>
        <time>2019-10-17T14:17:36Z</time>
      </trkpt>
      <trkpt lat="-22.020058" lon="-44.975400">
        <ele>880.652</ele>
        <time>2019-10-17T14:17:39Z</time>
      </trkpt>
      <trkpt lat="-22.020023" lon="-44.975350">
        <ele>880.578</ele>
        <time>2019-10-17T14:17:42Z</time>
      </trkpt>
      <trkpt lat="-22.020001" lon="-44.975295">
        <ele>880.865</ele>
        <time>2019-10-17T14:17:44Z</time>
      </trkpt>
      <trkpt lat="-22.019980" lon="-44.975231">
        <ele>881.031</ele>
        <time>2019-10-17T14:17:47Z</time>
      </trkpt>
      <trkpt lat="-22.019952" lon="-44.975172">
        <ele>881.079</ele>
        <time>2019-10-17T14:17:49Z</time>
      </trkpt>
      <trkpt lat="-22.019933" lon="-44.975120">
        <ele>881.055</ele>
        <time>2019-10-17T14:17:51Z</time>
      </trkpt>
      <trkpt lat="-22.019918" lon="-44.975052">
        <ele>881.107</ele>
        <time>2019-10-17T14:17:53Z</time>
      </trkpt>
      <trkpt lat="-22.019913" lon="-44.975003">
        <ele>880.917</ele>
        <time>2019-10-17T14:17:55Z</time>
      </trkpt>
      <trkpt lat="-22.019901" lon="-44.974929">
        <ele>881.208</ele>
        <time>2019-10-17T14:17:57Z</time>
      </trkpt>
      <trkpt lat="-22.019895" lon="-44.974872">
        <ele>881.329</ele>
        <time>2019-10-17T14:17:59Z</time>
      </trkpt>
      <trkpt lat="-22.019891" lon="-44.974779">
        <ele>882.037</ele>
        <time>2019-10-17T14:18:02Z</time>
      </trkpt>
      <trkpt lat="-22.019879" lon="-44.974732">
        <ele>881.850</ele>
        <time>2019-10-17T14:18:04Z</time>
      </trkpt>
      <trkpt lat="-22.019857" lon="-44.974671">
        <ele>881.980</ele>
        <time>2019-10-17T14:18:06Z</time>
      </trkpt>
      <trkpt lat="-22.019837" lon="-44.974610">
        <ele>881.896</ele>
        <time>2019-10-17T14:18:08Z</time>
      </trkpt>
      <trkpt lat="-22.019818" lon="-44.974556">
        <ele>881.883</ele>
        <time>2019-10-17T14:18:10Z</time>
      </trkpt>
      <trkpt lat="-22.019793" lon="-44.974491">
        <ele>882.159</ele>
        <time>2019-10-17T14:18:12Z</time>
      </trkpt>
      <trkpt lat="-22.019770" lon="-44.974441">
        <ele>882.497</ele>
        <time>2019-10-17T14:18:14Z</time>
      </trkpt>
      <trkpt lat="-22.019750" lon="-44.974395">
        <ele>882.171</ele>
        <time>2019-10-17T14:18:16Z</time>
      </trkpt>
      <trkpt lat="-22.019721" lon="-44.974340">
        <ele>882.041</ele>
        <time>2019-10-17T14:18:18Z</time>
      </trkpt>
      <trkpt lat="-22.019688" lon="-44.974291">
        <ele>881.915</ele>
        <time>2019-10-17T14:18:20Z</time>
      </trkpt>
      <trkpt lat="-22.019646" lon="-44.974234">
        <ele>882.408</ele>
        <time>2019-10-17T14:18:22Z</time>
      </trkpt>
      <trkpt lat="-22.019597" lon="-44.974183">
        <ele>882.671</ele>
        <time>2019-10-17T14:18:24Z</time>
      </trkpt>
      <trkpt lat="-22.019554" lon="-44.974148">
        <ele>882.749</ele>
        <time>2019-10-17T14:18:26Z</time>
      </trkpt>
      <trkpt lat="-22.019493" lon="-44.974105">
        <ele>882.932</ele>
        <time>2019-10-17T14:18:28Z</time>
      </trkpt>
      <trkpt lat="-22.019437" lon="-44.974073">
        <ele>883.312</ele>
        <time>2019-10-17T14:18:30Z</time>
      </trkpt>
      <trkpt lat="-22.019372" lon="-44.974043">
        <ele>883.378</ele>
        <time>2019-10-17T14:18:33Z</time>
      </trkpt>
      <trkpt lat="-22.019321" lon="-44.974018">
        <ele>883.535</ele>
        <time>2019-10-17T14:18:35Z</time>
      </trkpt>
      <trkpt lat="-22.019272" lon="-44.973998">
        <ele>883.761</ele>
        <time>2019-10-17T14:18:37Z</time>
      </trkpt>
      <trkpt lat="-22.019220" lon="-44.973980">
        <ele>884.029</ele>
        <time>2019-10-17T14:18:39Z</time>
      </trkpt>
      <trkpt lat="-22.019150" lon="-44.973958">
        <ele>883.923</ele>
        <time>2019-10-17T14:18:42Z</time>
      </trkpt>
      <trkpt lat="-22.019097" lon="-44.973948">
        <ele>884.383</ele>
        <time>2019-10-17T14:18:44Z</time>
      </trkpt>
      <trkpt lat="-22.019017" lon="-44.973937">
        <ele>884.511</ele>
        <time>2019-10-17T14:18:47Z</time>
      </trkpt>
      <trkpt lat="-22.018943" lon="-44.973932">
        <ele>884.508</ele>
        <time>2019-10-17T14:18:50Z</time>
      </trkpt>
      <trkpt lat="-22.018893" lon="-44.973929">
        <ele>884.526</ele>
        <time>2019-10-17T14:18:52Z</time>
      </trkpt>
      <trkpt lat="-22.018847" lon="-44.973925">
        <ele>884.634</ele>
        <time>2019-10-17T14:18:53Z</time>
      </trkpt>
      <trkpt lat="-22.018801" lon="-44.973919">
        <ele>884.327</ele>
        <time>2019-10-17T14:18:55Z</time>
      </trkpt>
      <trkpt lat="-22.018738" lon="-44.973928">
        <ele>885.387</ele>
        <time>2019-10-17T14:18:58Z</time>
      </trkpt>
      <trkpt lat="-22.018686" lon="-44.973946">
        <ele>885.023</ele>
        <time>2019-10-17T14:19:00Z</time>
      </trkpt>
      <trkpt lat="-22.018635" lon="-44.973958">
        <ele>885.110</ele>
        <time>2019-10-17T14:19:02Z</time>
      </trkpt>
      <trkpt lat="-22.018570" lon="-44.973952">
        <ele>884.936</ele>
        <time>2019-10-17T14:19:05Z</time>
      </trkpt>
      <trkpt lat="-22.018506" lon="-44.973938">
        <ele>885.364</ele>
        <time>2019-10-17T14:19:07Z</time>
      </trkpt>
      <trkpt lat="-22.018444" lon="-44.973927">
        <ele>885.369</ele>
        <time>2019-10-17T14:19:08Z</time>
      </trkpt>
      <trkpt lat="-22.018392" lon="-44.973915">
        <ele>885.304</ele>
        <time>2019-10-17T14:19:10Z</time>
      </trkpt>
      <trkpt lat="-22.018340" lon="-44.973901">
        <ele>885.524</ele>
        <time>2019-10-17T14:19:12Z</time>
      </trkpt>
      <trkpt lat="-22.018281" lon="-44.973885">
        <ele>885.708</ele>
        <time>2019-10-17T14:19:14Z</time>
      </trkpt>
      <trkpt lat="-22.018225" lon="-44.973861">
        <ele>886.270</ele>
        <time>2019-10-17T14:19:16Z</time>
      </trkpt>
      <trkpt lat="-22.018167" lon="-44.973829">
        <ele>886.698</ele>
        <time>2019-10-17T14:19:19Z</time>
      </trkpt>
      <trkpt lat="-22.018109" lon="-44.973801">
        <ele>887.051</ele>
        <time>2019-10-17T14:19:22Z</time>
      </trkpt>
      <trkpt lat="-22.018062" lon="-44.973772">
        <ele>886.721</ele>
        <time>2019-10-17T14:19:24Z</time>
      </trkpt>
      <trkpt lat="-22.018001" lon="-44.973727">
        <ele>886.757</ele>
        <time>2019-10-17T14:19:26Z</time>
      </trkpt>
      <trkpt lat="-22.017931" lon="-44.973672">
        <ele>886.714</ele>
        <time>2019-10-17T14:19:29Z</time>
      </trkpt>
      <trkpt lat="-22.017879" lon="-44.973627">
        <ele>886.620</ele>
        <time>2019-10-17T14:19:31Z</time>
      </trkpt>
      <trkpt lat="-22.017837" lon="-44.973586">
        <ele>886.828</ele>
        <time>2019-10-17T14:19:33Z</time>
      </trkpt>
      <trkpt lat="-22.017796" lon="-44.973556">
        <ele>886.851</ele>
        <time>2019-10-17T14:19:35Z</time>
      </trkpt>
      <trkpt lat="-22.017762" lon="-44.973523">
        <ele>886.801</ele>
        <time>2019-10-17T14:19:37Z</time>
      </trkpt>
      <trkpt lat="-22.017711" lon="-44.973482">
        <ele>886.911</ele>
        <time>2019-10-17T14:19:39Z</time>
      </trkpt>
      <trkpt lat="-22.017673" lon="-44.973449">
        <ele>886.708</ele>
        <time>2019-10-17T14:19:40Z</time>
      </trkpt>
      <trkpt lat="-22.017627" lon="-44.973407">
        <ele>886.949</ele>
        <time>2019-10-17T14:19:43Z</time>
      </trkpt>
      <trkpt lat="-22.017574" lon="-44.973362">
        <ele>887.277</ele>
        <time>2019-10-17T14:19:45Z</time>
      </trkpt>
      <trkpt lat="-22.017521" lon="-44.973316">
        <ele>886.950</ele>
        <time>2019-10-17T14:19:48Z</time>
      </trkpt>
      <trkpt lat="-22.017462" lon="-44.973263">
        <ele>887.560</ele>
        <time>2019-10-17T14:19:51Z</time>
      </trkpt>
      <trkpt lat="-22.017414" lon="-44.973216">
        <ele>887.886</ele>
        <time>2019-10-17T14:19:53Z</time>
      </trkpt>
      <trkpt lat="-22.017378" lon="-44.973185">
        <ele>888.133</ele>
        <time>2019-10-17T14:19:55Z</time>
      </trkpt>
      <trkpt lat="-22.017335" lon="-44.973152">
        <ele>888.169</ele>
        <time>2019-10-17T14:19:56Z</time>
      </trkpt>
      <trkpt lat="-22.017297" lon="-44.973119">
        <ele>887.617</ele>
        <time>2019-10-17T14:19:58Z</time>
      </trkpt>
      <trkpt lat="-22.017262" lon="-44.973081">
        <ele>887.483</ele>
        <time>2019-10-17T14:19:59Z</time>
      </trkpt>
      <trkpt lat="-22.017213" lon="-44.973036">
        <ele>886.925</ele>
        <time>2019-10-17T14:20:02Z</time>
      </trkpt>
      <trkpt lat="-22.017165" lon="-44.972992">
        <ele>887.517</ele>
        <time>2019-10-17T14:20:04Z</time>
      </trkpt>
      <trkpt lat="-22.017127" lon="-44.972958">
        <ele>888.108</ele>
        <time>2019-10-17T14:20:06Z</time>
      </trkpt>
      <trkpt lat="-22.017095" lon="-44.972924">
        <ele>888.332</ele>
        <time>2019-10-17T14:20:07Z</time>
      </trkpt>
      <trkpt lat="-22.017049" lon="-44.972884">
        <ele>888.730</ele>
        <time>2019-10-17T14:20:09Z</time>
      </trkpt>
      <trkpt lat="-22.017016" lon="-44.972843">
        <ele>888.673</ele>
        <time>2019-10-17T14:20:11Z</time>
      </trkpt>
      <trkpt lat="-22.016981" lon="-44.972803">
        <ele>888.353</ele>
        <time>2019-10-17T14:20:13Z</time>
      </trkpt>
      <trkpt lat="-22.016941" lon="-44.972743">
        <ele>889.059</ele>
        <time>2019-10-17T14:20:15Z</time>
      </trkpt>
      <trkpt lat="-22.016906" lon="-44.972682">
        <ele>889.056</ele>
        <time>2019-10-17T14:20:17Z</time>
      </trkpt>
      <trkpt lat="-22.016871" lon="-44.972617">
        <ele>889.412</ele>
        <time>2019-10-17T14:20:19Z</time>
      </trkpt>
      <trkpt lat="-22.016850" lon="-44.972572">
        <ele>889.670</ele>
        <time>2019-10-17T14:20:20Z</time>
      </trkpt>
      <trkpt lat="-22.016823" lon="-44.972509">
        <ele>889.322</ele>
        <time>2019-10-17T14:20:23Z</time>
      </trkpt>
      <trkpt lat="-22.016788" lon="-44.972433">
        <ele>889.562</ele>
        <time>2019-10-17T14:20:25Z</time>
      </trkpt>
      <trkpt lat="-22.016768" lon="-44.972384">
        <ele>889.608</ele>
        <time>2019-10-17T14:20:27Z</time>
      </trkpt>
      <trkpt lat="-22.016745" lon="-44.972331">
        <ele>889.208</ele>
        <time>2019-10-17T14:20:29Z</time>
      </trkpt>
      <trkpt lat="-22.016721" lon="-44.972269">
        <ele>889.466</ele>
        <time>2019-10-17T14:20:31Z</time>
      </trkpt>
      <trkpt lat="-22.016684" lon="-44.972145">
        <ele>889.894</ele>
        <time>2019-10-17T14:20:34Z</time>
      </trkpt>
      <trkpt lat="-22.016678" lon="-44.972090">
        <ele>890.627</ele>
        <time>2019-10-17T14:20:36Z</time>
      </trkpt>
      <trkpt lat="-22.016675" lon="-44.972041">
        <ele>890.297</ele>
        <time>2019-10-17T14:20:38Z</time>
      </trkpt>
      <trkpt lat="-22.016658" lon="-44.971988">
        <ele>890.333</ele>
        <time>2019-10-17T14:20:39Z</time>
      </trkpt>
      <trkpt lat="-22.016646" lon="-44.971919">
        <ele>890.380</ele>
        <time>2019-10-17T14:20:41Z</time>
      </trkpt>
      <trkpt lat="-22.016639" lon="-44.971824">
        <ele>890.496</ele>
        <time>2019-10-17T14:20:45Z</time>
      </trkpt>
      <trkpt lat="-22.016636" lon="-44.971766">
        <ele>891.214</ele>
        <time>2019-10-17T14:20:46Z</time>
      </trkpt>
      <trkpt lat="-22.016631" lon="-44.971698">
        <ele>891.411</ele>
        <time>2019-10-17T14:20:49Z</time>
      </trkpt>
      <trkpt lat="-22.016625" lon="-44.971649">
        <ele>891.421</ele>
        <time>2019-10-17T14:20:50Z</time>
      </trkpt>
      <trkpt lat="-22.016621" lon="-44.971599">
        <ele>891.503</ele>
        <time>2019-10-17T14:20:52Z</time>
      </trkpt>
      <trkpt lat="-22.016616" lon="-44.971528">
        <ele>891.208</ele>
        <time>2019-10-17T14:20:54Z</time>
      </trkpt>
      <trkpt lat="-22.016614" lon="-44.971472">
        <ele>891.085</ele>
        <time>2019-10-17T14:20:55Z</time>
      </trkpt>
      <trkpt lat="-22.016614" lon="-44.971421">
        <ele>891.363</ele>
        <time>2019-10-17T14:20:57Z</time>
      </trkpt>
      <trkpt lat="-22.016609" lon="-44.971342">
        <ele>891.676</ele>
        <time>2019-10-17T14:21:00Z</time>
      </trkpt>
      <trkpt lat="-22.016606" lon="-44.971280">
        <ele>891.516</ele>
        <time>2019-10-17T14:21:01Z</time>
      </trkpt>
      <trkpt lat="-22.016595" lon="-44.971201">
        <ele>891.812</ele>
        <time>2019-10-17T14:21:04Z</time>
      </trkpt>
      <trkpt lat="-22.016577" lon="-44.971125">
        <ele>891.839</ele>
        <time>2019-10-17T14:21:06Z</time>
      </trkpt>
      <trkpt lat="-22.016566" lon="-44.971050">
        <ele>892.515</ele>
        <time>2019-10-17T14:21:08Z</time>
      </trkpt>
      <trkpt lat="-22.016554" lon="-44.970998">
        <ele>892.553</ele>
        <time>2019-10-17T14:21:09Z</time>
      </trkpt>
      <trkpt lat="-22.016544" lon="-44.970950">
        <ele>893.161</ele>
        <time>2019-10-17T14:21:11Z</time>
      </trkpt>
      <trkpt lat="-22.016545" lon="-44.970892">
        <ele>893.321</ele>
        <time>2019-10-17T14:21:13Z</time>
      </trkpt>
      <trkpt lat="-22.016538" lon="-44.970841">
        <ele>893.113</ele>
        <time>2019-10-17T14:21:15Z</time>
      </trkpt>
      <trkpt lat="-22.016535" lon="-44.970771">
        <ele>893.308</ele>
        <time>2019-10-17T14:21:18Z</time>
      </trkpt>
      <trkpt lat="-22.016526" lon="-44.970706">
        <ele>893.480</ele>
        <time>2019-10-17T14:21:20Z</time>
      </trkpt>
      <trkpt lat="-22.016527" lon="-44.970645">
        <ele>893.398</ele>
        <time>2019-10-17T14:21:23Z</time>
      </trkpt>
      <trkpt lat="-22.016524" lon="-44.970594">
        <ele>893.491</ele>
        <time>2019-10-17T14:21:24Z</time>
      </trkpt>
      <trkpt lat="-22.016522" lon="-44.970536">
        <ele>893.131</ele>
        <time>2019-10-17T14:21:26Z</time>
      </trkpt>
      <trkpt lat="-22.016513" lon="-44.970469">
        <ele>893.737</ele>
        <time>2019-10-17T14:21:28Z</time>
      </trkpt>
      <trkpt lat="-22.016498" lon="-44.970415">
        <ele>893.734</ele>
        <time>2019-10-17T14:21:30Z</time>
      </trkpt>
      <trkpt lat="-22.016486" lon="-44.970359">
        <ele>894.010</ele>
        <time>2019-10-17T14:21:31Z</time>
      </trkpt>
      <trkpt lat="-22.016468" lon="-44.970310">
        <ele>894.468</ele>
        <time>2019-10-17T14:21:34Z</time>
      </trkpt>
      <trkpt lat="-22.016450" lon="-44.970249">
        <ele>894.477</ele>
        <time>2019-10-17T14:21:36Z</time>
      </trkpt>
      <trkpt lat="-22.016427" lon="-44.970179">
        <ele>894.761</ele>
        <time>2019-10-17T14:21:39Z</time>
      </trkpt>
      <trkpt lat="-22.016386" lon="-44.970109">
        <ele>894.427</ele>
        <time>2019-10-17T14:21:41Z</time>
      </trkpt>
      <trkpt lat="-22.016360" lon="-44.970066">
        <ele>894.308</ele>
        <time>2019-10-17T14:21:43Z</time>
      </trkpt>
      <trkpt lat="-22.016333" lon="-44.970021">
        <ele>893.971</ele>
        <time>2019-10-17T14:21:44Z</time>
      </trkpt>
      <trkpt lat="-22.016282" lon="-44.969960">
        <ele>894.929</ele>
        <time>2019-10-17T14:21:47Z</time>
      </trkpt>
      <trkpt lat="-22.016243" lon="-44.969911">
        <ele>894.822</ele>
        <time>2019-10-17T14:21:49Z</time>
      </trkpt>
      <trkpt lat="-22.016199" lon="-44.969876">
        <ele>894.652</ele>
        <time>2019-10-17T14:21:51Z</time>
      </trkpt>
      <trkpt lat="-22.016145" lon="-44.969834">
        <ele>895.378</ele>
        <time>2019-10-17T14:21:53Z</time>
      </trkpt>
      <trkpt lat="-22.016086" lon="-44.969808">
        <ele>895.425</ele>
        <time>2019-10-17T14:21:55Z</time>
      </trkpt>
      <trkpt lat="-22.016036" lon="-44.969785">
        <ele>895.361</ele>
        <time>2019-10-17T14:21:57Z</time>
      </trkpt>
      <trkpt lat="-22.015988" lon="-44.969763">
        <ele>894.789</ele>
        <time>2019-10-17T14:21:58Z</time>
      </trkpt>
      <trkpt lat="-22.015941" lon="-44.969746">
        <ele>895.062</ele>
        <time>2019-10-17T14:22:00Z</time>
      </trkpt>
      <trkpt lat="-22.015894" lon="-44.969726">
        <ele>895.283</ele>
        <time>2019-10-17T14:22:01Z</time>
      </trkpt>
      <trkpt lat="-22.015846" lon="-44.969716">
        <ele>895.211</ele>
        <time>2019-10-17T14:22:03Z</time>
      </trkpt>
      <trkpt lat="-22.015771" lon="-44.969691">
        <ele>895.308</ele>
        <time>2019-10-17T14:22:05Z</time>
      </trkpt>
      <trkpt lat="-22.015714" lon="-44.969677">
        <ele>895.560</ele>
        <time>2019-10-17T14:22:07Z</time>
      </trkpt>
      <trkpt lat="-22.015653" lon="-44.969676">
        <ele>895.958</ele>
        <time>2019-10-17T14:22:10Z</time>
      </trkpt>
      <trkpt lat="-22.015605" lon="-44.969674">
        <ele>896.351</ele>
        <time>2019-10-17T14:22:12Z</time>
      </trkpt>
      <trkpt lat="-22.015538" lon="-44.969664">
        <ele>896.431</ele>
        <time>2019-10-17T14:22:14Z</time>
      </trkpt>
      <trkpt lat="-22.015483" lon="-44.969661">
        <ele>896.537</ele>
        <time>2019-10-17T14:22:16Z</time>
      </trkpt>
      <trkpt lat="-22.015436" lon="-44.969657">
        <ele>896.894</ele>
        <time>2019-10-17T14:22:18Z</time>
      </trkpt>
      <trkpt lat="-22.015388" lon="-44.969655">
        <ele>896.780</ele>
        <time>2019-10-17T14:22:19Z</time>
      </trkpt>
      <trkpt lat="-22.015322" lon="-44.969651">
        <ele>897.328</ele>
        <time>2019-10-17T14:22:22Z</time>
      </trkpt>
      <trkpt lat="-22.015259" lon="-44.969648">
        <ele>897.296</ele>
        <time>2019-10-17T14:22:24Z</time>
      </trkpt>
      <trkpt lat="-22.015179" lon="-44.969645">
        <ele>897.031</ele>
        <time>2019-10-17T14:22:27Z</time>
      </trkpt>
      <trkpt lat="-22.015121" lon="-44.969637">
        <ele>897.524</ele>
        <time>2019-10-17T14:22:29Z</time>
      </trkpt>
      <trkpt lat="-22.015057" lon="-44.969615">
        <ele>897.508</ele>
        <time>2019-10-17T14:22:31Z</time>
      </trkpt>
      <trkpt lat="-22.015007" lon="-44.969595">
        <ele>897.813</ele>
        <time>2019-10-17T14:22:32Z</time>
      </trkpt>
      <trkpt lat="-22.014959" lon="-44.969575">
        <ele>897.711</ele>
        <time>2019-10-17T14:22:35Z</time>
      </trkpt>
      <trkpt lat="-22.014903" lon="-44.969534">
        <ele>898.064</ele>
        <time>2019-10-17T14:22:37Z</time>
      </trkpt>
      <trkpt lat="-22.014854" lon="-44.969511">
        <ele>898.174</ele>
        <time>2019-10-17T14:22:38Z</time>
      </trkpt>
      <trkpt lat="-22.014793" lon="-44.969474">
        <ele>898.170</ele>
        <time>2019-10-17T14:22:41Z</time>
      </trkpt>
      <trkpt lat="-22.014730" lon="-44.969428">
        <ele>898.157</ele>
        <time>2019-10-17T14:22:43Z</time>
      </trkpt>
      <trkpt lat="-22.014668" lon="-44.969384">
        <ele>898.273</ele>
        <time>2019-10-17T14:22:45Z</time>
      </trkpt>
      <trkpt lat="-22.014629" lon="-44.969348">
        <ele>898.171</ele>
        <time>2019-10-17T14:22:46Z</time>
      </trkpt>
      <trkpt lat="-22.014591" lon="-44.969308">
        <ele>898.775</ele>
        <time>2019-10-17T14:22:48Z</time>
      </trkpt>
      <trkpt lat="-22.014556" lon="-44.969270">
        <ele>898.828</ele>
        <time>2019-10-17T14:22:49Z</time>
      </trkpt>
      <trkpt lat="-22.014528" lon="-44.969229">
        <ele>898.920</ele>
        <time>2019-10-17T14:22:51Z</time>
      </trkpt>
      <trkpt lat="-22.014491" lon="-44.969178">
        <ele>899.208</ele>
        <time>2019-10-17T14:22:54Z</time>
      </trkpt>
      <trkpt lat="-22.014461" lon="-44.969133">
        <ele>899.281</ele>
        <time>2019-10-17T14:22:56Z</time>
      </trkpt>
      <trkpt lat="-22.014432" lon="-44.969089">
        <ele>899.249</ele>
        <time>2019-10-17T14:22:57Z</time>
      </trkpt>
      <trkpt lat="-22.014406" lon="-44.969038">
        <ele>899.152</ele>
        <time>2019-10-17T14:22:59Z</time>
      </trkpt>
      <trkpt lat="-22.014383" lon="-44.968986">
        <ele>899.112</ele>
        <time>2019-10-17T14:23:01Z</time>
      </trkpt>
      <trkpt lat="-22.014357" lon="-44.968934">
        <ele>899.348</ele>
        <time>2019-10-17T14:23:03Z</time>
      </trkpt>
      <trkpt lat="-22.014330" lon="-44.968867">
        <ele>899.615</ele>
        <time>2019-10-17T14:23:04Z</time>
      </trkpt>
      <trkpt lat="-22.014322" lon="-44.968810">
        <ele>899.821</ele>
        <time>2019-10-17T14:23:07Z</time>
      </trkpt>
      <trkpt lat="-22.014306" lon="-44.968762">
        <ele>899.789</ele>
        <time>2019-10-17T14:23:09Z</time>
      </trkpt>
      <trkpt lat="-22.014283" lon="-44.968698">
        <ele>899.814</ele>
        <time>2019-10-17T14:23:11Z</time>
      </trkpt>
      <trkpt lat="-22.014264" lon="-44.968653">
        <ele>899.654</ele>
        <time>2019-10-17T14:23:13Z</time>
      </trkpt>
      <trkpt lat="-22.014226" lon="-44.968572">
        <ele>899.809</ele>
        <time>2019-10-17T14:23:15Z</time>
      </trkpt>
      <trkpt lat="-22.014208" lon="-44.968526">
        <ele>899.808</ele>
        <time>2019-10-17T14:23:17Z</time>
      </trkpt>
      <trkpt lat="-22.014190" lon="-44.968474">
        <ele>900.125</ele>
        <time>2019-10-17T14:23:19Z</time>
      </trkpt>
      <trkpt lat="-22.014171" lon="-44.968423">
        <ele>900.043</ele>
        <time>2019-10-17T14:23:20Z</time>
      </trkpt>
      <trkpt lat="-22.014136" lon="-44.968328">
        <ele>899.966</ele>
        <time>2019-10-17T14:23:23Z</time>
      </trkpt>
      <trkpt lat="-22.014117" lon="-44.968278">
        <ele>899.946</ele>
        <time>2019-10-17T14:23:24Z</time>
      </trkpt>
      <trkpt lat="-22.014100" lon="-44.968228">
        <ele>899.672</ele>
        <time>2019-10-17T14:23:26Z</time>
      </trkpt>
      <trkpt lat="-22.014086" lon="-44.968173">
        <ele>900.269</ele>
        <time>2019-10-17T14:23:28Z</time>
      </trkpt>
      <trkpt lat="-22.014063" lon="-44.968102">
        <ele>900.545</ele>
        <time>2019-10-17T14:23:30Z</time>
      </trkpt>
      <trkpt lat="-22.014040" lon="-44.968022">
        <ele>900.713</ele>
        <time>2019-10-17T14:23:32Z</time>
      </trkpt>
      <trkpt lat="-22.014019" lon="-44.967970">
        <ele>900.979</ele>
        <time>2019-10-17T14:23:33Z</time>
      </trkpt>
      <trkpt lat="-22.013993" lon="-44.967917">
        <ele>900.605</ele>
        <time>2019-10-17T14:23:36Z</time>
      </trkpt>
      <trkpt lat="-22.013978" lon="-44.967861">
        <ele>901.025</ele>
        <time>2019-10-17T14:23:38Z</time>
      </trkpt>
      <trkpt lat="-22.013971" lon="-44.967806">
        <ele>901.008</ele>
        <time>2019-10-17T14:23:40Z</time>
      </trkpt>
      <trkpt lat="-22.013950" lon="-44.967750">
        <ele>900.751</ele>
        <time>2019-10-17T14:23:42Z</time>
      </trkpt>
      <trkpt lat="-22.013934" lon="-44.967694">
        <ele>900.749</ele>
        <time>2019-10-17T14:23:44Z</time>
      </trkpt>
      <trkpt lat="-22.013926" lon="-44.967640">
        <ele>901.192</ele>
        <time>2019-10-17T14:23:46Z</time>
      </trkpt>
      <trkpt lat="-22.013915" lon="-44.967577">
        <ele>901.692</ele>
        <time>2019-10-17T14:23:48Z</time>
      </trkpt>
      <trkpt lat="-22.013905" lon="-44.967527">
        <ele>901.898</ele>
        <time>2019-10-17T14:23:49Z</time>
      </trkpt>
      <trkpt lat="-22.013902" lon="-44.967465">
        <ele>902.095</ele>
        <time>2019-10-17T14:23:51Z</time>
      </trkpt>
      <trkpt lat="-22.013896" lon="-44.967415">
        <ele>902.241</ele>
        <time>2019-10-17T14:23:53Z</time>
      </trkpt>
      <trkpt lat="-22.013898" lon="-44.967359">
        <ele>902.039</ele>
        <time>2019-10-17T14:23:54Z</time>
      </trkpt>
      <trkpt lat="-22.013894" lon="-44.967309">
        <ele>902.671</ele>
        <time>2019-10-17T14:23:56Z</time>
      </trkpt>
      <trkpt lat="-22.013884" lon="-44.967253">
        <ele>902.641</ele>
        <time>2019-10-17T14:23:58Z</time>
      </trkpt>
      <trkpt lat="-22.013893" lon="-44.967154">
        <ele>902.715</ele>
        <time>2019-10-17T14:24:01Z</time>
      </trkpt>
      <trkpt lat="-22.013898" lon="-44.967100">
        <ele>902.708</ele>
        <time>2019-10-17T14:24:03Z</time>
      </trkpt>
      <trkpt lat="-22.013901" lon="-44.967042">
        <ele>902.731</ele>
        <time>2019-10-17T14:24:04Z</time>
      </trkpt>
      <trkpt lat="-22.013914" lon="-44.966965">
        <ele>903.019</ele>
        <time>2019-10-17T14:24:07Z</time>
      </trkpt>
      <trkpt lat="-22.013927" lon="-44.966917">
        <ele>903.392</ele>
        <time>2019-10-17T14:24:09Z</time>
      </trkpt>
      <trkpt lat="-22.013941" lon="-44.966865">
        <ele>903.322</ele>
        <time>2019-10-17T14:24:10Z</time>
      </trkpt>
      <trkpt lat="-22.013952" lon="-44.966806">
        <ele>903.168</ele>
        <time>2019-10-17T14:24:12Z</time>
      </trkpt>
      <trkpt lat="-22.013965" lon="-44.966754">
        <ele>903.095</ele>
        <time>2019-10-17T14:24:14Z</time>
      </trkpt>
      <trkpt lat="-22.013975" lon="-44.966699">
        <ele>903.531</ele>
        <time>2019-10-17T14:24:15Z</time>
      </trkpt>
      <trkpt lat="-22.013984" lon="-44.966644">
        <ele>903.279</ele>
        <time>2019-10-17T14:24:17Z</time>
      </trkpt>
      <trkpt lat="-22.013988" lon="-44.966591">
        <ele>903.291</ele>
        <time>2019-10-17T14:24:19Z</time>
      </trkpt>
      <trkpt lat="-22.013995" lon="-44.966528">
        <ele>903.681</ele>
        <time>2019-10-17T14:24:21Z</time>
      </trkpt>
      <trkpt lat="-22.014005" lon="-44.966477">
        <ele>903.919</ele>
        <time>2019-10-17T14:24:23Z</time>
      </trkpt>
      <trkpt lat="-22.014019" lon="-44.966425">
        <ele>903.708</ele>
        <time>2019-10-17T14:24:24Z</time>
      </trkpt>
      <trkpt lat="-22.014036" lon="-44.966374">
        <ele>904.063</ele>
        <time>2019-10-17T14:24:26Z</time>
      </trkpt>
      <trkpt lat="-22.014050" lon="-44.966313">
        <ele>904.261</ele>
        <time>2019-10-17T14:24:28Z</time>
      </trkpt>
      <trkpt lat="-22.014067" lon="-44.966259">
        <ele>904.414</ele>
        <time>2019-10-17T14:24:30Z</time>
      </trkpt>
      <trkpt lat="-22.014085" lon="-44.966205">
        <ele>904.794</ele>
        <time>2019-10-17T14:24:33Z</time>
      </trkpt>
      <trkpt lat="-22.014107" lon="-44.966155">
        <ele>904.540</ele>
        <time>2019-10-17T14:24:35Z</time>
      </trkpt>
      <trkpt lat="-22.014132" lon="-44.966088">
        <ele>905.227</ele>
        <time>2019-10-17T14:24:37Z</time>
      </trkpt>
      <trkpt lat="-22.014157" lon="-44.966027">
        <ele>904.973</ele>
        <time>2019-10-17T14:24:39Z</time>
      </trkpt>
      <trkpt lat="-22.014176" lon="-44.965981">
        <ele>904.991</ele>
        <time>2019-10-17T14:24:41Z</time>
      </trkpt>
      <trkpt lat="-22.014195" lon="-44.965927">
        <ele>905.037</ele>
        <time>2019-10-17T14:24:43Z</time>
      </trkpt>
      <trkpt lat="-22.014216" lon="-44.965879">
        <ele>905.249</ele>
        <time>2019-10-17T14:24:44Z</time>
      </trkpt>
      <trkpt lat="-22.014240" lon="-44.965833">
        <ele>905.413</ele>
        <time>2019-10-17T14:24:46Z</time>
      </trkpt>
      <trkpt lat="-22.014270" lon="-44.965751">
        <ele>905.308</ele>
        <time>2019-10-17T14:24:48Z</time>
      </trkpt>
      <trkpt lat="-22.014296" lon="-44.965699">
        <ele>905.737</ele>
        <time>2019-10-17T14:24:50Z</time>
      </trkpt>
      <trkpt lat="-22.014335" lon="-44.965637">
        <ele>905.275</ele>
        <time>2019-10-17T14:24:52Z</time>
      </trkpt>
      <trkpt lat="-22.014369" lon="-44.965575">
        <ele>904.978</ele>
        <time>2019-10-17T14:24:54Z</time>
      </trkpt>
      <trkpt lat="-22.014408" lon="-44.965534">
        <ele>905.138</ele>
        <time>2019-10-17T14:24:56Z</time>
      </trkpt>
      <trkpt lat="-22.014458" lon="-44.965466">
        <ele>905.214</ele>
        <time>2019-10-17T14:24:58Z</time>
      </trkpt>
      <trkpt lat="-22.014490" lon="-44.965419">
        <ele>905.361</ele>
        <time>2019-10-17T14:24:59Z</time>
      </trkpt>
      <trkpt lat="-22.014534" lon="-44.965363">
        <ele>905.987</ele>
        <time>2019-10-17T14:25:02Z</time>
      </trkpt>
      <trkpt lat="-22.014574" lon="-44.965314">
        <ele>905.965</ele>
        <time>2019-10-17T14:25:04Z</time>
      </trkpt>
      <trkpt lat="-22.014611" lon="-44.965250">
        <ele>906.885</ele>
        <time>2019-10-17T14:25:06Z</time>
      </trkpt>
      <trkpt lat="-22.014662" lon="-44.965186">
        <ele>906.989</ele>
        <time>2019-10-17T14:25:09Z</time>
      </trkpt>
      <trkpt lat="-22.014706" lon="-44.965129">
        <ele>906.917</ele>
        <time>2019-10-17T14:25:11Z</time>
      </trkpt>
      <trkpt lat="-22.014776" lon="-44.965035">
        <ele>907.608</ele>
        <time>2019-10-17T14:25:14Z</time>
      </trkpt>
      <trkpt lat="-22.014814" lon="-44.964988">
        <ele>907.522</ele>
        <time>2019-10-17T14:25:16Z</time>
      </trkpt>
      <trkpt lat="-22.014842" lon="-44.964950">
        <ele>907.630</ele>
        <time>2019-10-17T14:25:17Z</time>
      </trkpt>
      <trkpt lat="-22.014876" lon="-44.964913">
        <ele>907.853</ele>
        <time>2019-10-17T14:25:19Z</time>
      </trkpt>
      <trkpt lat="-22.014936" lon="-44.964854">
        <ele>907.393</ele>
        <time>2019-10-17T14:25:22Z</time>
      </trkpt>
      <trkpt lat="-22.014999" lon="-44.964773">
        <ele>907.539</ele>
        <time>2019-10-17T14:25:24Z</time>
      </trkpt>
      <trkpt lat="-22.015035" lon="-44.964730">
        <ele>907.426</ele>
        <time>2019-10-17T14:25:26Z</time>
      </trkpt>
      <trkpt lat="-22.015069" lon="-44.964696">
        <ele>907.922</ele>
        <time>2019-10-17T14:25:28Z</time>
      </trkpt>
      <trkpt lat="-22.015144" lon="-44.964616">
        <ele>908.080</ele>
        <time>2019-10-17T14:25:31Z</time>
      </trkpt>
      <trkpt lat="-22.015183" lon="-44.964574">
        <ele>908.183</ele>
        <time>2019-10-17T14:25:33Z</time>
      </trkpt>
      <trkpt lat="-22.015241" lon="-44.964503">
        <ele>908.225</ele>
        <time>2019-10-17T14:25:35Z</time>
      </trkpt>
      <trkpt lat="-22.015309" lon="-44.964436">
        <ele>908.517</ele>
        <time>2019-10-17T14:25:38Z</time>
      </trkpt>
      <trkpt lat="-22.015343" lon="-44.964388">
        <ele>908.408</ele>
        <time>2019-10-17T14:25:40Z</time>
      </trkpt>
      <trkpt lat="-22.015381" lon="-44.964324">
        <ele>909.142</ele>
        <time>2019-10-17T14:25:42Z</time>
      </trkpt>
      <trkpt lat="-22.015411" lon="-44.964282">
        <ele>909.590</ele>
        <time>2019-10-17T14:25:44Z</time>
      </trkpt>
      <trkpt lat="-22.015449" lon="-44.964248">
        <ele>909.153</ele>
        <time>2019-10-17T14:25:45Z</time>
      </trkpt>
      <trkpt lat="-22.015481" lon="-44.964213">
        <ele>909.573</ele>
        <time>2019-10-17T14:25:47Z</time>
      </trkpt>
      <trkpt lat="-22.015531" lon="-44.964162">
        <ele>909.779</ele>
        <time>2019-10-17T14:25:49Z</time>
      </trkpt>
      <trkpt lat="-22.015566" lon="-44.964122">
        <ele>909.666</ele>
        <time>2019-10-17T14:25:52Z</time>
      </trkpt>
      <trkpt lat="-22.015604" lon="-44.964072">
        <ele>909.652</ele>
        <time>2019-10-17T14:25:54Z</time>
      </trkpt>
      <trkpt lat="-22.015639" lon="-44.964024">
        <ele>909.540</ele>
        <time>2019-10-17T14:25:55Z</time>
      </trkpt>
      <trkpt lat="-22.015676" lon="-44.963980">
        <ele>909.577</ele>
        <time>2019-10-17T14:25:57Z</time>
      </trkpt>
      <trkpt lat="-22.015719" lon="-44.963935">
        <ele>910.261</ele>
        <time>2019-10-17T14:25:59Z</time>
      </trkpt>
      <trkpt lat="-22.015758" lon="-44.963883">
        <ele>910.627</ele>
        <time>2019-10-17T14:26:02Z</time>
      </trkpt>
      <trkpt lat="-22.015794" lon="-44.963834">
        <ele>910.608</ele>
        <time>2019-10-17T14:26:04Z</time>
      </trkpt>
      <trkpt lat="-22.015831" lon="-44.963790">
        <ele>910.811</ele>
        <time>2019-10-17T14:26:06Z</time>
      </trkpt>
      <trkpt lat="-22.015865" lon="-44.963747">
        <ele>910.829</ele>
        <time>2019-10-17T14:26:08Z</time>
      </trkpt>
      <trkpt lat="-22.015906" lon="-44.963695">
        <ele>910.852</ele>
        <time>2019-10-17T14:26:10Z</time>
      </trkpt>
      <trkpt lat="-22.015944" lon="-44.963652">
        <ele>910.842</ele>
        <time>2019-10-17T14:26:11Z</time>
      </trkpt>
      <trkpt lat="-22.015978" lon="-44.963619">
        <ele>910.588</ele>
        <time>2019-10-17T14:26:13Z</time>
      </trkpt>
      <trkpt lat="-22.016022" lon="-44.963575">
        <ele>910.675</ele>
        <time>2019-10-17T14:26:15Z</time>
      </trkpt>
      <trkpt lat="-22.016049" lon="-44.963535">
        <ele>910.831</ele>
        <time>2019-10-17T14:26:17Z</time>
      </trkpt>
      <trkpt lat="-22.016086" lon="-44.963492">
        <ele>911.219</ele>
        <time>2019-10-17T14:26:18Z</time>
      </trkpt>
      <trkpt lat="-22.016122" lon="-44.963452">
        <ele>911.586</ele>
        <time>2019-10-17T14:26:20Z</time>
      </trkpt>
      <trkpt lat="-22.016155" lon="-44.963412">
        <ele>911.860</ele>
        <time>2019-10-17T14:26:22Z</time>
      </trkpt>
      <trkpt lat="-22.016190" lon="-44.963377">
        <ele>912.026</ele>
        <time>2019-10-17T14:26:23Z</time>
      </trkpt>
      <trkpt lat="-22.016243" lon="-44.963333">
        <ele>911.908</ele>
        <time>2019-10-17T14:26:25Z</time>
      </trkpt>
      <trkpt lat="-22.016294" lon="-44.963283">
        <ele>912.312</ele>
        <time>2019-10-17T14:26:28Z</time>
      </trkpt>
      <trkpt lat="-22.016351" lon="-44.963218">
        <ele>912.550</ele>
        <time>2019-10-17T14:26:30Z</time>
      </trkpt>
      <trkpt lat="-22.016392" lon="-44.963171">
        <ele>912.673</ele>
        <time>2019-10-17T14:26:33Z</time>
      </trkpt>
      <trkpt lat="-22.016423" lon="-44.963131">
        <ele>912.483</ele>
        <time>2019-10-17T14:26:34Z</time>
      </trkpt>
      <trkpt lat="-22.016457" lon="-44.963095">
        <ele>912.819</ele>
        <time>2019-10-17T14:26:36Z</time>
      </trkpt>
      <trkpt lat="-22.016494" lon="-44.963047">
        <ele>913.186</ele>
        <time>2019-10-17T14:26:38Z</time>
      </trkpt>
      <trkpt lat="-22.016550" lon="-44.962985">
        <ele>912.742</ele>
        <time>2019-10-17T14:26:40Z</time>
      </trkpt>
      <trkpt lat="-22.016584" lon="-44.962941">
        <ele>912.990</ele>
        <time>2019-10-17T14:26:42Z</time>
      </trkpt>
      <trkpt lat="-22.016616" lon="-44.962899">
        <ele>913.282</ele>
        <time>2019-10-17T14:26:43Z</time>
      </trkpt>
      <trkpt lat="-22.016652" lon="-44.962859">
        <ele>913.143</ele>
        <time>2019-10-17T14:26:45Z</time>
      </trkpt>
      <trkpt lat="-22.016701" lon="-44.962806">
        <ele>913.417</ele>
        <time>2019-10-17T14:26:47Z</time>
      </trkpt>
      <trkpt lat="-22.016740" lon="-44.962759">
        <ele>913.508</ele>
        <time>2019-10-17T14:26:49Z</time>
      </trkpt>
      <trkpt lat="-22.016777" lon="-44.962714">
        <ele>913.242</ele>
        <time>2019-10-17T14:26:50Z</time>
      </trkpt>
      <trkpt lat="-22.016853" lon="-44.962621">
        <ele>913.280</ele>
        <time>2019-10-17T14:26:53Z</time>
      </trkpt>
      <trkpt lat="-22.016895" lon="-44.962572">
        <ele>913.353</ele>
        <time>2019-10-17T14:26:55Z</time>
      </trkpt>
      <trkpt lat="-22.016935" lon="-44.962526">
        <ele>913.543</ele>
        <time>2019-10-17T14:26:57Z</time>
      </trkpt>
      <trkpt lat="-22.016985" lon="-44.962469">
        <ele>914.019</ele>
        <time>2019-10-17T14:26:59Z</time>
      </trkpt>
      <trkpt lat="-22.017020" lon="-44.962421">
        <ele>914.186</ele>
        <time>2019-10-17T14:27:00Z</time>
      </trkpt>
      <trkpt lat="-22.017056" lon="-44.962376">
        <ele>914.542</ele>
        <time>2019-10-17T14:27:02Z</time>
      </trkpt>
      <trkpt lat="-22.017097" lon="-44.962321">
        <ele>914.310</ele>
        <time>2019-10-17T14:27:04Z</time>
      </trkpt>
      <trkpt lat="-22.017136" lon="-44.962274">
        <ele>914.793</ele>
        <time>2019-10-17T14:27:06Z</time>
      </trkpt>
      <trkpt lat="-22.017177" lon="-44.962222">
        <ele>915.165</ele>
        <time>2019-10-17T14:27:07Z</time>
      </trkpt>
      <trkpt lat="-22.017205" lon="-44.962183">
        <ele>915.221</ele>
        <time>2019-10-17T14:27:09Z</time>
      </trkpt>
      <trkpt lat="-22.017241" lon="-44.962135">
        <ele>915.608</ele>
        <time>2019-10-17T14:27:11Z</time>
      </trkpt>
      <trkpt lat="-22.017287" lon="-44.962074">
        <ele>916.073</ele>
        <time>2019-10-17T14:27:13Z</time>
      </trkpt>
      <trkpt lat="-22.017313" lon="-44.962034">
        <ele>916.111</ele>
        <time>2019-10-17T14:27:15Z</time>
      </trkpt>
      <trkpt lat="-22.017367" lon="-44.961951">
        <ele>916.254</ele>
        <time>2019-10-17T14:27:18Z</time>
      </trkpt>
      <trkpt lat="-22.017387" lon="-44.961906">
        <ele>916.474</ele>
        <time>2019-10-17T14:27:19Z</time>
      </trkpt>
      <trkpt lat="-22.017411" lon="-44.961841">
        <ele>916.680</ele>
        <time>2019-10-17T14:27:22Z</time>
      </trkpt>
      <trkpt lat="-22.017437" lon="-44.961765">
        <ele>917.027</ele>
        <time>2019-10-17T14:27:24Z</time>
      </trkpt>
      <trkpt lat="-22.017455" lon="-44.961707">
        <ele>916.923</ele>
        <time>2019-10-17T14:27:26Z</time>
      </trkpt>
      <trkpt lat="-22.017477" lon="-44.961630">
        <ele>916.971</ele>
        <time>2019-10-17T14:27:28Z</time>
      </trkpt>
      <trkpt lat="-22.017494" lon="-44.961569">
        <ele>917.087</ele>
        <time>2019-10-17T14:27:30Z</time>
      </trkpt>
      <trkpt lat="-22.017511" lon="-44.961517">
        <ele>917.342</ele>
        <time>2019-10-17T14:27:31Z</time>
      </trkpt>
      <trkpt lat="-22.017529" lon="-44.961464">
        <ele>917.426</ele>
        <time>2019-10-17T14:27:33Z</time>
      </trkpt>
      <trkpt lat="-22.017551" lon="-44.961402">
        <ele>917.608</ele>
        <time>2019-10-17T14:27:35Z</time>
      </trkpt>
      <trkpt lat="-22.017566" lon="-44.961332">
        <ele>917.932</ele>
        <time>2019-10-17T14:27:37Z</time>
      </trkpt>
      <trkpt lat="-22.017577" lon="-44.961284">
        <ele>917.860</ele>
        <time>2019-10-17T14:27:38Z</time>
      </trkpt>
      <trkpt lat="-22.017588" lon="-44.961237">
        <ele>918.363</ele>
        <time>2019-10-17T14:27:40Z</time>
      </trkpt>
      <trkpt lat="-22.017596" lon="-44.961148">
        <ele>918.423</ele>
        <time>2019-10-17T14:27:43Z</time>
      </trkpt>
      <trkpt lat="-22.017618" lon="-44.961082">
        <ele>918.499</ele>
        <time>2019-10-17T14:27:45Z</time>
      </trkpt>
      <trkpt lat="-22.017637" lon="-44.961020">
        <ele>918.496</ele>
        <time>2019-10-17T14:27:47Z</time>
      </trkpt>
      <trkpt lat="-22.017664" lon="-44.960944">
        <ele>918.362</ele>
        <time>2019-10-17T14:27:50Z</time>
      </trkpt>
      <trkpt lat="-22.017676" lon="-44.960894">
        <ele>918.860</ele>
        <time>2019-10-17T14:27:52Z</time>
      </trkpt>
      <trkpt lat="-22.017683" lon="-44.960843">
        <ele>919.111</ele>
        <time>2019-10-17T14:27:54Z</time>
      </trkpt>
      <trkpt lat="-22.017698" lon="-44.960765">
        <ele>919.021</ele>
        <time>2019-10-17T14:27:57Z</time>
      </trkpt>
      <trkpt lat="-22.017707" lon="-44.960717">
        <ele>919.203</ele>
        <time>2019-10-17T14:27:59Z</time>
      </trkpt>
      <trkpt lat="-22.017722" lon="-44.960654">
        <ele>919.808</ele>
        <time>2019-10-17T14:28:02Z</time>
      </trkpt>
      <trkpt lat="-22.017738" lon="-44.960605">
        <ele>919.985</ele>
        <time>2019-10-17T14:28:04Z</time>
      </trkpt>
      <trkpt lat="-22.017755" lon="-44.960542">
        <ele>920.063</ele>
        <time>2019-10-17T14:28:06Z</time>
      </trkpt>
      <trkpt lat="-22.017775" lon="-44.960477">
        <ele>920.066</ele>
        <time>2019-10-17T14:28:08Z</time>
      </trkpt>
      <trkpt lat="-22.017780" lon="-44.960428">
        <ele>920.026</ele>
        <time>2019-10-17T14:28:10Z</time>
      </trkpt>
      <trkpt lat="-22.017792" lon="-44.960361">
        <ele>920.142</ele>
        <time>2019-10-17T14:28:12Z</time>
      </trkpt>
      <trkpt lat="-22.017813" lon="-44.960308">
        <ele>920.539</ele>
        <time>2019-10-17T14:28:14Z</time>
      </trkpt>
      <trkpt lat="-22.017858" lon="-44.960235">
        <ele>920.545</ele>
        <time>2019-10-17T14:28:16Z</time>
      </trkpt>
      <trkpt lat="-22.017876" lon="-44.960189">
        <ele>920.323</ele>
        <time>2019-10-17T14:28:18Z</time>
      </trkpt>
      <trkpt lat="-22.017893" lon="-44.960130">
        <ele>920.575</ele>
        <time>2019-10-17T14:28:20Z</time>
      </trkpt>
      <trkpt lat="-22.017910" lon="-44.960078">
        <ele>921.128</ele>
        <time>2019-10-17T14:28:21Z</time>
      </trkpt>
      <trkpt lat="-22.017934" lon="-44.960032">
        <ele>921.120</ele>
        <time>2019-10-17T14:28:23Z</time>
      </trkpt>
      <trkpt lat="-22.017994" lon="-44.959949">
        <ele>921.508</ele>
        <time>2019-10-17T14:28:26Z</time>
      </trkpt>
      <trkpt lat="-22.018032" lon="-44.959905">
        <ele>921.491</ele>
        <time>2019-10-17T14:28:28Z</time>
      </trkpt>
      <trkpt lat="-22.018062" lon="-44.959864">
        <ele>921.899</ele>
        <time>2019-10-17T14:28:30Z</time>
      </trkpt>
      <trkpt lat="-22.018094" lon="-44.959823">
        <ele>921.782</ele>
        <time>2019-10-17T14:28:31Z</time>
      </trkpt>
      <trkpt lat="-22.018134" lon="-44.959770">
        <ele>921.852</ele>
        <time>2019-10-17T14:28:34Z</time>
      </trkpt>
      <trkpt lat="-22.018164" lon="-44.959728">
        <ele>921.978</ele>
        <time>2019-10-17T14:28:35Z</time>
      </trkpt>
      <trkpt lat="-22.018195" lon="-44.959682">
        <ele>922.765</ele>
        <time>2019-10-17T14:28:37Z</time>
      </trkpt>
      <trkpt lat="-22.018227" lon="-44.959641">
        <ele>923.041</ele>
        <time>2019-10-17T14:28:38Z</time>
      </trkpt>
      <trkpt lat="-22.018270" lon="-44.959571">
        <ele>923.219</ele>
        <time>2019-10-17T14:28:41Z</time>
      </trkpt>
      <trkpt lat="-22.018316" lon="-44.959509">
        <ele>923.521</ele>
        <time>2019-10-17T14:28:44Z</time>
      </trkpt>
      <trkpt lat="-22.018347" lon="-44.959470">
        <ele>923.541</ele>
        <time>2019-10-17T14:28:45Z</time>
      </trkpt>
      <trkpt lat="-22.018379" lon="-44.959419">
        <ele>923.905</ele>
        <time>2019-10-17T14:28:48Z</time>
      </trkpt>
      <trkpt lat="-22.018423" lon="-44.959346">
        <ele>923.908</ele>
        <time>2019-10-17T14:28:50Z</time>
      </trkpt>
      <trkpt lat="-22.018462" lon="-44.959307">
        <ele>924.256</ele>
        <time>2019-10-17T14:28:52Z</time>
      </trkpt>
      <trkpt lat="-22.018514" lon="-44.959227">
        <ele>924.574</ele>
        <time>2019-10-17T14:28:55Z</time>
      </trkpt>
      <trkpt lat="-22.018535" lon="-44.959182">
        <ele>924.447</ele>
        <time>2019-10-17T14:28:57Z</time>
      </trkpt>
      <trkpt lat="-22.018559" lon="-44.959119">
        <ele>924.297</ele>
        <time>2019-10-17T14:28:59Z</time>
      </trkpt>
      <trkpt lat="-22.018585" lon="-44.959056">
        <ele>924.293</ele>
        <time>2019-10-17T14:29:02Z</time>
      </trkpt>
      <trkpt lat="-22.018616" lon="-44.959008">
        <ele>924.110</ele>
        <time>2019-10-17T14:29:04Z</time>
      </trkpt>
      <trkpt lat="-22.018638" lon="-44.958958">
        <ele>924.446</ele>
        <time>2019-10-17T14:29:06Z</time>
      </trkpt>
      <trkpt lat="-22.018659" lon="-44.958914">
        <ele>924.444</ele>
        <time>2019-10-17T14:29:07Z</time>
      </trkpt>
      <trkpt lat="-22.018684" lon="-44.958857">
        <ele>924.357</ele>
        <time>2019-10-17T14:29:09Z</time>
      </trkpt>
      <trkpt lat="-22.018706" lon="-44.958799">
        <ele>923.900</ele>
        <time>2019-10-17T14:29:11Z</time>
      </trkpt>
      <trkpt lat="-22.018723" lon="-44.958740">
        <ele>922.920</ele>
        <time>2019-10-17T14:29:12Z</time>
      </trkpt>
      <trkpt lat="-22.018740" lon="-44.958682">
        <ele>922.808</ele>
        <time>2019-10-17T14:29:14Z</time>
      </trkpt>
      <trkpt lat="-22.018757" lon="-44.958601">
        <ele>922.519</ele>
        <time>2019-10-17T14:29:16Z</time>
      </trkpt>
      <trkpt lat="-22.018768" lon="-44.958496">
        <ele>920.987</ele>
        <time>2019-10-17T14:29:19Z</time>
      </trkpt>
      <trkpt lat="-22.018763" lon="-44.958410">
        <ele>920.520</ele>
        <time>2019-10-17T14:29:21Z</time>
      </trkpt>
      <trkpt lat="-22.018756" lon="-44.958108">
        <ele>921.090</ele>
        <time>2019-10-17T14:29:27Z</time>
      </trkpt>
      <trkpt lat="-22.018757" lon="-44.958048">
        <ele>920.496</ele>
        <time>2019-10-17T14:29:29Z</time>
      </trkpt>
      <trkpt lat="-22.018738" lon="-44.957979">
        <ele>920.083</ele>
        <time>2019-10-17T14:29:30Z</time>
      </trkpt>
      <trkpt lat="-22.018711" lon="-44.957889">
        <ele>918.989</ele>
        <time>2019-10-17T14:29:32Z</time>
      </trkpt>
      <trkpt lat="-22.018687" lon="-44.957807">
        <ele>919.287</ele>
        <time>2019-10-17T14:29:34Z</time>
      </trkpt>
      <trkpt lat="-22.018289" lon="-44.956333">
        <ele>917.882</ele>
        <time>2019-10-17T14:30:03Z</time>
      </trkpt>
      <trkpt lat="-22.018224" lon="-44.956058">
        <ele>916.843</ele>
        <time>2019-10-17T14:30:09Z</time>
      </trkpt>
      <trkpt lat="-22.017652" lon="-44.954749">
        <ele>915.917</ele>
        <time>2019-10-17T14:30:36Z</time>
      </trkpt>
      <trkpt lat="-22.017617" lon="-44.954707">
        <ele>915.808</ele>
        <time>2019-10-17T14:30:38Z</time>
      </trkpt>
      <trkpt lat="-22.017568" lon="-44.954659">
        <ele>915.482</ele>
        <time>2019-10-17T14:30:39Z</time>
      </trkpt>
      <trkpt lat="-22.017502" lon="-44.954607">
        <ele>915.660</ele>
        <time>2019-10-17T14:30:41Z</time>
      </trkpt>
      <trkpt lat="-22.017432" lon="-44.954560">
        <ele>914.923</ele>
        <time>2019-10-17T14:30:43Z</time>
      </trkpt>
      <trkpt lat="-22.014790" lon="-44.953154">
        <ele>908.453</ele>
        <time>2019-10-17T14:31:46Z</time>
      </trkpt>
      <trkpt lat="-22.014726" lon="-44.953165">
        <ele>908.859</ele>
        <time>2019-10-17T14:31:48Z</time>
      </trkpt>
      <trkpt lat="-22.014645" lon="-44.953148">
        <ele>909.266</ele>
        <time>2019-10-17T14:31:50Z</time>
      </trkpt>
      <trkpt lat="-22.014561" lon="-44.953118">
        <ele>909.462</ele>
        <time>2019-10-17T14:31:52Z</time>
      </trkpt>
      <trkpt lat="-22.014497" lon="-44.953097">
        <ele>909.310</ele>
        <time>2019-10-17T14:31:54Z</time>
      </trkpt>
      <trkpt lat="-22.014197" lon="-44.952932">
        <ele>908.262</ele>
        <time>2019-10-17T14:32:02Z</time>
      </trkpt>
      <trkpt lat="-22.013686" lon="-44.951142">
        <ele>906.583</ele>
        <time>2019-10-17T14:32:41Z</time>
      </trkpt>
      <trkpt lat="-22.013657" lon="-44.950998">
        <ele>906.111</ele>
        <time>2019-10-17T14:32:44Z</time>
      </trkpt>
      <trkpt lat="-22.013632" lon="-44.950913">
        <ele>906.108</ele>
        <time>2019-10-17T14:32:46Z</time>
      </trkpt>
      <trkpt lat="-22.006980" lon="-44.945048">
        <ele>893.050</ele>
        <time>2019-10-17T14:35:53Z</time>
      </trkpt>
      <trkpt lat="-22.006927" lon="-44.945058">
        <ele>893.548</ele>
        <time>2019-10-17T14:35:54Z</time>
      </trkpt>
      <trkpt lat="-22.006461" lon="-44.945192">
        <ele>893.841</ele>
        <time>2019-10-17T14:36:05Z</time>
      </trkpt>
      <trkpt lat="-22.006412" lon="-44.945211">
        <ele>894.381</ele>
        <time>2019-10-17T14:36:06Z</time>
      </trkpt>
      <trkpt lat="-22.006367" lon="-44.945198">
        <ele>894.037</ele>
        <time>2019-10-17T14:36:08Z</time>
      </trkpt>
      <trkpt lat="-22.006290" lon="-44.945188">
        <ele>894.124</ele>
        <time>2019-10-17T14:36:10Z</time>
      </trkpt>
      <trkpt lat="-22.006223" lon="-44.945178">
        <ele>894.010</ele>
        <time>2019-10-17T14:36:12Z</time>
      </trkpt>
      <trkpt lat="-22.006124" lon="-44.945173">
        <ele>893.878</ele>
        <time>2019-10-17T14:36:14Z</time>
      </trkpt>
      <trkpt lat="-22.006063" lon="-44.945169">
        <ele>894.138</ele>
        <time>2019-10-17T14:36:16Z</time>
      </trkpt>
      <trkpt lat="-22.006018" lon="-44.945167">
        <ele>894.070</ele>
        <time>2019-10-17T14:36:17Z</time>
      </trkpt>
      <trkpt lat="-22.005952" lon="-44.945160">
        <ele>893.617</ele>
        <time>2019-10-17T14:36:19Z</time>
      </trkpt>
      <trkpt lat="-22.005827" lon="-44.945144">
        <ele>893.708</ele>
        <time>2019-10-17T14:36:22Z</time>
      </trkpt>
      <trkpt lat="-22.005768" lon="-44.945137">
        <ele>893.877</ele>
        <time>2019-10-17T14:36:24Z</time>
      </trkpt>
      <trkpt lat="-22.005690" lon="-44.945125">
        <ele>894.875</ele>
        <time>2019-10-17T14:36:26Z</time>
      </trkpt>
      <trkpt lat="-22.005625" lon="-44.945119">
        <ele>893.738</ele>
        <time>2019-10-17T14:36:27Z</time>
      </trkpt>
      <trkpt lat="-22.005566" lon="-44.945112">
        <ele>894.118</ele>
        <time>2019-10-17T14:36:29Z</time>
      </trkpt>
      <trkpt lat="-22.005508" lon="-44.945105">
        <ele>895.474</ele>
        <time>2019-10-17T14:36:31Z</time>
      </trkpt>
      <trkpt lat="-22.005422" lon="-44.945104">
        <ele>895.121</ele>
        <time>2019-10-17T14:36:33Z</time>
      </trkpt>
      <trkpt lat="-22.005377" lon="-44.945106">
        <ele>894.597</ele>
        <time>2019-10-17T14:36:34Z</time>
      </trkpt>
      <trkpt lat="-22.005316" lon="-44.945115">
        <ele>894.375</ele>
        <time>2019-10-17T14:36:36Z</time>
      </trkpt>
      <trkpt lat="-22.005156" lon="-44.945148">
        <ele>892.531</ele>
        <time>2019-10-17T14:36:39Z</time>
      </trkpt>
      <trkpt lat="-22.005101" lon="-44.945161">
        <ele>893.561</ele>
        <time>2019-10-17T14:36:41Z</time>
      </trkpt>
      <trkpt lat="-22.005052" lon="-44.945186">
        <ele>893.707</ele>
        <time>2019-10-17T14:36:42Z</time>
      </trkpt>
      <trkpt lat="-22.005009" lon="-44.945214">
        <ele>894.108</ele>
        <time>2019-10-17T14:36:44Z</time>
      </trkpt>
      <trkpt lat="-22.004941" lon="-44.945247">
        <ele>894.197</ele>
        <time>2019-10-17T14:36:46Z</time>
      </trkpt>
      <trkpt lat="-22.004893" lon="-44.945275">
        <ele>893.685</ele>
        <time>2019-10-17T14:36:48Z</time>
      </trkpt>
      <trkpt lat="-22.004825" lon="-44.945311">
        <ele>892.928</ele>
        <time>2019-10-17T14:36:50Z</time>
      </trkpt>
      <trkpt lat="-22.004774" lon="-44.945336">
        <ele>893.468</ele>
        <time>2019-10-17T14:36:51Z</time>
      </trkpt>
      <trkpt lat="-22.004674" lon="-44.945378">
        <ele>893.864</ele>
        <time>2019-10-17T14:36:55Z</time>
      </trkpt>
      <trkpt lat="-22.004608" lon="-44.945415">
        <ele>893.681</ele>
        <time>2019-10-17T14:36:57Z</time>
      </trkpt>
      <trkpt lat="-22.004545" lon="-44.945437">
        <ele>893.847</ele>
        <time>2019-10-17T14:36:59Z</time>
      </trkpt>
      <trkpt lat="-22.004439" lon="-44.945484">
        <ele>894.545</ele>
        <time>2019-10-17T14:37:02Z</time>
      </trkpt>
      <trkpt lat="-22.004384" lon="-44.945523">
        <ele>894.829</ele>
        <time>2019-10-17T14:37:03Z</time>
      </trkpt>
      <trkpt lat="-22.004287" lon="-44.945587">
        <ele>894.700</ele>
        <time>2019-10-17T14:37:07Z</time>
      </trkpt>
      <trkpt lat="-22.004233" lon="-44.945627">
        <ele>895.220</ele>
        <time>2019-10-17T14:37:08Z</time>
      </trkpt>
      <trkpt lat="-22.004181" lon="-44.945659">
        <ele>894.608</ele>
        <time>2019-10-17T14:37:10Z</time>
      </trkpt>
      <trkpt lat="-22.004127" lon="-44.945687">
        <ele>895.336</ele>
        <time>2019-10-17T14:37:12Z</time>
      </trkpt>
      <trkpt lat="-22.004050" lon="-44.945734">
        <ele>895.764</ele>
        <time>2019-10-17T14:37:14Z</time>
      </trkpt>
      <trkpt lat="-22.004001" lon="-44.945764">
        <ele>895.417</ele>
        <time>2019-10-17T14:37:16Z</time>
      </trkpt>
      <trkpt lat="-22.003943" lon="-44.945786">
        <ele>895.697</ele>
        <time>2019-10-17T14:37:18Z</time>
      </trkpt>
      <trkpt lat="-22.003870" lon="-44.945806">
        <ele>895.613</ele>
        <time>2019-10-17T14:37:20Z</time>
      </trkpt>
      <trkpt lat="-22.003819" lon="-44.945819">
        <ele>895.780</ele>
        <time>2019-10-17T14:37:21Z</time>
      </trkpt>
      <trkpt lat="-22.003757" lon="-44.945833">
        <ele>895.556</ele>
        <time>2019-10-17T14:37:22Z</time>
      </trkpt>
      <trkpt lat="-22.003694" lon="-44.945843">
        <ele>895.414</ele>
        <time>2019-10-17T14:37:24Z</time>
      </trkpt>
      <trkpt lat="-22.003623" lon="-44.945849">
        <ele>895.755</ele>
        <time>2019-10-17T14:37:26Z</time>
      </trkpt>
      <trkpt lat="-22.003544" lon="-44.945842">
        <ele>895.307</ele>
        <time>2019-10-17T14:37:28Z</time>
      </trkpt>
      <trkpt lat="-22.003483" lon="-44.945834">
        <ele>895.817</ele>
        <time>2019-10-17T14:37:30Z</time>
      </trkpt>
      <trkpt lat="-22.003358" lon="-44.945812">
        <ele>895.808</ele>
        <time>2019-10-17T14:37:33Z</time>
      </trkpt>
      <trkpt lat="-22.003295" lon="-44.945799">
        <ele>896.039</ele>
        <time>2019-10-17T14:37:35Z</time>
      </trkpt>
      <trkpt lat="-22.003250" lon="-44.945793">
        <ele>895.917</ele>
        <time>2019-10-17T14:37:36Z</time>
      </trkpt>
      <trkpt lat="-22.003190" lon="-44.945780">
        <ele>895.860</ele>
        <time>2019-10-17T14:37:37Z</time>
      </trkpt>
      <trkpt lat="-22.003086" lon="-44.945736">
        <ele>895.450</ele>
        <time>2019-10-17T14:37:40Z</time>
      </trkpt>
      <trkpt lat="-22.003024" lon="-44.945714">
        <ele>895.986</ele>
        <time>2019-10-17T14:37:42Z</time>
      </trkpt>
      <trkpt lat="-22.002965" lon="-44.945694">
        <ele>895.893</ele>
        <time>2019-10-17T14:37:43Z</time>
      </trkpt>
      <trkpt lat="-22.002910" lon="-44.945677">
        <ele>896.559</ele>
        <time>2019-10-17T14:37:45Z</time>
      </trkpt>
      <trkpt lat="-22.002868" lon="-44.945660">
        <ele>895.857</ele>
        <time>2019-10-17T14:37:46Z</time>
      </trkpt>
      <trkpt lat="-22.002811" lon="-44.945637">
        <ele>895.437</ele>
        <time>2019-10-17T14:37:48Z</time>
      </trkpt>
      <trkpt lat="-22.002758" lon="-44.945615">
        <ele>896.349</ele>
        <time>2019-10-17T14:37:49Z</time>
      </trkpt>
      <trkpt lat="-22.002709" lon="-44.945601">
        <ele>897.013</ele>
        <time>2019-10-17T14:37:51Z</time>
      </trkpt>
      <trkpt lat="-22.002655" lon="-44.945588">
        <ele>896.908</ele>
        <time>2019-10-17T14:37:52Z</time>
      </trkpt>
      <trkpt lat="-22.002609" lon="-44.945583">
        <ele>896.227</ele>
        <time>2019-10-17T14:37:54Z</time>
      </trkpt>
      <trkpt lat="-22.002527" lon="-44.945566">
        <ele>897.065</ele>
        <time>2019-10-17T14:37:57Z</time>
      </trkpt>
      <trkpt lat="-22.002471" lon="-44.945566">
        <ele>896.138</ele>
        <time>2019-10-17T14:37:59Z</time>
      </trkpt>
      <trkpt lat="-22.002419" lon="-44.945569">
        <ele>896.818</ele>
        <time>2019-10-17T14:38:00Z</time>
      </trkpt>
      <trkpt lat="-22.002358" lon="-44.945567">
        <ele>897.444</ele>
        <time>2019-10-17T14:38:02Z</time>
      </trkpt>
      <trkpt lat="-22.002303" lon="-44.945570">
        <ele>897.241</ele>
        <time>2019-10-17T14:38:04Z</time>
      </trkpt>
      <trkpt lat="-22.002231" lon="-44.945578">
        <ele>897.017</ele>
        <time>2019-10-17T14:38:06Z</time>
      </trkpt>
      <trkpt lat="-22.002143" lon="-44.945595">
        <ele>897.185</ele>
        <time>2019-10-17T14:38:08Z</time>
      </trkpt>
      <trkpt lat="-22.002084" lon="-44.945609">
        <ele>897.261</ele>
        <time>2019-10-17T14:38:10Z</time>
      </trkpt>
      <trkpt lat="-22.001977" lon="-44.945632">
        <ele>897.521</ele>
        <time>2019-10-17T14:38:13Z</time>
      </trkpt>
      <trkpt lat="-22.001926" lon="-44.945642">
        <ele>897.813</ele>
        <time>2019-10-17T14:38:15Z</time>
      </trkpt>
      <trkpt lat="-22.001825" lon="-44.945665">
        <ele>897.708</ele>
        <time>2019-10-17T14:38:17Z</time>
      </trkpt>
      <trkpt lat="-22.001724" lon="-44.945694">
        <ele>897.930</ele>
        <time>2019-10-17T14:38:21Z</time>
      </trkpt>
      <trkpt lat="-22.001669" lon="-44.945723">
        <ele>897.318</ele>
        <time>2019-10-17T14:38:23Z</time>
      </trkpt>
      <trkpt lat="-22.001607" lon="-44.945754">
        <ele>897.551</ele>
        <time>2019-10-17T14:38:25Z</time>
      </trkpt>
      <trkpt lat="-22.001559" lon="-44.945773">
        <ele>897.911</ele>
        <time>2019-10-17T14:38:26Z</time>
      </trkpt>
      <trkpt lat="-22.001495" lon="-44.945790">
        <ele>898.327</ele>
        <time>2019-10-17T14:38:28Z</time>
      </trkpt>
      <trkpt lat="-22.001444" lon="-44.945803">
        <ele>898.854</ele>
        <time>2019-10-17T14:38:30Z</time>
      </trkpt>
      <trkpt lat="-22.001374" lon="-44.945827">
        <ele>898.160</ele>
        <time>2019-10-17T14:38:32Z</time>
      </trkpt>
      <trkpt lat="-22.001308" lon="-44.945845">
        <ele>898.578</ele>
        <time>2019-10-17T14:38:34Z</time>
      </trkpt>
      <trkpt lat="-22.001261" lon="-44.945858">
        <ele>898.821</ele>
        <time>2019-10-17T14:38:36Z</time>
      </trkpt>
      <trkpt lat="-22.001192" lon="-44.945876">
        <ele>899.241</ele>
        <time>2019-10-17T14:38:38Z</time>
      </trkpt>
      <trkpt lat="-22.001120" lon="-44.945892">
        <ele>899.505</ele>
        <time>2019-10-17T14:38:40Z</time>
      </trkpt>
      <trkpt lat="-22.001066" lon="-44.945911">
        <ele>899.308</ele>
        <time>2019-10-17T14:38:41Z</time>
      </trkpt>
      <trkpt lat="-22.000952" lon="-44.945942">
        <ele>898.666</ele>
        <time>2019-10-17T14:38:45Z</time>
      </trkpt>
      <trkpt lat="-22.000884" lon="-44.945962">
        <ele>898.334</ele>
        <time>2019-10-17T14:38:47Z</time>
      </trkpt>
      <trkpt lat="-22.000819" lon="-44.945978">
        <ele>899.097</ele>
        <time>2019-10-17T14:38:48Z</time>
      </trkpt>
      <trkpt lat="-22.000743" lon="-44.945997">
        <ele>898.947</ele>
        <time>2019-10-17T14:38:51Z</time>
      </trkpt>
      <trkpt lat="-22.000668" lon="-44.946020">
        <ele>899.183</ele>
        <time>2019-10-17T14:38:53Z</time>
      </trkpt>
      <trkpt lat="-22.000604" lon="-44.946035">
        <ele>898.960</ele>
        <time>2019-10-17T14:38:55Z</time>
      </trkpt>
      <trkpt lat="-22.000548" lon="-44.946047">
        <ele>898.656</ele>
        <time>2019-10-17T14:38:56Z</time>
      </trkpt>
      <trkpt lat="-22.000497" lon="-44.946058">
        <ele>898.544</ele>
        <time>2019-10-17T14:38:58Z</time>
      </trkpt>
      <trkpt lat="-22.000440" lon="-44.946069">
        <ele>898.287</ele>
        <time>2019-10-17T14:39:00Z</time>
      </trkpt>
      <trkpt lat="-22.000367" lon="-44.946083">
        <ele>898.742</ele>
        <time>2019-10-17T14:39:02Z</time>
      </trkpt>
      <trkpt lat="-22.000297" lon="-44.946100">
        <ele>899.026</ele>
        <time>2019-10-17T14:39:04Z</time>
      </trkpt>
      <trkpt lat="-22.000234" lon="-44.946109">
        <ele>899.108</ele>
        <time>2019-10-17T14:39:05Z</time>
      </trkpt>
      <trkpt lat="-22.000155" lon="-44.946125">
        <ele>900.092</ele>
        <time>2019-10-17T14:39:08Z</time>
      </trkpt>
      <trkpt lat="-22.000000" lon="-44.946142">
        <ele>900.470</ele>
        <time>2019-10-17T14:39:11Z</time>
      </trkpt>
      <trkpt lat="-21.999939" lon="-44.946143">
        <ele>900.593</ele>
        <time>2019-10-17T14:39:13Z</time>
      </trkpt>
      <trkpt lat="-21.999880" lon="-44.946136">
        <ele>900.723</ele>
        <time>2019-10-17T14:39:15Z</time>
      </trkpt>
      <trkpt lat="-21.999793" lon="-44.946124">
        <ele>900.979</ele>
        <time>2019-10-17T14:39:17Z</time>
      </trkpt>
      <trkpt lat="-21.999719" lon="-44.946119">
        <ele>900.516</ele>
        <time>2019-10-17T14:39:19Z</time>
      </trkpt>
      <trkpt lat="-21.999662" lon="-44.946112">
        <ele>900.522</ele>
        <time>2019-10-17T14:39:21Z</time>
      </trkpt>
      <trkpt lat="-21.999543" lon="-44.946101">
        <ele>900.890</ele>
        <time>2019-10-17T14:39:24Z</time>
      </trkpt>
      <trkpt lat="-21.999473" lon="-44.946085">
        <ele>901.216</ele>
        <time>2019-10-17T14:39:26Z</time>
      </trkpt>
      <trkpt lat="-21.999379" lon="-44.946050">
        <ele>901.176</ele>
        <time>2019-10-17T14:39:28Z</time>
      </trkpt>
      <trkpt lat="-21.999292" lon="-44.946013">
        <ele>901.413</ele>
        <time>2019-10-17T14:39:30Z</time>
      </trkpt>
      <trkpt lat="-21.999210" lon="-44.945974">
        <ele>901.308</ele>
        <time>2019-10-17T14:39:33Z</time>
      </trkpt>
      <trkpt lat="-21.999131" lon="-44.945936">
        <ele>901.325</ele>
        <time>2019-10-17T14:39:35Z</time>
      </trkpt>
      <trkpt lat="-21.999072" lon="-44.945894">
        <ele>901.493</ele>
        <time>2019-10-17T14:39:36Z</time>
      </trkpt>
      <trkpt lat="-21.999003" lon="-44.945855">
        <ele>901.876</ele>
        <time>2019-10-17T14:39:39Z</time>
      </trkpt>
      <trkpt lat="-21.998943" lon="-44.945831">
        <ele>901.916</ele>
        <time>2019-10-17T14:39:40Z</time>
      </trkpt>
      <trkpt lat="-21.998889" lon="-44.945812">
        <ele>901.862</ele>
        <time>2019-10-17T14:39:42Z</time>
      </trkpt>
      <trkpt lat="-21.998835" lon="-44.945799">
        <ele>902.339</ele>
        <time>2019-10-17T14:39:44Z</time>
      </trkpt>
      <trkpt lat="-21.998748" lon="-44.945788">
        <ele>902.015</ele>
        <time>2019-10-17T14:39:46Z</time>
      </trkpt>
      <trkpt lat="-21.998666" lon="-44.945774">
        <ele>902.233</ele>
        <time>2019-10-17T14:39:48Z</time>
      </trkpt>
      <trkpt lat="-21.998594" lon="-44.945765">
        <ele>902.154</ele>
        <time>2019-10-17T14:39:51Z</time>
      </trkpt>
      <trkpt lat="-21.998504" lon="-44.945756">
        <ele>902.156</ele>
        <time>2019-10-17T14:39:55Z</time>
      </trkpt>
      <trkpt lat="-21.998459" lon="-44.945759">
        <ele>902.011</ele>
        <time>2019-10-17T14:39:57Z</time>
      </trkpt>
      <trkpt lat="-21.998407" lon="-44.945759">
        <ele>902.508</ele>
        <time>2019-10-17T14:39:59Z</time>
      </trkpt>
      <trkpt lat="-21.998358" lon="-44.945759">
        <ele>902.569</ele>
        <time>2019-10-17T14:40:01Z</time>
      </trkpt>
      <trkpt lat="-21.998288" lon="-44.945755">
        <ele>902.477</ele>
        <time>2019-10-17T14:40:03Z</time>
      </trkpt>
      <trkpt lat="-21.998242" lon="-44.945756">
        <ele>902.740</ele>
        <time>2019-10-17T14:40:04Z</time>
      </trkpt>
      <trkpt lat="-21.998187" lon="-44.945754">
        <ele>903.080</ele>
        <time>2019-10-17T14:40:06Z</time>
      </trkpt>
      <trkpt lat="-21.998142" lon="-44.945747">
        <ele>903.146</ele>
        <time>2019-10-17T14:40:08Z</time>
      </trkpt>
      <trkpt lat="-21.998077" lon="-44.945733">
        <ele>902.913</ele>
        <time>2019-10-17T14:40:10Z</time>
      </trkpt>
      <trkpt lat="-21.998008" lon="-44.945723">
        <ele>902.979</ele>
        <time>2019-10-17T14:40:12Z</time>
      </trkpt>
      <trkpt lat="-21.997944" lon="-44.945722">
        <ele>902.727</ele>
        <time>2019-10-17T14:40:14Z</time>
      </trkpt>
      <trkpt lat="-21.997867" lon="-44.945714">
        <ele>902.959</ele>
        <time>2019-10-17T14:40:16Z</time>
      </trkpt>
      <trkpt lat="-21.997804" lon="-44.945702">
        <ele>903.003</ele>
        <time>2019-10-17T14:40:18Z</time>
      </trkpt>
      <trkpt lat="-21.997748" lon="-44.945694">
        <ele>903.023</ele>
        <time>2019-10-17T14:40:19Z</time>
      </trkpt>
      <trkpt lat="-21.997633" lon="-44.945667">
        <ele>903.408</ele>
        <time>2019-10-17T14:40:22Z</time>
      </trkpt>
      <trkpt lat="-21.997577" lon="-44.945654">
        <ele>903.449</ele>
        <time>2019-10-17T14:40:24Z</time>
      </trkpt>
      <trkpt lat="-21.997524" lon="-44.945630">
        <ele>902.917</ele>
        <time>2019-10-17T14:40:25Z</time>
      </trkpt>
      <trkpt lat="-21.997473" lon="-44.945602">
        <ele>902.870</ele>
        <time>2019-10-17T14:40:27Z</time>
      </trkpt>
      <trkpt lat="-21.997371" lon="-44.945553">
        <ele>903.610</ele>
        <time>2019-10-17T14:40:29Z</time>
      </trkpt>
      <trkpt lat="-21.997323" lon="-44.945541">
        <ele>903.356</ele>
        <time>2019-10-17T14:40:31Z</time>
      </trkpt>
      <trkpt lat="-21.997279" lon="-44.945533">
        <ele>903.693</ele>
        <time>2019-10-17T14:40:32Z</time>
      </trkpt>
      <trkpt lat="-21.997205" lon="-44.945525">
        <ele>904.589</ele>
        <time>2019-10-17T14:40:34Z</time>
      </trkpt>
      <trkpt lat="-21.997149" lon="-44.945509">
        <ele>904.537</ele>
        <time>2019-10-17T14:40:36Z</time>
      </trkpt>
      <trkpt lat="-21.997091" lon="-44.945495">
        <ele>904.539</ele>
        <time>2019-10-17T14:40:38Z</time>
      </trkpt>
      <trkpt lat="-21.997038" lon="-44.945476">
        <ele>904.201</ele>
        <time>2019-10-17T14:40:40Z</time>
      </trkpt>
      <trkpt lat="-21.996974" lon="-44.945456">
        <ele>903.921</ele>
        <time>2019-10-17T14:40:42Z</time>
      </trkpt>
      <trkpt lat="-21.996860" lon="-44.945416">
        <ele>903.408</ele>
        <time>2019-10-17T14:40:45Z</time>
      </trkpt>
      <trkpt lat="-21.996817" lon="-44.945399">
        <ele>903.367</ele>
        <time>2019-10-17T14:40:46Z</time>
      </trkpt>
      <trkpt lat="-21.996752" lon="-44.945373">
        <ele>903.225</ele>
        <time>2019-10-17T14:40:48Z</time>
      </trkpt>
      <trkpt lat="-21.996631" lon="-44.945313">
        <ele>902.848</ele>
        <time>2019-10-17T14:40:51Z</time>
      </trkpt>
      <trkpt lat="-21.996555" lon="-44.945268">
        <ele>902.648</ele>
        <time>2019-10-17T14:40:52Z</time>
      </trkpt>
      <trkpt lat="-21.995334" lon="-44.945489">
        <ele>900.324</ele>
        <time>2019-10-17T14:41:21Z</time>
      </trkpt>
      <trkpt lat="-21.989469" lon="-44.945006">
        <ele>878.381</ele>
        <time>2019-10-17T14:43:45Z</time>
      </trkpt>
      <trkpt lat="-21.989448" lon="-44.944932">
        <ele>877.857</ele>
        <time>2019-10-17T14:43:46Z</time>
      </trkpt>
      <trkpt lat="-21.989433" lon="-44.944797">
        <ele>877.995</ele>
        <time>2019-10-17T14:43:49Z</time>
      </trkpt>
      <trkpt lat="-21.989557" lon="-44.943814">
        <ele>878.274</ele>
        <time>2019-10-17T14:44:57Z</time>
      </trkpt>
      <trkpt lat="-21.989540" lon="-44.943735">
        <ele>876.956</ele>
        <time>2019-10-17T14:44:59Z</time>
      </trkpt>
      <trkpt lat="-21.989535" lon="-44.943671">
        <ele>876.521</ele>
        <time>2019-10-17T14:45:01Z</time>
      </trkpt>
      <trkpt lat="-21.989535" lon="-44.943603">
        <ele>876.208</ele>
        <time>2019-10-17T14:45:02Z</time>
      </trkpt>
      <trkpt lat="-21.986421" lon="-44.943632">
        <ele>869.071</ele>
        <time>2019-10-17T14:46:13Z</time>
      </trkpt>
      <trkpt lat="-21.986410" lon="-44.943570">
        <ele>868.849</ele>
        <time>2019-10-17T14:46:15Z</time>
      </trkpt>
      <trkpt lat="-21.986393" lon="-44.943510">
        <ele>868.652</ele>
        <time>2019-10-17T14:46:16Z</time>
      </trkpt>
      <trkpt lat="-21.986382" lon="-44.943442">
        <ele>868.772</ele>
        <time>2019-10-17T14:46:18Z</time>
      </trkpt>
      <trkpt lat="-21.986400" lon="-44.941352">
        <ele>867.398</ele>
        <time>2019-10-17T14:47:01Z</time>
      </trkpt>
      <trkpt lat="-21.986398" lon="-44.941285">
        <ele>867.845</ele>
        <time>2019-10-17T14:47:03Z</time>
      </trkpt>
      <trkpt lat="-21.986397" lon="-44.941216">
        <ele>868.041</ele>
        <time>2019-10-17T14:47:04Z</time>
      </trkpt>
      <trkpt lat="-21.986393" lon="-44.941156">
        <ele>868.019</ele>
        <time>2019-10-17T14:47:06Z</time>
      </trkpt>
      <trkpt lat="-21.986397" lon="-44.941089">
        <ele>868.491</ele>
        <time>2019-10-17T14:47:08Z</time>
      </trkpt>
      <trkpt lat="-21.986448" lon="-44.940969">
        <ele>905.681</ele>
        <time>2019-10-17T14:48:47Z</time>
      </trkpt>
      <trkpt lat="-21.986543" lon="-44.941042">
        <ele>905.619</ele>
        <time>2019-10-17T14:45:08Z</time>
      </trkpt>
      <trkpt lat="-21.986540" lon="-44.940988">
        <ele>905.708</ele>
        <time>2019-10-17T14:45:26Z</time>
      </trkpt>
      <trkpt lat="-21.986528" lon="-44.940933">
        <ele>905.073</ele>
        <time>2019-10-17T14:50:23Z</time>
      </trkpt>
      <trkpt lat="-21.986517" lon="-44.940868">
        <ele>905.271</ele>
        <time>2019-10-17T14:50:26Z</time>
      </trkpt>
      <trkpt lat="-21.986510" lon="-44.940801">
        <ele>905.484</ele>
        <time>2019-10-17T14:50:28Z</time>
      </trkpt>
      <trkpt lat="-21.986507" lon="-44.940748">
        <ele>905.214</ele>
        <time>2019-10-17T14:50:30Z</time>
      </trkpt>
      <trkpt lat="-21.986519" lon="-44.940674">
        <ele>905.420</ele>
        <time>2019-10-17T14:50:33Z</time>
      </trkpt>
      <trkpt lat="-21.986528" lon="-44.940608">
        <ele>905.397</ele>
        <time>2019-10-17T14:50:35Z</time>
      </trkpt>
      <trkpt lat="-21.986539" lon="-44.940538">
        <ele>906.033</ele>
        <time>2019-10-17T14:50:37Z</time>
      </trkpt>
      <trkpt lat="-21.986552" lon="-44.940478">
        <ele>905.751</ele>
        <time>2019-10-17T14:50:39Z</time>
      </trkpt>
      <trkpt lat="-21.986566" lon="-44.940405">
        <ele>905.829</ele>
        <time>2019-10-17T14:50:41Z</time>
      </trkpt>
      <trkpt lat="-21.986571" lon="-44.940336">
        <ele>905.900</ele>
        <time>2019-10-17T14:50:43Z</time>
      </trkpt>
      <trkpt lat="-21.986580" lon="-44.940268">
        <ele>905.920</ele>
        <time>2019-10-17T14:50:45Z</time>
      </trkpt>
      <trkpt lat="-21.986578" lon="-44.940179">
        <ele>905.708</ele>
        <time>2019-10-17T14:50:47Z</time>
      </trkpt>
      <trkpt lat="-21.986580" lon="-44.940114">
        <ele>906.286</ele>
        <time>2019-10-17T14:50:49Z</time>
      </trkpt>
      <trkpt lat="-21.986583" lon="-44.940063">
        <ele>906.374</ele>
        <time>2019-10-17T14:50:51Z</time>
      </trkpt>
      <trkpt lat="-21.986580" lon="-44.939979">
        <ele>906.587</ele>
        <time>2019-10-17T14:50:54Z</time>
      </trkpt>
      <trkpt lat="-21.986567" lon="-44.939926">
        <ele>906.577</ele>
        <time>2019-10-17T14:50:55Z</time>
      </trkpt>
      <trkpt lat="-21.986550" lon="-44.939871">
        <ele>906.173</ele>
        <time>2019-10-17T14:50:57Z</time>
      </trkpt>
      <trkpt lat="-21.986509" lon="-44.939793">
        <ele>905.860</ele>
        <time>2019-10-17T14:51:00Z</time>
      </trkpt>
      <trkpt lat="-21.986468" lon="-44.939756">
        <ele>905.966</ele>
        <time>2019-10-17T14:51:01Z</time>
      </trkpt>
      <trkpt lat="-21.986419" lon="-44.939726">
        <ele>905.714</ele>
        <time>2019-10-17T14:51:03Z</time>
      </trkpt>
      <trkpt lat="-21.986373" lon="-44.939685">
        <ele>905.477</ele>
        <time>2019-10-17T14:51:05Z</time>
      </trkpt>
      <trkpt lat="-21.986338" lon="-44.939650">
        <ele>905.961</ele>
        <time>2019-10-17T14:51:07Z</time>
      </trkpt>
      <trkpt lat="-21.986275" lon="-44.939601">
        <ele>905.327</ele>
        <time>2019-10-17T14:51:10Z</time>
      </trkpt>
      <trkpt lat="-21.986196" lon="-44.939554">
        <ele>905.008</ele>
        <time>2019-10-17T14:51:13Z</time>
      </trkpt>
      <trkpt lat="-21.986159" lon="-44.939519">
        <ele>904.831</ele>
        <time>2019-10-17T14:51:15Z</time>
      </trkpt>
      <trkpt lat="-21.986123" lon="-44.939476">
        <ele>904.289</ele>
        <time>2019-10-17T14:51:16Z</time>
      </trkpt>
      <trkpt lat="-21.986028" lon="-44.939262">
        <ele>902.532</ele>
        <time>2019-10-17T14:51:21Z</time>
      </trkpt>
      <trkpt lat="-21.986034" lon="-44.939204">
        <ele>902.772</ele>
        <time>2019-10-17T14:51:23Z</time>
      </trkpt>
      <trkpt lat="-21.985975" lon="-44.938872">
        <ele>903.248</ele>
        <time>2019-10-17T14:51:33Z</time>
      </trkpt>
      <trkpt lat="-21.985959" lon="-44.938761">
        <ele>903.635</ele>
        <time>2019-10-17T14:51:35Z</time>
      </trkpt>
      <trkpt lat="-21.985939" lon="-44.938632">
        <ele>903.411</ele>
        <time>2019-10-17T14:51:38Z</time>
      </trkpt>
      <trkpt lat="-21.985861" lon="-44.938110">
        <ele>901.939</ele>
        <time>2019-10-17T14:51:52Z</time>
      </trkpt>
      <trkpt lat="-21.985853" lon="-44.938051">
        <ele>901.878</ele>
        <time>2019-10-17T14:51:53Z</time>
      </trkpt>
      <trkpt lat="-21.985831" lon="-44.937929">
        <ele>901.633</ele>
        <time>2019-10-17T14:51:56Z</time>
      </trkpt>
      <trkpt lat="-21.985784" lon="-44.937801">
        <ele>901.126</ele>
        <time>2019-10-17T14:52:00Z</time>
      </trkpt>
      <trkpt lat="-21.985723" lon="-44.937694">
        <ele>900.408</ele>
        <time>2019-10-17T14:52:04Z</time>
      </trkpt>
      <trkpt lat="-21.985554" lon="-44.937346">
        <ele>898.671</ele>
        <time>2019-10-17T14:52:11Z</time>
      </trkpt>
      <trkpt lat="-21.985511" lon="-44.937294">
        <ele>899.569</ele>
        <time>2019-10-17T14:52:31Z</time>
      </trkpt>
      <trkpt lat="-21.985477" lon="-44.937326">
        <ele>898.422</ele>
        <time>2019-10-17T14:53:45Z</time>
      </trkpt>
      <trkpt lat="-21.985485" lon="-44.937375">
        <ele>898.572</ele>
        <time>2019-10-17T14:54:00Z</time>
      </trkpt>
      <trkpt lat="-21.985490" lon="-44.937434">
        <ele>898.298</ele>
        <time>2019-10-17T14:54:15Z</time>
      </trkpt>
      <trkpt lat="-21.985516" lon="-44.937474">
        <ele>898.735</ele>
        <time>2019-10-17T14:54:18Z</time>
      </trkpt>
      <trkpt lat="-21.985567" lon="-44.937523">
        <ele>898.461</ele>
        <time>2019-10-17T14:54:21Z</time>
      </trkpt>
      <trkpt lat="-21.985611" lon="-44.937557">
        <ele>898.559</ele>
        <time>2019-10-17T14:54:23Z</time>
      </trkpt>
      <trkpt lat="-21.985650" lon="-44.937591">
        <ele>898.553</ele>
        <time>2019-10-17T14:54:25Z</time>
      </trkpt>
      <trkpt lat="-21.985692" lon="-44.937627">
        <ele>898.804</ele>
        <time>2019-10-17T14:59:21Z</time>
      </trkpt>
      <trkpt lat="-21.985746" lon="-44.937678">
        <ele>899.314</ele>
        <time>2019-10-17T14:59:24Z</time>
      </trkpt>
      <trkpt lat="-21.985785" lon="-44.937712">
        <ele>899.908</ele>
        <time>2019-10-17T14:59:26Z</time>
      </trkpt>
      <trkpt lat="-21.985847" lon="-44.937736">
        <ele>900.529</ele>
        <time>2019-10-17T14:59:29Z</time>
      </trkpt>
      <trkpt lat="-21.985909" lon="-44.937746">
        <ele>902.237</ele>
        <time>2019-10-17T14:59:35Z</time>
      </trkpt>
      <trkpt lat="-21.985961" lon="-44.937750">
        <ele>903.090</ele>
        <time>2019-10-17T14:59:40Z</time>
      </trkpt>
      <trkpt lat="-21.985999" lon="-44.937780">
        <ele>903.810</ele>
        <time>2019-10-17T14:59:42Z</time>
      </trkpt>
      <trkpt lat="-21.986033" lon="-44.937813">
        <ele>904.036</ele>
        <time>2019-10-17T14:59:44Z</time>
      </trkpt>
      <trkpt lat="-21.986077" lon="-44.937836">
        <ele>904.533</ele>
        <time>2019-10-17T14:59:47Z</time>
      </trkpt>
      <trkpt lat="-21.986143" lon="-44.937831">
        <ele>905.419</ele>
        <time>2019-10-17T14:59:54Z</time>
      </trkpt>
      <trkpt lat="-21.986069" lon="-44.937508">
        <ele>905.167</ele>
        <time>2019-10-17T15:00:25Z</time>
      </trkpt>
      <trkpt lat="-21.986056" lon="-44.937432">
        <ele>905.544</ele>
        <time>2019-10-17T15:00:29Z</time>
      </trkpt>
      <trkpt lat="-21.986043" lon="-44.937367">
        <ele>905.405</ele>
        <time>2019-10-17T15:00:32Z</time>
      </trkpt>
      <trkpt lat="-21.985995" lon="-44.937211">
        <ele>906.015</ele>
        <time>2019-10-17T15:00:40Z</time>
      </trkpt>
      <trkpt lat="-21.985973" lon="-44.937086">
        <ele>906.308</ele>
        <time>2019-10-17T15:00:45Z</time>
      </trkpt>
      <trkpt lat="-21.985930" lon="-44.936942">
        <ele>906.858</ele>
        <time>2019-10-17T15:00:50Z</time>
      </trkpt>
      <trkpt lat="-21.985913" lon="-44.936845">
        <ele>907.076</ele>
        <time>2019-10-17T15:00:55Z</time>
      </trkpt>
      <trkpt lat="-21.985870" lon="-44.936634">
        <ele>907.939</ele>
        <time>2019-10-17T15:01:02Z</time>
      </trkpt>
      <trkpt lat="-21.985834" lon="-44.936451">
        <ele>908.289</ele>
        <time>2019-10-17T15:01:09Z</time>
      </trkpt>
      <trkpt lat="-21.985818" lon="-44.936387">
        <ele>908.285</ele>
        <time>2019-10-17T15:01:12Z</time>
      </trkpt>
      <trkpt lat="-21.985806" lon="-44.936329">
        <ele>908.582</ele>
        <time>2019-10-17T15:01:15Z</time>
      </trkpt>
      <trkpt lat="-21.985768" lon="-44.936200">
        <ele>908.838</ele>
        <time>2019-10-17T15:01:20Z</time>
      </trkpt>
      <trkpt lat="-21.985753" lon="-44.936011">
        <ele>908.856</ele>
        <time>2019-10-17T15:01:27Z</time>
      </trkpt>
      <trkpt lat="-21.985720" lon="-44.935742">
        <ele>909.687</ele>
        <time>2019-10-17T15:01:38Z</time>
      </trkpt>
      <trkpt lat="-21.985663" lon="-44.935253">
        <ele>909.842</ele>
        <time>2019-10-17T15:01:55Z</time>
      </trkpt>
      <trkpt lat="-21.985661" lon="-44.935191">
        <ele>910.126</ele>
        <time>2019-10-17T15:01:58Z</time>
      </trkpt>
      <trkpt lat="-21.985651" lon="-44.935118">
        <ele>910.208</ele>
        <time>2019-10-17T15:02:01Z</time>
      </trkpt>
      <trkpt lat="-21.985645" lon="-44.935013">
        <ele>910.552</ele>
        <time>2019-10-17T15:02:04Z</time>
      </trkpt>
      <trkpt lat="-21.985646" lon="-44.934914">
        <ele>910.870</ele>
        <time>2019-10-17T15:02:08Z</time>
      </trkpt>
      <trkpt lat="-21.985648" lon="-44.934849">
        <ele>910.783</ele>
        <time>2019-10-17T15:02:10Z</time>
      </trkpt>
      <trkpt lat="-21.985653" lon="-44.934786">
        <ele>910.423</ele>
        <time>2019-10-17T15:02:12Z</time>
      </trkpt>
      <trkpt lat="-21.985659" lon="-44.934729">
        <ele>910.569</ele>
        <time>2019-10-17T15:02:14Z</time>
      </trkpt>
      <trkpt lat="-21.985666" lon="-44.934655">
        <ele>911.136</ele>
        <time>2019-10-17T15:02:17Z</time>
      </trkpt>
      <trkpt lat="-21.985677" lon="-44.934601">
        <ele>911.422</ele>
        <time>2019-10-17T15:02:19Z</time>
      </trkpt>
      <trkpt lat="-21.985689" lon="-44.934549">
        <ele>911.650</ele>
        <time>2019-10-17T15:02:21Z</time>
      </trkpt>
      <trkpt lat="-21.985708" lon="-44.934472">
        <ele>911.672</ele>
        <time>2019-10-17T15:02:24Z</time>
      </trkpt>
      <trkpt lat="-21.985733" lon="-44.934352">
        <ele>912.413</ele>
        <time>2019-10-17T15:02:29Z</time>
      </trkpt>
      <trkpt lat="-21.985759" lon="-44.934261">
        <ele>912.314</ele>
        <time>2019-10-17T15:02:32Z</time>
      </trkpt>
      <trkpt lat="-21.985789" lon="-44.934134">
        <ele>912.808</ele>
        <time>2019-10-17T15:02:37Z</time>
      </trkpt>
      <trkpt lat="-21.985815" lon="-44.934057">
        <ele>913.281</ele>
        <time>2019-10-17T15:02:40Z</time>
      </trkpt>
      <trkpt lat="-21.985837" lon="-44.933989">
        <ele>913.569</ele>
        <time>2019-10-17T15:02:42Z</time>
      </trkpt>
      <trkpt lat="-21.985878" lon="-44.933897">
        <ele>913.892</ele>
        <time>2019-10-17T15:02:47Z</time>
      </trkpt>
      <trkpt lat="-21.985909" lon="-44.933859">
        <ele>913.972</ele>
        <time>2019-10-17T15:02:48Z</time>
      </trkpt>
      <trkpt lat="-21.985957" lon="-44.933784">
        <ele>914.088</ele>
        <time>2019-10-17T15:02:51Z</time>
      </trkpt>
      <trkpt lat="-21.985982" lon="-44.933731">
        <ele>914.135</ele>
        <time>2019-10-17T15:02:53Z</time>
      </trkpt>
      <trkpt lat="-21.986012" lon="-44.933678">
        <ele>914.251</ele>
        <time>2019-10-17T15:02:55Z</time>
      </trkpt>
      <trkpt lat="-21.986104" lon="-44.933507">
        <ele>915.259</ele>
        <time>2019-10-17T15:03:03Z</time>
      </trkpt>
      <trkpt lat="-21.986145" lon="-44.933433">
        <ele>915.449</ele>
        <time>2019-10-17T15:03:06Z</time>
      </trkpt>
      <trkpt lat="-21.986220" lon="-44.933318">
        <ele>915.702</ele>
        <time>2019-10-17T15:03:11Z</time>
      </trkpt>
      <trkpt lat="-21.986249" lon="-44.933263">
        <ele>915.722</ele>
        <time>2019-10-17T15:03:13Z</time>
      </trkpt>
      <trkpt lat="-21.986290" lon="-44.933202">
        <ele>915.008</ele>
        <time>2019-10-17T15:03:16Z</time>
      </trkpt>
      <trkpt lat="-21.986337" lon="-44.933139">
        <ele>915.488</ele>
        <time>2019-10-17T15:03:18Z</time>
      </trkpt>
      <trkpt lat="-21.986368" lon="-44.933103">
        <ele>915.886</ele>
        <time>2019-10-17T15:03:20Z</time>
      </trkpt>
      <trkpt lat="-21.986424" lon="-44.933042">
        <ele>916.599</ele>
        <time>2019-10-17T15:03:23Z</time>
      </trkpt>
      <trkpt lat="-21.986466" lon="-44.932986">
        <ele>916.419</ele>
        <time>2019-10-17T15:03:26Z</time>
      </trkpt>
      <trkpt lat="-21.986515" lon="-44.932917">
        <ele>916.345</ele>
        <time>2019-10-17T15:03:29Z</time>
      </trkpt>
      <trkpt lat="-21.986552" lon="-44.932853">
        <ele>916.582</ele>
        <time>2019-10-17T15:03:32Z</time>
      </trkpt>
      <trkpt lat="-21.986583" lon="-44.932805">
        <ele>916.818</ele>
        <time>2019-10-17T15:03:34Z</time>
      </trkpt>
      <trkpt lat="-21.986622" lon="-44.932737">
        <ele>917.246</ele>
        <time>2019-10-17T15:03:37Z</time>
      </trkpt>
      <trkpt lat="-21.986647" lon="-44.932690">
        <ele>918.087</ele>
        <time>2019-10-17T15:03:39Z</time>
      </trkpt>
      <trkpt lat="-21.986723" lon="-44.932577">
        <ele>919.042</ele>
        <time>2019-10-17T15:03:44Z</time>
      </trkpt>
      <trkpt lat="-21.986755" lon="-44.932522">
        <ele>919.026</ele>
        <time>2019-10-17T15:03:47Z</time>
      </trkpt>
      <trkpt lat="-21.986792" lon="-44.932465">
        <ele>919.208</ele>
        <time>2019-10-17T15:03:50Z</time>
      </trkpt>
      <trkpt lat="-21.986865" lon="-44.932348">
        <ele>920.582</ele>
        <time>2019-10-17T15:03:57Z</time>
      </trkpt>
      <trkpt lat="-21.986917" lon="-44.932267">
        <ele>920.910</ele>
        <time>2019-10-17T15:04:01Z</time>
      </trkpt>
      <trkpt lat="-21.986961" lon="-44.932194">
        <ele>920.953</ele>
        <time>2019-10-17T15:04:04Z</time>
      </trkpt>
      <trkpt lat="-21.987001" lon="-44.932131">
        <ele>921.633</ele>
        <time>2019-10-17T15:04:07Z</time>
      </trkpt>
      <trkpt lat="-21.987068" lon="-44.932028">
        <ele>922.329</ele>
        <time>2019-10-17T15:04:13Z</time>
      </trkpt>
      <trkpt lat="-21.987112" lon="-44.931965">
        <ele>922.716</ele>
        <time>2019-10-17T15:04:16Z</time>
      </trkpt>
      <trkpt lat="-21.987138" lon="-44.931919">
        <ele>923.042</ele>
        <time>2019-10-17T15:04:20Z</time>
      </trkpt>
      <trkpt lat="-21.987188" lon="-44.931861">
        <ele>923.370</ele>
        <time>2019-10-17T15:04:24Z</time>
      </trkpt>
      <trkpt lat="-21.987253" lon="-44.931779">
        <ele>923.671</ele>
        <time>2019-10-17T15:04:28Z</time>
      </trkpt>
      <trkpt lat="-21.987303" lon="-44.931707">
        <ele>923.941</ele>
        <time>2019-10-17T15:04:31Z</time>
      </trkpt>
      <trkpt lat="-21.987336" lon="-44.931663">
        <ele>923.815</ele>
        <time>2019-10-17T15:04:33Z</time>
      </trkpt>
      <trkpt lat="-21.987367" lon="-44.931608">
        <ele>923.608</ele>
        <time>2019-10-17T15:04:36Z</time>
      </trkpt>
      <trkpt lat="-21.987387" lon="-44.931546">
        <ele>923.561</ele>
        <time>2019-10-17T15:04:41Z</time>
      </trkpt>
      <trkpt lat="-21.987465" lon="-44.931486">
        <ele>923.029</ele>
        <time>2019-10-17T15:04:43Z</time>
      </trkpt>
      <trkpt lat="-21.987530" lon="-44.931428">
        <ele>922.722</ele>
        <time>2019-10-17T15:04:45Z</time>
      </trkpt>
      <trkpt lat="-21.987567" lon="-44.931393">
        <ele>922.182</ele>
        <time>2019-10-17T15:04:47Z</time>
      </trkpt>
      <trkpt lat="-21.987593" lon="-44.931351">
        <ele>920.878</ele>
        <time>2019-10-17T15:04:49Z</time>
      </trkpt>
      <trkpt lat="-21.992969" lon="-44.925419">
        <ele>893.755</ele>
        <time>2019-10-17T15:08:21Z</time>
      </trkpt>
      <trkpt lat="-21.992927" lon="-44.925441">
        <ele>893.611</ele>
        <time>2019-10-17T15:08:22Z</time>
      </trkpt>
      <trkpt lat="-21.992165" lon="-44.923789">
        <ele>898.959</ele>
        <time>2019-10-17T15:09:27Z</time>
      </trkpt>
      <trkpt lat="-21.992094" lon="-44.923742">
        <ele>898.585</ele>
        <time>2019-10-17T15:09:34Z</time>
      </trkpt>
      <trkpt lat="-21.992063" lon="-44.923669">
        <ele>898.889</ele>
        <time>2019-10-17T15:09:35Z</time>
      </trkpt>
      <trkpt lat="-21.992033" lon="-44.923611">
        <ele>899.417</ele>
        <time>2019-10-17T15:09:37Z</time>
      </trkpt>
      <trkpt lat="-21.991996" lon="-44.923552">
        <ele>899.208</ele>
        <time>2019-10-17T15:09:39Z</time>
      </trkpt>
      <trkpt lat="-21.991967" lon="-44.923510">
        <ele>899.432</ele>
        <time>2019-10-17T15:09:41Z</time>
      </trkpt>
      <trkpt lat="-21.991955" lon="-44.923461">
        <ele>899.830</ele>
        <time>2019-10-17T15:09:43Z</time>
      </trkpt>
      <trkpt lat="-21.991926" lon="-44.923405">
        <ele>900.373</ele>
        <time>2019-10-17T15:09:48Z</time>
      </trkpt>
      <trkpt lat="-21.991903" lon="-44.923358">
        <ele>900.033</ele>
        <time>2019-10-17T15:09:50Z</time>
      </trkpt>
      <trkpt lat="-21.991874" lon="-44.923298">
        <ele>900.059</ele>
        <time>2019-10-17T15:09:52Z</time>
      </trkpt>
      <trkpt lat="-21.991839" lon="-44.923234">
        <ele>899.956</ele>
        <time>2019-10-17T15:09:54Z</time>
      </trkpt>
      <trkpt lat="-21.991814" lon="-44.923176">
        <ele>900.512</ele>
        <time>2019-10-17T15:09:56Z</time>
      </trkpt>
      <trkpt lat="-21.991794" lon="-44.923098">
        <ele>900.540</ele>
        <time>2019-10-17T15:09:59Z</time>
      </trkpt>
      <trkpt lat="-21.991763" lon="-44.922924">
        <ele>900.937</ele>
        <time>2019-10-17T15:10:04Z</time>
      </trkpt>
      <trkpt lat="-21.991734" lon="-44.922824">
        <ele>899.349</ele>
        <time>2019-10-17T15:10:07Z</time>
      </trkpt>
      <trkpt lat="-21.991710" lon="-44.922760">
        <ele>899.113</ele>
        <time>2019-10-17T15:10:09Z</time>
      </trkpt>
      <trkpt lat="-21.991687" lon="-44.922707">
        <ele>899.008</ele>
        <time>2019-10-17T15:10:11Z</time>
      </trkpt>
      <trkpt lat="-21.991646" lon="-44.922610">
        <ele>899.317</ele>
        <time>2019-10-17T15:10:14Z</time>
      </trkpt>
      <trkpt lat="-21.991623" lon="-44.922563">
        <ele>899.365</ele>
        <time>2019-10-17T15:10:16Z</time>
      </trkpt>
      <trkpt lat="-21.991583" lon="-44.922509">
        <ele>899.038</ele>
        <time>2019-10-17T15:10:18Z</time>
      </trkpt>
      <trkpt lat="-21.991536" lon="-44.922433">
        <ele>899.458</ele>
        <time>2019-10-17T15:10:21Z</time>
      </trkpt>
      <trkpt lat="-21.991503" lon="-44.922380">
        <ele>900.084</ele>
        <time>2019-10-17T15:10:24Z</time>
      </trkpt>
      <trkpt lat="-21.991452" lon="-44.922312">
        <ele>900.571</ele>
        <time>2019-10-17T15:10:28Z</time>
      </trkpt>
      <trkpt lat="-21.991427" lon="-44.922271">
        <ele>900.527</ele>
        <time>2019-10-17T15:10:30Z</time>
      </trkpt>
      <trkpt lat="-21.991358" lon="-44.922220">
        <ele>900.525</ele>
        <time>2019-10-17T15:10:33Z</time>
      </trkpt>
      <trkpt lat="-21.991279" lon="-44.922167">
        <ele>901.138</ele>
        <time>2019-10-17T15:10:37Z</time>
      </trkpt>
      <trkpt lat="-21.991232" lon="-44.922136">
        <ele>901.370</ele>
        <time>2019-10-17T15:10:39Z</time>
      </trkpt>
      <trkpt lat="-21.991190" lon="-44.922105">
        <ele>901.317</ele>
        <time>2019-10-17T15:10:41Z</time>
      </trkpt>
      <trkpt lat="-21.991149" lon="-44.922072">
        <ele>901.108</ele>
        <time>2019-10-17T15:10:42Z</time>
      </trkpt>
      <trkpt lat="-21.991113" lon="-44.922041">
        <ele>900.977</ele>
        <time>2019-10-17T15:10:44Z</time>
      </trkpt>
      <trkpt lat="-21.991076" lon="-44.922006">
        <ele>900.725</ele>
        <time>2019-10-17T15:10:46Z</time>
      </trkpt>
      <trkpt lat="-21.991011" lon="-44.921942">
        <ele>901.018</ele>
        <time>2019-10-17T15:10:49Z</time>
      </trkpt>
      <trkpt lat="-21.990954" lon="-44.921890">
        <ele>900.988</ele>
        <time>2019-10-17T15:10:52Z</time>
      </trkpt>
      <trkpt lat="-21.990905" lon="-44.921844">
        <ele>900.644</ele>
        <time>2019-10-17T15:10:54Z</time>
      </trkpt>
      <trkpt lat="-21.990802" lon="-44.921749">
        <ele>900.881</ele>
        <time>2019-10-17T15:10:57Z</time>
      </trkpt>
      <trkpt lat="-21.990705" lon="-44.921660">
        <ele>902.177</ele>
        <time>2019-10-17T15:11:02Z</time>
      </trkpt>
      <trkpt lat="-21.990661" lon="-44.921612">
        <ele>902.495</ele>
        <time>2019-10-17T15:11:05Z</time>
      </trkpt>
      <trkpt lat="-21.990615" lon="-44.921552">
        <ele>902.324</ele>
        <time>2019-10-17T15:11:08Z</time>
      </trkpt>
      <trkpt lat="-21.990564" lon="-44.921500">
        <ele>902.504</ele>
        <time>2019-10-17T15:11:11Z</time>
      </trkpt>
      <trkpt lat="-21.990516" lon="-44.921439">
        <ele>902.914</ele>
        <time>2019-10-17T15:11:15Z</time>
      </trkpt>
      <trkpt lat="-21.990485" lon="-44.921388">
        <ele>902.808</ele>
        <time>2019-10-17T15:11:17Z</time>
      </trkpt>
      <trkpt lat="-21.990459" lon="-44.921302">
        <ele>903.056</ele>
        <time>2019-10-17T15:11:20Z</time>
      </trkpt>
      <trkpt lat="-21.990447" lon="-44.921246">
        <ele>903.554</ele>
        <time>2019-10-17T15:11:21Z</time>
      </trkpt>
      <trkpt lat="-21.990419" lon="-44.921185">
        <ele>902.747</ele>
        <time>2019-10-17T15:11:25Z</time>
      </trkpt>
      <trkpt lat="-21.990400" lon="-44.921118">
        <ele>903.227</ele>
        <time>2019-10-17T15:11:27Z</time>
      </trkpt>
      <trkpt lat="-21.990379" lon="-44.921008">
        <ele>903.773</ele>
        <time>2019-10-17T15:11:31Z</time>
      </trkpt>
      <trkpt lat="-21.990367" lon="-44.920938">
        <ele>903.850</ele>
        <time>2019-10-17T15:11:33Z</time>
      </trkpt>
      <trkpt lat="-21.990358" lon="-44.920864">
        <ele>904.256</ele>
        <time>2019-10-17T15:11:36Z</time>
      </trkpt>
      <trkpt lat="-21.990360" lon="-44.920808">
        <ele>904.464</ele>
        <time>2019-10-17T15:11:37Z</time>
      </trkpt>
      <trkpt lat="-21.990363" lon="-44.920756">
        <ele>904.385</ele>
        <time>2019-10-17T15:11:39Z</time>
      </trkpt>
      <trkpt lat="-21.990363" lon="-44.920679">
        <ele>905.289</ele>
        <time>2019-10-17T15:11:42Z</time>
      </trkpt>
      <trkpt lat="-21.990371" lon="-44.920601">
        <ele>905.717</ele>
        <time>2019-10-17T15:11:44Z</time>
      </trkpt>
      <trkpt lat="-21.990375" lon="-44.920551">
        <ele>905.908</ele>
        <time>2019-10-17T15:11:46Z</time>
      </trkpt>
      <trkpt lat="-21.990381" lon="-44.920475">
        <ele>905.012</ele>
        <time>2019-10-17T15:11:49Z</time>
      </trkpt>
      <trkpt lat="-21.990387" lon="-44.920383">
        <ele>905.290</ele>
        <time>2019-10-17T15:11:52Z</time>
      </trkpt>
      <trkpt lat="-21.990399" lon="-44.920321">
        <ele>905.523</ele>
        <time>2019-10-17T15:11:53Z</time>
      </trkpt>
      <trkpt lat="-21.990411" lon="-44.920273">
        <ele>905.613</ele>
        <time>2019-10-17T15:11:54Z</time>
      </trkpt>
      <trkpt lat="-21.990428" lon="-44.920200">
        <ele>906.019</ele>
        <time>2019-10-17T15:11:57Z</time>
      </trkpt>
      <trkpt lat="-21.990453" lon="-44.920145">
        <ele>906.066</ele>
        <time>2019-10-17T15:11:59Z</time>
      </trkpt>
      <trkpt lat="-21.990472" lon="-44.920093">
        <ele>906.022</ele>
        <time>2019-10-17T15:12:00Z</time>
      </trkpt>
      <trkpt lat="-21.990489" lon="-44.920038">
        <ele>905.760</ele>
        <time>2019-10-17T15:12:02Z</time>
      </trkpt>
      <trkpt lat="-21.990502" lon="-44.919991">
        <ele>905.717</ele>
        <time>2019-10-17T15:12:03Z</time>
      </trkpt>
      <trkpt lat="-21.990534" lon="-44.919946">
        <ele>906.987</ele>
        <time>2019-10-17T15:12:09Z</time>
      </trkpt>
      <trkpt lat="-21.990535" lon="-44.920001">
        <ele>907.815</ele>
        <time>2019-10-17T15:15:01Z</time>
      </trkpt>
      <trkpt lat="-21.990530" lon="-44.919928">
        <ele>907.708</ele>
        <time>2019-10-17T15:16:01Z</time>
      </trkpt>
      <trkpt lat="-21.990531" lon="-44.919977">
        <ele>907.515</ele>
        <time>2019-10-17T15:18:49Z</time>
      </trkpt>
      <trkpt lat="-21.990541" lon="-44.919926">
        <ele>907.273</ele>
        <time>2019-10-17T15:20:55Z</time>
      </trkpt>
      <trkpt lat="-21.990497" lon="-44.919938">
        <ele>908.086</ele>
        <time>2019-10-17T15:21:25Z</time>
      </trkpt>
      <trkpt lat="-21.990536" lon="-44.919965">
        <ele>907.616</ele>
        <time>2019-10-17T15:24:31Z</time>
      </trkpt>
      <trkpt lat="-21.990515" lon="-44.919873">
        <ele>907.562</ele>
        <time>2019-10-17T15:24:34Z</time>
      </trkpt>
      <trkpt lat="-21.990541" lon="-44.919792">
        <ele>908.169</ele>
        <time>2019-10-17T15:24:38Z</time>
      </trkpt>
      <trkpt lat="-21.990562" lon="-44.919741">
        <ele>907.895</ele>
        <time>2019-10-17T15:24:40Z</time>
      </trkpt>
      <trkpt lat="-21.990599" lon="-44.919690">
        <ele>907.993</ele>
        <time>2019-10-17T15:24:43Z</time>
      </trkpt>
      <trkpt lat="-21.990625" lon="-44.919625">
        <ele>907.718</ele>
        <time>2019-10-17T15:24:45Z</time>
      </trkpt>
      <trkpt lat="-21.990634" lon="-44.919569">
        <ele>907.798</ele>
        <time>2019-10-17T15:24:47Z</time>
      </trkpt>
      <trkpt lat="-21.990651" lon="-44.919523">
        <ele>907.617</ele>
        <time>2019-10-17T15:24:49Z</time>
      </trkpt>
      <trkpt lat="-21.990671" lon="-44.919465">
        <ele>907.908</ele>
        <time>2019-10-17T15:24:51Z</time>
      </trkpt>
      <trkpt lat="-21.990687" lon="-44.919411">
        <ele>908.095</ele>
        <time>2019-10-17T15:24:54Z</time>
      </trkpt>
      <trkpt lat="-21.990711" lon="-44.919363">
        <ele>908.183</ele>
        <time>2019-10-17T15:24:55Z</time>
      </trkpt>
      <trkpt lat="-21.990741" lon="-44.919302">
        <ele>908.236</ele>
        <time>2019-10-17T15:24:57Z</time>
      </trkpt>
      <trkpt lat="-21.990775" lon="-44.919223">
        <ele>908.896</ele>
        <time>2019-10-17T15:25:01Z</time>
      </trkpt>
      <trkpt lat="-21.990800" lon="-44.919171">
        <ele>908.632</ele>
        <time>2019-10-17T15:25:03Z</time>
      </trkpt>
      <trkpt lat="-21.990827" lon="-44.919096">
        <ele>908.749</ele>
        <time>2019-10-17T15:25:06Z</time>
      </trkpt>
      <trkpt lat="-21.990840" lon="-44.919043">
        <ele>908.915</ele>
        <time>2019-10-17T15:25:08Z</time>
      </trkpt>
      <trkpt lat="-21.990865" lon="-44.918987">
        <ele>908.883</ele>
        <time>2019-10-17T15:25:10Z</time>
      </trkpt>
      <trkpt lat="-21.990882" lon="-44.918940">
        <ele>908.729</ele>
        <time>2019-10-17T15:25:12Z</time>
      </trkpt>
      <trkpt lat="-21.990893" lon="-44.918885">
        <ele>909.200</ele>
        <time>2019-10-17T15:25:14Z</time>
      </trkpt>
      <trkpt lat="-21.990908" lon="-44.918812">
        <ele>909.520</ele>
        <time>2019-10-17T15:25:17Z</time>
      </trkpt>
      <trkpt lat="-21.990928" lon="-44.918757">
        <ele>909.808</ele>
        <time>2019-10-17T15:25:19Z</time>
      </trkpt>
      <trkpt lat="-21.990956" lon="-44.918673">
        <ele>910.256</ele>
        <time>2019-10-17T15:25:22Z</time>
      </trkpt>
      <trkpt lat="-21.990983" lon="-44.918610">
        <ele>910.634</ele>
        <time>2019-10-17T15:25:25Z</time>
      </trkpt>
      <trkpt lat="-21.991000" lon="-44.918562">
        <ele>910.957</ele>
        <time>2019-10-17T15:25:27Z</time>
      </trkpt>
      <trkpt lat="-21.991028" lon="-44.918504">
        <ele>910.667</ele>
        <time>2019-10-17T15:25:30Z</time>
      </trkpt>
      <trkpt lat="-21.991050" lon="-44.918442">
        <ele>910.783</ele>
        <time>2019-10-17T15:25:34Z</time>
      </trkpt>
      <trkpt lat="-21.991077" lon="-44.918372">
        <ele>911.080</ele>
        <time>2019-10-17T15:25:36Z</time>
      </trkpt>
      <trkpt lat="-21.991091" lon="-44.918306">
        <ele>911.356</ele>
        <time>2019-10-17T15:25:39Z</time>
      </trkpt>
      <trkpt lat="-21.991109" lon="-44.918236">
        <ele>911.574</ele>
        <time>2019-10-17T15:25:42Z</time>
      </trkpt>
      <trkpt lat="-21.991116" lon="-44.918181">
        <ele>911.969</ele>
        <time>2019-10-17T15:25:44Z</time>
      </trkpt>
      <trkpt lat="-21.991123" lon="-44.918091">
        <ele>912.204</ele>
        <time>2019-10-17T15:25:48Z</time>
      </trkpt>
      <trkpt lat="-21.991150" lon="-44.918019">
        <ele>912.724</ele>
        <time>2019-10-17T15:25:53Z</time>
      </trkpt>
      <trkpt lat="-21.991160" lon="-44.917958">
        <ele>913.108</ele>
        <time>2019-10-17T15:25:57Z</time>
      </trkpt>
      <trkpt lat="-21.991161" lon="-44.917899">
        <ele>913.150</ele>
        <time>2019-10-17T15:26:00Z</time>
      </trkpt>
      <trkpt lat="-21.991169" lon="-44.917851">
        <ele>913.418</ele>
        <time>2019-10-17T15:26:02Z</time>
      </trkpt>
      <trkpt lat="-21.991173" lon="-44.917789">
        <ele>913.211</ele>
        <time>2019-10-17T15:26:04Z</time>
      </trkpt>
      <trkpt lat="-21.991172" lon="-44.917714">
        <ele>913.821</ele>
        <time>2019-10-17T15:26:07Z</time>
      </trkpt>
      <trkpt lat="-21.991164" lon="-44.917646">
        <ele>913.787</ele>
        <time>2019-10-17T15:26:10Z</time>
      </trkpt>
      <trkpt lat="-21.991156" lon="-44.917592">
        <ele>914.014</ele>
        <time>2019-10-17T15:26:12Z</time>
      </trkpt>
      <trkpt lat="-21.991144" lon="-44.917538">
        <ele>914.010</ele>
        <time>2019-10-17T15:26:14Z</time>
      </trkpt>
      <trkpt lat="-21.991129" lon="-44.917478">
        <ele>913.978</ele>
        <time>2019-10-17T15:26:17Z</time>
      </trkpt>
      <trkpt lat="-21.991110" lon="-44.917433">
        <ele>914.365</ele>
        <time>2019-10-17T15:26:18Z</time>
      </trkpt>
      <trkpt lat="-21.991097" lon="-44.917383">
        <ele>914.168</ele>
        <time>2019-10-17T15:26:20Z</time>
      </trkpt>
      <trkpt lat="-21.991082" lon="-44.917329">
        <ele>914.414</ele>
        <time>2019-10-17T15:26:22Z</time>
      </trkpt>
      <trkpt lat="-21.991066" lon="-44.917260">
        <ele>914.308</ele>
        <time>2019-10-17T15:26:24Z</time>
      </trkpt>
      <trkpt lat="-21.991040" lon="-44.917199">
        <ele>913.860</ele>
        <time>2019-10-17T15:26:27Z</time>
      </trkpt>
      <trkpt lat="-21.991015" lon="-44.917146">
        <ele>914.838</ele>
        <time>2019-10-17T15:26:29Z</time>
      </trkpt>
      <trkpt lat="-21.990977" lon="-44.917086">
        <ele>915.781</ele>
        <time>2019-10-17T15:26:32Z</time>
      </trkpt>
      <trkpt lat="-21.990944" lon="-44.917010">
        <ele>915.751</ele>
        <time>2019-10-17T15:26:35Z</time>
      </trkpt>
      <trkpt lat="-21.990926" lon="-44.916950">
        <ele>916.337</ele>
        <time>2019-10-17T15:26:38Z</time>
      </trkpt>
      <trkpt lat="-21.990908" lon="-44.916897">
        <ele>916.314</ele>
        <time>2019-10-17T15:26:40Z</time>
      </trkpt>
      <trkpt lat="-21.990897" lon="-44.916839">
        <ele>916.020</ele>
        <time>2019-10-17T15:26:42Z</time>
      </trkpt>
      <trkpt lat="-21.990871" lon="-44.916785">
        <ele>916.298</ele>
        <time>2019-10-17T15:26:44Z</time>
      </trkpt>
      <trkpt lat="-21.990855" lon="-44.916729">
        <ele>916.427</ele>
        <time>2019-10-17T15:26:45Z</time>
      </trkpt>
      <trkpt lat="-21.990832" lon="-44.916668">
        <ele>916.568</ele>
        <time>2019-10-17T15:26:48Z</time>
      </trkpt>
      <trkpt lat="-21.990824" lon="-44.916591">
        <ele>916.614</ele>
        <time>2019-10-17T15:26:50Z</time>
      </trkpt>
      <trkpt lat="-21.990817" lon="-44.916537">
        <ele>916.508</ele>
        <time>2019-10-17T15:26:52Z</time>
      </trkpt>
      <trkpt lat="-21.990800" lon="-44.916469">
        <ele>916.866</ele>
        <time>2019-10-17T15:26:54Z</time>
      </trkpt>
      <trkpt lat="-21.990782" lon="-44.916416">
        <ele>916.884</ele>
        <time>2019-10-17T15:26:55Z</time>
      </trkpt>
      <trkpt lat="-21.990762" lon="-44.916329">
        <ele>917.227</ele>
        <time>2019-10-17T15:26:58Z</time>
      </trkpt>
      <trkpt lat="-21.990767" lon="-44.916264">
        <ele>917.147</ele>
        <time>2019-10-17T15:27:00Z</time>
      </trkpt>
      <trkpt lat="-21.990774" lon="-44.916186">
        <ele>917.163</ele>
        <time>2019-10-17T15:27:02Z</time>
      </trkpt>
      <trkpt lat="-21.990774" lon="-44.916104">
        <ele>916.920</ele>
        <time>2019-10-17T15:27:04Z</time>
      </trkpt>
      <trkpt lat="-21.990773" lon="-44.916054">
        <ele>916.686</ele>
        <time>2019-10-17T15:27:05Z</time>
      </trkpt>
      <trkpt lat="-21.990776" lon="-44.915983">
        <ele>916.714</ele>
        <time>2019-10-17T15:27:07Z</time>
      </trkpt>
      <trkpt lat="-21.990781" lon="-44.915903">
        <ele>916.426</ele>
        <time>2019-10-17T15:27:09Z</time>
      </trkpt>
      <trkpt lat="-21.990782" lon="-44.915847">
        <ele>916.647</ele>
        <time>2019-10-17T15:27:11Z</time>
      </trkpt>
      <trkpt lat="-21.990809" lon="-44.915765">
        <ele>916.211</ele>
        <time>2019-10-17T15:27:13Z</time>
      </trkpt>
      <trkpt lat="-21.990829" lon="-44.915703">
        <ele>916.108</ele>
        <time>2019-10-17T15:27:14Z</time>
      </trkpt>
      <trkpt lat="-21.990838" lon="-44.915634">
        <ele>916.256</ele>
        <time>2019-10-17T15:27:16Z</time>
      </trkpt>
      <trkpt lat="-21.990845" lon="-44.915545">
        <ele>916.184</ele>
        <time>2019-10-17T15:27:18Z</time>
      </trkpt>
      <trkpt lat="-21.990848" lon="-44.915458">
        <ele>915.587</ele>
        <time>2019-10-17T15:27:20Z</time>
      </trkpt>
      <trkpt lat="-21.990845" lon="-44.915331">
        <ele>914.617</ele>
        <time>2019-10-17T15:27:23Z</time>
      </trkpt>
      <trkpt lat="-21.990841" lon="-44.915263">
        <ele>914.723</ele>
        <time>2019-10-17T15:27:25Z</time>
      </trkpt>
      <trkpt lat="-21.990850" lon="-44.915179">
        <ele>914.560</ele>
        <time>2019-10-17T15:27:27Z</time>
      </trkpt>
      <trkpt lat="-21.990869" lon="-44.914599">
        <ele>912.496</ele>
        <time>2019-10-17T15:27:38Z</time>
      </trkpt>
      <trkpt lat="-21.990870" lon="-44.914536">
        <ele>911.984</ele>
        <time>2019-10-17T15:27:39Z</time>
      </trkpt>
      <trkpt lat="-21.990873" lon="-44.914467">
        <ele>912.116</ele>
        <time>2019-10-17T15:27:41Z</time>
      </trkpt>
      <trkpt lat="-21.990874" lon="-44.914368">
        <ele>912.776</ele>
        <time>2019-10-17T15:27:43Z</time>
      </trkpt>
      <trkpt lat="-21.990873" lon="-44.914320">
        <ele>912.413</ele>
        <time>2019-10-17T15:27:44Z</time>
      </trkpt>
      <trkpt lat="-21.990869" lon="-44.914271">
        <ele>912.208</ele>
        <time>2019-10-17T15:27:46Z</time>
      </trkpt>
      <trkpt lat="-21.990814" lon="-44.914078">
        <ele>911.635</ele>
        <time>2019-10-17T15:27:49Z</time>
      </trkpt>
      <trkpt lat="-21.990301" lon="-44.913178">
        <ele>910.373</ele>
        <time>2019-10-17T15:28:08Z</time>
      </trkpt>
      <trkpt lat="-21.990283" lon="-44.913120">
        <ele>910.286</ele>
        <time>2019-10-17T15:28:10Z</time>
      </trkpt>
      <trkpt lat="-21.990244" lon="-44.913025">
        <ele>909.396</ele>
        <time>2019-10-17T15:28:13Z</time>
      </trkpt>
      <trkpt lat="-21.986564" lon="-44.908551">
        <ele>892.562</ele>
        <time>2019-10-17T15:30:33Z</time>
      </trkpt>
      <trkpt lat="-21.986584" lon="-44.908454">
        <ele>892.029</ele>
        <time>2019-10-17T15:30:36Z</time>
      </trkpt>
      <trkpt lat="-21.985310" lon="-44.904629">
        <ele>886.335</ele>
        <time>2019-10-17T15:32:01Z</time>
      </trkpt>
      <trkpt lat="-21.985340" lon="-44.904590">
        <ele>885.953</ele>
        <time>2019-10-17T15:32:05Z</time>
      </trkpt>
      <trkpt lat="-21.983395" lon="-44.903811">
        <ele>885.458</ele>
        <time>2019-10-17T15:34:55Z</time>
      </trkpt>
      <trkpt lat="-21.983333" lon="-44.903790">
        <ele>885.652</ele>
        <time>2019-10-17T15:35:02Z</time>
      </trkpt>
      <trkpt lat="-21.983260" lon="-44.903787">
        <ele>885.717</ele>
        <time>2019-10-17T15:35:04Z</time>
      </trkpt>
      <trkpt lat="-21.983176" lon="-44.903781">
        <ele>885.308</ele>
        <time>2019-10-17T15:35:06Z</time>
      </trkpt>
      <trkpt lat="-21.983108" lon="-44.903766">
        <ele>885.249</ele>
        <time>2019-10-17T15:35:08Z</time>
      </trkpt>
      <trkpt lat="-21.983063" lon="-44.903754">
        <ele>885.217</ele>
        <time>2019-10-17T15:35:09Z</time>
      </trkpt>
      <trkpt lat="-21.982987" lon="-44.903746">
        <ele>885.190</ele>
        <time>2019-10-17T15:35:11Z</time>
      </trkpt>
      <trkpt lat="-21.982878" lon="-44.903721">
        <ele>884.860</ele>
        <time>2019-10-17T15:35:14Z</time>
      </trkpt>
      <trkpt lat="-21.982671" lon="-44.903663">
        <ele>884.866</ele>
        <time>2019-10-17T15:35:18Z</time>
      </trkpt>
      <trkpt lat="-21.982626" lon="-44.903655">
        <ele>884.463</ele>
        <time>2019-10-17T15:35:20Z</time>
      </trkpt>
      <trkpt lat="-21.982575" lon="-44.903643">
        <ele>884.339</ele>
        <time>2019-10-17T15:35:21Z</time>
      </trkpt>
      <trkpt lat="-21.982507" lon="-44.903623">
        <ele>884.267</ele>
        <time>2019-10-17T15:35:22Z</time>
      </trkpt>
      <trkpt lat="-21.982447" lon="-44.903598">
        <ele>884.473</ele>
        <time>2019-10-17T15:35:24Z</time>
      </trkpt>
      <trkpt lat="-21.982377" lon="-44.903572">
        <ele>883.885</ele>
        <time>2019-10-17T15:35:26Z</time>
      </trkpt>
      <trkpt lat="-21.982220" lon="-44.903526">
        <ele>885.413</ele>
        <time>2019-10-17T15:35:29Z</time>
      </trkpt>
      <trkpt lat="-21.982151" lon="-44.903491">
        <ele>885.908</ele>
        <time>2019-10-17T15:35:31Z</time>
      </trkpt>
      <trkpt lat="-21.982090" lon="-44.903476">
        <ele>885.661</ele>
        <time>2019-10-17T15:35:33Z</time>
      </trkpt>
      <trkpt lat="-21.981078" lon="-44.903129">
        <ele>885.839</ele>
        <time>2019-10-17T15:35:51Z</time>
      </trkpt>
      <trkpt lat="-21.981012" lon="-44.903099">
        <ele>885.632</ele>
        <time>2019-10-17T15:35:53Z</time>
      </trkpt>
      <trkpt lat="-21.980945" lon="-44.903066">
        <ele>885.782</ele>
        <time>2019-10-17T15:35:55Z</time>
      </trkpt>
      <trkpt lat="-21.980902" lon="-44.903046">
        <ele>885.588</ele>
        <time>2019-10-17T15:35:56Z</time>
      </trkpt>
      <trkpt lat="-21.980785" lon="-44.902987">
        <ele>885.455</ele>
        <time>2019-10-17T15:35:59Z</time>
      </trkpt>
      <trkpt lat="-21.979784" lon="-44.902767">
        <ele>885.191</ele>
        <time>2019-10-17T15:36:20Z</time>
      </trkpt>
      <trkpt lat="-21.979709" lon="-44.902764">
        <ele>885.059</ele>
        <time>2019-10-17T15:36:21Z</time>
      </trkpt>
      <trkpt lat="-21.979600" lon="-44.902761">
        <ele>884.925</ele>
        <time>2019-10-17T15:36:23Z</time>
      </trkpt>
      <trkpt lat="-21.979470" lon="-44.902733">
        <ele>884.826</ele>
        <time>2019-10-17T15:36:26Z</time>
      </trkpt>
      <trkpt lat="-21.979413" lon="-44.902728">
        <ele>885.108</ele>
        <time>2019-10-17T15:36:28Z</time>
      </trkpt>
      <trkpt lat="-21.979347" lon="-44.902712">
        <ele>885.208</ele>
        <time>2019-10-17T15:36:29Z</time>
      </trkpt>
      <trkpt lat="-21.979293" lon="-44.902693">
        <ele>884.566</ele>
        <time>2019-10-17T15:36:31Z</time>
      </trkpt>
      <trkpt lat="-21.979230" lon="-44.902686">
        <ele>884.414</ele>
        <time>2019-10-17T15:36:32Z</time>
      </trkpt>
      <trkpt lat="-21.979152" lon="-44.902687">
        <ele>884.757</ele>
        <time>2019-10-17T15:36:35Z</time>
      </trkpt>
      <trkpt lat="-21.979046" lon="-44.902674">
        <ele>883.437</ele>
        <time>2019-10-17T15:36:38Z</time>
      </trkpt>
      <trkpt lat="-21.978981" lon="-44.902664">
        <ele>883.033</ele>
        <time>2019-10-17T15:36:40Z</time>
      </trkpt>
      <trkpt lat="-21.978490" lon="-44.902517">
        <ele>883.690</ele>
        <time>2019-10-17T15:36:51Z</time>
      </trkpt>
      <trkpt lat="-21.978428" lon="-44.902506">
        <ele>884.096</ele>
        <time>2019-10-17T15:36:52Z</time>
      </trkpt>
      <trkpt lat="-21.978365" lon="-44.902504">
        <ele>884.084</ele>
        <time>2019-10-17T15:36:54Z</time>
      </trkpt>
      <trkpt lat="-21.978274" lon="-44.902496">
        <ele>883.599</ele>
        <time>2019-10-17T15:36:56Z</time>
      </trkpt>
      <trkpt lat="-21.978211" lon="-44.902476">
        <ele>883.507</ele>
        <time>2019-10-17T15:36:58Z</time>
      </trkpt>
      <trkpt lat="-21.978166" lon="-44.902463">
        <ele>883.527</ele>
        <time>2019-10-17T15:36:59Z</time>
      </trkpt>
      <trkpt lat="-21.977957" lon="-44.902439">
        <ele>883.808</ele>
        <time>2019-10-17T15:37:03Z</time>
      </trkpt>
      <trkpt lat="-21.977911" lon="-44.902439">
        <ele>884.163</ele>
        <time>2019-10-17T15:37:05Z</time>
      </trkpt>
      <trkpt lat="-21.977847" lon="-44.902418">
        <ele>883.671</ele>
        <time>2019-10-17T15:37:07Z</time>
      </trkpt>
      <trkpt lat="-21.977789" lon="-44.902404">
        <ele>883.684</ele>
        <time>2019-10-17T15:37:09Z</time>
      </trkpt>
      <trkpt lat="-21.977744" lon="-44.902390">
        <ele>883.534</ele>
        <time>2019-10-17T15:37:10Z</time>
      </trkpt>
      <trkpt lat="-21.977701" lon="-44.902375">
        <ele>883.160</ele>
        <time>2019-10-17T15:37:11Z</time>
      </trkpt>
      <trkpt lat="-21.977549" lon="-44.902319">
        <ele>883.767</ele>
        <time>2019-10-17T15:37:14Z</time>
      </trkpt>
      <trkpt lat="-21.977005" lon="-44.902022">
        <ele>882.263</ele>
        <time>2019-10-17T15:37:26Z</time>
      </trkpt>
      <trkpt lat="-21.976868" lon="-44.901969">
        <ele>882.261</ele>
        <time>2019-10-17T15:37:30Z</time>
      </trkpt>
      <trkpt lat="-21.976799" lon="-44.901929">
        <ele>882.668</ele>
        <time>2019-10-17T15:37:32Z</time>
      </trkpt>
      <trkpt lat="-21.976734" lon="-44.901872">
        <ele>882.442</ele>
        <time>2019-10-17T15:37:34Z</time>
      </trkpt>
      <trkpt lat="-21.976672" lon="-44.901809">
        <ele>882.526</ele>
        <time>2019-10-17T15:37:36Z</time>
      </trkpt>
      <trkpt lat="-21.976619" lon="-44.901758">
        <ele>882.408</ele>
        <time>2019-10-17T15:37:38Z</time>
      </trkpt>
      <trkpt lat="-21.976480" lon="-44.901668">
        <ele>882.420</ele>
        <time>2019-10-17T15:37:41Z</time>
      </trkpt>
      <trkpt lat="-21.976426" lon="-44.901639">
        <ele>882.228</ele>
        <time>2019-10-17T15:37:42Z</time>
      </trkpt>
      <trkpt lat="-21.976249" lon="-44.901543">
        <ele>882.431</ele>
        <time>2019-10-17T15:37:46Z</time>
      </trkpt>
      <trkpt lat="-21.976207" lon="-44.901518">
        <ele>882.551</ele>
        <time>2019-10-17T15:37:47Z</time>
      </trkpt>
      <trkpt lat="-21.976145" lon="-44.901481">
        <ele>882.217</ele>
        <time>2019-10-17T15:37:48Z</time>
      </trkpt>
      <trkpt lat="-21.976094" lon="-44.901445">
        <ele>882.274</ele>
        <time>2019-10-17T15:37:50Z</time>
      </trkpt>
      <trkpt lat="-21.976011" lon="-44.901396">
        <ele>882.490</ele>
        <time>2019-10-17T15:37:52Z</time>
      </trkpt>
      <trkpt lat="-21.975961" lon="-44.901374">
        <ele>882.448</ele>
        <time>2019-10-17T15:37:53Z</time>
      </trkpt>
      <trkpt lat="-21.975884" lon="-44.901332">
        <ele>882.648</ele>
        <time>2019-10-17T15:37:56Z</time>
      </trkpt>
      <trkpt lat="-21.975807" lon="-44.901285">
        <ele>882.861</ele>
        <time>2019-10-17T15:37:58Z</time>
      </trkpt>
      <trkpt lat="-21.975732" lon="-44.901242">
        <ele>882.817</ele>
        <time>2019-10-17T15:38:00Z</time>
      </trkpt>
      <trkpt lat="-21.975679" lon="-44.901216">
        <ele>882.508</ele>
        <time>2019-10-17T15:38:01Z</time>
      </trkpt>
      <trkpt lat="-21.975607" lon="-44.901184">
        <ele>882.578</ele>
        <time>2019-10-17T15:38:03Z</time>
      </trkpt>
      <trkpt lat="-21.975526" lon="-44.901147">
        <ele>882.596</ele>
        <time>2019-10-17T15:38:05Z</time>
      </trkpt>
      <trkpt lat="-21.975438" lon="-44.901111">
        <ele>882.469</ele>
        <time>2019-10-17T15:38:07Z</time>
      </trkpt>
      <trkpt lat="-21.975301" lon="-44.901080">
        <ele>882.899</ele>
        <time>2019-10-17T15:38:10Z</time>
      </trkpt>
      <trkpt lat="-21.975212" lon="-44.901074">
        <ele>882.635</ele>
        <time>2019-10-17T15:38:12Z</time>
      </trkpt>
      <trkpt lat="-21.975052" lon="-44.901021">
        <ele>882.662</ele>
        <time>2019-10-17T15:38:14Z</time>
      </trkpt>
      <trkpt lat="-21.975008" lon="-44.900993">
        <ele>882.788</ele>
        <time>2019-10-17T15:38:16Z</time>
      </trkpt>
      <trkpt lat="-21.974951" lon="-44.900991">
        <ele>881.386</ele>
        <time>2019-10-17T15:38:17Z</time>
      </trkpt>
      <trkpt lat="-21.974600" lon="-44.900996">
        <ele>881.484</ele>
        <time>2019-10-17T15:38:23Z</time>
      </trkpt>
      <trkpt lat="-21.974519" lon="-44.901004">
        <ele>881.607</ele>
        <time>2019-10-17T15:38:26Z</time>
      </trkpt>
      <trkpt lat="-21.974440" lon="-44.901025">
        <ele>882.517</ele>
        <time>2019-10-17T15:38:28Z</time>
      </trkpt>
      <trkpt lat="-21.974364" lon="-44.901049">
        <ele>882.808</ele>
        <time>2019-10-17T15:38:30Z</time>
      </trkpt>
      <trkpt lat="-21.974309" lon="-44.901064">
        <ele>882.912</ele>
        <time>2019-10-17T15:38:32Z</time>
      </trkpt>
      <trkpt lat="-21.974258" lon="-44.901081">
        <ele>883.390</ele>
        <time>2019-10-17T15:38:33Z</time>
      </trkpt>
      <trkpt lat="-21.974201" lon="-44.901096">
        <ele>883.453</ele>
        <time>2019-10-17T15:38:35Z</time>
      </trkpt>
      <trkpt lat="-21.974120" lon="-44.901125">
        <ele>883.343</ele>
        <time>2019-10-17T15:38:37Z</time>
      </trkpt>
      <trkpt lat="-21.974063" lon="-44.901151">
        <ele>883.329</ele>
        <time>2019-10-17T15:38:39Z</time>
      </trkpt>
      <trkpt lat="-21.974007" lon="-44.901171">
        <ele>883.886</ele>
        <time>2019-10-17T15:38:40Z</time>
      </trkpt>
      <trkpt lat="-21.973954" lon="-44.901187">
        <ele>884.292</ele>
        <time>2019-10-17T15:38:42Z</time>
      </trkpt>
      <trkpt lat="-21.973899" lon="-44.901206">
        <ele>883.990</ele>
        <time>2019-10-17T15:38:44Z</time>
      </trkpt>
      <trkpt lat="-21.973845" lon="-44.901228">
        <ele>883.635</ele>
        <time>2019-10-17T15:38:45Z</time>
      </trkpt>
      <trkpt lat="-21.973768" lon="-44.901260">
        <ele>883.986</ele>
        <time>2019-10-17T15:38:47Z</time>
      </trkpt>
      <trkpt lat="-21.973709" lon="-44.901276">
        <ele>883.714</ele>
        <time>2019-10-17T15:38:49Z</time>
      </trkpt>
      <trkpt lat="-21.973630" lon="-44.901289">
        <ele>883.708</ele>
        <time>2019-10-17T15:38:51Z</time>
      </trkpt>
      <trkpt lat="-21.973576" lon="-44.901297">
        <ele>884.037</ele>
        <time>2019-10-17T15:38:53Z</time>
      </trkpt>
      <trkpt lat="-21.973528" lon="-44.901301">
        <ele>883.975</ele>
        <time>2019-10-17T15:38:54Z</time>
      </trkpt>
      <trkpt lat="-21.973473" lon="-44.901301">
        <ele>883.988</ele>
        <time>2019-10-17T15:38:56Z</time>
      </trkpt>
      <trkpt lat="-21.973397" lon="-44.901295">
        <ele>883.728</ele>
        <time>2019-10-17T15:38:58Z</time>
      </trkpt>
      <trkpt lat="-21.973334" lon="-44.901301">
        <ele>883.954</ele>
        <time>2019-10-17T15:39:00Z</time>
      </trkpt>
      <trkpt lat="-21.973254" lon="-44.901303">
        <ele>883.861</ele>
        <time>2019-10-17T15:39:02Z</time>
      </trkpt>
      <trkpt lat="-21.973201" lon="-44.901299">
        <ele>883.817</ele>
        <time>2019-10-17T15:39:03Z</time>
      </trkpt>
      <trkpt lat="-21.973138" lon="-44.901289">
        <ele>883.955</ele>
        <time>2019-10-17T15:39:05Z</time>
      </trkpt>
      <trkpt lat="-21.973078" lon="-44.901282">
        <ele>883.721</ele>
        <time>2019-10-17T15:39:06Z</time>
      </trkpt>
      <trkpt lat="-21.973015" lon="-44.901283">
        <ele>883.941</ele>
        <time>2019-10-17T15:39:08Z</time>
      </trkpt>
      <trkpt lat="-21.972954" lon="-44.901273">
        <ele>883.605</ele>
        <time>2019-10-17T15:39:09Z</time>
      </trkpt>
      <trkpt lat="-21.972884" lon="-44.901269">
        <ele>883.508</ele>
        <time>2019-10-17T15:39:11Z</time>
      </trkpt>
      <trkpt lat="-21.972820" lon="-44.901263">
        <ele>883.986</ele>
        <time>2019-10-17T15:39:13Z</time>
      </trkpt>
      <trkpt lat="-21.972739" lon="-44.901263">
        <ele>884.164</ele>
        <time>2019-10-17T15:39:15Z</time>
      </trkpt>
      <trkpt lat="-21.972685" lon="-44.901260">
        <ele>884.267</ele>
        <time>2019-10-17T15:39:16Z</time>
      </trkpt>
      <trkpt lat="-21.972598" lon="-44.901252">
        <ele>884.587</ele>
        <time>2019-10-17T15:39:19Z</time>
      </trkpt>
      <trkpt lat="-21.972538" lon="-44.901238">
        <ele>884.643</ele>
        <time>2019-10-17T15:39:20Z</time>
      </trkpt>
      <trkpt lat="-21.972452" lon="-44.901218">
        <ele>884.810</ele>
        <time>2019-10-17T15:39:23Z</time>
      </trkpt>
      <trkpt lat="-21.972390" lon="-44.901208">
        <ele>884.666</ele>
        <time>2019-10-17T15:39:25Z</time>
      </trkpt>
      <trkpt lat="-21.972337" lon="-44.901204">
        <ele>884.594</ele>
        <time>2019-10-17T15:39:26Z</time>
      </trkpt>
      <trkpt lat="-21.972282" lon="-44.901199">
        <ele>884.478</ele>
        <time>2019-10-17T15:39:28Z</time>
      </trkpt>
      <trkpt lat="-21.972210" lon="-44.901186">
        <ele>884.933</ele>
        <time>2019-10-17T15:39:30Z</time>
      </trkpt>
      <trkpt lat="-21.972153" lon="-44.901167">
        <ele>884.826</ele>
        <time>2019-10-17T15:39:32Z</time>
      </trkpt>
      <trkpt lat="-21.972072" lon="-44.901149">
        <ele>885.008</ele>
        <time>2019-10-17T15:39:34Z</time>
      </trkpt>
      <trkpt lat="-21.972009" lon="-44.901134">
        <ele>885.071</ele>
        <time>2019-10-17T15:39:36Z</time>
      </trkpt>
      <trkpt lat="-21.971911" lon="-44.901107">
        <ele>884.929</ele>
        <time>2019-10-17T15:39:38Z</time>
      </trkpt>
      <trkpt lat="-21.971854" lon="-44.901094">
        <ele>884.842</ele>
        <time>2019-10-17T15:39:40Z</time>
      </trkpt>
      <trkpt lat="-21.971801" lon="-44.901073">
        <ele>885.312</ele>
        <time>2019-10-17T15:39:42Z</time>
      </trkpt>
      <trkpt lat="-21.971749" lon="-44.901047">
        <ele>884.878</ele>
        <time>2019-10-17T15:39:44Z</time>
      </trkpt>
      <trkpt lat="-21.971696" lon="-44.901018">
        <ele>884.795</ele>
        <time>2019-10-17T15:39:46Z</time>
      </trkpt>
      <trkpt lat="-21.971625" lon="-44.900982">
        <ele>885.041</ele>
        <time>2019-10-17T15:39:48Z</time>
      </trkpt>
      <trkpt lat="-21.971574" lon="-44.900948">
        <ele>884.599</ele>
        <time>2019-10-17T15:39:49Z</time>
      </trkpt>
      <trkpt lat="-21.971500" lon="-44.900902">
        <ele>884.326</ele>
        <time>2019-10-17T15:39:51Z</time>
      </trkpt>
      <trkpt lat="-21.971461" lon="-44.900876">
        <ele>884.047</ele>
        <time>2019-10-17T15:39:53Z</time>
      </trkpt>
      <trkpt lat="-21.971378" lon="-44.900821">
        <ele>882.811</ele>
        <time>2019-10-17T15:39:55Z</time>
      </trkpt>
      <trkpt lat="-21.971310" lon="-44.900796">
        <ele>883.908</ele>
        <time>2019-10-17T15:39:57Z</time>
      </trkpt>
      <trkpt lat="-21.971262" lon="-44.900778">
        <ele>884.086</ele>
        <time>2019-10-17T15:39:58Z</time>
      </trkpt>
      <trkpt lat="-21.971191" lon="-44.900731">
        <ele>883.984</ele>
        <time>2019-10-17T15:40:00Z</time>
      </trkpt>
      <trkpt lat="-21.970035" lon="-44.899867">
        <ele>882.067</ele>
        <time>2019-10-17T15:40:31Z</time>
      </trkpt>
      <trkpt lat="-21.969960" lon="-44.899818">
        <ele>883.057</ele>
        <time>2019-10-17T15:40:33Z</time>
      </trkpt>
      <trkpt lat="-21.969913" lon="-44.899784">
        <ele>882.363</ele>
        <time>2019-10-17T15:40:35Z</time>
      </trkpt>
      <trkpt lat="-21.969827" lon="-44.899723">
        <ele>882.070</ele>
        <time>2019-10-17T15:40:38Z</time>
      </trkpt>
      <trkpt lat="-21.969781" lon="-44.899689">
        <ele>881.326</ele>
        <time>2019-10-17T15:40:39Z</time>
      </trkpt>
      <trkpt lat="-21.969730" lon="-44.899653">
        <ele>880.914</ele>
        <time>2019-10-17T15:40:41Z</time>
      </trkpt>
      <trkpt lat="-21.969684" lon="-44.899617">
        <ele>881.072</ele>
        <time>2019-10-17T15:40:42Z</time>
      </trkpt>
      <trkpt lat="-21.969601" lon="-44.899551">
        <ele>880.113</ele>
        <time>2019-10-17T15:40:45Z</time>
      </trkpt>
      <trkpt lat="-21.969546" lon="-44.899519">
        <ele>880.914</ele>
        <time>2019-10-17T15:40:47Z</time>
      </trkpt>
      <trkpt lat="-21.969495" lon="-44.899486">
        <ele>881.008</ele>
        <time>2019-10-17T15:40:48Z</time>
      </trkpt>
      <trkpt lat="-21.969450" lon="-44.899455">
        <ele>881.141</ele>
        <time>2019-10-17T15:40:50Z</time>
      </trkpt>
      <trkpt lat="-21.969409" lon="-44.899430">
        <ele>881.479</ele>
        <time>2019-10-17T15:40:51Z</time>
      </trkpt>
      <trkpt lat="-21.969371" lon="-44.899402">
        <ele>881.192</ele>
        <time>2019-10-17T15:40:52Z</time>
      </trkpt>
      <trkpt lat="-21.969321" lon="-44.899361">
        <ele>880.862</ele>
        <time>2019-10-17T15:40:54Z</time>
      </trkpt>
      <trkpt lat="-21.969127" lon="-44.899229">
        <ele>880.388</ele>
        <time>2019-10-17T15:40:59Z</time>
      </trkpt>
      <trkpt lat="-21.968987" lon="-44.899118">
        <ele>880.785</ele>
        <time>2019-10-17T15:41:03Z</time>
      </trkpt>
      <trkpt lat="-21.968120" lon="-44.898506">
        <ele>880.341</ele>
        <time>2019-10-17T15:41:27Z</time>
      </trkpt>
      <trkpt lat="-21.968084" lon="-44.898472">
        <ele>881.079</ele>
        <time>2019-10-17T15:41:29Z</time>
      </trkpt>
      <trkpt lat="-21.967320" lon="-44.897924">
        <ele>881.293</ele>
        <time>2019-10-17T15:41:51Z</time>
      </trkpt>
      <trkpt lat="-21.967270" lon="-44.897880">
        <ele>881.665</ele>
        <time>2019-10-17T15:41:53Z</time>
      </trkpt>
      <trkpt lat="-21.967218" lon="-44.897845">
        <ele>881.621</ele>
        <time>2019-10-17T15:41:55Z</time>
      </trkpt>
      <trkpt lat="-21.967141" lon="-44.897796">
        <ele>881.208</ele>
        <time>2019-10-17T15:41:57Z</time>
      </trkpt>
      <trkpt lat="-21.967087" lon="-44.897765">
        <ele>881.773</ele>
        <time>2019-10-17T15:41:59Z</time>
      </trkpt>
      <trkpt lat="-21.967038" lon="-44.897736">
        <ele>881.161</ele>
        <time>2019-10-17T15:42:00Z</time>
      </trkpt>
      <trkpt lat="-21.966993" lon="-44.897706">
        <ele>881.744</ele>
        <time>2019-10-17T15:42:02Z</time>
      </trkpt>
      <trkpt lat="-21.966934" lon="-44.897662">
        <ele>881.794</ele>
        <time>2019-10-17T15:42:04Z</time>
      </trkpt>
      <trkpt lat="-21.966878" lon="-44.897604">
        <ele>881.970</ele>
        <time>2019-10-17T15:42:06Z</time>
      </trkpt>
      <trkpt lat="-21.966833" lon="-44.897560">
        <ele>882.017</ele>
        <time>2019-10-17T15:42:07Z</time>
      </trkpt>
      <trkpt lat="-21.966783" lon="-44.897518">
        <ele>881.943</ele>
        <time>2019-10-17T15:42:09Z</time>
      </trkpt>
      <trkpt lat="-21.966732" lon="-44.897478">
        <ele>882.511</ele>
        <time>2019-10-17T15:42:11Z</time>
      </trkpt>
      <trkpt lat="-21.966686" lon="-44.897443">
        <ele>881.997</ele>
        <time>2019-10-17T15:42:12Z</time>
      </trkpt>
      <trkpt lat="-21.966641" lon="-44.897409">
        <ele>881.723</ele>
        <time>2019-10-17T15:42:14Z</time>
      </trkpt>
      <trkpt lat="-21.966605" lon="-44.897379">
        <ele>882.125</ele>
        <time>2019-10-17T15:42:15Z</time>
      </trkpt>
      <trkpt lat="-21.966544" lon="-44.897328">
        <ele>882.008</ele>
        <time>2019-10-17T15:42:17Z</time>
      </trkpt>
      <trkpt lat="-21.966496" lon="-44.897289">
        <ele>882.273</ele>
        <time>2019-10-17T15:42:19Z</time>
      </trkpt>
      <trkpt lat="-21.965753" lon="-44.896754">
        <ele>880.971</ele>
        <time>2019-10-17T15:42:41Z</time>
      </trkpt>
      <trkpt lat="-21.965707" lon="-44.896719">
        <ele>880.784</ele>
        <time>2019-10-17T15:42:43Z</time>
      </trkpt>
      <trkpt lat="-21.965652" lon="-44.896683">
        <ele>880.494</ele>
        <time>2019-10-17T15:42:44Z</time>
      </trkpt>
      <trkpt lat="-21.964796" lon="-44.896086">
        <ele>878.820</ele>
        <time>2019-10-17T15:43:09Z</time>
      </trkpt>
      <trkpt lat="-21.964724" lon="-44.896030">
        <ele>878.927</ele>
        <time>2019-10-17T15:43:12Z</time>
      </trkpt>
      <trkpt lat="-21.964642" lon="-44.895996">
        <ele>879.183</ele>
        <time>2019-10-17T15:43:14Z</time>
      </trkpt>
      <trkpt lat="-21.964511" lon="-44.895946">
        <ele>879.781</ele>
        <time>2019-10-17T15:43:17Z</time>
      </trkpt>
      <trkpt lat="-21.964462" lon="-44.895931">
        <ele>879.996</ele>
        <time>2019-10-17T15:43:19Z</time>
      </trkpt>
      <trkpt lat="-21.964387" lon="-44.895897">
        <ele>880.031</ele>
        <time>2019-10-17T15:43:22Z</time>
      </trkpt>
      <trkpt lat="-21.964327" lon="-44.895878">
        <ele>879.224</ele>
        <time>2019-10-17T15:43:23Z</time>
      </trkpt>
      <trkpt lat="-21.964245" lon="-44.895862">
        <ele>880.008</ele>
        <time>2019-10-17T15:43:25Z</time>
      </trkpt>
      <trkpt lat="-21.964163" lon="-44.895847">
        <ele>879.613</ele>
        <time>2019-10-17T15:43:27Z</time>
      </trkpt>
      <trkpt lat="-21.964110" lon="-44.895830">
        <ele>879.511</ele>
        <time>2019-10-17T15:43:28Z</time>
      </trkpt>
      <trkpt lat="-21.964055" lon="-44.895812">
        <ele>880.044</ele>
        <time>2019-10-17T15:43:30Z</time>
      </trkpt>
      <trkpt lat="-21.963998" lon="-44.895801">
        <ele>879.974</ele>
        <time>2019-10-17T15:43:31Z</time>
      </trkpt>
      <trkpt lat="-21.963940" lon="-44.895790">
        <ele>879.910</ele>
        <time>2019-10-17T15:43:33Z</time>
      </trkpt>
      <trkpt lat="-21.963873" lon="-44.895771">
        <ele>879.767</ele>
        <time>2019-10-17T15:43:35Z</time>
      </trkpt>
      <trkpt lat="-21.963820" lon="-44.895757">
        <ele>879.823</ele>
        <time>2019-10-17T15:43:36Z</time>
      </trkpt>
      <trkpt lat="-21.963745" lon="-44.895741">
        <ele>879.651</ele>
        <time>2019-10-17T15:43:38Z</time>
      </trkpt>
      <trkpt lat="-21.963674" lon="-44.895724">
        <ele>879.137</ele>
        <time>2019-10-17T15:43:40Z</time>
      </trkpt>
      <trkpt lat="-21.963613" lon="-44.895710">
        <ele>879.749</ele>
        <time>2019-10-17T15:43:42Z</time>
      </trkpt>
      <trkpt lat="-21.963554" lon="-44.895694">
        <ele>879.213</ele>
        <time>2019-10-17T15:43:43Z</time>
      </trkpt>
      <trkpt lat="-21.963498" lon="-44.895687">
        <ele>879.408</ele>
        <time>2019-10-17T15:43:45Z</time>
      </trkpt>
      <trkpt lat="-21.963435" lon="-44.895676">
        <ele>878.737</ele>
        <time>2019-10-17T15:43:47Z</time>
      </trkpt>
      <trkpt lat="-21.963383" lon="-44.895661">
        <ele>878.725</ele>
        <time>2019-10-17T15:43:48Z</time>
      </trkpt>
      <trkpt lat="-21.963335" lon="-44.895647">
        <ele>878.328</ele>
        <time>2019-10-17T15:43:50Z</time>
      </trkpt>
      <trkpt lat="-21.963264" lon="-44.895625">
        <ele>878.138</ele>
        <time>2019-10-17T15:43:52Z</time>
      </trkpt>
      <trkpt lat="-21.963210" lon="-44.895612">
        <ele>878.534</ele>
        <time>2019-10-17T15:43:53Z</time>
      </trkpt>
      <trkpt lat="-21.963143" lon="-44.895603">
        <ele>878.921</ele>
        <time>2019-10-17T15:43:56Z</time>
      </trkpt>
      <trkpt lat="-21.963093" lon="-44.895593">
        <ele>879.387</ele>
        <time>2019-10-17T15:43:57Z</time>
      </trkpt>
      <trkpt lat="-21.963044" lon="-44.895577">
        <ele>879.375</ele>
        <time>2019-10-17T15:43:59Z</time>
      </trkpt>
      <trkpt lat="-21.962999" lon="-44.895555">
        <ele>879.673</ele>
        <time>2019-10-17T15:44:01Z</time>
      </trkpt>
      <trkpt lat="-21.962939" lon="-44.895539">
        <ele>879.785</ele>
        <time>2019-10-17T15:44:03Z</time>
      </trkpt>
      <trkpt lat="-21.962888" lon="-44.895528">
        <ele>879.613</ele>
        <time>2019-10-17T15:44:05Z</time>
      </trkpt>
      <trkpt lat="-21.962819" lon="-44.895522">
        <ele>879.708</ele>
        <time>2019-10-17T15:44:07Z</time>
      </trkpt>
      <trkpt lat="-21.962738" lon="-44.895515">
        <ele>879.231</ele>
        <time>2019-10-17T15:44:09Z</time>
      </trkpt>
      <trkpt lat="-21.962649" lon="-44.895498">
        <ele>878.859</ele>
        <time>2019-10-17T15:44:12Z</time>
      </trkpt>
      <trkpt lat="-21.962598" lon="-44.895494">
        <ele>879.432</ele>
        <time>2019-10-17T15:44:13Z</time>
      </trkpt>
      <trkpt lat="-21.962542" lon="-44.895494">
        <ele>879.582</ele>
        <time>2019-10-17T15:44:15Z</time>
      </trkpt>
      <trkpt lat="-21.962488" lon="-44.895482">
        <ele>879.868</ele>
        <time>2019-10-17T15:44:16Z</time>
      </trkpt>
      <trkpt lat="-21.962435" lon="-44.895466">
        <ele>879.425</ele>
        <time>2019-10-17T15:44:18Z</time>
      </trkpt>
      <trkpt lat="-21.962373" lon="-44.895453">
        <ele>879.141</ele>
        <time>2019-10-17T15:44:20Z</time>
      </trkpt>
      <trkpt lat="-21.962316" lon="-44.895442">
        <ele>879.049</ele>
        <time>2019-10-17T15:44:21Z</time>
      </trkpt>
      <trkpt lat="-21.962262" lon="-44.895424">
        <ele>878.664</ele>
        <time>2019-10-17T15:44:23Z</time>
      </trkpt>
      <trkpt lat="-21.962148" lon="-44.895389">
        <ele>879.306</ele>
        <time>2019-10-17T15:44:26Z</time>
      </trkpt>
      <trkpt lat="-21.962079" lon="-44.895376">
        <ele>879.016</ele>
        <time>2019-10-17T15:44:28Z</time>
      </trkpt>
      <trkpt lat="-21.962025" lon="-44.895369">
        <ele>879.108</ele>
        <time>2019-10-17T15:44:30Z</time>
      </trkpt>
      <trkpt lat="-21.961959" lon="-44.895351">
        <ele>880.040</ele>
        <time>2019-10-17T15:44:32Z</time>
      </trkpt>
      <trkpt lat="-21.961906" lon="-44.895335">
        <ele>879.818</ele>
        <time>2019-10-17T15:44:34Z</time>
      </trkpt>
      <trkpt lat="-21.961854" lon="-44.895322">
        <ele>880.081</ele>
        <time>2019-10-17T15:44:35Z</time>
      </trkpt>
      <trkpt lat="-21.961801" lon="-44.895304">
        <ele>880.221</ele>
        <time>2019-10-17T15:44:37Z</time>
      </trkpt>
      <trkpt lat="-21.961739" lon="-44.895293">
        <ele>880.037</ele>
        <time>2019-10-17T15:44:39Z</time>
      </trkpt>
      <trkpt lat="-21.961679" lon="-44.895282">
        <ele>879.964</ele>
        <time>2019-10-17T15:44:41Z</time>
      </trkpt>
      <trkpt lat="-21.961622" lon="-44.895274">
        <ele>879.710</ele>
        <time>2019-10-17T15:44:43Z</time>
      </trkpt>
      <trkpt lat="-21.961568" lon="-44.895259">
        <ele>879.988</ele>
        <time>2019-10-17T15:44:44Z</time>
      </trkpt>
      <trkpt lat="-21.961506" lon="-44.895241">
        <ele>879.992</ele>
        <time>2019-10-17T15:44:46Z</time>
      </trkpt>
      <trkpt lat="-21.960788" lon="-44.895061">
        <ele>879.673</ele>
        <time>2019-10-17T15:45:04Z</time>
      </trkpt>
      <trkpt lat="-21.960730" lon="-44.895046">
        <ele>879.720</ele>
        <time>2019-10-17T15:45:06Z</time>
      </trkpt>
      <trkpt lat="-21.960681" lon="-44.895022">
        <ele>879.208</ele>
        <time>2019-10-17T15:45:07Z</time>
      </trkpt>
      <trkpt lat="-21.960615" lon="-44.894997">
        <ele>879.223</ele>
        <time>2019-10-17T15:45:09Z</time>
      </trkpt>
      <trkpt lat="-21.960551" lon="-44.894979">
        <ele>879.731</ele>
        <time>2019-10-17T15:45:11Z</time>
      </trkpt>
      <trkpt lat="-21.960493" lon="-44.894959">
        <ele>880.034</ele>
        <time>2019-10-17T15:45:13Z</time>
      </trkpt>
      <trkpt lat="-21.960426" lon="-44.894932">
        <ele>879.964</ele>
        <time>2019-10-17T15:45:15Z</time>
      </trkpt>
      <trkpt lat="-21.960368" lon="-44.894909">
        <ele>880.190</ele>
        <time>2019-10-17T15:45:17Z</time>
      </trkpt>
      <trkpt lat="-21.960305" lon="-44.894877">
        <ele>880.217</ele>
        <time>2019-10-17T15:45:19Z</time>
      </trkpt>
      <trkpt lat="-21.960246" lon="-44.894848">
        <ele>879.363</ele>
        <time>2019-10-17T15:45:21Z</time>
      </trkpt>
      <trkpt lat="-21.960197" lon="-44.894820">
        <ele>880.121</ele>
        <time>2019-10-17T15:45:23Z</time>
      </trkpt>
      <trkpt lat="-21.960130" lon="-44.894778">
        <ele>879.937</ele>
        <time>2019-10-17T15:45:25Z</time>
      </trkpt>
      <trkpt lat="-21.960039" lon="-44.894717">
        <ele>880.249</ele>
        <time>2019-10-17T15:45:28Z</time>
      </trkpt>
      <trkpt lat="-21.960004" lon="-44.894656">
        <ele>879.513</ele>
        <time>2019-10-17T15:45:30Z</time>
      </trkpt>
      <trkpt lat="-21.959975" lon="-44.894594">
        <ele>878.808</ele>
        <time>2019-10-17T15:45:31Z</time>
      </trkpt>
      <trkpt lat="-21.959796" lon="-44.894098">
        <ele>878.437</ele>
        <time>2019-10-17T15:45:42Z</time>
      </trkpt>
      <trkpt lat="-21.959810" lon="-44.894028">
        <ele>878.275</ele>
        <time>2019-10-17T15:45:44Z</time>
      </trkpt>
      <trkpt lat="-21.959855" lon="-44.893607">
        <ele>878.578</ele>
        <time>2019-10-17T15:45:53Z</time>
      </trkpt>
      <trkpt lat="-21.959879" lon="-44.893547">
        <ele>878.828</ele>
        <time>2019-10-17T15:45:55Z</time>
      </trkpt>
      <trkpt lat="-21.959860" lon="-44.893476">
        <ele>878.994</ele>
        <time>2019-10-17T15:45:57Z</time>
      </trkpt>
      <trkpt lat="-21.959866" lon="-44.893405">
        <ele>878.671</ele>
        <time>2019-10-17T15:45:58Z</time>
      </trkpt>
      <trkpt lat="-21.959866" lon="-44.893324">
        <ele>879.067</ele>
        <time>2019-10-17T15:46:01Z</time>
      </trkpt>
      <trkpt lat="-21.959843" lon="-44.893280">
        <ele>878.795</ele>
        <time>2019-10-17T15:46:02Z</time>
      </trkpt>
      <trkpt lat="-21.959754" lon="-44.893232">
        <ele>878.979</ele>
        <time>2019-10-17T15:46:06Z</time>
      </trkpt>
      <trkpt lat="-21.959708" lon="-44.893225">
        <ele>879.005</ele>
        <time>2019-10-17T15:46:07Z</time>
      </trkpt>
      <trkpt lat="-21.959641" lon="-44.893218">
        <ele>878.725</ele>
        <time>2019-10-17T15:46:09Z</time>
      </trkpt>
      <trkpt lat="-21.959576" lon="-44.893205">
        <ele>878.608</ele>
        <time>2019-10-17T15:46:10Z</time>
      </trkpt>
      <trkpt lat="-21.959518" lon="-44.893189">
        <ele>879.031</ele>
        <time>2019-10-17T15:46:12Z</time>
      </trkpt>
      <trkpt lat="-21.959472" lon="-44.893173">
        <ele>879.029</ele>
        <time>2019-10-17T15:46:13Z</time>
      </trkpt>
      <trkpt lat="-21.959419" lon="-44.893156">
        <ele>879.882</ele>
        <time>2019-10-17T15:46:15Z</time>
      </trkpt>
      <trkpt lat="-21.959375" lon="-44.893134">
        <ele>879.342</ele>
        <time>2019-10-17T15:46:16Z</time>
      </trkpt>
      <trkpt lat="-21.959320" lon="-44.893102">
        <ele>878.848</ele>
        <time>2019-10-17T15:46:18Z</time>
      </trkpt>
      <trkpt lat="-21.959273" lon="-44.893073">
        <ele>878.455</ele>
        <time>2019-10-17T15:46:19Z</time>
      </trkpt>
      <trkpt lat="-21.959233" lon="-44.893021">
        <ele>878.471</ele>
        <time>2019-10-17T15:46:21Z</time>
      </trkpt>
      <trkpt lat="-21.959206" lon="-44.892981">
        <ele>878.329</ele>
        <time>2019-10-17T15:46:22Z</time>
      </trkpt>
      <trkpt lat="-21.959153" lon="-44.892868">
        <ele>878.481</ele>
        <time>2019-10-17T15:46:25Z</time>
      </trkpt>
      <trkpt lat="-21.959123" lon="-44.892800">
        <ele>879.161</ele>
        <time>2019-10-17T15:46:27Z</time>
      </trkpt>
      <trkpt lat="-21.959101" lon="-44.892755">
        <ele>879.417</ele>
        <time>2019-10-17T15:46:29Z</time>
      </trkpt>
      <trkpt lat="-21.959080" lon="-44.892710">
        <ele>879.508</ele>
        <time>2019-10-17T15:46:30Z</time>
      </trkpt>
      <trkpt lat="-21.959050" lon="-44.892645">
        <ele>881.142</ele>
        <time>2019-10-17T15:46:33Z</time>
      </trkpt>
      <trkpt lat="-21.959032" lon="-44.892600">
        <ele>881.140</ele>
        <time>2019-10-17T15:46:35Z</time>
      </trkpt>
      <trkpt lat="-21.959015" lon="-44.892538">
        <ele>881.873</ele>
        <time>2019-10-17T15:46:38Z</time>
      </trkpt>
      <trkpt lat="-21.958995" lon="-44.892491">
        <ele>882.423</ele>
        <time>2019-10-17T15:46:40Z</time>
      </trkpt>
      <trkpt lat="-21.958968" lon="-44.892447">
        <ele>882.099</ele>
        <time>2019-10-17T15:46:42Z</time>
      </trkpt>
      <trkpt lat="-21.958941" lon="-44.892395">
        <ele>882.596</ele>
        <time>2019-10-17T15:46:45Z</time>
      </trkpt>
      <trkpt lat="-21.958919" lon="-44.892351">
        <ele>882.822</ele>
        <time>2019-10-17T15:46:47Z</time>
      </trkpt>
      <trkpt lat="-21.958898" lon="-44.892303">
        <ele>883.420</ele>
        <time>2019-10-17T15:46:49Z</time>
      </trkpt>
      <trkpt lat="-21.958878" lon="-44.892251">
        <ele>884.151</ele>
        <time>2019-10-17T15:46:52Z</time>
      </trkpt>
      <trkpt lat="-21.958853" lon="-44.892208">
        <ele>884.401</ele>
        <time>2019-10-17T15:46:54Z</time>
      </trkpt>
      <trkpt lat="-21.958822" lon="-44.892152">
        <ele>886.011</ele>
        <time>2019-10-17T15:46:58Z</time>
      </trkpt>
      <trkpt lat="-21.958803" lon="-44.892099">
        <ele>886.208</ele>
        <time>2019-10-17T15:47:01Z</time>
      </trkpt>
      <trkpt lat="-21.958779" lon="-44.892048">
        <ele>886.849</ele>
        <time>2019-10-17T15:47:03Z</time>
      </trkpt>
      <trkpt lat="-21.958757" lon="-44.891983">
        <ele>886.817</ele>
        <time>2019-10-17T15:47:06Z</time>
      </trkpt>
      <trkpt lat="-21.958736" lon="-44.891923">
        <ele>887.240</ele>
        <time>2019-10-17T15:47:09Z</time>
      </trkpt>
      <trkpt lat="-21.958717" lon="-44.891863">
        <ele>887.940</ele>
        <time>2019-10-17T15:47:12Z</time>
      </trkpt>
      <trkpt lat="-21.958700" lon="-44.891809">
        <ele>888.266</ele>
        <time>2019-10-17T15:47:15Z</time>
      </trkpt>
      <trkpt lat="-21.958684" lon="-44.891758">
        <ele>888.513</ele>
        <time>2019-10-17T15:47:17Z</time>
      </trkpt>
      <trkpt lat="-21.958662" lon="-44.891709">
        <ele>888.919</ele>
        <time>2019-10-17T15:47:20Z</time>
      </trkpt>
      <trkpt lat="-21.958646" lon="-44.891656">
        <ele>889.167</ele>
        <time>2019-10-17T15:47:23Z</time>
      </trkpt>
      <trkpt lat="-21.958629" lon="-44.891592">
        <ele>889.495</ele>
        <time>2019-10-17T15:47:26Z</time>
      </trkpt>
      <trkpt lat="-21.958611" lon="-44.891536">
        <ele>890.249</ele>
        <time>2019-10-17T15:47:29Z</time>
      </trkpt>
      <trkpt lat="-21.958596" lon="-44.891489">
        <ele>890.223</ele>
        <time>2019-10-17T15:47:31Z</time>
      </trkpt>
      <trkpt lat="-21.958581" lon="-44.891431">
        <ele>890.908</ele>
        <time>2019-10-17T15:47:34Z</time>
      </trkpt>
      <trkpt lat="-21.958564" lon="-44.891386">
        <ele>891.583</ele>
        <time>2019-10-17T15:47:36Z</time>
      </trkpt>
      <trkpt lat="-21.958548" lon="-44.891337">
        <ele>891.581</ele>
        <time>2019-10-17T15:47:38Z</time>
      </trkpt>
      <trkpt lat="-21.958529" lon="-44.891269">
        <ele>892.614</ele>
        <time>2019-10-17T15:47:42Z</time>
      </trkpt>
      <trkpt lat="-21.958529" lon="-44.891197">
        <ele>893.734</ele>
        <time>2019-10-17T15:47:45Z</time>
      </trkpt>
      <trkpt lat="-21.958539" lon="-44.891141">
        <ele>894.520</ele>
        <time>2019-10-17T15:47:49Z</time>
      </trkpt>
      <trkpt lat="-21.958556" lon="-44.891092">
        <ele>894.337</ele>
        <time>2019-10-17T15:47:52Z</time>
      </trkpt>
      <trkpt lat="-21.958567" lon="-44.891031">
        <ele>894.013</ele>
        <time>2019-10-17T15:47:56Z</time>
      </trkpt>
      <trkpt lat="-21.958568" lon="-44.890958">
        <ele>894.941</ele>
        <time>2019-10-17T15:48:00Z</time>
      </trkpt>
      <trkpt lat="-21.958577" lon="-44.890905">
        <ele>895.386</ele>
        <time>2019-10-17T15:48:04Z</time>
      </trkpt>
      <trkpt lat="-21.958585" lon="-44.890846">
        <ele>896.060</ele>
        <time>2019-10-17T15:48:07Z</time>
      </trkpt>
      <trkpt lat="-21.958588" lon="-44.890795">
        <ele>896.526</ele>
        <time>2019-10-17T15:48:10Z</time>
      </trkpt>
      <trkpt lat="-21.958592" lon="-44.890735">
        <ele>896.808</ele>
        <time>2019-10-17T15:48:14Z</time>
      </trkpt>
      <trkpt lat="-21.958587" lon="-44.890672">
        <ele>897.472</ele>
        <time>2019-10-17T15:48:18Z</time>
      </trkpt>
      <trkpt lat="-21.958587" lon="-44.890613">
        <ele>897.350</ele>
        <time>2019-10-17T15:48:21Z</time>
      </trkpt>
      <trkpt lat="-21.958599" lon="-44.890560">
        <ele>897.513</ele>
        <time>2019-10-17T15:48:23Z</time>
      </trkpt>
      <trkpt lat="-21.958606" lon="-44.890509">
        <ele>897.633</ele>
        <time>2019-10-17T15:48:26Z</time>
      </trkpt>
      <trkpt lat="-21.958612" lon="-44.890456">
        <ele>898.139</ele>
        <time>2019-10-17T15:48:28Z</time>
      </trkpt>
      <trkpt lat="-21.958622" lon="-44.890403">
        <ele>898.486</ele>
        <time>2019-10-17T15:48:32Z</time>
      </trkpt>
      <trkpt lat="-21.958625" lon="-44.890337">
        <ele>899.242</ele>
        <time>2019-10-17T15:48:35Z</time>
      </trkpt>
      <trkpt lat="-21.958647" lon="-44.890277">
        <ele>899.270</ele>
        <time>2019-10-17T15:48:38Z</time>
      </trkpt>
      <trkpt lat="-21.958662" lon="-44.890216">
        <ele>900.172</ele>
        <time>2019-10-17T15:48:41Z</time>
      </trkpt>
      <trkpt lat="-21.958672" lon="-44.890169">
        <ele>900.613</ele>
        <time>2019-10-17T15:48:44Z</time>
      </trkpt>
      <trkpt lat="-21.958676" lon="-44.890107">
        <ele>900.714</ele>
        <time>2019-10-17T15:48:47Z</time>
      </trkpt>
      <trkpt lat="-21.958678" lon="-44.890050">
        <ele>901.408</ele>
        <time>2019-10-17T15:48:50Z</time>
      </trkpt>
      <trkpt lat="-21.958688" lon="-44.889974">
        <ele>901.151</ele>
        <time>2019-10-17T15:48:53Z</time>
      </trkpt>
      <trkpt lat="-21.958684" lon="-44.889923">
        <ele>901.199</ele>
        <time>2019-10-17T15:48:55Z</time>
      </trkpt>
      <trkpt lat="-21.958683" lon="-44.889859">
        <ele>901.092</ele>
        <time>2019-10-17T15:48:57Z</time>
      </trkpt>
      <trkpt lat="-21.958685" lon="-44.889804">
        <ele>900.892</ele>
        <time>2019-10-17T15:48:59Z</time>
      </trkpt>
      <trkpt lat="-21.958690" lon="-44.889745">
        <ele>900.758</ele>
        <time>2019-10-17T15:49:01Z</time>
      </trkpt>
      <trkpt lat="-21.958706" lon="-44.889657">
        <ele>900.765</ele>
        <time>2019-10-17T15:49:04Z</time>
      </trkpt>
      <trkpt lat="-21.958714" lon="-44.889606">
        <ele>900.721</ele>
        <time>2019-10-17T15:49:06Z</time>
      </trkpt>
      <trkpt lat="-21.958718" lon="-44.889554">
        <ele>900.819</ele>
        <time>2019-10-17T15:49:08Z</time>
      </trkpt>
      <trkpt lat="-21.958717" lon="-44.889494">
        <ele>900.925</ele>
        <time>2019-10-17T15:49:10Z</time>
      </trkpt>
      <trkpt lat="-21.958724" lon="-44.889444">
        <ele>901.026</ele>
        <time>2019-10-17T15:49:12Z</time>
      </trkpt>
      <trkpt lat="-21.958738" lon="-44.889395">
        <ele>900.208</ele>
        <time>2019-10-17T15:49:13Z</time>
      </trkpt>
      <trkpt lat="-21.958748" lon="-44.889344">
        <ele>899.808</ele>
        <time>2019-10-17T15:49:15Z</time>
      </trkpt>
      <trkpt lat="-21.958750" lon="-44.889293">
        <ele>900.256</ele>
        <time>2019-10-17T15:49:17Z</time>
      </trkpt>
      <trkpt lat="-21.958752" lon="-44.889238">
        <ele>900.284</ele>
        <time>2019-10-17T15:49:18Z</time>
      </trkpt>
      <trkpt lat="-21.958753" lon="-44.889187">
        <ele>900.167</ele>
        <time>2019-10-17T15:49:20Z</time>
      </trkpt>
      <trkpt lat="-21.958754" lon="-44.889124">
        <ele>899.777</ele>
        <time>2019-10-17T15:49:22Z</time>
      </trkpt>
      <trkpt lat="-21.958758" lon="-44.889070">
        <ele>899.923</ele>
        <time>2019-10-17T15:49:24Z</time>
      </trkpt>
      <trkpt lat="-21.958765" lon="-44.888998">
        <ele>899.650</ele>
        <time>2019-10-17T15:49:26Z</time>
      </trkpt>
      <trkpt lat="-21.958770" lon="-44.888941">
        <ele>899.746</ele>
        <time>2019-10-17T15:49:28Z</time>
      </trkpt>
      <trkpt lat="-21.958775" lon="-44.888891">
        <ele>900.124</ele>
        <time>2019-10-17T15:49:30Z</time>
      </trkpt>
      <trkpt lat="-21.958774" lon="-44.888827">
        <ele>900.114</ele>
        <time>2019-10-17T15:49:33Z</time>
      </trkpt>
      <trkpt lat="-21.958748" lon="-44.888772">
        <ele>901.454</ele>
        <time>2019-10-17T15:49:36Z</time>
      </trkpt>
      <trkpt lat="-21.958701" lon="-44.888755">
        <ele>901.909</ele>
        <time>2019-10-17T15:49:40Z</time>
      </trkpt>
      <trkpt lat="-21.958639" lon="-44.888704">
        <ele>901.508</ele>
        <time>2019-10-17T15:49:44Z</time>
      </trkpt>
      <trkpt lat="-21.958600" lon="-44.888656">
        <ele>901.495</ele>
        <time>2019-10-17T15:49:47Z</time>
      </trkpt>
      <trkpt lat="-21.958559" lon="-44.888634">
        <ele>901.453</ele>
        <time>2019-10-17T15:49:49Z</time>
      </trkpt>
      <trkpt lat="-21.958494" lon="-44.888606">
        <ele>900.976</ele>
        <time>2019-10-17T15:49:53Z</time>
      </trkpt>
      <trkpt lat="-21.958413" lon="-44.888595">
        <ele>901.966</ele>
        <time>2019-10-17T15:49:56Z</time>
      </trkpt>
      <trkpt lat="-21.958371" lon="-44.888572">
        <ele>902.212</ele>
        <time>2019-10-17T15:49:58Z</time>
      </trkpt>
      <trkpt lat="-21.958315" lon="-44.888532">
        <ele>902.469</ele>
        <time>2019-10-17T15:50:01Z</time>
      </trkpt>
      <trkpt lat="-21.958257" lon="-44.888484">
        <ele>903.295</ele>
        <time>2019-10-17T15:50:04Z</time>
      </trkpt>
      <trkpt lat="-21.958089" lon="-44.888086">
        <ele>910.393</ele>
        <time>2019-10-17T15:50:28Z</time>
      </trkpt>
      <trkpt lat="-21.958038" lon="-44.887979">
        <ele>912.112</ele>
        <time>2019-10-17T15:50:38Z</time>
      </trkpt>
      <trkpt lat="-21.957919" lon="-44.887890">
        <ele>914.432</ele>
        <time>2019-10-17T15:50:48Z</time>
      </trkpt>
    </trkseg>
  </trk>
</gpx>
